<?xml version='1.0' encoding='UTF-8'?><gpx version="1.1" creator="JPX - https://github.com/jenetics/jpx" xmlns="http://www.topografix.com/GPX/1/1"><trk><trkseg><trkpt lat="44.400043583821144" lon="11.248289881295463"><ele>129.0</ele><time>2026-04-04T07:17:48Z</time></trkpt><trkpt lat="44.40000670550066" lon="11.24819041919228"><ele>129.0</ele><time>2026-04-04T07:17:51.999Z</time></trkpt><trkpt lat="44.39995834709581" lon="11.248133443913233"><ele>129.0</ele><time>2026-04-04T07:17:53.999Z</time></trkpt><trkpt lat="44.39988916793787" lon="11.248105238107813"><ele>129.0</ele><time>2026-04-04T07:17:55.999Z</time></trkpt><trkpt lat="44.39978978178442" lon="11.248102307566642"><ele>129.0</ele><time>2026-04-04T07:17:57.999Z</time></trkpt><trkpt lat="44.39968829468995" lon="11.248090105534503"><ele>129.0</ele><time>2026-04-04T07:17:59.999Z</time></trkpt><trkpt lat="44.39959410614846" lon="11.248093252449182"><ele>130.2</ele><time>2026-04-04T07:18:01.999Z</time></trkpt><trkpt lat="44.3994929766846" lon="11.248101354432109"><ele>131.4</ele><time>2026-04-04T07:18:03.999Z</time></trkpt><trkpt lat="44.39941016522896" lon="11.248104441344628"><ele>132.6</ele><time>2026-04-04T07:18:04.999Z</time></trkpt><trkpt lat="44.399312714535604" lon="11.248106530310876"><ele>133.8</ele><time>2026-04-04T07:18:05.999Z</time></trkpt><trkpt lat="44.39923397664551" lon="11.248117981171664"><ele>135.0</ele><time>2026-04-04T07:18:06.999Z</time></trkpt><trkpt lat="44.39913257312276" lon="11.248105104165417"><ele>135.0</ele><time>2026-04-04T07:18:08.999Z</time></trkpt><trkpt lat="44.39907000260637" lon="11.248064790264783"><ele>135.0</ele><time>2026-04-04T07:18:12.999Z</time></trkpt><trkpt lat="44.39895475088251" lon="11.248053797991309"><ele>135.0</ele><time>2026-04-04T07:18:37Z</time></trkpt><trkpt lat="44.39887963380645" lon="11.248050050438593"><ele>135.0</ele><time>2026-04-04T07:18:38Z</time></trkpt><trkpt lat="44.3988017736459" lon="11.248046240468938"><ele>135.0</ele><time>2026-04-04T07:18:39Z</time></trkpt><trkpt lat="44.398722910530196" lon="11.248050126157745"><ele>135.0</ele><time>2026-04-04T07:18:40Z</time></trkpt><trkpt lat="44.39863880299598" lon="11.248051168201817"><ele>134.5</ele><time>2026-04-04T07:18:41Z</time></trkpt><trkpt lat="44.39855549524698" lon="11.248046897339668"><ele>134.0</ele><time>2026-04-04T07:18:42Z</time></trkpt><trkpt lat="44.39847510463895" lon="11.248040471383707"><ele>133.5</ele><time>2026-04-04T07:18:43Z</time></trkpt><trkpt lat="44.39838656465734" lon="11.24804051785865"><ele>133.0</ele><time>2026-04-04T07:18:44Z</time></trkpt><trkpt lat="44.398307772216064" lon="11.248036966945879"><ele>132.5</ele><time>2026-04-04T07:18:45Z</time></trkpt><trkpt lat="44.398232777383704" lon="11.248038903981339"><ele>132.0</ele><time>2026-04-04T07:18:46Z</time></trkpt><trkpt lat="44.398151301091644" lon="11.248037790575344"><ele>132.0</ele><time>2026-04-04T07:18:47Z</time></trkpt><trkpt lat="44.3980664955064" lon="11.248034910896061"><ele>132.0</ele><time>2026-04-04T07:18:48Z</time></trkpt><trkpt lat="44.397980827140216" lon="11.248031744318514"><ele>132.0</ele><time>2026-04-04T07:18:49Z</time></trkpt><trkpt lat="44.397894844377944" lon="11.248032704586231"><ele>132.0</ele><time>2026-04-04T07:18:50Z</time></trkpt><trkpt lat="44.397808746768" lon="11.248034753108094"><ele>132.0</ele><time>2026-04-04T07:18:51Z</time></trkpt><trkpt lat="44.397717247511075" lon="11.248027842414931"><ele>132.0</ele><time>2026-04-04T07:18:52Z</time></trkpt><trkpt lat="44.39762565885915" lon="11.24801887005011"><ele>131.6</ele><time>2026-04-04T07:18:53Z</time></trkpt><trkpt lat="44.39752459768152" lon="11.248012559440918"><ele>131.2</ele><time>2026-04-04T07:18:54Z</time></trkpt><trkpt lat="44.397416274580955" lon="11.248007009398934"><ele>130.8</ele><time>2026-04-04T07:18:55Z</time></trkpt><trkpt lat="44.397308953982936" lon="11.248007686860044"><ele>130.4</ele><time>2026-04-04T07:18:56Z</time></trkpt><trkpt lat="44.397195137135995" lon="11.248007678609326"><ele>130.0</ele><time>2026-04-04T07:18:57Z</time></trkpt><trkpt lat="44.39708248058415" lon="11.248003156236788"><ele>129.8</ele><time>2026-04-04T07:18:58Z</time></trkpt><trkpt lat="44.396975095491676" lon="11.248002784091979"><ele>129.6</ele><time>2026-04-04T07:18:59Z</time></trkpt><trkpt lat="44.39686946785618" lon="11.247996763858579"><ele>129.4</ele><time>2026-04-04T07:19:00Z</time></trkpt><trkpt lat="44.396764001937655" lon="11.247996116975727"><ele>129.2</ele><time>2026-04-04T07:19:01Z</time></trkpt><trkpt lat="44.39665914395793" lon="11.247992219103871"><ele>129.0</ele><time>2026-04-04T07:19:02Z</time></trkpt><trkpt lat="44.39655950008132" lon="11.24798603531075"><ele>129.0</ele><time>2026-04-04T07:19:03Z</time></trkpt><trkpt lat="44.39645451036441" lon="11.247982878869472"><ele>129.0</ele><time>2026-04-04T07:19:04Z</time></trkpt><trkpt lat="44.3963516629616" lon="11.247975826879427"><ele>129.0</ele><time>2026-04-04T07:19:05Z</time></trkpt><trkpt lat="44.39625817728309" lon="11.247975244186295"><ele>129.0</ele><time>2026-04-04T07:19:06Z</time></trkpt><trkpt lat="44.396162840143184" lon="11.247970006995029"><ele>129.0</ele><time>2026-04-04T07:19:07Z</time></trkpt><trkpt lat="44.39607149871244" lon="11.247963019333566"><ele>128.83333333333334</ele><time>2026-04-04T07:19:08Z</time></trkpt><trkpt lat="44.39598193240694" lon="11.247956888717201"><ele>128.66666666666666</ele><time>2026-04-04T07:19:09Z</time></trkpt><trkpt lat="44.39589549887069" lon="11.247950006699337"><ele>128.5</ele><time>2026-04-04T07:19:10Z</time></trkpt><trkpt lat="44.39581514751386" lon="11.247933065224025"><ele>128.33333333333331</ele><time>2026-04-04T07:19:11Z</time></trkpt><trkpt lat="44.395748506636906" lon="11.24791395776183"><ele>128.16666666666666</ele><time>2026-04-04T07:19:12Z</time></trkpt><trkpt lat="44.3956891984154" lon="11.247860334062997"><ele>128.0</ele><time>2026-04-04T07:19:14Z</time></trkpt><trkpt lat="44.39571716128791" lon="11.247712436223129"><ele>127.99999999999999</ele><time>2026-04-04T07:19:17Z</time></trkpt><trkpt lat="44.39577016488792" lon="11.247575604852049"><ele>128.0</ele><time>2026-04-04T07:19:19Z</time></trkpt><trkpt lat="44.395799544537574" lon="11.247496500273275"><ele>128.0</ele><time>2026-04-04T07:19:20Z</time></trkpt><trkpt lat="44.39583228146116" lon="11.247407757722463"><ele>128.0</ele><time>2026-04-04T07:19:21Z</time></trkpt><trkpt lat="44.39586630770619" lon="11.247313133769087"><ele>127.99999999999999</ele><time>2026-04-04T07:19:22Z</time></trkpt><trkpt lat="44.395902947103" lon="11.247214454824784"><ele>128.0</ele><time>2026-04-04T07:19:23Z</time></trkpt><trkpt lat="44.39593808172038" lon="11.247112168677099"><ele>128.14285714285714</ele><time>2026-04-04T07:19:24Z</time></trkpt><trkpt lat="44.39597913214473" lon="11.247010979403466"><ele>128.28571428571428</ele><time>2026-04-04T07:19:25Z</time></trkpt><trkpt lat="44.3960116899137" lon="11.246917192810823"><ele>128.42857142857142</ele><time>2026-04-04T07:19:26Z</time></trkpt><trkpt lat="44.396047687491624" lon="11.246828877429733"><ele>128.57142857142856</ele><time>2026-04-04T07:19:27Z</time></trkpt><trkpt lat="44.39608120527002" lon="11.246738359790664"><ele>128.71428571428572</ele><time>2026-04-04T07:19:28Z</time></trkpt><trkpt lat="44.39611281178018" lon="11.246646741460065"><ele>128.85714285714283</ele><time>2026-04-04T07:19:29Z</time></trkpt><trkpt lat="44.396143807357504" lon="11.24655656601458"><ele>129.0</ele><time>2026-04-04T07:19:30Z</time></trkpt><trkpt lat="44.39617506690897" lon="11.246462719434486"><ele>129.42857142857142</ele><time>2026-04-04T07:19:31Z</time></trkpt><trkpt lat="44.39621149462181" lon="11.246370331381627"><ele>129.85714285714286</ele><time>2026-04-04T07:19:32Z</time></trkpt><trkpt lat="44.396248587653865" lon="11.246281818878233"><ele>130.28571428571428</ele><time>2026-04-04T07:19:33Z</time></trkpt><trkpt lat="44.39627951840999" lon="11.246195839229523"><ele>130.71428571428572</ele><time>2026-04-04T07:19:34Z</time></trkpt><trkpt lat="44.39631333534374" lon="11.246104243959198"><ele>131.14285714285714</ele><time>2026-04-04T07:19:35Z</time></trkpt><trkpt lat="44.39634401231566" lon="11.246009851912428"><ele>131.57142857142856</ele><time>2026-04-04T07:19:36Z</time></trkpt><trkpt lat="44.3963748031459" lon="11.245923280312551"><ele>132.0</ele><time>2026-04-04T07:19:37Z</time></trkpt><trkpt lat="44.396423802466956" lon="11.245796858061992"><ele>132.2</ele><time>2026-04-04T07:19:39Z</time></trkpt><trkpt lat="44.39645645305224" lon="11.24571970124034"><ele>132.39999999999998</ele><time>2026-04-04T07:19:47.999Z</time></trkpt><trkpt lat="44.39639010878541" lon="11.245551718334331"><ele>132.60000000000002</ele><time>2026-04-04T07:20:04.999Z</time></trkpt><trkpt lat="44.39632439052249" lon="11.245507434157794"><ele>132.8</ele><time>2026-04-04T07:20:05.999Z</time></trkpt><trkpt lat="44.39621980982387" lon="11.245437194332515"><ele>133.0</ele><time>2026-04-04T07:20:07.999Z</time></trkpt><trkpt lat="44.39610951529165" lon="11.24536369143759"><ele>133.5</ele><time>2026-04-04T07:20:09.999Z</time></trkpt><trkpt lat="44.39604230717679" lon="11.245319199421724"><ele>134.0</ele><time>2026-04-04T07:20:10.999Z</time></trkpt><trkpt lat="44.39597758056459" lon="11.245278003595658"><ele>134.5</ele><time>2026-04-04T07:20:11.999Z</time></trkpt><trkpt lat="44.39590024088143" lon="11.245253992796142"><ele>135.0</ele><time>2026-04-04T07:20:12.999Z</time></trkpt><trkpt lat="44.39583311769763" lon="11.245207377111088"><ele>135.5</ele><time>2026-04-04T07:20:13.999Z</time></trkpt><trkpt lat="44.395762557371405" lon="11.245172230608109"><ele>136.0</ele><time>2026-04-04T07:20:14.999Z</time></trkpt><trkpt lat="44.39568802604338" lon="11.245148735925062"><ele>136.0</ele><time>2026-04-04T07:20:15.999Z</time></trkpt><trkpt lat="44.39561395310809" lon="11.245114344894473"><ele>136.0</ele><time>2026-04-04T07:20:16.999Z</time></trkpt><trkpt lat="44.39553733985013" lon="11.245093918092897"><ele>136.0</ele><time>2026-04-04T07:20:17.999Z</time></trkpt><trkpt lat="44.39545835728875" lon="11.245098226307627"><ele>136.0</ele><time>2026-04-04T07:20:18.999Z</time></trkpt><trkpt lat="44.395392780712726" lon="11.245049257051582"><ele>136.0</ele><time>2026-04-04T07:20:19.999Z</time></trkpt><trkpt lat="44.3953279700488" lon="11.245061306956067"><ele>136.0</ele><time>2026-04-04T07:20:21.999Z</time></trkpt><trkpt lat="44.39522832900787" lon="11.24502659592059"><ele>136.0</ele><time>2026-04-04T07:20:31.999Z</time></trkpt><trkpt lat="44.3951647646437" lon="11.245014063014139"><ele>136.0</ele><time>2026-04-04T07:20:34Z</time></trkpt><trkpt lat="44.3951179914616" lon="11.245154066378884"><ele>136.0</ele><time>2026-04-04T07:20:39Z</time></trkpt><trkpt lat="44.39520998101895" lon="11.24508082790254"><ele>136.0</ele><time>2026-04-04T07:20:43Z</time></trkpt><trkpt lat="44.39528635720238" lon="11.24511497788911"><ele>136.0</ele><time>2026-04-04T07:20:45Z</time></trkpt><trkpt lat="44.3953612841183" lon="11.245115075947616"><ele>136.0</ele><time>2026-04-04T07:20:47Z</time></trkpt><trkpt lat="44.39541879053874" lon="11.245036581397855"><ele>136.0</ele><time>2026-04-04T07:20:50Z</time></trkpt><trkpt lat="44.395438561472616" lon="11.244924839131334"><ele>136.0</ele><time>2026-04-04T07:20:53Z</time></trkpt><trkpt lat="44.3954603156577" lon="11.244806082302718"><ele>136.0</ele><time>2026-04-04T07:20:55Z</time></trkpt><trkpt lat="44.39548737240064" lon="11.244672341625433"><ele>136.0</ele><time>2026-04-04T07:20:57Z</time></trkpt><trkpt lat="44.395517082702035" lon="11.24452548418697"><ele>136.0</ele><time>2026-04-04T07:20:59Z</time></trkpt><trkpt lat="44.39554891336598" lon="11.244362801340685"><ele>136.5</ele><time>2026-04-04T07:21:01Z</time></trkpt><trkpt lat="44.39556743952732" lon="11.244201848780992"><ele>137.0</ele><time>2026-04-04T07:21:03Z</time></trkpt><trkpt lat="44.3955805672979" lon="11.24411554474057"><ele>137.5</ele><time>2026-04-04T07:21:04Z</time></trkpt><trkpt lat="44.39560570040168" lon="11.244030996639511"><ele>138.0</ele><time>2026-04-04T07:21:05Z</time></trkpt><trkpt lat="44.39563064506625" lon="11.24389566808759"><ele>138.5</ele><time>2026-04-04T07:21:07Z</time></trkpt><trkpt lat="44.3956724820495" lon="11.24376790874887"><ele>139.0</ele><time>2026-04-04T07:21:10Z</time></trkpt><trkpt lat="44.3956977675207" lon="11.24364693658257"><ele>139.66666666666669</ele><time>2026-04-04T07:21:12Z</time></trkpt><trkpt lat="44.39572355494562" lon="11.243470546786085"><ele>140.33333333333334</ele><time>2026-04-04T07:21:14Z</time></trkpt><trkpt lat="44.39574447082651" lon="11.243372265457062"><ele>141.0</ele><time>2026-04-04T07:21:15Z</time></trkpt><trkpt lat="44.395767665727945" lon="11.243273969555872"><ele>141.66666666666666</ele><time>2026-04-04T07:21:16Z</time></trkpt><trkpt lat="44.395793404453386" lon="11.243182624259257"><ele>142.33333333333331</ele><time>2026-04-04T07:21:17Z</time></trkpt><trkpt lat="44.395819040294214" lon="11.243077463442903"><ele>143.0</ele><time>2026-04-04T07:21:18Z</time></trkpt><trkpt lat="44.39585175476879" lon="11.242961796090466"><ele>145.0</ele><time>2026-04-04T07:21:19Z</time></trkpt><trkpt lat="44.39589023935592" lon="11.242839993771394"><ele>147.0</ele><time>2026-04-04T07:21:20Z</time></trkpt><trkpt lat="44.395937776185704" lon="11.24271597387074"><ele>149.0</ele><time>2026-04-04T07:21:21Z</time></trkpt><trkpt lat="44.395989908970805" lon="11.242597907092291"><ele>151.0</ele><time>2026-04-04T07:21:22Z</time></trkpt><trkpt lat="44.39604464002803" lon="11.24248890420334"><ele>153.0</ele><time>2026-04-04T07:21:23Z</time></trkpt><trkpt lat="44.39609613731053" lon="11.242377161168438"><ele>157.4</ele><time>2026-04-04T07:21:24Z</time></trkpt><trkpt lat="44.39613899877297" lon="11.242260236959305"><ele>161.8</ele><time>2026-04-04T07:21:25Z</time></trkpt><trkpt lat="44.39618114640175" lon="11.242145473952023"><ele>166.2</ele><time>2026-04-04T07:21:26Z</time></trkpt><trkpt lat="44.39620897814376" lon="11.242023329152154"><ele>170.6</ele><time>2026-04-04T07:21:27Z</time></trkpt><trkpt lat="44.396221886906204" lon="11.241898976260755"><ele>175.0</ele><time>2026-04-04T07:21:28Z</time></trkpt><trkpt lat="44.39621800290367" lon="11.241765135001703"><ele>175.0</ele><time>2026-04-04T07:21:29Z</time></trkpt><trkpt lat="44.396237742558554" lon="11.241627635967644"><ele>175.0</ele><time>2026-04-04T07:21:30Z</time></trkpt><trkpt lat="44.39625665918465" lon="11.241486591325005"><ele>175.0</ele><time>2026-04-04T07:21:31Z</time></trkpt><trkpt lat="44.3962899899487" lon="11.24133976041801"><ele>175.0</ele><time>2026-04-04T07:21:32Z</time></trkpt><trkpt lat="44.39634386379544" lon="11.24119475453827"><ele>175.0</ele><time>2026-04-04T07:21:32.999Z</time></trkpt><trkpt lat="44.396412925818645" lon="11.241068976622945"><ele>177.5</ele><time>2026-04-04T07:21:33.999Z</time></trkpt><trkpt lat="44.396479988571585" lon="11.240927630120584"><ele>180.0</ele><time>2026-04-04T07:21:34.999Z</time></trkpt><trkpt lat="44.3965621095136" lon="11.240798002591461"><ele>182.5</ele><time>2026-04-04T07:21:35.999Z</time></trkpt><trkpt lat="44.39663906719953" lon="11.24065461454975"><ele>185.0</ele><time>2026-04-04T07:21:36.999Z</time></trkpt><trkpt lat="44.39671381508262" lon="11.2405089761647"><ele>187.25</ele><time>2026-04-04T07:21:37.999Z</time></trkpt><trkpt lat="44.39678794865192" lon="11.240362310381546"><ele>189.5</ele><time>2026-04-04T07:21:38.999Z</time></trkpt><trkpt lat="44.39687364088842" lon="11.240221271382385"><ele>191.75</ele><time>2026-04-04T07:21:39.999Z</time></trkpt><trkpt lat="44.396933511565464" lon="11.240051970679856"><ele>194.0</ele><time>2026-04-04T07:21:40.999Z</time></trkpt><trkpt lat="44.39701983076382" lon="11.239898992220091"><ele>197.5</ele><time>2026-04-04T07:21:41.999Z</time></trkpt><trkpt lat="44.39708544653164" lon="11.239733399669422"><ele>201.0</ele><time>2026-04-04T07:21:42.999Z</time></trkpt><trkpt lat="44.397147863129796" lon="11.239564862280465"><ele>204.5</ele><time>2026-04-04T07:21:43.999Z</time></trkpt><trkpt lat="44.39718953415812" lon="11.23938606739629"><ele>208.0</ele><time>2026-04-04T07:21:44.999Z</time></trkpt><trkpt lat="44.39722433093639" lon="11.239204327758754"><ele>208.0</ele><time>2026-04-04T07:21:45.999Z</time></trkpt><trkpt lat="44.39724956422104" lon="11.239027307104251"><ele>208.0</ele><time>2026-04-04T07:21:46.999Z</time></trkpt><trkpt lat="44.39727438085308" lon="11.238849479589911"><ele>208.0</ele><time>2026-04-04T07:21:47.999Z</time></trkpt><trkpt lat="44.39729137600281" lon="11.238645007075403"><ele>208.0</ele><time>2026-04-04T07:21:48.999Z</time></trkpt><trkpt lat="44.397285629212966" lon="11.23853423825686"><ele>209.66666666666666</ele><time>2026-04-04T07:21:49.999Z</time></trkpt><trkpt lat="44.39729692726348" lon="11.238301736528623"><ele>211.33333333333331</ele><time>2026-04-04T07:21:51.999Z</time></trkpt><trkpt lat="44.39725046136417" lon="11.238014983324911"><ele>213.0</ele><time>2026-04-04T07:21:52.999Z</time></trkpt><trkpt lat="44.39724029740275" lon="11.237816688546053"><ele>213.8</ele><time>2026-04-04T07:21:53.999Z</time></trkpt><trkpt lat="44.39723510607597" lon="11.237632020104291"><ele>214.60000000000002</ele><time>2026-04-04T07:21:54.999Z</time></trkpt><trkpt lat="44.39725150402601" lon="11.2375156268716"><ele>215.39999999999998</ele><time>2026-04-04T07:21:55.999Z</time></trkpt><trkpt lat="44.397271736472746" lon="11.237396196462292"><ele>216.2</ele><time>2026-04-04T07:21:56.999Z</time></trkpt><trkpt lat="44.39731790346854" lon="11.237228109435119"><ele>217.0</ele><time>2026-04-04T07:21:58.999Z</time></trkpt><trkpt lat="44.39736891282717" lon="11.237142216053307"><ele>218.33333333333331</ele><time>2026-04-04T07:21:59.999Z</time></trkpt><trkpt lat="44.39742829171752" lon="11.237053705120486"><ele>219.66666666666666</ele><time>2026-04-04T07:22:00.999Z</time></trkpt><trkpt lat="44.397501960250345" lon="11.236968261920033"><ele>221.0</ele><time>2026-04-04T07:22:01.999Z</time></trkpt><trkpt lat="44.39756495127931" lon="11.236882502694371"><ele>222.33333333333331</ele><time>2026-04-04T07:22:02.999Z</time></trkpt><trkpt lat="44.39760012253772" lon="11.236794683375448"><ele>223.66666666666666</ele><time>2026-04-04T07:22:03.999Z</time></trkpt><trkpt lat="44.39761251565898" lon="11.23668574845027"><ele>225.0</ele><time>2026-04-04T07:22:04.999Z</time></trkpt><trkpt lat="44.397563628393165" lon="11.23655821933988"><ele>226.6</ele><time>2026-04-04T07:22:05.999Z</time></trkpt><trkpt lat="44.39751089807453" lon="11.23642606503012"><ele>228.2</ele><time>2026-04-04T07:22:06.999Z</time></trkpt><trkpt lat="44.397466477455794" lon="11.236275876333254"><ele>229.8</ele><time>2026-04-04T07:22:07.999Z</time></trkpt><trkpt lat="44.39739556165095" lon="11.236134358850913"><ele>231.4</ele><time>2026-04-04T07:22:08.999Z</time></trkpt><trkpt lat="44.39735558636367" lon="11.236010114443348"><ele>233.0</ele><time>2026-04-04T07:22:09.999Z</time></trkpt><trkpt lat="44.39729806094976" lon="11.235862069541659"><ele>233.0</ele><time>2026-04-04T07:22:10.999Z</time></trkpt><trkpt lat="44.39724637597702" lon="11.235719355132458"><ele>233.0</ele><time>2026-04-04T07:22:11.999Z</time></trkpt><trkpt lat="44.39719272223023" lon="11.235574988317785"><ele>233.0</ele><time>2026-04-04T07:22:12.999Z</time></trkpt><trkpt lat="44.39713464378839" lon="11.235428134184751"><ele>233.0</ele><time>2026-04-04T07:22:13.999Z</time></trkpt><trkpt lat="44.397074471331685" lon="11.235284199625461"><ele>235.0</ele><time>2026-04-04T07:22:14.999Z</time></trkpt><trkpt lat="44.39701727695923" lon="11.235141649507064"><ele>237.0</ele><time>2026-04-04T07:22:15.999Z</time></trkpt><trkpt lat="44.396983100197275" lon="11.234981562814239"><ele>239.0</ele><time>2026-04-04T07:22:16.999Z</time></trkpt><trkpt lat="44.39693522183383" lon="11.234818068922998"><ele>241.0</ele><time>2026-04-04T07:22:17.999Z</time></trkpt><trkpt lat="44.396877810934285" lon="11.234652079329502"><ele>243.25</ele><time>2026-04-04T07:22:18.999Z</time></trkpt><trkpt lat="44.39683951850681" lon="11.234469753371648"><ele>245.5</ele><time>2026-04-04T07:22:19.999Z</time></trkpt><trkpt lat="44.39679930918926" lon="11.2342784060634"><ele>247.75</ele><time>2026-04-04T07:22:20.999Z</time></trkpt><trkpt lat="44.396763672312765" lon="11.234100146103803"><ele>250.0</ele><time>2026-04-04T07:22:21.999Z</time></trkpt><trkpt lat="44.39671565878142" lon="11.233928096499648"><ele>250.8</ele><time>2026-04-04T07:22:22.999Z</time></trkpt><trkpt lat="44.39666763130592" lon="11.233769483070361"><ele>251.6</ele><time>2026-04-04T07:22:23.999Z</time></trkpt><trkpt lat="44.39662658843602" lon="11.233640788628438"><ele>252.39999999999998</ele><time>2026-04-04T07:22:24.999Z</time></trkpt><trkpt lat="44.39659340204781" lon="11.23352504936746"><ele>253.2</ele><time>2026-04-04T07:22:25.999Z</time></trkpt><trkpt lat="44.396576771344506" lon="11.233420116203208"><ele>254.0</ele><time>2026-04-04T07:22:26.999Z</time></trkpt><trkpt lat="44.39658173900739" lon="11.233324258469771"><ele>254.00000000000003</ele><time>2026-04-04T07:22:27.999Z</time></trkpt><trkpt lat="44.396603002502566" lon="11.233241187401726"><ele>254.0</ele><time>2026-04-04T07:22:28.999Z</time></trkpt><trkpt lat="44.39664351863396" lon="11.233157951317843"><ele>254.0</ele><time>2026-04-04T07:22:29.999Z</time></trkpt><trkpt lat="44.39669809593756" lon="11.233086418710075"><ele>254.0</ele><time>2026-04-04T07:22:30.999Z</time></trkpt><trkpt lat="44.396770380148894" lon="11.233027590587584"><ele>254.00000000000003</ele><time>2026-04-04T07:22:31.999Z</time></trkpt><trkpt lat="44.396840908432175" lon="11.232968518857467"><ele>254.0</ele><time>2026-04-04T07:22:32.999Z</time></trkpt><trkpt lat="44.39692257919188" lon="11.232906559854131"><ele>252.75</ele><time>2026-04-04T07:22:33.999Z</time></trkpt><trkpt lat="44.39702229073071" lon="11.232862155401365"><ele>251.5</ele><time>2026-04-04T07:22:34.999Z</time></trkpt><trkpt lat="44.397137428994725" lon="11.232826235586877"><ele>250.25</ele><time>2026-04-04T07:22:35.999Z</time></trkpt><trkpt lat="44.397256727847356" lon="11.232786540230283"><ele>249.0</ele><time>2026-04-04T07:22:36.999Z</time></trkpt><trkpt lat="44.397381394502034" lon="11.23275062375676"><ele>251.75</ele><time>2026-04-04T07:22:37.999Z</time></trkpt><trkpt lat="44.39750297068979" lon="11.232713961129718"><ele>254.5</ele><time>2026-04-04T07:22:39Z</time></trkpt><trkpt lat="44.39760885218365" lon="11.232659979104254"><ele>257.25</ele><time>2026-04-04T07:22:40Z</time></trkpt><trkpt lat="44.39770287873043" lon="11.232576398467362"><ele>260.0</ele><time>2026-04-04T07:22:41Z</time></trkpt><trkpt lat="44.39778530700329" lon="11.232471557196513"><ele>260.0</ele><time>2026-04-04T07:22:42Z</time></trkpt><trkpt lat="44.397861833996" lon="11.232363259545624"><ele>260.0</ele><time>2026-04-04T07:22:43Z</time></trkpt><trkpt lat="44.3979344431182" lon="11.232254116530582"><ele>260.0</ele><time>2026-04-04T07:22:44Z</time></trkpt><trkpt lat="44.39798987847709" lon="11.232140177047823"><ele>260.0</ele><time>2026-04-04T07:22:45Z</time></trkpt><trkpt lat="44.39803516966183" lon="11.23201010155988"><ele>260.0</ele><time>2026-04-04T07:22:46Z</time></trkpt><trkpt lat="44.3980526529283" lon="11.231894471900125"><ele>260.1666666666667</ele><time>2026-04-04T07:22:47Z</time></trkpt><trkpt lat="44.398072708103214" lon="11.231802878416582"><ele>260.33333333333337</ele><time>2026-04-04T07:22:48Z</time></trkpt><trkpt lat="44.39810719204985" lon="11.231716209041439"><ele>260.5</ele><time>2026-04-04T07:22:49Z</time></trkpt><trkpt lat="44.39816208204067" lon="11.23164389881909"><ele>260.6666666666667</ele><time>2026-04-04T07:22:50Z</time></trkpt><trkpt lat="44.39823211291105" lon="11.231590627950206"><ele>260.8333333333333</ele><time>2026-04-04T07:22:51Z</time></trkpt><trkpt lat="44.39831491329913" lon="11.231532887194474"><ele>261.0</ele><time>2026-04-04T07:22:52Z</time></trkpt><trkpt lat="44.398402237747234" lon="11.23145881146038"><ele>261.0</ele><time>2026-04-04T07:22:53Z</time></trkpt><trkpt lat="44.398494092826894" lon="11.231383185567028"><ele>261.0</ele><time>2026-04-04T07:22:54Z</time></trkpt><trkpt lat="44.39858131837367" lon="11.231304341989814"><ele>261.0</ele><time>2026-04-04T07:22:55Z</time></trkpt><trkpt lat="44.39866465350221" lon="11.231234623009176"><ele>261.0</ele><time>2026-04-04T07:22:56Z</time></trkpt><trkpt lat="44.39875217748335" lon="11.231206796717812"><ele>261.0</ele><time>2026-04-04T07:22:57Z</time></trkpt><trkpt lat="44.39884321975412" lon="11.231233524922827"><ele>262.5</ele><time>2026-04-04T07:22:58Z</time></trkpt><trkpt lat="44.39894493931461" lon="11.23125664444223"><ele>264.0</ele><time>2026-04-04T07:22:59Z</time></trkpt><trkpt lat="44.39906049851199" lon="11.23127031031806"><ele>265.5</ele><time>2026-04-04T07:23:00Z</time></trkpt><trkpt lat="44.39918275461763" lon="11.231282707194872"><ele>267.0</ele><time>2026-04-04T07:23:01Z</time></trkpt><trkpt lat="44.39931220116811" lon="11.23128836553845"><ele>267.0</ele><time>2026-04-04T07:23:02Z</time></trkpt><trkpt lat="44.39942878968198" lon="11.231273311514839"><ele>267.0</ele><time>2026-04-04T07:23:03Z</time></trkpt><trkpt lat="44.39955896383769" lon="11.231219685552468"><ele>267.0</ele><time>2026-04-04T07:23:04Z</time></trkpt><trkpt lat="44.399689642948715" lon="11.231143416804013"><ele>267.0</ele><time>2026-04-04T07:23:05Z</time></trkpt><trkpt lat="44.399815970963076" lon="11.231057988623231"><ele>268.75</ele><time>2026-04-04T07:23:06Z</time></trkpt><trkpt lat="44.399947498853116" lon="11.230979580234905"><ele>270.5</ele><time>2026-04-04T07:23:07Z</time></trkpt><trkpt lat="44.400088263039265" lon="11.230897738661065"><ele>272.25</ele><time>2026-04-04T07:23:08Z</time></trkpt><trkpt lat="44.40022370460319" lon="11.230815709182567"><ele>274.0</ele><time>2026-04-04T07:23:09Z</time></trkpt><trkpt lat="44.400346427603466" lon="11.230749606359366"><ele>274.0</ele><time>2026-04-04T07:23:10Z</time></trkpt><trkpt lat="44.40045202234511" lon="11.230647352510351"><ele>274.0</ele><time>2026-04-04T07:23:11Z</time></trkpt><trkpt lat="44.40054002083305" lon="11.230504628241846"><ele>274.0</ele><time>2026-04-04T07:23:12Z</time></trkpt><trkpt lat="44.40062227868334" lon="11.230354896604455"><ele>274.0</ele><time>2026-04-04T07:23:13Z</time></trkpt><trkpt lat="44.40071054474372" lon="11.23019776979194"><ele>274.75</ele><time>2026-04-04T07:23:14Z</time></trkpt><trkpt lat="44.40080623766593" lon="11.230070308587877"><ele>275.5</ele><time>2026-04-04T07:23:15Z</time></trkpt><trkpt lat="44.4008925664654" lon="11.229951955755487"><ele>276.25</ele><time>2026-04-04T07:23:16Z</time></trkpt><trkpt lat="44.40097362228245" lon="11.22981804174161"><ele>277.0</ele><time>2026-04-04T07:23:17Z</time></trkpt><trkpt lat="44.40103806274237" lon="11.229672127921896"><ele>277.0</ele><time>2026-04-04T07:23:18Z</time></trkpt><trkpt lat="44.401093999041784" lon="11.229514727817"><ele>277.0</ele><time>2026-04-04T07:23:19Z</time></trkpt><trkpt lat="44.40112991367919" lon="11.229339417587383"><ele>277.0</ele><time>2026-04-04T07:23:20Z</time></trkpt><trkpt lat="44.4011360726066" lon="11.229149939214196"><ele>277.0</ele><time>2026-04-04T07:23:21Z</time></trkpt><trkpt lat="44.40111990739617" lon="11.228966327802135"><ele>277.75</ele><time>2026-04-04T07:23:22Z</time></trkpt><trkpt lat="44.40110503077207" lon="11.22878353784158"><ele>278.5</ele><time>2026-04-04T07:23:23Z</time></trkpt><trkpt lat="44.401091567501666" lon="11.228606482550727"><ele>279.25</ele><time>2026-04-04T07:23:24Z</time></trkpt><trkpt lat="44.40108690055828" lon="11.228448136960344"><ele>280.0</ele><time>2026-04-04T07:23:25Z</time></trkpt><trkpt lat="44.40109015421329" lon="11.228309142899649"><ele>280.0</ele><time>2026-04-04T07:23:26Z</time></trkpt><trkpt lat="44.40113199710445" lon="11.228177151096808"><ele>280.0</ele><time>2026-04-04T07:23:27Z</time></trkpt><trkpt lat="44.40116751186367" lon="11.228030646453247"><ele>280.0</ele><time>2026-04-04T07:23:28Z</time></trkpt><trkpt lat="44.40117189616987" lon="11.227875686143777"><ele>280.0</ele><time>2026-04-04T07:23:29Z</time></trkpt><trkpt lat="44.40117243361657" lon="11.227718010557442"><ele>280.0</ele><time>2026-04-04T07:23:30Z</time></trkpt><trkpt lat="44.40116180009988" lon="11.227552336623239"><ele>280.5</ele><time>2026-04-04T07:23:30.999Z</time></trkpt><trkpt lat="44.401181674227466" lon="11.22738996409657"><ele>281.0</ele><time>2026-04-04T07:23:31.999Z</time></trkpt><trkpt lat="44.401203891043735" lon="11.227221074736178"><ele>281.5</ele><time>2026-04-04T07:23:32.999Z</time></trkpt><trkpt lat="44.40122159944117" lon="11.227046439446637"><ele>282.0</ele><time>2026-04-04T07:23:33.999Z</time></trkpt><trkpt lat="44.401257489739976" lon="11.226871244632827"><ele>282.0</ele><time>2026-04-04T07:23:34.999Z</time></trkpt><trkpt lat="44.40130424133933" lon="11.226694368267232"><ele>282.0</ele><time>2026-04-04T07:23:35.999Z</time></trkpt><trkpt lat="44.401330868983116" lon="11.226515157408961"><ele>282.0</ele><time>2026-04-04T07:23:36.999Z</time></trkpt><trkpt lat="44.40135860661396" lon="11.226334199951339"><ele>282.0</ele><time>2026-04-04T07:23:37.999Z</time></trkpt><trkpt lat="44.40138326405556" lon="11.226154428258186"><ele>288.25</ele><time>2026-04-04T07:23:38.999Z</time></trkpt><trkpt lat="44.401395761071655" lon="11.225967580691439"><ele>294.5</ele><time>2026-04-04T07:23:39.999Z</time></trkpt><trkpt lat="44.40140987078434" lon="11.225776534203925"><ele>300.75</ele><time>2026-04-04T07:23:40.999Z</time></trkpt><trkpt lat="44.40143135231536" lon="11.225582137934666"><ele>307.0</ele><time>2026-04-04T07:23:41.999Z</time></trkpt><trkpt lat="44.40141297881079" lon="11.225383724731305"><ele>307.0</ele><time>2026-04-04T07:23:42.999Z</time></trkpt><trkpt lat="44.40137814016423" lon="11.225195067162414"><ele>307.0</ele><time>2026-04-04T07:23:43.999Z</time></trkpt><trkpt lat="44.40133863898978" lon="11.225011435829407"><ele>307.0</ele><time>2026-04-04T07:23:44.999Z</time></trkpt><trkpt lat="44.401278517480684" lon="11.224838133488104"><ele>307.0</ele><time>2026-04-04T07:23:45.999Z</time></trkpt><trkpt lat="44.401207330843015" lon="11.224668128026934"><ele>305.75</ele><time>2026-04-04T07:23:46.999Z</time></trkpt><trkpt lat="44.40113195573344" lon="11.224504008589332"><ele>304.5</ele><time>2026-04-04T07:23:47.999Z</time></trkpt><trkpt lat="44.40106461594032" lon="11.224339302618047"><ele>303.25</ele><time>2026-04-04T07:23:48.999Z</time></trkpt><trkpt lat="44.40100483958666" lon="11.224191780876273"><ele>302.0</ele><time>2026-04-04T07:23:49.999Z</time></trkpt><trkpt lat="44.40094546886722" lon="11.224043499288934"><ele>301.5</ele><time>2026-04-04T07:23:50.999Z</time></trkpt><trkpt lat="44.40088278374915" lon="11.223884555958048"><ele>301.0</ele><time>2026-04-04T07:23:51.999Z</time></trkpt><trkpt lat="44.40082734285979" lon="11.223710839268705"><ele>300.5</ele><time>2026-04-04T07:23:52.999Z</time></trkpt><trkpt lat="44.40077514514947" lon="11.223533174412434"><ele>300.0</ele><time>2026-04-04T07:23:53.999Z</time></trkpt><trkpt lat="44.400732000549596" lon="11.223372198098271"><ele>300.0</ele><time>2026-04-04T07:23:54.999Z</time></trkpt><trkpt lat="44.40069189181193" lon="11.223199906585638"><ele>300.0</ele><time>2026-04-04T07:23:55.999Z</time></trkpt><trkpt lat="44.40065748678481" lon="11.22303358128588"><ele>300.0</ele><time>2026-04-04T07:23:56.999Z</time></trkpt><trkpt lat="44.4006377621922" lon="11.222864670632541"><ele>300.0</ele><time>2026-04-04T07:23:57.999Z</time></trkpt><trkpt lat="44.400626770919224" lon="11.222692141000088"><ele>300.0</ele><time>2026-04-04T07:23:58.999Z</time></trkpt><trkpt lat="44.40060784584726" lon="11.22253109648603"><ele>300.0</ele><time>2026-04-04T07:23:59.999Z</time></trkpt><trkpt lat="44.400583815292435" lon="11.222371521181632"><ele>300.0</ele><time>2026-04-04T07:24:00.999Z</time></trkpt><trkpt lat="44.400549704255646" lon="11.222212401808932"><ele>300.0</ele><time>2026-04-04T07:24:01.999Z</time></trkpt><trkpt lat="44.40051370774914" lon="11.222057100454096"><ele>303.4</ele><time>2026-04-04T07:24:02.999Z</time></trkpt><trkpt lat="44.40048136520803" lon="11.221923244807641"><ele>306.8</ele><time>2026-04-04T07:24:03.999Z</time></trkpt><trkpt lat="44.40046311382371" lon="11.221795344301354"><ele>310.2</ele><time>2026-04-04T07:24:04.999Z</time></trkpt><trkpt lat="44.400437015191066" lon="11.22169367537281"><ele>313.6</ele><time>2026-04-04T07:24:05.999Z</time></trkpt><trkpt lat="44.400433158032634" lon="11.221556033814844"><ele>317.0</ele><time>2026-04-04T07:24:06.999Z</time></trkpt><trkpt lat="44.40044870247779" lon="11.221427528728519"><ele>317.8</ele><time>2026-04-04T07:24:07.999Z</time></trkpt><trkpt lat="44.40046938157201" lon="11.221295759747875"><ele>318.6</ele><time>2026-04-04T07:24:08.999Z</time></trkpt><trkpt lat="44.40048871067272" lon="11.221156846445762"><ele>319.40000000000003</ele><time>2026-04-04T07:24:09.999Z</time></trkpt><trkpt lat="44.40050845664807" lon="11.221014697014944"><ele>320.2</ele><time>2026-04-04T07:24:10.999Z</time></trkpt><trkpt lat="44.40052841832215" lon="11.220873141771367"><ele>321.0</ele><time>2026-04-04T07:24:11.999Z</time></trkpt><trkpt lat="44.4005545753661" lon="11.220737732632662"><ele>324.6</ele><time>2026-04-04T07:24:12.999Z</time></trkpt><trkpt lat="44.40058316209898" lon="11.220603840694656"><ele>328.20000000000005</ele><time>2026-04-04T07:24:13.999Z</time></trkpt><trkpt lat="44.40061886579032" lon="11.220477191730172"><ele>331.79999999999995</ele><time>2026-04-04T07:24:14.999Z</time></trkpt><trkpt lat="44.40065852095998" lon="11.220367491063778"><ele>335.4</ele><time>2026-04-04T07:24:15.999Z</time></trkpt><trkpt lat="44.40069031907085" lon="11.22029031296018"><ele>339.0</ele><time>2026-04-04T07:24:16.999Z</time></trkpt><trkpt lat="44.40076517288555" lon="11.22014625869116"><ele>339.0</ele><time>2026-04-04T07:24:18.999Z</time></trkpt><trkpt lat="44.40080469303985" lon="11.220057454588392"><ele>339.0</ele><time>2026-04-04T07:24:19.999Z</time></trkpt><trkpt lat="44.40084568285371" lon="11.219966076892929"><ele>339.0</ele><time>2026-04-04T07:24:20.999Z</time></trkpt><trkpt lat="44.4008678716989" lon="11.219858122093646"><ele>339.0</ele><time>2026-04-04T07:24:21.999Z</time></trkpt><trkpt lat="44.400880326683904" lon="11.219750339920086"><ele>339.0</ele><time>2026-04-04T07:24:22.999Z</time></trkpt><trkpt lat="44.40087704827129" lon="11.219630976415093"><ele>339.0</ele><time>2026-04-04T07:24:23.999Z</time></trkpt><trkpt lat="44.40085985454621" lon="11.219516448031161"><ele>340.8333333333333</ele><time>2026-04-04T07:24:24.999Z</time></trkpt><trkpt lat="44.400851574957876" lon="11.219403919837788"><ele>342.6666666666667</ele><time>2026-04-04T07:24:25.999Z</time></trkpt><trkpt lat="44.40083405663054" lon="11.219294988014282"><ele>344.5</ele><time>2026-04-04T07:24:26.999Z</time></trkpt><trkpt lat="44.40083494775499" lon="11.219202505472635"><ele>346.33333333333337</ele><time>2026-04-04T07:24:27.999Z</time></trkpt><trkpt lat="44.400886861392316" lon="11.21905089786264"><ele>348.1666666666667</ele><time>2026-04-04T07:24:29.999Z</time></trkpt><trkpt lat="44.400949136381584" lon="11.218970183847023"><ele>350.0</ele><time>2026-04-04T07:24:30.999Z</time></trkpt><trkpt lat="44.401014757361466" lon="11.218887931848252"><ele>350.2</ele><time>2026-04-04T07:24:31.999Z</time></trkpt><trkpt lat="44.401102689539066" lon="11.21882092521418"><ele>350.4</ele><time>2026-04-04T07:24:32.999Z</time></trkpt><trkpt lat="44.40117638078239" lon="11.218732190368641"><ele>350.6</ele><time>2026-04-04T07:24:33.999Z</time></trkpt><trkpt lat="44.40125433719902" lon="11.218659418905101"><ele>350.8</ele><time>2026-04-04T07:24:34.999Z</time></trkpt><trkpt lat="44.40131042097267" lon="11.218565084918104"><ele>351.0</ele><time>2026-04-04T07:24:35.999Z</time></trkpt><trkpt lat="44.40136086717118" lon="11.218453934538806"><ele>351.0</ele><time>2026-04-04T07:24:36.999Z</time></trkpt><trkpt lat="44.40136384601666" lon="11.218300365528767"><ele>351.0</ele><time>2026-04-04T07:24:37.999Z</time></trkpt><trkpt lat="44.401372739758614" lon="11.21815268284008"><ele>351.0</ele><time>2026-04-04T07:24:38.999Z</time></trkpt><trkpt lat="44.4013863508755" lon="11.218010475751065"><ele>351.0</ele><time>2026-04-04T07:24:39.999Z</time></trkpt><trkpt lat="44.40139180006016" lon="11.21786557116234"><ele>351.0</ele><time>2026-04-04T07:24:40.999Z</time></trkpt><trkpt lat="44.40143237709243" lon="11.217742396305626"><ele>355.1666666666667</ele><time>2026-04-04T07:24:41.999Z</time></trkpt><trkpt lat="44.40147226969739" lon="11.21762755925907"><ele>359.3333333333333</ele><time>2026-04-04T07:24:42.999Z</time></trkpt><trkpt lat="44.401512070053656" lon="11.217517703559626"><ele>363.5</ele><time>2026-04-04T07:24:43.999Z</time></trkpt><trkpt lat="44.40160218556652" lon="11.217467497838117"><ele>367.66666666666663</ele><time>2026-04-04T07:24:45Z</time></trkpt><trkpt lat="44.4016792426288" lon="11.21742205120489"><ele>371.8333333333333</ele><time>2026-04-04T07:24:46Z</time></trkpt><trkpt lat="44.40174606670423" lon="11.217379738121748"><ele>376.0</ele><time>2026-04-04T07:24:47Z</time></trkpt><trkpt lat="44.40181694045701" lon="11.217318270577602"><ele>374.0</ele><time>2026-04-04T07:24:48Z</time></trkpt><trkpt lat="44.40189482870681" lon="11.217268192451915"><ele>372.0</ele><time>2026-04-04T07:24:49Z</time></trkpt><trkpt lat="44.40196569118014" lon="11.217239656156686"><ele>370.0</ele><time>2026-04-04T07:24:50Z</time></trkpt><trkpt lat="44.40206023062272" lon="11.217164938769432"><ele>368.0</ele><time>2026-04-04T07:24:52Z</time></trkpt><trkpt lat="44.40214684000629" lon="11.217032682308059"><ele>366.0</ele><time>2026-04-04T07:24:54Z</time></trkpt><trkpt lat="44.40217630309041" lon="11.216934063423643"><ele>366.0</ele><time>2026-04-04T07:24:55Z</time></trkpt><trkpt lat="44.40217084767105" lon="11.21681217493699"><ele>366.0</ele><time>2026-04-04T07:24:56Z</time></trkpt><trkpt lat="44.40212698809807" lon="11.216690068105892"><ele>366.0</ele><time>2026-04-04T07:24:57Z</time></trkpt><trkpt lat="44.40207101603178" lon="11.2165745017368"><ele>366.0</ele><time>2026-04-04T07:24:58Z</time></trkpt><trkpt lat="44.402006019095964" lon="11.216456128493625"><ele>366.0</ele><time>2026-04-04T07:24:59Z</time></trkpt><trkpt lat="44.4019419229319" lon="11.216346693276616"><ele>371.20000000000005</ele><time>2026-04-04T07:25:00Z</time></trkpt><trkpt lat="44.401877132757285" lon="11.216229459979239"><ele>376.40000000000003</ele><time>2026-04-04T07:25:01Z</time></trkpt><trkpt lat="44.40182001908226" lon="11.216101780123255"><ele>381.6</ele><time>2026-04-04T07:25:02Z</time></trkpt><trkpt lat="44.401795676998056" lon="11.215979798476816"><ele>386.8</ele><time>2026-04-04T07:25:03Z</time></trkpt><trkpt lat="44.40176880166053" lon="11.215843307595563"><ele>392.0</ele><time>2026-04-04T07:25:04Z</time></trkpt><trkpt lat="44.40174374388967" lon="11.215710968665222"><ele>391.8333333333333</ele><time>2026-04-04T07:25:05Z</time></trkpt><trkpt lat="44.40172045858576" lon="11.215578241907691"><ele>391.66666666666663</ele><time>2026-04-04T07:25:06Z</time></trkpt><trkpt lat="44.4017069450047" lon="11.215470042343554"><ele>391.5</ele><time>2026-04-04T07:25:07Z</time></trkpt><trkpt lat="44.40169416574927" lon="11.215369798694644"><ele>391.33333333333337</ele><time>2026-04-04T07:25:08Z</time></trkpt><trkpt lat="44.40169664158086" lon="11.215264712961027"><ele>391.1666666666667</ele><time>2026-04-04T07:25:09Z</time></trkpt><trkpt lat="44.401687628279525" lon="11.215152575428213"><ele>391.0</ele><time>2026-04-04T07:25:10Z</time></trkpt><trkpt lat="44.40167500203193" lon="11.215036282178556"><ele>391.0</ele><time>2026-04-04T07:25:11Z</time></trkpt><trkpt lat="44.40164612848793" lon="11.214923000181331"><ele>391.0</ele><time>2026-04-04T07:25:12Z</time></trkpt><trkpt lat="44.401611619112764" lon="11.214808177542956"><ele>391.0</ele><time>2026-04-04T07:25:13Z</time></trkpt><trkpt lat="44.401568360891744" lon="11.214683394615761"><ele>391.0</ele><time>2026-04-04T07:25:14Z</time></trkpt><trkpt lat="44.40151225160312" lon="11.214556047263697"><ele>391.0</ele><time>2026-04-04T07:25:15Z</time></trkpt><trkpt lat="44.40146068871359" lon="11.2144328098348"><ele>390.6666666666667</ele><time>2026-04-04T07:25:16Z</time></trkpt><trkpt lat="44.40141462718796" lon="11.214310817045538"><ele>390.33333333333337</ele><time>2026-04-04T07:25:17Z</time></trkpt><trkpt lat="44.401372985832246" lon="11.21419919722773"><ele>390.0</ele><time>2026-04-04T07:25:18Z</time></trkpt><trkpt lat="44.40133986924676" lon="11.21410102531704"><ele>389.66666666666663</ele><time>2026-04-04T07:25:19Z</time></trkpt><trkpt lat="44.40130993755169" lon="11.213992827634973"><ele>389.3333333333333</ele><time>2026-04-04T07:25:20Z</time></trkpt><trkpt lat="44.40129315430507" lon="11.213874222544085"><ele>389.0</ele><time>2026-04-04T07:25:21Z</time></trkpt><trkpt lat="44.40128901155471" lon="11.21374081283706"><ele>391.4</ele><time>2026-04-04T07:25:22Z</time></trkpt><trkpt lat="44.40129144760775" lon="11.21361205738148"><ele>393.79999999999995</ele><time>2026-04-04T07:25:23Z</time></trkpt><trkpt lat="44.4012953503498" lon="11.213466184889745"><ele>396.20000000000005</ele><time>2026-04-04T07:25:24Z</time></trkpt><trkpt lat="44.40129968663017" lon="11.21331600096182"><ele>398.6</ele><time>2026-04-04T07:25:25Z</time></trkpt><trkpt lat="44.401310149609124" lon="11.213167265578907"><ele>401.0</ele><time>2026-04-04T07:25:26Z</time></trkpt><trkpt lat="44.40133761193568" lon="11.213030515568652"><ele>401.0</ele><time>2026-04-04T07:25:27Z</time></trkpt><trkpt lat="44.40137697849711" lon="11.212889875732872"><ele>401.0</ele><time>2026-04-04T07:25:28Z</time></trkpt><trkpt lat="44.40141909432659" lon="11.212749270615358"><ele>401.0</ele><time>2026-04-04T07:25:29Z</time></trkpt><trkpt lat="44.40143660280188" lon="11.212603820174634"><ele>401.0</ele><time>2026-04-04T07:25:30Z</time></trkpt><trkpt lat="44.401457283016676" lon="11.21247034392011"><ele>401.0</ele><time>2026-04-04T07:25:31Z</time></trkpt><trkpt lat="44.40146477696812" lon="11.21233128287634"><ele>402.4</ele><time>2026-04-04T07:25:32Z</time></trkpt><trkpt lat="44.40145130288002" lon="11.212202173491521"><ele>403.8</ele><time>2026-04-04T07:25:33Z</time></trkpt><trkpt lat="44.40144533295424" lon="11.21206834795326"><ele>405.2</ele><time>2026-04-04T07:25:34Z</time></trkpt><trkpt lat="44.40141326673346" lon="11.211942641135906"><ele>406.59999999999997</ele><time>2026-04-04T07:25:35Z</time></trkpt><trkpt lat="44.401360651078974" lon="11.21183834603323"><ele>408.0</ele><time>2026-04-04T07:25:36Z</time></trkpt><trkpt lat="44.4013065549769" lon="11.211750723353505"><ele>409.6666666666667</ele><time>2026-04-04T07:25:37Z</time></trkpt><trkpt lat="44.401235942203165" lon="11.211689008419974"><ele>411.33333333333337</ele><time>2026-04-04T07:25:37.999Z</time></trkpt><trkpt lat="44.4011645665695" lon="11.211645145664235"><ele>413.0</ele><time>2026-04-04T07:25:38.999Z</time></trkpt><trkpt lat="44.4010918379795" lon="11.211576378181524"><ele>414.6666666666667</ele><time>2026-04-04T07:25:39.999Z</time></trkpt><trkpt lat="44.40099222865622" lon="11.211548810748575"><ele>416.33333333333337</ele><time>2026-04-04T07:25:40.999Z</time></trkpt><trkpt lat="44.400904014500966" lon="11.211490121194139"><ele>418.0</ele><time>2026-04-04T07:25:41.999Z</time></trkpt><trkpt lat="44.40080607343468" lon="11.211446547636786"><ele>418.79999999999995</ele><time>2026-04-04T07:25:42.999Z</time></trkpt><trkpt lat="44.400707364827525" lon="11.21138961949523"><ele>419.6</ele><time>2026-04-04T07:25:43.999Z</time></trkpt><trkpt lat="44.40060271591081" lon="11.211333911053925"><ele>420.4</ele><time>2026-04-04T07:25:44.999Z</time></trkpt><trkpt lat="44.400494758964086" lon="11.211271908486117"><ele>421.20000000000005</ele><time>2026-04-04T07:25:45.999Z</time></trkpt><trkpt lat="44.40040319101946" lon="11.211207203052528"><ele>422.0</ele><time>2026-04-04T07:25:46.999Z</time></trkpt><trkpt lat="44.40031864861607" lon="11.21114404857084"><ele>422.0</ele><time>2026-04-04T07:25:47.999Z</time></trkpt><trkpt lat="44.4002495593466" lon="11.211072915768742"><ele>422.0</ele><time>2026-04-04T07:25:48.999Z</time></trkpt><trkpt lat="44.40019532977189" lon="11.21096214952465"><ele>422.0</ele><time>2026-04-04T07:25:49.999Z</time></trkpt><trkpt lat="44.400128779645" lon="11.210853037331837"><ele>422.0</ele><time>2026-04-04T07:25:50.999Z</time></trkpt><trkpt lat="44.400051063787856" lon="11.210748207265008"><ele>422.0</ele><time>2026-04-04T07:25:51.999Z</time></trkpt><trkpt lat="44.39999182565703" lon="11.210618493161155"><ele>421.20000000000005</ele><time>2026-04-04T07:25:52.999Z</time></trkpt><trkpt lat="44.39993291279573" lon="11.210501419267793"><ele>420.4</ele><time>2026-04-04T07:25:53.999Z</time></trkpt><trkpt lat="44.39988435346709" lon="11.21037953449093"><ele>419.6</ele><time>2026-04-04T07:25:54.999Z</time></trkpt><trkpt lat="44.399840829946264" lon="11.210239531679774"><ele>418.79999999999995</ele><time>2026-04-04T07:25:55.999Z</time></trkpt><trkpt lat="44.399829953404364" lon="11.21008765491349"><ele>418.0</ele><time>2026-04-04T07:25:56.999Z</time></trkpt><trkpt lat="44.39981320646487" lon="11.209944241539487"><ele>417.79999999999995</ele><time>2026-04-04T07:25:57.999Z</time></trkpt><trkpt lat="44.3997922828901" lon="11.209789380727008"><ele>417.6</ele><time>2026-04-04T07:25:58.999Z</time></trkpt><trkpt lat="44.39978252037907" lon="11.209658020650041"><ele>417.4</ele><time>2026-04-04T07:25:59.999Z</time></trkpt><trkpt lat="44.39977186151817" lon="11.209518361983202"><ele>417.20000000000005</ele><time>2026-04-04T07:26:00.999Z</time></trkpt><trkpt lat="44.399761486963094" lon="11.209392672782066"><ele>417.0</ele><time>2026-04-04T07:26:01.999Z</time></trkpt><trkpt lat="44.39976220859414" lon="11.209282247737784"><ele>417.0</ele><time>2026-04-04T07:26:02.999Z</time></trkpt><trkpt lat="44.39978256256747" lon="11.209176127907593"><ele>417.0</ele><time>2026-04-04T07:26:03.999Z</time></trkpt><trkpt lat="44.39981277689315" lon="11.20906582045882"><ele>417.0</ele><time>2026-04-04T07:26:04.999Z</time></trkpt><trkpt lat="44.399858277592124" lon="11.20896333962536"><ele>417.0</ele><time>2026-04-04T07:26:05.999Z</time></trkpt><trkpt lat="44.39991359018047" lon="11.208854991016356"><ele>417.0</ele><time>2026-04-04T07:26:06.999Z</time></trkpt><trkpt lat="44.39999487619522" lon="11.208772463865607"><ele>417.0</ele><time>2026-04-04T07:26:07.999Z</time></trkpt><trkpt lat="44.40006327997144" lon="11.208670231981746"><ele>420.0</ele><time>2026-04-04T07:26:08.999Z</time></trkpt><trkpt lat="44.4001489768665" lon="11.208585716997131"><ele>423.0</ele><time>2026-04-04T07:26:09.999Z</time></trkpt><trkpt lat="44.40023204022569" lon="11.20850689406772"><ele>426.00000000000006</ele><time>2026-04-04T07:26:10.999Z</time></trkpt><trkpt lat="44.40031047500384" lon="11.208414121958908"><ele>429.0</ele><time>2026-04-04T07:26:11.999Z</time></trkpt><trkpt lat="44.40039176743008" lon="11.208325956794962"><ele>432.0</ele><time>2026-04-04T07:26:12.999Z</time></trkpt><trkpt lat="44.400471756361505" lon="11.208241766363649"><ele>431.20000000000005</ele><time>2026-04-04T07:26:13.999Z</time></trkpt><trkpt lat="44.400536427844735" lon="11.20814249597423"><ele>430.40000000000003</ele><time>2026-04-04T07:26:14.999Z</time></trkpt><trkpt lat="44.40058407794919" lon="11.208029330182908"><ele>429.59999999999997</ele><time>2026-04-04T07:26:15.999Z</time></trkpt><trkpt lat="44.400617906449035" lon="11.207898196010275"><ele>428.79999999999995</ele><time>2026-04-04T07:26:16.999Z</time></trkpt><trkpt lat="44.400648914174845" lon="11.207773626329264"><ele>428.0</ele><time>2026-04-04T07:26:17.999Z</time></trkpt><trkpt lat="44.400695036410234" lon="11.207651109413412"><ele>428.0</ele><time>2026-04-04T07:26:18.999Z</time></trkpt><trkpt lat="44.400731319493175" lon="11.207509155047669"><ele>427.99999999999994</ele><time>2026-04-04T07:26:19.999Z</time></trkpt><trkpt lat="44.40076686614327" lon="11.2073659232199"><ele>427.99999999999994</ele><time>2026-04-04T07:26:20.999Z</time></trkpt><trkpt lat="44.40079942630205" lon="11.207232364127023"><ele>428.0</ele><time>2026-04-04T07:26:21.999Z</time></trkpt><trkpt lat="44.40081367997953" lon="11.207105615349375"><ele>428.0</ele><time>2026-04-04T07:26:22.999Z</time></trkpt><trkpt lat="44.40084597262548" lon="11.207005671401268"><ele>428.99999999999994</ele><time>2026-04-04T07:26:23.999Z</time></trkpt><trkpt lat="44.40086695174543" lon="11.206887439636935"><ele>430.0</ele><time>2026-04-04T07:26:25.999Z</time></trkpt><trkpt lat="44.40088679840288" lon="11.206793642657267"><ele>431.0</ele><time>2026-04-04T07:26:28.999Z</time></trkpt><trkpt lat="44.40074853680083" lon="11.206734080160066"><ele>432.0</ele><time>2026-04-04T07:26:33.999Z</time></trkpt><trkpt lat="44.40067687473829" lon="11.206767508505829"><ele>432.99999999999994</ele><time>2026-04-04T07:26:34.999Z</time></trkpt><trkpt lat="44.40060560666909" lon="11.206780312218932"><ele>434.0</ele><time>2026-04-04T07:26:35.999Z</time></trkpt><trkpt lat="44.400525372410925" lon="11.206782643714464"><ele>435.4</ele><time>2026-04-04T07:26:36.999Z</time></trkpt><trkpt lat="44.40043623362494" lon="11.206785165399918"><ele>436.79999999999995</ele><time>2026-04-04T07:26:37.999Z</time></trkpt><trkpt lat="44.40034670731731" lon="11.20679182483166"><ele>438.20000000000005</ele><time>2026-04-04T07:26:38.999Z</time></trkpt><trkpt lat="44.40025318726944" lon="11.20680253910113"><ele>439.6</ele><time>2026-04-04T07:26:39.999Z</time></trkpt><trkpt lat="44.400156846405515" lon="11.206807146404739"><ele>441.0</ele><time>2026-04-04T07:26:40.999Z</time></trkpt><trkpt lat="44.40005693267843" lon="11.20680677100005"><ele>441.0</ele><time>2026-04-04T07:26:41.999Z</time></trkpt><trkpt lat="44.3999586137586" lon="11.206798899300816"><ele>441.0</ele><time>2026-04-04T07:26:42.999Z</time></trkpt><trkpt lat="44.399855346920084" lon="11.206775545159005"><ele>441.0</ele><time>2026-04-04T07:26:43.999Z</time></trkpt><trkpt lat="44.39975306111653" lon="11.206727296702377"><ele>441.0</ele><time>2026-04-04T07:26:44.999Z</time></trkpt><trkpt lat="44.39965156076386" lon="11.206679394575673"><ele>441.0</ele><time>2026-04-04T07:26:45.999Z</time></trkpt><trkpt lat="44.39954294515651" lon="11.206609545384879"><ele>440.4</ele><time>2026-04-04T07:26:46.999Z</time></trkpt><trkpt lat="44.39944185861394" lon="11.206551030051479"><ele>439.8</ele><time>2026-04-04T07:26:47.999Z</time></trkpt><trkpt lat="44.39934464655183" lon="11.20647725835871"><ele>439.19999999999993</ele><time>2026-04-04T07:26:48.999Z</time></trkpt><trkpt lat="44.399243587057775" lon="11.206395053931939"><ele>438.59999999999997</ele><time>2026-04-04T07:26:49.999Z</time></trkpt><trkpt lat="44.399164822975195" lon="11.206308836675484"><ele>438.0</ele><time>2026-04-04T07:26:50.999Z</time></trkpt><trkpt lat="44.39908264348663" lon="11.206225507766074"><ele>438.0</ele><time>2026-04-04T07:26:51.999Z</time></trkpt><trkpt lat="44.39899275553629" lon="11.206140285053204"><ele>437.99999999999994</ele><time>2026-04-04T07:26:52.999Z</time></trkpt><trkpt lat="44.398898209061045" lon="11.206046649019383"><ele>437.99999999999994</ele><time>2026-04-04T07:26:53.999Z</time></trkpt><trkpt lat="44.39881206206043" lon="11.205946323232661"><ele>438.0</ele><time>2026-04-04T07:26:54.999Z</time></trkpt><trkpt lat="44.39873691291055" lon="11.205849788192367"><ele>438.0</ele><time>2026-04-04T07:26:55.999Z</time></trkpt><trkpt lat="44.39866681212111" lon="11.205726682748338"><ele>440.79999999999995</ele><time>2026-04-04T07:26:56.999Z</time></trkpt><trkpt lat="44.39860682912337" lon="11.205608782170948"><ele>443.59999999999997</ele><time>2026-04-04T07:26:57.999Z</time></trkpt><trkpt lat="44.39855151639173" lon="11.20548501570516"><ele>446.40000000000003</ele><time>2026-04-04T07:26:58.999Z</time></trkpt><trkpt lat="44.39850069817356" lon="11.2053510993277"><ele>449.20000000000005</ele><time>2026-04-04T07:27:00Z</time></trkpt><trkpt lat="44.39846018182456" lon="11.20521647963722"><ele>452.0</ele><time>2026-04-04T07:27:01Z</time></trkpt><trkpt lat="44.39842052914458" lon="11.20510552921947"><ele>451.99999999999994</ele><time>2026-04-04T07:27:02Z</time></trkpt><trkpt lat="44.398393453656055" lon="11.205004109832684"><ele>452.0</ele><time>2026-04-04T07:27:03Z</time></trkpt><trkpt lat="44.39837737659814" lon="11.20490101361977"><ele>452.0</ele><time>2026-04-04T07:27:04Z</time></trkpt><trkpt lat="44.39836566900219" lon="11.204800945523111"><ele>452.0</ele><time>2026-04-04T07:27:05Z</time></trkpt><trkpt lat="44.39834119137631" lon="11.204701584472406"><ele>451.99999999999994</ele><time>2026-04-04T07:27:06Z</time></trkpt><trkpt lat="44.398285164344664" lon="11.204631829357288"><ele>452.0</ele><time>2026-04-04T07:27:07Z</time></trkpt><trkpt lat="44.398204717824704" lon="11.204594922052795"><ele>453.49999999999994</ele><time>2026-04-04T07:27:08Z</time></trkpt><trkpt lat="44.39812069192688" lon="11.204588661264168"><ele>455.0</ele><time>2026-04-04T07:27:09Z</time></trkpt><trkpt lat="44.39802506659259" lon="11.204588039569286"><ele>456.5</ele><time>2026-04-04T07:27:10Z</time></trkpt><trkpt lat="44.397924254719996" lon="11.204571531463847"><ele>458.0</ele><time>2026-04-04T07:27:11Z</time></trkpt><trkpt lat="44.39784462937988" lon="11.204539129698682"><ele>459.49999999999994</ele><time>2026-04-04T07:27:12Z</time></trkpt><trkpt lat="44.39777873754711" lon="11.204468775856338"><ele>461.0</ele><time>2026-04-04T07:27:13Z</time></trkpt><trkpt lat="44.39772176367674" lon="11.204400011459766"><ele>460.99999999999994</ele><time>2026-04-04T07:27:14Z</time></trkpt><trkpt lat="44.397662872434076" lon="11.204358887149384"><ele>461.0</ele><time>2026-04-04T07:27:15Z</time></trkpt><trkpt lat="44.39759970833858" lon="11.204360751576113"><ele>461.0</ele><time>2026-04-04T07:27:16Z</time></trkpt><trkpt lat="44.397539170896025" lon="11.20447847080221"><ele>461.0</ele><time>2026-04-04T07:27:18Z</time></trkpt><trkpt lat="44.39759298344751" lon="11.204630126866354"><ele>460.99999999999994</ele><time>2026-04-04T07:27:20Z</time></trkpt><trkpt lat="44.39766177827799" lon="11.204675554598216"><ele>461.0</ele><time>2026-04-04T07:27:21Z</time></trkpt><trkpt lat="44.39773752704875" lon="11.20471451400598"><ele>461.0</ele><time>2026-04-04T07:27:22Z</time></trkpt><trkpt lat="44.39779112743331" lon="11.204800930793219"><ele>461.00000000000006</ele><time>2026-04-04T07:27:23Z</time></trkpt><trkpt lat="44.397836583873094" lon="11.204873867036444"><ele>461.0</ele><time>2026-04-04T07:27:24Z</time></trkpt><trkpt lat="44.397871615143366" lon="11.204951716128623"><ele>461.0</ele><time>2026-04-04T07:27:25Z</time></trkpt><trkpt lat="44.39789828987483" lon="11.205039955295847"><ele>461.00000000000006</ele><time>2026-04-04T07:27:26Z</time></trkpt><trkpt lat="44.397873351795184" lon="11.205134945266419"><ele>461.0</ele><time>2026-04-04T07:27:27Z</time></trkpt><trkpt lat="44.39782513962204" lon="11.205207114042889"><ele>461.0</ele><time>2026-04-04T07:27:28Z</time></trkpt><trkpt lat="44.39773904935579" lon="11.205230217812923"><ele>461.0</ele><time>2026-04-04T07:27:30Z</time></trkpt><trkpt lat="44.3976764567346" lon="11.2051181868947"><ele>461.0</ele><time>2026-04-04T07:27:32Z</time></trkpt><trkpt lat="44.39768360188966" lon="11.205030166455673"><ele>461.0</ele><time>2026-04-04T07:27:32.999Z</time></trkpt><trkpt lat="44.39765607401578" lon="11.204919855379515"><ele>461.0</ele><time>2026-04-04T07:27:33.999Z</time></trkpt><trkpt lat="44.39755445493419" lon="11.204788681688893"><ele>461.0</ele><time>2026-04-04T07:27:35.999Z</time></trkpt><trkpt lat="44.39744524418257" lon="11.204766691907045"><ele>461.0</ele><time>2026-04-04T07:27:36.999Z</time></trkpt><trkpt lat="44.39732446462198" lon="11.204762265923943"><ele>461.0</ele><time>2026-04-04T07:27:37.999Z</time></trkpt><trkpt lat="44.39719981813547" lon="11.204766766126758"><ele>461.0</ele><time>2026-04-04T07:27:38.999Z</time></trkpt><trkpt lat="44.397084034790446" lon="11.204743354773834"><ele>461.0</ele><time>2026-04-04T07:27:39.999Z</time></trkpt><trkpt lat="44.39697187063994" lon="11.20471112877256"><ele>465.5</ele><time>2026-04-04T07:27:40.999Z</time></trkpt><trkpt lat="44.396860169546216" lon="11.204665304418892"><ele>470.0</ele><time>2026-04-04T07:27:41.999Z</time></trkpt><trkpt lat="44.39674206027674" lon="11.204613380559069"><ele>474.5</ele><time>2026-04-04T07:27:42.999Z</time></trkpt><trkpt lat="44.396616927948216" lon="11.204565268126109"><ele>479.0</ele><time>2026-04-04T07:27:43.999Z</time></trkpt><trkpt lat="44.3965024366412" lon="11.204514797803133"><ele>479.0</ele><time>2026-04-04T07:27:44.999Z</time></trkpt><trkpt lat="44.396384615616746" lon="11.20444356113761"><ele>479.0</ele><time>2026-04-04T07:27:45.999Z</time></trkpt><trkpt lat="44.39626547979122" lon="11.204360073428637"><ele>479.0</ele><time>2026-04-04T07:27:46.999Z</time></trkpt><trkpt lat="44.39614227687906" lon="11.204267017354676"><ele>479.0</ele><time>2026-04-04T07:27:47.999Z</time></trkpt><trkpt lat="44.396036958447226" lon="11.204186271189768"><ele>480.79999999999995</ele><time>2026-04-04T07:27:48.999Z</time></trkpt><trkpt lat="44.39594398935973" lon="11.204117208762462"><ele>482.59999999999997</ele><time>2026-04-04T07:27:49.999Z</time></trkpt><trkpt lat="44.395863515101375" lon="11.204052357436314"><ele>484.4</ele><time>2026-04-04T07:27:50.999Z</time></trkpt><trkpt lat="44.39577523627122" lon="11.20397559963068"><ele>486.2</ele><time>2026-04-04T07:27:51.999Z</time></trkpt><trkpt lat="44.39568294276115" lon="11.203894506783652"><ele>488.0</ele><time>2026-04-04T07:27:52.999Z</time></trkpt><trkpt lat="44.39559576960165" lon="11.20380903322983"><ele>488.0</ele><time>2026-04-04T07:27:53.999Z</time></trkpt><trkpt lat="44.3955180742225" lon="11.20372814623061"><ele>487.99999999999994</ele><time>2026-04-04T07:27:54.999Z</time></trkpt><trkpt lat="44.395434122984106" lon="11.203640918731507"><ele>487.99999999999994</ele><time>2026-04-04T07:27:55.999Z</time></trkpt><trkpt lat="44.39534973226408" lon="11.203554849807826"><ele>488.0</ele><time>2026-04-04T07:27:56.999Z</time></trkpt><trkpt lat="44.39526650700266" lon="11.2034750636581"><ele>488.0</ele><time>2026-04-04T07:27:57.999Z</time></trkpt><trkpt lat="44.395178091158584" lon="11.203416366822507"><ele>492.59999999999997</ele><time>2026-04-04T07:27:58.999Z</time></trkpt><trkpt lat="44.39508347640231" lon="11.203383899499665"><ele>497.19999999999993</ele><time>2026-04-04T07:27:59.999Z</time></trkpt><trkpt lat="44.3949761224083" lon="11.203357383198473"><ele>501.8</ele><time>2026-04-04T07:28:00.999Z</time></trkpt><trkpt lat="44.39486754842516" lon="11.203351285277565"><ele>506.4</ele><time>2026-04-04T07:28:01.999Z</time></trkpt><trkpt lat="44.39476704895345" lon="11.203381066402416"><ele>511.0</ele><time>2026-04-04T07:28:02.999Z</time></trkpt><trkpt lat="44.39467246300604" lon="11.203414395071025"><ele>511.4</ele><time>2026-04-04T07:28:03.999Z</time></trkpt><trkpt lat="44.394578371695125" lon="11.203428291448436"><ele>511.8</ele><time>2026-04-04T07:28:05.999Z</time></trkpt><trkpt lat="44.394493292644526" lon="11.203319771393929"><ele>512.1999999999999</ele><time>2026-04-04T07:28:07.999Z</time></trkpt><trkpt lat="44.39445103529589" lon="11.203231643847792"><ele>512.6</ele><time>2026-04-04T07:28:08.999Z</time></trkpt><trkpt lat="44.39441371440906" lon="11.203126669313171"><ele>513.0</ele><time>2026-04-04T07:28:09.999Z</time></trkpt><trkpt lat="44.3943719515215" lon="11.20302544745183"><ele>513.1999999999999</ele><time>2026-04-04T07:28:10.999Z</time></trkpt><trkpt lat="44.39432431511206" lon="11.202903308540535"><ele>513.4</ele><time>2026-04-04T07:28:11.999Z</time></trkpt><trkpt lat="44.394264247408415" lon="11.202784388167451"><ele>513.5999999999999</ele><time>2026-04-04T07:28:12.999Z</time></trkpt><trkpt lat="44.3942386571006" lon="11.202645619095923"><ele>513.8</ele><time>2026-04-04T07:28:13.999Z</time></trkpt><trkpt lat="44.394210540174655" lon="11.202519084068811"><ele>514.0</ele><time>2026-04-04T07:28:14.999Z</time></trkpt><trkpt lat="44.39418817818635" lon="11.202387413989237"><ele>514.2</ele><time>2026-04-04T07:28:15.999Z</time></trkpt><trkpt lat="44.39416637384018" lon="11.202239908773063"><ele>514.4</ele><time>2026-04-04T07:28:16.999Z</time></trkpt><trkpt lat="44.394148063029306" lon="11.202097918288851"><ele>514.6</ele><time>2026-04-04T07:28:17.999Z</time></trkpt><trkpt lat="44.3941262640691" lon="11.201955971476133"><ele>514.8</ele><time>2026-04-04T07:28:18.999Z</time></trkpt><trkpt lat="44.39408161175653" lon="11.20182891295578"><ele>515.0</ele><time>2026-04-04T07:28:19.999Z</time></trkpt><trkpt lat="44.39402614982417" lon="11.201702025567938"><ele>515.0</ele><time>2026-04-04T07:28:20.999Z</time></trkpt><trkpt lat="44.393958796800874" lon="11.201591160916077"><ele>515.0</ele><time>2026-04-04T07:28:21.999Z</time></trkpt><trkpt lat="44.39389730566095" lon="11.201470389783976"><ele>515.0</ele><time>2026-04-04T07:28:22.999Z</time></trkpt><trkpt lat="44.393818336108126" lon="11.201383682167332"><ele>515.0</ele><time>2026-04-04T07:28:23.999Z</time></trkpt><trkpt lat="44.39377093321055" lon="11.201266119660959"><ele>515.0</ele><time>2026-04-04T07:28:24.999Z</time></trkpt><trkpt lat="44.39372115857508" lon="11.201161323144103"><ele>512.0</ele><time>2026-04-04T07:28:25.999Z</time></trkpt><trkpt lat="44.39369406824506" lon="11.201051384607073"><ele>509.0</ele><time>2026-04-04T07:28:26.999Z</time></trkpt><trkpt lat="44.3936659699767" lon="11.200920055549174"><ele>506.0</ele><time>2026-04-04T07:28:27.999Z</time></trkpt><trkpt lat="44.393633963905785" lon="11.20078259878703"><ele>503.0</ele><time>2026-04-04T07:28:28.999Z</time></trkpt><trkpt lat="44.39360220280294" lon="11.200641742580366"><ele>500.0</ele><time>2026-04-04T07:28:29.999Z</time></trkpt><trkpt lat="44.39355141559969" lon="11.200511421616502"><ele>500.0</ele><time>2026-04-04T07:28:30.999Z</time></trkpt><trkpt lat="44.3935090281063" lon="11.20037939929292"><ele>500.0</ele><time>2026-04-04T07:28:31.999Z</time></trkpt><trkpt lat="44.39346103931103" lon="11.200252417532376"><ele>500.0</ele><time>2026-04-04T07:28:32.999Z</time></trkpt><trkpt lat="44.39339950005764" lon="11.200135169953011"><ele>500.0</ele><time>2026-04-04T07:28:33.999Z</time></trkpt><trkpt lat="44.39332301175536" lon="11.200034514448948"><ele>500.0</ele><time>2026-04-04T07:28:34.999Z</time></trkpt><trkpt lat="44.39322824213588" lon="11.199951448843672"><ele>500.0</ele><time>2026-04-04T07:28:35.999Z</time></trkpt><trkpt lat="44.39313652297797" lon="11.19986053874346"><ele>500.0</ele><time>2026-04-04T07:28:36.999Z</time></trkpt><trkpt lat="44.39304231307441" lon="11.199781080617395"><ele>500.0</ele><time>2026-04-04T07:28:37.999Z</time></trkpt><trkpt lat="44.392946181890316" lon="11.19969522397368"><ele>500.0</ele><time>2026-04-04T07:28:38.999Z</time></trkpt><trkpt lat="44.39286250493883" lon="11.199600306881054"><ele>500.0</ele><time>2026-04-04T07:28:39.999Z</time></trkpt><trkpt lat="44.392796900965685" lon="11.199491057088656"><ele>500.2</ele><time>2026-04-04T07:28:40.999Z</time></trkpt><trkpt lat="44.39273079853715" lon="11.19938218586881"><ele>500.4</ele><time>2026-04-04T07:28:41.999Z</time></trkpt><trkpt lat="44.3926525456315" lon="11.199286691162301"><ele>500.6</ele><time>2026-04-04T07:28:42.999Z</time></trkpt><trkpt lat="44.39259952496744" lon="11.199165976291773"><ele>500.8</ele><time>2026-04-04T07:28:43.999Z</time></trkpt><trkpt lat="44.39253272086473" lon="11.199064376130844"><ele>501.0</ele><time>2026-04-04T07:28:44.999Z</time></trkpt><trkpt lat="44.39246639239109" lon="11.1989670518682"><ele>499.6</ele><time>2026-04-04T07:28:45.999Z</time></trkpt><trkpt lat="44.39240028462934" lon="11.19887077072596"><ele>498.20000000000005</ele><time>2026-04-04T07:28:46.999Z</time></trkpt><trkpt lat="44.3923338010023" lon="11.198765132944025"><ele>496.79999999999995</ele><time>2026-04-04T07:28:47.999Z</time></trkpt><trkpt lat="44.39227328520132" lon="11.198648645535915"><ele>495.4</ele><time>2026-04-04T07:28:48.999Z</time></trkpt><trkpt lat="44.39221037294755" lon="11.19853565940715"><ele>494.0</ele><time>2026-04-04T07:28:49.999Z</time></trkpt><trkpt lat="44.39213665020641" lon="11.19840325847856"><ele>492.25</ele><time>2026-04-04T07:28:50.999Z</time></trkpt><trkpt lat="44.39206350957606" lon="11.19827619997335"><ele>490.5</ele><time>2026-04-04T07:28:51.999Z</time></trkpt><trkpt lat="44.39198430071369" lon="11.198139883026588"><ele>488.75</ele><time>2026-04-04T07:28:52.999Z</time></trkpt><trkpt lat="44.39191061033716" lon="11.19800981763147"><ele>487.0</ele><time>2026-04-04T07:28:53.999Z</time></trkpt><trkpt lat="44.39182811341678" lon="11.197887821556346"><ele>487.0</ele><time>2026-04-04T07:28:54.999Z</time></trkpt><trkpt lat="44.3917634077148" lon="11.197765717094319"><ele>487.00000000000006</ele><time>2026-04-04T07:28:55.999Z</time></trkpt><trkpt lat="44.39170026470296" lon="11.197642148603931"><ele>487.00000000000006</ele><time>2026-04-04T07:28:57Z</time></trkpt><trkpt lat="44.39163873049429" lon="11.19751723326412"><ele>487.0</ele><time>2026-04-04T07:28:58Z</time></trkpt><trkpt lat="44.39157220787343" lon="11.197395013376843"><ele>487.0</ele><time>2026-04-04T07:28:59Z</time></trkpt><trkpt lat="44.39150848069367" lon="11.197276035866993"><ele>487.1666666666667</ele><time>2026-04-04T07:29:00Z</time></trkpt><trkpt lat="44.391454990525716" lon="11.197165262107507"><ele>487.33333333333337</ele><time>2026-04-04T07:29:01Z</time></trkpt><trkpt lat="44.391401846893125" lon="11.19705170353837"><ele>487.5</ele><time>2026-04-04T07:29:02Z</time></trkpt><trkpt lat="44.39135054078064" lon="11.196953716311171"><ele>487.66666666666663</ele><time>2026-04-04T07:29:03Z</time></trkpt><trkpt lat="44.391293047492546" lon="11.19687648470477"><ele>487.8333333333333</ele><time>2026-04-04T07:29:04Z</time></trkpt><trkpt lat="44.39123490825786" lon="11.196820378434433"><ele>488.0</ele><time>2026-04-04T07:29:05Z</time></trkpt><trkpt lat="44.39118283000155" lon="11.196761039489727"><ele>484.8333333333333</ele><time>2026-04-04T07:29:06Z</time></trkpt><trkpt lat="44.39114712701143" lon="11.196679951438304"><ele>481.66666666666663</ele><time>2026-04-04T07:29:07Z</time></trkpt><trkpt lat="44.39113527645391" lon="11.196584242694044"><ele>478.5</ele><time>2026-04-04T07:29:08Z</time></trkpt><trkpt lat="44.391146917904486" lon="11.196468574059924"><ele>475.33333333333337</ele><time>2026-04-04T07:29:09Z</time></trkpt><trkpt lat="44.3911729657499" lon="11.196334429053474"><ele>472.1666666666667</ele><time>2026-04-04T07:29:10Z</time></trkpt><trkpt lat="44.391181072905106" lon="11.196200752586792"><ele>469.0</ele><time>2026-04-04T07:29:11Z</time></trkpt><trkpt lat="44.39116665103962" lon="11.196059109411355"><ele>469.0</ele><time>2026-04-04T07:29:12Z</time></trkpt><trkpt lat="44.39113967476972" lon="11.195915956529962"><ele>469.0</ele><time>2026-04-04T07:29:13Z</time></trkpt><trkpt lat="44.391091984422026" lon="11.195781646159066"><ele>469.0</ele><time>2026-04-04T07:29:14Z</time></trkpt><trkpt lat="44.391030897769305" lon="11.195646052607758"><ele>469.0</ele><time>2026-04-04T07:29:15Z</time></trkpt><trkpt lat="44.390957632886256" lon="11.195500799441112"><ele>471.5</ele><time>2026-04-04T07:29:16Z</time></trkpt><trkpt lat="44.39087519061795" lon="11.195349256596764"><ele>474.0</ele><time>2026-04-04T07:29:17Z</time></trkpt><trkpt lat="44.39079465575164" lon="11.195201716317639"><ele>476.5</ele><time>2026-04-04T07:29:18Z</time></trkpt><trkpt lat="44.390711459874545" lon="11.195054860559148"><ele>479.0</ele><time>2026-04-04T07:29:19Z</time></trkpt><trkpt lat="44.3906287775223" lon="11.194910707643881"><ele>477.5</ele><time>2026-04-04T07:29:20Z</time></trkpt><trkpt lat="44.390542295122074" lon="11.194760676503787"><ele>476.0</ele><time>2026-04-04T07:29:21Z</time></trkpt><trkpt lat="44.390459268253856" lon="11.194615082043743"><ele>474.5</ele><time>2026-04-04T07:29:22Z</time></trkpt><trkpt lat="44.3903889901116" lon="11.194475057725779"><ele>473.0</ele><time>2026-04-04T07:29:23Z</time></trkpt><trkpt lat="44.39031856120492" lon="11.194339127781502"><ele>473.0</ele><time>2026-04-04T07:29:24Z</time></trkpt><trkpt lat="44.39024364228362" lon="11.19421195698477"><ele>473.0</ele><time>2026-04-04T07:29:25Z</time></trkpt><trkpt lat="44.39015749144156" lon="11.19409194344083"><ele>473.0</ele><time>2026-04-04T07:29:26Z</time></trkpt><trkpt lat="44.390054400303924" lon="11.193986003275297"><ele>473.0</ele><time>2026-04-04T07:29:27Z</time></trkpt><trkpt lat="44.389947603292654" lon="11.193894816785551"><ele>474.75</ele><time>2026-04-04T07:29:28Z</time></trkpt><trkpt lat="44.389849514417875" lon="11.19380859186404"><ele>476.5</ele><time>2026-04-04T07:29:29Z</time></trkpt><trkpt lat="44.38975819329812" lon="11.19371816269245"><ele>478.25</ele><time>2026-04-04T07:29:30Z</time></trkpt><trkpt lat="44.389654963084745" lon="11.193638316387004"><ele>480.0</ele><time>2026-04-04T07:29:31Z</time></trkpt><trkpt lat="44.38954064633759" lon="11.193565394907587"><ele>480.25</ele><time>2026-04-04T07:29:32Z</time></trkpt><trkpt lat="44.38941834120951" lon="11.193499166773519"><ele>480.5</ele><time>2026-04-04T07:29:33Z</time></trkpt><trkpt lat="44.389290311377" lon="11.193430282611677"><ele>480.75</ele><time>2026-04-04T07:29:34Z</time></trkpt><trkpt lat="44.389175458878185" lon="11.193354849942965"><ele>481.0</ele><time>2026-04-04T07:29:35Z</time></trkpt><trkpt lat="44.38906690969539" lon="11.193272856364281"><ele>481.0</ele><time>2026-04-04T07:29:36Z</time></trkpt><trkpt lat="44.388966958057644" lon="11.193184127636064"><ele>481.0</ele><time>2026-04-04T07:29:37Z</time></trkpt><trkpt lat="44.388881691005615" lon="11.193094007908977"><ele>481.0</ele><time>2026-04-04T07:29:38Z</time></trkpt><trkpt lat="44.3888230680644" lon="11.19299250228844"><ele>481.0</ele><time>2026-04-04T07:29:39Z</time></trkpt><trkpt lat="44.38876253100596" lon="11.1929050459503"><ele>481.0</ele><time>2026-04-04T07:29:40Z</time></trkpt><trkpt lat="44.38870542301773" lon="11.192801580126199"><ele>485.0</ele><time>2026-04-04T07:29:41Z</time></trkpt><trkpt lat="44.38863786912939" lon="11.192714321200112"><ele>489.0</ele><time>2026-04-04T07:29:42Z</time></trkpt><trkpt lat="44.38856235753944" lon="11.192608883344015"><ele>493.0</ele><time>2026-04-04T07:29:43Z</time></trkpt><trkpt lat="44.38847089307383" lon="11.192504289629415"><ele>497.0</ele><time>2026-04-04T07:29:44Z</time></trkpt><trkpt lat="44.38839571406113" lon="11.192372408845984"><ele>501.0</ele><time>2026-04-04T07:29:45Z</time></trkpt><trkpt lat="44.38831681119772" lon="11.192274441582263"><ele>501.20000000000005</ele><time>2026-04-04T07:29:46Z</time></trkpt><trkpt lat="44.38825264288552" lon="11.192149876016508"><ele>501.40000000000003</ele><time>2026-04-04T07:29:47Z</time></trkpt><trkpt lat="44.38820625363995" lon="11.19200907652962"><ele>501.6</ele><time>2026-04-04T07:29:48Z</time></trkpt><trkpt lat="44.388151856795815" lon="11.19187333439631"><ele>501.8</ele><time>2026-04-04T07:29:49Z</time></trkpt><trkpt lat="44.388105457529385" lon="11.191736941143095"><ele>502.0</ele><time>2026-04-04T07:29:50Z</time></trkpt><trkpt lat="44.38805591255413" lon="11.191599180996324"><ele>502.40000000000003</ele><time>2026-04-04T07:29:51Z</time></trkpt><trkpt lat="44.388024797935934" lon="11.191468423489988"><ele>502.80000000000007</ele><time>2026-04-04T07:29:52Z</time></trkpt><trkpt lat="44.388012242329005" lon="11.191343717870494"><ele>503.2</ele><time>2026-04-04T07:29:53Z</time></trkpt><trkpt lat="44.388015116351525" lon="11.191221251926608"><ele>503.6</ele><time>2026-04-04T07:29:54Z</time></trkpt><trkpt lat="44.38805862052412" lon="11.191105262085125"><ele>504.0</ele><time>2026-04-04T07:29:55Z</time></trkpt><trkpt lat="44.388088311770034" lon="11.190990462269703"><ele>504.0</ele><time>2026-04-04T07:29:56Z</time></trkpt><trkpt lat="44.38810677883885" lon="11.1908805876398"><ele>504.0</ele><time>2026-04-04T07:29:57Z</time></trkpt><trkpt lat="44.38816439553389" lon="11.190809385418317"><ele>504.0</ele><time>2026-04-04T07:29:58Z</time></trkpt><trkpt lat="44.38822201147636" lon="11.190727630954239"><ele>504.0</ele><time>2026-04-04T07:29:59Z</time></trkpt><trkpt lat="44.3883031943757" lon="11.190649902458695"><ele>504.0</ele><time>2026-04-04T07:30:00Z</time></trkpt><trkpt lat="44.38839133346749" lon="11.190561692381511"><ele>504.0</ele><time>2026-04-04T07:30:01Z</time></trkpt><trkpt lat="44.3884755185981" lon="11.190448512023163"><ele>502.5</ele><time>2026-04-04T07:30:01.999Z</time></trkpt><trkpt lat="44.38856199938879" lon="11.190353983602833"><ele>501.0</ele><time>2026-04-04T07:30:02.999Z</time></trkpt><trkpt lat="44.38863780639247" lon="11.190240234569249"><ele>499.5</ele><time>2026-04-04T07:30:03.999Z</time></trkpt><trkpt lat="44.38869907635598" lon="11.190093048662623"><ele>498.0</ele><time>2026-04-04T07:30:04.999Z</time></trkpt><trkpt lat="44.38874715235585" lon="11.18992158137964"><ele>497.0</ele><time>2026-04-04T07:30:05.999Z</time></trkpt><trkpt lat="44.38879130075678" lon="11.189727125328876"><ele>496.0</ele><time>2026-04-04T07:30:06.999Z</time></trkpt><trkpt lat="44.388813502045124" lon="11.189540701654327"><ele>495.0</ele><time>2026-04-04T07:30:07.999Z</time></trkpt><trkpt lat="44.388827540958815" lon="11.189382414060649"><ele>494.0</ele><time>2026-04-04T07:30:08.999Z</time></trkpt><trkpt lat="44.38883017801108" lon="11.189231657233178"><ele>494.0</ele><time>2026-04-04T07:30:09.999Z</time></trkpt><trkpt lat="44.38881249156117" lon="11.189087715211183"><ele>494.0</ele><time>2026-04-04T07:30:10.999Z</time></trkpt><trkpt lat="44.38876244272845" lon="11.188942901154697"><ele>494.0</ele><time>2026-04-04T07:30:11.999Z</time></trkpt><trkpt lat="44.388698527834066" lon="11.188794545824859"><ele>494.0</ele><time>2026-04-04T07:30:12.999Z</time></trkpt><trkpt lat="44.38864259216071" lon="11.188636525775117"><ele>495.2</ele><time>2026-04-04T07:30:13.999Z</time></trkpt><trkpt lat="44.3885625649101" lon="11.188501290583535"><ele>496.4</ele><time>2026-04-04T07:30:14.999Z</time></trkpt><trkpt lat="44.38846919686472" lon="11.188407207205247"><ele>497.6</ele><time>2026-04-04T07:30:15.999Z</time></trkpt><trkpt lat="44.388419226255195" lon="11.188281722011807"><ele>498.8</ele><time>2026-04-04T07:30:16.999Z</time></trkpt><trkpt lat="44.388376991609505" lon="11.188163626386514"><ele>500.0</ele><time>2026-04-04T07:30:17.999Z</time></trkpt><trkpt lat="44.388353309229174" lon="11.188033836856778"><ele>502.6</ele><time>2026-04-04T07:30:18.999Z</time></trkpt><trkpt lat="44.3883397951593" lon="11.187896398744915"><ele>505.2</ele><time>2026-04-04T07:30:19.999Z</time></trkpt><trkpt lat="44.38832606380856" lon="11.187745680662958"><ele>507.79999999999995</ele><time>2026-04-04T07:30:20.999Z</time></trkpt><trkpt lat="44.38836541231974" lon="11.187605793677616"><ele>510.4</ele><time>2026-04-04T07:30:21.999Z</time></trkpt><trkpt lat="44.388412591554165" lon="11.187469139182975"><ele>513.0</ele><time>2026-04-04T07:30:22.999Z</time></trkpt><trkpt lat="44.388467750570996" lon="11.187342354852586"><ele>515.1999999999999</ele><time>2026-04-04T07:30:23.999Z</time></trkpt><trkpt lat="44.38850424244943" lon="11.187236330154278"><ele>517.4</ele><time>2026-04-04T07:30:24.999Z</time></trkpt><trkpt lat="44.38856431169889" lon="11.187112518634674"><ele>519.5999999999999</ele><time>2026-04-04T07:30:25.999Z</time></trkpt><trkpt lat="44.38860622340101" lon="11.186984855228697"><ele>521.8</ele><time>2026-04-04T07:30:26.999Z</time></trkpt><trkpt lat="44.38861239311525" lon="11.186858138608661"><ele>524.0</ele><time>2026-04-04T07:30:27.999Z</time></trkpt><trkpt lat="44.38858703978711" lon="11.186734720964248"><ele>524.0</ele><time>2026-04-04T07:30:28.999Z</time></trkpt><trkpt lat="44.388537246513515" lon="11.186610820157485"><ele>524.0</ele><time>2026-04-04T07:30:29.999Z</time></trkpt><trkpt lat="44.388517871708096" lon="11.186486873115214"><ele>524.0</ele><time>2026-04-04T07:30:30.999Z</time></trkpt><trkpt lat="44.38851736769833" lon="11.186389358183348"><ele>524.0</ele><time>2026-04-04T07:30:31.999Z</time></trkpt><trkpt lat="44.388516847314776" lon="11.186295407932993"><ele>524.0</ele><time>2026-04-04T07:30:32.999Z</time></trkpt><trkpt lat="44.38851951514527" lon="11.186188443686898"><ele>524.0</ele><time>2026-04-04T07:30:33.999Z</time></trkpt><trkpt lat="44.388520940192976" lon="11.186062276154038"><ele>525.2</ele><time>2026-04-04T07:30:34.999Z</time></trkpt><trkpt lat="44.38851469878659" lon="11.185921413663099"><ele>526.4</ele><time>2026-04-04T07:30:35.999Z</time></trkpt><trkpt lat="44.3884945156323" lon="11.185772535647866"><ele>527.6</ele><time>2026-04-04T07:30:36.999Z</time></trkpt><trkpt lat="44.38845493214457" lon="11.1856278584115"><ele>528.8</ele><time>2026-04-04T07:30:37.999Z</time></trkpt><trkpt lat="44.38839633447528" lon="11.18549928653712"><ele>530.0</ele><time>2026-04-04T07:30:38.999Z</time></trkpt><trkpt lat="44.388328120010144" lon="11.185379130787208"><ele>531.6</ele><time>2026-04-04T07:30:39.999Z</time></trkpt><trkpt lat="44.388259635809376" lon="11.185277670776443"><ele>533.2</ele><time>2026-04-04T07:30:40.999Z</time></trkpt><trkpt lat="44.38818179618911" lon="11.185191499565336"><ele>534.8</ele><time>2026-04-04T07:30:41.999Z</time></trkpt><trkpt lat="44.38811323521768" lon="11.185118373978163"><ele>536.4</ele><time>2026-04-04T07:30:42.999Z</time></trkpt><trkpt lat="44.38805756364738" lon="11.185041775501649"><ele>538.0</ele><time>2026-04-04T07:30:43.999Z</time></trkpt><trkpt lat="44.38804499616966" lon="11.1848919438218"><ele>536.6</ele><time>2026-04-04T07:30:45.999Z</time></trkpt><trkpt lat="44.38810111624506" lon="11.184760693155848"><ele>535.1999999999999</ele><time>2026-04-04T07:30:47.999Z</time></trkpt><trkpt lat="44.38816740402857" lon="11.184692149639153"><ele>533.8</ele><time>2026-04-04T07:30:48.999Z</time></trkpt><trkpt lat="44.38825287754298" lon="11.184631007022624"><ele>532.4</ele><time>2026-04-04T07:30:49.999Z</time></trkpt><trkpt lat="44.38834401884593" lon="11.184555824559972"><ele>531.0</ele><time>2026-04-04T07:30:50.999Z</time></trkpt><trkpt lat="44.388426477653766" lon="11.184469112525075"><ele>531.0</ele><time>2026-04-04T07:30:51.999Z</time></trkpt><trkpt lat="44.38848572351617" lon="11.184371907372093"><ele>531.0</ele><time>2026-04-04T07:30:52.999Z</time></trkpt><trkpt lat="44.388532239825985" lon="11.184267427066345"><ele>531.0</ele><time>2026-04-04T07:30:53.999Z</time></trkpt><trkpt lat="44.38856052827951" lon="11.184169571057524"><ele>531.0</ele><time>2026-04-04T07:30:54.999Z</time></trkpt><trkpt lat="44.3885791337121" lon="11.184066438613124"><ele>531.0</ele><time>2026-04-04T07:30:55.999Z</time></trkpt><trkpt lat="44.38856834774" lon="11.183948504983924"><ele>531.0</ele><time>2026-04-04T07:30:56.999Z</time></trkpt><trkpt lat="44.38858432660227" lon="11.183815880780953"><ele>532.8</ele><time>2026-04-04T07:30:57.999Z</time></trkpt><trkpt lat="44.38857657199973" lon="11.183681393666483"><ele>534.6</ele><time>2026-04-04T07:30:58.999Z</time></trkpt><trkpt lat="44.388533656546024" lon="11.183536484262014"><ele>536.4</ele><time>2026-04-04T07:30:59.999Z</time></trkpt><trkpt lat="44.3884886093465" lon="11.183404676083498"><ele>538.2</ele><time>2026-04-04T07:31:00.999Z</time></trkpt><trkpt lat="44.38841385813854" lon="11.183249691174929"><ele>540.0</ele><time>2026-04-04T07:31:01.999Z</time></trkpt><trkpt lat="44.38829779884157" lon="11.183106229533845"><ele>538.6666666666666</ele><time>2026-04-04T07:31:03Z</time></trkpt><trkpt lat="44.38817177091007" lon="11.18296674131006"><ele>537.3333333333333</ele><time>2026-04-04T07:31:04Z</time></trkpt><trkpt lat="44.388045085920766" lon="11.182852352059584"><ele>536.0</ele><time>2026-04-04T07:31:05Z</time></trkpt><trkpt lat="44.38792970809229" lon="11.182715913842086"><ele>536.0</ele><time>2026-04-04T07:31:06Z</time></trkpt><trkpt lat="44.38783581622994" lon="11.182615098085764"><ele>536.0</ele><time>2026-04-04T07:31:07Z</time></trkpt><trkpt lat="44.38777714719872" lon="11.18251565762973"><ele>536.0</ele><time>2026-04-04T07:31:08Z</time></trkpt><trkpt lat="44.38773438468286" lon="11.182450193340888"><ele>536.0</ele><time>2026-04-04T07:31:09Z</time></trkpt><trkpt lat="44.387763748681444" lon="11.182299793931133"><ele>536.0</ele><time>2026-04-04T07:31:11Z</time></trkpt><trkpt lat="44.3877762768636" lon="11.182109931641357"><ele>537.8</ele><time>2026-04-04T07:31:13Z</time></trkpt><trkpt lat="44.38780612851115" lon="11.181978375526274"><ele>539.6</ele><time>2026-04-04T07:31:14Z</time></trkpt><trkpt lat="44.387813347234676" lon="11.181816690808688"><ele>541.4</ele><time>2026-04-04T07:31:15Z</time></trkpt><trkpt lat="44.38779148481705" lon="11.181662056108497"><ele>543.2</ele><time>2026-04-04T07:31:16Z</time></trkpt><trkpt lat="44.38777111767057" lon="11.181507920226297"><ele>545.0</ele><time>2026-04-04T07:31:17Z</time></trkpt><trkpt lat="44.38774088714393" lon="11.181371596931665"><ele>547.8</ele><time>2026-04-04T07:31:18Z</time></trkpt><trkpt lat="44.38770369884422" lon="11.18125729106446"><ele>550.6</ele><time>2026-04-04T07:31:19Z</time></trkpt><trkpt lat="44.38765420369607" lon="11.181153234449278"><ele>553.4</ele><time>2026-04-04T07:31:20Z</time></trkpt><trkpt lat="44.38758451109517" lon="11.18106782086589"><ele>556.2</ele><time>2026-04-04T07:31:21Z</time></trkpt><trkpt lat="44.38749463333473" lon="11.180990377185351"><ele>559.0</ele><time>2026-04-04T07:31:22Z</time></trkpt><trkpt lat="44.38739450468622" lon="11.18091508784015"><ele>559.0</ele><time>2026-04-04T07:31:23Z</time></trkpt><trkpt lat="44.38733079963874" lon="11.18080973580418"><ele>559.0</ele><time>2026-04-04T07:31:24Z</time></trkpt><trkpt lat="44.38727811516025" lon="11.180712442636585"><ele>559.0</ele><time>2026-04-04T07:31:25Z</time></trkpt><trkpt lat="44.38724488896945" lon="11.180598870891396"><ele>559.0</ele><time>2026-04-04T07:31:26Z</time></trkpt><trkpt lat="44.38721064527321" lon="11.180463316073798"><ele>559.0</ele><time>2026-04-04T07:31:27Z</time></trkpt><trkpt lat="44.38717665866222" lon="11.180315069267689"><ele>554.6</ele><time>2026-04-04T07:31:28Z</time></trkpt><trkpt lat="44.38713895267075" lon="11.180160289448875"><ele>550.2</ele><time>2026-04-04T07:31:29Z</time></trkpt><trkpt lat="44.387098796934104" lon="11.180014220534568"><ele>545.8000000000001</ele><time>2026-04-04T07:31:30Z</time></trkpt><trkpt lat="44.38709225167434" lon="11.179869100461001"><ele>541.4</ele><time>2026-04-04T07:31:31Z</time></trkpt><trkpt lat="44.387093447229404" lon="11.179714900645113"><ele>537.0</ele><time>2026-04-04T07:31:32Z</time></trkpt><trkpt lat="44.38710615457274" lon="11.179524667148945"><ele>537.0</ele><time>2026-04-04T07:31:33Z</time></trkpt><trkpt lat="44.38711340617986" lon="11.179325751870634"><ele>537.0</ele><time>2026-04-04T07:31:34Z</time></trkpt><trkpt lat="44.38709321825473" lon="11.179140404265503"><ele>537.0</ele><time>2026-04-04T07:31:35Z</time></trkpt><trkpt lat="44.38708745957725" lon="11.178968518651416"><ele>537.0</ele><time>2026-04-04T07:31:36Z</time></trkpt><trkpt lat="44.387074660836454" lon="11.17879218530208"><ele>538.75</ele><time>2026-04-04T07:31:37Z</time></trkpt><trkpt lat="44.38704736595188" lon="11.178616473850035"><ele>540.5</ele><time>2026-04-04T07:31:38Z</time></trkpt><trkpt lat="44.38702145408447" lon="11.178455349199924"><ele>542.25</ele><time>2026-04-04T07:31:39Z</time></trkpt><trkpt lat="44.38697836755748" lon="11.178299229823308"><ele>544.0</ele><time>2026-04-04T07:31:40Z</time></trkpt><trkpt lat="44.38690047818218" lon="11.178144992693653"><ele>546.25</ele><time>2026-04-04T07:31:41Z</time></trkpt><trkpt lat="44.38680765808177" lon="11.177993570309452"><ele>548.5</ele><time>2026-04-04T07:31:42Z</time></trkpt><trkpt lat="44.386725023824404" lon="11.177820110528812"><ele>550.75</ele><time>2026-04-04T07:31:43Z</time></trkpt><trkpt lat="44.38662648374545" lon="11.17764810828884"><ele>553.0</ele><time>2026-04-04T07:31:44Z</time></trkpt><trkpt lat="44.386536684449645" lon="11.177468605876623"><ele>553.0</ele><time>2026-04-04T07:31:45Z</time></trkpt><trkpt lat="44.38646609920385" lon="11.177303227851054"><ele>553.0</ele><time>2026-04-04T07:31:46Z</time></trkpt><trkpt lat="44.38640077281107" lon="11.1771432132899"><ele>553.0</ele><time>2026-04-04T07:31:47Z</time></trkpt><trkpt lat="44.386335926422994" lon="11.176982978406775"><ele>553.0</ele><time>2026-04-04T07:31:48Z</time></trkpt><trkpt lat="44.386267352666955" lon="11.176815251928096"><ele>556.0</ele><time>2026-04-04T07:31:49Z</time></trkpt><trkpt lat="44.38616585448522" lon="11.17669691893144"><ele>559.0</ele><time>2026-04-04T07:31:50Z</time></trkpt><trkpt lat="44.386084519129156" lon="11.176577211895832"><ele>562.0</ele><time>2026-04-04T07:31:51Z</time></trkpt><trkpt lat="44.38599808047983" lon="11.17647414790669"><ele>565.0</ele><time>2026-04-04T07:31:52Z</time></trkpt><trkpt lat="44.385911369894195" lon="11.17637055234484"><ele>565.0</ele><time>2026-04-04T07:31:53Z</time></trkpt><trkpt lat="44.385834874478164" lon="11.176275452461942"><ele>565.0</ele><time>2026-04-04T07:31:54Z</time></trkpt><trkpt lat="44.38576816534148" lon="11.176195444735667"><ele>565.0</ele><time>2026-04-04T07:31:55Z</time></trkpt><trkpt lat="44.385716492373454" lon="11.176117405991024"><ele>565.0</ele><time>2026-04-04T07:31:56Z</time></trkpt><trkpt lat="44.385654815230495" lon="11.176065260207043"><ele>565.0</ele><time>2026-04-04T07:31:57Z</time></trkpt><trkpt lat="44.38560048899746" lon="11.176006573696766"><ele>565.0</ele><time>2026-04-04T07:31:58Z</time></trkpt><trkpt lat="44.38553695143019" lon="11.175954983265566"><ele>566.6666666666667</ele><time>2026-04-04T07:31:59Z</time></trkpt><trkpt lat="44.38547353036635" lon="11.17589606011773"><ele>568.3333333333334</ele><time>2026-04-04T07:32:00Z</time></trkpt><trkpt lat="44.38541085930915" lon="11.175831954187005"><ele>570.0</ele><time>2026-04-04T07:32:01Z</time></trkpt><trkpt lat="44.38534084929594" lon="11.175706087537923"><ele>571.6666666666666</ele><time>2026-04-04T07:32:03Z</time></trkpt><trkpt lat="44.385304326363475" lon="11.175628497218126"><ele>573.3333333333333</ele><time>2026-04-04T07:32:04Z</time></trkpt><trkpt lat="44.385262450907454" lon="11.175539365289744"><ele>575.0</ele><time>2026-04-04T07:32:05Z</time></trkpt><trkpt lat="44.385209329641135" lon="11.175449994101848"><ele>575.0</ele><time>2026-04-04T07:32:06Z</time></trkpt><trkpt lat="44.38514958289874" lon="11.175367488281552"><ele>575.0</ele><time>2026-04-04T07:32:07Z</time></trkpt><trkpt lat="44.3850804778645" lon="11.175301216454345"><ele>575.0</ele><time>2026-04-04T07:32:08Z</time></trkpt><trkpt lat="44.38500542493053" lon="11.175234014835409"><ele>575.0</ele><time>2026-04-04T07:32:09Z</time></trkpt><trkpt lat="44.384934947417364" lon="11.17514670747872"><ele>575.0</ele><time>2026-04-04T07:32:10Z</time></trkpt><trkpt lat="44.38485005798607" lon="11.175119650706877"><ele>575.0</ele><time>2026-04-04T07:32:11Z</time></trkpt><trkpt lat="44.384767049775206" lon="11.175088578329696"><ele>575.0</ele><time>2026-04-04T07:32:12Z</time></trkpt><trkpt lat="44.38468403285836" lon="11.175066037825857"><ele>575.0</ele><time>2026-04-04T07:32:13Z</time></trkpt><trkpt lat="44.38459218967644" lon="11.175055598279384"><ele>575.0</ele><time>2026-04-04T07:32:14Z</time></trkpt><trkpt lat="44.384497414099236" lon="11.175055169463146"><ele>575.0</ele><time>2026-04-04T07:32:15Z</time></trkpt><trkpt lat="44.384401833584384" lon="11.175061005881329"><ele>575.0</ele><time>2026-04-04T07:32:16Z</time></trkpt><trkpt lat="44.3843028938251" lon="11.175071113353127"><ele>575.6666666666666</ele><time>2026-04-04T07:32:17Z</time></trkpt><trkpt lat="44.38421187686142" lon="11.175099268860432"><ele>576.3333333333333</ele><time>2026-04-04T07:32:18Z</time></trkpt><trkpt lat="44.38413001393988" lon="11.175135906603881"><ele>577.0</ele><time>2026-04-04T07:32:18.999Z</time></trkpt><trkpt lat="44.3840605359175" lon="11.175172447509357"><ele>577.6666666666666</ele><time>2026-04-04T07:32:19.999Z</time></trkpt><trkpt lat="44.383998238853636" lon="11.175264263734162"><ele>578.3333333333334</ele><time>2026-04-04T07:32:21.999Z</time></trkpt><trkpt lat="44.384030546911845" lon="11.175389398676478"><ele>579.0</ele><time>2026-04-04T07:32:23.999Z</time></trkpt><trkpt lat="44.38409725165455" lon="11.175552029701622"><ele>579.0</ele><time>2026-04-04T07:32:25.999Z</time></trkpt><trkpt lat="44.38414314211168" lon="11.175647166868025"><ele>579.0</ele><time>2026-04-04T07:32:26.999Z</time></trkpt><trkpt lat="44.38418662304975" lon="11.175751398286566"><ele>579.0</ele><time>2026-04-04T07:32:27.999Z</time></trkpt><trkpt lat="44.38422837653164" lon="11.175848662219792"><ele>579.0</ele><time>2026-04-04T07:32:28.999Z</time></trkpt><trkpt lat="44.384275241857445" lon="11.175945824629373"><ele>579.0</ele><time>2026-04-04T07:32:29.999Z</time></trkpt><trkpt lat="44.38432302781171" lon="11.176039885265084"><ele>579.0</ele><time>2026-04-04T07:32:30.999Z</time></trkpt><trkpt lat="44.38437203286365" lon="11.176146826029308"><ele>583.6</ele><time>2026-04-04T07:32:32.999Z</time></trkpt><trkpt lat="44.38437242156449" lon="11.176248011048562"><ele>588.2</ele><time>2026-04-04T07:32:34.999Z</time></trkpt><trkpt lat="44.38428481223786" lon="11.176282066229373"><ele>592.8000000000001</ele><time>2026-04-04T07:32:36.999Z</time></trkpt><trkpt lat="44.38416854602008" lon="11.176193299308933"><ele>597.4</ele><time>2026-04-04T07:32:38.999Z</time></trkpt><trkpt lat="44.384098454278586" lon="11.176117684466732"><ele>602.0</ele><time>2026-04-04T07:32:39.999Z</time></trkpt><trkpt lat="44.38402641508795" lon="11.176041745554457"><ele>602.0</ele><time>2026-04-04T07:32:40.999Z</time></trkpt><trkpt lat="44.383952366278365" lon="11.175977126387073"><ele>602.0</ele><time>2026-04-04T07:32:41.999Z</time></trkpt><trkpt lat="44.38387225553899" lon="11.175912274894582"><ele>602.0</ele><time>2026-04-04T07:32:42.999Z</time></trkpt><trkpt lat="44.383786901989595" lon="11.175875517684808"><ele>602.0</ele><time>2026-04-04T07:32:43.999Z</time></trkpt><trkpt lat="44.383688992060584" lon="11.175863384276791"><ele>602.0</ele><time>2026-04-04T07:32:44.999Z</time></trkpt><trkpt lat="44.38358923910026" lon="11.175865163711258"><ele>605.4</ele><time>2026-04-04T07:32:45.999Z</time></trkpt><trkpt lat="44.383492022033174" lon="11.17587335212675"><ele>608.8000000000001</ele><time>2026-04-04T07:32:46.999Z</time></trkpt><trkpt lat="44.38338751986673" lon="11.175887632398176"><ele>612.2</ele><time>2026-04-04T07:32:47.999Z</time></trkpt><trkpt lat="44.38328983587935" lon="11.175890440663435"><ele>615.6</ele><time>2026-04-04T07:32:48.999Z</time></trkpt><trkpt lat="44.383194830232746" lon="11.1758753517878"><ele>619.0</ele><time>2026-04-04T07:32:49.999Z</time></trkpt><trkpt lat="44.38310669524593" lon="11.175852186532527"><ele>619.0</ele><time>2026-04-04T07:32:50.999Z</time></trkpt><trkpt lat="44.38302761464423" lon="11.175825532576905"><ele>619.0</ele><time>2026-04-04T07:32:51.999Z</time></trkpt><trkpt lat="44.38294546703912" lon="11.175801732489353"><ele>619.0</ele><time>2026-04-04T07:32:52.999Z</time></trkpt><trkpt lat="44.38285090265525" lon="11.175776213011948"><ele>619.0</ele><time>2026-04-04T07:32:53.999Z</time></trkpt><trkpt lat="44.38276429062079" lon="11.175750661380208"><ele>619.0</ele><time>2026-04-04T07:32:54.999Z</time></trkpt><trkpt lat="44.3826655483252" lon="11.175725827745925"><ele>620.8333333333334</ele><time>2026-04-04T07:32:55.999Z</time></trkpt><trkpt lat="44.382583823406925" lon="11.175707105772517"><ele>622.6666666666667</ele><time>2026-04-04T07:32:56.999Z</time></trkpt><trkpt lat="44.38250249759294" lon="11.175670699693942"><ele>624.5</ele><time>2026-04-04T07:32:57.999Z</time></trkpt><trkpt lat="44.382422935594384" lon="11.175650796678514"><ele>626.3333333333334</ele><time>2026-04-04T07:32:58.999Z</time></trkpt><trkpt lat="44.38234549540282" lon="11.17563798830863"><ele>628.1666666666666</ele><time>2026-04-04T07:32:59.999Z</time></trkpt><trkpt lat="44.382260372267396" lon="11.17565387905166"><ele>630.0</ele><time>2026-04-04T07:33:00.999Z</time></trkpt><trkpt lat="44.38216370402095" lon="11.175681213653675"><ele>630.8</ele><time>2026-04-04T07:33:01.999Z</time></trkpt><trkpt lat="44.382073738525946" lon="11.175709035234815"><ele>631.6</ele><time>2026-04-04T07:33:02.999Z</time></trkpt><trkpt lat="44.38200348373589" lon="11.175717082106349"><ele>632.4</ele><time>2026-04-04T07:33:03.999Z</time></trkpt><trkpt lat="44.38186660299726" lon="11.175664576515725"><ele>633.2</ele><time>2026-04-04T07:33:05.999Z</time></trkpt><trkpt lat="44.38178680094692" lon="11.175608326638791"><ele>634.0</ele><time>2026-04-04T07:33:06.999Z</time></trkpt><trkpt lat="44.381691961750896" lon="11.175543646953997"><ele>637.25</ele><time>2026-04-04T07:33:07.999Z</time></trkpt><trkpt lat="44.3815930763933" lon="11.175452910528126"><ele>640.5</ele><time>2026-04-04T07:33:09Z</time></trkpt><trkpt lat="44.38149245128631" lon="11.175367969563306"><ele>643.75</ele><time>2026-04-04T07:33:10Z</time></trkpt><trkpt lat="44.38138310856934" lon="11.175280993908475"><ele>647.0</ele><time>2026-04-04T07:33:11Z</time></trkpt><trkpt lat="44.38127785345061" lon="11.17516490030862"><ele>647.0</ele><time>2026-04-04T07:33:12Z</time></trkpt><trkpt lat="44.381165403895885" lon="11.175069147291286"><ele>647.0</ele><time>2026-04-04T07:33:13Z</time></trkpt><trkpt lat="44.381040085913526" lon="11.175007027150695"><ele>647.0</ele><time>2026-04-04T07:33:14Z</time></trkpt><trkpt lat="44.380908722598164" lon="11.17493621868976"><ele>647.0</ele><time>2026-04-04T07:33:15Z</time></trkpt><trkpt lat="44.380770992572444" lon="11.174871404964643"><ele>650.0</ele><time>2026-04-04T07:33:16Z</time></trkpt><trkpt lat="44.38066355874412" lon="11.174840586762295"><ele>653.0</ele><time>2026-04-04T07:33:17Z</time></trkpt><trkpt lat="44.38057385032564" lon="11.174788839725553"><ele>656.0</ele><time>2026-04-04T07:33:18Z</time></trkpt><trkpt lat="44.38048016659535" lon="11.174738260341574"><ele>659.0</ele><time>2026-04-04T07:33:19Z</time></trkpt><trkpt lat="44.380379931045674" lon="11.174691440515193"><ele>662.0</ele><time>2026-04-04T07:33:20Z</time></trkpt><trkpt lat="44.38027814478228" lon="11.174642134957377"><ele>663.2</ele><time>2026-04-04T07:33:21Z</time></trkpt><trkpt lat="44.38017997077226" lon="11.174591824687097"><ele>664.4000000000001</ele><time>2026-04-04T07:33:22Z</time></trkpt><trkpt lat="44.380083001935496" lon="11.17455475078626"><ele>665.5999999999999</ele><time>2026-04-04T07:33:23Z</time></trkpt><trkpt lat="44.379983611164235" lon="11.174525452455043"><ele>666.8</ele><time>2026-04-04T07:33:24Z</time></trkpt><trkpt lat="44.37987845116835" lon="11.174483003638258"><ele>668.0</ele><time>2026-04-04T07:33:25Z</time></trkpt><trkpt lat="44.379769042854264" lon="11.174461005624762"><ele>669.0</ele><time>2026-04-04T07:33:26Z</time></trkpt><trkpt lat="44.379662376681566" lon="11.174449650149578"><ele>670.0</ele><time>2026-04-04T07:33:27Z</time></trkpt><trkpt lat="44.37956028833591" lon="11.174430487008072"><ele>671.0</ele><time>2026-04-04T07:33:28Z</time></trkpt><trkpt lat="44.379461844614084" lon="11.174406167859681"><ele>672.0</ele><time>2026-04-04T07:33:29Z</time></trkpt><trkpt lat="44.379363604156225" lon="11.174379966269546"><ele>673.0</ele><time>2026-04-04T07:33:30Z</time></trkpt><trkpt lat="44.37926333996496" lon="11.17435954366586"><ele>673.0</ele><time>2026-04-04T07:33:31Z</time></trkpt><trkpt lat="44.37918843341953" lon="11.1743380682306"><ele>673.0</ele><time>2026-04-04T07:33:32Z</time></trkpt><trkpt lat="44.37906160497603" lon="11.174295623560592"><ele>673.0</ele><time>2026-04-04T07:33:34Z</time></trkpt><trkpt lat="44.378998189254744" lon="11.174248751161247"><ele>673.0</ele><time>2026-04-04T07:33:35Z</time></trkpt><trkpt lat="44.37893325431515" lon="11.174194874383105"><ele>673.0</ele><time>2026-04-04T07:33:36Z</time></trkpt><trkpt lat="44.37888007037342" lon="11.174122336817723"><ele>673.0</ele><time>2026-04-04T07:33:37Z</time></trkpt><trkpt lat="44.3788289000745" lon="11.174036518278179"><ele>674.0</ele><time>2026-04-04T07:33:38Z</time></trkpt><trkpt lat="44.37877554920326" lon="11.173953612101776"><ele>675.0</ele><time>2026-04-04T07:33:39Z</time></trkpt><trkpt lat="44.37872234115024" lon="11.173872411586677"><ele>676.0</ele><time>2026-04-04T07:33:40Z</time></trkpt><trkpt lat="44.37866136781004" lon="11.173779360893938"><ele>677.0</ele><time>2026-04-04T07:33:41Z</time></trkpt><trkpt lat="44.37860707001963" lon="11.173701991797207"><ele>678.0</ele><time>2026-04-04T07:33:42Z</time></trkpt><trkpt lat="44.37854383469329" lon="11.173619369236347"><ele>679.0</ele><time>2026-04-04T07:33:43Z</time></trkpt><trkpt lat="44.37847029667273" lon="11.173560052302438"><ele>679.0</ele><time>2026-04-04T07:33:44Z</time></trkpt><trkpt lat="44.37840788187887" lon="11.173477106058382"><ele>679.0</ele><time>2026-04-04T07:33:45Z</time></trkpt><trkpt lat="44.37833875824138" lon="11.173409019012727"><ele>679.0</ele><time>2026-04-04T07:33:46Z</time></trkpt><trkpt lat="44.3782731082686" lon="11.173336356233992"><ele>679.0</ele><time>2026-04-04T07:33:47Z</time></trkpt><trkpt lat="44.37821427908682" lon="11.17325999342723"><ele>679.0</ele><time>2026-04-04T07:33:48Z</time></trkpt><trkpt lat="44.37816943569971" lon="11.173179667336834"><ele>679.0</ele><time>2026-04-04T07:33:49Z</time></trkpt><trkpt lat="44.378117213363055" lon="11.173095200003038"><ele>680.6666666666667</ele><time>2026-04-04T07:33:50Z</time></trkpt><trkpt lat="44.3780689511582" lon="11.173008673130749"><ele>682.3333333333334</ele><time>2026-04-04T07:33:51Z</time></trkpt><trkpt lat="44.37802776533431" lon="11.172922454978913"><ele>684.0</ele><time>2026-04-04T07:33:52Z</time></trkpt><trkpt lat="44.37799022355054" lon="11.172834228188766"><ele>685.6666666666666</ele><time>2026-04-04T07:33:53Z</time></trkpt><trkpt lat="44.37795076615286" lon="11.172743045987032"><ele>687.3333333333333</ele><time>2026-04-04T07:33:54Z</time></trkpt><trkpt lat="44.377911772985556" lon="11.17265293666524"><ele>689.0</ele><time>2026-04-04T07:33:55Z</time></trkpt><trkpt lat="44.37786661797052" lon="11.172548085109621"><ele>685.8333333333333</ele><time>2026-04-04T07:33:56Z</time></trkpt><trkpt lat="44.37782929086031" lon="11.17246084634293"><ele>682.6666666666666</ele><time>2026-04-04T07:33:57Z</time></trkpt><trkpt lat="44.377775748232835" lon="11.172377634410902"><ele>679.5</ele><time>2026-04-04T07:33:58Z</time></trkpt><trkpt lat="44.37773127167938" lon="11.172266849271443"><ele>676.3333333333334</ele><time>2026-04-04T07:33:59Z</time></trkpt><trkpt lat="44.37767741645832" lon="11.1721572531705"><ele>673.1666666666667</ele><time>2026-04-04T07:34:00Z</time></trkpt><trkpt lat="44.377629439447894" lon="11.172042936924807"><ele>670.0</ele><time>2026-04-04T07:34:01Z</time></trkpt><trkpt lat="44.37759194951771" lon="11.17191975403664"><ele>670.0</ele><time>2026-04-04T07:34:02Z</time></trkpt><trkpt lat="44.37752619597731" lon="11.171833245940958"><ele>670.0</ele><time>2026-04-04T07:34:03Z</time></trkpt><trkpt lat="44.37747289373881" lon="11.171737669489723"><ele>670.0</ele><time>2026-04-04T07:34:04Z</time></trkpt><trkpt lat="44.37741862752064" lon="11.171654955428387"><ele>670.0</ele><time>2026-04-04T07:34:05Z</time></trkpt><trkpt lat="44.37735813559537" lon="11.17156880656971"><ele>670.0</ele><time>2026-04-04T07:34:06Z</time></trkpt><trkpt lat="44.37731196276952" lon="11.171493782272186"><ele>670.0</ele><time>2026-04-04T07:34:07Z</time></trkpt><trkpt lat="44.37726744991194" lon="11.171431152895897"><ele>665.3333333333334</ele><time>2026-04-04T07:34:08Z</time></trkpt><trkpt lat="44.377151164390924" lon="11.171379498692728"><ele>660.6666666666667</ele><time>2026-04-04T07:34:10Z</time></trkpt><trkpt lat="44.377084172943896" lon="11.171419290020205"><ele>656.0</ele><time>2026-04-04T07:34:11Z</time></trkpt><trkpt lat="44.37702779962052" lon="11.171482534200656"><ele>651.3333333333334</ele><time>2026-04-04T07:34:12Z</time></trkpt><trkpt lat="44.376972830077186" lon="11.171559177587053"><ele>646.6666666666666</ele><time>2026-04-04T07:34:13Z</time></trkpt><trkpt lat="44.37690946617152" lon="11.171616700980348"><ele>642.0</ele><time>2026-04-04T07:34:14Z</time></trkpt><trkpt lat="44.37682629712747" lon="11.171719705566552"><ele>642.0</ele><time>2026-04-04T07:34:16Z</time></trkpt><trkpt lat="44.37671969181337" lon="11.171699693635816"><ele>642.0</ele><time>2026-04-04T07:34:18Z</time></trkpt><trkpt lat="44.37665871240104" lon="11.171577937692659"><ele>642.0</ele><time>2026-04-04T07:34:20Z</time></trkpt><trkpt lat="44.376657319672915" lon="11.171401689453477"><ele>642.0</ele><time>2026-04-04T07:34:22Z</time></trkpt><trkpt lat="44.3767147956205" lon="11.171311118974788"><ele>642.0</ele><time>2026-04-04T07:34:23Z</time></trkpt><trkpt lat="44.37678394093051" lon="11.171224217376237"><ele>641.4</ele><time>2026-04-04T07:34:24Z</time></trkpt><trkpt lat="44.37684699826181" lon="11.171134442528741"><ele>640.8000000000001</ele><time>2026-04-04T07:34:25Z</time></trkpt><trkpt lat="44.376891799292686" lon="11.1710383580597"><ele>640.2</ele><time>2026-04-04T07:34:26Z</time></trkpt><trkpt lat="44.37694561045829" lon="11.170962138854936"><ele>639.6</ele><time>2026-04-04T07:34:27Z</time></trkpt><trkpt lat="44.37696856783072" lon="11.170832039139954"><ele>639.0</ele><time>2026-04-04T07:34:28Z</time></trkpt><trkpt lat="44.37695942879878" lon="11.170665080176638"><ele>637.75</ele><time>2026-04-04T07:34:29Z</time></trkpt><trkpt lat="44.37691657288924" lon="11.17049619529573"><ele>636.5</ele><time>2026-04-04T07:34:30Z</time></trkpt><trkpt lat="44.37687149195232" lon="11.170308132238478"><ele>635.25</ele><time>2026-04-04T07:34:30.999Z</time></trkpt><trkpt lat="44.376825563446566" lon="11.170108957381595"><ele>634.0</ele><time>2026-04-04T07:34:31.999Z</time></trkpt><trkpt lat="44.37676761376478" lon="11.169922750301003"><ele>635.75</ele><time>2026-04-04T07:34:32.999Z</time></trkpt><trkpt lat="44.37669467760853" lon="11.169748224143115"><ele>637.5</ele><time>2026-04-04T07:34:33.999Z</time></trkpt><trkpt lat="44.37661263357395" lon="11.169573055788598"><ele>639.25</ele><time>2026-04-04T07:34:34.999Z</time></trkpt><trkpt lat="44.3765323037598" lon="11.169405869852799"><ele>641.0</ele><time>2026-04-04T07:34:35.999Z</time></trkpt><trkpt lat="44.37645594524219" lon="11.169246965129572"><ele>641.0</ele><time>2026-04-04T07:34:36.999Z</time></trkpt><trkpt lat="44.37637903825537" lon="11.169084261049132"><ele>641.0</ele><time>2026-04-04T07:34:37.999Z</time></trkpt><trkpt lat="44.37630582122161" lon="11.168927934204358"><ele>641.0</ele><time>2026-04-04T07:34:38.999Z</time></trkpt><trkpt lat="44.37622511606865" lon="11.16875499033069"><ele>641.0</ele><time>2026-04-04T07:34:39.999Z</time></trkpt><trkpt lat="44.37615060622253" lon="11.1685903642747"><ele>641.25</ele><time>2026-04-04T07:34:40.999Z</time></trkpt><trkpt lat="44.37607845288763" lon="11.168424145695308"><ele>641.5</ele><time>2026-04-04T07:34:41.999Z</time></trkpt><trkpt lat="44.376016200292504" lon="11.16825758554304"><ele>641.75</ele><time>2026-04-04T07:34:42.999Z</time></trkpt><trkpt lat="44.375957235505005" lon="11.1680947648172"><ele>642.0</ele><time>2026-04-04T07:34:43.999Z</time></trkpt><trkpt lat="44.375903414929205" lon="11.167927557393869"><ele>645.5</ele><time>2026-04-04T07:34:44.999Z</time></trkpt><trkpt lat="44.37585726699965" lon="11.167756136395818"><ele>649.0</ele><time>2026-04-04T07:34:45.999Z</time></trkpt><trkpt lat="44.37581325970985" lon="11.167578951029629"><ele>652.5</ele><time>2026-04-04T07:34:46.999Z</time></trkpt><trkpt lat="44.3757687457736" lon="11.167399725729965"><ele>656.0</ele><time>2026-04-04T07:34:47.999Z</time></trkpt><trkpt lat="44.37572343729315" lon="11.167225345807523"><ele>655.5999999999999</ele><time>2026-04-04T07:34:48.999Z</time></trkpt><trkpt lat="44.37567327779272" lon="11.167066295048468"><ele>655.2</ele><time>2026-04-04T07:34:49.999Z</time></trkpt><trkpt lat="44.375625389842085" lon="11.16693529032394"><ele>654.8</ele><time>2026-04-04T07:34:50.999Z</time></trkpt><trkpt lat="44.37557350645858" lon="11.166812321280528"><ele>654.4000000000001</ele><time>2026-04-04T07:34:51.999Z</time></trkpt><trkpt lat="44.37550368092224" lon="11.166697807487875"><ele>654.0</ele><time>2026-04-04T07:34:52.999Z</time></trkpt><trkpt lat="44.37542737232264" lon="11.166580858031569"><ele>655.2</ele><time>2026-04-04T07:34:53.999Z</time></trkpt><trkpt lat="44.37535770032538" lon="11.166476555981683"><ele>656.4000000000001</ele><time>2026-04-04T07:34:54.999Z</time></trkpt><trkpt lat="44.37527493697179" lon="11.166385740466913"><ele>657.6</ele><time>2026-04-04T07:34:55.999Z</time></trkpt><trkpt lat="44.375215574667614" lon="11.166266349754768"><ele>658.8</ele><time>2026-04-04T07:34:56.999Z</time></trkpt><trkpt lat="44.37514882786351" lon="11.166199704202391"><ele>660.0</ele><time>2026-04-04T07:34:57.999Z</time></trkpt><trkpt lat="44.37510845345686" lon="11.1660754735185"><ele>660.0</ele><time>2026-04-04T07:34:58.999Z</time></trkpt><trkpt lat="44.37504913240376" lon="11.16599013293705"><ele>660.0</ele><time>2026-04-04T07:34:59.999Z</time></trkpt><trkpt lat="44.37499161758386" lon="11.1658799931658"><ele>660.0</ele><time>2026-04-04T07:35:00.999Z</time></trkpt><trkpt lat="44.37492927414543" lon="11.165759720900255"><ele>660.0</ele><time>2026-04-04T07:35:01.999Z</time></trkpt><trkpt lat="44.3748686710085" lon="11.165668499956702"><ele>660.0</ele><time>2026-04-04T07:35:02.999Z</time></trkpt><trkpt lat="44.37479473802957" lon="11.165608505462131"><ele>661.8</ele><time>2026-04-04T07:35:03.999Z</time></trkpt><trkpt lat="44.37469706860521" lon="11.165567213612878"><ele>663.6</ele><time>2026-04-04T07:35:04.999Z</time></trkpt><trkpt lat="44.37458812719988" lon="11.165529219208194"><ele>665.4000000000001</ele><time>2026-04-04T07:35:05.999Z</time></trkpt><trkpt lat="44.37447441692121" lon="11.165482692052274"><ele>667.2</ele><time>2026-04-04T07:35:06.999Z</time></trkpt><trkpt lat="44.37438923116695" lon="11.165391936784447"><ele>669.0</ele><time>2026-04-04T07:35:07.999Z</time></trkpt><trkpt lat="44.374302008744735" lon="11.165302095088464"><ele>669.0</ele><time>2026-04-04T07:35:08.999Z</time></trkpt><trkpt lat="44.374226131759904" lon="11.165205373061273"><ele>669.0</ele><time>2026-04-04T07:35:09.999Z</time></trkpt><trkpt lat="44.37412257250767" lon="11.165130178327077"><ele>669.0</ele><time>2026-04-04T07:35:10.999Z</time></trkpt><trkpt lat="44.374049403387026" lon="11.165049435457627"><ele>669.0</ele><time>2026-04-04T07:35:11.999Z</time></trkpt><trkpt lat="44.37397151985287" lon="11.164997921901548"><ele>669.0</ele><time>2026-04-04T07:35:12.999Z</time></trkpt><trkpt lat="44.373821390771795" lon="11.164913183152384"><ele>667.6</ele><time>2026-04-04T07:35:15Z</time></trkpt><trkpt lat="44.37373926086387" lon="11.164845492612564"><ele>666.2</ele><time>2026-04-04T07:35:16Z</time></trkpt><trkpt lat="44.3736415987927" lon="11.164785601006649"><ele>664.8000000000001</ele><time>2026-04-04T07:35:17Z</time></trkpt><trkpt lat="44.37355315756052" lon="11.164758455021207"><ele>663.4000000000001</ele><time>2026-04-04T07:35:18Z</time></trkpt><trkpt lat="44.373450745306684" lon="11.164742093007314"><ele>662.0</ele><time>2026-04-04T07:35:19Z</time></trkpt><trkpt lat="44.37335938829151" lon="11.164711510972415"><ele>662.0</ele><time>2026-04-04T07:35:20Z</time></trkpt><trkpt lat="44.37325681272877" lon="11.164689297386778"><ele>662.0</ele><time>2026-04-04T07:35:21Z</time></trkpt><trkpt lat="44.37315883451253" lon="11.164680542454859"><ele>662.0</ele><time>2026-04-04T07:35:22Z</time></trkpt><trkpt lat="44.37305860094137" lon="11.164696780462029"><ele>662.0</ele><time>2026-04-04T07:35:23Z</time></trkpt><trkpt lat="44.37295652553104" lon="11.16472161221157"><ele>662.0</ele><time>2026-04-04T07:35:24Z</time></trkpt><trkpt lat="44.37285354430069" lon="11.164727556766474"><ele>665.6</ele><time>2026-04-04T07:35:25Z</time></trkpt><trkpt lat="44.37274304683433" lon="11.164707161219658"><ele>669.2</ele><time>2026-04-04T07:35:26Z</time></trkpt><trkpt lat="44.37264211729547" lon="11.164669221239112"><ele>672.8</ele><time>2026-04-04T07:35:27Z</time></trkpt><trkpt lat="44.37254214964547" lon="11.164638647874597"><ele>676.4</ele><time>2026-04-04T07:35:28Z</time></trkpt><trkpt lat="44.372459732308165" lon="11.164618785842334"><ele>680.0</ele><time>2026-04-04T07:35:29Z</time></trkpt><trkpt lat="44.37238288222567" lon="11.164603314727731"><ele>680.0</ele><time>2026-04-04T07:35:30Z</time></trkpt><trkpt lat="44.37230776789844" lon="11.164591755535048"><ele>680.0</ele><time>2026-04-04T07:35:31Z</time></trkpt><trkpt lat="44.37224420965825" lon="11.164549834253801"><ele>680.0</ele><time>2026-04-04T07:35:32Z</time></trkpt><trkpt lat="44.37218381471485" lon="11.164517572640401"><ele>680.0</ele><time>2026-04-04T07:35:33Z</time></trkpt><trkpt lat="44.37211314505945" lon="11.164497926002182"><ele>680.0</ele><time>2026-04-04T07:35:34Z</time></trkpt><trkpt lat="44.372028911869144" lon="11.16445648473641"><ele>680.0</ele><time>2026-04-04T07:35:35Z</time></trkpt><trkpt lat="44.37194625375" lon="11.164431605246117"><ele>681.4</ele><time>2026-04-04T07:35:36Z</time></trkpt><trkpt lat="44.37184999895404" lon="11.164414637428669"><ele>682.8</ele><time>2026-04-04T07:35:37Z</time></trkpt><trkpt lat="44.37174272313742" lon="11.16441211361398"><ele>684.2</ele><time>2026-04-04T07:35:38Z</time></trkpt><trkpt lat="44.37163414661908" lon="11.164421450970982"><ele>685.6</ele><time>2026-04-04T07:35:39Z</time></trkpt><trkpt lat="44.37152885303638" lon="11.164423677096382"><ele>687.0</ele><time>2026-04-04T07:35:40Z</time></trkpt><trkpt lat="44.37143425435918" lon="11.164448312210142"><ele>687.1666666666666</ele><time>2026-04-04T07:35:41Z</time></trkpt><trkpt lat="44.371354514600874" lon="11.164476794287443"><ele>687.3333333333334</ele><time>2026-04-04T07:35:42Z</time></trkpt><trkpt lat="44.37128212955744" lon="11.164519257405935"><ele>687.5</ele><time>2026-04-04T07:35:43Z</time></trkpt><trkpt lat="44.37121313543114" lon="11.164593639829334"><ele>687.6666666666667</ele><time>2026-04-04T07:35:44Z</time></trkpt><trkpt lat="44.371152361130726" lon="11.1646550009669"><ele>687.8333333333334</ele><time>2026-04-04T07:35:45Z</time></trkpt><trkpt lat="44.371099267406045" lon="11.164719469806116"><ele>688.0</ele><time>2026-04-04T07:35:47Z</time></trkpt><trkpt lat="44.37102269666427" lon="11.164809806832698"><ele>688.8</ele><time>2026-04-04T07:35:49Z</time></trkpt><trkpt lat="44.37095538815201" lon="11.164874822885157"><ele>689.5999999999999</ele><time>2026-04-04T07:35:50Z</time></trkpt><trkpt lat="44.37087978704402" lon="11.164946032414168"><ele>690.4000000000001</ele><time>2026-04-04T07:35:51Z</time></trkpt><trkpt lat="44.37080153282699" lon="11.165040318968932"><ele>691.2</ele><time>2026-04-04T07:35:52Z</time></trkpt><trkpt lat="44.3706982907122" lon="11.16513575273251"><ele>692.0</ele><time>2026-04-04T07:35:53Z</time></trkpt><trkpt lat="44.37060827082839" lon="11.165249892140485"><ele>698.0</ele><time>2026-04-04T07:35:54Z</time></trkpt><trkpt lat="44.37051654123158" lon="11.165354806196428"><ele>704.0</ele><time>2026-04-04T07:35:55Z</time></trkpt><trkpt lat="44.370435707340775" lon="11.165465746782997"><ele>710.0</ele><time>2026-04-04T07:35:56Z</time></trkpt><trkpt lat="44.370365695290424" lon="11.165534260702053"><ele>716.0</ele><time>2026-04-04T07:35:57Z</time></trkpt><trkpt lat="44.3703012208977" lon="11.1655773765588"><ele>722.0</ele><time>2026-04-04T07:35:58Z</time></trkpt><trkpt lat="44.37023611810517" lon="11.16557878953519"><ele>722.0</ele><time>2026-04-04T07:35:59Z</time></trkpt><trkpt lat="44.37015161057864" lon="11.165579241350951"><ele>722.0</ele><time>2026-04-04T07:36:00Z</time></trkpt><trkpt lat="44.37005868007409" lon="11.1655334571705"><ele>722.0</ele><time>2026-04-04T07:36:01Z</time></trkpt><trkpt lat="44.369944175282654" lon="11.165523906783353"><ele>722.0</ele><time>2026-04-04T07:36:02Z</time></trkpt><trkpt lat="44.36984420725814" lon="11.165517482141418"><ele>722.0</ele><time>2026-04-04T07:36:03Z</time></trkpt><trkpt lat="44.36975564052548" lon="11.165560551736084"><ele>721.25</ele><time>2026-04-04T07:36:04Z</time></trkpt><trkpt lat="44.36967099442237" lon="11.165654141603872"><ele>720.5</ele><time>2026-04-04T07:36:05Z</time></trkpt><trkpt lat="44.36958347797842" lon="11.165790521174166"><ele>719.75</ele><time>2026-04-04T07:36:06Z</time></trkpt><trkpt lat="44.36948275015666" lon="11.16596043498201"><ele>719.0</ele><time>2026-04-04T07:36:07Z</time></trkpt><trkpt lat="44.36939903762926" lon="11.166158275389114"><ele>719.0</ele><time>2026-04-04T07:36:08Z</time></trkpt><trkpt lat="44.36929499366465" lon="11.166355913348468"><ele>719.0</ele><time>2026-04-04T07:36:09Z</time></trkpt><trkpt lat="44.3692094920392" lon="11.166546964595009"><ele>719.0</ele><time>2026-04-04T07:36:10Z</time></trkpt><trkpt lat="44.369132447266054" lon="11.166727668502402"><ele>715.8000000000001</ele><time>2026-04-04T07:36:11Z</time></trkpt><trkpt lat="44.369065691664154" lon="11.166888558894298"><ele>712.6</ele><time>2026-04-04T07:36:12Z</time></trkpt><trkpt lat="44.36900540616452" lon="11.16701615075767"><ele>709.4</ele><time>2026-04-04T07:36:13Z</time></trkpt><trkpt lat="44.36894486934675" lon="11.167115351241666"><ele>706.2</ele><time>2026-04-04T07:36:14Z</time></trkpt><trkpt lat="44.368857384201654" lon="11.167201839749442"><ele>703.0</ele><time>2026-04-04T07:36:15Z</time></trkpt><trkpt lat="44.368755450662725" lon="11.167285769047059"><ele>701.75</ele><time>2026-04-04T07:36:16Z</time></trkpt><trkpt lat="44.36866437998753" lon="11.167408538451701"><ele>700.5</ele><time>2026-04-04T07:36:17Z</time></trkpt><trkpt lat="44.36858675878429" lon="11.16758510305447"><ele>699.25</ele><time>2026-04-04T07:36:18Z</time></trkpt><trkpt lat="44.36850341816757" lon="11.167797132988524"><ele>698.0</ele><time>2026-04-04T07:36:19Z</time></trkpt><trkpt lat="44.36843910252789" lon="11.168015127058228"><ele>694.3333333333333</ele><time>2026-04-04T07:36:20Z</time></trkpt><trkpt lat="44.368370028278086" lon="11.168254349546753"><ele>690.6666666666666</ele><time>2026-04-04T07:36:21Z</time></trkpt><trkpt lat="44.36827807928514" lon="11.16852385820093"><ele>687.0</ele><time>2026-04-04T07:36:22Z</time></trkpt><trkpt lat="44.36817788024872" lon="11.168768706998835"><ele>687.0</ele><time>2026-04-04T07:36:23Z</time></trkpt><trkpt lat="44.36810012169232" lon="11.168971171172517"><ele>687.0</ele><time>2026-04-04T07:36:24Z</time></trkpt><trkpt lat="44.36803041649064" lon="11.169144966012063"><ele>687.0</ele><time>2026-04-04T07:36:25Z</time></trkpt><trkpt lat="44.36797142736506" lon="11.169280434936411"><ele>687.0</ele><time>2026-04-04T07:36:26Z</time></trkpt><trkpt lat="44.36791033012054" lon="11.169386354448164"><ele>685.6666666666666</ele><time>2026-04-04T07:36:27Z</time></trkpt><trkpt lat="44.36786701750183" lon="11.169460707869726"><ele>684.3333333333334</ele><time>2026-04-04T07:36:28Z</time></trkpt><trkpt lat="44.367804163654604" lon="11.169502131985563"><ele>683.0</ele><time>2026-04-04T07:36:28.999Z</time></trkpt><trkpt lat="44.36773402858134" lon="11.169519767002035"><ele>681.6666666666667</ele><time>2026-04-04T07:36:29.999Z</time></trkpt><trkpt lat="44.367642240710865" lon="11.169521169769755"><ele>680.3333333333334</ele><time>2026-04-04T07:36:30.999Z</time></trkpt><trkpt lat="44.367547812809356" lon="11.169476801679126"><ele>679.0</ele><time>2026-04-04T07:36:31.999Z</time></trkpt><trkpt lat="44.36745322643792" lon="11.169462020273818"><ele>679.0</ele><time>2026-04-04T07:36:32.999Z</time></trkpt><trkpt lat="44.36736220383326" lon="11.169418895387487"><ele>679.0</ele><time>2026-04-04T07:36:33.999Z</time></trkpt><trkpt lat="44.36727727689599" lon="11.169382028555694"><ele>679.0</ele><time>2026-04-04T07:36:34.999Z</time></trkpt><trkpt lat="44.367209013072085" lon="11.169354372854722"><ele>679.0</ele><time>2026-04-04T07:36:35.999Z</time></trkpt><trkpt lat="44.367124855068965" lon="11.169325598190877"><ele>679.0</ele><time>2026-04-04T07:36:37.999Z</time></trkpt><trkpt lat="44.367036632802474" lon="11.169316263285058"><ele>679.0</ele><time>2026-04-04T07:36:41.999Z</time></trkpt><trkpt lat="44.36697205827997" lon="11.169335956956497"><ele>676.4000000000001</ele><time>2026-04-04T07:36:44.999Z</time></trkpt><trkpt lat="44.3668963206222" lon="11.169406726094577"><ele>673.8</ele><time>2026-04-04T07:39:38Z</time></trkpt><trkpt lat="44.36678407767585" lon="11.169516171196458"><ele>671.2</ele><time>2026-04-04T07:39:40Z</time></trkpt><trkpt lat="44.36671209859957" lon="11.169600834987904"><ele>668.5999999999999</ele><time>2026-04-04T07:39:41Z</time></trkpt><trkpt lat="44.36665341256864" lon="11.169706880414191"><ele>666.0</ele><time>2026-04-04T07:39:42Z</time></trkpt><trkpt lat="44.36659604713799" lon="11.16982604492113"><ele>666.5999999999999</ele><time>2026-04-04T07:39:43Z</time></trkpt><trkpt lat="44.366534144313896" lon="11.169950839506042"><ele>667.2</ele><time>2026-04-04T07:39:44Z</time></trkpt><trkpt lat="44.36647292292537" lon="11.170066651365923"><ele>667.8</ele><time>2026-04-04T07:39:45Z</time></trkpt><trkpt lat="44.3664121558422" lon="11.170169720443882"><ele>668.4000000000001</ele><time>2026-04-04T07:39:46Z</time></trkpt><trkpt lat="44.36633725609715" lon="11.170262725066397"><ele>669.0</ele><time>2026-04-04T07:39:47Z</time></trkpt><trkpt lat="44.366251023148486" lon="11.17034907409663"><ele>670.25</ele><time>2026-04-04T07:39:48Z</time></trkpt><trkpt lat="44.36614292137588" lon="11.170389039638694"><ele>671.5</ele><time>2026-04-04T07:39:49Z</time></trkpt><trkpt lat="44.366036030889575" lon="11.170446951091815"><ele>672.75</ele><time>2026-04-04T07:39:50Z</time></trkpt><trkpt lat="44.365920307262705" lon="11.170504390706201"><ele>674.0</ele><time>2026-04-04T07:39:51Z</time></trkpt><trkpt lat="44.3657947474144" lon="11.170562034878808"><ele>674.0</ele><time>2026-04-04T07:39:52Z</time></trkpt><trkpt lat="44.365681613921936" lon="11.170635289733728"><ele>674.0</ele><time>2026-04-04T07:39:53Z</time></trkpt><trkpt lat="44.36556442430242" lon="11.170670703553432"><ele>674.0</ele><time>2026-04-04T07:39:54Z</time></trkpt><trkpt lat="44.36545914235829" lon="11.170719225864323"><ele>674.0</ele><time>2026-04-04T07:39:55Z</time></trkpt><trkpt lat="44.36535770994666" lon="11.17076778922049"><ele>671.8000000000001</ele><time>2026-04-04T07:39:56Z</time></trkpt><trkpt lat="44.365265801864474" lon="11.17080911359016"><ele>669.6</ele><time>2026-04-04T07:39:57Z</time></trkpt><trkpt lat="44.36516666881531" lon="11.17084900379477"><ele>667.4</ele><time>2026-04-04T07:39:58Z</time></trkpt><trkpt lat="44.36507090275446" lon="11.170874949995055"><ele>665.2</ele><time>2026-04-04T07:39:59Z</time></trkpt><trkpt lat="44.364962543853004" lon="11.170880902082727"><ele>663.0</ele><time>2026-04-04T07:40:00Z</time></trkpt><trkpt lat="44.364855639836755" lon="11.170867594519681"><ele>663.0</ele><time>2026-04-04T07:40:01Z</time></trkpt><trkpt lat="44.364739498698576" lon="11.170856820457637"><ele>663.0</ele><time>2026-04-04T07:40:02Z</time></trkpt><trkpt lat="44.36461843360205" lon="11.170851072372052"><ele>663.0</ele><time>2026-04-04T07:40:03Z</time></trkpt><trkpt lat="44.36449428799378" lon="11.170857296461318"><ele>663.0</ele><time>2026-04-04T07:40:04Z</time></trkpt><trkpt lat="44.36437380636616" lon="11.17087402390795"><ele>661.8</ele><time>2026-04-04T07:40:05Z</time></trkpt><trkpt lat="44.364253429164634" lon="11.170892958741517"><ele>660.5999999999999</ele><time>2026-04-04T07:40:06Z</time></trkpt><trkpt lat="44.364142193827156" lon="11.17091083084487"><ele>659.4000000000001</ele><time>2026-04-04T07:40:07Z</time></trkpt><trkpt lat="44.36403549168264" lon="11.17092831437526"><ele>658.2</ele><time>2026-04-04T07:40:08Z</time></trkpt><trkpt lat="44.36393445982534" lon="11.170962934749815"><ele>657.0</ele><time>2026-04-04T07:40:09Z</time></trkpt><trkpt lat="44.36383062486195" lon="11.171018810290075"><ele>656.0</ele><time>2026-04-04T07:40:10Z</time></trkpt><trkpt lat="44.36373034980359" lon="11.171084829265313"><ele>655.0</ele><time>2026-04-04T07:40:11Z</time></trkpt><trkpt lat="44.36362425103065" lon="11.171139534270878"><ele>654.0</ele><time>2026-04-04T07:40:12Z</time></trkpt><trkpt lat="44.36351022634225" lon="11.171171413907954"><ele>653.0</ele><time>2026-04-04T07:40:13Z</time></trkpt><trkpt lat="44.36339523657985" lon="11.171179212499156"><ele>653.0</ele><time>2026-04-04T07:40:14Z</time></trkpt><trkpt lat="44.36327486871011" lon="11.171191733055606"><ele>653.0</ele><time>2026-04-04T07:40:15Z</time></trkpt><trkpt lat="44.363152714538046" lon="11.17122095284375"><ele>653.0</ele><time>2026-04-04T07:40:16Z</time></trkpt><trkpt lat="44.36303304649708" lon="11.171263830288337"><ele>653.0</ele><time>2026-04-04T07:40:17Z</time></trkpt><trkpt lat="44.36291301747071" lon="11.171311302972288"><ele>652.5</ele><time>2026-04-04T07:40:18Z</time></trkpt><trkpt lat="44.362793201648195" lon="11.171372818128331"><ele>652.0</ele><time>2026-04-04T07:40:19Z</time></trkpt><trkpt lat="44.36267722679807" lon="11.171448918667618"><ele>651.5</ele><time>2026-04-04T07:40:20Z</time></trkpt><trkpt lat="44.362570813623115" lon="11.171534787471852"><ele>651.0</ele><time>2026-04-04T07:40:21Z</time></trkpt><trkpt lat="44.362476752819" lon="11.171625290380168"><ele>651.0</ele><time>2026-04-04T07:40:22Z</time></trkpt><trkpt lat="44.36239139095111" lon="11.171726825654165"><ele>651.0</ele><time>2026-04-04T07:40:22.999Z</time></trkpt><trkpt lat="44.36232282654355" lon="11.171855361310623"><ele>651.0</ele><time>2026-04-04T07:40:23.999Z</time></trkpt><trkpt lat="44.36226467640419" lon="11.172006382748986"><ele>651.0</ele><time>2026-04-04T07:40:24.999Z</time></trkpt><trkpt lat="44.36221322190668" lon="11.17217185120351"><ele>658.0</ele><time>2026-04-04T07:40:25.999Z</time></trkpt><trkpt lat="44.36215984476091" lon="11.172346584636266"><ele>665.0</ele><time>2026-04-04T07:40:26.999Z</time></trkpt><trkpt lat="44.362101264301984" lon="11.172531187682038"><ele>672.0</ele><time>2026-04-04T07:40:27.999Z</time></trkpt><trkpt lat="44.36206146930523" lon="11.172731966007614"><ele>679.0</ele><time>2026-04-04T07:40:28.999Z</time></trkpt><trkpt lat="44.36201846093647" lon="11.172944475340513"><ele>678.6666666666667</ele><time>2026-04-04T07:40:29.999Z</time></trkpt><trkpt lat="44.36197076772514" lon="11.173149831825743"><ele>678.3333333333334</ele><time>2026-04-04T07:40:30.999Z</time></trkpt><trkpt lat="44.361921435996535" lon="11.173361827706158"><ele>678.0</ele><time>2026-04-04T07:40:31.999Z</time></trkpt><trkpt lat="44.36186417938843" lon="11.173582881448267"><ele>678.0</ele><time>2026-04-04T07:40:32.999Z</time></trkpt><trkpt lat="44.3618059183418" lon="11.173806155947403"><ele>678.0</ele><time>2026-04-04T07:40:33.999Z</time></trkpt><trkpt lat="44.361752239389965" lon="11.174040581955923"><ele>678.0</ele><time>2026-04-04T07:40:34.999Z</time></trkpt><trkpt lat="44.36170849863972" lon="11.174252912878636"><ele>673.0</ele><time>2026-04-04T07:40:35.999Z</time></trkpt><trkpt lat="44.36166320490885" lon="11.17448090143749"><ele>668.0</ele><time>2026-04-04T07:40:36.999Z</time></trkpt><trkpt lat="44.361624935226665" lon="11.174693033969294"><ele>663.0</ele><time>2026-04-04T07:40:37.999Z</time></trkpt><trkpt lat="44.361600750989474" lon="11.174888204046725"><ele>660.5999999999999</ele><time>2026-04-04T07:40:38.999Z</time></trkpt><trkpt lat="44.361577210545676" lon="11.175060757377759"><ele>658.1999999999999</ele><time>2026-04-04T07:40:39.999Z</time></trkpt><trkpt lat="44.361554486421255" lon="11.175219731667283"><ele>655.8</ele><time>2026-04-04T07:40:40.999Z</time></trkpt><trkpt lat="44.36152407732461" lon="11.175363376019755"><ele>653.4</ele><time>2026-04-04T07:40:41.999Z</time></trkpt><trkpt lat="44.3614834115786" lon="11.175474572688511"><ele>651.0</ele><time>2026-04-04T07:40:42.999Z</time></trkpt><trkpt lat="44.36142321905826" lon="11.175567734733505"><ele>651.5999999999999</ele><time>2026-04-04T07:40:43.999Z</time></trkpt><trkpt lat="44.361350426722524" lon="11.175662372991575"><ele>652.2</ele><time>2026-04-04T07:40:44.999Z</time></trkpt><trkpt lat="44.36126635300732" lon="11.175774753459288"><ele>652.8</ele><time>2026-04-04T07:40:45.999Z</time></trkpt><trkpt lat="44.361196989972555" lon="11.175900162583101"><ele>653.4000000000001</ele><time>2026-04-04T07:40:46.999Z</time></trkpt><trkpt lat="44.36113354769387" lon="11.17604241122094"><ele>654.0</ele><time>2026-04-04T07:40:47.999Z</time></trkpt><trkpt lat="44.361076532433316" lon="11.176184744416869"><ele>654.0</ele><time>2026-04-04T07:40:48.999Z</time></trkpt><trkpt lat="44.36101057828882" lon="11.176328860937382"><ele>654.0</ele><time>2026-04-04T07:40:49.999Z</time></trkpt><trkpt lat="44.36093942422446" lon="11.176459908088127"><ele>654.0</ele><time>2026-04-04T07:40:50.999Z</time></trkpt><trkpt lat="44.36086478976381" lon="11.176572412560283"><ele>654.0</ele><time>2026-04-04T07:40:51.999Z</time></trkpt><trkpt lat="44.36080220004636" lon="11.17666448930703"><ele>654.0</ele><time>2026-04-04T07:40:52.999Z</time></trkpt><trkpt lat="44.3607411048237" lon="11.176737493615228"><ele>651.5</ele><time>2026-04-04T07:40:53.999Z</time></trkpt><trkpt lat="44.36067708039164" lon="11.176802030147812"><ele>649.0</ele><time>2026-04-04T07:40:54.999Z</time></trkpt><trkpt lat="44.360598008885574" lon="11.176859176910007"><ele>646.5</ele><time>2026-04-04T07:40:55.999Z</time></trkpt><trkpt lat="44.3605191303984" lon="11.17691384054765"><ele>644.0</ele><time>2026-04-04T07:40:56.999Z</time></trkpt><trkpt lat="44.36043499889134" lon="11.17697209744178"><ele>641.5</ele><time>2026-04-04T07:40:57.999Z</time></trkpt><trkpt lat="44.36036121538735" lon="11.177033671990122"><ele>639.0</ele><time>2026-04-04T07:40:58.999Z</time></trkpt><trkpt lat="44.360296727512754" lon="11.177100678247069"><ele>639.0</ele><time>2026-04-04T07:40:59.999Z</time></trkpt><trkpt lat="44.36024964962055" lon="11.177179853369802"><ele>639.0</ele><time>2026-04-04T07:41:00.999Z</time></trkpt><trkpt lat="44.36021245284893" lon="11.177291966842532"><ele>639.0</ele><time>2026-04-04T07:41:01.999Z</time></trkpt><trkpt lat="44.360193704032085" lon="11.177440818435686"><ele>639.0</ele><time>2026-04-04T07:41:02.999Z</time></trkpt><trkpt lat="44.360184749049466" lon="11.177610956511018"><ele>639.0</ele><time>2026-04-04T07:41:03.999Z</time></trkpt><trkpt lat="44.360160473547225" lon="11.177788290176247"><ele>635.5</ele><time>2026-04-04T07:41:04.999Z</time></trkpt><trkpt lat="44.360146069765094" lon="11.177964371797811"><ele>632.0</ele><time>2026-04-04T07:41:05.999Z</time></trkpt><trkpt lat="44.360137406840785" lon="11.178141708690351"><ele>628.5</ele><time>2026-04-04T07:41:06.999Z</time></trkpt><trkpt lat="44.36012551258013" lon="11.178317900820558"><ele>625.0</ele><time>2026-04-04T07:41:07.999Z</time></trkpt><trkpt lat="44.360110828321105" lon="11.178495436353902"><ele>622.6</ele><time>2026-04-04T07:41:08.999Z</time></trkpt><trkpt lat="44.36009528559469" lon="11.178661140501871"><ele>620.2</ele><time>2026-04-04T07:41:09.999Z</time></trkpt><trkpt lat="44.36007877035484" lon="11.178813102519394"><ele>617.8</ele><time>2026-04-04T07:41:10.999Z</time></trkpt><trkpt lat="44.3600679768368" lon="11.178935277940516"><ele>615.4</ele><time>2026-04-04T07:41:11.999Z</time></trkpt><trkpt lat="44.36005652352641" lon="11.17903641066241"><ele>613.0</ele><time>2026-04-04T07:41:12.999Z</time></trkpt><trkpt lat="44.36005361150808" lon="11.179127133911093"><ele>611.6666666666667</ele><time>2026-04-04T07:41:13.999Z</time></trkpt><trkpt lat="44.360067675716074" lon="11.179213752400695"><ele>610.3333333333334</ele><time>2026-04-04T07:41:14.999Z</time></trkpt><trkpt lat="44.360101526447764" lon="11.179294201184183"><ele>609.0</ele><time>2026-04-04T07:41:15.999Z</time></trkpt><trkpt lat="44.360149596015596" lon="11.179369544164707"><ele>607.6666666666666</ele><time>2026-04-04T07:41:16.999Z</time></trkpt><trkpt lat="44.3602411664059" lon="11.179378939647995"><ele>606.3333333333333</ele><time>2026-04-04T07:41:17.999Z</time></trkpt><trkpt lat="44.36034274643845" lon="11.179416259223943"><ele>605.0</ele><time>2026-04-04T07:41:18.999Z</time></trkpt><trkpt lat="44.36046830236289" lon="11.179429980604448"><ele>605.0</ele><time>2026-04-04T07:41:19.999Z</time></trkpt><trkpt lat="44.360589046662234" lon="11.17942033560937"><ele>605.0</ele><time>2026-04-04T07:41:20.999Z</time></trkpt><trkpt lat="44.360724251343406" lon="11.179447122152776"><ele>605.0</ele><time>2026-04-04T07:41:21.999Z</time></trkpt><trkpt lat="44.36086330250144" lon="11.179468557378925"><ele>605.0</ele><time>2026-04-04T07:41:22.999Z</time></trkpt><trkpt lat="44.360996816440235" lon="11.179515670141841"><ele>605.0</ele><time>2026-04-04T07:41:23.999Z</time></trkpt><trkpt lat="44.361118127652006" lon="11.179596916143408"><ele>605.0</ele><time>2026-04-04T07:41:24.999Z</time></trkpt><trkpt lat="44.36122828118704" lon="11.179669039433138"><ele>605.0</ele><time>2026-04-04T07:41:25.999Z</time></trkpt><trkpt lat="44.36131847545877" lon="11.179741654300479"><ele>605.0</ele><time>2026-04-04T07:41:26.999Z</time></trkpt><trkpt lat="44.36139305080159" lon="11.179817196690403"><ele>600.6666666666666</ele><time>2026-04-04T07:41:27.999Z</time></trkpt><trkpt lat="44.361460641607216" lon="11.179885002345335"><ele>596.3333333333333</ele><time>2026-04-04T07:41:28.999Z</time></trkpt><trkpt lat="44.361501506679204" lon="11.179980681476104"><ele>592.0</ele><time>2026-04-04T07:41:29.999Z</time></trkpt><trkpt lat="44.361517516394244" lon="11.180082240453252"><ele>587.6666666666666</ele><time>2026-04-04T07:41:30.999Z</time></trkpt><trkpt lat="44.361512349170596" lon="11.18018253386503"><ele>583.3333333333334</ele><time>2026-04-04T07:41:31.999Z</time></trkpt><trkpt lat="44.361476853073086" lon="11.180268930117792"><ele>579.0</ele><time>2026-04-04T07:41:33Z</time></trkpt><trkpt lat="44.361418991797876" lon="11.18032764207391"><ele>580.4</ele><time>2026-04-04T07:41:34Z</time></trkpt><trkpt lat="44.36134210516721" lon="11.180362616629637"><ele>581.8</ele><time>2026-04-04T07:41:35Z</time></trkpt><trkpt lat="44.36125113867087" lon="11.180344220679554"><ele>583.2</ele><time>2026-04-04T07:41:36Z</time></trkpt><trkpt lat="44.36114689340496" lon="11.180319993207172"><ele>584.6</ele><time>2026-04-04T07:41:37Z</time></trkpt><trkpt lat="44.36102974792028" lon="11.18031346048857"><ele>586.0</ele><time>2026-04-04T07:41:38Z</time></trkpt><trkpt lat="44.360925441547565" lon="11.180286282635995"><ele>586.0</ele><time>2026-04-04T07:41:39Z</time></trkpt><trkpt lat="44.360841526359465" lon="11.18028464647253"><ele>586.0</ele><time>2026-04-04T07:41:40Z</time></trkpt><trkpt lat="44.360769560958026" lon="11.180312926497233"><ele>586.0</ele><time>2026-04-04T07:41:41Z</time></trkpt><trkpt lat="44.36071000802585" lon="11.180375353774052"><ele>586.0</ele><time>2026-04-04T07:41:42Z</time></trkpt><trkpt lat="44.36068281799963" lon="11.180488916610049"><ele>586.0</ele><time>2026-04-04T07:41:43Z</time></trkpt><trkpt lat="44.36067420088488" lon="11.180630266324224"><ele>586.0</ele><time>2026-04-04T07:41:44Z</time></trkpt><trkpt lat="44.36067506619464" lon="11.180787297480162"><ele>582.25</ele><time>2026-04-04T07:41:45Z</time></trkpt><trkpt lat="44.360667454859005" lon="11.180982254963839"><ele>578.5</ele><time>2026-04-04T07:41:46Z</time></trkpt><trkpt lat="44.36067077685628" lon="11.181186487832369"><ele>574.75</ele><time>2026-04-04T07:41:47Z</time></trkpt><trkpt lat="44.36068182024771" lon="11.181393322644936"><ele>571.0</ele><time>2026-04-04T07:41:48Z</time></trkpt><trkpt lat="44.36070808690106" lon="11.181615630959254"><ele>568.3333333333334</ele><time>2026-04-04T07:41:49Z</time></trkpt><trkpt lat="44.36074882251892" lon="11.181848435422353"><ele>565.6666666666666</ele><time>2026-04-04T07:41:50Z</time></trkpt><trkpt lat="44.36080520012384" lon="11.182079869020862"><ele>563.0</ele><time>2026-04-04T07:41:51Z</time></trkpt><trkpt lat="44.36085394109483" lon="11.182303731853532"><ele>560.0</ele><time>2026-04-04T07:41:52Z</time></trkpt><trkpt lat="44.36090571900305" lon="11.182544901508207"><ele>557.0</ele><time>2026-04-04T07:41:53Z</time></trkpt><trkpt lat="44.36095917014312" lon="11.182775129447561"><ele>554.0</ele><time>2026-04-04T07:41:54Z</time></trkpt><trkpt lat="44.36101398475709" lon="11.182994076560766"><ele>552.75</ele><time>2026-04-04T07:41:55Z</time></trkpt><trkpt lat="44.361064602623145" lon="11.18319532367146"><ele>551.5</ele><time>2026-04-04T07:41:56Z</time></trkpt><trkpt lat="44.36110246246271" lon="11.183383842741431"><ele>550.25</ele><time>2026-04-04T07:41:57Z</time></trkpt><trkpt lat="44.36112427459322" lon="11.183559531725503"><ele>549.0</ele><time>2026-04-04T07:41:58Z</time></trkpt><trkpt lat="44.36114236151298" lon="11.183718790664127"><ele>549.0</ele><time>2026-04-04T07:41:59Z</time></trkpt><trkpt lat="44.361158045536584" lon="11.183835453723688"><ele>549.0</ele><time>2026-04-04T07:42:00Z</time></trkpt><trkpt lat="44.361177059952055" lon="11.183935246101928"><ele>549.0</ele><time>2026-04-04T07:42:01Z</time></trkpt><trkpt lat="44.36120508596655" lon="11.184023174160657"><ele>549.0</ele><time>2026-04-04T07:42:02Z</time></trkpt><trkpt lat="44.361264885347246" lon="11.184097426743278"><ele>549.0</ele><time>2026-04-04T07:42:03Z</time></trkpt><trkpt lat="44.36134667478452" lon="11.184152501328729"><ele>549.0</ele><time>2026-04-04T07:42:04Z</time></trkpt><trkpt lat="44.36144115514113" lon="11.184222595619037"><ele>547.5</ele><time>2026-04-04T07:42:05Z</time></trkpt><trkpt lat="44.36154662167126" lon="11.184298443298616"><ele>546.0</ele><time>2026-04-04T07:42:06Z</time></trkpt><trkpt lat="44.36165886218804" lon="11.184359484102282"><ele>544.5</ele><time>2026-04-04T07:42:07Z</time></trkpt><trkpt lat="44.361771925648526" lon="11.184407556600272"><ele>543.0</ele><time>2026-04-04T07:42:08Z</time></trkpt><trkpt lat="44.36190386603635" lon="11.184451069589032"><ele>543.0</ele><time>2026-04-04T07:42:09Z</time></trkpt><trkpt lat="44.362037522575406" lon="11.184501283624641"><ele>543.0</ele><time>2026-04-04T07:42:10Z</time></trkpt><trkpt lat="44.362170881851476" lon="11.184548644244126"><ele>543.0</ele><time>2026-04-04T07:42:11Z</time></trkpt><trkpt lat="44.36229912996144" lon="11.184597083443501"><ele>543.0</ele><time>2026-04-04T07:42:12Z</time></trkpt><trkpt lat="44.36240403090768" lon="11.184641971201067"><ele>539.3333333333334</ele><time>2026-04-04T07:42:13Z</time></trkpt><trkpt lat="44.362487785163616" lon="11.184680064098632"><ele>535.6666666666666</ele><time>2026-04-04T07:42:14Z</time></trkpt><trkpt lat="44.36256121771852" lon="11.18471951195866"><ele>532.0</ele><time>2026-04-04T07:42:15Z</time></trkpt><trkpt lat="44.36262245858485" lon="11.184770664458407"><ele>528.3333333333333</ele><time>2026-04-04T07:42:16Z</time></trkpt><trkpt lat="44.3626566001817" lon="11.184923830404507"><ele>524.6666666666666</ele><time>2026-04-04T07:42:18Z</time></trkpt><trkpt lat="44.362633328095484" lon="11.185009485522578"><ele>521.0</ele><time>2026-04-04T07:42:19Z</time></trkpt><trkpt lat="44.36263272663795" lon="11.18511801712029"><ele>521.0</ele><time>2026-04-04T07:42:20Z</time></trkpt><trkpt lat="44.36266139618646" lon="11.185216029006545"><ele>521.0</ele><time>2026-04-04T07:42:21Z</time></trkpt><trkpt lat="44.36273882505943" lon="11.185326890081344"><ele>521.0</ele><time>2026-04-04T07:42:23Z</time></trkpt><trkpt lat="44.362734030498764" lon="11.185446022553666"><ele>521.0</ele><time>2026-04-04T07:42:24.999Z</time></trkpt><trkpt lat="44.36263360691776" lon="11.185526582663028"><ele>521.0</ele><time>2026-04-04T07:42:26.999Z</time></trkpt><trkpt lat="44.362538678991804" lon="11.185484119309294"><ele>521.0</ele><time>2026-04-04T07:42:27.999Z</time></trkpt><trkpt lat="44.36246133149636" lon="11.185478283973337"><ele>521.0</ele><time>2026-04-04T07:42:28.999Z</time></trkpt><trkpt lat="44.36241323482198" lon="11.185568344365526"><ele>521.0</ele><time>2026-04-04T07:42:30.999Z</time></trkpt><trkpt lat="44.36248456562196" lon="11.185695225821087"><ele>521.0</ele><time>2026-04-04T07:42:32.999Z</time></trkpt><trkpt lat="44.362565547280994" lon="11.18573127473806"><ele>521.0</ele><time>2026-04-04T07:42:33.999Z</time></trkpt><trkpt lat="44.362672388733685" lon="11.185792121152131"><ele>519.0</ele><time>2026-04-04T07:42:34.999Z</time></trkpt><trkpt lat="44.36279923626018" lon="11.185845883767984"><ele>517.0</ele><time>2026-04-04T07:42:35.999Z</time></trkpt><trkpt lat="44.362919788939465" lon="11.185889914744388"><ele>515.0</ele><time>2026-04-04T07:42:36.999Z</time></trkpt><trkpt lat="44.36301450749785" lon="11.185955997694661"><ele>513.0</ele><time>2026-04-04T07:42:37.999Z</time></trkpt><trkpt lat="44.36308503714613" lon="11.186010734234431"><ele>511.0</ele><time>2026-04-04T07:42:38.999Z</time></trkpt><trkpt lat="44.36315036233164" lon="11.186094271403665"><ele>505.75</ele><time>2026-04-04T07:42:39.999Z</time></trkpt><trkpt lat="44.36321081359812" lon="11.18623124159622"><ele>500.5</ele><time>2026-04-04T07:42:40.999Z</time></trkpt><trkpt lat="44.36327896512516" lon="11.18640333951506"><ele>495.25</ele><time>2026-04-04T07:42:41.999Z</time></trkpt><trkpt lat="44.363334340381265" lon="11.186576129052625"><ele>490.0</ele><time>2026-04-04T07:42:42.999Z</time></trkpt><trkpt lat="44.363391768631466" lon="11.18672435707486"><ele>490.0</ele><time>2026-04-04T07:42:43.999Z</time></trkpt><trkpt lat="44.36345358994954" lon="11.18686721358018"><ele>490.0</ele><time>2026-04-04T07:42:44.999Z</time></trkpt><trkpt lat="44.36350000468751" lon="11.187024286527231"><ele>490.0</ele><time>2026-04-04T07:42:45.999Z</time></trkpt><trkpt lat="44.363542138058556" lon="11.187186123329488"><ele>490.0</ele><time>2026-04-04T07:42:46.999Z</time></trkpt><trkpt lat="44.363599121761276" lon="11.187320558997786"><ele>489.50000000000006</ele><time>2026-04-04T07:42:47.999Z</time></trkpt><trkpt lat="44.36366285536417" lon="11.187434489744017"><ele>489.0</ele><time>2026-04-04T07:42:48.999Z</time></trkpt><trkpt lat="44.363724518924826" lon="11.187534845175724"><ele>488.5</ele><time>2026-04-04T07:42:49.999Z</time></trkpt><trkpt lat="44.36378047914346" lon="11.187609555664956"><ele>488.0</ele><time>2026-04-04T07:42:50.999Z</time></trkpt><trkpt lat="44.363824922208316" lon="11.187679805763784"><ele>487.50000000000006</ele><time>2026-04-04T07:42:51.999Z</time></trkpt><trkpt lat="44.36385033820797" lon="11.187769562017213"><ele>487.0</ele><time>2026-04-04T07:42:52.999Z</time></trkpt><trkpt lat="44.36385183794309" lon="11.187867085474359"><ele>487.00000000000006</ele><time>2026-04-04T07:42:53.999Z</time></trkpt><trkpt lat="44.3638169963923" lon="11.187962976903199"><ele>487.0</ele><time>2026-04-04T07:42:54.999Z</time></trkpt><trkpt lat="44.36375419213246" lon="11.188040913285692"><ele>487.0</ele><time>2026-04-04T07:42:55.999Z</time></trkpt><trkpt lat="44.363678326671874" lon="11.18809463266562"><ele>487.0</ele><time>2026-04-04T07:42:56.999Z</time></trkpt><trkpt lat="44.3635891911107" lon="11.1881126774402"><ele>487.00000000000006</ele><time>2026-04-04T07:42:57.999Z</time></trkpt><trkpt lat="44.36347871336906" lon="11.188106410961948"><ele>487.0</ele><time>2026-04-04T07:42:58.999Z</time></trkpt><trkpt lat="44.36336828528906" lon="11.18804332645648"><ele>487.00000000000006</ele><time>2026-04-04T07:42:59.999Z</time></trkpt><trkpt lat="44.363260745437046" lon="11.187985188466163"><ele>487.0</ele><time>2026-04-04T07:43:00.999Z</time></trkpt><trkpt lat="44.363174360595565" lon="11.18796264491949"><ele>487.0</ele><time>2026-04-04T07:43:01.999Z</time></trkpt><trkpt lat="44.36309854275639" lon="11.187972741279673"><ele>487.0</ele><time>2026-04-04T07:43:02.999Z</time></trkpt><trkpt lat="44.36302941342662" lon="11.18798281850517"><ele>487.00000000000006</ele><time>2026-04-04T07:43:03.999Z</time></trkpt><trkpt lat="44.36296682399041" lon="11.18804253932842"><ele>487.0</ele><time>2026-04-04T07:43:04.999Z</time></trkpt><trkpt lat="44.36293254711166" lon="11.18814330185706"><ele>484.6</ele><time>2026-04-04T07:43:05.999Z</time></trkpt><trkpt lat="44.36293952882408" lon="11.18825382931038"><ele>482.20000000000005</ele><time>2026-04-04T07:43:06.999Z</time></trkpt><trkpt lat="44.36298397046683" lon="11.188374041886428"><ele>479.8</ele><time>2026-04-04T07:43:07.999Z</time></trkpt><trkpt lat="44.363053251639116" lon="11.188505661149494"><ele>477.4</ele><time>2026-04-04T07:43:08.999Z</time></trkpt><trkpt lat="44.36311125363164" lon="11.188656269363243"><ele>475.0</ele><time>2026-04-04T07:43:09.999Z</time></trkpt><trkpt lat="44.36316304493186" lon="11.188805263906133"><ele>475.0</ele><time>2026-04-04T07:43:10.999Z</time></trkpt><trkpt lat="44.36320100718745" lon="11.188910941610924"><ele>475.0</ele><time>2026-04-04T07:43:11.999Z</time></trkpt><trkpt lat="44.36323916503494" lon="11.189016916157629"><ele>475.0</ele><time>2026-04-04T07:43:12.999Z</time></trkpt><trkpt lat="44.36330280129956" lon="11.189120013184057"><ele>475.0</ele><time>2026-04-04T07:43:13.999Z</time></trkpt><trkpt lat="44.36334797799385" lon="11.189211505670356"><ele>475.0</ele><time>2026-04-04T07:43:14.999Z</time></trkpt><trkpt lat="44.36343634315549" lon="11.189303038313147"><ele>472.33333333333337</ele><time>2026-04-04T07:43:15.999Z</time></trkpt><trkpt lat="44.36351621888842" lon="11.189367127007037"><ele>469.6666666666667</ele><time>2026-04-04T07:43:16.999Z</time></trkpt><trkpt lat="44.363591742671794" lon="11.189405404084043"><ele>467.0</ele><time>2026-04-04T07:43:17.999Z</time></trkpt><trkpt lat="44.36366517235938" lon="11.189426593511838"><ele>464.33333333333337</ele><time>2026-04-04T07:43:18.999Z</time></trkpt><trkpt lat="44.363789221016056" lon="11.189403466958412"><ele>461.6666666666667</ele><time>2026-04-04T07:43:20.999Z</time></trkpt><trkpt lat="44.36384620307369" lon="11.189346451811401"><ele>459.0</ele><time>2026-04-04T07:43:21.999Z</time></trkpt><trkpt lat="44.36393898041856" lon="11.189279010723956"><ele>455.6</ele><time>2026-04-04T07:43:23.999Z</time></trkpt><trkpt lat="44.363992238761725" lon="11.189418077375027"><ele>452.2</ele><time>2026-04-04T07:43:25.999Z</time></trkpt><trkpt lat="44.36398579868251" lon="11.189528280747645"><ele>448.80000000000007</ele><time>2026-04-04T07:43:26.999Z</time></trkpt><trkpt lat="44.363962491034314" lon="11.189652423195614"><ele>445.40000000000003</ele><time>2026-04-04T07:43:27.999Z</time></trkpt><trkpt lat="44.363949377824696" lon="11.189797359634586"><ele>442.0</ele><time>2026-04-04T07:43:28.999Z</time></trkpt><trkpt lat="44.36397035063686" lon="11.18993700833722"><ele>441.00000000000006</ele><time>2026-04-04T07:43:29.999Z</time></trkpt><trkpt lat="44.364004626143796" lon="11.190069522359813"><ele>440.0</ele><time>2026-04-04T07:43:30.999Z</time></trkpt><trkpt lat="44.36403924948862" lon="11.190196510873067"><ele>439.0</ele><time>2026-04-04T07:43:31.999Z</time></trkpt><trkpt lat="44.364064107729526" lon="11.190322115851119"><ele>438.0</ele><time>2026-04-04T07:43:32.999Z</time></trkpt><trkpt lat="44.36406438848613" lon="11.19043629314632"><ele>437.00000000000006</ele><time>2026-04-04T07:43:33.999Z</time></trkpt><trkpt lat="44.36403879157163" lon="11.190519139549044"><ele>436.0</ele><time>2026-04-04T07:43:34.999Z</time></trkpt><trkpt lat="44.363929173756226" lon="11.190623158155356"><ele>436.1666666666667</ele><time>2026-04-04T07:43:36.999Z</time></trkpt><trkpt lat="44.363862953228704" lon="11.190672153035305"><ele>436.33333333333337</ele><time>2026-04-04T07:43:37.999Z</time></trkpt><trkpt lat="44.363753464111205" lon="11.190676432482197"><ele>436.5</ele><time>2026-04-04T07:43:40Z</time></trkpt><trkpt lat="44.36365342917287" lon="11.190569397433546"><ele>436.66666666666663</ele><time>2026-04-04T07:43:42Z</time></trkpt><trkpt lat="44.363594349647464" lon="11.190520876532196"><ele>436.8333333333333</ele><time>2026-04-04T07:43:43Z</time></trkpt><trkpt lat="44.363535005216406" lon="11.190473991152658"><ele>437.0</ele><time>2026-04-04T07:43:44Z</time></trkpt><trkpt lat="44.363475275578494" lon="11.19042559911207"><ele>436.99999999999994</ele><time>2026-04-04T07:43:45Z</time></trkpt><trkpt lat="44.36341309290755" lon="11.190380351286747"><ele>437.0</ele><time>2026-04-04T07:43:46Z</time></trkpt><trkpt lat="44.363347855065804" lon="11.190339312977008"><ele>437.0</ele><time>2026-04-04T07:43:47Z</time></trkpt><trkpt lat="44.36327625909865" lon="11.19030679900328"><ele>437.0</ele><time>2026-04-04T07:43:48Z</time></trkpt><trkpt lat="44.36320278109113" lon="11.190266223554424"><ele>436.99999999999994</ele><time>2026-04-04T07:43:49Z</time></trkpt><trkpt lat="44.363125044393726" lon="11.190246375194999"><ele>437.0</ele><time>2026-04-04T07:43:50Z</time></trkpt><trkpt lat="44.36304986018663" lon="11.190216418084068"><ele>433.8</ele><time>2026-04-04T07:43:51Z</time></trkpt><trkpt lat="44.36296231545159" lon="11.190187648473614"><ele>430.6</ele><time>2026-04-04T07:43:52Z</time></trkpt><trkpt lat="44.36286622430836" lon="11.190162506008106"><ele>427.40000000000003</ele><time>2026-04-04T07:43:53Z</time></trkpt><trkpt lat="44.36276644259769" lon="11.190140085672459"><ele>424.20000000000005</ele><time>2026-04-04T07:43:54Z</time></trkpt><trkpt lat="44.36266007308014" lon="11.190121888114108"><ele>421.0</ele><time>2026-04-04T07:43:55Z</time></trkpt><trkpt lat="44.36255236280478" lon="11.190098780010834"><ele>421.0</ele><time>2026-04-04T07:43:56Z</time></trkpt><trkpt lat="44.36244698587254" lon="11.190051187416213"><ele>421.0</ele><time>2026-04-04T07:43:57Z</time></trkpt><trkpt lat="44.36234001225623" lon="11.190025167449512"><ele>421.0</ele><time>2026-04-04T07:43:58Z</time></trkpt><trkpt lat="44.36223727227988" lon="11.190036481192964"><ele>421.0</ele><time>2026-04-04T07:43:59Z</time></trkpt><trkpt lat="44.3621436613428" lon="11.19005266063971"><ele>421.0</ele><time>2026-04-04T07:44:00Z</time></trkpt><trkpt lat="44.36205315815605" lon="11.190089304473007"><ele>419.0</ele><time>2026-04-04T07:44:01Z</time></trkpt><trkpt lat="44.36196453324173" lon="11.19012084093637"><ele>417.0</ele><time>2026-04-04T07:44:02Z</time></trkpt><trkpt lat="44.36187735088823" lon="11.190096869367855"><ele>415.0</ele><time>2026-04-04T07:44:03Z</time></trkpt><trkpt lat="44.3617831287405" lon="11.190078086391528"><ele>413.0</ele><time>2026-04-04T07:44:04Z</time></trkpt><trkpt lat="44.36168688130626" lon="11.190067578154753"><ele>411.0</ele><time>2026-04-04T07:44:05Z</time></trkpt><trkpt lat="44.36159795182853" lon="11.190037654379958"><ele>411.0</ele><time>2026-04-04T07:44:06Z</time></trkpt><trkpt lat="44.36151613315022" lon="11.190033324095026"><ele>411.0</ele><time>2026-04-04T07:44:07Z</time></trkpt><trkpt lat="44.36142816870153" lon="11.190032235160638"><ele>411.0</ele><time>2026-04-04T07:44:13Z</time></trkpt><trkpt lat="44.361308019269345" lon="11.190039473175315"><ele>411.0</ele><time>2026-04-04T07:44:15Z</time></trkpt><trkpt lat="44.36123365584829" lon="11.190052098510016"><ele>411.0</ele><time>2026-04-04T07:44:16Z</time></trkpt><trkpt lat="44.36114905849331" lon="11.190068096581179"><ele>412.20000000000005</ele><time>2026-04-04T07:44:17Z</time></trkpt><trkpt lat="44.36106051422414" lon="11.19008504772007"><ele>413.40000000000003</ele><time>2026-04-04T07:44:18Z</time></trkpt><trkpt lat="44.360966856421335" lon="11.190116856567247"><ele>414.6</ele><time>2026-04-04T07:44:19Z</time></trkpt><trkpt lat="44.36086629822854" lon="11.190114909323754"><ele>415.8</ele><time>2026-04-04T07:44:20Z</time></trkpt><trkpt lat="44.36077437654523" lon="11.190132747860789"><ele>417.0</ele><time>2026-04-04T07:44:21Z</time></trkpt><trkpt lat="44.360670021075" lon="11.190166519754007"><ele>417.0</ele><time>2026-04-04T07:44:22Z</time></trkpt><trkpt lat="44.36055927945087" lon="11.190159741392986"><ele>417.0</ele><time>2026-04-04T07:44:23Z</time></trkpt><trkpt lat="44.36044883637602" lon="11.190153624727586"><ele>417.0</ele><time>2026-04-04T07:44:24Z</time></trkpt><trkpt lat="44.36034360052396" lon="11.190159389674665"><ele>417.0</ele><time>2026-04-04T07:44:25Z</time></trkpt><trkpt lat="44.3602403032341" lon="11.190159723440575"><ele>417.0</ele><time>2026-04-04T07:44:26Z</time></trkpt><trkpt lat="44.36015274920603" lon="11.190174936275211"><ele>416.3333333333333</ele><time>2026-04-04T07:44:27Z</time></trkpt><trkpt lat="44.36007341515231" lon="11.190191989407875"><ele>415.66666666666663</ele><time>2026-04-04T07:44:28Z</time></trkpt><trkpt lat="44.36000232841488" lon="11.190214214058816"><ele>415.0</ele><time>2026-04-04T07:44:29Z</time></trkpt><trkpt lat="44.359902362206604" lon="11.1902901970111"><ele>414.3333333333333</ele><time>2026-04-04T07:44:31Z</time></trkpt><trkpt lat="44.359862863748546" lon="11.190377497960355"><ele>413.66666666666663</ele><time>2026-04-04T07:44:32Z</time></trkpt><trkpt lat="44.35981394465302" lon="11.19047000456987"><ele>413.0</ele><time>2026-04-04T07:44:33Z</time></trkpt><trkpt lat="44.35975521184137" lon="11.190569940438285"><ele>410.4</ele><time>2026-04-04T07:44:34Z</time></trkpt><trkpt lat="44.35968781608409" lon="11.19067996724086"><ele>407.79999999999995</ele><time>2026-04-04T07:44:35Z</time></trkpt><trkpt lat="44.35961936726813" lon="11.190790877680119"><ele>405.2</ele><time>2026-04-04T07:44:36Z</time></trkpt><trkpt lat="44.35955116499948" lon="11.190909188199575"><ele>402.6</ele><time>2026-04-04T07:44:37Z</time></trkpt><trkpt lat="44.35948022020779" lon="11.191026587649603"><ele>400.0</ele><time>2026-04-04T07:44:38Z</time></trkpt><trkpt lat="44.35940356521343" lon="11.191151373399792"><ele>400.0</ele><time>2026-04-04T07:44:39Z</time></trkpt><trkpt lat="44.35933462852447" lon="11.191263265765445"><ele>400.0</ele><time>2026-04-04T07:44:40Z</time></trkpt><trkpt lat="44.35926537246473" lon="11.191377972194173"><ele>400.0</ele><time>2026-04-04T07:44:41Z</time></trkpt><trkpt lat="44.359194638786676" lon="11.191503630837019"><ele>400.0</ele><time>2026-04-04T07:44:42Z</time></trkpt><trkpt lat="44.35912676586122" lon="11.191626883039218"><ele>400.0</ele><time>2026-04-04T07:44:43Z</time></trkpt><trkpt lat="44.35905600329245" lon="11.191750369167384"><ele>399.5</ele><time>2026-04-04T07:44:44Z</time></trkpt><trkpt lat="44.358979382220724" lon="11.191879242729105"><ele>399.0</ele><time>2026-04-04T07:44:45Z</time></trkpt><trkpt lat="44.35891221505162" lon="11.192000964290777"><ele>398.5</ele><time>2026-04-04T07:44:46Z</time></trkpt><trkpt lat="44.35883959200541" lon="11.192127743060215"><ele>398.0</ele><time>2026-04-04T07:44:47Z</time></trkpt><trkpt lat="44.35876867569914" lon="11.192260171188817"><ele>395.2</ele><time>2026-04-04T07:44:48Z</time></trkpt><trkpt lat="44.35869819959594" lon="11.192391961839498"><ele>392.4</ele><time>2026-04-04T07:44:49Z</time></trkpt><trkpt lat="44.35863897651826" lon="11.19250323078545"><ele>389.59999999999997</ele><time>2026-04-04T07:44:50Z</time></trkpt><trkpt lat="44.35858555526957" lon="11.19260404600938"><ele>386.79999999999995</ele><time>2026-04-04T07:44:51Z</time></trkpt><trkpt lat="44.35852942911437" lon="11.19270146465094"><ele>384.0</ele><time>2026-04-04T07:44:52Z</time></trkpt><trkpt lat="44.35847637651946" lon="11.192807132698245"><ele>384.0</ele><time>2026-04-04T07:44:53Z</time></trkpt><trkpt lat="44.358425555160395" lon="11.192908435320133"><ele>384.0</ele><time>2026-04-04T07:44:54Z</time></trkpt><trkpt lat="44.358363111743834" lon="11.193012261690411"><ele>384.0</ele><time>2026-04-04T07:44:54.999Z</time></trkpt><trkpt lat="44.35830282508493" lon="11.193115402631621"><ele>384.0</ele><time>2026-04-04T07:44:55.999Z</time></trkpt><trkpt lat="44.35825269070031" lon="11.193230697254153"><ele>384.0</ele><time>2026-04-04T07:44:56.999Z</time></trkpt><trkpt lat="44.35819922303547" lon="11.193348494256758"><ele>384.25</ele><time>2026-04-04T07:44:57.999Z</time></trkpt><trkpt lat="44.35814486522533" lon="11.19348541557555"><ele>384.5</ele><time>2026-04-04T07:44:58.999Z</time></trkpt><trkpt lat="44.358092602065085" lon="11.193622675594156"><ele>384.75</ele><time>2026-04-04T07:44:59.999Z</time></trkpt><trkpt lat="44.3580420947308" lon="11.19376560899478"><ele>385.0</ele><time>2026-04-04T07:45:00.999Z</time></trkpt><trkpt lat="44.35799026716349" lon="11.193913712778771"><ele>381.5</ele><time>2026-04-04T07:45:01.999Z</time></trkpt><trkpt lat="44.35793640032879" lon="11.194061846266683"><ele>378.0</ele><time>2026-04-04T07:45:02.999Z</time></trkpt><trkpt lat="44.357885907364775" lon="11.194206381861441"><ele>374.5</ele><time>2026-04-04T07:45:03.999Z</time></trkpt><trkpt lat="44.35783766042714" lon="11.194356240262097"><ele>371.0</ele><time>2026-04-04T07:45:04.999Z</time></trkpt><trkpt lat="44.3577805556925" lon="11.194502195908486"><ele>371.0</ele><time>2026-04-04T07:45:05.999Z</time></trkpt><trkpt lat="44.357733943501756" lon="11.194632693321607"><ele>371.0</ele><time>2026-04-04T07:45:06.999Z</time></trkpt><trkpt lat="44.357691173860225" lon="11.194752979853163"><ele>371.0</ele><time>2026-04-04T07:45:07.999Z</time></trkpt><trkpt lat="44.35764372245703" lon="11.194871266644226"><ele>371.0</ele><time>2026-04-04T07:45:08.999Z</time></trkpt><trkpt lat="44.35757970331029" lon="11.19496810928491"><ele>371.0</ele><time>2026-04-04T07:45:09.999Z</time></trkpt><trkpt lat="44.35749645600967" lon="11.19504066112861"><ele>370.0</ele><time>2026-04-04T07:45:10.999Z</time></trkpt><trkpt lat="44.357412536457694" lon="11.195103539826665"><ele>369.0</ele><time>2026-04-04T07:45:11.999Z</time></trkpt><trkpt lat="44.35731461233725" lon="11.195149072278932"><ele>368.0</ele><time>2026-04-04T07:45:12.999Z</time></trkpt><trkpt lat="44.35721854025175" lon="11.195194691175855"><ele>367.0</ele><time>2026-04-04T07:45:13.999Z</time></trkpt><trkpt lat="44.35711259462646" lon="11.195231999865772"><ele>366.0</ele><time>2026-04-04T07:45:14.999Z</time></trkpt><trkpt lat="44.357022790910925" lon="11.195252966585707"><ele>362.6666666666667</ele><time>2026-04-04T07:45:15.999Z</time></trkpt><trkpt lat="44.35694189788294" lon="11.195266016571438"><ele>359.3333333333333</ele><time>2026-04-04T07:45:16.999Z</time></trkpt><trkpt lat="44.35686551382529" lon="11.195264265002862"><ele>356.0</ele><time>2026-04-04T07:45:17.999Z</time></trkpt><trkpt lat="44.356783749690045" lon="11.195263891716571"><ele>352.66666666666663</ele><time>2026-04-04T07:45:18.999Z</time></trkpt><trkpt lat="44.35669649571506" lon="11.19528734219576"><ele>349.3333333333333</ele><time>2026-04-04T07:45:19.999Z</time></trkpt><trkpt lat="44.356609696646075" lon="11.195341212375112"><ele>346.0</ele><time>2026-04-04T07:45:20.999Z</time></trkpt><trkpt lat="44.356519089840106" lon="11.195425889556313"><ele>346.0</ele><time>2026-04-04T07:45:21.999Z</time></trkpt><trkpt lat="44.35642715711181" lon="11.195531119256811"><ele>346.0</ele><time>2026-04-04T07:45:22.999Z</time></trkpt><trkpt lat="44.35634281497561" lon="11.195648318670376"><ele>346.0</ele><time>2026-04-04T07:45:23.999Z</time></trkpt><trkpt lat="44.356265880391895" lon="11.195763206816677"><ele>346.0</ele><time>2026-04-04T07:45:24.999Z</time></trkpt><trkpt lat="44.35618308791103" lon="11.195869631664527"><ele>345.0</ele><time>2026-04-04T07:45:25.999Z</time></trkpt><trkpt lat="44.3561104061184" lon="11.195955807614427"><ele>344.0</ele><time>2026-04-04T07:45:26.999Z</time></trkpt><trkpt lat="44.356050438857615" lon="11.196022096061387"><ele>343.0</ele><time>2026-04-04T07:45:27.999Z</time></trkpt><trkpt lat="44.355974960791485" lon="11.196064509560888"><ele>342.0</ele><time>2026-04-04T07:45:28.999Z</time></trkpt><trkpt lat="44.355879102525414" lon="11.196090625245722"><ele>341.0</ele><time>2026-04-04T07:45:29.999Z</time></trkpt><trkpt lat="44.3557828548073" lon="11.196073559837021"><ele>340.0</ele><time>2026-04-04T07:45:30.999Z</time></trkpt><trkpt lat="44.35566178640817" lon="11.196055247118514"><ele>340.0</ele><time>2026-04-04T07:45:31.999Z</time></trkpt><trkpt lat="44.35554063386487" lon="11.196040786369851"><ele>340.0</ele><time>2026-04-04T07:45:32.999Z</time></trkpt><trkpt lat="44.35542541122849" lon="11.19603367811655"><ele>340.0</ele><time>2026-04-04T07:45:33.999Z</time></trkpt><trkpt lat="44.35531164854106" lon="11.196039671162689"><ele>340.0</ele><time>2026-04-04T07:45:34.999Z</time></trkpt><trkpt lat="44.355194973345796" lon="11.196080151198373"><ele>332.3333333333333</ele><time>2026-04-04T07:45:35.999Z</time></trkpt><trkpt lat="44.355061459160936" lon="11.196165332166384"><ele>324.6666666666667</ele><time>2026-04-04T07:45:36.999Z</time></trkpt><trkpt lat="44.35492325839378" lon="11.196274342509847"><ele>317.0</ele><time>2026-04-04T07:45:37.999Z</time></trkpt><trkpt lat="44.35479123724918" lon="11.196383569564766"><ele>318.0</ele><time>2026-04-04T07:45:38.999Z</time></trkpt><trkpt lat="44.354670647081825" lon="11.19648387731029"><ele>319.0</ele><time>2026-04-04T07:45:39.999Z</time></trkpt><trkpt lat="44.354553095394245" lon="11.196591668068201"><ele>320.0</ele><time>2026-04-04T07:45:40.999Z</time></trkpt><trkpt lat="44.35443748452985" lon="11.196714999699589"><ele>321.0</ele><time>2026-04-04T07:45:41.999Z</time></trkpt><trkpt lat="44.35432607878103" lon="11.196847971857537"><ele>321.0</ele><time>2026-04-04T07:45:42.999Z</time></trkpt><trkpt lat="44.35422763075722" lon="11.196967644915778"><ele>321.0</ele><time>2026-04-04T07:45:43.999Z</time></trkpt><trkpt lat="44.354152534810204" lon="11.197058177475638"><ele>321.0</ele><time>2026-04-04T07:45:45Z</time></trkpt><trkpt lat="44.35409935652587" lon="11.197160766452804"><ele>321.0</ele><time>2026-04-04T07:45:46Z</time></trkpt><trkpt lat="44.35405941686664" lon="11.197279321719924"><ele>321.0</ele><time>2026-04-04T07:45:47Z</time></trkpt><trkpt lat="44.35402074109833" lon="11.19736109771186"><ele>320.6</ele><time>2026-04-04T07:45:48Z</time></trkpt><trkpt lat="44.3539682362917" lon="11.197423480350736"><ele>320.20000000000005</ele><time>2026-04-04T07:45:50Z</time></trkpt><trkpt lat="44.353932072120486" lon="11.197640878502314"><ele>319.79999999999995</ele><time>2026-04-04T07:52:00.999Z</time></trkpt><trkpt lat="44.353904477146216" lon="11.19778672695958"><ele>319.4</ele><time>2026-04-04T07:52:01.999Z</time></trkpt><trkpt lat="44.35388510786649" lon="11.197911702645017"><ele>319.0</ele><time>2026-04-04T07:52:03Z</time></trkpt><trkpt lat="44.35386707655543" lon="11.198067750301965"><ele>319.25</ele><time>2026-04-04T07:52:04Z</time></trkpt><trkpt lat="44.35385735815784" lon="11.198257142382284"><ele>319.5</ele><time>2026-04-04T07:52:05Z</time></trkpt><trkpt lat="44.353861208983425" lon="11.198437657071393"><ele>319.75</ele><time>2026-04-04T07:52:06Z</time></trkpt><trkpt lat="44.353872632443064" lon="11.19858953753227"><ele>320.0</ele><time>2026-04-04T07:52:07Z</time></trkpt><trkpt lat="44.353898198187046" lon="11.198740841113064"><ele>318.5</ele><time>2026-04-04T07:52:08Z</time></trkpt><trkpt lat="44.353946738940195" lon="11.198895654459912"><ele>317.0</ele><time>2026-04-04T07:52:09Z</time></trkpt><trkpt lat="44.354016963813535" lon="11.199049507891356"><ele>315.5</ele><time>2026-04-04T07:52:10Z</time></trkpt><trkpt lat="44.35410840941271" lon="11.199209546042761"><ele>314.0</ele><time>2026-04-04T07:52:11Z</time></trkpt><trkpt lat="44.35419546310393" lon="11.19937223883177"><ele>313.5</ele><time>2026-04-04T07:52:12Z</time></trkpt><trkpt lat="44.35427462887206" lon="11.19952240864143"><ele>313.0</ele><time>2026-04-04T07:52:13Z</time></trkpt><trkpt lat="44.354321031073205" lon="11.199688327587221"><ele>312.5</ele><time>2026-04-04T07:52:14Z</time></trkpt><trkpt lat="44.354358714952255" lon="11.199855425309345"><ele>312.0</ele><time>2026-04-04T07:52:15Z</time></trkpt><trkpt lat="44.35439462805604" lon="11.200042991467258"><ele>310.25</ele><time>2026-04-04T07:52:16Z</time></trkpt><trkpt lat="44.35443791804425" lon="11.200223634736911"><ele>308.5</ele><time>2026-04-04T07:52:17Z</time></trkpt><trkpt lat="44.35443054622221" lon="11.2004143498666"><ele>306.75</ele><time>2026-04-04T07:52:18Z</time></trkpt><trkpt lat="44.35442974889076" lon="11.200606903156254"><ele>305.0</ele><time>2026-04-04T07:52:19Z</time></trkpt><trkpt lat="44.35442938421714" lon="11.200781354549354"><ele>303.5</ele><time>2026-04-04T07:52:20Z</time></trkpt><trkpt lat="44.35441578981171" lon="11.200925208990629"><ele>302.0</ele><time>2026-04-04T07:52:21Z</time></trkpt><trkpt lat="44.354397853249594" lon="11.201040133707789"><ele>300.5</ele><time>2026-04-04T07:52:22Z</time></trkpt><trkpt lat="44.35436471725741" lon="11.201130316142903"><ele>299.0</ele><time>2026-04-04T07:52:23Z</time></trkpt><trkpt lat="44.3542997024937" lon="11.201208838004991"><ele>297.5</ele><time>2026-04-04T07:52:24Z</time></trkpt><trkpt lat="44.354200292773484" lon="11.201225722180016"><ele>296.0</ele><time>2026-04-04T07:52:25Z</time></trkpt><trkpt lat="44.35408699689755" lon="11.201262613458079"><ele>296.0</ele><time>2026-04-04T07:52:26Z</time></trkpt><trkpt lat="44.35395374204009" lon="11.201306823795868"><ele>296.0</ele><time>2026-04-04T07:52:27Z</time></trkpt><trkpt lat="44.353817129177926" lon="11.201377224359858"><ele>296.0</ele><time>2026-04-04T07:52:28Z</time></trkpt><trkpt lat="44.35367302904468" lon="11.201438041281179"><ele>296.0</ele><time>2026-04-04T07:52:29Z</time></trkpt><trkpt lat="44.3535286201637" lon="11.201518755460432"><ele>289.33333333333337</ele><time>2026-04-04T07:52:30Z</time></trkpt><trkpt lat="44.35337362881216" lon="11.201598596286882"><ele>282.6666666666667</ele><time>2026-04-04T07:52:31Z</time></trkpt><trkpt lat="44.353236437533" lon="11.201682238798881"><ele>276.0</ele><time>2026-04-04T07:52:32Z</time></trkpt><trkpt lat="44.35310325968668" lon="11.201762983369145"><ele>277.75</ele><time>2026-04-04T07:52:33Z</time></trkpt><trkpt lat="44.35297212390357" lon="11.20184251825872"><ele>279.5</ele><time>2026-04-04T07:52:34Z</time></trkpt><trkpt lat="44.35285373827973" lon="11.20191828720905"><ele>281.25</ele><time>2026-04-04T07:52:35Z</time></trkpt><trkpt lat="44.3527337238761" lon="11.201992915224176"><ele>283.0</ele><time>2026-04-04T07:52:36Z</time></trkpt><trkpt lat="44.352624303864786" lon="11.202069085520215"><ele>283.0</ele><time>2026-04-04T07:52:37Z</time></trkpt><trkpt lat="44.352507484864525" lon="11.202133618780648"><ele>283.0</ele><time>2026-04-04T07:52:38Z</time></trkpt><trkpt lat="44.35239286227206" lon="11.202147933978605"><ele>283.0</ele><time>2026-04-04T07:52:39Z</time></trkpt><trkpt lat="44.35226735917874" lon="11.202171771610502"><ele>283.0</ele><time>2026-04-04T07:52:40Z</time></trkpt><trkpt lat="44.35212375169563" lon="11.202207584457819"><ele>282.25</ele><time>2026-04-04T07:52:41Z</time></trkpt><trkpt lat="44.35197791870779" lon="11.202224707128947"><ele>281.5</ele><time>2026-04-04T07:52:42Z</time></trkpt><trkpt lat="44.351840323091096" lon="11.202250911315941"><ele>280.75</ele><time>2026-04-04T07:52:43Z</time></trkpt><trkpt lat="44.35169963903453" lon="11.20226469108134"><ele>280.0</ele><time>2026-04-04T07:52:44Z</time></trkpt><trkpt lat="44.351571719700324" lon="11.202316860781352"><ele>273.5</ele><time>2026-04-04T07:52:45Z</time></trkpt><trkpt lat="44.35145271496404" lon="11.202385442999011"><ele>267.0</ele><time>2026-04-04T07:52:46Z</time></trkpt><trkpt lat="44.35134519453398" lon="11.202445918105107"><ele>260.5</ele><time>2026-04-04T07:52:47Z</time></trkpt><trkpt lat="44.35123639603393" lon="11.20248270683326"><ele>254.0</ele><time>2026-04-04T07:52:48Z</time></trkpt><trkpt lat="44.35112038723809" lon="11.202464344208083"><ele>253.0</ele><time>2026-04-04T07:52:49Z</time></trkpt><trkpt lat="44.35100456225259" lon="11.202468928796815"><ele>252.0</ele><time>2026-04-04T07:52:50Z</time></trkpt><trkpt lat="44.35087794470913" lon="11.202461202841521"><ele>251.0</ele><time>2026-04-04T07:52:51Z</time></trkpt><trkpt lat="44.35074652155438" lon="11.202466284272262"><ele>250.0</ele><time>2026-04-04T07:52:52Z</time></trkpt><trkpt lat="44.350601477669954" lon="11.202476518234876"><ele>246.25</ele><time>2026-04-04T07:52:53Z</time></trkpt><trkpt lat="44.35046626920897" lon="11.202473130985448"><ele>242.5</ele><time>2026-04-04T07:52:54Z</time></trkpt><trkpt lat="44.35033485147246" lon="11.202477887053764"><ele>238.75</ele><time>2026-04-04T07:52:55Z</time></trkpt><trkpt lat="44.35020953637904" lon="11.202474394531093"><ele>235.0</ele><time>2026-04-04T07:52:56Z</time></trkpt><trkpt lat="44.35008938069197" lon="11.202458847902195"><ele>235.0</ele><time>2026-04-04T07:52:57Z</time></trkpt><trkpt lat="44.34998382753112" lon="11.202412604902861"><ele>235.0</ele><time>2026-04-04T07:52:58Z</time></trkpt><trkpt lat="44.34990318495493" lon="11.202351287076585"><ele>235.0</ele><time>2026-04-04T07:52:59Z</time></trkpt><trkpt lat="44.3498389732813" lon="11.202271314026515"><ele>235.0</ele><time>2026-04-04T07:53:00Z</time></trkpt><trkpt lat="44.34978356235093" lon="11.2021483609118"><ele>235.0</ele><time>2026-04-04T07:53:01Z</time></trkpt><trkpt lat="44.34971013630552" lon="11.20207152957038"><ele>232.25</ele><time>2026-04-04T07:53:02Z</time></trkpt><trkpt lat="44.34960921799227" lon="11.202016313672043"><ele>229.5</ele><time>2026-04-04T07:53:03Z</time></trkpt><trkpt lat="44.34949729993394" lon="11.201994954319252"><ele>226.75</ele><time>2026-04-04T07:53:04Z</time></trkpt><trkpt lat="44.34936727760665" lon="11.202001220441435"><ele>224.0</ele><time>2026-04-04T07:53:05Z</time></trkpt><trkpt lat="44.34922424659568" lon="11.20201237279502"><ele>224.0</ele><time>2026-04-04T07:53:06Z</time></trkpt><trkpt lat="44.34909003240431" lon="11.202021589812563"><ele>223.99999999999997</ele><time>2026-04-04T07:53:07Z</time></trkpt><trkpt lat="44.34897053228228" lon="11.202030041483193"><ele>223.99999999999997</ele><time>2026-04-04T07:53:08Z</time></trkpt><trkpt lat="44.348865538881114" lon="11.202044885425002"><ele>224.0</ele><time>2026-04-04T07:53:09Z</time></trkpt><trkpt lat="44.34877801213097" lon="11.202072046958852"><ele>224.0</ele><time>2026-04-04T07:53:10Z</time></trkpt><trkpt lat="44.34869274947505" lon="11.202134159869164"><ele>219.79999999999998</ele><time>2026-04-04T07:53:11Z</time></trkpt><trkpt lat="44.34860889443216" lon="11.202230959103598"><ele>215.59999999999997</ele><time>2026-04-04T07:53:12Z</time></trkpt><trkpt lat="44.34852953696353" lon="11.202354238693156"><ele>211.4</ele><time>2026-04-04T07:53:13Z</time></trkpt><trkpt lat="44.34846842826971" lon="11.20246740851327"><ele>207.2</ele><time>2026-04-04T07:53:14Z</time></trkpt><trkpt lat="44.34841206263128" lon="11.20254740289701"><ele>203.0</ele><time>2026-04-04T07:53:15Z</time></trkpt><trkpt lat="44.34833068135445" lon="11.202551089482156"><ele>203.0</ele><time>2026-04-04T07:53:16Z</time></trkpt><trkpt lat="44.348236944589374" lon="11.202547368031334"><ele>203.0</ele><time>2026-04-04T07:53:17Z</time></trkpt><trkpt lat="44.348131173305546" lon="11.202559180241053"><ele>203.0</ele><time>2026-04-04T07:53:18Z</time></trkpt><trkpt lat="44.34802571670325" lon="11.202631786284615"><ele>203.0</ele><time>2026-04-04T07:53:19Z</time></trkpt><trkpt lat="44.347934149440974" lon="11.202700009085387"><ele>203.0</ele><time>2026-04-04T07:53:20Z</time></trkpt><trkpt lat="44.3478534060399" lon="11.20277039288278"><ele>198.66666666666669</ele><time>2026-04-04T07:53:21Z</time></trkpt><trkpt lat="44.347793226408264" lon="11.20282065504172"><ele>194.33333333333334</ele><time>2026-04-04T07:53:22Z</time></trkpt><trkpt lat="44.34771030936649" lon="11.202880647026227"><ele>190.0</ele><time>2026-04-04T07:53:24Z</time></trkpt><trkpt lat="44.34773381110395" lon="11.203027651638862"><ele>185.66666666666669</ele><time>2026-04-04T07:53:26Z</time></trkpt><trkpt lat="44.34781241292158" lon="11.203053900337666"><ele>181.33333333333334</ele><time>2026-04-04T07:53:27Z</time></trkpt><trkpt lat="44.34788736736615" lon="11.203067138454498"><ele>177.0</ele><time>2026-04-04T07:53:28Z</time></trkpt><trkpt lat="44.347952237226814" lon="11.203071160378492"><ele>179.39999999999998</ele><time>2026-04-04T07:53:29Z</time></trkpt><trkpt lat="44.347979031460326" lon="11.203194982373738"><ele>181.79999999999998</ele><time>2026-04-04T07:53:31Z</time></trkpt><trkpt lat="44.347871123956374" lon="11.20329604627706"><ele>184.2</ele><time>2026-04-04T07:53:32.999Z</time></trkpt><trkpt lat="44.34779080844019" lon="11.203334492412575"><ele>186.6</ele><time>2026-04-04T07:53:33.999Z</time></trkpt><trkpt lat="44.34768210946453" lon="11.20336962335521"><ele>189.0</ele><time>2026-04-04T07:53:34.999Z</time></trkpt><trkpt lat="44.34757281867836" lon="11.203390995294784"><ele>189.0</ele><time>2026-04-04T07:53:35.999Z</time></trkpt><trkpt lat="44.34747352141729" lon="11.203438745858696"><ele>189.0</ele><time>2026-04-04T07:53:36.999Z</time></trkpt><trkpt lat="44.347394662023085" lon="11.203488027246866"><ele>189.0</ele><time>2026-04-04T07:53:37.999Z</time></trkpt><trkpt lat="44.34729562138119" lon="11.203500872186225"><ele>189.0</ele><time>2026-04-04T07:53:39.999Z</time></trkpt><trkpt lat="44.34727009877043" lon="11.203399537774024"><ele>189.0</ele><time>2026-04-04T07:53:41.999Z</time></trkpt><trkpt lat="44.34728326550527" lon="11.203312480334416"><ele>189.0</ele><time>2026-04-04T07:53:42.999Z</time></trkpt><trkpt lat="44.347326796431126" lon="11.2032285820562"><ele>186.6</ele><time>2026-04-04T07:53:43.999Z</time></trkpt><trkpt lat="44.34739943052378" lon="11.203146547527073"><ele>184.2</ele><time>2026-04-04T07:53:44.999Z</time></trkpt><trkpt lat="44.34745351368443" lon="11.203084232805875"><ele>181.79999999999998</ele><time>2026-04-04T07:53:45.999Z</time></trkpt><trkpt lat="44.34743138280502" lon="11.20294656107608"><ele>179.39999999999998</ele><time>2026-04-04T07:53:47.999Z</time></trkpt><trkpt lat="44.34730979307383" lon="11.202945628889"><ele>177.0</ele><time>2026-04-04T07:53:49.999Z</time></trkpt><trkpt lat="44.34725353296669" lon="11.203033198832651"><ele>172.6</ele><time>2026-04-04T07:53:50.999Z</time></trkpt><trkpt lat="44.34718740718266" lon="11.203147434545775"><ele>168.2</ele><time>2026-04-04T07:53:51.999Z</time></trkpt><trkpt lat="44.34710726395194" lon="11.20324530233632"><ele>163.8</ele><time>2026-04-04T07:53:52.999Z</time></trkpt><trkpt lat="44.34704235617641" lon="11.203336600727509"><ele>159.4</ele><time>2026-04-04T07:53:53.999Z</time></trkpt><trkpt lat="44.346995728467995" lon="11.203413685084488"><ele>155.0</ele><time>2026-04-04T07:53:54.999Z</time></trkpt><trkpt lat="44.34697143052787" lon="11.203514370603102"><ele>155.0</ele><time>2026-04-04T07:53:55.999Z</time></trkpt><trkpt lat="44.34697307118537" lon="11.203631134003674"><ele>155.0</ele><time>2026-04-04T07:53:56.999Z</time></trkpt><trkpt lat="44.34699451456821" lon="11.203744785313997"><ele>155.0</ele><time>2026-04-04T07:53:57.999Z</time></trkpt><trkpt lat="44.347039380183745" lon="11.203849911383944"><ele>155.0</ele><time>2026-04-04T07:53:58.999Z</time></trkpt><trkpt lat="44.347106010786966" lon="11.203931742061949"><ele>155.0</ele><time>2026-04-04T07:53:59.999Z</time></trkpt><trkpt lat="44.34718621854092" lon="11.20399542750949"><ele>155.0</ele><time>2026-04-04T07:54:00.999Z</time></trkpt><trkpt lat="44.34729342333698" lon="11.20404269537372"><ele>157.75</ele><time>2026-04-04T07:54:01.999Z</time></trkpt><trkpt lat="44.347420258387196" lon="11.204068791067613"><ele>160.5</ele><time>2026-04-04T07:54:02.999Z</time></trkpt><trkpt lat="44.34757099952251" lon="11.204094144552931"><ele>163.25</ele><time>2026-04-04T07:54:03.999Z</time></trkpt><trkpt lat="44.34772560492064" lon="11.204122769570237"><ele>166.0</ele><time>2026-04-04T07:54:04.999Z</time></trkpt><trkpt lat="44.34787349784103" lon="11.20415527444445"><ele>166.0</ele><time>2026-04-04T07:54:05.999Z</time></trkpt><trkpt lat="44.34802481839433" lon="11.204192031744432"><ele>166.0</ele><time>2026-04-04T07:54:06.999Z</time></trkpt><trkpt lat="44.34817465588285" lon="11.204228344828104"><ele>166.0</ele><time>2026-04-04T07:54:07.999Z</time></trkpt><trkpt lat="44.348321848034615" lon="11.204262640388034"><ele>164.75</ele><time>2026-04-04T07:54:09Z</time></trkpt><trkpt lat="44.34845286180928" lon="11.204287025882257"><ele>163.5</ele><time>2026-04-04T07:54:10Z</time></trkpt><trkpt lat="44.3485806984907" lon="11.20429937519409"><ele>162.25</ele><time>2026-04-04T07:54:11Z</time></trkpt><trkpt lat="44.34868927947171" lon="11.204293051930424"><ele>161.0</ele><time>2026-04-04T07:54:12Z</time></trkpt><trkpt lat="44.34878556175278" lon="11.204284111073727"><ele>161.0</ele><time>2026-04-04T07:54:13Z</time></trkpt><trkpt lat="44.34887591017928" lon="11.204307482772371"><ele>161.0</ele><time>2026-04-04T07:54:14Z</time></trkpt><trkpt lat="44.34895098984566" lon="11.204386667653742"><ele>161.0</ele><time>2026-04-04T07:54:15Z</time></trkpt><trkpt lat="44.34900091470921" lon="11.204505530133185"><ele>161.0</ele><time>2026-04-04T07:54:16Z</time></trkpt><trkpt lat="44.34904339754069" lon="11.204646818748834"><ele>161.0</ele><time>2026-04-04T07:54:17Z</time></trkpt><trkpt lat="44.349089108526165" lon="11.204775298423305"><ele>159.0</ele><time>2026-04-04T07:54:18Z</time></trkpt><trkpt lat="44.349143343385016" lon="11.204897552057373"><ele>157.0</ele><time>2026-04-04T07:54:19Z</time></trkpt><trkpt lat="44.34918998714388" lon="11.204995790629734"><ele>155.0</ele><time>2026-04-04T07:54:20Z</time></trkpt><trkpt lat="44.34921853741796" lon="11.205077556544582"><ele>153.0</ele><time>2026-04-04T07:54:21Z</time></trkpt><trkpt lat="44.3491656490037" lon="11.205229783901189"><ele>151.0</ele><time>2026-04-04T07:54:23Z</time></trkpt><trkpt lat="44.34903337363954" lon="11.205205601288132"><ele>151.0</ele><time>2026-04-04T07:54:25Z</time></trkpt><trkpt lat="44.34897728542176" lon="11.205129790448701"><ele>151.0</ele><time>2026-04-04T07:54:26Z</time></trkpt><trkpt lat="44.34893305369087" lon="11.205023616686557"><ele>151.0</ele><time>2026-04-04T07:54:27Z</time></trkpt><trkpt lat="44.34887724802905" lon="11.20490646810162"><ele>151.0</ele><time>2026-04-04T07:54:28Z</time></trkpt><trkpt lat="44.348822061589956" lon="11.204823370653626"><ele>151.0</ele><time>2026-04-04T07:54:29Z</time></trkpt><trkpt lat="44.34875512656031" lon="11.204795080888086"><ele>151.0</ele><time>2026-04-04T07:54:30Z</time></trkpt><trkpt lat="44.34868376958458" lon="11.20481703490639"><ele>149.6</ele><time>2026-04-04T07:54:31Z</time></trkpt><trkpt lat="44.34862146050356" lon="11.204898892939639"><ele>148.2</ele><time>2026-04-04T07:54:32Z</time></trkpt><trkpt lat="44.34858799742666" lon="11.20498899666758"><ele>146.8</ele><time>2026-04-04T07:54:33Z</time></trkpt><trkpt lat="44.34855718552174" lon="11.205075403489884"><ele>145.4</ele><time>2026-04-04T07:54:34Z</time></trkpt><trkpt lat="44.3485411754985" lon="11.205192262449298"><ele>144.0</ele><time>2026-04-04T07:54:36Z</time></trkpt><trkpt lat="44.348354199066854" lon="11.205201056953992"><ele>144.0</ele><time>2026-04-04T07:54:40Z</time></trkpt><trkpt lat="44.348276297993536" lon="11.20517471692954"><ele>144.0</ele><time>2026-04-04T07:54:41Z</time></trkpt><trkpt lat="44.34818668548124" lon="11.205139239034956"><ele>144.0</ele><time>2026-04-04T07:54:42Z</time></trkpt><trkpt lat="44.34808521147255" lon="11.205106723101512"><ele>144.0</ele><time>2026-04-04T07:54:43Z</time></trkpt><trkpt lat="44.347971219407434" lon="11.205073485995111"><ele>144.0</ele><time>2026-04-04T07:54:44Z</time></trkpt><trkpt lat="44.347855284253576" lon="11.20503823052689"><ele>143.5</ele><time>2026-04-04T07:54:45Z</time></trkpt><trkpt lat="44.347733582663004" lon="11.205003868386726"><ele>143.0</ele><time>2026-04-04T07:54:46Z</time></trkpt><trkpt lat="44.347607584373655" lon="11.204977812419695"><ele>142.5</ele><time>2026-04-04T07:54:47Z</time></trkpt><trkpt lat="44.3474833689342" lon="11.20496758045217"><ele>142.0</ele><time>2026-04-04T07:54:48Z</time></trkpt><trkpt lat="44.34735793006355" lon="11.204971840059272"><ele>142.0</ele><time>2026-04-04T07:54:49Z</time></trkpt><trkpt lat="44.34722916467946" lon="11.204998433601036"><ele>142.0</ele><time>2026-04-04T07:54:50Z</time></trkpt><trkpt lat="44.34710128717188" lon="11.20503282414914"><ele>142.0</ele><time>2026-04-04T07:54:51Z</time></trkpt><trkpt lat="44.34697283005784" lon="11.205061935131612"><ele>142.0</ele><time>2026-04-04T07:54:52Z</time></trkpt><trkpt lat="44.34684707075333" lon="11.205078949077121"><ele>141.0</ele><time>2026-04-04T07:54:53Z</time></trkpt><trkpt lat="44.34671988714599" lon="11.20507288327267"><ele>140.0</ele><time>2026-04-04T07:54:54Z</time></trkpt><trkpt lat="44.34659277311513" lon="11.20503734076062"><ele>139.0</ele><time>2026-04-04T07:54:55Z</time></trkpt><trkpt lat="44.346476355577316" lon="11.20498120315886"><ele>138.0</ele><time>2026-04-04T07:54:56Z</time></trkpt><trkpt lat="44.34636571595242" lon="11.204914049307416"><ele>137.5</ele><time>2026-04-04T07:54:57Z</time></trkpt><trkpt lat="44.34625794251095" lon="11.204844657440576"><ele>137.0</ele><time>2026-04-04T07:54:58Z</time></trkpt><trkpt lat="44.34614851975637" lon="11.204782028956926"><ele>136.5</ele><time>2026-04-04T07:54:59Z</time></trkpt><trkpt lat="44.34604411826574" lon="11.204729482567465"><ele>136.0</ele><time>2026-04-04T07:55:00Z</time></trkpt><trkpt lat="44.345936475775254" lon="11.204683139647361"><ele>137.0</ele><time>2026-04-04T07:55:01Z</time></trkpt><trkpt lat="44.34582637035657" lon="11.204647817483092"><ele>138.0</ele><time>2026-04-04T07:55:02Z</time></trkpt><trkpt lat="44.34571925079313" lon="11.20464135667183"><ele>139.0</ele><time>2026-04-04T07:55:03Z</time></trkpt><trkpt lat="44.34561430535666" lon="11.204676024782946"><ele>140.0</ele><time>2026-04-04T07:55:04Z</time></trkpt><trkpt lat="44.34551602275222" lon="11.204724229677948"><ele>141.0</ele><time>2026-04-04T07:55:05Z</time></trkpt><trkpt lat="44.345432428288824" lon="11.20480046953954"><ele>143.4</ele><time>2026-04-04T07:55:06Z</time></trkpt><trkpt lat="44.34536097479085" lon="11.204908393056037"><ele>145.8</ele><time>2026-04-04T07:55:07Z</time></trkpt><trkpt lat="44.345299510383256" lon="11.205024856143408"><ele>148.20000000000002</ele><time>2026-04-04T07:55:08Z</time></trkpt><trkpt lat="44.345242722136334" lon="11.205140465066274"><ele>150.6</ele><time>2026-04-04T07:55:09Z</time></trkpt><trkpt lat="44.34519530644725" lon="11.20526031515411"><ele>153.0</ele><time>2026-04-04T07:55:10Z</time></trkpt><trkpt lat="44.345155427086446" lon="11.20538582921641"><ele>153.0</ele><time>2026-04-04T07:55:11Z</time></trkpt><trkpt lat="44.34511616793807" lon="11.205516214572988"><ele>153.0</ele><time>2026-04-04T07:55:12Z</time></trkpt><trkpt lat="44.345079701250945" lon="11.205649482337341"><ele>153.0</ele><time>2026-04-04T07:55:13Z</time></trkpt><trkpt lat="44.34503465908425" lon="11.205782019359157"><ele>153.0</ele><time>2026-04-04T07:55:14Z</time></trkpt><trkpt lat="44.344982449852544" lon="11.205915389631935"><ele>153.0</ele><time>2026-04-04T07:55:15Z</time></trkpt><trkpt lat="44.34492210983161" lon="11.206044255706397"><ele>151.0</ele><time>2026-04-04T07:55:16Z</time></trkpt><trkpt lat="44.3448454831351" lon="11.206162023610519"><ele>149.0</ele><time>2026-04-04T07:55:17Z</time></trkpt><trkpt lat="44.3447599389618" lon="11.206268295494496"><ele>147.0</ele><time>2026-04-04T07:55:18Z</time></trkpt><trkpt lat="44.34466484830646" lon="11.206348712990673"><ele>145.0</ele><time>2026-04-04T07:55:19Z</time></trkpt><trkpt lat="44.344560074076796" lon="11.206418081476915"><ele>145.5</ele><time>2026-04-04T07:55:20Z</time></trkpt><trkpt lat="44.34445161664844" lon="11.20647926245677"><ele>146.0</ele><time>2026-04-04T07:55:20.999Z</time></trkpt><trkpt lat="44.344338250865285" lon="11.206536352030593"><ele>146.5</ele><time>2026-04-04T07:55:21.999Z</time></trkpt><trkpt lat="44.34422140196588" lon="11.20658384296829"><ele>147.0</ele><time>2026-04-04T07:55:22.999Z</time></trkpt><trkpt lat="44.34409905361782" lon="11.206626731968633"><ele>147.0</ele><time>2026-04-04T07:55:23.999Z</time></trkpt><trkpt lat="44.34398069390509" lon="11.206667135420702"><ele>147.0</ele><time>2026-04-04T07:55:24.999Z</time></trkpt><trkpt lat="44.34386184002211" lon="11.206702264373709"><ele>147.0</ele><time>2026-04-04T07:55:25.999Z</time></trkpt><trkpt lat="44.34373609335324" lon="11.206737055717607"><ele>147.0</ele><time>2026-04-04T07:55:26.999Z</time></trkpt><trkpt lat="44.34362210170324" lon="11.206761424093957"><ele>144.0</ele><time>2026-04-04T07:55:27.999Z</time></trkpt><trkpt lat="44.34349918958145" lon="11.206762949698712"><ele>141.0</ele><time>2026-04-04T07:55:28.999Z</time></trkpt><trkpt lat="44.343384226068636" lon="11.206701330086364"><ele>138.0</ele><time>2026-04-04T07:55:29.999Z</time></trkpt><trkpt lat="44.34327930403278" lon="11.206625920468856"><ele>135.0</ele><time>2026-04-04T07:55:30.999Z</time></trkpt><trkpt lat="44.343178805362186" lon="11.206547283436297"><ele>133.75</ele><time>2026-04-04T07:55:31.999Z</time></trkpt><trkpt lat="44.3430926465839" lon="11.206431340506468"><ele>132.5</ele><time>2026-04-04T07:55:32.999Z</time></trkpt><trkpt lat="44.343007687630916" lon="11.206312622946598"><ele>131.25</ele><time>2026-04-04T07:55:33.999Z</time></trkpt><trkpt lat="44.342920927835856" lon="11.206193137556642"><ele>130.0</ele><time>2026-04-04T07:55:34.999Z</time></trkpt><trkpt lat="44.34283395702145" lon="11.206079833851279"><ele>130.0</ele><time>2026-04-04T07:55:35.999Z</time></trkpt><trkpt lat="44.342751994132264" lon="11.20596742962228"><ele>130.0</ele><time>2026-04-04T07:55:36.999Z</time></trkpt><trkpt lat="44.342665497622065" lon="11.205851813688655"><ele>130.0</ele><time>2026-04-04T07:55:37.999Z</time></trkpt><trkpt lat="44.34257567941981" lon="11.2057376092719"><ele>130.0</ele><time>2026-04-04T07:55:38.999Z</time></trkpt><trkpt lat="44.342495476985896" lon="11.205624113277631"><ele>130.0</ele><time>2026-04-04T07:55:39.999Z</time></trkpt><trkpt lat="44.34241116458783" lon="11.205513239066924"><ele>130.0</ele><time>2026-04-04T07:55:40.999Z</time></trkpt><trkpt lat="44.342326534006006" lon="11.205400853168259"><ele>130.0</ele><time>2026-04-04T07:55:41.999Z</time></trkpt><trkpt lat="44.34223837940037" lon="11.20528489950518"><ele>130.0</ele><time>2026-04-04T07:55:42.999Z</time></trkpt><trkpt lat="44.34216392589125" lon="11.205155728580138"><ele>130.0</ele><time>2026-04-04T07:55:43.999Z</time></trkpt><trkpt lat="44.34207806231895" lon="11.20503942227839"><ele>130.0</ele><time>2026-04-04T07:55:44.999Z</time></trkpt><trkpt lat="44.341991744294035" lon="11.204922500389953"><ele>130.0</ele><time>2026-04-04T07:55:45.999Z</time></trkpt><trkpt lat="44.34190862737692" lon="11.204809914557215"><ele>130.0</ele><time>2026-04-04T07:55:46.999Z</time></trkpt><trkpt lat="44.34182352316478" lon="11.204694636845437"><ele>131.5</ele><time>2026-04-04T07:55:47.999Z</time></trkpt><trkpt lat="44.34173899890365" lon="11.204580144224476"><ele>133.0</ele><time>2026-04-04T07:55:48.999Z</time></trkpt><trkpt lat="44.34165036506263" lon="11.20446029693628"><ele>134.5</ele><time>2026-04-04T07:55:49.999Z</time></trkpt><trkpt lat="44.3415668481331" lon="11.204346528223688"><ele>136.0</ele><time>2026-04-04T07:55:50.999Z</time></trkpt><trkpt lat="44.34148253888091" lon="11.204231124152265"><ele>136.0</ele><time>2026-04-04T07:55:51.999Z</time></trkpt><trkpt lat="44.34140882278442" lon="11.204130220186906"><ele>136.0</ele><time>2026-04-04T07:55:52.999Z</time></trkpt><trkpt lat="44.341322833413216" lon="11.204012516354778"><ele>136.0</ele><time>2026-04-04T07:55:53.999Z</time></trkpt><trkpt lat="44.34122494275261" lon="11.203909435563947"><ele>136.0</ele><time>2026-04-04T07:55:54.999Z</time></trkpt><trkpt lat="44.34114566430278" lon="11.203790228631517"><ele>135.5</ele><time>2026-04-04T07:55:55.999Z</time></trkpt><trkpt lat="44.341063003170134" lon="11.20367879072361"><ele>135.0</ele><time>2026-04-04T07:55:56.999Z</time></trkpt><trkpt lat="44.34098590407207" lon="11.203555958256448"><ele>134.5</ele><time>2026-04-04T07:55:57.999Z</time></trkpt><trkpt lat="44.34088585920747" lon="11.203450903857572"><ele>134.0</ele><time>2026-04-04T07:55:58.999Z</time></trkpt><trkpt lat="44.34080478973895" lon="11.203318654627973"><ele>134.0</ele><time>2026-04-04T07:55:59.999Z</time></trkpt><trkpt lat="44.340716253176694" lon="11.203208845434615"><ele>134.0</ele><time>2026-04-04T07:56:00.999Z</time></trkpt><trkpt lat="44.34061330167297" lon="11.203127625929584"><ele>134.0</ele><time>2026-04-04T07:56:01.999Z</time></trkpt><trkpt lat="44.34051342152749" lon="11.203021598529363"><ele>134.0</ele><time>2026-04-04T07:56:02.999Z</time></trkpt><trkpt lat="44.34039254536852" lon="11.202973752428898"><ele>138.0</ele><time>2026-04-04T07:56:03.999Z</time></trkpt><trkpt lat="44.340283909267384" lon="11.202899984310147"><ele>142.0</ele><time>2026-04-04T07:56:04.999Z</time></trkpt><trkpt lat="44.34016126560666" lon="11.202886682056873"><ele>146.0</ele><time>2026-04-04T07:56:05.999Z</time></trkpt><trkpt lat="44.34004032459982" lon="11.202864048036925"><ele>150.0</ele><time>2026-04-04T07:56:06.999Z</time></trkpt><trkpt lat="44.339919264597775" lon="11.202859022997602"><ele>150.0</ele><time>2026-04-04T07:56:07.999Z</time></trkpt><trkpt lat="44.33979767658342" lon="11.202858739427707"><ele>150.0</ele><time>2026-04-04T07:56:08.999Z</time></trkpt><trkpt lat="44.33967588735183" lon="11.202857551267922"><ele>150.0</ele><time>2026-04-04T07:56:09.999Z</time></trkpt><trkpt lat="44.339556372092304" lon="11.202838493506286"><ele>150.0</ele><time>2026-04-04T07:56:10.999Z</time></trkpt><trkpt lat="44.339438129569935" lon="11.202868596933621"><ele>152.0</ele><time>2026-04-04T07:56:11.999Z</time></trkpt><trkpt lat="44.339319124191704" lon="11.202871195528516"><ele>154.0</ele><time>2026-04-04T07:56:12.999Z</time></trkpt><trkpt lat="44.339195926981766" lon="11.202892307142344"><ele>156.0</ele><time>2026-04-04T07:56:13.999Z</time></trkpt><trkpt lat="44.33907688159151" lon="11.202909661861115"><ele>158.0</ele><time>2026-04-04T07:56:15Z</time></trkpt><trkpt lat="44.33895663654834" lon="11.202940308621361"><ele>158.5</ele><time>2026-04-04T07:56:16Z</time></trkpt><trkpt lat="44.338837414496375" lon="11.202970297322645"><ele>159.0</ele><time>2026-04-04T07:56:17Z</time></trkpt><trkpt lat="44.33872228011856" lon="11.202999090793758"><ele>159.5</ele><time>2026-04-04T07:56:18Z</time></trkpt><trkpt lat="44.338607468991846" lon="11.203042342543654"><ele>160.0</ele><time>2026-04-04T07:56:19Z</time></trkpt><trkpt lat="44.33849213502524" lon="11.203095759693047"><ele>160.0</ele><time>2026-04-04T07:56:20Z</time></trkpt><trkpt lat="44.33837838239762" lon="11.20314502719774"><ele>160.0</ele><time>2026-04-04T07:56:21Z</time></trkpt><trkpt lat="44.33826633267116" lon="11.203192913058524"><ele>160.0</ele><time>2026-04-04T07:56:22Z</time></trkpt><trkpt lat="44.338150927343406" lon="11.203248886713435"><ele>160.0</ele><time>2026-04-04T07:56:23Z</time></trkpt><trkpt lat="44.338030577835276" lon="11.203298213859016"><ele>158.5</ele><time>2026-04-04T07:56:24Z</time></trkpt><trkpt lat="44.337905204513525" lon="11.203339074410637"><ele>157.0</ele><time>2026-04-04T07:56:25Z</time></trkpt><trkpt lat="44.33777829712883" lon="11.20336059126637"><ele>155.5</ele><time>2026-04-04T07:56:26Z</time></trkpt><trkpt lat="44.337651181962954" lon="11.203368914146019"><ele>154.0</ele><time>2026-04-04T07:56:27Z</time></trkpt><trkpt lat="44.33752670618158" lon="11.203343963847006"><ele>154.0</ele><time>2026-04-04T07:56:28Z</time></trkpt><trkpt lat="44.33740876312392" lon="11.203293075666485"><ele>154.0</ele><time>2026-04-04T07:56:29Z</time></trkpt><trkpt lat="44.337307465327264" lon="11.203222459535024"><ele>154.0</ele><time>2026-04-04T07:56:30Z</time></trkpt><trkpt lat="44.33720186246669" lon="11.20313584517946"><ele>154.0</ele><time>2026-04-04T07:56:31Z</time></trkpt><trkpt lat="44.33711568097434" lon="11.203027110938775"><ele>154.8</ele><time>2026-04-04T07:56:32Z</time></trkpt><trkpt lat="44.337056881638254" lon="11.202920594452818"><ele>155.60000000000002</ele><time>2026-04-04T07:56:33Z</time></trkpt><trkpt lat="44.3370310253844" lon="11.202777035760958"><ele>156.4</ele><time>2026-04-04T07:56:34Z</time></trkpt><trkpt lat="44.337007762444074" lon="11.20262110788513"><ele>157.20000000000002</ele><time>2026-04-04T07:56:35Z</time></trkpt><trkpt lat="44.33699116946305" lon="11.202452672192901"><ele>158.0</ele><time>2026-04-04T07:56:36Z</time></trkpt><trkpt lat="44.33697160186757" lon="11.202291891613276"><ele>159.25</ele><time>2026-04-04T07:56:37Z</time></trkpt><trkpt lat="44.336921055367334" lon="11.20215985368756"><ele>160.5</ele><time>2026-04-04T07:56:38Z</time></trkpt><trkpt lat="44.33684511669244" lon="11.202042103208411"><ele>161.75</ele><time>2026-04-04T07:56:39Z</time></trkpt><trkpt lat="44.33675286449003" lon="11.201918451640182"><ele>163.0</ele><time>2026-04-04T07:56:40Z</time></trkpt><trkpt lat="44.336640351100414" lon="11.201808721398994"><ele>163.0</ele><time>2026-04-04T07:56:41Z</time></trkpt><trkpt lat="44.336516102296585" lon="11.201697995402357"><ele>163.0</ele><time>2026-04-04T07:56:42Z</time></trkpt><trkpt lat="44.336392662804684" lon="11.201586311548983"><ele>163.0</ele><time>2026-04-04T07:56:43Z</time></trkpt><trkpt lat="44.33627052723536" lon="11.201478092410857"><ele>163.0</ele><time>2026-04-04T07:56:44Z</time></trkpt><trkpt lat="44.33614595933767" lon="11.201372956605214"><ele>164.0</ele><time>2026-04-04T07:56:45Z</time></trkpt><trkpt lat="44.336018997901434" lon="11.201260031517167"><ele>165.0</ele><time>2026-04-04T07:56:46Z</time></trkpt><trkpt lat="44.33589885184052" lon="11.201143703796687"><ele>166.0</ele><time>2026-04-04T07:56:47Z</time></trkpt><trkpt lat="44.3357843778251" lon="11.201041910649812"><ele>167.0</ele><time>2026-04-04T07:56:48Z</time></trkpt><trkpt lat="44.335674278063664" lon="11.200941050033972"><ele>167.0</ele><time>2026-04-04T07:56:49Z</time></trkpt><trkpt lat="44.335561692965534" lon="11.200837203697777"><ele>167.0</ele><time>2026-04-04T07:56:50Z</time></trkpt><trkpt lat="44.3354566359576" lon="11.200733348599353"><ele>167.0</ele><time>2026-04-04T07:56:51Z</time></trkpt><trkpt lat="44.33537361143138" lon="11.200623585165173"><ele>167.0</ele><time>2026-04-04T07:56:52Z</time></trkpt><trkpt lat="44.33530773903982" lon="11.200495259176758"><ele>164.2</ele><time>2026-04-04T07:56:53Z</time></trkpt><trkpt lat="44.335254941867504" lon="11.20035441186022"><ele>161.39999999999998</ele><time>2026-04-04T07:56:54Z</time></trkpt><trkpt lat="44.3352193147738" lon="11.20021680307863"><ele>158.60000000000002</ele><time>2026-04-04T07:56:55Z</time></trkpt><trkpt lat="44.33520400168244" lon="11.200070648549772"><ele>155.8</ele><time>2026-04-04T07:56:56Z</time></trkpt><trkpt lat="44.33520510798431" lon="11.199912804591774"><ele>153.0</ele><time>2026-04-04T07:56:57Z</time></trkpt><trkpt lat="44.3352172379685" lon="11.199743612476329"><ele>151.75</ele><time>2026-04-04T07:56:58Z</time></trkpt><trkpt lat="44.33523817044526" lon="11.199556896176079"><ele>150.5</ele><time>2026-04-04T07:56:59Z</time></trkpt><trkpt lat="44.33527096161059" lon="11.199365694771496"><ele>149.25</ele><time>2026-04-04T07:57:00Z</time></trkpt><trkpt lat="44.3353047825027" lon="11.199174466326044"><ele>148.0</ele><time>2026-04-04T07:57:01Z</time></trkpt><trkpt lat="44.335339731479536" lon="11.198972127818147"><ele>146.25</ele><time>2026-04-04T07:57:02Z</time></trkpt><trkpt lat="44.33537352172968" lon="11.198783859814089"><ele>144.5</ele><time>2026-04-04T07:57:03Z</time></trkpt><trkpt lat="44.335405590865086" lon="11.198599221727298"><ele>142.75</ele><time>2026-04-04T07:57:04Z</time></trkpt><trkpt lat="44.335436416935515" lon="11.198428938315635"><ele>141.0</ele><time>2026-04-04T07:57:05Z</time></trkpt><trkpt lat="44.33546414668472" lon="11.19825682029449"><ele>141.0</ele><time>2026-04-04T07:57:06Z</time></trkpt><trkpt lat="44.33547733398382" lon="11.198087025991668"><ele>141.0</ele><time>2026-04-04T07:57:07Z</time></trkpt><trkpt lat="44.33547609466272" lon="11.197913780237938"><ele>141.0</ele><time>2026-04-04T07:57:08Z</time></trkpt><trkpt lat="44.335447855445054" lon="11.19774783462343"><ele>141.0</ele><time>2026-04-04T07:57:09Z</time></trkpt><trkpt lat="44.33540409977539" lon="11.197584595459345"><ele>141.0</ele><time>2026-04-04T07:57:10Z</time></trkpt><trkpt lat="44.3353615471868" lon="11.19741584679019"><ele>141.0</ele><time>2026-04-04T07:57:11Z</time></trkpt><trkpt lat="44.335319400869906" lon="11.197252796899015"><ele>141.0</ele><time>2026-04-04T07:57:12Z</time></trkpt><trkpt lat="44.33527724087877" lon="11.197093464422249"><ele>141.0</ele><time>2026-04-04T07:57:13Z</time></trkpt><trkpt lat="44.33524063672146" lon="11.196939667597078"><ele>141.8</ele><time>2026-04-04T07:57:14Z</time></trkpt><trkpt lat="44.33520778512855" lon="11.196790303888607"><ele>142.6</ele><time>2026-04-04T07:57:15Z</time></trkpt><trkpt lat="44.335172486757344" lon="11.196647827681401"><ele>143.4</ele><time>2026-04-04T07:57:16Z</time></trkpt><trkpt lat="44.33513703754788" lon="11.196508925302116"><ele>144.2</ele><time>2026-04-04T07:57:17Z</time></trkpt><trkpt lat="44.33510409450217" lon="11.196377344071996"><ele>145.0</ele><time>2026-04-04T07:57:18Z</time></trkpt><trkpt lat="44.335071307278874" lon="11.196245837815503"><ele>146.0</ele><time>2026-04-04T07:57:19Z</time></trkpt><trkpt lat="44.33503947493348" lon="11.196102001868084"><ele>147.0</ele><time>2026-04-04T07:57:20Z</time></trkpt><trkpt lat="44.33499864283741" lon="11.19594495809606"><ele>148.0</ele><time>2026-04-04T07:57:21Z</time></trkpt><trkpt lat="44.33495821956302" lon="11.195771373128899"><ele>149.0</ele><time>2026-04-04T07:57:22Z</time></trkpt><trkpt lat="44.33491695077601" lon="11.195609040858004"><ele>150.25</ele><time>2026-04-04T07:57:23Z</time></trkpt><trkpt lat="44.334879900841045" lon="11.19545641664231"><ele>151.5</ele><time>2026-04-04T07:57:24Z</time></trkpt><trkpt lat="44.334841127655075" lon="11.195298709135017"><ele>152.75</ele><time>2026-04-04T07:57:25Z</time></trkpt><trkpt lat="44.33480384887337" lon="11.195142420893026"><ele>154.0</ele><time>2026-04-04T07:57:26Z</time></trkpt><trkpt lat="44.334765482122016" lon="11.194986571039546"><ele>154.0</ele><time>2026-04-04T07:57:27Z</time></trkpt><trkpt lat="44.33473119960997" lon="11.194840733129286"><ele>154.0</ele><time>2026-04-04T07:57:28Z</time></trkpt><trkpt lat="44.3346988393938" lon="11.19471266300893"><ele>154.0</ele><time>2026-04-04T07:57:29Z</time></trkpt><trkpt lat="44.334671635034475" lon="11.194592473618984"><ele>154.0</ele><time>2026-04-04T07:57:30Z</time></trkpt><trkpt lat="44.33464396719868" lon="11.194471877692205"><ele>154.0</ele><time>2026-04-04T07:57:30.999Z</time></trkpt><trkpt lat="44.33461239609756" lon="11.194350300143546"><ele>151.2</ele><time>2026-04-04T07:57:31.999Z</time></trkpt><trkpt lat="44.33458231953207" lon="11.19423064788633"><ele>148.4</ele><time>2026-04-04T07:57:32.999Z</time></trkpt><trkpt lat="44.33455395057574" lon="11.194112436125188"><ele>145.6</ele><time>2026-04-04T07:57:33.999Z</time></trkpt><trkpt lat="44.334523323619685" lon="11.193991956847384"><ele>142.8</ele><time>2026-04-04T07:57:34.999Z</time></trkpt><trkpt lat="44.334493511167615" lon="11.193873769587269"><ele>140.0</ele><time>2026-04-04T07:57:35.999Z</time></trkpt><trkpt lat="44.33446556349488" lon="11.193749726911575"><ele>140.0</ele><time>2026-04-04T07:57:36.999Z</time></trkpt><trkpt lat="44.33443726062522" lon="11.193629484253675"><ele>140.0</ele><time>2026-04-04T07:57:37.999Z</time></trkpt><trkpt lat="44.33440783247169" lon="11.193511223654077"><ele>140.0</ele><time>2026-04-04T07:57:38.999Z</time></trkpt><trkpt lat="44.334380173753104" lon="11.193393088700068"><ele>140.0</ele><time>2026-04-04T07:57:39.999Z</time></trkpt><trkpt lat="44.33435562828944" lon="11.193280387100915"><ele>140.0</ele><time>2026-04-04T07:57:40.999Z</time></trkpt><trkpt lat="44.334329696057615" lon="11.193177068007065"><ele>140.0</ele><time>2026-04-04T07:57:41.999Z</time></trkpt><trkpt lat="44.33430838873214" lon="11.193081574275697"><ele>140.28571428571428</ele><time>2026-04-04T07:57:42.999Z</time></trkpt><trkpt lat="44.33428625706491" lon="11.192987146570951"><ele>140.57142857142856</ele><time>2026-04-04T07:57:43.999Z</time></trkpt><trkpt lat="44.334260855281016" lon="11.192891963485403"><ele>140.85714285714286</ele><time>2026-04-04T07:57:44.999Z</time></trkpt><trkpt lat="44.33423553679686" lon="11.192792875514765"><ele>141.14285714285714</ele><time>2026-04-04T07:57:45.999Z</time></trkpt><trkpt lat="44.33421197433139" lon="11.192694551644424"><ele>141.42857142857142</ele><time>2026-04-04T07:57:46.999Z</time></trkpt><trkpt lat="44.33418729915309" lon="11.192595873181686"><ele>141.71428571428572</ele><time>2026-04-04T07:57:47.999Z</time></trkpt><trkpt lat="44.33416035455884" lon="11.192493593993396"><ele>142.0</ele><time>2026-04-04T07:57:48.999Z</time></trkpt><trkpt lat="44.33413346448312" lon="11.192394512341433"><ele>142.0</ele><time>2026-04-04T07:57:49.999Z</time></trkpt><trkpt lat="44.334103433456065" lon="11.192290649164576"><ele>142.0</ele><time>2026-04-04T07:57:50.999Z</time></trkpt><trkpt lat="44.33407632461368" lon="11.192186888978759"><ele>142.0</ele><time>2026-04-04T07:57:51.999Z</time></trkpt><trkpt lat="44.334045264057934" lon="11.192083814701636"><ele>142.0</ele><time>2026-04-04T07:57:52.999Z</time></trkpt><trkpt lat="44.33400708225228" lon="11.191979845814942"><ele>142.0</ele><time>2026-04-04T07:57:53.999Z</time></trkpt><trkpt lat="44.333970699333044" lon="11.1918729226339"><ele>142.0</ele><time>2026-04-04T07:57:54.999Z</time></trkpt><trkpt lat="44.33393902448589" lon="11.191766252748975"><ele>142.0</ele><time>2026-04-04T07:57:55.999Z</time></trkpt><trkpt lat="44.333906870464816" lon="11.191668068190703"><ele>142.0</ele><time>2026-04-04T07:57:56.999Z</time></trkpt><trkpt lat="44.33387174028338" lon="11.191562327260812"><ele>142.0</ele><time>2026-04-04T07:57:57.999Z</time></trkpt><trkpt lat="44.33383656144621" lon="11.191450071839052"><ele>142.0</ele><time>2026-04-04T07:57:58.999Z</time></trkpt><trkpt lat="44.33379922048778" lon="11.191335458918028"><ele>142.0</ele><time>2026-04-04T07:57:59.999Z</time></trkpt><trkpt lat="44.333760665982275" lon="11.191221723185853"><ele>142.0</ele><time>2026-04-04T07:58:00.999Z</time></trkpt><trkpt lat="44.33372392459099" lon="11.19110814778321"><ele>141.83333333333334</ele><time>2026-04-04T07:58:01.999Z</time></trkpt><trkpt lat="44.33368505870441" lon="11.190996181214206"><ele>141.66666666666669</ele><time>2026-04-04T07:58:02.999Z</time></trkpt><trkpt lat="44.333649145733744" lon="11.190882484995146"><ele>141.5</ele><time>2026-04-04T07:58:03.999Z</time></trkpt><trkpt lat="44.33361406033698" lon="11.190767991279658"><ele>141.33333333333334</ele><time>2026-04-04T07:58:04.999Z</time></trkpt><trkpt lat="44.33358033517585" lon="11.190656760875257"><ele>141.16666666666666</ele><time>2026-04-04T07:58:05.999Z</time></trkpt><trkpt lat="44.33354516731975" lon="11.190546883225313"><ele>141.0</ele><time>2026-04-04T07:58:06.999Z</time></trkpt><trkpt lat="44.333507427291785" lon="11.19043673259419"><ele>141.33333333333334</ele><time>2026-04-04T07:58:07.999Z</time></trkpt><trkpt lat="44.33347140168456" lon="11.190325175308258"><ele>141.66666666666666</ele><time>2026-04-04T07:58:08.999Z</time></trkpt><trkpt lat="44.3334348940017" lon="11.190212465638115"><ele>142.0</ele><time>2026-04-04T07:58:09.999Z</time></trkpt><trkpt lat="44.333398455574276" lon="11.19010040655813"><ele>142.33333333333331</ele><time>2026-04-04T07:58:10.999Z</time></trkpt><trkpt lat="44.33336181171364" lon="11.189988642619289"><ele>142.66666666666666</ele><time>2026-04-04T07:58:11.999Z</time></trkpt><trkpt lat="44.33332448691863" lon="11.189878344789301"><ele>143.0</ele><time>2026-04-04T07:58:12.999Z</time></trkpt><trkpt lat="44.333286624333965" lon="11.189760085014811"><ele>143.33333333333331</ele><time>2026-04-04T07:58:13.999Z</time></trkpt><trkpt lat="44.33325119293149" lon="11.189650076320454"><ele>143.66666666666666</ele><time>2026-04-04T07:58:14.999Z</time></trkpt><trkpt lat="44.33321383176572" lon="11.18953746817324"><ele>144.0</ele><time>2026-04-04T07:58:15.999Z</time></trkpt><trkpt lat="44.33317565757001" lon="11.189426979741611"><ele>144.33333333333334</ele><time>2026-04-04T07:58:16.999Z</time></trkpt><trkpt lat="44.333137460629274" lon="11.189312489895206"><ele>144.66666666666669</ele><time>2026-04-04T07:58:17.999Z</time></trkpt><trkpt lat="44.33310150203353" lon="11.189200687668992"><ele>145.0</ele><time>2026-04-04T07:58:18.999Z</time></trkpt><trkpt lat="44.333064806845734" lon="11.189083117010755"><ele>145.2</ele><time>2026-04-04T07:58:19.999Z</time></trkpt><trkpt lat="44.333030209531294" lon="11.188970875622443"><ele>145.4</ele><time>2026-04-04T07:58:21Z</time></trkpt><trkpt lat="44.33299336984836" lon="11.188854184738714"><ele>145.6</ele><time>2026-04-04T07:58:22Z</time></trkpt><trkpt lat="44.33295374337876" lon="11.188732820821746"><ele>145.8</ele><time>2026-04-04T07:58:23Z</time></trkpt><trkpt lat="44.33291718699479" lon="11.188619067993987"><ele>146.0</ele><time>2026-04-04T07:58:24Z</time></trkpt><trkpt lat="44.332881461451485" lon="11.188508362064287"><ele>146.0</ele><time>2026-04-04T07:58:25Z</time></trkpt><trkpt lat="44.332847871029806" lon="11.188399570375246"><ele>146.0</ele><time>2026-04-04T07:58:26Z</time></trkpt><trkpt lat="44.332810784700044" lon="11.188291585264535"><ele>146.0</ele><time>2026-04-04T07:58:27Z</time></trkpt><trkpt lat="44.332772043913295" lon="11.188181716203152"><ele>146.0</ele><time>2026-04-04T07:58:28Z</time></trkpt><trkpt lat="44.332735850399445" lon="11.188073057447587"><ele>146.0</ele><time>2026-04-04T07:58:29Z</time></trkpt><trkpt lat="44.33270052599895" lon="11.187971326591635"><ele>146.0</ele><time>2026-04-04T07:58:30Z</time></trkpt><trkpt lat="44.332657996286265" lon="11.18787124086446"><ele>146.0</ele><time>2026-04-04T07:58:32Z</time></trkpt><trkpt lat="44.33254186168378" lon="11.187936843212478"><ele>146.0</ele><time>2026-04-04T07:58:35Z</time></trkpt><trkpt lat="44.332507792526066" lon="11.188042221944313"><ele>146.0</ele><time>2026-04-04T07:58:37Z</time></trkpt><trkpt lat="44.33247483003101" lon="11.188131132549298"><ele>146.0</ele><time>2026-04-04T07:58:39Z</time></trkpt><trkpt lat="44.33244371466386" lon="11.188216610941504"><ele>146.0</ele><time>2026-04-04T07:58:41Z</time></trkpt><trkpt lat="44.33241164074303" lon="11.188298383464268"><ele>146.0</ele><time>2026-04-04T07:58:43Z</time></trkpt><trkpt lat="44.332376376098146" lon="11.188394077965945"><ele>146.0</ele><time>2026-04-04T07:58:46Z</time></trkpt><trkpt lat="44.3323292930881" lon="11.188495897431425"><ele>146.0</ele><time>2026-04-04T07:59:25Z</time></trkpt><trkpt lat="44.33227878315307" lon="11.188643616678961"><ele>146.0</ele><time>2026-04-04T07:59:27Z</time></trkpt><trkpt lat="44.33222758589229" lon="11.188795207165924"><ele>146.0</ele><time>2026-04-04T07:59:29Z</time></trkpt><trkpt lat="44.3321968348431" lon="11.188873824862927"><ele>146.0</ele><time>2026-04-04T07:59:30Z</time></trkpt><trkpt lat="44.332165830670256" lon="11.188951585436437"><ele>145.4</ele><time>2026-04-04T07:59:31Z</time></trkpt><trkpt lat="44.33213596255692" lon="11.189032385218649"><ele>144.8</ele><time>2026-04-04T07:59:32Z</time></trkpt><trkpt lat="44.332063084283156" lon="11.189150330665882"><ele>144.20000000000002</ele><time>2026-04-04T07:59:34Z</time></trkpt><trkpt lat="44.33199156693955" lon="11.189204621398886"><ele>143.6</ele><time>2026-04-04T07:59:36Z</time></trkpt><trkpt lat="44.33192848202119" lon="11.189115948338813"><ele>143.0</ele><time>2026-04-04T07:59:37Z</time></trkpt><trkpt lat="44.33183564572534" lon="11.189045081431072"><ele>143.8</ele><time>2026-04-04T07:59:39Z</time></trkpt><trkpt lat="44.331738590422994" lon="11.188929002341801"><ele>144.60000000000002</ele><time>2026-04-04T07:59:41Z</time></trkpt><trkpt lat="44.33167500232114" lon="11.188870428444003"><ele>145.39999999999998</ele><time>2026-04-04T07:59:42Z</time></trkpt><trkpt lat="44.33160308133823" lon="11.188803994596583"><ele>146.2</ele><time>2026-04-04T07:59:43Z</time></trkpt><trkpt lat="44.331525357408225" lon="11.18873163502115"><ele>147.0</ele><time>2026-04-04T07:59:44Z</time></trkpt><trkpt lat="44.33144962993646" lon="11.188661066083547"><ele>146.4</ele><time>2026-04-04T07:59:45Z</time></trkpt><trkpt lat="44.33137870121608" lon="11.18859182131542"><ele>145.79999999999998</ele><time>2026-04-04T07:59:46Z</time></trkpt><trkpt lat="44.33130289012105" lon="11.188521448926636"><ele>145.2</ele><time>2026-04-04T07:59:46.999Z</time></trkpt><trkpt lat="44.331225053038565" lon="11.18845466294865"><ele>144.6</ele><time>2026-04-04T07:59:47.999Z</time></trkpt><trkpt lat="44.33114498898527" lon="11.188387139534393"><ele>144.0</ele><time>2026-04-04T07:59:48.999Z</time></trkpt><trkpt lat="44.33105210151191" lon="11.188337795325246"><ele>144.0</ele><time>2026-04-04T07:59:49.999Z</time></trkpt><trkpt lat="44.33097135275237" lon="11.18826474010438"><ele>144.0</ele><time>2026-04-04T07:59:50.999Z</time></trkpt><trkpt lat="44.33088616945016" lon="11.18818353294101"><ele>144.0</ele><time>2026-04-04T07:59:51.999Z</time></trkpt><trkpt lat="44.3308018183449" lon="11.188099949198936"><ele>144.0</ele><time>2026-04-04T07:59:52.999Z</time></trkpt><trkpt lat="44.33071078661832" lon="11.188019348752194"><ele>144.0</ele><time>2026-04-04T07:59:53.999Z</time></trkpt><trkpt lat="44.33062233689973" lon="11.187945809406775"><ele>143.4</ele><time>2026-04-04T07:59:54.999Z</time></trkpt><trkpt lat="44.33053554174583" lon="11.187869530337787"><ele>142.8</ele><time>2026-04-04T07:59:55.999Z</time></trkpt><trkpt lat="44.330449715373526" lon="11.187792991650847"><ele>142.2</ele><time>2026-04-04T07:59:56.999Z</time></trkpt><trkpt lat="44.33036485064096" lon="11.187721145702104"><ele>141.6</ele><time>2026-04-04T07:59:57.999Z</time></trkpt><trkpt lat="44.33028168996079" lon="11.187650297346602"><ele>141.0</ele><time>2026-04-04T07:59:58.999Z</time></trkpt><trkpt lat="44.33020069262256" lon="11.187581575034612"><ele>141.0</ele><time>2026-04-04T07:59:59.999Z</time></trkpt><trkpt lat="44.33012124578217" lon="11.187511986919773"><ele>141.0</ele><time>2026-04-04T08:00:00.999Z</time></trkpt><trkpt lat="44.33003815410951" lon="11.187441522794453"><ele>141.0</ele><time>2026-04-04T08:00:01.999Z</time></trkpt><trkpt lat="44.329951228944275" lon="11.187364167978712"><ele>141.0</ele><time>2026-04-04T08:00:02.999Z</time></trkpt><trkpt lat="44.329864751540796" lon="11.187291808002149"><ele>141.0</ele><time>2026-04-04T08:00:03.999Z</time></trkpt><trkpt lat="44.3297742452938" lon="11.187209033067715"><ele>141.8</ele><time>2026-04-04T08:00:04.999Z</time></trkpt><trkpt lat="44.32968005045249" lon="11.187134107602805"><ele>142.6</ele><time>2026-04-04T08:00:05.999Z</time></trkpt><trkpt lat="44.329577262406055" lon="11.187084488096945"><ele>143.4</ele><time>2026-04-04T08:00:06.999Z</time></trkpt><trkpt lat="44.32946666875894" lon="11.187057480869722"><ele>144.2</ele><time>2026-04-04T08:00:07.999Z</time></trkpt><trkpt lat="44.32935266626381" lon="11.187037905641223"><ele>145.0</ele><time>2026-04-04T08:00:08.999Z</time></trkpt><trkpt lat="44.32923990234483" lon="11.187038967006751"><ele>145.0</ele><time>2026-04-04T08:00:09.999Z</time></trkpt><trkpt lat="44.32912544293775" lon="11.187039661634692"><ele>145.0</ele><time>2026-04-04T08:00:10.999Z</time></trkpt><trkpt lat="44.329009282628235" lon="11.187038350075921"><ele>145.0</ele><time>2026-04-04T08:00:11.999Z</time></trkpt><trkpt lat="44.32889440278069" lon="11.187044848437703"><ele>145.0</ele><time>2026-04-04T08:00:12.999Z</time></trkpt><trkpt lat="44.32877730981277" lon="11.18705066293003"><ele>143.5</ele><time>2026-04-04T08:00:13.999Z</time></trkpt><trkpt lat="44.32866248172534" lon="11.18705746322913"><ele>142.0</ele><time>2026-04-04T08:00:14.999Z</time></trkpt><trkpt lat="44.32854751610392" lon="11.18706214822032"><ele>140.5</ele><time>2026-04-04T08:00:15.999Z</time></trkpt><trkpt lat="44.328432887109685" lon="11.187068088392865"><ele>139.0</ele><time>2026-04-04T08:00:16.999Z</time></trkpt><trkpt lat="44.32832308544074" lon="11.187076696141864"><ele>139.0</ele><time>2026-04-04T08:00:17.999Z</time></trkpt><trkpt lat="44.32821769829313" lon="11.187087771178973"><ele>139.0</ele><time>2026-04-04T08:00:18.999Z</time></trkpt><trkpt lat="44.3281247333354" lon="11.187095082442996"><ele>139.0</ele><time>2026-04-04T08:00:19.999Z</time></trkpt><trkpt lat="44.328032886247435" lon="11.187146115669874"><ele>139.0</ele><time>2026-04-04T08:00:20.999Z</time></trkpt><trkpt lat="44.327944929157" lon="11.187228008231003"><ele>139.0</ele><time>2026-04-04T08:00:21.999Z</time></trkpt><trkpt lat="44.32786276334547" lon="11.187339263977236"><ele>139.25</ele><time>2026-04-04T08:00:22.999Z</time></trkpt><trkpt lat="44.32778773874093" lon="11.187491896526375"><ele>139.5</ele><time>2026-04-04T08:00:23.999Z</time></trkpt><trkpt lat="44.32772806233216" lon="11.187662066596433"><ele>139.75</ele><time>2026-04-04T08:00:24.999Z</time></trkpt><trkpt lat="44.32767557179652" lon="11.187818624832678"><ele>140.0</ele><time>2026-04-04T08:00:25.999Z</time></trkpt><trkpt lat="44.32761835063964" lon="11.187962899416618"><ele>140.0</ele><time>2026-04-04T08:00:27Z</time></trkpt><trkpt lat="44.32756525006134" lon="11.188098785111467"><ele>140.0</ele><time>2026-04-04T08:00:28Z</time></trkpt><trkpt lat="44.327519971101125" lon="11.18822249144912"><ele>140.0</ele><time>2026-04-04T08:00:29Z</time></trkpt><trkpt lat="44.32748034047238" lon="11.188334327177651"><ele>140.0</ele><time>2026-04-04T08:00:30Z</time></trkpt><trkpt lat="44.32744508272709" lon="11.188436462484706"><ele>140.0</ele><time>2026-04-04T08:00:31Z</time></trkpt><trkpt lat="44.327410249435516" lon="11.18853736822564"><ele>140.0</ele><time>2026-04-04T08:00:32Z</time></trkpt><trkpt lat="44.327372276222704" lon="11.188648363719219"><ele>140.0</ele><time>2026-04-04T08:00:33Z</time></trkpt><trkpt lat="44.32733680587375" lon="11.188757986580853"><ele>140.0</ele><time>2026-04-04T08:00:34Z</time></trkpt><trkpt lat="44.32730047707295" lon="11.18886785677781"><ele>140.0</ele><time>2026-04-04T08:00:35Z</time></trkpt><trkpt lat="44.32726268019128" lon="11.188981184339772"><ele>140.0</ele><time>2026-04-04T08:00:36Z</time></trkpt><trkpt lat="44.32722716746721" lon="11.18908766492405"><ele>140.0</ele><time>2026-04-04T08:00:37Z</time></trkpt><trkpt lat="44.327228761812314" lon="11.189227347397093"><ele>140.25</ele><time>2026-04-04T08:00:38Z</time></trkpt><trkpt lat="44.32731270444393" lon="11.189357831063994"><ele>140.5</ele><time>2026-04-04T08:00:39Z</time></trkpt><trkpt lat="44.32736300860411" lon="11.189479484783993"><ele>140.75</ele><time>2026-04-04T08:00:40Z</time></trkpt><trkpt lat="44.3274326028334" lon="11.189625834688094"><ele>141.0</ele><time>2026-04-04T08:00:41Z</time></trkpt><trkpt lat="44.32749547996172" lon="11.189800169741662"><ele>144.25</ele><time>2026-04-04T08:00:42Z</time></trkpt><trkpt lat="44.32756316606823" lon="11.189979487125944"><ele>147.5</ele><time>2026-04-04T08:00:43Z</time></trkpt><trkpt lat="44.327628354106544" lon="11.190176655610667"><ele>150.75</ele><time>2026-04-04T08:00:44Z</time></trkpt><trkpt lat="44.32768971090064" lon="11.190354887985658"><ele>154.0</ele><time>2026-04-04T08:00:45Z</time></trkpt><trkpt lat="44.327734151016664" lon="11.190488184697573"><ele>154.0</ele><time>2026-04-04T08:00:46Z</time></trkpt><trkpt lat="44.32776631205579" lon="11.190593847586426"><ele>154.0</ele><time>2026-04-04T08:00:47Z</time></trkpt><trkpt lat="44.32778292882279" lon="11.190688534207103"><ele>154.0</ele><time>2026-04-04T08:00:48Z</time></trkpt><trkpt lat="44.32779047816348" lon="11.190847615877761"><ele>154.0</ele><time>2026-04-04T08:00:50Z</time></trkpt><trkpt lat="44.327778808587034" lon="11.190945958791572"><ele>154.0</ele><time>2026-04-04T08:00:51Z</time></trkpt><trkpt lat="44.32775059737702" lon="11.191040336669008"><ele>154.0</ele><time>2026-04-04T08:00:52Z</time></trkpt><trkpt lat="44.32768089686637" lon="11.191109545000447"><ele>156.0</ele><time>2026-04-04T08:00:53Z</time></trkpt><trkpt lat="44.327624875451214" lon="11.191202022703692"><ele>158.0</ele><time>2026-04-04T08:00:54Z</time></trkpt><trkpt lat="44.32754471842041" lon="11.191265647783519"><ele>160.0</ele><time>2026-04-04T08:00:55Z</time></trkpt><trkpt lat="44.32748520408396" lon="11.191328336102432"><ele>162.0</ele><time>2026-04-04T08:00:56Z</time></trkpt><trkpt lat="44.32740446752049" lon="11.191384230220814"><ele>164.0</ele><time>2026-04-04T08:00:58Z</time></trkpt><trkpt lat="44.327309983902246" lon="11.191285630878616"><ele>164.0</ele><time>2026-04-04T08:01:00Z</time></trkpt><trkpt lat="44.3272414429284" lon="11.191239135463517"><ele>164.0</ele><time>2026-04-04T08:01:01Z</time></trkpt><trkpt lat="44.327166630452794" lon="11.191162210457634"><ele>164.0</ele><time>2026-04-04T08:01:02Z</time></trkpt><trkpt lat="44.32707989082473" lon="11.191102084090994"><ele>164.0</ele><time>2026-04-04T08:01:03Z</time></trkpt><trkpt lat="44.326994488225296" lon="11.191068656162848"><ele>164.0</ele><time>2026-04-04T08:01:04Z</time></trkpt><trkpt lat="44.32691936687714" lon="11.191017025587723"><ele>164.0</ele><time>2026-04-04T08:01:05Z</time></trkpt><trkpt lat="44.326851271395846" lon="11.190959556773207"><ele>165.0</ele><time>2026-04-04T08:01:06Z</time></trkpt><trkpt lat="44.326780841674484" lon="11.190914981193371"><ele>166.0</ele><time>2026-04-04T08:01:07Z</time></trkpt><trkpt lat="44.32671267189578" lon="11.190863978365542"><ele>167.0</ele><time>2026-04-04T08:01:08Z</time></trkpt><trkpt lat="44.32665314537876" lon="11.190799650652343"><ele>168.0</ele><time>2026-04-04T08:01:09Z</time></trkpt><trkpt lat="44.326605883574366" lon="11.19070902908137"><ele>169.0</ele><time>2026-04-04T08:01:10Z</time></trkpt><trkpt lat="44.326565757551485" lon="11.190603061748012"><ele>170.0</ele><time>2026-04-04T08:01:11Z</time></trkpt><trkpt lat="44.326542503239125" lon="11.190488410633849"><ele>170.16666666666666</ele><time>2026-04-04T08:01:12Z</time></trkpt><trkpt lat="44.32653174695666" lon="11.190375242432008"><ele>170.33333333333331</ele><time>2026-04-04T08:01:13Z</time></trkpt><trkpt lat="44.326525731629765" lon="11.190247946822945"><ele>170.5</ele><time>2026-04-04T08:01:14Z</time></trkpt><trkpt lat="44.32653093129488" lon="11.190121486399786"><ele>170.66666666666666</ele><time>2026-04-04T08:01:15Z</time></trkpt><trkpt lat="44.32653173326125" lon="11.190005182929157"><ele>170.83333333333334</ele><time>2026-04-04T08:01:16Z</time></trkpt><trkpt lat="44.32652853736196" lon="11.189905950074703"><ele>171.0</ele><time>2026-04-04T08:01:17Z</time></trkpt><trkpt lat="44.326508841152965" lon="11.189811790062546"><ele>172.66666666666666</ele><time>2026-04-04T08:01:18Z</time></trkpt><trkpt lat="44.326469858873324" lon="11.189726934928471"><ele>174.33333333333334</ele><time>2026-04-04T08:01:19Z</time></trkpt><trkpt lat="44.32642270114365" lon="11.189645388592364"><ele>176.0</ele><time>2026-04-04T08:01:20Z</time></trkpt><trkpt lat="44.32639058263114" lon="11.189560449653644"><ele>177.66666666666669</ele><time>2026-04-04T08:01:21Z</time></trkpt><trkpt lat="44.32634175862344" lon="11.189483737978104"><ele>179.33333333333334</ele><time>2026-04-04T08:01:22Z</time></trkpt><trkpt lat="44.32628472876691" lon="11.189401467409052"><ele>181.0</ele><time>2026-04-04T08:01:23Z</time></trkpt><trkpt lat="44.32621265386201" lon="11.189305349007949"><ele>181.0</ele><time>2026-04-04T08:01:24Z</time></trkpt><trkpt lat="44.32613048136532" lon="11.189209912721669"><ele>181.0</ele><time>2026-04-04T08:01:25Z</time></trkpt><trkpt lat="44.3260397979083" lon="11.189125481836225"><ele>181.0</ele><time>2026-04-04T08:01:26Z</time></trkpt><trkpt lat="44.32594588750908" lon="11.189074449945098"><ele>181.0</ele><time>2026-04-04T08:01:27Z</time></trkpt><trkpt lat="44.32586127901927" lon="11.188987774809794"><ele>181.0</ele><time>2026-04-04T08:01:28Z</time></trkpt><trkpt lat="44.32577229480703" lon="11.188907359104372"><ele>182.0</ele><time>2026-04-04T08:01:29Z</time></trkpt><trkpt lat="44.32568251325662" lon="11.188819061511976"><ele>183.0</ele><time>2026-04-04T08:01:30Z</time></trkpt><trkpt lat="44.325588394189516" lon="11.188733874002109"><ele>184.0</ele><time>2026-04-04T08:01:31Z</time></trkpt><trkpt lat="44.325496144139244" lon="11.188638449277644"><ele>185.0</ele><time>2026-04-04T08:01:32Z</time></trkpt><trkpt lat="44.32540063186348" lon="11.188552010608205"><ele>185.0</ele><time>2026-04-04T08:01:33Z</time></trkpt><trkpt lat="44.32530797924198" lon="11.188460710123902"><ele>185.0</ele><time>2026-04-04T08:01:34Z</time></trkpt><trkpt lat="44.325219301890556" lon="11.188372584012203"><ele>185.0</ele><time>2026-04-04T08:01:35Z</time></trkpt><trkpt lat="44.32513370425625" lon="11.188282296776553"><ele>185.0</ele><time>2026-04-04T08:01:36Z</time></trkpt><trkpt lat="44.32505482193395" lon="11.188195987172943"><ele>185.0</ele><time>2026-04-04T08:01:37Z</time></trkpt><trkpt lat="44.32497764845695" lon="11.188112019791689"><ele>185.66666666666666</ele><time>2026-04-04T08:01:38Z</time></trkpt><trkpt lat="44.324911449276826" lon="11.188038410733727"><ele>186.33333333333331</ele><time>2026-04-04T08:01:39Z</time></trkpt><trkpt lat="44.32484916841278" lon="11.187969993709878"><ele>187.0</ele><time>2026-04-04T08:01:40Z</time></trkpt><trkpt lat="44.32480027663071" lon="11.187880815657394"><ele>187.66666666666666</ele><time>2026-04-04T08:01:41Z</time></trkpt><trkpt lat="44.324742131246495" lon="11.187810248623375"><ele>188.33333333333334</ele><time>2026-04-04T08:01:42Z</time></trkpt><trkpt lat="44.32468164246989" lon="11.187758409606547"><ele>189.0</ele><time>2026-04-04T08:01:43Z</time></trkpt><trkpt lat="44.324629439537375" lon="11.187697718648945"><ele>189.0</ele><time>2026-04-04T08:01:44Z</time></trkpt><trkpt lat="44.32455239796285" lon="11.187588803753371"><ele>189.0</ele><time>2026-04-04T08:01:46Z</time></trkpt><trkpt lat="44.32448374892425" lon="11.187471462872749"><ele>189.0</ele><time>2026-04-04T08:01:48Z</time></trkpt><trkpt lat="44.32441145407114" lon="11.187357421426944"><ele>189.0</ele><time>2026-04-04T08:01:49.999Z</time></trkpt><trkpt lat="44.32432295495879" lon="11.18724616273001"><ele>189.0</ele><time>2026-04-04T08:01:51.999Z</time></trkpt><trkpt lat="44.324281599480415" lon="11.187167405591914"><ele>187.16666666666666</ele><time>2026-04-04T08:01:52.999Z</time></trkpt><trkpt lat="44.324213284656295" lon="11.187105428120617"><ele>185.33333333333334</ele><time>2026-04-04T08:01:53.999Z</time></trkpt><trkpt lat="44.32412661873224" lon="11.187054150990484"><ele>183.5</ele><time>2026-04-04T08:01:54.999Z</time></trkpt><trkpt lat="44.324043932935545" lon="11.187014008326207"><ele>181.66666666666669</ele><time>2026-04-04T08:01:55.999Z</time></trkpt><trkpt lat="44.32396384971079" lon="11.186969710475912"><ele>179.83333333333334</ele><time>2026-04-04T08:01:56.999Z</time></trkpt><trkpt lat="44.32387624411402" lon="11.186918260268158"><ele>178.0</ele><time>2026-04-04T08:01:57.999Z</time></trkpt><trkpt lat="44.323795021952826" lon="11.186868670379939"><ele>178.0</ele><time>2026-04-04T08:01:58.999Z</time></trkpt><trkpt lat="44.32371562407034" lon="11.186821178055894"><ele>178.0</ele><time>2026-04-04T08:01:59.999Z</time></trkpt><trkpt lat="44.32362185749458" lon="11.18678032526031"><ele>178.0</ele><time>2026-04-04T08:02:00.999Z</time></trkpt><trkpt lat="44.32353605553131" lon="11.186754172972316"><ele>178.0</ele><time>2026-04-04T08:02:01.999Z</time></trkpt><trkpt lat="44.323451986980935" lon="11.186770096701222"><ele>178.0</ele><time>2026-04-04T08:02:02.999Z</time></trkpt><trkpt lat="44.3233575734271" lon="11.186783222202092"><ele>178.0</ele><time>2026-04-04T08:02:03.999Z</time></trkpt><trkpt lat="44.32326611943794" lon="11.186821131639926"><ele>178.0</ele><time>2026-04-04T08:02:04.999Z</time></trkpt><trkpt lat="44.323154888893434" lon="11.186868851855117"><ele>178.0</ele><time>2026-04-04T08:02:05.999Z</time></trkpt><trkpt lat="44.323056194612526" lon="11.186915642956878"><ele>178.0</ele><time>2026-04-04T08:02:06.999Z</time></trkpt><trkpt lat="44.32296418756567" lon="11.18695508478638"><ele>178.0</ele><time>2026-04-04T08:02:07.999Z</time></trkpt><trkpt lat="44.322881355739966" lon="11.186975311582193"><ele>179.0</ele><time>2026-04-04T08:02:08.999Z</time></trkpt><trkpt lat="44.32279713186614" lon="11.186985976820036"><ele>180.0</ele><time>2026-04-04T08:02:09.999Z</time></trkpt><trkpt lat="44.32271856706606" lon="11.186988329111928"><ele>181.0</ele><time>2026-04-04T08:02:10.999Z</time></trkpt><trkpt lat="44.32264789003052" lon="11.186976977597457"><ele>182.0</ele><time>2026-04-04T08:02:11.999Z</time></trkpt><trkpt lat="44.322568304463914" lon="11.186950725104474"><ele>183.0</ele><time>2026-04-04T08:02:12.999Z</time></trkpt><trkpt lat="44.322497865419436" lon="11.186904925276423"><ele>184.0</ele><time>2026-04-04T08:02:13.999Z</time></trkpt><trkpt lat="44.3224145408256" lon="11.18683229675944"><ele>184.0</ele><time>2026-04-04T08:02:14.999Z</time></trkpt><trkpt lat="44.32232895838626" lon="11.18675323814442"><ele>184.0</ele><time>2026-04-04T08:02:15.999Z</time></trkpt><trkpt lat="44.322243978001616" lon="11.186679668542816"><ele>184.0</ele><time>2026-04-04T08:02:16.999Z</time></trkpt><trkpt lat="44.32216678484315" lon="11.186610831301502"><ele>184.0</ele><time>2026-04-04T08:02:17.999Z</time></trkpt><trkpt lat="44.322089816431664" lon="11.186543738007993"><ele>184.0</ele><time>2026-04-04T08:02:18.999Z</time></trkpt><trkpt lat="44.322006116826984" lon="11.186488284611606"><ele>185.39999999999998</ele><time>2026-04-04T08:02:19.999Z</time></trkpt><trkpt lat="44.321918593865405" lon="11.186454390624409"><ele>186.8</ele><time>2026-04-04T08:02:20.999Z</time></trkpt><trkpt lat="44.321828477586216" lon="11.1864476317472"><ele>188.2</ele><time>2026-04-04T08:02:21.999Z</time></trkpt><trkpt lat="44.32173967322811" lon="11.186455354368379"><ele>189.60000000000002</ele><time>2026-04-04T08:02:22.999Z</time></trkpt><trkpt lat="44.321648531005536" lon="11.186479708979054"><ele>191.0</ele><time>2026-04-04T08:02:23.999Z</time></trkpt><trkpt lat="44.32154996971759" lon="11.186517319937288"><ele>191.0</ele><time>2026-04-04T08:02:24.999Z</time></trkpt><trkpt lat="44.321460291663364" lon="11.186565008005191"><ele>191.0</ele><time>2026-04-04T08:02:25.999Z</time></trkpt><trkpt lat="44.32136158253478" lon="11.186605411903498"><ele>191.0</ele><time>2026-04-04T08:02:26.999Z</time></trkpt><trkpt lat="44.32127032921849" lon="11.186635827022664"><ele>191.0</ele><time>2026-04-04T08:02:27.999Z</time></trkpt><trkpt lat="44.32118789532028" lon="11.186630577711083"><ele>191.0</ele><time>2026-04-04T08:02:28.999Z</time></trkpt><trkpt lat="44.321097545938514" lon="11.186615351292607"><ele>190.4</ele><time>2026-04-04T08:02:29.999Z</time></trkpt><trkpt lat="44.32101556679389" lon="11.186593925323182"><ele>189.8</ele><time>2026-04-04T08:02:30.999Z</time></trkpt><trkpt lat="44.320920176848965" lon="11.186585592339496"><ele>189.20000000000002</ele><time>2026-04-04T08:02:31.999Z</time></trkpt><trkpt lat="44.32082647906256" lon="11.186542825347992"><ele>188.60000000000002</ele><time>2026-04-04T08:02:33Z</time></trkpt><trkpt lat="44.320738237232305" lon="11.186467398030238"><ele>188.0</ele><time>2026-04-04T08:02:34Z</time></trkpt><trkpt lat="44.32063986251256" lon="11.186418325308882"><ele>181.25</ele><time>2026-04-04T08:02:35Z</time></trkpt><trkpt lat="44.32053588840464" lon="11.186386203599886"><ele>174.5</ele><time>2026-04-04T08:02:36Z</time></trkpt><trkpt lat="44.320414719766696" lon="11.186365015690559"><ele>167.75</ele><time>2026-04-04T08:02:37Z</time></trkpt><trkpt lat="44.320294848054445" lon="11.18636132303277"><ele>161.0</ele><time>2026-04-04T08:02:38Z</time></trkpt><trkpt lat="44.320160411122025" lon="11.186374312143942"><ele>161.0</ele><time>2026-04-04T08:02:39Z</time></trkpt><trkpt lat="44.32000519743012" lon="11.186406058782742"><ele>161.0</ele><time>2026-04-04T08:02:40Z</time></trkpt><trkpt lat="44.31983608812859" lon="11.186450752622042"><ele>161.0</ele><time>2026-04-04T08:02:41Z</time></trkpt><trkpt lat="44.31966150088212" lon="11.186506330707608"><ele>163.5</ele><time>2026-04-04T08:02:42Z</time></trkpt><trkpt lat="44.31951165239977" lon="11.186571030582272"><ele>166.0</ele><time>2026-04-04T08:02:43Z</time></trkpt><trkpt lat="44.319364502649634" lon="11.186598584127267"><ele>168.5</ele><time>2026-04-04T08:02:44Z</time></trkpt><trkpt lat="44.31922347564694" lon="11.186639883385212"><ele>171.0</ele><time>2026-04-04T08:02:45Z</time></trkpt><trkpt lat="44.319071566260405" lon="11.186629083376681"><ele>171.0</ele><time>2026-04-04T08:02:46Z</time></trkpt><trkpt lat="44.318910851345635" lon="11.186585690026986"><ele>171.0</ele><time>2026-04-04T08:02:47Z</time></trkpt><trkpt lat="44.31874072319219" lon="11.186544694369253"><ele>171.0</ele><time>2026-04-04T08:02:48Z</time></trkpt><trkpt lat="44.31857165739438" lon="11.186503258622146"><ele>166.33333333333334</ele><time>2026-04-04T08:02:49Z</time></trkpt><trkpt lat="44.31841103863683" lon="11.186465661482181"><ele>161.66666666666669</ele><time>2026-04-04T08:02:50Z</time></trkpt><trkpt lat="44.31826872839074" lon="11.186412503742673"><ele>157.0</ele><time>2026-04-04T08:02:51Z</time></trkpt><trkpt lat="44.31812616403286" lon="11.18638244221413"><ele>157.0</ele><time>2026-04-04T08:02:52Z</time></trkpt><trkpt lat="44.31798446175993" lon="11.186354573173078"><ele>157.0</ele><time>2026-04-04T08:02:53Z</time></trkpt><trkpt lat="44.31784583411444" lon="11.186328262971298"><ele>157.0</ele><time>2026-04-04T08:02:54Z</time></trkpt><trkpt lat="44.31771603665384" lon="11.18630358109818"><ele>157.0</ele><time>2026-04-04T08:02:55Z</time></trkpt><trkpt lat="44.317594624124844" lon="11.186267620985555"><ele>157.0</ele><time>2026-04-04T08:02:56Z</time></trkpt><trkpt lat="44.31748340401426" lon="11.186201264497086"><ele>157.0</ele><time>2026-04-04T08:02:57Z</time></trkpt><trkpt lat="44.31739180954" lon="11.186105938485914"><ele>157.0</ele><time>2026-04-04T08:02:58Z</time></trkpt><trkpt lat="44.317302090041586" lon="11.185994758423874"><ele>157.0</ele><time>2026-04-04T08:02:59Z</time></trkpt><trkpt lat="44.31720280614136" lon="11.18586946299233"><ele>157.25</ele><time>2026-04-04T08:03:00Z</time></trkpt><trkpt lat="44.317091211703215" lon="11.18576673304357"><ele>157.5</ele><time>2026-04-04T08:03:01Z</time></trkpt><trkpt lat="44.31698659875698" lon="11.185646644236257"><ele>157.75</ele><time>2026-04-04T08:03:02Z</time></trkpt><trkpt lat="44.31688362981935" lon="11.185526192430878"><ele>158.0</ele><time>2026-04-04T08:03:03Z</time></trkpt><trkpt lat="44.31677380862337" lon="11.185405762163118"><ele>156.5</ele><time>2026-04-04T08:03:04Z</time></trkpt><trkpt lat="44.316653727680794" lon="11.185279528355085"><ele>155.0</ele><time>2026-04-04T08:03:05Z</time></trkpt><trkpt lat="44.31653401088317" lon="11.1851538425362"><ele>153.5</ele><time>2026-04-04T08:03:06Z</time></trkpt><trkpt lat="44.31641732204067" lon="11.185030307365341"><ele>152.0</ele><time>2026-04-04T08:03:07Z</time></trkpt><trkpt lat="44.31630441551941" lon="11.184901975162372"><ele>152.0</ele><time>2026-04-04T08:03:08Z</time></trkpt><trkpt lat="44.31618491795594" lon="11.184763421487506"><ele>152.0</ele><time>2026-04-04T08:03:09Z</time></trkpt><trkpt lat="44.316071642832874" lon="11.184629437549933"><ele>152.0</ele><time>2026-04-04T08:03:10Z</time></trkpt><trkpt lat="44.31595252785169" lon="11.184490095625689"><ele>152.0</ele><time>2026-04-04T08:03:11Z</time></trkpt><trkpt lat="44.315836880633526" lon="11.184356014091628"><ele>152.0</ele><time>2026-04-04T08:03:12Z</time></trkpt><trkpt lat="44.315718170826756" lon="11.184213784893332"><ele>152.0</ele><time>2026-04-04T08:03:13Z</time></trkpt><trkpt lat="44.315606638286695" lon="11.18406649248615"><ele>152.75</ele><time>2026-04-04T08:03:14Z</time></trkpt><trkpt lat="44.31549564006091" lon="11.183926117614755"><ele>153.5</ele><time>2026-04-04T08:03:15Z</time></trkpt><trkpt lat="44.31538226786588" lon="11.18379301473375"><ele>154.25</ele><time>2026-04-04T08:03:16Z</time></trkpt><trkpt lat="44.315263400197196" lon="11.18367619436094"><ele>155.0</ele><time>2026-04-04T08:03:17Z</time></trkpt><trkpt lat="44.315136634596165" lon="11.183577707554104"><ele>155.0</ele><time>2026-04-04T08:03:18Z</time></trkpt><trkpt lat="44.314999845464655" lon="11.183490291415474"><ele>155.0</ele><time>2026-04-04T08:03:19Z</time></trkpt><trkpt lat="44.31486269726072" lon="11.183409192047234"><ele>155.0</ele><time>2026-04-04T08:03:20Z</time></trkpt><trkpt lat="44.31472538319106" lon="11.183340879843414"><ele>155.0</ele><time>2026-04-04T08:03:21Z</time></trkpt><trkpt lat="44.31458824346132" lon="11.18327278498198"><ele>155.75</ele><time>2026-04-04T08:03:22Z</time></trkpt><trkpt lat="44.314455115734" lon="11.183210714995747"><ele>156.5</ele><time>2026-04-04T08:03:23Z</time></trkpt><trkpt lat="44.314320981408336" lon="11.183160874914767"><ele>157.25</ele><time>2026-04-04T08:03:24Z</time></trkpt><trkpt lat="44.3141847967916" lon="11.183110492427035"><ele>158.0</ele><time>2026-04-04T08:03:25Z</time></trkpt><trkpt lat="44.31405463321631" lon="11.183056669178729"><ele>158.0</ele><time>2026-04-04T08:03:26Z</time></trkpt><trkpt lat="44.31394361950011" lon="11.182997670655661"><ele>158.0</ele><time>2026-04-04T08:03:27Z</time></trkpt><trkpt lat="44.31385275100208" lon="11.18294662316613"><ele>158.0</ele><time>2026-04-04T08:03:28Z</time></trkpt><trkpt lat="44.31376571130831" lon="11.18288925271762"><ele>158.0</ele><time>2026-04-04T08:03:29Z</time></trkpt><trkpt lat="44.31368401108842" lon="11.18282703084196"><ele>158.0</ele><time>2026-04-04T08:03:30Z</time></trkpt><trkpt lat="44.31359467289631" lon="11.182771206243675"><ele>160.0</ele><time>2026-04-04T08:03:31Z</time></trkpt><trkpt lat="44.313505407030135" lon="11.182710804371343"><ele>162.0</ele><time>2026-04-04T08:03:32Z</time></trkpt><trkpt lat="44.313426578244815" lon="11.182649519388079"><ele>164.0</ele><time>2026-04-04T08:03:33Z</time></trkpt><trkpt lat="44.31335047677452" lon="11.182606589929232"><ele>166.0</ele><time>2026-04-04T08:03:34Z</time></trkpt><trkpt lat="44.31326369304416" lon="11.182583514082266"><ele>168.0</ele><time>2026-04-04T08:03:35Z</time></trkpt><trkpt lat="44.31316773216498" lon="11.182580399290398"><ele>170.60000000000002</ele><time>2026-04-04T08:03:36Z</time></trkpt><trkpt lat="44.31306658531391" lon="11.182586300385905"><ele>173.20000000000002</ele><time>2026-04-04T08:03:37Z</time></trkpt><trkpt lat="44.31296884547077" lon="11.182591822595917"><ele>175.8</ele><time>2026-04-04T08:03:38Z</time></trkpt><trkpt lat="44.31287423054544" lon="11.182607643202894"><ele>178.4</ele><time>2026-04-04T08:03:39Z</time></trkpt><trkpt lat="44.312782663972534" lon="11.182626455505163"><ele>181.0</ele><time>2026-04-04T08:03:40Z</time></trkpt><trkpt lat="44.3127042044005" lon="11.18264529239859"><ele>181.0</ele><time>2026-04-04T08:03:41Z</time></trkpt><trkpt lat="44.31263597812061" lon="11.182690012424992"><ele>181.0</ele><time>2026-04-04T08:03:42Z</time></trkpt><trkpt lat="44.31258203421923" lon="11.182763818864094"><ele>181.0</ele><time>2026-04-04T08:03:43Z</time></trkpt><trkpt lat="44.31254354663109" lon="11.18286720866652"><ele>181.0</ele><time>2026-04-04T08:03:44Z</time></trkpt><trkpt lat="44.31252815316407" lon="11.182980316072793"><ele>181.0</ele><time>2026-04-04T08:03:45Z</time></trkpt><trkpt lat="44.3125386380277" lon="11.183094268720073"><ele>181.0</ele><time>2026-04-04T08:03:46Z</time></trkpt><trkpt lat="44.31257929984954" lon="11.183215858393151"><ele>181.20000000000002</ele><time>2026-04-04T08:03:47Z</time></trkpt><trkpt lat="44.312615824321306" lon="11.183352814919493"><ele>181.4</ele><time>2026-04-04T08:03:48Z</time></trkpt><trkpt lat="44.31265380869662" lon="11.18349035399653"><ele>181.6</ele><time>2026-04-04T08:03:49Z</time></trkpt><trkpt lat="44.31269046872129" lon="11.183637222219868"><ele>181.8</ele><time>2026-04-04T08:03:50Z</time></trkpt><trkpt lat="44.312728424061724" lon="11.183793196375314"><ele>182.0</ele><time>2026-04-04T08:03:50.999Z</time></trkpt><trkpt lat="44.31276276903077" lon="11.183956681678989"><ele>184.25</ele><time>2026-04-04T08:03:51.999Z</time></trkpt><trkpt lat="44.312802131477326" lon="11.184126399664468"><ele>186.5</ele><time>2026-04-04T08:03:52.999Z</time></trkpt><trkpt lat="44.312844860923676" lon="11.184301137464978"><ele>188.75</ele><time>2026-04-04T08:03:53.999Z</time></trkpt><trkpt lat="44.31288871953509" lon="11.184482220853392"><ele>191.0</ele><time>2026-04-04T08:03:54.999Z</time></trkpt><trkpt lat="44.3129330734329" lon="11.184666855668357"><ele>193.5</ele><time>2026-04-04T08:03:55.999Z</time></trkpt><trkpt lat="44.31295437368536" lon="11.184848399961568"><ele>196.0</ele><time>2026-04-04T08:03:56.999Z</time></trkpt><trkpt lat="44.31298766685053" lon="11.185018521637815"><ele>198.5</ele><time>2026-04-04T08:03:57.999Z</time></trkpt><trkpt lat="44.31302967835874" lon="11.18517984257804"><ele>201.0</ele><time>2026-04-04T08:03:58.999Z</time></trkpt><trkpt lat="44.313030292197375" lon="11.185354990577023"><ele>201.0</ele><time>2026-04-04T08:03:59.999Z</time></trkpt><trkpt lat="44.313050217219114" lon="11.185524688318424"><ele>201.0</ele><time>2026-04-04T08:04:00.999Z</time></trkpt><trkpt lat="44.31304583797405" lon="11.185695202129713"><ele>201.0</ele><time>2026-04-04T08:04:01.999Z</time></trkpt><trkpt lat="44.313034827562056" lon="11.185858751251134"><ele>201.0</ele><time>2026-04-04T08:04:02.999Z</time></trkpt><trkpt lat="44.313007489767436" lon="11.186010806075622"><ele>203.8</ele><time>2026-04-04T08:04:03.999Z</time></trkpt><trkpt lat="44.31298691709072" lon="11.186139365295665"><ele>206.60000000000002</ele><time>2026-04-04T08:04:04.999Z</time></trkpt><trkpt lat="44.3129491659508" lon="11.186256059944613"><ele>209.4</ele><time>2026-04-04T08:04:05.999Z</time></trkpt><trkpt lat="44.31289499165044" lon="11.186370492992927"><ele>212.2</ele><time>2026-04-04T08:04:06.999Z</time></trkpt><trkpt lat="44.31282665904593" lon="11.186483742136845"><ele>215.0</ele><time>2026-04-04T08:04:07.999Z</time></trkpt><trkpt lat="44.3127796374771" lon="11.186591417144884"><ele>216.2</ele><time>2026-04-04T08:04:08.999Z</time></trkpt><trkpt lat="44.312757975030834" lon="11.186687912989989"><ele>217.4</ele><time>2026-04-04T08:04:09.999Z</time></trkpt><trkpt lat="44.312785106669416" lon="11.186851406705534"><ele>218.60000000000002</ele><time>2026-04-04T08:04:11.999Z</time></trkpt><trkpt lat="44.31282476375132" lon="11.186962458800368"><ele>219.8</ele><time>2026-04-04T08:04:12.999Z</time></trkpt><trkpt lat="44.31294052136305" lon="11.187013352139626"><ele>221.0</ele><time>2026-04-04T08:04:13.999Z</time></trkpt><trkpt lat="44.31305281844204" lon="11.187070645168827"><ele>220.20000000000002</ele><time>2026-04-04T08:04:14.999Z</time></trkpt><trkpt lat="44.31316137349311" lon="11.187127880684573"><ele>219.40000000000003</ele><time>2026-04-04T08:04:15.999Z</time></trkpt><trkpt lat="44.31325938186716" lon="11.187187803320457"><ele>218.6</ele><time>2026-04-04T08:04:16.999Z</time></trkpt><trkpt lat="44.31333764637253" lon="11.18727652272982"><ele>217.8</ele><time>2026-04-04T08:04:17.999Z</time></trkpt><trkpt lat="44.31339979022038" lon="11.187380355636405"><ele>217.0</ele><time>2026-04-04T08:04:18.999Z</time></trkpt><trkpt lat="44.313465720454225" lon="11.18749591068126"><ele>216.99999999999997</ele><time>2026-04-04T08:04:19.999Z</time></trkpt><trkpt lat="44.31351838160219" lon="11.18759536973334"><ele>217.0</ele><time>2026-04-04T08:04:20.999Z</time></trkpt><trkpt lat="44.31355604608612" lon="11.187747740715375"><ele>217.0</ele><time>2026-04-04T08:04:22.999Z</time></trkpt><trkpt lat="44.313528044313145" lon="11.18782928365427"><ele>217.0</ele><time>2026-04-04T08:04:23.999Z</time></trkpt><trkpt lat="44.31347947006657" lon="11.187887240546736"><ele>216.99999999999997</ele><time>2026-04-04T08:04:24.999Z</time></trkpt><trkpt lat="44.313406885730636" lon="11.187917051466211"><ele>217.0</ele><time>2026-04-04T08:04:25.999Z</time></trkpt><trkpt lat="44.313353096278476" lon="11.187987560042737"><ele>217.0</ele><time>2026-04-04T08:04:26.999Z</time></trkpt><trkpt lat="44.31332553949103" lon="11.188090760303574"><ele>217.0</ele><time>2026-04-04T08:04:27.999Z</time></trkpt><trkpt lat="44.31334715076759" lon="11.188243515498096"><ele>217.0</ele><time>2026-04-04T08:04:28.999Z</time></trkpt><trkpt lat="44.31332930693321" lon="11.18841277879329"><ele>217.0</ele><time>2026-04-04T08:04:29.999Z</time></trkpt><trkpt lat="44.31332731835149" lon="11.188583385582463"><ele>217.0</ele><time>2026-04-04T08:04:30.999Z</time></trkpt><trkpt lat="44.313340011737886" lon="11.188762447020927"><ele>220.2</ele><time>2026-04-04T08:04:31.999Z</time></trkpt><trkpt lat="44.31333629451848" lon="11.18895306202735"><ele>223.39999999999998</ele><time>2026-04-04T08:04:32.999Z</time></trkpt><trkpt lat="44.31333659190023" lon="11.189127007088725"><ele>226.60000000000002</ele><time>2026-04-04T08:04:33.999Z</time></trkpt><trkpt lat="44.313341808619946" lon="11.189266319593296"><ele>229.8</ele><time>2026-04-04T08:04:34.999Z</time></trkpt><trkpt lat="44.313337152094306" lon="11.189374487724926"><ele>233.0</ele><time>2026-04-04T08:04:35.999Z</time></trkpt><trkpt lat="44.313366724886166" lon="11.189483815693713"><ele>236.0</ele><time>2026-04-04T08:04:36.999Z</time></trkpt><trkpt lat="44.313460747787445" lon="11.189582128792528"><ele>239.0</ele><time>2026-04-04T08:04:37.999Z</time></trkpt><trkpt lat="44.3135275457826" lon="11.189718906518609"><ele>242.0</ele><time>2026-04-04T08:04:39Z</time></trkpt><trkpt lat="44.313610617640435" lon="11.189851920572309"><ele>245.0</ele><time>2026-04-04T08:04:40Z</time></trkpt><trkpt lat="44.31369420468725" lon="11.189980218798679"><ele>246.0</ele><time>2026-04-04T08:04:41Z</time></trkpt><trkpt lat="44.31378569725808" lon="11.190108962872776"><ele>247.0</ele><time>2026-04-04T08:04:42Z</time></trkpt><trkpt lat="44.313888244564936" lon="11.190234730460432"><ele>248.0</ele><time>2026-04-04T08:04:43Z</time></trkpt><trkpt lat="44.31399058489309" lon="11.19034331621929"><ele>249.0</ele><time>2026-04-04T08:04:44Z</time></trkpt><trkpt lat="44.31409439955931" lon="11.190442084145868"><ele>249.0</ele><time>2026-04-04T08:04:45Z</time></trkpt><trkpt lat="44.31420641821681" lon="11.19051734015645"><ele>249.0</ele><time>2026-04-04T08:04:46Z</time></trkpt><trkpt lat="44.31430559730101" lon="11.190602038674365"><ele>249.0</ele><time>2026-04-04T08:04:47Z</time></trkpt><trkpt lat="44.3144075858671" lon="11.190654193246184"><ele>249.0</ele><time>2026-04-04T08:04:48Z</time></trkpt><trkpt lat="44.31451324667493" lon="11.190673100981618"><ele>249.0</ele><time>2026-04-04T08:04:49Z</time></trkpt><trkpt lat="44.31459996779815" lon="11.190662972724883"><ele>249.0</ele><time>2026-04-04T08:04:50Z</time></trkpt><trkpt lat="44.31466862456476" lon="11.190688335997613"><ele>249.0</ele><time>2026-04-04T08:04:51Z</time></trkpt><trkpt lat="44.31474243726073" lon="11.190693577714358"><ele>249.0</ele><time>2026-04-04T08:04:52Z</time></trkpt><trkpt lat="44.314791112469145" lon="11.190815702443828"><ele>249.0</ele><time>2026-04-04T08:04:54Z</time></trkpt><trkpt lat="44.31475019666123" lon="11.190942941313288"><ele>249.0</ele><time>2026-04-04T08:04:56Z</time></trkpt><trkpt lat="44.31467081238157" lon="11.190968200942477"><ele>253.79999999999998</ele><time>2026-04-04T08:04:58Z</time></trkpt><trkpt lat="44.314547361440056" lon="11.19099787449986"><ele>258.59999999999997</ele><time>2026-04-04T08:05:00Z</time></trkpt><trkpt lat="44.31448759500105" lon="11.191034990351582"><ele>263.4</ele><time>2026-04-04T08:05:01Z</time></trkpt><trkpt lat="44.314431435918536" lon="11.191173501737662"><ele>268.2</ele><time>2026-04-04T08:05:03Z</time></trkpt><trkpt lat="44.314481679954696" lon="11.191328009872676"><ele>273.0</ele><time>2026-04-04T08:05:05Z</time></trkpt><trkpt lat="44.314514775879026" lon="11.19141259354429"><ele>273.0</ele><time>2026-04-04T08:05:06Z</time></trkpt><trkpt lat="44.31459984268451" lon="11.191478788087815"><ele>273.0</ele><time>2026-04-04T08:05:07Z</time></trkpt><trkpt lat="44.31468653973726" lon="11.191493822932374"><ele>273.0</ele><time>2026-04-04T08:05:08Z</time></trkpt><trkpt lat="44.31480250381065" lon="11.191500839254548"><ele>273.0</ele><time>2026-04-04T08:05:09Z</time></trkpt><trkpt lat="44.31491762758513" lon="11.19153923276328"><ele>273.0</ele><time>2026-04-04T08:05:10Z</time></trkpt><trkpt lat="44.31501207713437" lon="11.191560466082038"><ele>275.8</ele><time>2026-04-04T08:05:11Z</time></trkpt><trkpt lat="44.31510590931139" lon="11.191596128149532"><ele>278.6</ele><time>2026-04-04T08:05:13Z</time></trkpt><trkpt lat="44.315156084206855" lon="11.191654060393912"><ele>281.4</ele><time>2026-04-04T08:05:15Z</time></trkpt><trkpt lat="44.31509960555626" lon="11.191774686899434"><ele>284.2</ele><time>2026-04-04T08:05:17Z</time></trkpt><trkpt lat="44.31496743441508" lon="11.191843178158427"><ele>287.0</ele><time>2026-04-04T08:05:19Z</time></trkpt><trkpt lat="44.31487972184914" lon="11.191864151367223"><ele>287.0</ele><time>2026-04-04T08:05:20Z</time></trkpt><trkpt lat="44.31477650568788" lon="11.191845954131427"><ele>287.0</ele><time>2026-04-04T08:05:21Z</time></trkpt><trkpt lat="44.3146640815055" lon="11.191857070530558"><ele>287.0</ele><time>2026-04-04T08:05:22Z</time></trkpt><trkpt lat="44.31455963853375" lon="11.191905661217064"><ele>287.0</ele><time>2026-04-04T08:05:23Z</time></trkpt><trkpt lat="44.314452861538975" lon="11.191950599531804"><ele>287.0</ele><time>2026-04-04T08:05:24Z</time></trkpt><trkpt lat="44.3143353634071" lon="11.192032892902578"><ele>290.4</ele><time>2026-04-04T08:05:25Z</time></trkpt><trkpt lat="44.31423483380963" lon="11.1921221347528"><ele>293.79999999999995</ele><time>2026-04-04T08:05:26Z</time></trkpt><trkpt lat="44.31414656291494" lon="11.192150534767945"><ele>297.2</ele><time>2026-04-04T08:05:27Z</time></trkpt><trkpt lat="44.314066864222816" lon="11.192188084154779"><ele>300.59999999999997</ele><time>2026-04-04T08:05:28Z</time></trkpt><trkpt lat="44.3139782522517" lon="11.192176885607772"><ele>304.0</ele><time>2026-04-04T08:05:29Z</time></trkpt><trkpt lat="44.31389016492214" lon="11.192106905037441"><ele>303.0</ele><time>2026-04-04T08:05:30Z</time></trkpt><trkpt lat="44.313855389238284" lon="11.191958836547505"><ele>302.0</ele><time>2026-04-04T08:05:31Z</time></trkpt><trkpt lat="44.313797185165456" lon="11.191846068381853"><ele>301.0</ele><time>2026-04-04T08:05:32Z</time></trkpt><trkpt lat="44.31373661873872" lon="11.191721620905197"><ele>300.0</ele><time>2026-04-04T08:05:33Z</time></trkpt><trkpt lat="44.31368089263456" lon="11.191587852197264"><ele>299.0</ele><time>2026-04-04T08:05:34Z</time></trkpt><trkpt lat="44.31362759493823" lon="11.191470045424287"><ele>299.0</ele><time>2026-04-04T08:05:35Z</time></trkpt><trkpt lat="44.313576971453315" lon="11.191372779243393"><ele>299.0</ele><time>2026-04-04T08:05:36Z</time></trkpt><trkpt lat="44.313533175812715" lon="11.1913066723123"><ele>299.0</ele><time>2026-04-04T08:05:37Z</time></trkpt><trkpt lat="44.31348955199166" lon="11.191236349828445"><ele>299.0</ele><time>2026-04-04T08:05:38Z</time></trkpt><trkpt lat="44.313408158778685" lon="11.19121025920312"><ele>299.0</ele><time>2026-04-04T08:05:39Z</time></trkpt><trkpt lat="44.31332314983276" lon="11.19128352497152"><ele>299.0</ele><time>2026-04-04T08:05:40Z</time></trkpt><trkpt lat="44.31324929769636" lon="11.1913623267305"><ele>299.0</ele><time>2026-04-04T08:05:41Z</time></trkpt><trkpt lat="44.313169478524735" lon="11.191465773291373"><ele>299.0</ele><time>2026-04-04T08:05:42Z</time></trkpt><trkpt lat="44.31305968536081" lon="11.191567251172076"><ele>299.0</ele><time>2026-04-04T08:05:43Z</time></trkpt><trkpt lat="44.31295668169268" lon="11.191671089541845"><ele>299.0</ele><time>2026-04-04T08:05:44Z</time></trkpt><trkpt lat="44.31284737704669" lon="11.191757885733143"><ele>306.79999999999995</ele><time>2026-04-04T08:05:45Z</time></trkpt><trkpt lat="44.312735345665494" lon="11.19184278648314"><ele>314.59999999999997</ele><time>2026-04-04T08:05:46Z</time></trkpt><trkpt lat="44.31264498856724" lon="11.191913203065722"><ele>322.4</ele><time>2026-04-04T08:05:47Z</time></trkpt><trkpt lat="44.31256262468918" lon="11.191964339375446"><ele>330.2</ele><time>2026-04-04T08:05:48Z</time></trkpt><trkpt lat="44.3124987408988" lon="11.191988498232282"><ele>338.0</ele><time>2026-04-04T08:05:49Z</time></trkpt><trkpt lat="44.31242562671787" lon="11.191970756440409"><ele>338.0</ele><time>2026-04-04T08:05:50Z</time></trkpt><trkpt lat="44.312362683156984" lon="11.191908721777718"><ele>338.0</ele><time>2026-04-04T08:05:51Z</time></trkpt><trkpt lat="44.31231427543557" lon="11.191814800952622"><ele>338.0</ele><time>2026-04-04T08:05:51.999Z</time></trkpt><trkpt lat="44.312274244833525" lon="11.191686428536423"><ele>338.0</ele><time>2026-04-04T08:05:52.999Z</time></trkpt><trkpt lat="44.31223490492235" lon="11.191545797076925"><ele>338.0</ele><time>2026-04-04T08:05:53.999Z</time></trkpt><trkpt lat="44.31218045032005" lon="11.191395086222522"><ele>336.0</ele><time>2026-04-04T08:05:54.999Z</time></trkpt><trkpt lat="44.31213772089743" lon="11.191246683635988"><ele>334.0</ele><time>2026-04-04T08:05:55.999Z</time></trkpt><trkpt lat="44.31209490035882" lon="11.191131467790942"><ele>332.0</ele><time>2026-04-04T08:05:56.999Z</time></trkpt><trkpt lat="44.31205182505461" lon="11.191057130941555"><ele>330.0</ele><time>2026-04-04T08:05:57.999Z</time></trkpt><trkpt lat="44.31199338355648" lon="11.191011830250693"><ele>328.0</ele><time>2026-04-04T08:05:58.999Z</time></trkpt><trkpt lat="44.31189888785566" lon="11.191030712878364"><ele>326.0</ele><time>2026-04-04T08:05:59.999Z</time></trkpt><trkpt lat="44.3118308427984" lon="11.191148392502061"><ele>326.0</ele><time>2026-04-04T08:06:00.999Z</time></trkpt><trkpt lat="44.31180448846868" lon="11.19128484913676"><ele>326.0</ele><time>2026-04-04T08:06:01.999Z</time></trkpt><trkpt lat="44.31176895681268" lon="11.191413665905573"><ele>326.0</ele><time>2026-04-04T08:06:02.999Z</time></trkpt><trkpt lat="44.31173313426217" lon="11.191546879725637"><ele>326.0</ele><time>2026-04-04T08:06:03.999Z</time></trkpt><trkpt lat="44.31168132625835" lon="11.191690207112408"><ele>326.0</ele><time>2026-04-04T08:06:04.999Z</time></trkpt><trkpt lat="44.311623880667156" lon="11.191838327137926"><ele>327.20000000000005</ele><time>2026-04-04T08:06:05.999Z</time></trkpt><trkpt lat="44.31155898049998" lon="11.191995539856077"><ele>328.40000000000003</ele><time>2026-04-04T08:06:06.999Z</time></trkpt><trkpt lat="44.31150530916759" lon="11.192132335517194"><ele>329.6</ele><time>2026-04-04T08:06:07.999Z</time></trkpt><trkpt lat="44.31145875090108" lon="11.192227339542734"><ele>330.8</ele><time>2026-04-04T08:06:08.999Z</time></trkpt><trkpt lat="44.311391561399965" lon="11.192264708100954"><ele>332.0</ele><time>2026-04-04T08:06:09.999Z</time></trkpt><trkpt lat="44.31130819126435" lon="11.192239825965801"><ele>332.0</ele><time>2026-04-04T08:06:10.999Z</time></trkpt><trkpt lat="44.311217564868365" lon="11.19223431336722"><ele>332.0</ele><time>2026-04-04T08:06:11.999Z</time></trkpt><trkpt lat="44.311118083559535" lon="11.192214428911985"><ele>332.0</ele><time>2026-04-04T08:06:12.999Z</time></trkpt><trkpt lat="44.311002836239126" lon="11.192238954991046"><ele>332.0</ele><time>2026-04-04T08:06:13.999Z</time></trkpt><trkpt lat="44.310885080314975" lon="11.192306694199823"><ele>332.0</ele><time>2026-04-04T08:06:14.999Z</time></trkpt><trkpt lat="44.31075445019733" lon="11.192388187919914"><ele>333.33333333333337</ele><time>2026-04-04T08:06:15.999Z</time></trkpt><trkpt lat="44.31065932385774" lon="11.192452591254721"><ele>334.6666666666667</ele><time>2026-04-04T08:06:16.999Z</time></trkpt><trkpt lat="44.31059345352358" lon="11.192512019042592"><ele>336.0</ele><time>2026-04-04T08:06:17.999Z</time></trkpt><trkpt lat="44.310545010919334" lon="11.192582453825027"><ele>337.3333333333333</ele><time>2026-04-04T08:06:18.999Z</time></trkpt><trkpt lat="44.310515655846814" lon="11.192691142374738"><ele>338.66666666666663</ele><time>2026-04-04T08:06:19.999Z</time></trkpt><trkpt lat="44.31050839947099" lon="11.192818569044674"><ele>340.0</ele><time>2026-04-04T08:06:20.999Z</time></trkpt><trkpt lat="44.310515093967105" lon="11.192993688616744"><ele>343.3333333333333</ele><time>2026-04-04T08:06:21.999Z</time></trkpt><trkpt lat="44.3104927910837" lon="11.193191367010273"><ele>346.6666666666667</ele><time>2026-04-04T08:06:22.999Z</time></trkpt><trkpt lat="44.31047345293709" lon="11.193407435989618"><ele>350.0</ele><time>2026-04-04T08:06:23.999Z</time></trkpt><trkpt lat="44.310455943279536" lon="11.193619164173205"><ele>350.0</ele><time>2026-04-04T08:06:24.999Z</time></trkpt><trkpt lat="44.31045939680601" lon="11.19382513476499"><ele>350.0</ele><time>2026-04-04T08:06:25.999Z</time></trkpt><trkpt lat="44.31042626100817" lon="11.194006699010755"><ele>350.0</ele><time>2026-04-04T08:06:26.999Z</time></trkpt><trkpt lat="44.31042520801651" lon="11.194209715029077"><ele>350.0</ele><time>2026-04-04T08:06:27.999Z</time></trkpt><trkpt lat="44.310448974908695" lon="11.194416528576005"><ele>352.25</ele><time>2026-04-04T08:06:28.999Z</time></trkpt><trkpt lat="44.31046264861137" lon="11.19460781263174"><ele>354.5</ele><time>2026-04-04T08:06:29.999Z</time></trkpt><trkpt lat="44.31046428492162" lon="11.194782804988357"><ele>356.75</ele><time>2026-04-04T08:06:30.999Z</time></trkpt><trkpt lat="44.31045904054132" lon="11.194973327258193"><ele>359.0</ele><time>2026-04-04T08:06:31.999Z</time></trkpt><trkpt lat="44.31045369350022" lon="11.195166876145517"><ele>362.75</ele><time>2026-04-04T08:06:32.999Z</time></trkpt><trkpt lat="44.310463962271115" lon="11.195354573348347"><ele>366.5</ele><time>2026-04-04T08:06:33.999Z</time></trkpt><trkpt lat="44.31046259984604" lon="11.195536107084296"><ele>370.25</ele><time>2026-04-04T08:06:34.999Z</time></trkpt><trkpt lat="44.31048422896798" lon="11.195699195318975"><ele>374.0</ele><time>2026-04-04T08:06:35.999Z</time></trkpt><trkpt lat="44.31051392258245" lon="11.19583632417646"><ele>378.25</ele><time>2026-04-04T08:06:36.999Z</time></trkpt><trkpt lat="44.310563084688816" lon="11.195966785314866"><ele>382.5</ele><time>2026-04-04T08:06:37.999Z</time></trkpt><trkpt lat="44.310628152755726" lon="11.19609214933194"><ele>386.75</ele><time>2026-04-04T08:06:38.999Z</time></trkpt><trkpt lat="44.310688355454936" lon="11.196242995441512"><ele>391.0</ele><time>2026-04-04T08:06:39.999Z</time></trkpt><trkpt lat="44.3107499390293" lon="11.196599046823815"><ele>391.83333333333337</ele><time>2026-04-04T08:06:41.999Z</time></trkpt><trkpt lat="44.310769172062436" lon="11.196777313399373"><ele>392.6666666666667</ele><time>2026-04-04T08:06:42.999Z</time></trkpt><trkpt lat="44.310773187788385" lon="11.196919075386793"><ele>393.5</ele><time>2026-04-04T08:06:43.999Z</time></trkpt><trkpt lat="44.310733413748736" lon="11.197021278542053"><ele>394.33333333333337</ele><time>2026-04-04T08:06:45Z</time></trkpt><trkpt lat="44.310710543681814" lon="11.197109869008107"><ele>395.1666666666667</ele><time>2026-04-04T08:06:46Z</time></trkpt><trkpt lat="44.31065089304173" lon="11.197150816704614"><ele>396.0</ele><time>2026-04-04T08:06:47Z</time></trkpt><trkpt lat="44.310575109943855" lon="11.197166579512524"><ele>398.5</ele><time>2026-04-04T08:06:48Z</time></trkpt><trkpt lat="44.31049598191471" lon="11.197139583458828"><ele>401.0</ele><time>2026-04-04T08:06:49Z</time></trkpt><trkpt lat="44.31044518441105" lon="11.197036822905961"><ele>403.5</ele><time>2026-04-04T08:06:50Z</time></trkpt><trkpt lat="44.31039183915981" lon="11.1969632076551"><ele>406.0</ele><time>2026-04-04T08:06:51Z</time></trkpt><trkpt lat="44.31033408555424" lon="11.196881244818345"><ele>408.5</ele><time>2026-04-04T08:06:52Z</time></trkpt><trkpt lat="44.31027514364904" lon="11.196834849692738"><ele>411.0</ele><time>2026-04-04T08:06:53Z</time></trkpt><trkpt lat="44.310220638319365" lon="11.196883414244382"><ele>411.0</ele><time>2026-04-04T08:06:54Z</time></trkpt><trkpt lat="44.31018630623177" lon="11.196961872869606"><ele>411.0</ele><time>2026-04-04T08:06:55Z</time></trkpt><trkpt lat="44.310181963041124" lon="11.197072832940869"><ele>411.0</ele><time>2026-04-04T08:06:56Z</time></trkpt><trkpt lat="44.310234438093886" lon="11.19716753965506"><ele>411.0</ele><time>2026-04-04T08:06:57Z</time></trkpt><trkpt lat="44.31030092453568" lon="11.197282219279971"><ele>411.0</ele><time>2026-04-04T08:06:58Z</time></trkpt><trkpt lat="44.31035140943358" lon="11.197432938744583"><ele>410.0</ele><time>2026-04-04T08:06:59Z</time></trkpt><trkpt lat="44.31041343792512" lon="11.197589805879854"><ele>409.0</ele><time>2026-04-04T08:07:00Z</time></trkpt><trkpt lat="44.31048494036394" lon="11.197719190325623"><ele>408.0</ele><time>2026-04-04T08:07:01Z</time></trkpt><trkpt lat="44.31053638522811" lon="11.197850727034467"><ele>407.0</ele><time>2026-04-04T08:07:02Z</time></trkpt><trkpt lat="44.310599789652066" lon="11.197946429492987"><ele>406.0</ele><time>2026-04-04T08:07:03Z</time></trkpt><trkpt lat="44.31068319191022" lon="11.198034567975332"><ele>406.0</ele><time>2026-04-04T08:07:04Z</time></trkpt><trkpt lat="44.310755191784" lon="11.198118177537044"><ele>406.0</ele><time>2026-04-04T08:07:05Z</time></trkpt><trkpt lat="44.310821280725825" lon="11.198203478689866"><ele>406.0</ele><time>2026-04-04T08:07:06Z</time></trkpt><trkpt lat="44.31089000250598" lon="11.198287788804578"><ele>406.0</ele><time>2026-04-04T08:07:07Z</time></trkpt><trkpt lat="44.31095331244249" lon="11.198375651966584"><ele>406.0</ele><time>2026-04-04T08:07:08Z</time></trkpt><trkpt lat="44.31101640883892" lon="11.19846627592776"><ele>408.00000000000006</ele><time>2026-04-04T08:07:09Z</time></trkpt><trkpt lat="44.31108095759976" lon="11.19855396946825"><ele>410.0</ele><time>2026-04-04T08:07:10Z</time></trkpt><trkpt lat="44.311137216263475" lon="11.198638639833389"><ele>412.0</ele><time>2026-04-04T08:07:11Z</time></trkpt><trkpt lat="44.31118670643828" lon="11.198718177194165"><ele>414.0</ele><time>2026-04-04T08:07:12Z</time></trkpt><trkpt lat="44.31120755574581" lon="11.198864220321948"><ele>416.00000000000006</ele><time>2026-04-04T08:07:14Z</time></trkpt><trkpt lat="44.311155230337704" lon="11.198968839555963"><ele>418.0</ele><time>2026-04-04T08:07:16Z</time></trkpt><trkpt lat="44.311079686831874" lon="11.199052102414313"><ele>427.0</ele><time>2026-04-04T08:07:18Z</time></trkpt><trkpt lat="44.310982082432844" lon="11.199097131689872"><ele>427.0</ele><time>2026-04-04T08:07:20Z</time></trkpt><trkpt lat="44.31091080636836" lon="11.199131687969142"><ele>427.0</ele><time>2026-04-04T08:07:22Z</time></trkpt><trkpt lat="44.31085223408393" lon="11.199171716167374"><ele>427.0</ele><time>2026-04-04T08:07:24Z</time></trkpt><trkpt lat="44.31079061962115" lon="11.199135270955674"><ele>427.0</ele><time>2026-04-04T08:07:28Z</time></trkpt></trkseg><trkseg><trkpt lat="44.31067263503003" lon="11.198985684746791"><ele>418.0</ele><time>2026-04-04T08:20:50Z</time></trkpt><trkpt lat="44.31058405909191" lon="11.198884597233386"><ele>418.0</ele><time>2026-04-04T08:20:52Z</time></trkpt><trkpt lat="44.31052655836205" lon="11.198817250088396"><ele>418.0</ele><time>2026-04-04T08:20:53Z</time></trkpt><trkpt lat="44.310463877261604" lon="11.198746459620772"><ele>418.0</ele><time>2026-04-04T08:20:54Z</time></trkpt><trkpt lat="44.31040055430775" lon="11.198668705269355"><ele>418.0</ele><time>2026-04-04T08:20:55Z</time></trkpt><trkpt lat="44.31032116636008" lon="11.19858165870698"><ele>418.50000000000006</ele><time>2026-04-04T08:20:56Z</time></trkpt><trkpt lat="44.31025398395736" lon="11.198503647643145"><ele>419.0</ele><time>2026-04-04T08:20:57Z</time></trkpt><trkpt lat="44.31020561924558" lon="11.198415555457741"><ele>419.5</ele><time>2026-04-04T08:20:58Z</time></trkpt><trkpt lat="44.3101481386423" lon="11.198346259978658"><ele>420.0</ele><time>2026-04-04T08:20:59Z</time></trkpt><trkpt lat="44.31009127553969" lon="11.198277708922483"><ele>420.50000000000006</ele><time>2026-04-04T08:21:00Z</time></trkpt><trkpt lat="44.310040120784734" lon="11.19821460066718"><ele>421.0</ele><time>2026-04-04T08:21:01Z</time></trkpt><trkpt lat="44.309950485802766" lon="11.198102572897513"><ele>421.0</ele><time>2026-04-04T08:21:03Z</time></trkpt><trkpt lat="44.30986495239954" lon="11.19798978806204"><ele>421.0</ele><time>2026-04-04T08:21:05Z</time></trkpt><trkpt lat="44.309780681741515" lon="11.197870978132167"><ele>421.0</ele><time>2026-04-04T08:21:07Z</time></trkpt><trkpt lat="44.30970096842168" lon="11.197781843431377"><ele>421.0</ele><time>2026-04-04T08:21:09Z</time></trkpt><trkpt lat="44.30962614703828" lon="11.197693216306964"><ele>421.0</ele><time>2026-04-04T08:21:11Z</time></trkpt><trkpt lat="44.30953696513614" lon="11.197598701628522"><ele>422.83333333333337</ele><time>2026-04-04T08:21:13Z</time></trkpt><trkpt lat="44.30949059216233" lon="11.197530430406248"><ele>424.6666666666667</ele><time>2026-04-04T08:21:14Z</time></trkpt><trkpt lat="44.30943175111803" lon="11.197486659273425"><ele>426.5</ele><time>2026-04-04T08:21:15Z</time></trkpt><trkpt lat="44.3093714436932" lon="11.197452185106867"><ele>428.33333333333337</ele><time>2026-04-04T08:21:16Z</time></trkpt><trkpt lat="44.309310324767175" lon="11.197423216151627"><ele>430.1666666666667</ele><time>2026-04-04T08:21:17Z</time></trkpt><trkpt lat="44.309191011487634" lon="11.197379942513308"><ele>432.0</ele><time>2026-04-04T08:21:19Z</time></trkpt><trkpt lat="44.309079581253805" lon="11.197344903401477"><ele>431.20000000000005</ele><time>2026-04-04T08:21:21Z</time></trkpt><trkpt lat="44.308971841443906" lon="11.197319326974746"><ele>430.40000000000003</ele><time>2026-04-04T08:21:23Z</time></trkpt><trkpt lat="44.308848984345694" lon="11.19731091727407"><ele>429.59999999999997</ele><time>2026-04-04T08:21:25Z</time></trkpt><trkpt lat="44.3087539849682" lon="11.19729148116172"><ele>428.79999999999995</ele><time>2026-04-04T08:21:27Z</time></trkpt><trkpt lat="44.308658623904236" lon="11.197272565829794"><ele>428.0</ele><time>2026-04-04T08:21:29Z</time></trkpt><trkpt lat="44.308567866334755" lon="11.19721099868628"><ele>427.79999999999995</ele><time>2026-04-04T08:21:31Z</time></trkpt><trkpt lat="44.30850456630808" lon="11.197122625130058"><ele>427.59999999999997</ele><time>2026-04-04T08:21:33Z</time></trkpt><trkpt lat="44.30847321249321" lon="11.196993137576596"><ele>427.40000000000003</ele><time>2026-04-04T08:21:35Z</time></trkpt><trkpt lat="44.308445802912" lon="11.196860988126534"><ele>427.20000000000005</ele><time>2026-04-04T08:21:37Z</time></trkpt><trkpt lat="44.3084330255207" lon="11.196725764971838"><ele>427.0</ele><time>2026-04-04T08:21:39Z</time></trkpt><trkpt lat="44.30842014035658" lon="11.19659041818845"><ele>428.40000000000003</ele><time>2026-04-04T08:21:41Z</time></trkpt><trkpt lat="44.3084338183198" lon="11.196454248817933"><ele>429.80000000000007</ele><time>2026-04-04T08:21:43Z</time></trkpt><trkpt lat="44.30844279240886" lon="11.1963315025649"><ele>431.2</ele><time>2026-04-04T08:21:45Z</time></trkpt><trkpt lat="44.30844465422292" lon="11.196203540707135"><ele>432.6</ele><time>2026-04-04T08:21:47Z</time></trkpt><trkpt lat="44.30844747576564" lon="11.196068985303587"><ele>434.0</ele><time>2026-04-04T08:21:49Z</time></trkpt><trkpt lat="44.308420540819704" lon="11.195929682898187"><ele>434.0</ele><time>2026-04-04T08:21:51Z</time></trkpt><trkpt lat="44.308374207760764" lon="11.195804068018585"><ele>434.0</ele><time>2026-04-04T08:21:53Z</time></trkpt><trkpt lat="44.308301300847695" lon="11.19568265805084"><ele>434.0</ele><time>2026-04-04T08:21:55Z</time></trkpt><trkpt lat="44.30822762083379" lon="11.195574901210165"><ele>434.0</ele><time>2026-04-04T08:21:57Z</time></trkpt><trkpt lat="44.30815970697111" lon="11.195459165446586"><ele>434.0</ele><time>2026-04-04T08:21:59Z</time></trkpt><trkpt lat="44.308125142916694" lon="11.195345843491861"><ele>432.8333333333333</ele><time>2026-04-04T08:22:01Z</time></trkpt><trkpt lat="44.3080853797314" lon="11.195258050705801"><ele>431.66666666666663</ele><time>2026-04-04T08:22:03Z</time></trkpt><trkpt lat="44.308043805777" lon="11.195145054373357"><ele>430.5</ele><time>2026-04-04T08:22:06Z</time></trkpt><trkpt lat="44.30799413106555" lon="11.195040947663758"><ele>429.33333333333337</ele><time>2026-04-04T08:22:09Z</time></trkpt><trkpt lat="44.307952816207" lon="11.194953367265938"><ele>428.1666666666667</ele><time>2026-04-04T08:22:11Z</time></trkpt><trkpt lat="44.307920616542376" lon="11.194850128679327"><ele>427.0</ele><time>2026-04-04T08:22:13Z</time></trkpt><trkpt lat="44.30787367205896" lon="11.194746278734849"><ele>433.0</ele><time>2026-04-04T08:22:15Z</time></trkpt><trkpt lat="44.30780373184701" lon="11.194639643998434"><ele>439.0</ele><time>2026-04-04T08:22:17Z</time></trkpt><trkpt lat="44.307750294015044" lon="11.194495774919359"><ele>445.0</ele><time>2026-04-04T08:22:19Z</time></trkpt><trkpt lat="44.307683207167344" lon="11.194370455431846"><ele>451.0</ele><time>2026-04-04T08:22:21Z</time></trkpt><trkpt lat="44.307616998887035" lon="11.1942334894245"><ele>451.00000000000006</ele><time>2026-04-04T08:22:23Z</time></trkpt><trkpt lat="44.307561542856355" lon="11.194095089507192"><ele>451.0</ele><time>2026-04-04T08:22:25Z</time></trkpt><trkpt lat="44.307528835343845" lon="11.19401832433702"><ele>451.0</ele><time>2026-04-04T08:22:26Z</time></trkpt><trkpt lat="44.30750713608184" lon="11.193923986711328"><ele>451.0</ele><time>2026-04-04T08:22:28Z</time></trkpt><trkpt lat="44.307489252943334" lon="11.193797633302365"><ele>451.00000000000006</ele><time>2026-04-04T08:22:39Z</time></trkpt><trkpt lat="44.30748155346048" lon="11.193705188519234"><ele>451.0</ele><time>2026-04-04T08:22:40Z</time></trkpt><trkpt lat="44.30747222328065" lon="11.193603001087755"><ele>449.0</ele><time>2026-04-04T08:22:41Z</time></trkpt><trkpt lat="44.30743100472058" lon="11.193442494142484"><ele>447.0</ele><time>2026-04-04T08:22:43Z</time></trkpt><trkpt lat="44.307378022507045" lon="11.193371334761903"><ele>445.0</ele><time>2026-04-04T08:22:44Z</time></trkpt><trkpt lat="44.30731503256981" lon="11.193307842882945"><ele>443.0</ele><time>2026-04-04T08:22:45Z</time></trkpt><trkpt lat="44.30723597421068" lon="11.19324856742056"><ele>441.0</ele><time>2026-04-04T08:22:46Z</time></trkpt><trkpt lat="44.30715305754458" lon="11.193182453823077"><ele>443.8</ele><time>2026-04-04T08:22:47Z</time></trkpt><trkpt lat="44.307070718629625" lon="11.193094760692414"><ele>446.6</ele><time>2026-04-04T08:22:48Z</time></trkpt><trkpt lat="44.30700057996089" lon="11.192995565436318"><ele>449.4</ele><time>2026-04-04T08:22:49Z</time></trkpt><trkpt lat="44.30693872065848" lon="11.192891641603646"><ele>452.2</ele><time>2026-04-04T08:22:50Z</time></trkpt><trkpt lat="44.30687157961417" lon="11.192805425107386"><ele>455.0</ele><time>2026-04-04T08:22:51Z</time></trkpt><trkpt lat="44.30678579398973" lon="11.19274543800287"><ele>455.0</ele><time>2026-04-04T08:22:52Z</time></trkpt><trkpt lat="44.30669207714113" lon="11.19267909134623"><ele>455.0</ele><time>2026-04-04T08:22:53Z</time></trkpt><trkpt lat="44.30659364700506" lon="11.192611039069304"><ele>455.0</ele><time>2026-04-04T08:22:54Z</time></trkpt><trkpt lat="44.30649956951587" lon="11.19252777742144"><ele>455.0</ele><time>2026-04-04T08:22:55Z</time></trkpt><trkpt lat="44.306427515822634" lon="11.192472399429986"><ele>455.0</ele><time>2026-04-04T08:22:56Z</time></trkpt><trkpt lat="44.30633854226464" lon="11.192418081152177"><ele>455.4</ele><time>2026-04-04T08:22:58Z</time></trkpt><trkpt lat="44.30623007683655" lon="11.192404403404453"><ele>455.8</ele><time>2026-04-04T08:23:00Z</time></trkpt><trkpt lat="44.30611623960577" lon="11.192405463432024"><ele>456.20000000000005</ele><time>2026-04-04T08:23:02Z</time></trkpt><trkpt lat="44.30600115943594" lon="11.192438062488879"><ele>456.6</ele><time>2026-04-04T08:23:04Z</time></trkpt><trkpt lat="44.305938590023075" lon="11.192456853272466"><ele>457.0</ele><time>2026-04-04T08:23:05Z</time></trkpt><trkpt lat="44.30587040783417" lon="11.192473975670003"><ele>457.0</ele><time>2026-04-04T08:23:06Z</time></trkpt><trkpt lat="44.30580940590152" lon="11.192505332096273"><ele>457.00000000000006</ele><time>2026-04-04T08:23:07Z</time></trkpt><trkpt lat="44.305745411589726" lon="11.192509624056745"><ele>457.00000000000006</ele><time>2026-04-04T08:23:08Z</time></trkpt><trkpt lat="44.305676048017006" lon="11.192482316942353"><ele>457.0</ele><time>2026-04-04T08:23:09Z</time></trkpt><trkpt lat="44.305545500713436" lon="11.192460469191753"><ele>457.0</ele><time>2026-04-04T08:23:11Z</time></trkpt><trkpt lat="44.30541510354986" lon="11.192440158098341"><ele>457.50000000000006</ele><time>2026-04-04T08:23:13Z</time></trkpt><trkpt lat="44.30534739888262" lon="11.192432217252474"><ele>458.0</ele><time>2026-04-04T08:23:14Z</time></trkpt><trkpt lat="44.305236715879495" lon="11.19241923561465"><ele>458.5</ele><time>2026-04-04T08:23:16Z</time></trkpt><trkpt lat="44.30514927254793" lon="11.19240539767687"><ele>459.0</ele><time>2026-04-04T08:23:18Z</time></trkpt><trkpt lat="44.30505360187721" lon="11.192389585410968"><ele>459.50000000000006</ele><time>2026-04-04T08:23:37Z</time></trkpt><trkpt lat="44.30498204038394" lon="11.192392129818007"><ele>460.0</ele><time>2026-04-04T08:23:39Z</time></trkpt><trkpt lat="44.304877139442084" lon="11.192337333483817"><ele>460.0</ele><time>2026-04-04T08:23:41Z</time></trkpt><trkpt lat="44.30479568740124" lon="11.192264261084262"><ele>460.0</ele><time>2026-04-04T08:23:43Z</time></trkpt><trkpt lat="44.304723478497465" lon="11.192163323960637"><ele>460.0</ele><time>2026-04-04T08:23:45Z</time></trkpt><trkpt lat="44.304656076377626" lon="11.192056588271502"><ele>460.0</ele><time>2026-04-04T08:23:47Z</time></trkpt><trkpt lat="44.30458590500434" lon="11.19193540347151"><ele>460.0</ele><time>2026-04-04T08:23:49Z</time></trkpt><trkpt lat="44.30452538961734" lon="11.191812423873957"><ele>458.2</ele><time>2026-04-04T08:23:51Z</time></trkpt><trkpt lat="44.304455163687805" lon="11.191647586032206"><ele>456.4</ele><time>2026-04-04T08:23:53Z</time></trkpt><trkpt lat="44.30443320145309" lon="11.191548408888757"><ele>454.6</ele><time>2026-04-04T08:23:54Z</time></trkpt><trkpt lat="44.3043785297348" lon="11.191463636739602"><ele>452.8</ele><time>2026-04-04T08:23:55Z</time></trkpt><trkpt lat="44.30433047631371" lon="11.191365856836585"><ele>451.0</ele><time>2026-04-04T08:23:56Z</time></trkpt><trkpt lat="44.304285270609924" lon="11.191265230180798"><ele>451.00000000000006</ele><time>2026-04-04T08:23:57Z</time></trkpt><trkpt lat="44.30423106196394" lon="11.191190918470635"><ele>451.0</ele><time>2026-04-04T08:23:58Z</time></trkpt><trkpt lat="44.304161306438935" lon="11.191113248640095"><ele>451.0</ele><time>2026-04-04T08:23:59Z</time></trkpt><trkpt lat="44.30409867800062" lon="11.19105986666012"><ele>451.0</ele><time>2026-04-04T08:24:00Z</time></trkpt><trkpt lat="44.30401875400401" lon="11.190998157000212"><ele>451.00000000000006</ele><time>2026-04-04T08:24:01Z</time></trkpt><trkpt lat="44.303939933985575" lon="11.19094292403252"><ele>451.0</ele><time>2026-04-04T08:24:02Z</time></trkpt><trkpt lat="44.30385736164041" lon="11.19090988996596"><ele>452.83333333333337</ele><time>2026-04-04T08:24:03Z</time></trkpt><trkpt lat="44.30380375530734" lon="11.190858169366237"><ele>454.6666666666667</ele><time>2026-04-04T08:24:04Z</time></trkpt><trkpt lat="44.30372510129668" lon="11.19082746439466"><ele>456.5</ele><time>2026-04-04T08:24:06Z</time></trkpt><trkpt lat="44.30364846440004" lon="11.1908383980964"><ele>458.33333333333337</ele><time>2026-04-04T08:24:07Z</time></trkpt><trkpt lat="44.30358303576072" lon="11.190870556277961"><ele>460.1666666666667</ele><time>2026-04-04T08:24:08Z</time></trkpt><trkpt lat="44.303511850726004" lon="11.190909404406183"><ele>462.0</ele><time>2026-04-04T08:24:09Z</time></trkpt><trkpt lat="44.30342248259526" lon="11.190936820377647"><ele>462.0</ele><time>2026-04-04T08:24:10Z</time></trkpt><trkpt lat="44.30334208193599" lon="11.190956540399968"><ele>462.0</ele><time>2026-04-04T08:24:11Z</time></trkpt><trkpt lat="44.30326623732226" lon="11.19096864716168"><ele>462.0</ele><time>2026-04-04T08:24:12Z</time></trkpt><trkpt lat="44.30319718189652" lon="11.190905716490759"><ele>462.0</ele><time>2026-04-04T08:24:13Z</time></trkpt><trkpt lat="44.303139987545194" lon="11.190836191232446"><ele>462.0</ele><time>2026-04-04T08:24:14Z</time></trkpt><trkpt lat="44.30308731049806" lon="11.190755303635479"><ele>462.0</ele><time>2026-04-04T08:24:15Z</time></trkpt><trkpt lat="44.30304279846609" lon="11.190656042378802"><ele>465.40000000000003</ele><time>2026-04-04T08:24:16Z</time></trkpt><trkpt lat="44.30300095147124" lon="11.190548521936309"><ele>468.80000000000007</ele><time>2026-04-04T08:24:17Z</time></trkpt><trkpt lat="44.302948458073686" lon="11.190443035563902"><ele>472.2</ele><time>2026-04-04T08:24:18Z</time></trkpt><trkpt lat="44.302913455315874" lon="11.190306935174208"><ele>475.6</ele><time>2026-04-04T08:24:19Z</time></trkpt><trkpt lat="44.30288374324926" lon="11.190171080467335"><ele>479.0</ele><time>2026-04-04T08:24:20Z</time></trkpt><trkpt lat="44.30283319183394" lon="11.190042011782024"><ele>479.0</ele><time>2026-04-04T08:24:21Z</time></trkpt><trkpt lat="44.30278715397169" lon="11.189921220619597"><ele>479.0</ele><time>2026-04-04T08:24:22Z</time></trkpt><trkpt lat="44.302744352743375" lon="11.189806119526219"><ele>479.0</ele><time>2026-04-04T08:24:23Z</time></trkpt><trkpt lat="44.30270726304957" lon="11.189688338705231"><ele>479.0</ele><time>2026-04-04T08:24:24Z</time></trkpt><trkpt lat="44.3026723813952" lon="11.189564104644008"><ele>479.0</ele><time>2026-04-04T08:24:25Z</time></trkpt><trkpt lat="44.30263847888898" lon="11.189441530277067"><ele>479.3333333333333</ele><time>2026-04-04T08:24:26Z</time></trkpt><trkpt lat="44.30261643403184" lon="11.1893273901719"><ele>479.66666666666663</ele><time>2026-04-04T08:24:27Z</time></trkpt><trkpt lat="44.30259542102962" lon="11.18921448585277"><ele>480.0</ele><time>2026-04-04T08:24:28Z</time></trkpt><trkpt lat="44.30257104216157" lon="11.189103049441131"><ele>480.33333333333337</ele><time>2026-04-04T08:24:29Z</time></trkpt><trkpt lat="44.30253989477573" lon="11.18898772998122"><ele>480.6666666666667</ele><time>2026-04-04T08:24:30Z</time></trkpt><trkpt lat="44.30250481874975" lon="11.188883079906056"><ele>481.0</ele><time>2026-04-04T08:24:31Z</time></trkpt><trkpt lat="44.30247143207367" lon="11.18879486668143"><ele>481.00000000000006</ele><time>2026-04-04T08:24:32Z</time></trkpt><trkpt lat="44.302449940825085" lon="11.188686395116626"><ele>481.0</ele><time>2026-04-04T08:24:33Z</time></trkpt><trkpt lat="44.30241956444156" lon="11.18857841789021"><ele>481.0</ele><time>2026-04-04T08:24:34Z</time></trkpt><trkpt lat="44.30238641266572" lon="11.188473212024215"><ele>481.0</ele><time>2026-04-04T08:24:35Z</time></trkpt><trkpt lat="44.30236121847278" lon="11.188357571593153"><ele>481.00000000000006</ele><time>2026-04-04T08:24:36Z</time></trkpt><trkpt lat="44.30232280143353" lon="11.188250202812487"><ele>481.0</ele><time>2026-04-04T08:24:37Z</time></trkpt><trkpt lat="44.3022876627938" lon="11.188148198972678"><ele>479.83333333333337</ele><time>2026-04-04T08:24:38Z</time></trkpt><trkpt lat="44.30225079437472" lon="11.188044284855838"><ele>478.6666666666667</ele><time>2026-04-04T08:24:39Z</time></trkpt><trkpt lat="44.30221516690826" lon="11.18793381252783"><ele>477.5</ele><time>2026-04-04T08:24:40Z</time></trkpt><trkpt lat="44.302174230136785" lon="11.187834661346049"><ele>476.33333333333337</ele><time>2026-04-04T08:24:41Z</time></trkpt><trkpt lat="44.30213745510047" lon="11.187737817375448"><ele>475.1666666666667</ele><time>2026-04-04T08:24:42Z</time></trkpt><trkpt lat="44.30209933106726" lon="11.187636740048044"><ele>474.0</ele><time>2026-04-04T08:24:43Z</time></trkpt><trkpt lat="44.30206268851776" lon="11.187538508178646"><ele>477.0</ele><time>2026-04-04T08:24:44Z</time></trkpt><trkpt lat="44.30202431945995" lon="11.187450878756303"><ele>480.0</ele><time>2026-04-04T08:24:45Z</time></trkpt><trkpt lat="44.30199256011361" lon="11.187344134198261"><ele>483.0</ele><time>2026-04-04T08:24:46Z</time></trkpt><trkpt lat="44.30194057661416" lon="11.18726612328878"><ele>486.0</ele><time>2026-04-04T08:24:47Z</time></trkpt><trkpt lat="44.301896912057494" lon="11.18717473448413"><ele>489.0</ele><time>2026-04-04T08:24:48Z</time></trkpt><trkpt lat="44.30184296991341" lon="11.187090629454339"><ele>492.0</ele><time>2026-04-04T08:24:49Z</time></trkpt><trkpt lat="44.30180040006171" lon="11.18701344148307"><ele>492.40000000000003</ele><time>2026-04-04T08:24:50Z</time></trkpt><trkpt lat="44.30172997289959" lon="11.186887659206716"><ele>492.80000000000007</ele><time>2026-04-04T08:24:52Z</time></trkpt><trkpt lat="44.30168790970686" lon="11.186732619891666"><ele>493.2</ele><time>2026-04-04T08:24:54Z</time></trkpt><trkpt lat="44.301645362895805" lon="11.186613785095002"><ele>493.6</ele><time>2026-04-04T08:24:56Z</time></trkpt><trkpt lat="44.3016091436436" lon="11.186470935455716"><ele>494.0</ele><time>2026-04-04T08:24:58Z</time></trkpt><trkpt lat="44.30158913565122" lon="11.186315640466123"><ele>493.3333333333333</ele><time>2026-04-04T08:25:00Z</time></trkpt><trkpt lat="44.30156679961043" lon="11.186154906146994"><ele>492.66666666666663</ele><time>2026-04-04T08:25:02Z</time></trkpt><trkpt lat="44.301535649492244" lon="11.186022213080525"><ele>492.0</ele><time>2026-04-04T08:25:04Z</time></trkpt><trkpt lat="44.30151566949699" lon="11.185898447382344"><ele>491.33333333333337</ele><time>2026-04-04T08:25:06Z</time></trkpt><trkpt lat="44.3014931169601" lon="11.185815261530315"><ele>490.6666666666667</ele><time>2026-04-04T08:25:08Z</time></trkpt><trkpt lat="44.30145988563138" lon="11.185729660370733"><ele>490.0</ele><time>2026-04-04T08:25:24Z</time></trkpt><trkpt lat="44.30142105746695" lon="11.185587914070394"><ele>486.6666666666667</ele><time>2026-04-04T08:25:26Z</time></trkpt><trkpt lat="44.30137173879535" lon="11.185426019433311"><ele>483.33333333333337</ele><time>2026-04-04T08:25:28Z</time></trkpt><trkpt lat="44.30134288913941" lon="11.185334749191433"><ele>480.0</ele><time>2026-04-04T08:25:29Z</time></trkpt><trkpt lat="44.30131733387915" lon="11.185248960707762"><ele>476.66666666666663</ele><time>2026-04-04T08:25:30.001Z</time></trkpt><trkpt lat="44.30128897786688" lon="11.185157962999469"><ele>473.3333333333333</ele><time>2026-04-04T08:25:31.001Z</time></trkpt><trkpt lat="44.30126511408604" lon="11.185072539809847"><ele>470.0</ele><time>2026-04-04T08:25:32.001Z</time></trkpt><trkpt lat="44.301234048315614" lon="11.184977177473998"><ele>469.99999999999994</ele><time>2026-04-04T08:25:33.001Z</time></trkpt><trkpt lat="44.30120760925737" lon="11.184884876475929"><ele>470.0</ele><time>2026-04-04T08:25:34.001Z</time></trkpt><trkpt lat="44.30117488610357" lon="11.184706279110099"><ele>470.0</ele><time>2026-04-04T08:25:36.001Z</time></trkpt><trkpt lat="44.301149819366955" lon="11.184624252120523"><ele>470.0</ele><time>2026-04-04T08:25:37.001Z</time></trkpt><trkpt lat="44.30112305284371" lon="11.18453408092475"><ele>469.99999999999994</ele><time>2026-04-04T08:25:38.001Z</time></trkpt><trkpt lat="44.30110854745027" lon="11.18443874400864"><ele>470.0</ele><time>2026-04-04T08:25:39.001Z</time></trkpt><trkpt lat="44.3010950040639" lon="11.184351313155593"><ele>469.66666666666663</ele><time>2026-04-04T08:25:40.001Z</time></trkpt><trkpt lat="44.30108098891092" lon="11.184262028890572"><ele>469.3333333333333</ele><time>2026-04-04T08:25:41.001Z</time></trkpt><trkpt lat="44.30107002115368" lon="11.184118453768265"><ele>469.0</ele><time>2026-04-04T08:25:43.001Z</time></trkpt><trkpt lat="44.301067526441" lon="11.183993424762647"><ele>468.66666666666663</ele><time>2026-04-04T08:25:45.001Z</time></trkpt><trkpt lat="44.30105672352959" lon="11.183862483365381"><ele>468.3333333333333</ele><time>2026-04-04T08:25:47.001Z</time></trkpt><trkpt lat="44.30103670606794" lon="11.183731237107478"><ele>468.0</ele><time>2026-04-04T08:25:49Z</time></trkpt><trkpt lat="44.300959987843825" lon="11.183629955282074"><ele>467.6666666666667</ele><time>2026-04-04T08:25:51Z</time></trkpt><trkpt lat="44.30087656781606" lon="11.183531312638333"><ele>467.33333333333337</ele><time>2026-04-04T08:25:53Z</time></trkpt><trkpt lat="44.300826759602316" lon="11.183473591134002"><ele>467.0</ele><time>2026-04-04T08:25:54Z</time></trkpt><trkpt lat="44.300742670644304" lon="11.183353793986043"><ele>466.6666666666667</ele><time>2026-04-04T08:25:56Z</time></trkpt><trkpt lat="44.3007423041034" lon="11.18326087244713"><ele>466.33333333333337</ele><time>2026-04-04T08:25:57Z</time></trkpt><trkpt lat="44.30074337777151" lon="11.183159303463666"><ele>466.0</ele><time>2026-04-04T08:25:58Z</time></trkpt><trkpt lat="44.300732583391685" lon="11.183019650290435"><ele>466.0</ele><time>2026-04-04T08:25:59Z</time></trkpt><trkpt lat="44.30070326582271" lon="11.182882234788034"><ele>466.0</ele><time>2026-04-04T08:26:00Z</time></trkpt><trkpt lat="44.3006964840002" lon="11.182738576099934"><ele>466.0</ele><time>2026-04-04T08:26:01Z</time></trkpt><trkpt lat="44.30068091796039" lon="11.182618412816389"><ele>466.0</ele><time>2026-04-04T08:26:02Z</time></trkpt><trkpt lat="44.300667902267776" lon="11.182505029355983"><ele>466.0</ele><time>2026-04-04T08:26:03Z</time></trkpt><trkpt lat="44.30065263440771" lon="11.182401090879587"><ele>466.20000000000005</ele><time>2026-04-04T08:26:04Z</time></trkpt><trkpt lat="44.30060266450209" lon="11.18225050092879"><ele>466.40000000000003</ele><time>2026-04-04T08:26:06Z</time></trkpt><trkpt lat="44.30053220409608" lon="11.18214738136306"><ele>466.6</ele><time>2026-04-04T08:26:08Z</time></trkpt><trkpt lat="44.3004533553225" lon="11.182046776003078"><ele>466.8</ele><time>2026-04-04T08:26:10Z</time></trkpt><trkpt lat="44.300365199618" lon="11.181962549786977"><ele>467.0</ele><time>2026-04-04T08:26:12Z</time></trkpt><trkpt lat="44.30029037635835" lon="11.181887205509758"><ele>466.99999999999994</ele><time>2026-04-04T08:26:14Z</time></trkpt><trkpt lat="44.300230908020765" lon="11.181827078227322"><ele>467.0</ele><time>2026-04-04T08:26:16Z</time></trkpt><trkpt lat="44.3001670090431" lon="11.181748468056453"><ele>467.0</ele><time>2026-04-04T08:26:18Z</time></trkpt><trkpt lat="44.300105971922186" lon="11.181642706292626"><ele>467.0</ele><time>2026-04-04T08:26:20Z</time></trkpt><trkpt lat="44.30003613623691" lon="11.181531455077156"><ele>466.99999999999994</ele><time>2026-04-04T08:26:22Z</time></trkpt><trkpt lat="44.29998646648832" lon="11.18146489108526"><ele>467.0</ele><time>2026-04-04T08:26:23Z</time></trkpt><trkpt lat="44.29992961408163" lon="11.181410715018208"><ele>466.8333333333333</ele><time>2026-04-04T08:26:24Z</time></trkpt><trkpt lat="44.29988079777616" lon="11.181327708481511"><ele>466.66666666666663</ele><time>2026-04-04T08:26:25Z</time></trkpt><trkpt lat="44.2998213537712" lon="11.18127048936105"><ele>466.5</ele><time>2026-04-04T08:26:26Z</time></trkpt><trkpt lat="44.299749059108265" lon="11.181217658302113"><ele>466.33333333333337</ele><time>2026-04-04T08:26:27Z</time></trkpt><trkpt lat="44.29966566507611" lon="11.181180012727676"><ele>466.1666666666667</ele><time>2026-04-04T08:26:28Z</time></trkpt><trkpt lat="44.29958270610175" lon="11.181158330080512"><ele>466.0</ele><time>2026-04-04T08:26:29Z</time></trkpt><trkpt lat="44.29949950913074" lon="11.181150004093817"><ele>466.6666666666667</ele><time>2026-04-04T08:26:30Z</time></trkpt><trkpt lat="44.29942037639759" lon="11.181144891634245"><ele>467.33333333333337</ele><time>2026-04-04T08:26:31Z</time></trkpt><trkpt lat="44.29933857219139" lon="11.181143035574507"><ele>468.0</ele><time>2026-04-04T08:26:32Z</time></trkpt><trkpt lat="44.29925168524945" lon="11.181146522726838"><ele>468.66666666666663</ele><time>2026-04-04T08:26:33Z</time></trkpt><trkpt lat="44.29917053596577" lon="11.181152457862282"><ele>469.3333333333333</ele><time>2026-04-04T08:26:34Z</time></trkpt><trkpt lat="44.29908988287932" lon="11.181163527159782"><ele>470.0</ele><time>2026-04-04T08:26:35Z</time></trkpt><trkpt lat="44.29901588122891" lon="11.18118007267262"><ele>470.0</ele><time>2026-04-04T08:26:36Z</time></trkpt><trkpt lat="44.2989427154336" lon="11.181199171922058"><ele>469.99999999999994</ele><time>2026-04-04T08:26:37Z</time></trkpt><trkpt lat="44.29887171686105" lon="11.181217896563172"><ele>470.0</ele><time>2026-04-04T08:26:38Z</time></trkpt><trkpt lat="44.298796463254845" lon="11.181237017878049"><ele>470.0</ele><time>2026-04-04T08:26:39Z</time></trkpt><trkpt lat="44.298722508171934" lon="11.181254280442708"><ele>469.99999999999994</ele><time>2026-04-04T08:26:40Z</time></trkpt><trkpt lat="44.29865298947969" lon="11.181269907357283"><ele>470.0</ele><time>2026-04-04T08:26:41Z</time></trkpt><trkpt lat="44.298589844764706" lon="11.181284101340452"><ele>470.0</ele><time>2026-04-04T08:26:42Z</time></trkpt><trkpt lat="44.29852266246506" lon="11.18129920309604"><ele>470.8333333333333</ele><time>2026-04-04T08:26:43Z</time></trkpt><trkpt lat="44.298449222946765" lon="11.18131571134767"><ele>471.66666666666663</ele><time>2026-04-04T08:26:44Z</time></trkpt><trkpt lat="44.29836601768162" lon="11.181333336323059"><ele>472.5</ele><time>2026-04-04T08:26:45Z</time></trkpt><trkpt lat="44.29827540996626" lon="11.18135153544979"><ele>473.33333333333337</ele><time>2026-04-04T08:26:46Z</time></trkpt><trkpt lat="44.298190460195606" lon="11.181368598094968"><ele>474.1666666666667</ele><time>2026-04-04T08:26:47Z</time></trkpt><trkpt lat="44.29810213312783" lon="11.181385678957643"><ele>475.0</ele><time>2026-04-04T08:26:48Z</time></trkpt><trkpt lat="44.29800985651786" lon="11.181401721524503"><ele>472.50000000000006</ele><time>2026-04-04T08:26:49Z</time></trkpt><trkpt lat="44.2979169598762" lon="11.181414617530569"><ele>470.0</ele><time>2026-04-04T08:26:50Z</time></trkpt><trkpt lat="44.29783153642803" lon="11.181421949724237"><ele>467.5</ele><time>2026-04-04T08:26:51Z</time></trkpt><trkpt lat="44.297743694017825" lon="11.18142560421797"><ele>465.0</ele><time>2026-04-04T08:26:52Z</time></trkpt><trkpt lat="44.29765767723006" lon="11.181427451415868"><ele>462.50000000000006</ele><time>2026-04-04T08:26:53Z</time></trkpt><trkpt lat="44.29757347491985" lon="11.181429259650876"><ele>460.0</ele><time>2026-04-04T08:26:54Z</time></trkpt><trkpt lat="44.297497849102065" lon="11.181429918998669"><ele>460.00000000000006</ele><time>2026-04-04T08:26:55Z</time></trkpt><trkpt lat="44.29741360374319" lon="11.181429918998637"><ele>460.0</ele><time>2026-04-04T08:26:56Z</time></trkpt><trkpt lat="44.297337794100095" lon="11.18144284730613"><ele>460.0</ele><time>2026-04-04T08:26:57Z</time></trkpt><trkpt lat="44.29726436547943" lon="11.181429349663972"><ele>460.0</ele><time>2026-04-04T08:26:58Z</time></trkpt><trkpt lat="44.297186572961294" lon="11.1814290008165"><ele>460.00000000000006</ele><time>2026-04-04T08:26:59Z</time></trkpt><trkpt lat="44.29711606794513" lon="11.18142868464982"><ele>460.0</ele><time>2026-04-04T08:27:00Z</time></trkpt><trkpt lat="44.297042879804835" lon="11.181427833628394"><ele>460.6666666666667</ele><time>2026-04-04T08:27:01Z</time></trkpt><trkpt lat="44.296976933263906" lon="11.181425067798541"><ele>461.33333333333337</ele><time>2026-04-04T08:27:02Z</time></trkpt><trkpt lat="44.296913010060024" lon="11.18141909460029"><ele>462.0</ele><time>2026-04-04T08:27:03Z</time></trkpt><trkpt lat="44.296847477454385" lon="11.181410344079653"><ele>462.66666666666663</ele><time>2026-04-04T08:27:04Z</time></trkpt><trkpt lat="44.29678509127477" lon="11.181395387465482"><ele>463.3333333333333</ele><time>2026-04-04T08:27:05Z</time></trkpt><trkpt lat="44.29672446020468" lon="11.181359820051037"><ele>464.0</ele><time>2026-04-04T08:27:06Z</time></trkpt><trkpt lat="44.29662590031317" lon="11.18124550030099"><ele>463.99999999999994</ele><time>2026-04-04T08:27:08Z</time></trkpt><trkpt lat="44.296584361997915" lon="11.181173062936065"><ele>464.0</ele><time>2026-04-04T08:27:09Z</time></trkpt><trkpt lat="44.296546150013334" lon="11.18109073855735"><ele>464.0</ele><time>2026-04-04T08:27:10Z</time></trkpt><trkpt lat="44.29651898680936" lon="11.180987169355749"><ele>464.0</ele><time>2026-04-04T08:27:11Z</time></trkpt><trkpt lat="44.29649372975351" lon="11.180878013005813"><ele>463.99999999999994</ele><time>2026-04-04T08:27:12Z</time></trkpt><trkpt lat="44.29645839146134" lon="11.180762481610786"><ele>464.0</ele><time>2026-04-04T08:27:13Z</time></trkpt><trkpt lat="44.29644039568575" lon="11.180639020721253"><ele>462.3333333333333</ele><time>2026-04-04T08:27:14Z</time></trkpt><trkpt lat="44.296422914493" lon="11.180523496047163"><ele>460.66666666666663</ele><time>2026-04-04T08:27:15Z</time></trkpt><trkpt lat="44.29640951669195" lon="11.180410715368215"><ele>459.0</ele><time>2026-04-04T08:27:16Z</time></trkpt><trkpt lat="44.29639242972027" lon="11.180302622453715"><ele>457.33333333333337</ele><time>2026-04-04T08:27:17Z</time></trkpt><trkpt lat="44.2963776822066" lon="11.180198282229542"><ele>455.6666666666667</ele><time>2026-04-04T08:27:18Z</time></trkpt><trkpt lat="44.29635567626607" lon="11.180086882370816"><ele>454.0</ele><time>2026-04-04T08:27:19Z</time></trkpt><trkpt lat="44.296326892060534" lon="11.179987905287033"><ele>457.33333333333337</ele><time>2026-04-04T08:27:20Z</time></trkpt><trkpt lat="44.29630630819642" lon="11.179874086758828"><ele>460.6666666666667</ele><time>2026-04-04T08:27:21Z</time></trkpt><trkpt lat="44.296267784293924" lon="11.179774828184758"><ele>464.0</ele><time>2026-04-04T08:27:22Z</time></trkpt><trkpt lat="44.29622564700523" lon="11.17967415381087"><ele>467.33333333333337</ele><time>2026-04-04T08:27:23Z</time></trkpt><trkpt lat="44.296177661966176" lon="11.179574610805746"><ele>470.6666666666667</ele><time>2026-04-04T08:27:24Z</time></trkpt><trkpt lat="44.29613024814268" lon="11.179489464809237"><ele>474.0</ele><time>2026-04-04T08:27:25Z</time></trkpt><trkpt lat="44.29607292505708" lon="11.179414639534029"><ele>474.0</ele><time>2026-04-04T08:27:26Z</time></trkpt><trkpt lat="44.29601427748776" lon="11.179350082168462"><ele>474.0</ele><time>2026-04-04T08:27:27Z</time></trkpt><trkpt lat="44.29594484890232" lon="11.179304333233075"><ele>474.0</ele><time>2026-04-04T08:27:28Z</time></trkpt><trkpt lat="44.29587198980975" lon="11.179264623328885"><ele>474.0</ele><time>2026-04-04T08:27:29Z</time></trkpt><trkpt lat="44.29580594915453" lon="11.179236229365504"><ele>474.0</ele><time>2026-04-04T08:27:30Z</time></trkpt><trkpt lat="44.29572798803335" lon="11.179211917969242"><ele>474.0</ele><time>2026-04-04T08:27:31Z</time></trkpt><trkpt lat="44.29561952354288" lon="11.179196239098783"><ele>475.42857142857133</ele><time>2026-04-04T08:27:33Z</time></trkpt><trkpt lat="44.29554755510955" lon="11.179192336650722"><ele>476.85714285714283</ele><time>2026-04-04T08:27:34Z</time></trkpt><trkpt lat="44.29548175389488" lon="11.17919459127551"><ele>478.2857142857142</ele><time>2026-04-04T08:27:35Z</time></trkpt><trkpt lat="44.29541587279802" lon="11.17920180174184"><ele>479.71428571428567</ele><time>2026-04-04T08:27:36.001Z</time></trkpt><trkpt lat="44.29534703860709" lon="11.179217227503491"><ele>481.1428571428571</ele><time>2026-04-04T08:27:37.001Z</time></trkpt><trkpt lat="44.295280231946826" lon="11.179234192650158"><ele>482.57142857142856</ele><time>2026-04-04T08:27:38.001Z</time></trkpt><trkpt lat="44.29517658976768" lon="11.179252455965871"><ele>484.0</ele><time>2026-04-04T08:27:40.001Z</time></trkpt><trkpt lat="44.29508844818078" lon="11.179251835513094"><ele>484.00000000000006</ele><time>2026-04-04T08:27:42.001Z</time></trkpt><trkpt lat="44.29497741642584" lon="11.179233717406"><ele>484.0</ele><time>2026-04-04T08:27:44.001Z</time></trkpt><trkpt lat="44.29487053680316" lon="11.179169021593493"><ele>484.0</ele><time>2026-04-04T08:27:46.001Z</time></trkpt><trkpt lat="44.29481644120148" lon="11.179122917512224"><ele>484.0</ele><time>2026-04-04T08:27:47.001Z</time></trkpt><trkpt lat="44.29476045697715" lon="11.179068416560892"><ele>484.00000000000006</ele><time>2026-04-04T08:27:48.001Z</time></trkpt><trkpt lat="44.29470539294358" lon="11.179010584753419"><ele>484.0</ele><time>2026-04-04T08:27:49.001Z</time></trkpt><trkpt lat="44.294654915412124" lon="11.178954576834059"><ele>482.4</ele><time>2026-04-04T08:27:50.001Z</time></trkpt><trkpt lat="44.29457146192792" lon="11.178850905169734"><ele>480.79999999999995</ele><time>2026-04-04T08:27:52.001Z</time></trkpt><trkpt lat="44.294498536990154" lon="11.17873171888026"><ele>479.20000000000005</ele><time>2026-04-04T08:27:54Z</time></trkpt><trkpt lat="44.29441769321618" lon="11.178646398393393"><ele>477.6</ele><time>2026-04-04T08:27:56Z</time></trkpt><trkpt lat="44.294358606662826" lon="11.178603063059096"><ele>476.0</ele><time>2026-04-04T08:27:57Z</time></trkpt><trkpt lat="44.294288589302155" lon="11.178568474005646"><ele>475.99999999999994</ele><time>2026-04-04T08:27:58Z</time></trkpt><trkpt lat="44.294224008541036" lon="11.178528711603434"><ele>476.0</ele><time>2026-04-04T08:27:59Z</time></trkpt><trkpt lat="44.29415124591057" lon="11.17851020325445"><ele>476.0</ele><time>2026-04-04T08:28:00Z</time></trkpt><trkpt lat="44.29404832071367" lon="11.178494204582028"><ele>476.0</ele><time>2026-04-04T08:28:02Z</time></trkpt><trkpt lat="44.29397774637252" lon="11.178490127406786"><ele>475.99999999999994</ele><time>2026-04-04T08:28:03Z</time></trkpt><trkpt lat="44.29390217810538" lon="11.178498629430562"><ele>476.0</ele><time>2026-04-04T08:28:04Z</time></trkpt><trkpt lat="44.29383920396698" lon="11.178515787148983"><ele>476.4</ele><time>2026-04-04T08:28:05Z</time></trkpt><trkpt lat="44.29376978430852" lon="11.178567465817572"><ele>476.8</ele><time>2026-04-04T08:28:06Z</time></trkpt><trkpt lat="44.29365837380887" lon="11.178659738715158"><ele>477.19999999999993</ele><time>2026-04-04T08:28:08Z</time></trkpt><trkpt lat="44.29359836012526" lon="11.178715851866688"><ele>477.59999999999997</ele><time>2026-04-04T08:28:09Z</time></trkpt><trkpt lat="44.2934955533377" lon="11.178770670179555"><ele>478.0</ele><time>2026-04-04T08:28:11Z</time></trkpt><trkpt lat="44.2934043113077" lon="11.178731932861137"><ele>478.0</ele><time>2026-04-04T08:28:13Z</time></trkpt><trkpt lat="44.29333033114029" lon="11.178696178590883"><ele>477.99999999999994</ele><time>2026-04-04T08:28:14Z</time></trkpt><trkpt lat="44.2932377968943" lon="11.178636420173946"><ele>477.99999999999994</ele><time>2026-04-04T08:28:15Z</time></trkpt><trkpt lat="44.29315387646905" lon="11.178570140257172"><ele>478.0</ele><time>2026-04-04T08:28:16Z</time></trkpt><trkpt lat="44.29307217226374" lon="11.178489920213867"><ele>478.0</ele><time>2026-04-04T08:28:17Z</time></trkpt><trkpt lat="44.292997396797986" lon="11.178424839650328"><ele>478.1666666666667</ele><time>2026-04-04T08:28:18Z</time></trkpt><trkpt lat="44.292920712916654" lon="11.178380361795137"><ele>478.33333333333337</ele><time>2026-04-04T08:28:19Z</time></trkpt><trkpt lat="44.29285042991274" lon="11.178352212716625"><ele>478.5</ele><time>2026-04-04T08:28:20Z</time></trkpt><trkpt lat="44.292788334010304" lon="11.178278001039029"><ele>478.66666666666663</ele><time>2026-04-04T08:28:21Z</time></trkpt><trkpt lat="44.2927308154876" lon="11.17815344427344"><ele>478.8333333333333</ele><time>2026-04-04T08:28:23Z</time></trkpt><trkpt lat="44.29270703259333" lon="11.178064366563637"><ele>479.0</ele><time>2026-04-04T08:28:25Z</time></trkpt><trkpt lat="44.29267720742379" lon="11.177943066482966"><ele>479.0</ele><time>2026-04-04T08:28:27Z</time></trkpt><trkpt lat="44.29265107244031" lon="11.177803776630242"><ele>479.0</ele><time>2026-04-04T08:28:29Z</time></trkpt><trkpt lat="44.29258927689029" lon="11.177681079115455"><ele>479.0</ele><time>2026-04-04T08:28:31Z</time></trkpt><trkpt lat="44.29250284865405" lon="11.177554939783997"><ele>479.0</ele><time>2026-04-04T08:28:33Z</time></trkpt><trkpt lat="44.29241860256918" lon="11.177500695751931"><ele>479.0</ele><time>2026-04-04T08:28:34Z</time></trkpt><trkpt lat="44.29235588114096" lon="11.177460504011528"><ele>478.99999999999994</ele><time>2026-04-04T08:28:35Z</time></trkpt><trkpt lat="44.292287433064885" lon="11.17741591747095"><ele>479.0</ele><time>2026-04-04T08:28:36Z</time></trkpt><trkpt lat="44.292221350043505" lon="11.177369793373437"><ele>479.0</ele><time>2026-04-04T08:28:37Z</time></trkpt><trkpt lat="44.29216517679183" lon="11.177323155195682"><ele>479.0</ele><time>2026-04-04T08:28:38Z</time></trkpt><trkpt lat="44.29208277392353" lon="11.177223704062222"><ele>478.99999999999994</ele><time>2026-04-04T08:28:40Z</time></trkpt><trkpt lat="44.292024098920464" lon="11.17710848182551"><ele>479.0</ele><time>2026-04-04T08:28:42Z</time></trkpt><trkpt lat="44.291982065119704" lon="11.176968697911391"><ele>481.66666666666663</ele><time>2026-04-04T08:28:44Z</time></trkpt><trkpt lat="44.29198179950286" lon="11.176838868962069"><ele>484.3333333333333</ele><time>2026-04-04T08:28:46Z</time></trkpt><trkpt lat="44.29198599647077" lon="11.176741416470577"><ele>487.0</ele><time>2026-04-04T08:28:48Z</time></trkpt><trkpt lat="44.29186305395856" lon="11.17666974069475"><ele>489.66666666666663</ele><time>2026-04-04T08:28:54Z</time></trkpt><trkpt lat="44.29179141475777" lon="11.176640911180186"><ele>492.3333333333333</ele><time>2026-04-04T08:28:55Z</time></trkpt><trkpt lat="44.29172509404816" lon="11.176630721710412"><ele>495.0</ele><time>2026-04-04T08:28:56Z</time></trkpt><trkpt lat="44.291607695788514" lon="11.176615985808372"><ele>495.0</ele><time>2026-04-04T08:28:58Z</time></trkpt><trkpt lat="44.29149101551565" lon="11.176604748992654"><ele>495.0</ele><time>2026-04-04T08:29:00Z</time></trkpt><trkpt lat="44.29142645328474" lon="11.176624603552547"><ele>495.0</ele><time>2026-04-04T08:29:01Z</time></trkpt><trkpt lat="44.29135747441317" lon="11.176624616879783"><ele>495.0</ele><time>2026-04-04T08:29:02Z</time></trkpt><trkpt lat="44.29128250133974" lon="11.176631654343185"><ele>495.0</ele><time>2026-04-04T08:29:03Z</time></trkpt><trkpt lat="44.29120189054714" lon="11.176621614393104"><ele>495.0</ele><time>2026-04-04T08:29:04Z</time></trkpt><trkpt lat="44.291120782930584" lon="11.176664288406597"><ele>496.2</ele><time>2026-04-04T08:29:05Z</time></trkpt><trkpt lat="44.29103610464473" lon="11.176683048471038"><ele>497.4</ele><time>2026-04-04T08:29:06Z</time></trkpt><trkpt lat="44.290949839441744" lon="11.176705722767787"><ele>498.6</ele><time>2026-04-04T08:29:07Z</time></trkpt><trkpt lat="44.290859448724525" lon="11.176731879335174"><ele>499.8</ele><time>2026-04-04T08:29:08Z</time></trkpt><trkpt lat="44.29076404914938" lon="11.176725766130607"><ele>501.0</ele><time>2026-04-04T08:29:09Z</time></trkpt><trkpt lat="44.29067326594353" lon="11.176724181920388"><ele>501.8</ele><time>2026-04-04T08:29:10Z</time></trkpt><trkpt lat="44.290581982164646" lon="11.176711825494893"><ele>502.6</ele><time>2026-04-04T08:29:11Z</time></trkpt><trkpt lat="44.290496225875614" lon="11.176674994188874"><ele>503.4</ele><time>2026-04-04T08:29:12Z</time></trkpt><trkpt lat="44.290411761851004" lon="11.176616414486597"><ele>504.2</ele><time>2026-04-04T08:29:13Z</time></trkpt><trkpt lat="44.29032527929333" lon="11.176547000822252"><ele>505.0</ele><time>2026-04-04T08:29:14Z</time></trkpt><trkpt lat="44.290238924939075" lon="11.176464321109302"><ele>505.0</ele><time>2026-04-04T08:29:15Z</time></trkpt><trkpt lat="44.2901563385733" lon="11.176369491667744"><ele>505.0</ele><time>2026-04-04T08:29:16Z</time></trkpt><trkpt lat="44.29007334256004" lon="11.176269695900029"><ele>505.0</ele><time>2026-04-04T08:29:17Z</time></trkpt><trkpt lat="44.28997719634858" lon="11.176198182903596"><ele>505.0</ele><time>2026-04-04T08:29:18Z</time></trkpt><trkpt lat="44.28989530058769" lon="11.176108358885944"><ele>505.0</ele><time>2026-04-04T08:29:19Z</time></trkpt><trkpt lat="44.28981404723588" lon="11.176047368565092"><ele>501.83333333333337</ele><time>2026-04-04T08:29:20Z</time></trkpt><trkpt lat="44.289728122490644" lon="11.17600963620987"><ele>498.6666666666667</ele><time>2026-04-04T08:29:21Z</time></trkpt><trkpt lat="44.28963618763455" lon="11.176010499012818"><ele>495.5</ele><time>2026-04-04T08:29:22Z</time></trkpt><trkpt lat="44.289553055336995" lon="11.176033625596688"><ele>492.33333333333337</ele><time>2026-04-04T08:29:23Z</time></trkpt><trkpt lat="44.28947131477933" lon="11.17607683948938"><ele>489.1666666666667</ele><time>2026-04-04T08:29:24Z</time></trkpt><trkpt lat="44.28939226360228" lon="11.176122478961883"><ele>486.0</ele><time>2026-04-04T08:29:25Z</time></trkpt><trkpt lat="44.28930624224921" lon="11.176155257644147"><ele>486.0</ele><time>2026-04-04T08:29:26Z</time></trkpt><trkpt lat="44.28923605514844" lon="11.176235304853883"><ele>486.0</ele><time>2026-04-04T08:29:27Z</time></trkpt><trkpt lat="44.289155035585395" lon="11.176290591818283"><ele>486.0</ele><time>2026-04-04T08:29:28Z</time></trkpt><trkpt lat="44.28907163658016" lon="11.176337731590742"><ele>486.0</ele><time>2026-04-04T08:29:29Z</time></trkpt><trkpt lat="44.28898708876736" lon="11.17636273249377"><ele>486.0</ele><time>2026-04-04T08:29:30Z</time></trkpt><trkpt lat="44.288916012145876" lon="11.176387561720384"><ele>486.0</ele><time>2026-04-04T08:29:31Z</time></trkpt><trkpt lat="44.288841551631485" lon="11.176383769907101"><ele>480.8</ele><time>2026-04-04T08:29:32Z</time></trkpt><trkpt lat="44.28876861853358" lon="11.17634196852392"><ele>475.6</ele><time>2026-04-04T08:29:33Z</time></trkpt><trkpt lat="44.28869330785146" lon="11.176278007185095"><ele>470.4</ele><time>2026-04-04T08:29:34Z</time></trkpt><trkpt lat="44.28861360190903" lon="11.176208562527767"><ele>465.2</ele><time>2026-04-04T08:29:35Z</time></trkpt><trkpt lat="44.288530001044926" lon="11.17612990114641"><ele>460.0</ele><time>2026-04-04T08:29:36Z</time></trkpt><trkpt lat="44.28845316026283" lon="11.176036247065017"><ele>460.0</ele><time>2026-04-04T08:29:37Z</time></trkpt><trkpt lat="44.288385979207426" lon="11.175969392665627"><ele>460.0</ele><time>2026-04-04T08:29:38Z</time></trkpt><trkpt lat="44.28830483008571" lon="11.175850837421274"><ele>460.0</ele><time>2026-04-04T08:29:40Z</time></trkpt><trkpt lat="44.28832228676119" lon="11.175696352350382"><ele>460.0</ele><time>2026-04-04T08:29:42.001Z</time></trkpt><trkpt lat="44.28835026913631" lon="11.17559624404953"><ele>460.0</ele><time>2026-04-04T08:29:43.001Z</time></trkpt><trkpt lat="44.28838232502299" lon="11.17547381820672"><ele>461.4</ele><time>2026-04-04T08:29:44.001Z</time></trkpt><trkpt lat="44.28839388187288" lon="11.175346628772235"><ele>462.8</ele><time>2026-04-04T08:29:45.001Z</time></trkpt><trkpt lat="44.28836578230598" lon="11.175222502717371"><ele>464.20000000000005</ele><time>2026-04-04T08:29:46.001Z</time></trkpt><trkpt lat="44.28833928962817" lon="11.175065448520638"><ele>465.6</ele><time>2026-04-04T08:29:47.001Z</time></trkpt><trkpt lat="44.288279918496464" lon="11.174879035847042"><ele>467.0</ele><time>2026-04-04T08:29:48.001Z</time></trkpt><trkpt lat="44.28821447017323" lon="11.17466509780547"><ele>468.75</ele><time>2026-04-04T08:29:49.001Z</time></trkpt><trkpt lat="44.28815833726972" lon="11.17446467742887"><ele>470.5</ele><time>2026-04-04T08:29:50.001Z</time></trkpt><trkpt lat="44.288114757702466" lon="11.17428953116501"><ele>472.25</ele><time>2026-04-04T08:29:51.001Z</time></trkpt><trkpt lat="44.28807470229645" lon="11.174149256917882"><ele>474.0</ele><time>2026-04-04T08:29:52.001Z</time></trkpt><trkpt lat="44.28804153240775" lon="11.17403400870715"><ele>475.0</ele><time>2026-04-04T08:29:53.001Z</time></trkpt><trkpt lat="44.287999865501334" lon="11.173949762633788"><ele>476.0</ele><time>2026-04-04T08:29:54.001Z</time></trkpt><trkpt lat="44.287934791116065" lon="11.173864956810752"><ele>477.0</ele><time>2026-04-04T08:29:55.001Z</time></trkpt><trkpt lat="44.28781559003259" lon="11.173830888387096"><ele>478.0</ele><time>2026-04-04T08:29:56Z</time></trkpt><trkpt lat="44.28767696828117" lon="11.173795527709983"><ele>479.0</ele><time>2026-04-04T08:29:57Z</time></trkpt><trkpt lat="44.28754535695505" lon="11.173775861639536"><ele>479.0</ele><time>2026-04-04T08:29:58Z</time></trkpt><trkpt lat="44.28741084029803" lon="11.17377713633989"><ele>479.0</ele><time>2026-04-04T08:29:59Z</time></trkpt><trkpt lat="44.287267336094274" lon="11.173795001138455"><ele>479.0</ele><time>2026-04-04T08:30:00Z</time></trkpt><trkpt lat="44.28711043420993" lon="11.173817204219567"><ele>479.0</ele><time>2026-04-04T08:30:01Z</time></trkpt><trkpt lat="44.28694638492858" lon="11.173842095074027"><ele>481.75</ele><time>2026-04-04T08:30:02Z</time></trkpt><trkpt lat="44.28680637874322" lon="11.173864008457278"><ele>484.5</ele><time>2026-04-04T08:30:03Z</time></trkpt><trkpt lat="44.28667447622222" lon="11.173904518171259"><ele>487.25</ele><time>2026-04-04T08:30:04Z</time></trkpt><trkpt lat="44.28655162897013" lon="11.173934176184131"><ele>490.0</ele><time>2026-04-04T08:30:05Z</time></trkpt><trkpt lat="44.28644375686566" lon="11.173980797070897"><ele>491.6</ele><time>2026-04-04T08:30:06Z</time></trkpt><trkpt lat="44.286344276856646" lon="11.174014684801735"><ele>493.2</ele><time>2026-04-04T08:30:07Z</time></trkpt><trkpt lat="44.28627207483733" lon="11.17403506257706"><ele>494.79999999999995</ele><time>2026-04-04T08:30:08Z</time></trkpt><trkpt lat="44.28618478633066" lon="11.174026125560085"><ele>496.4</ele><time>2026-04-04T08:30:09Z</time></trkpt><trkpt lat="44.28608782442355" lon="11.17400456709784"><ele>498.0</ele><time>2026-04-04T08:30:10Z</time></trkpt><trkpt lat="44.28598934199587" lon="11.173961194524413"><ele>498.0</ele><time>2026-04-04T08:30:11Z</time></trkpt><trkpt lat="44.2858963179823" lon="11.173899473080896"><ele>497.99999999999994</ele><time>2026-04-04T08:30:12Z</time></trkpt><trkpt lat="44.2858112993721" lon="11.173816788202823"><ele>497.99999999999994</ele><time>2026-04-04T08:30:13Z</time></trkpt><trkpt lat="44.2857456305945" lon="11.173697229819608"><ele>498.0</ele><time>2026-04-04T08:30:14Z</time></trkpt><trkpt lat="44.28567321721511" lon="11.173579420115395"><ele>498.0</ele><time>2026-04-04T08:30:15Z</time></trkpt><trkpt lat="44.28559448764093" lon="11.173455301411266"><ele>496.59999999999997</ele><time>2026-04-04T08:30:16Z</time></trkpt><trkpt lat="44.28549597884529" lon="11.173347239952522"><ele>495.19999999999993</ele><time>2026-04-04T08:30:17Z</time></trkpt><trkpt lat="44.285417458070306" lon="11.173224502690353"><ele>493.8</ele><time>2026-04-04T08:30:18Z</time></trkpt><trkpt lat="44.28534117361721" lon="11.17312480515396"><ele>492.4</ele><time>2026-04-04T08:30:19Z</time></trkpt><trkpt lat="44.28527294815983" lon="11.173033527806464"><ele>491.0</ele><time>2026-04-04T08:30:20Z</time></trkpt><trkpt lat="44.28520780400864" lon="11.17294960883321"><ele>490.99999999999994</ele><time>2026-04-04T08:30:21Z</time></trkpt><trkpt lat="44.28513608715144" lon="11.172878670544907"><ele>491.0</ele><time>2026-04-04T08:30:22Z</time></trkpt><trkpt lat="44.28506113795196" lon="11.172811522573895"><ele>491.0</ele><time>2026-04-04T08:30:23Z</time></trkpt><trkpt lat="44.285001015760876" lon="11.172731210703365"><ele>491.0</ele><time>2026-04-04T08:30:24Z</time></trkpt><trkpt lat="44.28494405370842" lon="11.172693742219092"><ele>490.99999999999994</ele><time>2026-04-04T08:30:25Z</time></trkpt><trkpt lat="44.28488514396606" lon="11.17256506462585"><ele>491.0</ele><time>2026-04-04T08:30:27Z</time></trkpt><trkpt lat="44.28488138102043" lon="11.17238900655985"><ele>489.8</ele><time>2026-04-04T08:30:29Z</time></trkpt><trkpt lat="44.284888307421525" lon="11.172289105465804"><ele>488.6</ele><time>2026-04-04T08:30:30Z</time></trkpt><trkpt lat="44.284881019441755" lon="11.172162996986966"><ele>487.4</ele><time>2026-04-04T08:30:31Z</time></trkpt><trkpt lat="44.28490277476115" lon="11.172036785251326"><ele>486.2</ele><time>2026-04-04T08:30:32Z</time></trkpt><trkpt lat="44.28493185982071" lon="11.171897219925388"><ele>485.0</ele><time>2026-04-04T08:30:33Z</time></trkpt><trkpt lat="44.28494851472124" lon="11.171743561240476"><ele>485.0</ele><time>2026-04-04T08:30:34Z</time></trkpt><trkpt lat="44.284952489011225" lon="11.171572683665797"><ele>485.0</ele><time>2026-04-04T08:30:35Z</time></trkpt><trkpt lat="44.28495189438339" lon="11.171393989611651"><ele>485.0</ele><time>2026-04-04T08:30:36Z</time></trkpt><trkpt lat="44.28494714736968" lon="11.171214210324495"><ele>485.0</ele><time>2026-04-04T08:30:37Z</time></trkpt><trkpt lat="44.28493563723945" lon="11.171037282461766"><ele>484.75</ele><time>2026-04-04T08:30:38Z</time></trkpt><trkpt lat="44.284918812456525" lon="11.170863073797006"><ele>484.5</ele><time>2026-04-04T08:30:39Z</time></trkpt><trkpt lat="44.284894249665754" lon="11.17069233083396"><ele>484.25</ele><time>2026-04-04T08:30:40Z</time></trkpt><trkpt lat="44.284876736375104" lon="11.170528453789816"><ele>484.0</ele><time>2026-04-04T08:30:41Z</time></trkpt><trkpt lat="44.28484238259651" lon="11.170385064280781"><ele>483.4</ele><time>2026-04-04T08:30:42Z</time></trkpt><trkpt lat="44.28480940060639" lon="11.170254008808111"><ele>482.79999999999995</ele><time>2026-04-04T08:30:43Z</time></trkpt><trkpt lat="44.28476072101926" lon="11.170142401640808"><ele>482.20000000000005</ele><time>2026-04-04T08:30:44Z</time></trkpt><trkpt lat="44.28468971297482" lon="11.170034193301417"><ele>481.6</ele><time>2026-04-04T08:30:45Z</time></trkpt><trkpt lat="44.284575895092075" lon="11.16998379958565"><ele>481.0</ele><time>2026-04-04T08:30:46Z</time></trkpt><trkpt lat="44.28445878617057" lon="11.169921570958962"><ele>489.25</ele><time>2026-04-04T08:30:47Z</time></trkpt><trkpt lat="44.28433431713573" lon="11.16984172345858"><ele>497.5</ele><time>2026-04-04T08:30:48Z</time></trkpt><trkpt lat="44.284202186850564" lon="11.169804755861298"><ele>505.75</ele><time>2026-04-04T08:30:49Z</time></trkpt><trkpt lat="44.2840789437218" lon="11.169749873141539"><ele>514.0</ele><time>2026-04-04T08:30:50Z</time></trkpt><trkpt lat="44.28396009207156" lon="11.169691193608562"><ele>516.4</ele><time>2026-04-04T08:30:51Z</time></trkpt><trkpt lat="44.283835885411236" lon="11.169692868387028"><ele>518.8</ele><time>2026-04-04T08:30:52Z</time></trkpt><trkpt lat="44.28372558444109" lon="11.169689909839585"><ele>521.2</ele><time>2026-04-04T08:30:53Z</time></trkpt><trkpt lat="44.28362047074826" lon="11.16968275707175"><ele>523.6</ele><time>2026-04-04T08:30:54Z</time></trkpt><trkpt lat="44.283525157527116" lon="11.169711025224368"><ele>526.0</ele><time>2026-04-04T08:30:55Z</time></trkpt><trkpt lat="44.283441170516916" lon="11.169768468181802"><ele>526.0</ele><time>2026-04-04T08:30:56Z</time></trkpt><trkpt lat="44.283370500390284" lon="11.169847796863602"><ele>526.0</ele><time>2026-04-04T08:30:57Z</time></trkpt><trkpt lat="44.283338208574335" lon="11.169988744320204"><ele>526.0</ele><time>2026-04-04T08:30:58Z</time></trkpt><trkpt lat="44.2832655297193" lon="11.170058270999464"><ele>526.0</ele><time>2026-04-04T08:30:59Z</time></trkpt><trkpt lat="44.28321472075334" lon="11.170111295625299"><ele>526.0</ele><time>2026-04-04T08:31:00Z</time></trkpt><trkpt lat="44.28314309362689" lon="11.170149402943727"><ele>526.0</ele><time>2026-04-04T08:31:01Z</time></trkpt><trkpt lat="44.283057684814146" lon="11.170182561434869"><ele>527.4</ele><time>2026-04-04T08:31:02Z</time></trkpt><trkpt lat="44.282957233172695" lon="11.170212787450069"><ele>528.8</ele><time>2026-04-04T08:31:03Z</time></trkpt><trkpt lat="44.282851848159446" lon="11.170206224822085"><ele>530.1999999999999</ele><time>2026-04-04T08:31:04Z</time></trkpt><trkpt lat="44.282755013013734" lon="11.170214490713509"><ele>531.6</ele><time>2026-04-04T08:31:05Z</time></trkpt><trkpt lat="44.28267643412994" lon="11.170247408782645"><ele>533.0</ele><time>2026-04-04T08:31:06Z</time></trkpt><trkpt lat="44.28262006789854" lon="11.170388297416533"><ele>533.0</ele><time>2026-04-04T08:31:07Z</time></trkpt><trkpt lat="44.28258002690126" lon="11.170511908494282"><ele>533.0</ele><time>2026-04-04T08:31:08Z</time></trkpt><trkpt lat="44.28252948897454" lon="11.170602490162215"><ele>533.0</ele><time>2026-04-04T08:31:09Z</time></trkpt><trkpt lat="44.28245919320105" lon="11.170689551922694"><ele>533.0</ele><time>2026-04-04T08:31:10Z</time></trkpt><trkpt lat="44.28234175052452" lon="11.170719654381168"><ele>533.0</ele><time>2026-04-04T08:31:11Z</time></trkpt><trkpt lat="44.28223291437262" lon="11.170800856406158"><ele>531.1666666666666</ele><time>2026-04-04T08:31:12Z</time></trkpt><trkpt lat="44.28215671586112" lon="11.170905673458977"><ele>529.3333333333333</ele><time>2026-04-04T08:31:13Z</time></trkpt><trkpt lat="44.282090810158515" lon="11.170979469069362"><ele>527.5</ele><time>2026-04-04T08:31:14Z</time></trkpt><trkpt lat="44.28202260631898" lon="11.171001219970327"><ele>525.6666666666666</ele><time>2026-04-04T08:31:15Z</time></trkpt><trkpt lat="44.28194496147011" lon="11.170988891174202"><ele>523.8333333333334</ele><time>2026-04-04T08:31:16Z</time></trkpt><trkpt lat="44.28185458358272" lon="11.17094165783942"><ele>522.0</ele><time>2026-04-04T08:31:17Z</time></trkpt><trkpt lat="44.28176356330029" lon="11.17089292252939"><ele>522.0</ele><time>2026-04-04T08:31:18Z</time></trkpt><trkpt lat="44.281688089678454" lon="11.170876981631732"><ele>522.0</ele><time>2026-04-04T08:31:19Z</time></trkpt><trkpt lat="44.28160470464442" lon="11.170887123157202"><ele>522.0</ele><time>2026-04-04T08:31:20Z</time></trkpt><trkpt lat="44.2815328610881" lon="11.171009018321891"><ele>522.0</ele><time>2026-04-04T08:31:21Z</time></trkpt><trkpt lat="44.28146265312777" lon="11.1710961634406"><ele>522.0</ele><time>2026-04-04T08:31:22Z</time></trkpt><trkpt lat="44.28141250868537" lon="11.17116918237716"><ele>522.0</ele><time>2026-04-04T08:31:23Z</time></trkpt><trkpt lat="44.28136066966197" lon="11.171236093581644"><ele>524.8333333333334</ele><time>2026-04-04T08:31:24Z</time></trkpt><trkpt lat="44.281303998020874" lon="11.171279114024626"><ele>527.6666666666666</ele><time>2026-04-04T08:31:25Z</time></trkpt><trkpt lat="44.28121223793786" lon="11.17124959189947"><ele>530.5</ele><time>2026-04-04T08:31:25.999Z</time></trkpt><trkpt lat="44.28112102510854" lon="11.171272763038282"><ele>533.3333333333333</ele><time>2026-04-04T08:31:26.999Z</time></trkpt><trkpt lat="44.28102985752741" lon="11.171292083710716"><ele>536.1666666666666</ele><time>2026-04-04T08:31:27.999Z</time></trkpt><trkpt lat="44.28093930257832" lon="11.171300752609042"><ele>539.0</ele><time>2026-04-04T08:31:28.999Z</time></trkpt><trkpt lat="44.28085077929464" lon="11.171287825272131"><ele>539.0</ele><time>2026-04-04T08:31:29.999Z</time></trkpt><trkpt lat="44.28075748314223" lon="11.171305957227084"><ele>539.0</ele><time>2026-04-04T08:31:30.999Z</time></trkpt><trkpt lat="44.280661714872025" lon="11.171282492172274"><ele>539.0</ele><time>2026-04-04T08:31:31.999Z</time></trkpt><trkpt lat="44.28057155250044" lon="11.171277425266513"><ele>539.0</ele><time>2026-04-04T08:31:32.999Z</time></trkpt><trkpt lat="44.280485516536054" lon="11.171255626443454"><ele>539.0</ele><time>2026-04-04T08:31:33.999Z</time></trkpt><trkpt lat="44.28040459805656" lon="11.171223788141923"><ele>538.8333333333333</ele><time>2026-04-04T08:31:34.999Z</time></trkpt><trkpt lat="44.280321528228846" lon="11.171202672414362"><ele>538.6666666666666</ele><time>2026-04-04T08:31:35.999Z</time></trkpt><trkpt lat="44.28024799424764" lon="11.171211330389252"><ele>538.5</ele><time>2026-04-04T08:31:36.999Z</time></trkpt><trkpt lat="44.28016599336456" lon="11.171218909744105"><ele>538.3333333333334</ele><time>2026-04-04T08:31:37.999Z</time></trkpt><trkpt lat="44.28008718543733" lon="11.171227076769108"><ele>538.1666666666667</ele><time>2026-04-04T08:31:38.999Z</time></trkpt><trkpt lat="44.280002379029575" lon="11.171234093311064"><ele>538.0</ele><time>2026-04-04T08:31:39.999Z</time></trkpt><trkpt lat="44.27991131115439" lon="11.171234166379035"><ele>538.0</ele><time>2026-04-04T08:31:40.999Z</time></trkpt><trkpt lat="44.27982437481256" lon="11.171232578231846"><ele>538.0</ele><time>2026-04-04T08:31:41.999Z</time></trkpt><trkpt lat="44.27973322589894" lon="11.171235294208335"><ele>538.0</ele><time>2026-04-04T08:31:42.999Z</time></trkpt><trkpt lat="44.279647130393215" lon="11.171256404887105"><ele>538.0</ele><time>2026-04-04T08:31:43.999Z</time></trkpt><trkpt lat="44.279579253723135" lon="11.17130358030218"><ele>538.0</ele><time>2026-04-04T08:31:44.999Z</time></trkpt><trkpt lat="44.27953580211108" lon="11.17139977754535"><ele>538.0</ele><time>2026-04-04T08:31:45.999Z</time></trkpt><trkpt lat="44.279495551402896" lon="11.171504766787145"><ele>533.6</ele><time>2026-04-04T08:31:46.999Z</time></trkpt><trkpt lat="44.27946968265828" lon="11.171617460040714"><ele>529.1999999999999</ele><time>2026-04-04T08:31:48Z</time></trkpt><trkpt lat="44.279460880978405" lon="11.171745837308412"><ele>524.8</ele><time>2026-04-04T08:31:49Z</time></trkpt><trkpt lat="44.27946566841086" lon="11.171878655843296"><ele>520.4</ele><time>2026-04-04T08:31:50Z</time></trkpt><trkpt lat="44.27948152987654" lon="11.172021679153032"><ele>516.0</ele><time>2026-04-04T08:31:51Z</time></trkpt><trkpt lat="44.279502186682116" lon="11.172167633109297"><ele>516.0</ele><time>2026-04-04T08:31:52Z</time></trkpt><trkpt lat="44.2795297441682" lon="11.172306746732188"><ele>516.0</ele><time>2026-04-04T08:31:53Z</time></trkpt><trkpt lat="44.27954168235844" lon="11.172428661968636"><ele>516.0</ele><time>2026-04-04T08:31:54Z</time></trkpt><trkpt lat="44.27952826081734" lon="11.172535433593636"><ele>516.0</ele><time>2026-04-04T08:31:55Z</time></trkpt><trkpt lat="44.279490049110976" lon="11.17261629268451"><ele>516.0</ele><time>2026-04-04T08:31:56Z</time></trkpt><trkpt lat="44.279419402350776" lon="11.172683086433109"><ele>516.0</ele><time>2026-04-04T08:31:57Z</time></trkpt><trkpt lat="44.27932963934551" lon="11.172742055579866"><ele>515.2</ele><time>2026-04-04T08:31:58Z</time></trkpt><trkpt lat="44.27922744446563" lon="11.1728085523925"><ele>514.4000000000001</ele><time>2026-04-04T08:31:59Z</time></trkpt><trkpt lat="44.279126806634466" lon="11.172860100604744"><ele>513.6</ele><time>2026-04-04T08:32:00Z</time></trkpt><trkpt lat="44.279030971624564" lon="11.172921460861227"><ele>512.8000000000001</ele><time>2026-04-04T08:32:01Z</time></trkpt><trkpt lat="44.278952518704465" lon="11.172997017222752"><ele>512.0</ele><time>2026-04-04T08:32:02Z</time></trkpt><trkpt lat="44.27887157396755" lon="11.173025280394596"><ele>507.75</ele><time>2026-04-04T08:32:03Z</time></trkpt><trkpt lat="44.27877455442878" lon="11.173040537759256"><ele>503.5</ele><time>2026-04-04T08:32:04Z</time></trkpt><trkpt lat="44.27866053853017" lon="11.173034077307948"><ele>499.25</ele><time>2026-04-04T08:32:05Z</time></trkpt><trkpt lat="44.278535045213275" lon="11.173033027770144"><ele>495.0</ele><time>2026-04-04T08:32:06Z</time></trkpt><trkpt lat="44.27840978179127" lon="11.173021788691623"><ele>495.0</ele><time>2026-04-04T08:32:07Z</time></trkpt><trkpt lat="44.27829203397547" lon="11.173022736798666"><ele>495.0</ele><time>2026-04-04T08:32:08Z</time></trkpt><trkpt lat="44.27817397998312" lon="11.173035928527286"><ele>495.0</ele><time>2026-04-04T08:32:09Z</time></trkpt><trkpt lat="44.27806636094728" lon="11.173061297285859"><ele>495.0</ele><time>2026-04-04T08:32:10Z</time></trkpt><trkpt lat="44.27795158711082" lon="11.17308492179665"><ele>494.0</ele><time>2026-04-04T08:32:11Z</time></trkpt><trkpt lat="44.277847295855416" lon="11.173132220020621"><ele>493.0</ele><time>2026-04-04T08:32:12Z</time></trkpt><trkpt lat="44.277747175208596" lon="11.17316932382804"><ele>492.0</ele><time>2026-04-04T08:32:13Z</time></trkpt><trkpt lat="44.27765542224963" lon="11.173172488990321"><ele>491.0</ele><time>2026-04-04T08:32:14Z</time></trkpt><trkpt lat="44.277587526383904" lon="11.17318636552239"><ele>490.0</ele><time>2026-04-04T08:32:15Z</time></trkpt><trkpt lat="44.2775231623496" lon="11.173199520319427"><ele>489.0</ele><time>2026-04-04T08:32:17Z</time></trkpt><trkpt lat="44.277498282715875" lon="11.173062055754167"><ele>487.6</ele><time>2026-04-04T08:33:16.999Z</time></trkpt><trkpt lat="44.277497060705294" lon="11.172898498583619"><ele>486.2</ele><time>2026-04-04T08:33:18.999Z</time></trkpt><trkpt lat="44.27746304437683" lon="11.17279945370479"><ele>484.80000000000007</ele><time>2026-04-04T08:33:19.999Z</time></trkpt><trkpt lat="44.277407679755854" lon="11.17270627068841"><ele>483.40000000000003</ele><time>2026-04-04T08:33:20.999Z</time></trkpt><trkpt lat="44.277335385842534" lon="11.172627992342"><ele>482.0</ele><time>2026-04-04T08:33:21.999Z</time></trkpt><trkpt lat="44.277259836892384" lon="11.17255444228815"><ele>478.0</ele><time>2026-04-04T08:33:22.999Z</time></trkpt><trkpt lat="44.27719199382335" lon="11.172473693238759"><ele>474.0</ele><time>2026-04-04T08:33:23.999Z</time></trkpt><trkpt lat="44.27714232725117" lon="11.17235912860885"><ele>470.0</ele><time>2026-04-04T08:33:24.999Z</time></trkpt><trkpt lat="44.27710203094434" lon="11.172186797229665"><ele>466.0</ele><time>2026-04-04T08:33:25.999Z</time></trkpt><trkpt lat="44.2770627047981" lon="11.171992858398735"><ele>466.0</ele><time>2026-04-04T08:33:26.999Z</time></trkpt><trkpt lat="44.27702080654233" lon="11.17179099499188"><ele>466.0</ele><time>2026-04-04T08:33:27.999Z</time></trkpt><trkpt lat="44.27697818765425" lon="11.17158822151566"><ele>466.0</ele><time>2026-04-04T08:33:28.999Z</time></trkpt><trkpt lat="44.27694000382124" lon="11.171390926246952"><ele>466.0</ele><time>2026-04-04T08:33:29.999Z</time></trkpt><trkpt lat="44.2769022886928" lon="11.171199168391244"><ele>466.20000000000005</ele><time>2026-04-04T08:33:30.999Z</time></trkpt><trkpt lat="44.27686705511537" lon="11.17102208134319"><ele>466.40000000000003</ele><time>2026-04-04T08:33:31.999Z</time></trkpt><trkpt lat="44.276837784788675" lon="11.170865649548647"><ele>466.6</ele><time>2026-04-04T08:33:32.999Z</time></trkpt><trkpt lat="44.27681780548937" lon="11.17072991761943"><ele>466.8</ele><time>2026-04-04T08:33:33.999Z</time></trkpt><trkpt lat="44.27681302245767" lon="11.170617704064906"><ele>467.0</ele><time>2026-04-04T08:33:34.999Z</time></trkpt><trkpt lat="44.276830746660515" lon="11.170520511421469"><ele>466.99999999999994</ele><time>2026-04-04T08:33:35.999Z</time></trkpt><trkpt lat="44.276913891906375" lon="11.17040638171039"><ele>467.0</ele><time>2026-04-04T08:33:37.999Z</time></trkpt><trkpt lat="44.27699202354406" lon="11.170315701985809"><ele>467.0</ele><time>2026-04-04T08:33:39.999Z</time></trkpt><trkpt lat="44.27705112780415" lon="11.170263084991864"><ele>467.0</ele><time>2026-04-04T08:33:40.999Z</time></trkpt><trkpt lat="44.27711427565864" lon="11.17021162902939"><ele>466.99999999999994</ele><time>2026-04-04T08:33:41.999Z</time></trkpt><trkpt lat="44.27717759477753" lon="11.170158583103914"><ele>467.0</ele><time>2026-04-04T08:33:42.999Z</time></trkpt><trkpt lat="44.277233518299866" lon="11.170105603184942"><ele>469.16666666666663</ele><time>2026-04-04T08:33:43.999Z</time></trkpt><trkpt lat="44.27728339248991" lon="11.170036944259014"><ele>471.3333333333333</ele><time>2026-04-04T08:33:44.999Z</time></trkpt><trkpt lat="44.277337196381524" lon="11.16995941488678"><ele>473.5</ele><time>2026-04-04T08:33:45.999Z</time></trkpt><trkpt lat="44.27735352498066" lon="11.169849334415781"><ele>475.66666666666663</ele><time>2026-04-04T08:33:46.999Z</time></trkpt><trkpt lat="44.277351670132475" lon="11.169733413991672"><ele>477.8333333333333</ele><time>2026-04-04T08:33:47.999Z</time></trkpt><trkpt lat="44.27733576151142" lon="11.169626317579747"><ele>480.0</ele><time>2026-04-04T08:33:48.999Z</time></trkpt><trkpt lat="44.27726396531164" lon="11.169531232301452"><ele>480.0</ele><time>2026-04-04T08:33:49.999Z</time></trkpt><trkpt lat="44.27715995028082" lon="11.169449395698239"><ele>480.0</ele><time>2026-04-04T08:33:50.999Z</time></trkpt><trkpt lat="44.27703887775648" lon="11.169332143597398"><ele>480.0</ele><time>2026-04-04T08:33:51.999Z</time></trkpt><trkpt lat="44.27689438630551" lon="11.169220670386737"><ele>480.0</ele><time>2026-04-04T08:33:52.999Z</time></trkpt><trkpt lat="44.27673418106514" lon="11.169137994695289"><ele>480.0</ele><time>2026-04-04T08:33:54Z</time></trkpt><trkpt lat="44.27658191154166" lon="11.169066715559863"><ele>480.0</ele><time>2026-04-04T08:33:55Z</time></trkpt><trkpt lat="44.276464314202315" lon="11.168992442954284"><ele>480.0</ele><time>2026-04-04T08:33:56Z</time></trkpt><trkpt lat="44.276376526505764" lon="11.168899507372366"><ele>480.0</ele><time>2026-04-04T08:33:57Z</time></trkpt><trkpt lat="44.27629231038727" lon="11.168826186171158"><ele>483.25</ele><time>2026-04-04T08:33:58Z</time></trkpt><trkpt lat="44.2762054952179" lon="11.168775274359383"><ele>486.5</ele><time>2026-04-04T08:33:59Z</time></trkpt><trkpt lat="44.276084744656266" lon="11.168826042515848"><ele>489.75</ele><time>2026-04-04T08:34:00Z</time></trkpt><trkpt lat="44.27594816912207" lon="11.16884482938383"><ele>493.0</ele><time>2026-04-04T08:34:01Z</time></trkpt><trkpt lat="44.27583927315086" lon="11.168854754426395"><ele>493.00000000000006</ele><time>2026-04-04T08:34:02Z</time></trkpt><trkpt lat="44.27574990742184" lon="11.168847602710615"><ele>493.0</ele><time>2026-04-04T08:34:03Z</time></trkpt><trkpt lat="44.27564515771152" lon="11.168827717456367"><ele>493.0</ele><time>2026-04-04T08:34:04Z</time></trkpt><trkpt lat="44.27554155520871" lon="11.168823464813013"><ele>493.0</ele><time>2026-04-04T08:34:05Z</time></trkpt><trkpt lat="44.27547326112545" lon="11.168779736067311"><ele>493.00000000000006</ele><time>2026-04-04T08:34:06Z</time></trkpt><trkpt lat="44.275410231430456" lon="11.16877331604559"><ele>493.0</ele><time>2026-04-04T08:34:07Z</time></trkpt><trkpt lat="44.2753728450768" lon="11.168702082971231"><ele>490.25</ele><time>2026-04-04T08:34:08Z</time></trkpt><trkpt lat="44.27534585127336" lon="11.16861038891833"><ele>487.5</ele><time>2026-04-04T08:34:09Z</time></trkpt><trkpt lat="44.27531840727526" lon="11.168471289210274"><ele>484.75</ele><time>2026-04-04T08:34:10Z</time></trkpt><trkpt lat="44.27529893867697" lon="11.16827885579739"><ele>482.0</ele><time>2026-04-04T08:34:11Z</time></trkpt><trkpt lat="44.27526895082954" lon="11.16808119571757"><ele>482.0</ele><time>2026-04-04T08:34:12Z</time></trkpt><trkpt lat="44.275236216057785" lon="11.167871694721956"><ele>482.0</ele><time>2026-04-04T08:34:13Z</time></trkpt><trkpt lat="44.27513188069078" lon="11.16769081063975"><ele>482.0</ele><time>2026-04-04T08:34:14Z</time></trkpt><trkpt lat="44.27504623351565" lon="11.167501545551376"><ele>485.5</ele><time>2026-04-04T08:34:15Z</time></trkpt><trkpt lat="44.27496654813366" lon="11.167317684895584"><ele>489.0</ele><time>2026-04-04T08:34:16Z</time></trkpt><trkpt lat="44.274888179746526" lon="11.167149682429187"><ele>492.5</ele><time>2026-04-04T08:34:17Z</time></trkpt><trkpt lat="44.27483885945674" lon="11.166994990438978"><ele>496.0</ele><time>2026-04-04T08:34:18Z</time></trkpt><trkpt lat="44.27480364647801" lon="11.166865155492367"><ele>496.00000000000006</ele><time>2026-04-04T08:34:19Z</time></trkpt><trkpt lat="44.27478423595029" lon="11.166744989083156"><ele>496.0</ele><time>2026-04-04T08:34:20Z</time></trkpt><trkpt lat="44.27477908265728" lon="11.16661159358212"><ele>496.0</ele><time>2026-04-04T08:34:21Z</time></trkpt><trkpt lat="44.27478240163633" lon="11.166486407978377"><ele>496.0</ele><time>2026-04-04T08:34:22Z</time></trkpt><trkpt lat="44.27478664086009" lon="11.166378820532474"><ele>496.00000000000006</ele><time>2026-04-04T08:34:23Z</time></trkpt><trkpt lat="44.27479288800188" lon="11.16627826598366"><ele>496.0</ele><time>2026-04-04T08:34:24Z</time></trkpt><trkpt lat="44.27480649711843" lon="11.166173549051262"><ele>495.8</ele><time>2026-04-04T08:34:25Z</time></trkpt><trkpt lat="44.274836010314985" lon="11.166040684407228"><ele>495.6</ele><time>2026-04-04T08:34:26Z</time></trkpt><trkpt lat="44.27490241175992" lon="11.165899344719818"><ele>495.4</ele><time>2026-04-04T08:34:27Z</time></trkpt><trkpt lat="44.27494257886694" lon="11.16576319760035"><ele>495.2</ele><time>2026-04-04T08:34:28Z</time></trkpt><trkpt lat="44.27493165492748" lon="11.165614770655825"><ele>495.0</ele><time>2026-04-04T08:34:29Z</time></trkpt><trkpt lat="44.27487456048346" lon="11.165446392235678"><ele>492.5</ele><time>2026-04-04T08:34:30Z</time></trkpt><trkpt lat="44.27484064271496" lon="11.1652606211588"><ele>490.0</ele><time>2026-04-04T08:34:31Z</time></trkpt><trkpt lat="44.274795109757065" lon="11.165092964320406"><ele>487.5</ele><time>2026-04-04T08:34:32Z</time></trkpt><trkpt lat="44.27473529399067" lon="11.164934116230368"><ele>485.0</ele><time>2026-04-04T08:34:33Z</time></trkpt><trkpt lat="44.27470216034173" lon="11.164784287796728"><ele>491.16666666666663</ele><time>2026-04-04T08:34:34Z</time></trkpt><trkpt lat="44.27466406770227" lon="11.164662567979512"><ele>497.3333333333333</ele><time>2026-04-04T08:34:35Z</time></trkpt><trkpt lat="44.27464100443843" lon="11.164535758177058"><ele>503.5</ele><time>2026-04-04T08:34:36Z</time></trkpt><trkpt lat="44.27461255055477" lon="11.164428906613114"><ele>509.66666666666663</ele><time>2026-04-04T08:34:37Z</time></trkpt><trkpt lat="44.274615285017006" lon="11.164328455182146"><ele>515.8333333333334</ele><time>2026-04-04T08:34:38Z</time></trkpt><trkpt lat="44.274593808133076" lon="11.164244567809947"><ele>522.0</ele><time>2026-04-04T08:34:39Z</time></trkpt><trkpt lat="44.274477150487655" lon="11.164179915339368"><ele>522.0</ele><time>2026-04-04T08:34:41Z</time></trkpt><trkpt lat="44.274373368528" lon="11.164267390577523"><ele>522.0</ele><time>2026-04-04T08:34:42Z</time></trkpt><trkpt lat="44.2742857473356" lon="11.164333685250785"><ele>522.0</ele><time>2026-04-04T08:34:43Z</time></trkpt><trkpt lat="44.274213059611135" lon="11.164374350629242"><ele>522.0</ele><time>2026-04-04T08:34:44Z</time></trkpt><trkpt lat="44.27412636294495" lon="11.164390340567564"><ele>522.0</ele><time>2026-04-04T08:34:45Z</time></trkpt><trkpt lat="44.274006336282" lon="11.164350901049591"><ele>522.25</ele><time>2026-04-04T08:34:46Z</time></trkpt><trkpt lat="44.27387476760796" lon="11.164326252131037"><ele>522.5</ele><time>2026-04-04T08:34:47Z</time></trkpt><trkpt lat="44.273746020358175" lon="11.164351121210618"><ele>522.75</ele><time>2026-04-04T08:34:48Z</time></trkpt><trkpt lat="44.27360859550696" lon="11.164364355434609"><ele>523.0</ele><time>2026-04-04T08:34:49Z</time></trkpt><trkpt lat="44.27346856541691" lon="11.164374944658485"><ele>523.0</ele><time>2026-04-04T08:34:50Z</time></trkpt><trkpt lat="44.273315201382886" lon="11.16438538685782"><ele>523.0</ele><time>2026-04-04T08:34:51Z</time></trkpt><trkpt lat="44.27316606041445" lon="11.164432117087179"><ele>523.0</ele><time>2026-04-04T08:34:52Z</time></trkpt><trkpt lat="44.27303257382499" lon="11.164470752791289"><ele>523.0</ele><time>2026-04-04T08:34:53Z</time></trkpt><trkpt lat="44.272915811318626" lon="11.164505434974481"><ele>520.6</ele><time>2026-04-04T08:34:54Z</time></trkpt><trkpt lat="44.27282306041897" lon="11.164539221392825"><ele>518.1999999999999</ele><time>2026-04-04T08:34:55Z</time></trkpt><trkpt lat="44.272745574799195" lon="11.16454509304097"><ele>515.8</ele><time>2026-04-04T08:34:56Z</time></trkpt><trkpt lat="44.272639365767056" lon="11.164484397522264"><ele>513.4</ele><time>2026-04-04T08:34:58Z</time></trkpt><trkpt lat="44.27257830343943" lon="11.164403509143062"><ele>511.0</ele><time>2026-04-04T08:34:59Z</time></trkpt><trkpt lat="44.272554442924715" lon="11.164260901122825"><ele>511.0</ele><time>2026-04-04T08:35:00Z</time></trkpt><trkpt lat="44.27248712917933" lon="11.164109301226897"><ele>511.0</ele><time>2026-04-04T08:35:01Z</time></trkpt><trkpt lat="44.27244474026493" lon="11.1639574552007"><ele>511.0</ele><time>2026-04-04T08:35:02Z</time></trkpt><trkpt lat="44.272417291178215" lon="11.16383150233614"><ele>511.0</ele><time>2026-04-04T08:35:03Z</time></trkpt><trkpt lat="44.272405664411316" lon="11.163704765286345"><ele>511.0</ele><time>2026-04-04T08:35:04Z</time></trkpt><trkpt lat="44.27239870753937" lon="11.163560747777534"><ele>514.0</ele><time>2026-04-04T08:35:05Z</time></trkpt><trkpt lat="44.272393955398584" lon="11.163453947530135"><ele>517.0</ele><time>2026-04-04T08:35:05.999Z</time></trkpt><trkpt lat="44.27240861435041" lon="11.163349524839306"><ele>520.0</ele><time>2026-04-04T08:35:06.999Z</time></trkpt><trkpt lat="44.272444393102525" lon="11.163239688110739"><ele>523.0</ele><time>2026-04-04T08:35:07.999Z</time></trkpt><trkpt lat="44.27243769605106" lon="11.163150468675148"><ele>526.0</ele><time>2026-04-04T08:35:08.999Z</time></trkpt><trkpt lat="44.27238566082959" lon="11.163085024938193"><ele>529.0</ele><time>2026-04-04T08:35:09.999Z</time></trkpt><trkpt lat="44.272317678729685" lon="11.163060498337176"><ele>532.0</ele><time>2026-04-04T08:35:10.999Z</time></trkpt><trkpt lat="44.272232471173105" lon="11.163134156020122"><ele>535.0</ele><time>2026-04-04T08:35:11.999Z</time></trkpt><trkpt lat="44.27212881900065" lon="11.16316513595169"><ele>538.0</ele><time>2026-04-04T08:35:12.999Z</time></trkpt><trkpt lat="44.27202370910758" lon="11.163219523111701"><ele>541.0</ele><time>2026-04-04T08:35:13.999Z</time></trkpt><trkpt lat="44.271912682536865" lon="11.16327516518491"><ele>544.0</ele><time>2026-04-04T08:35:14.999Z</time></trkpt><trkpt lat="44.27179491923398" lon="11.1632716235595"><ele>536.75</ele><time>2026-04-04T08:35:15.999Z</time></trkpt><trkpt lat="44.27167945008698" lon="11.163272752246392"><ele>529.5</ele><time>2026-04-04T08:35:16.999Z</time></trkpt><trkpt lat="44.271559523426106" lon="11.163292337542927"><ele>522.25</ele><time>2026-04-04T08:35:17.999Z</time></trkpt><trkpt lat="44.27142970383947" lon="11.163267917053817"><ele>515.0</ele><time>2026-04-04T08:35:18.999Z</time></trkpt><trkpt lat="44.27130113456742" lon="11.163250444967561"><ele>512.0</ele><time>2026-04-04T08:35:19.999Z</time></trkpt><trkpt lat="44.271178618794785" lon="11.163212207055736"><ele>509.0</ele><time>2026-04-04T08:35:20.999Z</time></trkpt><trkpt lat="44.27106320515593" lon="11.163167726687982"><ele>506.0</ele><time>2026-04-04T08:35:21.999Z</time></trkpt><trkpt lat="44.270960081497684" lon="11.163074591421314"><ele>503.0</ele><time>2026-04-04T08:35:22.999Z</time></trkpt><trkpt lat="44.27083622310778" lon="11.162990346206515"><ele>508.0</ele><time>2026-04-04T08:35:23.999Z</time></trkpt><trkpt lat="44.2706914384779" lon="11.162941858348969"><ele>513.0</ele><time>2026-04-04T08:35:24.999Z</time></trkpt><trkpt lat="44.270533548454836" lon="11.162924512743432"><ele>518.0</ele><time>2026-04-04T08:35:25.999Z</time></trkpt><trkpt lat="44.27039154627465" lon="11.162867600042594"><ele>518.0</ele><time>2026-04-04T08:35:26.999Z</time></trkpt><trkpt lat="44.270250758347785" lon="11.162831421520615"><ele>518.0</ele><time>2026-04-04T08:35:27.999Z</time></trkpt><trkpt lat="44.2701185486168" lon="11.162804570588273"><ele>518.0</ele><time>2026-04-04T08:35:28.999Z</time></trkpt><trkpt lat="44.269985906685925" lon="11.162794064062314"><ele>518.0</ele><time>2026-04-04T08:35:29.999Z</time></trkpt><trkpt lat="44.26984598923724" lon="11.162796978630345"><ele>519.75</ele><time>2026-04-04T08:35:30.999Z</time></trkpt><trkpt lat="44.269708981637216" lon="11.162801409171877"><ele>521.5</ele><time>2026-04-04T08:35:31.999Z</time></trkpt><trkpt lat="44.26957216693008" lon="11.162805553503569"><ele>523.25</ele><time>2026-04-04T08:35:32.999Z</time></trkpt><trkpt lat="44.26943764780327" lon="11.162836896123467"><ele>525.0</ele><time>2026-04-04T08:35:33.999Z</time></trkpt><trkpt lat="44.26930380281265" lon="11.16284949225493"><ele>525.0</ele><time>2026-04-04T08:35:34.999Z</time></trkpt><trkpt lat="44.26917987587495" lon="11.162871987515471"><ele>525.0</ele><time>2026-04-04T08:35:35.999Z</time></trkpt><trkpt lat="44.269066648227444" lon="11.162912608345932"><ele>525.0</ele><time>2026-04-04T08:35:36.999Z</time></trkpt><trkpt lat="44.268955328515496" lon="11.162987316600592"><ele>525.0</ele><time>2026-04-04T08:35:37.999Z</time></trkpt><trkpt lat="44.26885730151916" lon="11.163090577717922"><ele>525.25</ele><time>2026-04-04T08:35:38.999Z</time></trkpt><trkpt lat="44.268760388607674" lon="11.163235966656949"><ele>525.5</ele><time>2026-04-04T08:35:39.999Z</time></trkpt><trkpt lat="44.26865546060386" lon="11.163367296205456"><ele>525.75</ele><time>2026-04-04T08:35:40.999Z</time></trkpt><trkpt lat="44.2685819798017" lon="11.163485457583649"><ele>526.0</ele><time>2026-04-04T08:35:41.999Z</time></trkpt><trkpt lat="44.268526172840325" lon="11.16355120055769"><ele>526.0</ele><time>2026-04-04T08:35:42.999Z</time></trkpt><trkpt lat="44.26847092488871" lon="11.163615349656869"><ele>526.0</ele><time>2026-04-04T08:35:43.999Z</time></trkpt><trkpt lat="44.26838813843197" lon="11.163637541898051"><ele>526.0</ele><time>2026-04-04T08:35:44.999Z</time></trkpt><trkpt lat="44.26828876083511" lon="11.163628409349231"><ele>526.0</ele><time>2026-04-04T08:35:45.999Z</time></trkpt><trkpt lat="44.26816639104106" lon="11.163593038977213"><ele>526.0</ele><time>2026-04-04T08:35:46.999Z</time></trkpt><trkpt lat="44.26804482191489" lon="11.163559824158126"><ele>528.6</ele><time>2026-04-04T08:35:47.999Z</time></trkpt><trkpt lat="44.26793356790111" lon="11.163546153498062"><ele>531.2</ele><time>2026-04-04T08:35:48.999Z</time></trkpt><trkpt lat="44.26782390421473" lon="11.163544219415442"><ele>533.8</ele><time>2026-04-04T08:35:49.999Z</time></trkpt><trkpt lat="44.267708313554024" lon="11.163544585525194"><ele>536.4</ele><time>2026-04-04T08:35:50.999Z</time></trkpt><trkpt lat="44.2676085508742" lon="11.163513463833754"><ele>539.0</ele><time>2026-04-04T08:35:51.999Z</time></trkpt><trkpt lat="44.267519280482325" lon="11.163438275894267"><ele>539.0</ele><time>2026-04-04T08:35:52.999Z</time></trkpt><trkpt lat="44.26742793383955" lon="11.163378963468736"><ele>539.0</ele><time>2026-04-04T08:35:53.999Z</time></trkpt><trkpt lat="44.267329506029505" lon="11.163297101092816"><ele>539.0</ele><time>2026-04-04T08:35:54.999Z</time></trkpt><trkpt lat="44.267226725655675" lon="11.163198782081997"><ele>539.0</ele><time>2026-04-04T08:35:55.999Z</time></trkpt><trkpt lat="44.26709321506949" lon="11.163102755028717"><ele>545.6666666666666</ele><time>2026-04-04T08:35:56.999Z</time></trkpt><trkpt lat="44.266937991960184" lon="11.163055676830629"><ele>552.3333333333334</ele><time>2026-04-04T08:35:57.999Z</time></trkpt><trkpt lat="44.26678366209925" lon="11.162986064816351"><ele>559.0</ele><time>2026-04-04T08:35:58.999Z</time></trkpt><trkpt lat="44.26665126573001" lon="11.16290252037452"><ele>559.0</ele><time>2026-04-04T08:36:00Z</time></trkpt><trkpt lat="44.26654135351719" lon="11.162821446934519"><ele>559.0</ele><time>2026-04-04T08:36:01Z</time></trkpt><trkpt lat="44.266431356140636" lon="11.16271227891373"><ele>559.0</ele><time>2026-04-04T08:36:02Z</time></trkpt><trkpt lat="44.266312007192596" lon="11.162624729941102"><ele>559.0</ele><time>2026-04-04T08:36:03Z</time></trkpt><trkpt lat="44.26617449801745" lon="11.162580099632205"><ele>561.75</ele><time>2026-04-04T08:36:04Z</time></trkpt><trkpt lat="44.26604356849527" lon="11.162512352567044"><ele>564.5</ele><time>2026-04-04T08:36:05Z</time></trkpt><trkpt lat="44.26591903069834" lon="11.162449249145109"><ele>567.25</ele><time>2026-04-04T08:36:06Z</time></trkpt><trkpt lat="44.26580499729721" lon="11.1623788224549"><ele>570.0</ele><time>2026-04-04T08:36:07Z</time></trkpt><trkpt lat="44.26570925521325" lon="11.162331681716646"><ele>570.0</ele><time>2026-04-04T08:36:08Z</time></trkpt><trkpt lat="44.26561690050337" lon="11.162276390556363"><ele>570.0</ele><time>2026-04-04T08:36:10Z</time></trkpt><trkpt lat="44.26561311676193" lon="11.162119022127843"><ele>570.0</ele><time>2026-04-04T08:36:12Z</time></trkpt><trkpt lat="44.26559663204947" lon="11.161991411263305"><ele>570.0</ele><time>2026-04-04T08:36:13Z</time></trkpt><trkpt lat="44.265590265732705" lon="11.16186037766715"><ele>570.0</ele><time>2026-04-04T08:36:14Z</time></trkpt><trkpt lat="44.265559953259455" lon="11.161686677071591"><ele>567.2</ele><time>2026-04-04T08:36:15Z</time></trkpt><trkpt lat="44.265517205190235" lon="11.16155235578415"><ele>564.4</ele><time>2026-04-04T08:36:16Z</time></trkpt><trkpt lat="44.265480724746844" lon="11.161430092900272"><ele>561.6</ele><time>2026-04-04T08:36:17Z</time></trkpt><trkpt lat="44.26545331527804" lon="11.161338464565517"><ele>558.8</ele><time>2026-04-04T08:36:18Z</time></trkpt><trkpt lat="44.2654996221952" lon="11.161150812113439"><ele>556.0</ele><time>2026-04-04T08:36:20Z</time></trkpt><trkpt lat="44.26554045363075" lon="11.161027729615315"><ele>556.0</ele><time>2026-04-04T08:36:21Z</time></trkpt><trkpt lat="44.265572196780774" lon="11.160884832179354"><ele>556.0</ele><time>2026-04-04T08:36:22Z</time></trkpt><trkpt lat="44.26558877844921" lon="11.160736106929885"><ele>556.0</ele><time>2026-04-04T08:36:23Z</time></trkpt><trkpt lat="44.26559996986762" lon="11.160619605558312"><ele>556.0</ele><time>2026-04-04T08:36:24Z</time></trkpt><trkpt lat="44.265587999228345" lon="11.16052426016014"><ele>556.0</ele><time>2026-04-04T08:36:25Z</time></trkpt><trkpt lat="44.265541236926616" lon="11.16045107335181"><ele>556.0</ele><time>2026-04-04T08:36:26Z</time></trkpt><trkpt lat="44.26548038759708" lon="11.160402667064531"><ele>560.2</ele><time>2026-04-04T08:36:27Z</time></trkpt><trkpt lat="44.26538032629683" lon="11.16041242816686"><ele>564.4000000000001</ele><time>2026-04-04T08:36:28Z</time></trkpt><trkpt lat="44.26528020744319" lon="11.1604506186581"><ele>568.6</ele><time>2026-04-04T08:36:29Z</time></trkpt><trkpt lat="44.26517816862382" lon="11.160473505212826"><ele>572.8000000000001</ele><time>2026-04-04T08:36:30Z</time></trkpt><trkpt lat="44.26507865661859" lon="11.16047111377961"><ele>577.0</ele><time>2026-04-04T08:36:31Z</time></trkpt><trkpt lat="44.264977631429495" lon="11.160456960243993"><ele>577.0</ele><time>2026-04-04T08:36:32Z</time></trkpt><trkpt lat="44.26487025976473" lon="11.160438942818976"><ele>577.0</ele><time>2026-04-04T08:36:33Z</time></trkpt><trkpt lat="44.26475559836246" lon="11.16041476587759"><ele>577.0</ele><time>2026-04-04T08:36:34Z</time></trkpt><trkpt lat="44.26463075820926" lon="11.160394713682395"><ele>577.0</ele><time>2026-04-04T08:36:35Z</time></trkpt><trkpt lat="44.264522096149854" lon="11.160449467580845"><ele>577.0</ele><time>2026-04-04T08:36:36Z</time></trkpt><trkpt lat="44.26443231598265" lon="11.16045418878701"><ele>577.0</ele><time>2026-04-04T08:36:37Z</time></trkpt><trkpt lat="44.26435273147095" lon="11.160476837196578"><ele>577.0</ele><time>2026-04-04T08:36:38Z</time></trkpt><trkpt lat="44.26428475954963" lon="11.160428400242099"><ele>577.0</ele><time>2026-04-04T08:36:39Z</time></trkpt><trkpt lat="44.26424070474805" lon="11.16033982375151"><ele>577.0</ele><time>2026-04-04T08:36:40Z</time></trkpt><trkpt lat="44.264183619894126" lon="11.160251503671699"><ele>577.0</ele><time>2026-04-04T08:36:41Z</time></trkpt><trkpt lat="44.264109356792844" lon="11.160161211267985"><ele>577.0</ele><time>2026-04-04T08:36:42Z</time></trkpt><trkpt lat="44.26403466344347" lon="11.16006337311356"><ele>577.0</ele><time>2026-04-04T08:36:43Z</time></trkpt><trkpt lat="44.26395404375151" lon="11.159969119822872"><ele>577.0</ele><time>2026-04-04T08:36:44Z</time></trkpt><trkpt lat="44.26387395811193" lon="11.159877606579084"><ele>577.0</ele><time>2026-04-04T08:36:45Z</time></trkpt><trkpt lat="44.2637984859158" lon="11.159769880634968"><ele>577.0</ele><time>2026-04-04T08:36:46Z</time></trkpt><trkpt lat="44.26369388440126" lon="11.159696795477464"><ele>577.0</ele><time>2026-04-04T08:36:47Z</time></trkpt><trkpt lat="44.26360074097444" lon="11.159588893746871"><ele>577.0</ele><time>2026-04-04T08:36:48Z</time></trkpt><trkpt lat="44.26350208528657" lon="11.159504517454359"><ele>577.0</ele><time>2026-04-04T08:36:49Z</time></trkpt><trkpt lat="44.26339537159743" lon="11.159439735880431"><ele>577.0</ele><time>2026-04-04T08:36:50Z</time></trkpt><trkpt lat="44.263308598199394" lon="11.15935115408508"><ele>577.0</ele><time>2026-04-04T08:36:51Z</time></trkpt><trkpt lat="44.263208115331835" lon="11.15927401565104"><ele>577.0</ele><time>2026-04-04T08:36:52Z</time></trkpt><trkpt lat="44.263123532374166" lon="11.1591696584454"><ele>577.0</ele><time>2026-04-04T08:36:53Z</time></trkpt><trkpt lat="44.26303363190327" lon="11.159079346948927"><ele>577.0</ele><time>2026-04-04T08:36:54Z</time></trkpt><trkpt lat="44.262938923227516" lon="11.159005649091366"><ele>577.0</ele><time>2026-04-04T08:36:55Z</time></trkpt><trkpt lat="44.2628527873105" lon="11.158919141185148"><ele>576.8000000000001</ele><time>2026-04-04T08:36:56Z</time></trkpt><trkpt lat="44.262767228552484" lon="11.158839574086386"><ele>576.6</ele><time>2026-04-04T08:36:57Z</time></trkpt><trkpt lat="44.26267948072089" lon="11.158779996801508"><ele>576.4000000000001</ele><time>2026-04-04T08:36:57.999Z</time></trkpt><trkpt lat="44.26258431881757" lon="11.158718712704525"><ele>576.2</ele><time>2026-04-04T08:36:58.999Z</time></trkpt><trkpt lat="44.26247688716023" lon="11.158638582365624"><ele>576.0</ele><time>2026-04-04T08:36:59.999Z</time></trkpt><trkpt lat="44.26236970326172" lon="11.15853694778759"><ele>574.25</ele><time>2026-04-04T08:37:00.999Z</time></trkpt><trkpt lat="44.262274383727174" lon="11.158399828771643"><ele>572.5</ele><time>2026-04-04T08:37:01.999Z</time></trkpt><trkpt lat="44.262189401991776" lon="11.158269544557175"><ele>570.75</ele><time>2026-04-04T08:37:02.999Z</time></trkpt><trkpt lat="44.26210168554694" lon="11.158173105192523"><ele>569.0</ele><time>2026-04-04T08:37:03.999Z</time></trkpt><trkpt lat="44.26202842689461" lon="11.158130356241"><ele>569.0</ele><time>2026-04-04T08:37:04.999Z</time></trkpt><trkpt lat="44.26195783379993" lon="11.15815200308532"><ele>569.0</ele><time>2026-04-04T08:37:05.999Z</time></trkpt><trkpt lat="44.2618725165494" lon="11.158189618498685"><ele>569.0</ele><time>2026-04-04T08:37:06.999Z</time></trkpt><trkpt lat="44.261754965186" lon="11.158252430545154"><ele>569.0</ele><time>2026-04-04T08:37:07.999Z</time></trkpt><trkpt lat="44.261625864709885" lon="11.158288352135765"><ele>569.0</ele><time>2026-04-04T08:37:08.999Z</time></trkpt><trkpt lat="44.26147434340662" lon="11.158293109248952"><ele>571.3333333333333</ele><time>2026-04-04T08:37:09.999Z</time></trkpt><trkpt lat="44.26132110119094" lon="11.158295692138614"><ele>573.6666666666666</ele><time>2026-04-04T08:37:10.999Z</time></trkpt><trkpt lat="44.2611742015929" lon="11.15829818529369"><ele>576.0</ele><time>2026-04-04T08:37:11.999Z</time></trkpt><trkpt lat="44.2610155757203" lon="11.158303769884066"><ele>576.0</ele><time>2026-04-04T08:37:12.999Z</time></trkpt><trkpt lat="44.26085547572448" lon="11.158310062804894"><ele>576.0</ele><time>2026-04-04T08:37:13.999Z</time></trkpt><trkpt lat="44.26069615826188" lon="11.158316953599428"><ele>576.0</ele><time>2026-04-04T08:37:14.999Z</time></trkpt><trkpt lat="44.260546668288285" lon="11.15832341933686"><ele>576.3333333333334</ele><time>2026-04-04T08:37:15.999Z</time></trkpt><trkpt lat="44.26039789666594" lon="11.158329854003714"><ele>576.6666666666667</ele><time>2026-04-04T08:37:16.999Z</time></trkpt><trkpt lat="44.260233832692954" lon="11.158338988738514"><ele>577.0</ele><time>2026-04-04T08:37:17.999Z</time></trkpt><trkpt lat="44.26006297167382" lon="11.158354302914674"><ele>577.0</ele><time>2026-04-04T08:37:18.999Z</time></trkpt><trkpt lat="44.25989313591499" lon="11.15837295415824"><ele>577.0</ele><time>2026-04-04T08:37:19.999Z</time></trkpt><trkpt lat="44.25973859451281" lon="11.158392047678923"><ele>577.0</ele><time>2026-04-04T08:37:20.999Z</time></trkpt><trkpt lat="44.25959303815271" lon="11.158413410293143"><ele>576.6</ele><time>2026-04-04T08:37:21.999Z</time></trkpt><trkpt lat="44.25946636792595" lon="11.158436794735273"><ele>576.2</ele><time>2026-04-04T08:37:22.999Z</time></trkpt><trkpt lat="44.25935337803328" lon="11.158481937475141"><ele>575.8</ele><time>2026-04-04T08:37:23.999Z</time></trkpt><trkpt lat="44.259240692315366" lon="11.15849588979718"><ele>575.4</ele><time>2026-04-04T08:37:24.999Z</time></trkpt><trkpt lat="44.259156913946306" lon="11.158511926079363"><ele>575.0</ele><time>2026-04-04T08:37:25.999Z</time></trkpt><trkpt lat="44.25907287858335" lon="11.15850240714651"><ele>575.0</ele><time>2026-04-04T08:37:26.999Z</time></trkpt><trkpt lat="44.25899752351312" lon="11.158440696003892"><ele>575.0</ele><time>2026-04-04T08:37:27.999Z</time></trkpt><trkpt lat="44.25892511943133" lon="11.158376024265356"><ele>575.0</ele><time>2026-04-04T08:37:28.999Z</time></trkpt><trkpt lat="44.25884999562188" lon="11.158309786897876"><ele>575.0</ele><time>2026-04-04T08:37:29.999Z</time></trkpt><trkpt lat="44.25879419940263" lon="11.158210874126562"><ele>575.0</ele><time>2026-04-04T08:37:30.999Z</time></trkpt><trkpt lat="44.25876230219346" lon="11.158076217886075"><ele>569.0</ele><time>2026-04-04T08:37:31.999Z</time></trkpt><trkpt lat="44.258699881782455" lon="11.157933377061903"><ele>563.0</ele><time>2026-04-04T08:37:32.999Z</time></trkpt><trkpt lat="44.258664875200935" lon="11.157801910449379"><ele>557.0</ele><time>2026-04-04T08:37:33.999Z</time></trkpt><trkpt lat="44.25863924722437" lon="11.157701228677288"><ele>551.0</ele><time>2026-04-04T08:37:34.999Z</time></trkpt><trkpt lat="44.2586205130259" lon="11.157578243980927"><ele>545.0</ele><time>2026-04-04T08:37:36.999Z</time></trkpt><trkpt lat="44.25861025269428" lon="11.157480914695201"><ele>545.0</ele><time>2026-04-04T08:37:39.999Z</time></trkpt><trkpt lat="44.25860291981891" lon="11.157373459443939"><ele>545.0</ele><time>2026-04-04T08:37:41.999Z</time></trkpt><trkpt lat="44.258600499472415" lon="11.157227584450194"><ele>545.0</ele><time>2026-04-04T08:37:43.999Z</time></trkpt><trkpt lat="44.258594607061724" lon="11.157055127366087"><ele>545.0</ele><time>2026-04-04T08:37:45.999Z</time></trkpt><trkpt lat="44.258580496683926" lon="11.156961581582216"><ele>545.0</ele><time>2026-04-04T08:37:46.999Z</time></trkpt><trkpt lat="44.25857911052938" lon="11.156870612015934"><ele>545.0</ele><time>2026-04-04T08:37:47.999Z</time></trkpt><trkpt lat="44.258553944991185" lon="11.156695968775596"><ele>545.8</ele><time>2026-04-04T08:37:49.999Z</time></trkpt><trkpt lat="44.25852275390174" lon="11.15661482394919"><ele>546.6</ele><time>2026-04-04T08:37:50.999Z</time></trkpt><trkpt lat="44.25849071078918" lon="11.156538446291345"><ele>547.4</ele><time>2026-04-04T08:37:51.999Z</time></trkpt><trkpt lat="44.258440861488396" lon="11.15638784162414"><ele>548.2</ele><time>2026-04-04T08:37:53.999Z</time></trkpt><trkpt lat="44.258383189531926" lon="11.156251400163782"><ele>549.0</ele><time>2026-04-04T08:37:55.999Z</time></trkpt><trkpt lat="44.25832994158891" lon="11.156149330053161"><ele>550.6</ele><time>2026-04-04T08:37:57.999Z</time></trkpt><trkpt lat="44.2582640701615" lon="11.15606286614904"><ele>552.2</ele><time>2026-04-04T08:37:59.999Z</time></trkpt><trkpt lat="44.25821248516134" lon="11.155911345889544"><ele>553.8000000000001</ele><time>2026-04-04T08:38:01.999Z</time></trkpt><trkpt lat="44.25820119217795" lon="11.155818244934808"><ele>555.4</ele><time>2026-04-04T08:38:02.999Z</time></trkpt><trkpt lat="44.258184627860786" lon="11.155695263458698"><ele>557.0</ele><time>2026-04-04T08:38:03.999Z</time></trkpt><trkpt lat="44.25815918015934" lon="11.155560356958382"><ele>558.8000000000001</ele><time>2026-04-04T08:38:04.999Z</time></trkpt><trkpt lat="44.25813315883071" lon="11.155437495575189"><ele>560.6</ele><time>2026-04-04T08:38:06Z</time></trkpt><trkpt lat="44.25810226676016" lon="11.155309504761243"><ele>562.4000000000001</ele><time>2026-04-04T08:38:07Z</time></trkpt><trkpt lat="44.2580711161754" lon="11.155184592138362"><ele>564.2</ele><time>2026-04-04T08:38:08Z</time></trkpt><trkpt lat="44.258038276742845" lon="11.155064343786412"><ele>566.0</ele><time>2026-04-04T08:38:09Z</time></trkpt><trkpt lat="44.25800530638655" lon="11.15494966808767"><ele>560.6666666666666</ele><time>2026-04-04T08:38:10Z</time></trkpt><trkpt lat="44.25798176695872" lon="11.154836004232672"><ele>555.3333333333333</ele><time>2026-04-04T08:38:11Z</time></trkpt><trkpt lat="44.25795813467496" lon="11.15473654798709"><ele>550.0</ele><time>2026-04-04T08:38:12Z</time></trkpt><trkpt lat="44.25793128979021" lon="11.154600327184946"><ele>544.6666666666666</ele><time>2026-04-04T08:38:14Z</time></trkpt><trkpt lat="44.2579179677417" lon="11.154508536382865"><ele>539.3333333333334</ele><time>2026-04-04T08:38:16Z</time></trkpt><trkpt lat="44.25790987764386" lon="11.154412585757541"><ele>534.0</ele><time>2026-04-04T08:38:20Z</time></trkpt><trkpt lat="44.257904393519176" lon="11.154323925360446"><ele>534.0</ele><time>2026-04-04T08:38:23Z</time></trkpt><trkpt lat="44.25790848090284" lon="11.154227889374969"><ele>534.0</ele><time>2026-04-04T08:38:28Z</time></trkpt><trkpt lat="44.25788764990017" lon="11.154316183319102"><ele>534.0</ele><time>2026-04-04T08:38:51Z</time></trkpt><trkpt lat="44.25793112342615" lon="11.1543984855016"><ele>534.0</ele><time>2026-04-04T08:38:58Z</time></trkpt></trkseg><trkseg><trkpt lat="44.25775634805648" lon="11.15338158972185"><ele>543.0</ele><time>2026-04-04T09:02:24.999Z</time></trkpt><trkpt lat="44.25770832489195" lon="11.153299108106877"><ele>543.0</ele><time>2026-04-04T09:02:26.999Z</time></trkpt><trkpt lat="44.25768041624142" lon="11.15321862782981"><ele>543.0</ele><time>2026-04-04T09:02:27.999Z</time></trkpt><trkpt lat="44.25764182361802" lon="11.153108107822177"><ele>543.0</ele><time>2026-04-04T09:02:28.999Z</time></trkpt><trkpt lat="44.257608532396496" lon="11.153027056134716"><ele>543.0</ele><time>2026-04-04T09:02:29.999Z</time></trkpt><trkpt lat="44.25758494258574" lon="11.152867743324007"><ele>543.0</ele><time>2026-04-04T09:02:31.999Z</time></trkpt><trkpt lat="44.25760700129469" lon="11.152704488479745"><ele>543.4</ele><time>2026-04-04T09:02:33.999Z</time></trkpt><trkpt lat="44.25761483119773" lon="11.1525738947644"><ele>543.8</ele><time>2026-04-04T09:02:35.999Z</time></trkpt><trkpt lat="44.25749153342253" lon="11.152458130422684"><ele>544.2</ele><time>2026-04-04T09:02:39.999Z</time></trkpt><trkpt lat="44.257414502960344" lon="11.152379180694426"><ele>544.6</ele><time>2026-04-04T09:02:41.999Z</time></trkpt><trkpt lat="44.25733145039513" lon="11.152279356262408"><ele>545.0</ele><time>2026-04-04T09:02:43.999Z</time></trkpt><trkpt lat="44.257240485155585" lon="11.152184612551372"><ele>545.0</ele><time>2026-04-04T09:02:45.999Z</time></trkpt><trkpt lat="44.257191733605" lon="11.15212482549848"><ele>545.0</ele><time>2026-04-04T09:02:46.999Z</time></trkpt><trkpt lat="44.25713600120635" lon="11.152062951709667"><ele>545.0</ele><time>2026-04-04T09:02:47.999Z</time></trkpt><trkpt lat="44.25707751810504" lon="11.151996829195022"><ele>545.0</ele><time>2026-04-04T09:02:48.999Z</time></trkpt><trkpt lat="44.257020710905664" lon="11.1519183511928"><ele>545.0</ele><time>2026-04-04T09:02:49.999Z</time></trkpt><trkpt lat="44.256963882898674" lon="11.151830877825706"><ele>545.0</ele><time>2026-04-04T09:02:50.999Z</time></trkpt><trkpt lat="44.256905246289406" lon="11.151757035172391"><ele>545.0</ele><time>2026-04-04T09:02:51.999Z</time></trkpt><trkpt lat="44.25684218189194" lon="11.151693651144493"><ele>545.0</ele><time>2026-04-04T09:02:52.999Z</time></trkpt><trkpt lat="44.25678443358973" lon="11.151618492410686"><ele>545.0</ele><time>2026-04-04T09:02:53.999Z</time></trkpt><trkpt lat="44.256729364792115" lon="11.151530565835674"><ele>545.0</ele><time>2026-04-04T09:02:54.999Z</time></trkpt><trkpt lat="44.25668735044569" lon="11.151434870432153"><ele>545.0</ele><time>2026-04-04T09:02:55.999Z</time></trkpt><trkpt lat="44.25664159516888" lon="11.151349863734325"><ele>545.0</ele><time>2026-04-04T09:02:56.999Z</time></trkpt><trkpt lat="44.2565886091171" lon="11.15125976713307"><ele>544.3333333333333</ele><time>2026-04-04T09:02:57.999Z</time></trkpt><trkpt lat="44.2565429137725" lon="11.151189748264622"><ele>543.6666666666666</ele><time>2026-04-04T09:02:58.999Z</time></trkpt><trkpt lat="44.25648872142803" lon="11.151097109888434"><ele>543.0</ele><time>2026-04-04T09:02:59.999Z</time></trkpt><trkpt lat="44.25643360957637" lon="11.151008139350063"><ele>542.3333333333334</ele><time>2026-04-04T09:03:00.999Z</time></trkpt><trkpt lat="44.25637220290663" lon="11.150912244766861"><ele>541.6666666666667</ele><time>2026-04-04T09:03:01.999Z</time></trkpt><trkpt lat="44.25630193029457" lon="11.150822107421236"><ele>541.0</ele><time>2026-04-04T09:03:02.999Z</time></trkpt><trkpt lat="44.256218515233655" lon="11.150751671171422"><ele>540.25</ele><time>2026-04-04T09:03:03.999Z</time></trkpt><trkpt lat="44.25611916665215" lon="11.150699331236552"><ele>539.5</ele><time>2026-04-04T09:03:04.999Z</time></trkpt><trkpt lat="44.256021110683854" lon="11.150615101207924"><ele>538.75</ele><time>2026-04-04T09:03:05.999Z</time></trkpt><trkpt lat="44.255902105451675" lon="11.15055833785394"><ele>538.0</ele><time>2026-04-04T09:03:06.999Z</time></trkpt><trkpt lat="44.25578273969505" lon="11.150507560172521"><ele>538.0</ele><time>2026-04-04T09:03:07.999Z</time></trkpt><trkpt lat="44.25566241273649" lon="11.150471459153067"><ele>538.0</ele><time>2026-04-04T09:03:08.999Z</time></trkpt><trkpt lat="44.255544241986094" lon="11.150443010819137"><ele>538.0</ele><time>2026-04-04T09:03:09.999Z</time></trkpt><trkpt lat="44.25544229519886" lon="11.150422639444239"><ele>538.0</ele><time>2026-04-04T09:03:10.999Z</time></trkpt><trkpt lat="44.25534613838034" lon="11.150405197420818"><ele>538.0</ele><time>2026-04-04T09:03:11.999Z</time></trkpt><trkpt lat="44.25526055811026" lon="11.150389673876727"><ele>538.6666666666667</ele><time>2026-04-04T09:03:12.999Z</time></trkpt><trkpt lat="44.2551837734437" lon="11.150375745797524"><ele>539.3333333333334</ele><time>2026-04-04T09:03:13.999Z</time></trkpt><trkpt lat="44.25509510612519" lon="11.150359662324664"><ele>540.0</ele><time>2026-04-04T09:03:14.999Z</time></trkpt><trkpt lat="44.25501184442036" lon="11.150336374490676"><ele>540.6666666666666</ele><time>2026-04-04T09:03:15.999Z</time></trkpt><trkpt lat="44.254924342442436" lon="11.150290357213672"><ele>541.3333333333333</ele><time>2026-04-04T09:03:16.999Z</time></trkpt><trkpt lat="44.25482851952944" lon="11.150252869745081"><ele>542.0</ele><time>2026-04-04T09:03:17.999Z</time></trkpt><trkpt lat="44.25473073721245" lon="11.150180066806922"><ele>542.0</ele><time>2026-04-04T09:03:18.999Z</time></trkpt><trkpt lat="44.25462913887801" lon="11.150107522444438"><ele>542.0</ele><time>2026-04-04T09:03:19.999Z</time></trkpt><trkpt lat="44.25453245543141" lon="11.150024714063406"><ele>542.0</ele><time>2026-04-04T09:03:20.999Z</time></trkpt><trkpt lat="44.25443212306423" lon="11.14994908474842"><ele>542.0</ele><time>2026-04-04T09:03:21.999Z</time></trkpt><trkpt lat="44.25433210541257" lon="11.149875210311802"><ele>542.4</ele><time>2026-04-04T09:03:22.999Z</time></trkpt><trkpt lat="44.25423361803297" lon="11.149807572600103"><ele>542.8000000000001</ele><time>2026-04-04T09:03:23.999Z</time></trkpt><trkpt lat="44.25414080645509" lon="11.149739733453947"><ele>543.2</ele><time>2026-04-04T09:03:24.999Z</time></trkpt><trkpt lat="44.2540497267586" lon="11.149671696177265"><ele>543.6</ele><time>2026-04-04T09:03:25.999Z</time></trkpt><trkpt lat="44.253958596470724" lon="11.149600488562232"><ele>544.0</ele><time>2026-04-04T09:03:26.999Z</time></trkpt><trkpt lat="44.25387428339883" lon="11.149523158932478"><ele>544.0</ele><time>2026-04-04T09:03:27.999Z</time></trkpt><trkpt lat="44.25379955633816" lon="11.14943138893388"><ele>544.0</ele><time>2026-04-04T09:03:28.999Z</time></trkpt><trkpt lat="44.25374458548549" lon="11.14932318243355"><ele>544.0</ele><time>2026-04-04T09:03:29.999Z</time></trkpt><trkpt lat="44.25370762478878" lon="11.149195888666112"><ele>544.0</ele><time>2026-04-04T09:03:30.999Z</time></trkpt><trkpt lat="44.25367828761371" lon="11.149064430864923"><ele>544.0</ele><time>2026-04-04T09:03:31.999Z</time></trkpt><trkpt lat="44.25364292671982" lon="11.148935520593355"><ele>543.6</ele><time>2026-04-04T09:03:32.999Z</time></trkpt><trkpt lat="44.253582966889766" lon="11.148825766818957"><ele>543.2</ele><time>2026-04-04T09:03:33.999Z</time></trkpt><trkpt lat="44.25349339536871" lon="11.148742025020656"><ele>542.8000000000001</ele><time>2026-04-04T09:03:34.999Z</time></trkpt><trkpt lat="44.253408136615306" lon="11.148671969275892"><ele>542.4</ele><time>2026-04-04T09:03:35.999Z</time></trkpt><trkpt lat="44.25331894319719" lon="11.14857430198712"><ele>542.0</ele><time>2026-04-04T09:03:36.999Z</time></trkpt><trkpt lat="44.25324248853984" lon="11.148469379382565"><ele>542.0</ele><time>2026-04-04T09:03:37.999Z</time></trkpt><trkpt lat="44.25317880441036" lon="11.148353274078923"><ele>542.0</ele><time>2026-04-04T09:03:38.999Z</time></trkpt><trkpt lat="44.253129068094275" lon="11.148222471505749"><ele>542.0</ele><time>2026-04-04T09:03:39.999Z</time></trkpt><trkpt lat="44.25310023205902" lon="11.148082966930254"><ele>542.0</ele><time>2026-04-04T09:03:40.999Z</time></trkpt><trkpt lat="44.253081511598474" lon="11.147940786002163"><ele>542.0</ele><time>2026-04-04T09:03:41.999Z</time></trkpt><trkpt lat="44.25307078410968" lon="11.14780697912107"><ele>541.3333333333333</ele><time>2026-04-04T09:03:42.999Z</time></trkpt><trkpt lat="44.25306916091052" lon="11.147681619950212"><ele>540.6666666666666</ele><time>2026-04-04T09:03:43.999Z</time></trkpt><trkpt lat="44.2530705748391" lon="11.147552934606683"><ele>540.0</ele><time>2026-04-04T09:03:44.999Z</time></trkpt><trkpt lat="44.25305934447688" lon="11.147425268257892"><ele>539.3333333333334</ele><time>2026-04-04T09:03:45.999Z</time></trkpt><trkpt lat="44.253043196801556" lon="11.147318104670044"><ele>538.6666666666667</ele><time>2026-04-04T09:03:46.999Z</time></trkpt><trkpt lat="44.25302304924949" lon="11.147206725283796"><ele>538.0</ele><time>2026-04-04T09:03:47.999Z</time></trkpt><trkpt lat="44.25299461283591" lon="11.147096098597252"><ele>540.8</ele><time>2026-04-04T09:03:48.999Z</time></trkpt><trkpt lat="44.252964746514124" lon="11.146987443821834"><ele>543.5999999999999</ele><time>2026-04-04T09:03:49.999Z</time></trkpt><trkpt lat="44.25293219461799" lon="11.146853069994947"><ele>546.4000000000001</ele><time>2026-04-04T09:03:50.999Z</time></trkpt><trkpt lat="44.25290051839689" lon="11.146702568743807"><ele>549.2</ele><time>2026-04-04T09:03:51.999Z</time></trkpt><trkpt lat="44.252871066008645" lon="11.14653536020065"><ele>552.0</ele><time>2026-04-04T09:03:52.999Z</time></trkpt><trkpt lat="44.252843756908625" lon="11.14636007741848"><ele>555.75</ele><time>2026-04-04T09:03:53.999Z</time></trkpt><trkpt lat="44.252811346526165" lon="11.146174649338123"><ele>559.5</ele><time>2026-04-04T09:03:54.999Z</time></trkpt><trkpt lat="44.25277220575949" lon="11.14598682053054"><ele>563.25</ele><time>2026-04-04T09:03:55.999Z</time></trkpt><trkpt lat="44.252733177376" lon="11.145805235714624"><ele>567.0</ele><time>2026-04-04T09:03:56.999Z</time></trkpt><trkpt lat="44.25269483128996" lon="11.145633634277742"><ele>569.3333333333334</ele><time>2026-04-04T09:03:57.999Z</time></trkpt><trkpt lat="44.25267082959833" lon="11.145494190693189"><ele>571.6666666666666</ele><time>2026-04-04T09:03:58.999Z</time></trkpt><trkpt lat="44.25267518171059" lon="11.145376755624445"><ele>574.0</ele><time>2026-04-04T09:03:59.999Z</time></trkpt><trkpt lat="44.25269123591606" lon="11.145259480877662"><ele>576.3333333333333</ele><time>2026-04-04T09:04:00.999Z</time></trkpt><trkpt lat="44.25269173290868" lon="11.145140403534366"><ele>578.6666666666666</ele><time>2026-04-04T09:04:01.999Z</time></trkpt><trkpt lat="44.252670612121904" lon="11.145024862733626"><ele>581.0</ele><time>2026-04-04T09:04:02.999Z</time></trkpt><trkpt lat="44.25264199701791" lon="11.144904286515722"><ele>581.1666666666666</ele><time>2026-04-04T09:04:03.999Z</time></trkpt><trkpt lat="44.252614986346295" lon="11.144799825812617"><ele>581.3333333333333</ele><time>2026-04-04T09:04:04.999Z</time></trkpt><trkpt lat="44.25258323497487" lon="11.144702096261891"><ele>581.5</ele><time>2026-04-04T09:04:05.999Z</time></trkpt><trkpt lat="44.25254594898974" lon="11.144621071557811"><ele>581.6666666666666</ele><time>2026-04-04T09:04:06.999Z</time></trkpt><trkpt lat="44.25248496906686" lon="11.14453171888545"><ele>581.8333333333334</ele><time>2026-04-04T09:04:07.999Z</time></trkpt><trkpt lat="44.252408085598894" lon="11.144426086869556"><ele>582.0</ele><time>2026-04-04T09:04:08.999Z</time></trkpt><trkpt lat="44.252327632856094" lon="11.144304555429343"><ele>583.0</ele><time>2026-04-04T09:04:09.999Z</time></trkpt><trkpt lat="44.25223953462817" lon="11.144181566032378"><ele>584.0</ele><time>2026-04-04T09:04:10.999Z</time></trkpt><trkpt lat="44.25215139928282" lon="11.144044632610923"><ele>585.0</ele><time>2026-04-04T09:04:11.999Z</time></trkpt><trkpt lat="44.25205969626358" lon="11.143912017084805"><ele>586.0</ele><time>2026-04-04T09:04:12.999Z</time></trkpt><trkpt lat="44.25196963045284" lon="11.143786658958781"><ele>588.75</ele><time>2026-04-04T09:04:13.999Z</time></trkpt><trkpt lat="44.25187920576693" lon="11.143661891292638"><ele>591.5</ele><time>2026-04-04T09:04:14.999Z</time></trkpt><trkpt lat="44.25178374753916" lon="11.143539847265913"><ele>594.25</ele><time>2026-04-04T09:04:15.999Z</time></trkpt><trkpt lat="44.25169907299687" lon="11.143396990005703"><ele>597.0</ele><time>2026-04-04T09:04:16.999Z</time></trkpt><trkpt lat="44.25160361586828" lon="11.143256906765846"><ele>598.25</ele><time>2026-04-04T09:04:17.999Z</time></trkpt><trkpt lat="44.25149144943275" lon="11.14315162134905"><ele>599.5</ele><time>2026-04-04T09:04:18.999Z</time></trkpt><trkpt lat="44.25138372842058" lon="11.143034124181986"><ele>600.75</ele><time>2026-04-04T09:04:19.999Z</time></trkpt><trkpt lat="44.25128523885713" lon="11.142923625187155"><ele>602.0</ele><time>2026-04-04T09:04:20.999Z</time></trkpt><trkpt lat="44.2511981796411" lon="11.142818457187943"><ele>602.0</ele><time>2026-04-04T09:04:21.999Z</time></trkpt><trkpt lat="44.25112539773796" lon="11.142728265142646"><ele>602.0</ele><time>2026-04-04T09:04:22.999Z</time></trkpt><trkpt lat="44.25106949663958" lon="11.142640731178313"><ele>602.0</ele><time>2026-04-04T09:04:23.999Z</time></trkpt><trkpt lat="44.251026395658336" lon="11.142550709057025"><ele>602.0</ele><time>2026-04-04T09:04:24.999Z</time></trkpt><trkpt lat="44.25099748895883" lon="11.142456058009078"><ele>602.0</ele><time>2026-04-04T09:04:25.999Z</time></trkpt><trkpt lat="44.250985256116486" lon="11.142334469428983"><ele>602.0</ele><time>2026-04-04T09:04:26.999Z</time></trkpt><trkpt lat="44.25098735492392" lon="11.142185795919348"><ele>604.4</ele><time>2026-04-04T09:04:27.999Z</time></trkpt><trkpt lat="44.2509915681804" lon="11.14202240616513"><ele>606.8000000000001</ele><time>2026-04-04T09:04:28.999Z</time></trkpt><trkpt lat="44.250981580305094" lon="11.141861859149925"><ele>609.2</ele><time>2026-04-04T09:04:29.999Z</time></trkpt><trkpt lat="44.25094957079532" lon="11.14171530956253"><ele>611.6</ele><time>2026-04-04T09:04:30.999Z</time></trkpt><trkpt lat="44.250898007134396" lon="11.141595740048324"><ele>614.0</ele><time>2026-04-04T09:04:31.999Z</time></trkpt><trkpt lat="44.25082602587976" lon="11.141499375299317"><ele>616.0</ele><time>2026-04-04T09:04:32.999Z</time></trkpt><trkpt lat="44.25074716353359" lon="11.141413233827974"><ele>618.0</ele><time>2026-04-04T09:04:33.999Z</time></trkpt><trkpt lat="44.25068295325467" lon="11.14130944090514"><ele>620.0</ele><time>2026-04-04T09:04:34.999Z</time></trkpt><trkpt lat="44.25061090291291" lon="11.141223639747652"><ele>622.0</ele><time>2026-04-04T09:04:35.999Z</time></trkpt><trkpt lat="44.2505756414362" lon="11.141108313807209"><ele>624.0</ele><time>2026-04-04T09:04:36.999Z</time></trkpt><trkpt lat="44.250549156717426" lon="11.140995372841934"><ele>621.4</ele><time>2026-04-04T09:04:37.999Z</time></trkpt><trkpt lat="44.250508479780144" lon="11.14089735894196"><ele>618.8</ele><time>2026-04-04T09:04:38.999Z</time></trkpt><trkpt lat="44.25044339541608" lon="11.1408117591408"><ele>616.2</ele><time>2026-04-04T09:04:39.999Z</time></trkpt><trkpt lat="44.250362625504415" lon="11.14073006928409"><ele>613.6</ele><time>2026-04-04T09:04:40.999Z</time></trkpt><trkpt lat="44.25027739273146" lon="11.14062524894542"><ele>611.0</ele><time>2026-04-04T09:04:41.999Z</time></trkpt><trkpt lat="44.25022595918441" lon="11.140478365559211"><ele>611.0</ele><time>2026-04-04T09:04:42.999Z</time></trkpt><trkpt lat="44.25015531071598" lon="11.140357503298054"><ele>611.0</ele><time>2026-04-04T09:04:43.999Z</time></trkpt><trkpt lat="44.250081257839035" lon="11.140246479932658"><ele>611.0</ele><time>2026-04-04T09:04:44.999Z</time></trkpt><trkpt lat="44.24998001358832" lon="11.140116175588444"><ele>611.0</ele><time>2026-04-04T09:04:45.999Z</time></trkpt><trkpt lat="44.24983072358517" lon="11.140036261803782"><ele>610.75</ele><time>2026-04-04T09:04:46.999Z</time></trkpt><trkpt lat="44.249700933997595" lon="11.139929418761499"><ele>610.5</ele><time>2026-04-04T09:04:47.999Z</time></trkpt><trkpt lat="44.24957973475305" lon="11.139840182630746"><ele>610.25</ele><time>2026-04-04T09:04:48.999Z</time></trkpt><trkpt lat="44.24945846286627" lon="11.139743272204113"><ele>610.0</ele><time>2026-04-04T09:04:49.999Z</time></trkpt><trkpt lat="44.249340405038375" lon="11.139648930162167"><ele>613.0</ele><time>2026-04-04T09:04:50.999Z</time></trkpt><trkpt lat="44.24922931830006" lon="11.139568212914348"><ele>616.0</ele><time>2026-04-04T09:04:51.999Z</time></trkpt><trkpt lat="44.24911708602355" lon="11.139497910748098"><ele>619.0</ele><time>2026-04-04T09:04:52.999Z</time></trkpt><trkpt lat="44.2490167105474" lon="11.139437852683926"><ele>622.0</ele><time>2026-04-04T09:04:53.999Z</time></trkpt><trkpt lat="44.24892733840058" lon="11.139385118528887"><ele>622.0</ele><time>2026-04-04T09:04:54.999Z</time></trkpt><trkpt lat="44.24885662637707" lon="11.139335120471141"><ele>622.0</ele><time>2026-04-04T09:04:55.999Z</time></trkpt><trkpt lat="44.24878205269195" lon="11.139290117860547"><ele>622.0</ele><time>2026-04-04T09:04:56.999Z</time></trkpt><trkpt lat="44.24868781744771" lon="11.139276038879405"><ele>622.0</ele><time>2026-04-04T09:04:57.999Z</time></trkpt><trkpt lat="44.24859453888633" lon="11.139283906819413"><ele>622.0</ele><time>2026-04-04T09:04:58.999Z</time></trkpt><trkpt lat="44.24850201453006" lon="11.13931029669789"><ele>622.0</ele><time>2026-04-04T09:04:59.999Z</time></trkpt><trkpt lat="44.248420706150675" lon="11.139325900521623"><ele>622.0</ele><time>2026-04-04T09:05:00.999Z</time></trkpt><trkpt lat="44.24834202159256" lon="11.139327538937048"><ele>622.0</ele><time>2026-04-04T09:05:01.999Z</time></trkpt><trkpt lat="44.24827060098752" lon="11.139313619376207"><ele>622.0</ele><time>2026-04-04T09:05:02.999Z</time></trkpt><trkpt lat="44.24819614049004" lon="11.139291388287242"><ele>622.0</ele><time>2026-04-04T09:05:03.999Z</time></trkpt><trkpt lat="44.248123179055746" lon="11.13927211181124"><ele>622.0</ele><time>2026-04-04T09:05:04.999Z</time></trkpt><trkpt lat="44.248042279827004" lon="11.139256548614004"><ele>622.0</ele><time>2026-04-04T09:05:05.999Z</time></trkpt><trkpt lat="44.247948658860516" lon="11.139281887716459"><ele>621.1666666666667</ele><time>2026-04-04T09:05:06.999Z</time></trkpt><trkpt lat="44.24786401483597" lon="11.13931788469543"><ele>620.3333333333334</ele><time>2026-04-04T09:05:07.999Z</time></trkpt><trkpt lat="44.24779794227354" lon="11.139379531015143"><ele>619.5</ele><time>2026-04-04T09:05:08.999Z</time></trkpt><trkpt lat="44.2477368001694" lon="11.139431134079965"><ele>618.6666666666666</ele><time>2026-04-04T09:05:09.999Z</time></trkpt><trkpt lat="44.247675922202575" lon="11.13947757212084"><ele>617.8333333333333</ele><time>2026-04-04T09:05:10.999Z</time></trkpt><trkpt lat="44.247613298504724" lon="11.139518886573473"><ele>617.0</ele><time>2026-04-04T09:05:11.999Z</time></trkpt><trkpt lat="44.247525484090595" lon="11.139555876347677"><ele>617.0</ele><time>2026-04-04T09:05:13.999Z</time></trkpt><trkpt lat="44.24744223258668" lon="11.139569467646519"><ele>617.0</ele><time>2026-04-04T09:05:17.999Z</time></trkpt><trkpt lat="44.24736388709389" lon="11.139540593581106"><ele>617.0</ele><time>2026-04-04T09:05:19.999Z</time></trkpt><trkpt lat="44.24728362448795" lon="11.139615242144805"><ele>617.0</ele><time>2026-04-04T09:05:20.999Z</time></trkpt><trkpt lat="44.247225356471084" lon="11.139654492858243"><ele>617.0</ele><time>2026-04-04T09:05:21.999Z</time></trkpt><trkpt lat="44.24716533680209" lon="11.1396869084531"><ele>617.0</ele><time>2026-04-04T09:05:22.999Z</time></trkpt><trkpt lat="44.24710328507291" lon="11.13971559582761"><ele>617.3333333333333</ele><time>2026-04-04T09:05:23.999Z</time></trkpt><trkpt lat="44.24703345700114" lon="11.139739243409728"><ele>617.6666666666666</ele><time>2026-04-04T09:05:24.999Z</time></trkpt><trkpt lat="44.246953426095324" lon="11.139757672709303"><ele>618.0</ele><time>2026-04-04T09:05:25.999Z</time></trkpt><trkpt lat="44.246877488947426" lon="11.139767076762254"><ele>618.3333333333334</ele><time>2026-04-04T09:05:26.999Z</time></trkpt><trkpt lat="44.24681325628407" lon="11.139771342098772"><ele>618.6666666666667</ele><time>2026-04-04T09:05:27.999Z</time></trkpt><trkpt lat="44.24674193606653" lon="11.139784464493594"><ele>619.0</ele><time>2026-04-04T09:05:31.999Z</time></trkpt><trkpt lat="44.246621621363836" lon="11.139801357110558"><ele>619.0</ele><time>2026-04-04T09:07:07.999Z</time></trkpt><trkpt lat="44.24654894429224" lon="11.139778188385188"><ele>619.0</ele><time>2026-04-04T09:07:08.999Z</time></trkpt><trkpt lat="44.2464811668153" lon="11.139743987952812"><ele>619.0</ele><time>2026-04-04T09:07:09.999Z</time></trkpt><trkpt lat="44.2464103550574" lon="11.139685314181502"><ele>619.0</ele><time>2026-04-04T09:07:10.999Z</time></trkpt><trkpt lat="44.24633193550628" lon="11.13964928489148"><ele>619.0</ele><time>2026-04-04T09:07:11.999Z</time></trkpt><trkpt lat="44.24623685526003" lon="11.139609353526165"><ele>619.0</ele><time>2026-04-04T09:07:12.999Z</time></trkpt><trkpt lat="44.246176207645014" lon="11.139489398819725"><ele>622.8</ele><time>2026-04-04T09:07:13.999Z</time></trkpt><trkpt lat="44.24611035325061" lon="11.139384612580828"><ele>626.5999999999999</ele><time>2026-04-04T09:07:14.999Z</time></trkpt><trkpt lat="44.24606057211014" lon="11.139270112616511"><ele>630.4</ele><time>2026-04-04T09:07:15.999Z</time></trkpt><trkpt lat="44.245997294304665" lon="11.139172356312766"><ele>634.1999999999999</ele><time>2026-04-04T09:07:16.999Z</time></trkpt><trkpt lat="44.24590775944961" lon="11.139121636862633"><ele>638.0</ele><time>2026-04-04T09:07:17.999Z</time></trkpt><trkpt lat="44.24580919964529" lon="11.139068152851525"><ele>638.0</ele><time>2026-04-04T09:07:18.999Z</time></trkpt><trkpt lat="44.24570875613727" lon="11.139102225119498"><ele>638.0</ele><time>2026-04-04T09:07:19.999Z</time></trkpt><trkpt lat="44.245589860219496" lon="11.13914441330752"><ele>638.0</ele><time>2026-04-04T09:07:20.999Z</time></trkpt><trkpt lat="44.245452870993205" lon="11.139183660870133"><ele>638.0</ele><time>2026-04-04T09:07:21.999Z</time></trkpt><trkpt lat="44.24530950497726" lon="11.139200278624205"><ele>640.25</ele><time>2026-04-04T09:07:22.999Z</time></trkpt><trkpt lat="44.24518392294585" lon="11.139194024069246"><ele>642.5</ele><time>2026-04-04T09:07:23.999Z</time></trkpt><trkpt lat="44.245071686128014" lon="11.139156499423864"><ele>644.75</ele><time>2026-04-04T09:07:24.999Z</time></trkpt><trkpt lat="44.24495667485365" lon="11.139083320821715"><ele>647.0</ele><time>2026-04-04T09:07:25.999Z</time></trkpt><trkpt lat="44.244827488654806" lon="11.139001794402136"><ele>646.25</ele><time>2026-04-04T09:07:26.999Z</time></trkpt><trkpt lat="44.24470390650043" lon="11.138887481763408"><ele>645.5</ele><time>2026-04-04T09:07:27.999Z</time></trkpt><trkpt lat="44.24458953345581" lon="11.138783176084967"><ele>644.75</ele><time>2026-04-04T09:07:28.999Z</time></trkpt><trkpt lat="44.2444925325227" lon="11.138699056117463"><ele>644.0</ele><time>2026-04-04T09:07:29.999Z</time></trkpt><trkpt lat="44.24440864808374" lon="11.138610365237364"><ele>644.0</ele><time>2026-04-04T09:07:30.999Z</time></trkpt><trkpt lat="44.244349973373666" lon="11.138495009813987"><ele>644.0</ele><time>2026-04-04T09:07:31.999Z</time></trkpt><trkpt lat="44.24430306256693" lon="11.138350251800022"><ele>644.0</ele><time>2026-04-04T09:07:32.999Z</time></trkpt><trkpt lat="44.24424767080776" lon="11.1382028292004"><ele>644.0</ele><time>2026-04-04T09:07:33.999Z</time></trkpt><trkpt lat="44.244160720698964" lon="11.138084430207947"><ele>643.0</ele><time>2026-04-04T09:07:34.999Z</time></trkpt><trkpt lat="44.2440395414384" lon="11.137991006454989"><ele>642.0</ele><time>2026-04-04T09:07:35.999Z</time></trkpt><trkpt lat="44.24390665458742" lon="11.137894217353937"><ele>641.0</ele><time>2026-04-04T09:07:36.999Z</time></trkpt><trkpt lat="44.24377476935261" lon="11.137782287608273"><ele>640.0</ele><time>2026-04-04T09:07:37.999Z</time></trkpt><trkpt lat="44.243648460922586" lon="11.137680938387042"><ele>640.0</ele><time>2026-04-04T09:07:38.999Z</time></trkpt><trkpt lat="44.24352080384377" lon="11.137591970486456"><ele>640.0</ele><time>2026-04-04T09:07:39.999Z</time></trkpt><trkpt lat="44.24338335928264" lon="11.137515405133861"><ele>640.0</ele><time>2026-04-04T09:07:40.999Z</time></trkpt><trkpt lat="44.24324006725493" lon="11.137448792264841"><ele>640.0</ele><time>2026-04-04T09:07:41.999Z</time></trkpt><trkpt lat="44.24309952654852" lon="11.13735516759906"><ele>639.25</ele><time>2026-04-04T09:07:42.999Z</time></trkpt><trkpt lat="44.24295415243714" lon="11.13731620626886"><ele>638.5</ele><time>2026-04-04T09:07:43.999Z</time></trkpt><trkpt lat="44.242819392164954" lon="11.13724531135557"><ele>637.75</ele><time>2026-04-04T09:07:44.999Z</time></trkpt><trkpt lat="44.24269585838986" lon="11.137175071851809"><ele>637.0</ele><time>2026-04-04T09:07:45.999Z</time></trkpt><trkpt lat="44.242584242102836" lon="11.137101590422061"><ele>637.0</ele><time>2026-04-04T09:07:46.999Z</time></trkpt><trkpt lat="44.2424650112003" lon="11.137057724053353"><ele>637.0</ele><time>2026-04-04T09:07:47.999Z</time></trkpt><trkpt lat="44.24234036656938" lon="11.137044569074066"><ele>637.0</ele><time>2026-04-04T09:07:48.999Z</time></trkpt><trkpt lat="44.242212381114626" lon="11.137044949917279"><ele>637.0</ele><time>2026-04-04T09:07:49.999Z</time></trkpt><trkpt lat="44.242078571021175" lon="11.137038469411142"><ele>641.75</ele><time>2026-04-04T09:07:50.999Z</time></trkpt><trkpt lat="44.24194750492163" lon="11.137026874595351"><ele>646.5</ele><time>2026-04-04T09:07:51.999Z</time></trkpt><trkpt lat="44.24181950964815" lon="11.136977720363378"><ele>651.25</ele><time>2026-04-04T09:07:52.999Z</time></trkpt><trkpt lat="44.24170766419155" lon="11.136968920550945"><ele>656.0</ele><time>2026-04-04T09:07:53.999Z</time></trkpt><trkpt lat="44.24160550245192" lon="11.13695828538581"><ele>656.0</ele><time>2026-04-04T09:07:54.999Z</time></trkpt><trkpt lat="44.24151048575904" lon="11.136944165183563"><ele>656.0</ele><time>2026-04-04T09:07:55.999Z</time></trkpt><trkpt lat="44.24142773520894" lon="11.136850013769616"><ele>656.0</ele><time>2026-04-04T09:07:56.999Z</time></trkpt><trkpt lat="44.2413364666094" lon="11.136768392782326"><ele>656.0</ele><time>2026-04-04T09:07:57.999Z</time></trkpt><trkpt lat="44.2412242074295" lon="11.136696345044657"><ele>656.0</ele><time>2026-04-04T09:07:58.999Z</time></trkpt><trkpt lat="44.24110098548107" lon="11.136609613532817"><ele>660.25</ele><time>2026-04-04T09:07:59.999Z</time></trkpt><trkpt lat="44.24097338683298" lon="11.13652358919686"><ele>664.5</ele><time>2026-04-04T09:08:00.999Z</time></trkpt><trkpt lat="44.24086854899417" lon="11.136386809451714"><ele>668.75</ele><time>2026-04-04T09:08:01.999Z</time></trkpt><trkpt lat="44.240770773015335" lon="11.136263964524263"><ele>673.0</ele><time>2026-04-04T09:08:02.999Z</time></trkpt><trkpt lat="44.24064956359744" lon="11.136166016608827"><ele>671.25</ele><time>2026-04-04T09:08:04Z</time></trkpt><trkpt lat="44.24050012039512" lon="11.136139259373198"><ele>669.5</ele><time>2026-04-04T09:08:05Z</time></trkpt><trkpt lat="44.24038147897028" lon="11.136077914446668"><ele>667.75</ele><time>2026-04-04T09:08:06Z</time></trkpt><trkpt lat="44.24027787354564" lon="11.136000461094516"><ele>666.0</ele><time>2026-04-04T09:08:07Z</time></trkpt><trkpt lat="44.240173242744255" lon="11.135898829104502"><ele>666.0</ele><time>2026-04-04T09:08:08Z</time></trkpt><trkpt lat="44.24006236927475" lon="11.13582361890766"><ele>666.0</ele><time>2026-04-04T09:08:09Z</time></trkpt><trkpt lat="44.23992798708556" lon="11.135814842914929"><ele>666.0</ele><time>2026-04-04T09:08:10Z</time></trkpt><trkpt lat="44.2397916889024" lon="11.13585730213192"><ele>666.0</ele><time>2026-04-04T09:08:11Z</time></trkpt><trkpt lat="44.23966581953609" lon="11.135917480036191"><ele>667.5</ele><time>2026-04-04T09:08:12Z</time></trkpt><trkpt lat="44.239546379602665" lon="11.1359613499976"><ele>669.0</ele><time>2026-04-04T09:08:13Z</time></trkpt><trkpt lat="44.23942689502094" lon="11.135966940816628"><ele>670.5</ele><time>2026-04-04T09:08:14Z</time></trkpt><trkpt lat="44.239301724302294" lon="11.135938458912278"><ele>672.0</ele><time>2026-04-04T09:08:15Z</time></trkpt><trkpt lat="44.23916882049451" lon="11.13589947718481"><ele>672.0</ele><time>2026-04-04T09:08:16Z</time></trkpt><trkpt lat="44.239039252847" lon="11.135858852087773"><ele>672.0</ele><time>2026-04-04T09:08:17Z</time></trkpt><trkpt lat="44.2389218892892" lon="11.135813298806411"><ele>672.0</ele><time>2026-04-04T09:08:18Z</time></trkpt><trkpt lat="44.2388134454835" lon="11.135733303183487"><ele>672.0</ele><time>2026-04-04T09:08:19Z</time></trkpt><trkpt lat="44.23870081307834" lon="11.135651213005998"><ele>671.4000000000001</ele><time>2026-04-04T09:08:20Z</time></trkpt><trkpt lat="44.23861809731689" lon="11.13554267443337"><ele>670.8000000000001</ele><time>2026-04-04T09:08:21Z</time></trkpt><trkpt lat="44.23855285568823" lon="11.135432924636714"><ele>670.2</ele><time>2026-04-04T09:08:22Z</time></trkpt><trkpt lat="44.2385010352637" lon="11.135306308911295"><ele>669.6</ele><time>2026-04-04T09:08:23Z</time></trkpt><trkpt lat="44.23845959181178" lon="11.135156648887305"><ele>669.0</ele><time>2026-04-04T09:08:24Z</time></trkpt><trkpt lat="44.23841533659841" lon="11.134993007272906"><ele>668.4000000000001</ele><time>2026-04-04T09:08:25Z</time></trkpt><trkpt lat="44.238358616633256" lon="11.13485027395084"><ele>667.8</ele><time>2026-04-04T09:08:26Z</time></trkpt><trkpt lat="44.238282209165135" lon="11.134750763590786"><ele>667.2</ele><time>2026-04-04T09:08:27Z</time></trkpt><trkpt lat="44.23820445793267" lon="11.134674474265733"><ele>666.5999999999999</ele><time>2026-04-04T09:08:28Z</time></trkpt><trkpt lat="44.23807888234588" lon="11.134662720495001"><ele>666.0</ele><time>2026-04-04T09:08:29Z</time></trkpt><trkpt lat="44.23796833032066" lon="11.13463126940363"><ele>667.5</ele><time>2026-04-04T09:08:30Z</time></trkpt><trkpt lat="44.23785386240424" lon="11.134586330061756"><ele>669.0</ele><time>2026-04-04T09:08:31Z</time></trkpt><trkpt lat="44.237739964169954" lon="11.134535584536128"><ele>670.5</ele><time>2026-04-04T09:08:32Z</time></trkpt><trkpt lat="44.23762737987941" lon="11.134489797133211"><ele>672.0</ele><time>2026-04-04T09:08:33Z</time></trkpt><trkpt lat="44.23749549135634" lon="11.13447774683467"><ele>672.0</ele><time>2026-04-04T09:08:34Z</time></trkpt><trkpt lat="44.23737425561018" lon="11.134478942960992"><ele>672.0</ele><time>2026-04-04T09:08:35Z</time></trkpt><trkpt lat="44.23724440696985" lon="11.13449253927208"><ele>672.0</ele><time>2026-04-04T09:08:36Z</time></trkpt><trkpt lat="44.23712442076702" lon="11.1345162227315"><ele>672.0</ele><time>2026-04-04T09:08:37Z</time></trkpt><trkpt lat="44.23701567931983" lon="11.134548364018022"><ele>671.8</ele><time>2026-04-04T09:08:38Z</time></trkpt><trkpt lat="44.23692092890141" lon="11.134566063221772"><ele>671.6</ele><time>2026-04-04T09:08:39Z</time></trkpt><trkpt lat="44.23681982771396" lon="11.134562460155916"><ele>671.4</ele><time>2026-04-04T09:08:40Z</time></trkpt><trkpt lat="44.236724017349275" lon="11.134534955098022"><ele>671.1999999999999</ele><time>2026-04-04T09:08:41Z</time></trkpt><trkpt lat="44.23662151297091" lon="11.134480490201609"><ele>671.0</ele><time>2026-04-04T09:08:42Z</time></trkpt><trkpt lat="44.23648964078673" lon="11.134406209796351"><ele>671.3333333333333</ele><time>2026-04-04T09:08:43Z</time></trkpt><trkpt lat="44.236344581131924" lon="11.134346211499354"><ele>671.6666666666666</ele><time>2026-04-04T09:08:44Z</time></trkpt><trkpt lat="44.236190571198854" lon="11.13428653686019"><ele>672.0</ele><time>2026-04-04T09:08:45Z</time></trkpt><trkpt lat="44.23603390900748" lon="11.134227530640391"><ele>672.0</ele><time>2026-04-04T09:08:46Z</time></trkpt><trkpt lat="44.23587831493826" lon="11.134199288753015"><ele>672.0</ele><time>2026-04-04T09:08:47Z</time></trkpt><trkpt lat="44.235732512056565" lon="11.13416139523673"><ele>672.0</ele><time>2026-04-04T09:08:48Z</time></trkpt><trkpt lat="44.235585988069424" lon="11.13411352368932"><ele>672.3333333333334</ele><time>2026-04-04T09:08:49Z</time></trkpt><trkpt lat="44.23543090349219" lon="11.134116752846268"><ele>672.6666666666667</ele><time>2026-04-04T09:08:50Z</time></trkpt><trkpt lat="44.23527996458371" lon="11.134143024747416"><ele>673.0</ele><time>2026-04-04T09:08:51Z</time></trkpt><trkpt lat="44.23513521331231" lon="11.134194291364166"><ele>673.0</ele><time>2026-04-04T09:08:52Z</time></trkpt><trkpt lat="44.235005621580065" lon="11.13425663550288"><ele>673.0</ele><time>2026-04-04T09:08:53Z</time></trkpt><trkpt lat="44.23489445095505" lon="11.134323341698222"><ele>673.0</ele><time>2026-04-04T09:08:54Z</time></trkpt><trkpt lat="44.23479464037539" lon="11.134377621811893"><ele>673.0</ele><time>2026-04-04T09:08:55Z</time></trkpt><trkpt lat="44.23469896769202" lon="11.134404168071955"><ele>673.5</ele><time>2026-04-04T09:08:56Z</time></trkpt><trkpt lat="44.234587881865444" lon="11.134393403401296"><ele>674.0</ele><time>2026-04-04T09:08:57Z</time></trkpt><trkpt lat="44.23448009929549" lon="11.134349891839648"><ele>674.5</ele><time>2026-04-04T09:08:58Z</time></trkpt><trkpt lat="44.23435644460483" lon="11.134288502772554"><ele>675.0</ele><time>2026-04-04T09:08:59Z</time></trkpt><trkpt lat="44.234216914068035" lon="11.13426105149194"><ele>675.0</ele><time>2026-04-04T09:09:00Z</time></trkpt><trkpt lat="44.23407676128638" lon="11.134221218448367"><ele>675.0</ele><time>2026-04-04T09:09:01Z</time></trkpt><trkpt lat="44.23394733369138" lon="11.134181304132017"><ele>675.0</ele><time>2026-04-04T09:09:02Z</time></trkpt><trkpt lat="44.23382434034199" lon="11.134140925262022"><ele>675.0</ele><time>2026-04-04T09:09:03Z</time></trkpt><trkpt lat="44.23369997329256" lon="11.134139636567381"><ele>677.0</ele><time>2026-04-04T09:09:04Z</time></trkpt><trkpt lat="44.2335765779563" lon="11.134149556158588"><ele>679.0</ele><time>2026-04-04T09:09:05Z</time></trkpt><trkpt lat="44.23345567446157" lon="11.134209025944772"><ele>681.0</ele><time>2026-04-04T09:09:06Z</time></trkpt><trkpt lat="44.23334278770234" lon="11.13426504540817"><ele>683.0</ele><time>2026-04-04T09:09:07Z</time></trkpt><trkpt lat="44.23322857921276" lon="11.13433064090644"><ele>687.5</ele><time>2026-04-04T09:09:08Z</time></trkpt><trkpt lat="44.2331204986517" lon="11.134392223548208"><ele>692.0</ele><time>2026-04-04T09:09:09Z</time></trkpt><trkpt lat="44.23301291661177" lon="11.134451119408268"><ele>696.5</ele><time>2026-04-04T09:09:10Z</time></trkpt><trkpt lat="44.23289930564891" lon="11.134512803758398"><ele>701.0</ele><time>2026-04-04T09:09:11Z</time></trkpt><trkpt lat="44.232788087089766" lon="11.134596590816974"><ele>701.0</ele><time>2026-04-04T09:09:12Z</time></trkpt><trkpt lat="44.23266114820909" lon="11.134680184088067"><ele>701.0</ele><time>2026-04-04T09:09:13Z</time></trkpt><trkpt lat="44.23254388010595" lon="11.134769792804793"><ele>701.0</ele><time>2026-04-04T09:09:14Z</time></trkpt><trkpt lat="44.23242508878097" lon="11.134839923298381"><ele>701.0</ele><time>2026-04-04T09:09:15Z</time></trkpt><trkpt lat="44.23231972658555" lon="11.134917121837365"><ele>698.25</ele><time>2026-04-04T09:09:16Z</time></trkpt><trkpt lat="44.23220103891224" lon="11.135004926919768"><ele>695.5</ele><time>2026-04-04T09:09:17Z</time></trkpt><trkpt lat="44.23209531086803" lon="11.135096940857064"><ele>692.75</ele><time>2026-04-04T09:09:18Z</time></trkpt><trkpt lat="44.231982552456465" lon="11.135188470266623"><ele>690.0</ele><time>2026-04-04T09:09:19Z</time></trkpt><trkpt lat="44.231889497542284" lon="11.135321252637272"><ele>690.0</ele><time>2026-04-04T09:09:20Z</time></trkpt><trkpt lat="44.23178662467814" lon="11.135448947902528"><ele>690.0</ele><time>2026-04-04T09:09:21Z</time></trkpt><trkpt lat="44.23168389500423" lon="11.135585804267212"><ele>690.0</ele><time>2026-04-04T09:09:22Z</time></trkpt><trkpt lat="44.23157672219965" lon="11.135726939361508"><ele>690.0</ele><time>2026-04-04T09:09:23Z</time></trkpt><trkpt lat="44.23147319235735" lon="11.135865851901315"><ele>692.5</ele><time>2026-04-04T09:09:24Z</time></trkpt><trkpt lat="44.23137919547047" lon="11.136014744492169"><ele>695.0</ele><time>2026-04-04T09:09:25Z</time></trkpt><trkpt lat="44.23129264023898" lon="11.136164763740837"><ele>697.5</ele><time>2026-04-04T09:09:26Z</time></trkpt><trkpt lat="44.23119420973148" lon="11.136311326171656"><ele>700.0</ele><time>2026-04-04T09:09:27Z</time></trkpt><trkpt lat="44.231106322586704" lon="11.136462995337334"><ele>695.5</ele><time>2026-04-04T09:09:28Z</time></trkpt><trkpt lat="44.23103106581506" lon="11.136622215647675"><ele>691.0</ele><time>2026-04-04T09:09:29Z</time></trkpt><trkpt lat="44.230934158720935" lon="11.136732136318678"><ele>686.5</ele><time>2026-04-04T09:09:30Z</time></trkpt><trkpt lat="44.23087574481789" lon="11.136822822249135"><ele>682.0</ele><time>2026-04-04T09:09:31Z</time></trkpt><trkpt lat="44.23077597375184" lon="11.136862098533536"><ele>682.0</ele><time>2026-04-04T09:09:32Z</time></trkpt><trkpt lat="44.23067652838433" lon="11.136920194135056"><ele>682.0</ele><time>2026-04-04T09:09:33Z</time></trkpt><trkpt lat="44.23057061771946" lon="11.136966926266252"><ele>682.0</ele><time>2026-04-04T09:09:34Z</time></trkpt><trkpt lat="44.23047064646534" lon="11.136991646104109"><ele>682.0</ele><time>2026-04-04T09:09:35Z</time></trkpt><trkpt lat="44.23036058416573" lon="11.137063587046734"><ele>682.0</ele><time>2026-04-04T09:09:36Z</time></trkpt><trkpt lat="44.2302393336683" lon="11.137184036566918"><ele>683.25</ele><time>2026-04-04T09:09:37Z</time></trkpt><trkpt lat="44.23012221935063" lon="11.137314348268538"><ele>684.5</ele><time>2026-04-04T09:09:38Z</time></trkpt><trkpt lat="44.230004551831314" lon="11.137403849607812"><ele>685.75</ele><time>2026-04-04T09:09:39Z</time></trkpt><trkpt lat="44.22989901184921" lon="11.137483459693387"><ele>687.0</ele><time>2026-04-04T09:09:40Z</time></trkpt><trkpt lat="44.2297994035873" lon="11.1375208566368"><ele>688.4000000000001</ele><time>2026-04-04T09:09:41Z</time></trkpt><trkpt lat="44.22968823432226" lon="11.137544376325641"><ele>689.8000000000001</ele><time>2026-04-04T09:09:42Z</time></trkpt><trkpt lat="44.22957828817702" lon="11.1375329509896"><ele>691.2</ele><time>2026-04-04T09:09:43Z</time></trkpt><trkpt lat="44.229470865812466" lon="11.137510146826493"><ele>692.6</ele><time>2026-04-04T09:09:44Z</time></trkpt><trkpt lat="44.22937253126321" lon="11.137495930776183"><ele>694.0</ele><time>2026-04-04T09:09:45Z</time></trkpt><trkpt lat="44.22926950901025" lon="11.137489582663022"><ele>694.0</ele><time>2026-04-04T09:09:46Z</time></trkpt><trkpt lat="44.22917238022065" lon="11.137500808686212"><ele>694.0</ele><time>2026-04-04T09:09:47Z</time></trkpt><trkpt lat="44.22907728894878" lon="11.137534673659701"><ele>694.0</ele><time>2026-04-04T09:09:48Z</time></trkpt><trkpt lat="44.228994222894265" lon="11.137582765243069"><ele>694.0</ele><time>2026-04-04T09:09:49Z</time></trkpt><trkpt lat="44.22892786000432" lon="11.137660455944008"><ele>694.0</ele><time>2026-04-04T09:09:50Z</time></trkpt><trkpt lat="44.228896713036086" lon="11.137760172890305"><ele>693.0</ele><time>2026-04-04T09:09:51Z</time></trkpt><trkpt lat="44.22889784858127" lon="11.137883117483073"><ele>692.0</ele><time>2026-04-04T09:09:52Z</time></trkpt><trkpt lat="44.228948082988865" lon="11.138014494566091"><ele>691.0</ele><time>2026-04-04T09:09:53Z</time></trkpt><trkpt lat="44.22894965583008" lon="11.138169060922834"><ele>690.0</ele><time>2026-04-04T09:09:54Z</time></trkpt><trkpt lat="44.22895629906483" lon="11.138343159323437"><ele>689.0</ele><time>2026-04-04T09:09:55Z</time></trkpt><trkpt lat="44.22896208376693" lon="11.13853392116862"><ele>687.5</ele><time>2026-04-04T09:09:56Z</time></trkpt><trkpt lat="44.228969354414794" lon="11.138734214377363"><ele>686.0</ele><time>2026-04-04T09:09:57Z</time></trkpt><trkpt lat="44.22898219475274" lon="11.138929788866637"><ele>684.5</ele><time>2026-04-04T09:09:58Z</time></trkpt><trkpt lat="44.22900083508643" lon="11.13911655468865"><ele>683.0</ele><time>2026-04-04T09:09:59Z</time></trkpt><trkpt lat="44.22900870235497" lon="11.13929178375166"><ele>681.25</ele><time>2026-04-04T09:10:00Z</time></trkpt><trkpt lat="44.22900502785792" lon="11.139458386541355"><ele>679.5</ele><time>2026-04-04T09:10:01Z</time></trkpt><trkpt lat="44.228991866426306" lon="11.139625117728222"><ele>677.75</ele><time>2026-04-04T09:10:02Z</time></trkpt><trkpt lat="44.22896551369524" lon="11.139782254071998"><ele>676.0</ele><time>2026-04-04T09:10:03Z</time></trkpt><trkpt lat="44.22891213006004" lon="11.139918449609278"><ele>674.0</ele><time>2026-04-04T09:10:04Z</time></trkpt><trkpt lat="44.22885629309852" lon="11.140058020248226"><ele>672.0</ele><time>2026-04-04T09:10:05Z</time></trkpt><trkpt lat="44.22880058184067" lon="11.140191388230878"><ele>670.0</ele><time>2026-04-04T09:10:06Z</time></trkpt><trkpt lat="44.228743280302865" lon="11.140321586495395"><ele>668.0</ele><time>2026-04-04T09:10:07Z</time></trkpt><trkpt lat="44.228683245088824" lon="11.140447556253594"><ele>666.0</ele><time>2026-04-04T09:10:08Z</time></trkpt><trkpt lat="44.228610752631255" lon="11.140574027930162"><ele>666.0</ele><time>2026-04-04T09:10:09Z</time></trkpt><trkpt lat="44.22853727402836" lon="11.140698507976772"><ele>666.0</ele><time>2026-04-04T09:10:10Z</time></trkpt><trkpt lat="44.22845756916558" lon="11.140833596834813"><ele>666.0</ele><time>2026-04-04T09:10:11Z</time></trkpt><trkpt lat="44.228377066250864" lon="11.140975372639158"><ele>666.0</ele><time>2026-04-04T09:10:12Z</time></trkpt><trkpt lat="44.22830498389324" lon="11.141112805709039"><ele>665.0</ele><time>2026-04-04T09:10:13Z</time></trkpt><trkpt lat="44.22823675475904" lon="11.141249756106204"><ele>664.0</ele><time>2026-04-04T09:10:14Z</time></trkpt><trkpt lat="44.22817230688906" lon="11.141383920488177"><ele>663.0</ele><time>2026-04-04T09:10:15Z</time></trkpt><trkpt lat="44.228108194881976" lon="11.14151219265931"><ele>662.0</ele><time>2026-04-04T09:10:16Z</time></trkpt><trkpt lat="44.22805470425399" lon="11.141644849102509"><ele>659.4000000000001</ele><time>2026-04-04T09:10:17Z</time></trkpt><trkpt lat="44.2279732942555" lon="11.141735841205577"><ele>656.8000000000001</ele><time>2026-04-04T09:10:18Z</time></trkpt><trkpt lat="44.227893119766385" lon="11.141833354654011"><ele>654.2</ele><time>2026-04-04T09:10:19Z</time></trkpt><trkpt lat="44.227808883677405" lon="11.141934530377993"><ele>651.6</ele><time>2026-04-04T09:10:20Z</time></trkpt><trkpt lat="44.22772714216563" lon="11.142034787129136"><ele>649.0</ele><time>2026-04-04T09:10:21Z</time></trkpt><trkpt lat="44.22766096042644" lon="11.14212804429528"><ele>648.9999999999999</ele><time>2026-04-04T09:10:22Z</time></trkpt><trkpt lat="44.227605018616124" lon="11.142200201115802"><ele>649.0</ele><time>2026-04-04T09:10:23Z</time></trkpt><trkpt lat="44.22754589770531" lon="11.14226688675474"><ele>649.0</ele><time>2026-04-04T09:10:24Z</time></trkpt><trkpt lat="44.22747758343189" lon="11.142306632835448"><ele>649.0</ele><time>2026-04-04T09:10:25Z</time></trkpt><trkpt lat="44.227410750436555" lon="11.142305990150605"><ele>649.0</ele><time>2026-04-04T09:10:26Z</time></trkpt><trkpt lat="44.22734579941869" lon="11.142283626934978"><ele>648.9999999999999</ele><time>2026-04-04T09:10:27Z</time></trkpt><trkpt lat="44.2272695049338" lon="11.142273794197042"><ele>649.0</ele><time>2026-04-04T09:10:28Z</time></trkpt><trkpt lat="44.22719906095768" lon="11.142209242751944"><ele>647.0</ele><time>2026-04-04T09:10:29Z</time></trkpt><trkpt lat="44.22714773856851" lon="11.142101978247462"><ele>645.0</ele><time>2026-04-04T09:10:30Z</time></trkpt><trkpt lat="44.22708083800207" lon="11.142012411088714"><ele>643.0</ele><time>2026-04-04T09:10:31Z</time></trkpt><trkpt lat="44.22702852228768" lon="11.14188724650549"><ele>641.0</ele><time>2026-04-04T09:10:32Z</time></trkpt><trkpt lat="44.226991528429295" lon="11.141784980293167"><ele>639.0</ele><time>2026-04-04T09:10:33Z</time></trkpt><trkpt lat="44.22695351850213" lon="11.14167418223775"><ele>639.0</ele><time>2026-04-04T09:10:34Z</time></trkpt><trkpt lat="44.22694035552081" lon="11.141575712351909"><ele>639.0</ele><time>2026-04-04T09:10:35Z</time></trkpt><trkpt lat="44.22694232150081" lon="11.141416371853452"><ele>639.0</ele><time>2026-04-04T09:10:37Z</time></trkpt><trkpt lat="44.22699494923114" lon="11.141272785395987"><ele>639.0</ele><time>2026-04-04T09:10:39Z</time></trkpt><trkpt lat="44.22704357344656" lon="11.141187537023201"><ele>639.0</ele><time>2026-04-04T09:10:40Z</time></trkpt><trkpt lat="44.22710249019994" lon="11.14107722535979"><ele>638.6</ele><time>2026-04-04T09:10:41Z</time></trkpt><trkpt lat="44.22716178996111" lon="11.140964807125611"><ele>638.2</ele><time>2026-04-04T09:10:42Z</time></trkpt><trkpt lat="44.22722671227493" lon="11.140840888256308"><ele>637.8000000000001</ele><time>2026-04-04T09:10:43Z</time></trkpt><trkpt lat="44.22729329517741" lon="11.140713034008265"><ele>637.4</ele><time>2026-04-04T09:10:44Z</time></trkpt><trkpt lat="44.22736500022298" lon="11.140576242413234"><ele>637.0</ele><time>2026-04-04T09:10:45Z</time></trkpt><trkpt lat="44.227434124677245" lon="11.140445758546525"><ele>637.0</ele><time>2026-04-04T09:10:46Z</time></trkpt><trkpt lat="44.22750576960975" lon="11.140313510874044"><ele>637.0</ele><time>2026-04-04T09:10:47Z</time></trkpt><trkpt lat="44.22757377396661" lon="11.140182806851524"><ele>637.0</ele><time>2026-04-04T09:10:48Z</time></trkpt><trkpt lat="44.22763329238928" lon="11.140049458103421"><ele>637.0</ele><time>2026-04-04T09:10:49Z</time></trkpt><trkpt lat="44.22767069680243" lon="11.139916112599852"><ele>638.0</ele><time>2026-04-04T09:10:50Z</time></trkpt><trkpt lat="44.22767956245754" lon="11.139771077159383"><ele>639.0</ele><time>2026-04-04T09:10:51Z</time></trkpt><trkpt lat="44.227660009312025" lon="11.139623871891997"><ele>640.0</ele><time>2026-04-04T09:10:52Z</time></trkpt><trkpt lat="44.227612772781335" lon="11.139478878858265"><ele>641.0</ele><time>2026-04-04T09:10:53Z</time></trkpt><trkpt lat="44.22754478992612" lon="11.139342394817401"><ele>642.0</ele><time>2026-04-04T09:10:54Z</time></trkpt><trkpt lat="44.22746045423701" lon="11.139220963884183"><ele>642.0</ele><time>2026-04-04T09:10:55Z</time></trkpt><trkpt lat="44.22738285748402" lon="11.139084426104034"><ele>642.0</ele><time>2026-04-04T09:10:56Z</time></trkpt><trkpt lat="44.22729930163116" lon="11.138961714890472"><ele>642.0</ele><time>2026-04-04T09:10:57Z</time></trkpt><trkpt lat="44.2272234602083" lon="11.138842278992922"><ele>642.0</ele><time>2026-04-04T09:10:58Z</time></trkpt><trkpt lat="44.22714285562038" lon="11.13871827654638"><ele>640.0</ele><time>2026-04-04T09:10:59Z</time></trkpt><trkpt lat="44.22708335451357" lon="11.138580602940596"><ele>638.0</ele><time>2026-04-04T09:11:00Z</time></trkpt><trkpt lat="44.22702209801418" lon="11.138449734748084"><ele>636.0</ele><time>2026-04-04T09:11:01Z</time></trkpt><trkpt lat="44.22694565619002" lon="11.138338705246106"><ele>634.0</ele><time>2026-04-04T09:11:02Z</time></trkpt><trkpt lat="44.22685395489144" lon="11.13824587287011"><ele>634.4</ele><time>2026-04-04T09:11:03Z</time></trkpt><trkpt lat="44.22677848424747" lon="11.138130928992101"><ele>634.8</ele><time>2026-04-04T09:11:04Z</time></trkpt><trkpt lat="44.226689030579145" lon="11.138054264237951"><ele>635.2</ele><time>2026-04-04T09:11:05Z</time></trkpt><trkpt lat="44.22658703624161" lon="11.138022643256088"><ele>635.6</ele><time>2026-04-04T09:11:06Z</time></trkpt><trkpt lat="44.22647217213664" lon="11.138054428650529"><ele>636.0</ele><time>2026-04-04T09:11:07Z</time></trkpt><trkpt lat="44.226375541304876" lon="11.13809455825765"><ele>636.0</ele><time>2026-04-04T09:11:08Z</time></trkpt><trkpt lat="44.22627467720363" lon="11.138120179102499"><ele>636.0</ele><time>2026-04-04T09:11:09Z</time></trkpt><trkpt lat="44.226165915035565" lon="11.13814400684073"><ele>636.0</ele><time>2026-04-04T09:11:10Z</time></trkpt><trkpt lat="44.22607094576425" lon="11.13816062153201"><ele>636.0</ele><time>2026-04-04T09:11:11Z</time></trkpt><trkpt lat="44.22597866403775" lon="11.138174126983515"><ele>636.0</ele><time>2026-04-04T09:11:12Z</time></trkpt><trkpt lat="44.22589807285945" lon="11.1381807071531"><ele>636.0</ele><time>2026-04-04T09:11:13Z</time></trkpt><trkpt lat="44.2258282869738" lon="11.138173713955581"><ele>636.0</ele><time>2026-04-04T09:11:14Z</time></trkpt><trkpt lat="44.225759591770846" lon="11.138141181986569"><ele>636.0</ele><time>2026-04-04T09:11:15Z</time></trkpt><trkpt lat="44.22568867679407" lon="11.138048289720233"><ele>636.0</ele><time>2026-04-04T09:11:16Z</time></trkpt><trkpt lat="44.225615130496536" lon="11.137931751992225"><ele>636.0</ele><time>2026-04-04T09:11:17Z</time></trkpt><trkpt lat="44.22553973900579" lon="11.137818184140771"><ele>630.8333333333334</ele><time>2026-04-04T09:11:18Z</time></trkpt><trkpt lat="44.2254833591865" lon="11.13771355849901"><ele>625.6666666666666</ele><time>2026-04-04T09:11:19Z</time></trkpt><trkpt lat="44.22544402099499" lon="11.137628667333773"><ele>620.5</ele><time>2026-04-04T09:11:20Z</time></trkpt><trkpt lat="44.22541608022599" lon="11.137534136437395"><ele>615.3333333333333</ele><time>2026-04-04T09:11:21Z</time></trkpt><trkpt lat="44.22541030530846" lon="11.137423031597496"><ele>610.1666666666666</ele><time>2026-04-04T09:11:22Z</time></trkpt><trkpt lat="44.22542545379152" lon="11.13730194691859"><ele>605.0</ele><time>2026-04-04T09:11:23Z</time></trkpt><trkpt lat="44.22545202447584" lon="11.13717865249665"><ele>605.0</ele><time>2026-04-04T09:11:24Z</time></trkpt><trkpt lat="44.225484230214036" lon="11.13704453063255"><ele>605.0</ele><time>2026-04-04T09:11:25Z</time></trkpt><trkpt lat="44.22551696659528" lon="11.136916093189443"><ele>605.0</ele><time>2026-04-04T09:11:26Z</time></trkpt><trkpt lat="44.22554990406167" lon="11.136796366344416"><ele>605.0</ele><time>2026-04-04T09:11:27Z</time></trkpt><trkpt lat="44.22558279098211" lon="11.13669639502296"><ele>605.0</ele><time>2026-04-04T09:11:28Z</time></trkpt><trkpt lat="44.22561991460026" lon="11.136596265909619"><ele>606.8571428571429</ele><time>2026-04-04T09:11:29Z</time></trkpt><trkpt lat="44.2256546264604" lon="11.136508466190218"><ele>608.7142857142858</ele><time>2026-04-04T09:11:30Z</time></trkpt><trkpt lat="44.22567620293098" lon="11.13642255141928"><ele>610.5714285714287</ele><time>2026-04-04T09:11:31Z</time></trkpt><trkpt lat="44.225663066584204" lon="11.13633455540431"><ele>612.4285714285714</ele><time>2026-04-04T09:11:32Z</time></trkpt><trkpt lat="44.22561353244213" lon="11.136269304291076"><ele>614.2857142857143</ele><time>2026-04-04T09:11:33Z</time></trkpt><trkpt lat="44.22556152316816" lon="11.13619699163411"><ele>616.1428571428572</ele><time>2026-04-04T09:11:34Z</time></trkpt><trkpt lat="44.22547480447803" lon="11.136184644469997"><ele>618.0</ele><time>2026-04-04T09:11:35Z</time></trkpt><trkpt lat="44.22538712384164" lon="11.136170003055518"><ele>618.0</ele><time>2026-04-04T09:11:36Z</time></trkpt><trkpt lat="44.225309818985004" lon="11.136151344362924"><ele>618.0</ele><time>2026-04-04T09:11:37Z</time></trkpt><trkpt lat="44.22522019947152" lon="11.136145327922817"><ele>618.0</ele><time>2026-04-04T09:11:38Z</time></trkpt><trkpt lat="44.225142659352144" lon="11.136092243788285"><ele>618.0</ele><time>2026-04-04T09:11:39Z</time></trkpt><trkpt lat="44.22507866916328" lon="11.136008660344974"><ele>618.0</ele><time>2026-04-04T09:11:40Z</time></trkpt><trkpt lat="44.22501183554056" lon="11.135903691566373"><ele>618.0</ele><time>2026-04-04T09:11:41Z</time></trkpt><trkpt lat="44.22494044422968" lon="11.135793774359335"><ele>620.4</ele><time>2026-04-04T09:11:42Z</time></trkpt><trkpt lat="44.2248678153315" lon="11.13568804223203"><ele>622.8</ele><time>2026-04-04T09:11:43Z</time></trkpt><trkpt lat="44.22479669941818" lon="11.135588698474786"><ele>625.2</ele><time>2026-04-04T09:11:44Z</time></trkpt><trkpt lat="44.22473470756189" lon="11.135485140978245"><ele>627.6</ele><time>2026-04-04T09:11:45Z</time></trkpt><trkpt lat="44.22469342279911" lon="11.135369408387058"><ele>630.0</ele><time>2026-04-04T09:11:46Z</time></trkpt><trkpt lat="44.22467709819215" lon="11.135241285406355"><ele>622.6</ele><time>2026-04-04T09:11:47Z</time></trkpt><trkpt lat="44.224687182751246" lon="11.135099211908043"><ele>615.2</ele><time>2026-04-04T09:11:48Z</time></trkpt><trkpt lat="44.224708820954824" lon="11.134944695337424"><ele>607.8</ele><time>2026-04-04T09:11:49Z</time></trkpt><trkpt lat="44.22472896935929" lon="11.134788154017317"><ele>600.4</ele><time>2026-04-04T09:11:50.001Z</time></trkpt><trkpt lat="44.22474399696422" lon="11.134645651841348"><ele>593.0</ele><time>2026-04-04T09:11:51.001Z</time></trkpt><trkpt lat="44.22473490362396" lon="11.13449508757112"><ele>593.0</ele><time>2026-04-04T09:11:52.001Z</time></trkpt><trkpt lat="44.2246870286431" lon="11.13436373272238"><ele>593.0</ele><time>2026-04-04T09:11:53.001Z</time></trkpt><trkpt lat="44.22462308783638" lon="11.13425914578222"><ele>593.0</ele><time>2026-04-04T09:11:54.001Z</time></trkpt><trkpt lat="44.22456243206085" lon="11.134159179398173"><ele>593.0</ele><time>2026-04-04T09:11:55.001Z</time></trkpt><trkpt lat="44.22451193313563" lon="11.134051255487147"><ele>593.0</ele><time>2026-04-04T09:11:56.001Z</time></trkpt><trkpt lat="44.2244878767138" lon="11.133924070703046"><ele>593.6</ele><time>2026-04-04T09:11:57.001Z</time></trkpt><trkpt lat="44.22448223813547" lon="11.133781240678491"><ele>594.1999999999999</ele><time>2026-04-04T09:11:58.001Z</time></trkpt><trkpt lat="44.22448173866405" lon="11.13363262195607"><ele>594.8</ele><time>2026-04-04T09:11:59.001Z</time></trkpt><trkpt lat="44.2244798250181" lon="11.133491927766261"><ele>595.4</ele><time>2026-04-04T09:12:00.001Z</time></trkpt><trkpt lat="44.2244615122902" lon="11.133359912373042"><ele>596.0</ele><time>2026-04-04T09:12:01.001Z</time></trkpt><trkpt lat="44.22442022381238" lon="11.133231970289287"><ele>596.4</ele><time>2026-04-04T09:12:02.001Z</time></trkpt><trkpt lat="44.224373053742745" lon="11.13310347934904"><ele>596.8</ele><time>2026-04-04T09:12:03.001Z</time></trkpt><trkpt lat="44.22432845015771" lon="11.132990546882333"><ele>597.1999999999999</ele><time>2026-04-04T09:12:04.001Z</time></trkpt><trkpt lat="44.224282875606185" lon="11.132868886305515"><ele>597.6</ele><time>2026-04-04T09:12:05.001Z</time></trkpt><trkpt lat="44.22424856036744" lon="11.13274036227591"><ele>598.0</ele><time>2026-04-04T09:12:06.001Z</time></trkpt><trkpt lat="44.224225257424976" lon="11.132602770140352"><ele>598.0</ele><time>2026-04-04T09:12:07.001Z</time></trkpt><trkpt lat="44.224209885259405" lon="11.132455606732488"><ele>598.0</ele><time>2026-04-04T09:12:08.001Z</time></trkpt><trkpt lat="44.224204023279704" lon="11.13230028687826"><ele>598.0</ele><time>2026-04-04T09:12:09Z</time></trkpt><trkpt lat="44.2242081980719" lon="11.132142558470164"><ele>598.0</ele><time>2026-04-04T09:12:10Z</time></trkpt><trkpt lat="44.22420680579552" lon="11.131997503948455"><ele>598.0</ele><time>2026-04-04T09:12:11Z</time></trkpt><trkpt lat="44.22419902153915" lon="11.131875174073325"><ele>598.1666666666667</ele><time>2026-04-04T09:12:12Z</time></trkpt><trkpt lat="44.224175423411914" lon="11.13176537219029"><ele>598.3333333333334</ele><time>2026-04-04T09:12:13Z</time></trkpt><trkpt lat="44.22413494784023" lon="11.131674467529503"><ele>598.5</ele><time>2026-04-04T09:12:14Z</time></trkpt><trkpt lat="44.2240736138635" lon="11.131599458318172"><ele>598.6666666666666</ele><time>2026-04-04T09:12:15Z</time></trkpt><trkpt lat="44.223995859347475" lon="11.131544448029576"><ele>598.8333333333333</ele><time>2026-04-04T09:12:16Z</time></trkpt><trkpt lat="44.223914940814" lon="11.131478266520784"><ele>599.0</ele><time>2026-04-04T09:12:17Z</time></trkpt><trkpt lat="44.223817249195584" lon="11.131435838497223"><ele>597.2</ele><time>2026-04-04T09:12:18Z</time></trkpt><trkpt lat="44.22371265887637" lon="11.131391196232695"><ele>595.4</ele><time>2026-04-04T09:12:19Z</time></trkpt><trkpt lat="44.22360375199288" lon="11.131370067828392"><ele>593.6</ele><time>2026-04-04T09:12:20Z</time></trkpt><trkpt lat="44.223504007460804" lon="11.13131811629237"><ele>591.8</ele><time>2026-04-04T09:12:21Z</time></trkpt><trkpt lat="44.22339837318013" lon="11.131280898157065"><ele>590.0</ele><time>2026-04-04T09:12:22Z</time></trkpt><trkpt lat="44.2232964299641" lon="11.131245923354685"><ele>590.0</ele><time>2026-04-04T09:12:23Z</time></trkpt><trkpt lat="44.2231884559136" lon="11.131205955585871"><ele>590.0</ele><time>2026-04-04T09:12:24Z</time></trkpt><trkpt lat="44.223089320147345" lon="11.131173059485096"><ele>590.0</ele><time>2026-04-04T09:12:25Z</time></trkpt><trkpt lat="44.222992545267196" lon="11.131146445972808"><ele>590.0</ele><time>2026-04-04T09:12:26Z</time></trkpt><trkpt lat="44.22289460782174" lon="11.131120807720006"><ele>590.0</ele><time>2026-04-04T09:12:27Z</time></trkpt><trkpt lat="44.22279273551787" lon="11.13114579246475"><ele>589.5</ele><time>2026-04-04T09:12:28Z</time></trkpt><trkpt lat="44.22269849492351" lon="11.131185278348285"><ele>589.0</ele><time>2026-04-04T09:12:29Z</time></trkpt><trkpt lat="44.22258890346586" lon="11.131256530765711"><ele>588.5</ele><time>2026-04-04T09:12:30Z</time></trkpt><trkpt lat="44.22247163349151" lon="11.13134357505481"><ele>588.0</ele><time>2026-04-04T09:12:31Z</time></trkpt><trkpt lat="44.22234272828502" lon="11.131442136091627"><ele>589.0</ele><time>2026-04-04T09:12:32Z</time></trkpt><trkpt lat="44.22220323266825" lon="11.13154879308838"><ele>590.0</ele><time>2026-04-04T09:12:33Z</time></trkpt><trkpt lat="44.22205945152727" lon="11.131657555181793"><ele>591.0</ele><time>2026-04-04T09:12:34Z</time></trkpt><trkpt lat="44.221904550163266" lon="11.131800141551922"><ele>591.0</ele><time>2026-04-04T09:12:35Z</time></trkpt><trkpt lat="44.221757110913266" lon="11.1319348936445"><ele>591.0</ele><time>2026-04-04T09:12:36Z</time></trkpt><trkpt lat="44.221623614211595" lon="11.132068784545977"><ele>591.0</ele><time>2026-04-04T09:12:37Z</time></trkpt><trkpt lat="44.22150517575706" lon="11.132200774041435"><ele>594.0</ele><time>2026-04-04T09:12:38Z</time></trkpt><trkpt lat="44.2213854093809" lon="11.13231704295315"><ele>597.0</ele><time>2026-04-04T09:12:39Z</time></trkpt><trkpt lat="44.2212890739979" lon="11.132447761694323"><ele>600.0</ele><time>2026-04-04T09:12:40Z</time></trkpt><trkpt lat="44.22118941496267" lon="11.132577360745401"><ele>603.0</ele><time>2026-04-04T09:12:41Z</time></trkpt><trkpt lat="44.22107797863607" lon="11.132696744168484"><ele>603.0</ele><time>2026-04-04T09:12:42Z</time></trkpt><trkpt lat="44.22096102541946" lon="11.132794649847629"><ele>603.0</ele><time>2026-04-04T09:12:43Z</time></trkpt><trkpt lat="44.220843931718505" lon="11.13288083070356"><ele>603.0</ele><time>2026-04-04T09:12:44Z</time></trkpt><trkpt lat="44.22073425828447" lon="11.132955400610578"><ele>603.0</ele><time>2026-04-04T09:12:45Z</time></trkpt><trkpt lat="44.22062799031272" lon="11.133013506587814"><ele>604.25</ele><time>2026-04-04T09:12:46Z</time></trkpt><trkpt lat="44.22050868255269" lon="11.133084457543177"><ele>605.5</ele><time>2026-04-04T09:12:47Z</time></trkpt><trkpt lat="44.22037936701364" lon="11.13314436568118"><ele>606.75</ele><time>2026-04-04T09:12:48Z</time></trkpt><trkpt lat="44.220263257371585" lon="11.133244345745476"><ele>608.0</ele><time>2026-04-04T09:12:49Z</time></trkpt><trkpt lat="44.22015915700809" lon="11.133361433048695"><ele>606.1999999999999</ele><time>2026-04-04T09:12:50Z</time></trkpt><trkpt lat="44.22005986659543" lon="11.133473803986986"><ele>604.4</ele><time>2026-04-04T09:12:51Z</time></trkpt><trkpt lat="44.219972671337764" lon="11.133569565443521"><ele>602.5999999999999</ele><time>2026-04-04T09:12:52Z</time></trkpt><trkpt lat="44.21988491856312" lon="11.133651552573918"><ele>600.8</ele><time>2026-04-04T09:12:53Z</time></trkpt><trkpt lat="44.219813165802314" lon="11.133725446792054"><ele>599.0</ele><time>2026-04-04T09:12:54Z</time></trkpt><trkpt lat="44.2197571450813" lon="11.13376924420744"><ele>599.0</ele><time>2026-04-04T09:12:55Z</time></trkpt><trkpt lat="44.2196847356146" lon="11.133787263665559"><ele>599.0</ele><time>2026-04-04T09:12:57Z</time></trkpt><trkpt lat="44.219603049840714" lon="11.133930223795781"><ele>599.0</ele><time>2026-04-04T09:12:59Z</time></trkpt><trkpt lat="44.21954347711581" lon="11.134053250602962"><ele>599.0</ele><time>2026-04-04T09:13:00Z</time></trkpt><trkpt lat="44.21949342316827" lon="11.13421475943501"><ele>599.0</ele><time>2026-04-04T09:13:01Z</time></trkpt><trkpt lat="44.21944025220804" lon="11.134374226992227"><ele>597.1666666666666</ele><time>2026-04-04T09:13:02Z</time></trkpt><trkpt lat="44.21939625873434" lon="11.134506170267235"><ele>595.3333333333333</ele><time>2026-04-04T09:13:03Z</time></trkpt><trkpt lat="44.21935589019204" lon="11.134601031407957"><ele>593.5</ele><time>2026-04-04T09:13:04Z</time></trkpt><trkpt lat="44.21932804419695" lon="11.134693600169928"><ele>591.6666666666666</ele><time>2026-04-04T09:13:05Z</time></trkpt><trkpt lat="44.21925521549152" lon="11.134730580611444"><ele>589.8333333333334</ele><time>2026-04-04T09:13:06Z</time></trkpt><trkpt lat="44.219176066939994" lon="11.13471622331917"><ele>588.0</ele><time>2026-04-04T09:13:07Z</time></trkpt><trkpt lat="44.219106762007485" lon="11.134658709944206"><ele>588.0</ele><time>2026-04-04T09:13:08Z</time></trkpt><trkpt lat="44.219045672169926" lon="11.134560701943032"><ele>588.0</ele><time>2026-04-04T09:13:09Z</time></trkpt><trkpt lat="44.21897938443419" lon="11.134426064911043"><ele>588.0</ele><time>2026-04-04T09:13:10Z</time></trkpt><trkpt lat="44.21891130352433" lon="11.134283655612911"><ele>588.0</ele><time>2026-04-04T09:13:11Z</time></trkpt><trkpt lat="44.21883824248298" lon="11.134163453470023"><ele>588.0</ele><time>2026-04-04T09:13:12Z</time></trkpt><trkpt lat="44.21875117801508" lon="11.134076210569866"><ele>586.5</ele><time>2026-04-04T09:13:13Z</time></trkpt><trkpt lat="44.21864836208323" lon="11.134010653023592"><ele>585.0</ele><time>2026-04-04T09:13:14Z</time></trkpt><trkpt lat="44.21852115096835" lon="11.133943034154381"><ele>583.5</ele><time>2026-04-04T09:13:15Z</time></trkpt><trkpt lat="44.21838349271312" lon="11.13388138810832"><ele>582.0</ele><time>2026-04-04T09:13:16Z</time></trkpt><trkpt lat="44.21826157969111" lon="11.13382569720326"><ele>581.0</ele><time>2026-04-04T09:13:17Z</time></trkpt><trkpt lat="44.218138352813654" lon="11.13377554137558"><ele>580.0</ele><time>2026-04-04T09:13:18Z</time></trkpt><trkpt lat="44.218015400790755" lon="11.133749445358053"><ele>579.0</ele><time>2026-04-04T09:13:19Z</time></trkpt><trkpt lat="44.21788738859418" lon="11.133739840587097"><ele>578.0</ele><time>2026-04-04T09:13:20Z</time></trkpt><trkpt lat="44.21776558585795" lon="11.13373161155363"><ele>578.0</ele><time>2026-04-04T09:13:21Z</time></trkpt><trkpt lat="44.21765797021469" lon="11.133721189023275"><ele>578.0</ele><time>2026-04-04T09:13:22Z</time></trkpt><trkpt lat="44.21755602970616" lon="11.133701282424658"><ele>578.0</ele><time>2026-04-04T09:13:23Z</time></trkpt><trkpt lat="44.21745737142123" lon="11.133694543084692"><ele>578.0</ele><time>2026-04-04T09:13:24Z</time></trkpt><trkpt lat="44.217358958582906" lon="11.133737834771"><ele>578.0</ele><time>2026-04-04T09:13:25Z</time></trkpt><trkpt lat="44.21727940526409" lon="11.133914867568613"><ele>576.8</ele><time>2026-04-04T09:13:26Z</time></trkpt><trkpt lat="44.217206541455795" lon="11.13402041019704"><ele>575.5999999999999</ele><time>2026-04-04T09:13:27Z</time></trkpt><trkpt lat="44.217142571596334" lon="11.134130231996174"><ele>574.4000000000001</ele><time>2026-04-04T09:13:28Z</time></trkpt><trkpt lat="44.21708003757797" lon="11.134222656226719"><ele>573.2</ele><time>2026-04-04T09:13:29Z</time></trkpt><trkpt lat="44.216985137727676" lon="11.134228128685166"><ele>572.0</ele><time>2026-04-04T09:13:30Z</time></trkpt><trkpt lat="44.21689060721242" lon="11.134265682481585"><ele>570.6</ele><time>2026-04-04T09:13:31Z</time></trkpt><trkpt lat="44.21676482047039" lon="11.134276058546364"><ele>569.2</ele><time>2026-04-04T09:13:32Z</time></trkpt><trkpt lat="44.21663879414506" lon="11.134289378024315"><ele>567.8</ele><time>2026-04-04T09:13:33Z</time></trkpt><trkpt lat="44.21654022513586" lon="11.134298427004207"><ele>566.4</ele><time>2026-04-04T09:13:34Z</time></trkpt><trkpt lat="44.2164558859844" lon="11.134296908247272"><ele>565.0</ele><time>2026-04-04T09:13:35Z</time></trkpt><trkpt lat="44.21638651967511" lon="11.134275419391411"><ele>562.2</ele><time>2026-04-04T09:13:36Z</time></trkpt><trkpt lat="44.21632711539272" lon="11.134215610957154"><ele>559.4</ele><time>2026-04-04T09:13:37Z</time></trkpt><trkpt lat="44.2162751217183" lon="11.134132626526547"><ele>556.6</ele><time>2026-04-04T09:13:38Z</time></trkpt><trkpt lat="44.21623230338713" lon="11.134013905234518"><ele>553.8</ele><time>2026-04-04T09:13:39Z</time></trkpt><trkpt lat="44.216205462635656" lon="11.133865697135793"><ele>551.0</ele><time>2026-04-04T09:13:40Z</time></trkpt><trkpt lat="44.21618287906578" lon="11.133711630106669"><ele>551.0</ele><time>2026-04-04T09:13:41Z</time></trkpt><trkpt lat="44.21615921523191" lon="11.133598053834946"><ele>551.0</ele><time>2026-04-04T09:13:42Z</time></trkpt><trkpt lat="44.216128971749754" lon="11.133517521214518"><ele>551.0</ele><time>2026-04-04T09:13:43Z</time></trkpt><trkpt lat="44.2160834686648" lon="11.133407387124162"><ele>551.0</ele><time>2026-04-04T09:13:44Z</time></trkpt><trkpt lat="44.216018980947965" lon="11.133277799488427"><ele>551.0</ele><time>2026-04-04T09:13:45Z</time></trkpt><trkpt lat="44.215944013205316" lon="11.133130017924692"><ele>553.75</ele><time>2026-04-04T09:13:46Z</time></trkpt><trkpt lat="44.215859540267545" lon="11.132979789992818"><ele>556.5</ele><time>2026-04-04T09:13:47Z</time></trkpt><trkpt lat="44.215777472527854" lon="11.132833606428145"><ele>559.25</ele><time>2026-04-04T09:13:48Z</time></trkpt><trkpt lat="44.215690265725165" lon="11.132678051533464"><ele>562.0</ele><time>2026-04-04T09:13:49Z</time></trkpt><trkpt lat="44.21560990982745" lon="11.132537405023134"><ele>560.5</ele><time>2026-04-04T09:13:50Z</time></trkpt><trkpt lat="44.21553301440622" lon="11.13241205665763"><ele>559.0</ele><time>2026-04-04T09:13:51Z</time></trkpt><trkpt lat="44.21543952990842" lon="11.13230067039513"><ele>557.5</ele><time>2026-04-04T09:13:52Z</time></trkpt><trkpt lat="44.215326460949115" lon="11.132227071773576"><ele>556.0</ele><time>2026-04-04T09:13:53Z</time></trkpt><trkpt lat="44.215202925517836" lon="11.132169684585335"><ele>556.0</ele><time>2026-04-04T09:13:54Z</time></trkpt><trkpt lat="44.21509173617483" lon="11.132091228085931"><ele>556.0</ele><time>2026-04-04T09:13:55Z</time></trkpt><trkpt lat="44.21498353954708" lon="11.132009540274307"><ele>556.0</ele><time>2026-04-04T09:13:56.001Z</time></trkpt><trkpt lat="44.21490142384543" lon="11.131916046030652"><ele>556.0</ele><time>2026-04-04T09:13:57.001Z</time></trkpt><trkpt lat="44.21482188974491" lon="11.131805016788043"><ele>551.8</ele><time>2026-04-04T09:13:58.001Z</time></trkpt><trkpt lat="44.21474485871416" lon="11.131687794639209"><ele>547.6</ele><time>2026-04-04T09:13:59.001Z</time></trkpt><trkpt lat="44.21466724585697" lon="11.131560471192333"><ele>543.4</ele><time>2026-04-04T09:14:00.001Z</time></trkpt><trkpt lat="44.21460091304954" lon="11.1314443162069"><ele>539.2</ele><time>2026-04-04T09:14:01.001Z</time></trkpt><trkpt lat="44.214549342042496" lon="11.131345434050468"><ele>535.0</ele><time>2026-04-04T09:14:02.001Z</time></trkpt><trkpt lat="44.2145242394468" lon="11.131257878848425"><ele>535.0</ele><time>2026-04-04T09:14:03.001Z</time></trkpt><trkpt lat="44.21452132037626" lon="11.131153277551995"><ele>535.0</ele><time>2026-04-04T09:14:04.001Z</time></trkpt><trkpt lat="44.214544587517445" lon="11.131034553761944"><ele>535.0</ele><time>2026-04-04T09:14:05.001Z</time></trkpt><trkpt lat="44.21457829332356" lon="11.130905368114663"><ele>535.0</ele><time>2026-04-04T09:14:06.001Z</time></trkpt><trkpt lat="44.21461169519084" lon="11.130766454822396"><ele>535.0</ele><time>2026-04-04T09:14:07.001Z</time></trkpt><trkpt lat="44.214630471357424" lon="11.130639131854748"><ele>534.6</ele><time>2026-04-04T09:14:08.001Z</time></trkpt><trkpt lat="44.21463319034878" lon="11.130517913795835"><ele>534.2</ele><time>2026-04-04T09:14:09.001Z</time></trkpt><trkpt lat="44.21461648485444" lon="11.13039160709109"><ele>533.8</ele><time>2026-04-04T09:14:10Z</time></trkpt><trkpt lat="44.214571287627855" lon="11.130274038468526"><ele>533.4</ele><time>2026-04-04T09:14:11Z</time></trkpt><trkpt lat="44.21450913369704" lon="11.13016776523193"><ele>533.0</ele><time>2026-04-04T09:14:12Z</time></trkpt><trkpt lat="44.21445580455816" lon="11.130053758492352"><ele>533.0</ele><time>2026-04-04T09:14:13Z</time></trkpt><trkpt lat="44.21440101326475" lon="11.129930998683871"><ele>533.0</ele><time>2026-04-04T09:14:14Z</time></trkpt><trkpt lat="44.21435456019814" lon="11.129801654587357"><ele>533.0</ele><time>2026-04-04T09:14:15Z</time></trkpt><trkpt lat="44.214301381731076" lon="11.129672649187457"><ele>533.0</ele><time>2026-04-04T09:14:16Z</time></trkpt><trkpt lat="44.21423945668016" lon="11.129520469307346"><ele>533.0</ele><time>2026-04-04T09:14:17Z</time></trkpt><trkpt lat="44.21417647578924" lon="11.129364562952984"><ele>534.25</ele><time>2026-04-04T09:14:18Z</time></trkpt><trkpt lat="44.21410644881162" lon="11.129203210404748"><ele>535.5</ele><time>2026-04-04T09:14:19Z</time></trkpt><trkpt lat="44.21403629682359" lon="11.129047037303298"><ele>536.75</ele><time>2026-04-04T09:14:20Z</time></trkpt><trkpt lat="44.21395752493149" lon="11.128905854446755"><ele>538.0</ele><time>2026-04-04T09:14:21Z</time></trkpt><trkpt lat="44.213856513237204" lon="11.12878701172893"><ele>534.6666666666667</ele><time>2026-04-04T09:14:22Z</time></trkpt><trkpt lat="44.2137296909149" lon="11.128686030799525"><ele>531.3333333333334</ele><time>2026-04-04T09:14:23Z</time></trkpt><trkpt lat="44.213586564909576" lon="11.128599188317411"><ele>528.0</ele><time>2026-04-04T09:14:24Z</time></trkpt><trkpt lat="44.213445738092595" lon="11.128518126257593"><ele>528.0</ele><time>2026-04-04T09:14:25Z</time></trkpt><trkpt lat="44.21332342752282" lon="11.12843390519029"><ele>528.0</ele><time>2026-04-04T09:14:26Z</time></trkpt><trkpt lat="44.21321850231871" lon="11.128346372159204"><ele>528.0</ele><time>2026-04-04T09:14:27Z</time></trkpt><trkpt lat="44.21312637197561" lon="11.128254453093847"><ele>528.0</ele><time>2026-04-04T09:14:28Z</time></trkpt><trkpt lat="44.21304751804244" lon="11.128150866611549"><ele>525.6</ele><time>2026-04-04T09:14:29Z</time></trkpt><trkpt lat="44.21297603352467" lon="11.128037492182875"><ele>523.1999999999999</ele><time>2026-04-04T09:14:30Z</time></trkpt><trkpt lat="44.21291037195944" lon="11.127900523957697"><ele>520.8</ele><time>2026-04-04T09:14:31Z</time></trkpt><trkpt lat="44.212853722467564" lon="11.127769005644183"><ele>518.4</ele><time>2026-04-04T09:14:32Z</time></trkpt><trkpt lat="44.21281138374461" lon="11.127635118877418"><ele>516.0</ele><time>2026-04-04T09:14:33Z</time></trkpt><trkpt lat="44.21278563387623" lon="11.127480002288442"><ele>516.5</ele><time>2026-04-04T09:14:34Z</time></trkpt><trkpt lat="44.21276901577475" lon="11.127297129819812"><ele>517.0</ele><time>2026-04-04T09:14:35Z</time></trkpt><trkpt lat="44.212741538660964" lon="11.127112229025522"><ele>517.5</ele><time>2026-04-04T09:14:36Z</time></trkpt><trkpt lat="44.2127054133656" lon="11.12692751421287"><ele>518.0</ele><time>2026-04-04T09:14:37Z</time></trkpt><trkpt lat="44.21266705837588" lon="11.126760057028912"><ele>518.0</ele><time>2026-04-04T09:14:38Z</time></trkpt><trkpt lat="44.21260015711342" lon="11.12663347200871"><ele>518.0</ele><time>2026-04-04T09:14:39Z</time></trkpt><trkpt lat="44.21249383545027" lon="11.126507239245583"><ele>518.0</ele><time>2026-04-04T09:14:40Z</time></trkpt><trkpt lat="44.21238310024762" lon="11.126405723921952"><ele>518.0</ele><time>2026-04-04T09:14:41Z</time></trkpt><trkpt lat="44.212306645619975" lon="11.126311060073908"><ele>516.8</ele><time>2026-04-04T09:14:42Z</time></trkpt><trkpt lat="44.21226729100499" lon="11.12619818665683"><ele>515.5999999999999</ele><time>2026-04-04T09:14:43Z</time></trkpt><trkpt lat="44.21224942231466" lon="11.126065113305707"><ele>514.4000000000001</ele><time>2026-04-04T09:14:44Z</time></trkpt><trkpt lat="44.2122481714457" lon="11.125917169914228"><ele>513.2</ele><time>2026-04-04T09:14:45Z</time></trkpt><trkpt lat="44.21225299038257" lon="11.125755830423497"><ele>512.0</ele><time>2026-04-04T09:14:46Z</time></trkpt><trkpt lat="44.21223659038464" lon="11.125629951711566"><ele>511.99999999999994</ele><time>2026-04-04T09:14:47Z</time></trkpt><trkpt lat="44.21218581182885" lon="11.12554709080819"><ele>512.0</ele><time>2026-04-04T09:14:48Z</time></trkpt><trkpt lat="44.212115758309615" lon="11.125524911736342"><ele>512.0</ele><time>2026-04-04T09:14:49Z</time></trkpt><trkpt lat="44.21204252544496" lon="11.125557405414193"><ele>512.0</ele><time>2026-04-04T09:14:50Z</time></trkpt><trkpt lat="44.211972785358114" lon="11.125631883737514"><ele>511.99999999999994</ele><time>2026-04-04T09:14:51Z</time></trkpt><trkpt lat="44.21192343249713" lon="11.125803611135112"><ele>512.0</ele><time>2026-04-04T09:14:52Z</time></trkpt><trkpt lat="44.211832937219604" lon="11.125981775572942"><ele>510.0</ele><time>2026-04-04T09:14:53Z</time></trkpt><trkpt lat="44.21173762329161" lon="11.126185724564545"><ele>508.0</ele><time>2026-04-04T09:14:54Z</time></trkpt><trkpt lat="44.21163678714171" lon="11.126387300224259"><ele>506.0</ele><time>2026-04-04T09:14:55Z</time></trkpt><trkpt lat="44.21154237139325" lon="11.12657228628815"><ele>504.4</ele><time>2026-04-04T09:14:56Z</time></trkpt><trkpt lat="44.2114577298219" lon="11.126732451528568"><ele>502.8</ele><time>2026-04-04T09:14:57Z</time></trkpt><trkpt lat="44.21138603163733" lon="11.126858062498545"><ele>501.19999999999993</ele><time>2026-04-04T09:14:58Z</time></trkpt><trkpt lat="44.21133706519179" lon="11.12694312879538"><ele>499.59999999999997</ele><time>2026-04-04T09:14:59Z</time></trkpt><trkpt lat="44.21125726974568" lon="11.127036238426117"><ele>498.0</ele><time>2026-04-04T09:15:01Z</time></trkpt><trkpt lat="44.21112150275115" lon="11.126941799298983"><ele>498.0</ele><time>2026-04-04T09:15:03Z</time></trkpt><trkpt lat="44.21104465002861" lon="11.12686632887956"><ele>498.0</ele><time>2026-04-04T09:15:04Z</time></trkpt><trkpt lat="44.210929459228204" lon="11.12678786211278"><ele>498.0</ele><time>2026-04-04T09:15:05Z</time></trkpt><trkpt lat="44.2108161272369" lon="11.126718047820136"><ele>498.0</ele><time>2026-04-04T09:15:06Z</time></trkpt><trkpt lat="44.210708122064446" lon="11.126668559586133"><ele>498.25</ele><time>2026-04-04T09:15:07Z</time></trkpt><trkpt lat="44.21059318689924" lon="11.12665615320584"><ele>498.5</ele><time>2026-04-04T09:15:08Z</time></trkpt><trkpt lat="44.2104528278266" lon="11.126678342564395"><ele>498.75</ele><time>2026-04-04T09:15:09Z</time></trkpt><trkpt lat="44.21029340628217" lon="11.1266552253521"><ele>499.0</ele><time>2026-04-04T09:15:10Z</time></trkpt><trkpt lat="44.21013626095304" lon="11.126659651327392"><ele>499.0</ele><time>2026-04-04T09:15:11Z</time></trkpt><trkpt lat="44.210005732109" lon="11.12668479005001"><ele>499.0</ele><time>2026-04-04T09:15:12Z</time></trkpt><trkpt lat="44.209885034641374" lon="11.126688056192458"><ele>499.0</ele><time>2026-04-04T09:15:13Z</time></trkpt><trkpt lat="44.20977665176653" lon="11.12673861118203"><ele>499.0</ele><time>2026-04-04T09:15:14Z</time></trkpt><trkpt lat="44.20965705436295" lon="11.126831188179647"><ele>501.25</ele><time>2026-04-04T09:15:15Z</time></trkpt><trkpt lat="44.20952284696738" lon="11.126950549163908"><ele>503.5</ele><time>2026-04-04T09:15:16Z</time></trkpt><trkpt lat="44.209400501597834" lon="11.127069346421338"><ele>505.75</ele><time>2026-04-04T09:15:17Z</time></trkpt><trkpt lat="44.209274378526786" lon="11.12715418948849"><ele>508.0</ele><time>2026-04-04T09:15:18Z</time></trkpt><trkpt lat="44.20912167703074" lon="11.127147661979206"><ele>509.0</ele><time>2026-04-04T09:15:19Z</time></trkpt><trkpt lat="44.20898911340657" lon="11.127212648366816"><ele>510.0</ele><time>2026-04-04T09:15:20Z</time></trkpt><trkpt lat="44.208877919079775" lon="11.127268459739867"><ele>511.0</ele><time>2026-04-04T09:15:21Z</time></trkpt><trkpt lat="44.20877618166353" lon="11.12733498899939"><ele>512.0</ele><time>2026-04-04T09:15:22Z</time></trkpt><trkpt lat="44.208676255185935" lon="11.127357529128501"><ele>512.0</ele><time>2026-04-04T09:15:23Z</time></trkpt><trkpt lat="44.20856329897868" lon="11.127347845188101"><ele>512.0</ele><time>2026-04-04T09:15:24Z</time></trkpt><trkpt lat="44.20843491854256" lon="11.127305946640998"><ele>512.0</ele><time>2026-04-04T09:15:25Z</time></trkpt><trkpt lat="44.2082873468863" lon="11.12725955268348"><ele>512.0</ele><time>2026-04-04T09:15:26Z</time></trkpt><trkpt lat="44.20813759931146" lon="11.127220925553006"><ele>512.5</ele><time>2026-04-04T09:15:27Z</time></trkpt><trkpt lat="44.207988754688536" lon="11.127198859101771"><ele>513.0</ele><time>2026-04-04T09:15:28Z</time></trkpt><trkpt lat="44.20784235245644" lon="11.12719008457213"><ele>513.5</ele><time>2026-04-04T09:15:29Z</time></trkpt><trkpt lat="44.20771533861588" lon="11.12719773514631"><ele>514.0</ele><time>2026-04-04T09:15:30Z</time></trkpt><trkpt lat="44.20761273682578" lon="11.127201857816582"><ele>514.0</ele><time>2026-04-04T09:15:31Z</time></trkpt><trkpt lat="44.207511560154494" lon="11.127179344744752"><ele>514.0</ele><time>2026-04-04T09:15:32Z</time></trkpt><trkpt lat="44.207416116264305" lon="11.127108585488092"><ele>514.0</ele><time>2026-04-04T09:15:33Z</time></trkpt><trkpt lat="44.20732751065914" lon="11.126982966450115"><ele>514.0</ele><time>2026-04-04T09:15:34Z</time></trkpt><trkpt lat="44.20724352254447" lon="11.126837165145421"><ele>513.0</ele><time>2026-04-04T09:15:35Z</time></trkpt><trkpt lat="44.207145894971134" lon="11.126672453259225"><ele>512.0</ele><time>2026-04-04T09:15:36Z</time></trkpt><trkpt lat="44.20704209609144" lon="11.126500061183831"><ele>511.0</ele><time>2026-04-04T09:15:37Z</time></trkpt><trkpt lat="44.206936912272134" lon="11.12631242763991"><ele>511.0</ele><time>2026-04-04T09:15:38Z</time></trkpt><trkpt lat="44.20684378893733" lon="11.126108597509477"><ele>511.0</ele><time>2026-04-04T09:15:39Z</time></trkpt><trkpt lat="44.20674769060286" lon="11.12587624347212"><ele>511.0</ele><time>2026-04-04T09:15:40Z</time></trkpt><trkpt lat="44.206648046196555" lon="11.125653089660958"><ele>511.25</ele><time>2026-04-04T09:15:41Z</time></trkpt><trkpt lat="44.2065558419608" lon="11.125457763951362"><ele>511.5</ele><time>2026-04-04T09:15:42Z</time></trkpt><trkpt lat="44.20648460083656" lon="11.125295429809187"><ele>511.75</ele><time>2026-04-04T09:15:43Z</time></trkpt><trkpt lat="44.20642133316948" lon="11.12515619317158"><ele>512.0</ele><time>2026-04-04T09:15:44Z</time></trkpt><trkpt lat="44.20635168742969" lon="11.125034464438956"><ele>512.0</ele><time>2026-04-04T09:15:45Z</time></trkpt><trkpt lat="44.20625086502418" lon="11.124935529647535"><ele>512.0</ele><time>2026-04-04T09:15:46Z</time></trkpt><trkpt lat="44.206121531673595" lon="11.124857606533283"><ele>512.0</ele><time>2026-04-04T09:15:47Z</time></trkpt><trkpt lat="44.20599034064394" lon="11.124787930584949"><ele>512.0</ele><time>2026-04-04T09:15:48Z</time></trkpt><trkpt lat="44.20585105970505" lon="11.124709751377106"><ele>512.75</ele><time>2026-04-04T09:15:49Z</time></trkpt><trkpt lat="44.205702668258816" lon="11.124641481918461"><ele>513.5</ele><time>2026-04-04T09:15:50Z</time></trkpt><trkpt lat="44.20556875556608" lon="11.124585767056862"><ele>514.25</ele><time>2026-04-04T09:15:51Z</time></trkpt><trkpt lat="44.205459936863804" lon="11.124525260519391"><ele>515.0</ele><time>2026-04-04T09:15:52Z</time></trkpt><trkpt lat="44.205369497111576" lon="11.124424355610207"><ele>515.0</ele><time>2026-04-04T09:15:53Z</time></trkpt><trkpt lat="44.205280775486116" lon="11.12430504793673"><ele>515.0</ele><time>2026-04-04T09:15:54Z</time></trkpt><trkpt lat="44.205195025329694" lon="11.124162201009536"><ele>515.0</ele><time>2026-04-04T09:15:55Z</time></trkpt><trkpt lat="44.20511043545976" lon="11.124028786022967"><ele>515.0</ele><time>2026-04-04T09:15:56Z</time></trkpt><trkpt lat="44.20501986320603" lon="11.123896364257245"><ele>516.75</ele><time>2026-04-04T09:15:57Z</time></trkpt><trkpt lat="44.20493497248018" lon="11.12377409761886"><ele>518.5</ele><time>2026-04-04T09:15:58Z</time></trkpt><trkpt lat="44.20484443816883" lon="11.123684172756088"><ele>520.25</ele><time>2026-04-04T09:15:59Z</time></trkpt><trkpt lat="44.20473879161108" lon="11.123622186362304"><ele>522.0</ele><time>2026-04-04T09:16:00Z</time></trkpt><trkpt lat="44.20462275860944" lon="11.123577618946559"><ele>522.0</ele><time>2026-04-04T09:16:01Z</time></trkpt><trkpt lat="44.20450957183535" lon="11.123568555928125"><ele>522.0</ele><time>2026-04-04T09:16:02Z</time></trkpt><trkpt lat="44.20441022128397" lon="11.12358177913848"><ele>522.0</ele><time>2026-04-04T09:16:03Z</time></trkpt><trkpt lat="44.20432073463615" lon="11.123606124416169"><ele>522.0</ele><time>2026-04-04T09:16:04Z</time></trkpt><trkpt lat="44.204231194660785" lon="11.123634535400384"><ele>522.0</ele><time>2026-04-04T09:16:05Z</time></trkpt><trkpt lat="44.204152973953995" lon="11.123660554455176"><ele>522.0</ele><time>2026-04-04T09:16:06Z</time></trkpt><trkpt lat="44.20406316368999" lon="11.123680523196214"><ele>522.0</ele><time>2026-04-04T09:16:07Z</time></trkpt><trkpt lat="44.20396894884577" lon="11.12369572172808"><ele>522.0</ele><time>2026-04-04T09:16:08Z</time></trkpt><trkpt lat="44.20388107435653" lon="11.123716408025569"><ele>522.0</ele><time>2026-04-04T09:16:09Z</time></trkpt><trkpt lat="44.20378635187171" lon="11.123738353919054"><ele>522.0</ele><time>2026-04-04T09:16:10Z</time></trkpt><trkpt lat="44.20367921347588" lon="11.123757932354005"><ele>523.2</ele><time>2026-04-04T09:16:11Z</time></trkpt><trkpt lat="44.20358389260858" lon="11.123773479143072"><ele>524.4000000000001</ele><time>2026-04-04T09:16:12Z</time></trkpt><trkpt lat="44.20347342360432" lon="11.123794753265368"><ele>525.5999999999999</ele><time>2026-04-04T09:16:13Z</time></trkpt><trkpt lat="44.20335798866622" lon="11.123821580859747"><ele>526.8</ele><time>2026-04-04T09:16:14Z</time></trkpt><trkpt lat="44.20326167638313" lon="11.123843470534814"><ele>528.0</ele><time>2026-04-04T09:16:15Z</time></trkpt><trkpt lat="44.20316519375765" lon="11.123862155270063"><ele>529.1999999999999</ele><time>2026-04-04T09:16:16Z</time></trkpt><trkpt lat="44.20306096436299" lon="11.123879884992975"><ele>530.4</ele><time>2026-04-04T09:16:17Z</time></trkpt><trkpt lat="44.20295324404984" lon="11.123898312153363"><ele>531.5999999999999</ele><time>2026-04-04T09:16:18Z</time></trkpt><trkpt lat="44.20284455619032" lon="11.123920880101391"><ele>532.8</ele><time>2026-04-04T09:16:19Z</time></trkpt><trkpt lat="44.20273591985399" lon="11.123949810034572"><ele>534.0</ele><time>2026-04-04T09:16:20Z</time></trkpt><trkpt lat="44.20262672225511" lon="11.123981091107606"><ele>534.0</ele><time>2026-04-04T09:16:21Z</time></trkpt><trkpt lat="44.202514915066644" lon="11.124007388816905"><ele>534.0</ele><time>2026-04-04T09:16:22Z</time></trkpt><trkpt lat="44.20240404423983" lon="11.12401596897295"><ele>534.0</ele><time>2026-04-04T09:16:23Z</time></trkpt><trkpt lat="44.20228924903511" lon="11.124012723739023"><ele>534.0</ele><time>2026-04-04T09:16:24Z</time></trkpt><trkpt lat="44.20217185663215" lon="11.123989053301074"><ele>535.25</ele><time>2026-04-04T09:16:25Z</time></trkpt><trkpt lat="44.20206605281428" lon="11.123943089152556"><ele>536.5</ele><time>2026-04-04T09:16:26Z</time></trkpt><trkpt lat="44.201957297290875" lon="11.12389549166157"><ele>537.75</ele><time>2026-04-04T09:16:27Z</time></trkpt><trkpt lat="44.2018477270613" lon="11.12385580922811"><ele>539.0</ele><time>2026-04-04T09:16:28Z</time></trkpt><trkpt lat="44.20173607965161" lon="11.123818022187745"><ele>539.0</ele><time>2026-04-04T09:16:29Z</time></trkpt><trkpt lat="44.20161559726192" lon="11.123777937844611"><ele>539.0</ele><time>2026-04-04T09:16:30Z</time></trkpt><trkpt lat="44.201496960495824" lon="11.123737178066209"><ele>539.0</ele><time>2026-04-04T09:16:31Z</time></trkpt><trkpt lat="44.2013764850016" lon="11.12369662543792"><ele>539.0</ele><time>2026-04-04T09:16:32Z</time></trkpt><trkpt lat="44.201252741936486" lon="11.123652582289951"><ele>538.75</ele><time>2026-04-04T09:16:33Z</time></trkpt><trkpt lat="44.20112646245133" lon="11.123607910706367"><ele>538.5</ele><time>2026-04-04T09:16:34Z</time></trkpt><trkpt lat="44.20100233679676" lon="11.12356541898015"><ele>538.25</ele><time>2026-04-04T09:16:35Z</time></trkpt><trkpt lat="44.20088818113114" lon="11.123521870963916"><ele>538.0</ele><time>2026-04-04T09:16:36Z</time></trkpt><trkpt lat="44.20077967978022" lon="11.123483972883779"><ele>536.6</ele><time>2026-04-04T09:16:37Z</time></trkpt><trkpt lat="44.200663483555175" lon="11.12344212573506"><ele>535.1999999999999</ele><time>2026-04-04T09:16:38Z</time></trkpt><trkpt lat="44.20056427563504" lon="11.123373051777847"><ele>533.8</ele><time>2026-04-04T09:16:39Z</time></trkpt><trkpt lat="44.20048140550969" lon="11.123278783434975"><ele>532.4</ele><time>2026-04-04T09:16:40Z</time></trkpt><trkpt lat="44.20042323296245" lon="11.123158302790927"><ele>531.0</ele><time>2026-04-04T09:16:41Z</time></trkpt><trkpt lat="44.20037927614107" lon="11.123005268743563"><ele>531.0</ele><time>2026-04-04T09:16:42Z</time></trkpt><trkpt lat="44.200348700578324" lon="11.122847119408227"><ele>531.0</ele><time>2026-04-04T09:16:43Z</time></trkpt><trkpt lat="44.200326723309146" lon="11.122679644719138"><ele>531.0</ele><time>2026-04-04T09:16:44Z</time></trkpt><trkpt lat="44.200307258013005" lon="11.122488455549028"><ele>531.0</ele><time>2026-04-04T09:16:45Z</time></trkpt><trkpt lat="44.200280473532594" lon="11.1222881668841"><ele>532.75</ele><time>2026-04-04T09:16:46Z</time></trkpt><trkpt lat="44.200247823243345" lon="11.122074903734925"><ele>534.5</ele><time>2026-04-04T09:16:47Z</time></trkpt><trkpt lat="44.200216058353895" lon="11.12187436957188"><ele>536.25</ele><time>2026-04-04T09:16:48Z</time></trkpt><trkpt lat="44.20018534341624" lon="11.121697273159418"><ele>538.0</ele><time>2026-04-04T09:16:49Z</time></trkpt><trkpt lat="44.200145191525046" lon="11.121527630829517"><ele>539.5</ele><time>2026-04-04T09:16:50Z</time></trkpt><trkpt lat="44.200082369575085" lon="11.121376121546371"><ele>541.0</ele><time>2026-04-04T09:16:51Z</time></trkpt><trkpt lat="44.20000985214666" lon="11.121232772112934"><ele>542.5</ele><time>2026-04-04T09:16:52Z</time></trkpt><trkpt lat="44.19994309027332" lon="11.121119876051687"><ele>544.0</ele><time>2026-04-04T09:16:53Z</time></trkpt><trkpt lat="44.19986279056225" lon="11.121049124934423"><ele>543.4</ele><time>2026-04-04T09:16:54Z</time></trkpt><trkpt lat="44.199766345582425" lon="11.121021167833874"><ele>542.8</ele><time>2026-04-04T09:16:55Z</time></trkpt><trkpt lat="44.19966042602936" lon="11.121026539824282"><ele>542.2</ele><time>2026-04-04T09:16:56Z</time></trkpt><trkpt lat="44.199547327529174" lon="11.121062696801504"><ele>541.6</ele><time>2026-04-04T09:16:57Z</time></trkpt><trkpt lat="44.19944423238502" lon="11.121078441962737"><ele>541.0</ele><time>2026-04-04T09:16:58Z</time></trkpt><trkpt lat="44.199352337250666" lon="11.121109222924352"><ele>541.0</ele><time>2026-04-04T09:16:59Z</time></trkpt><trkpt lat="44.19927183230534" lon="11.121155301780536"><ele>541.0</ele><time>2026-04-04T09:17:00Z</time></trkpt><trkpt lat="44.19919631276661" lon="11.12117550824045"><ele>541.0</ele><time>2026-04-04T09:17:01Z</time></trkpt><trkpt lat="44.1991209837604" lon="11.121164383998492"><ele>541.0</ele><time>2026-04-04T09:17:02Z</time></trkpt><trkpt lat="44.199055424048225" lon="11.121177204290955"><ele>541.0</ele><time>2026-04-04T09:17:03Z</time></trkpt><trkpt lat="44.19898797096247" lon="11.121142050386254"><ele>541.0</ele><time>2026-04-04T09:17:04Z</time></trkpt><trkpt lat="44.198913308721735" lon="11.121091433498568"><ele>541.1666666666667</ele><time>2026-04-04T09:17:05Z</time></trkpt><trkpt lat="44.198848108513886" lon="11.121019236947289"><ele>541.3333333333334</ele><time>2026-04-04T09:17:06Z</time></trkpt><trkpt lat="44.19879404218192" lon="11.120928526277746"><ele>541.5</ele><time>2026-04-04T09:17:07Z</time></trkpt><trkpt lat="44.19874951939666" lon="11.120830985622385"><ele>541.6666666666666</ele><time>2026-04-04T09:17:08Z</time></trkpt><trkpt lat="44.198703854444915" lon="11.120719587243846"><ele>541.8333333333333</ele><time>2026-04-04T09:17:09Z</time></trkpt><trkpt lat="44.19865619076004" lon="11.120607492589079"><ele>542.0</ele><time>2026-04-04T09:17:10Z</time></trkpt><trkpt lat="44.198602032959755" lon="11.120496498697904"><ele>542.0</ele><time>2026-04-04T09:17:11Z</time></trkpt><trkpt lat="44.19854358963972" lon="11.120376676765048"><ele>542.0</ele><time>2026-04-04T09:17:12Z</time></trkpt><trkpt lat="44.19848508972253" lon="11.120251905935145"><ele>542.0</ele><time>2026-04-04T09:17:13Z</time></trkpt><trkpt lat="44.19842225317367" lon="11.120125971962102"><ele>542.0</ele><time>2026-04-04T09:17:14Z</time></trkpt><trkpt lat="44.19835947728667" lon="11.119996993269181"><ele>542.0</ele><time>2026-04-04T09:17:15Z</time></trkpt><trkpt lat="44.19829784842785" lon="11.119864903011146"><ele>543.6</ele><time>2026-04-04T09:17:16Z</time></trkpt><trkpt lat="44.198235533066544" lon="11.119734342438749"><ele>545.2</ele><time>2026-04-04T09:17:17Z</time></trkpt><trkpt lat="44.19817840827961" lon="11.119614648561429"><ele>546.8</ele><time>2026-04-04T09:17:18Z</time></trkpt><trkpt lat="44.19810964992922" lon="11.119518664077674"><ele>548.4</ele><time>2026-04-04T09:17:19Z</time></trkpt><trkpt lat="44.19802467615174" lon="11.119441295518092"><ele>550.0</ele><time>2026-04-04T09:17:20Z</time></trkpt><trkpt lat="44.197934854039076" lon="11.119389947956304"><ele>550.2</ele><time>2026-04-04T09:17:21Z</time></trkpt><trkpt lat="44.19782880429739" lon="11.119352707543149"><ele>550.4</ele><time>2026-04-04T09:17:22Z</time></trkpt><trkpt lat="44.19771935779269" lon="11.119319315420821"><ele>550.6</ele><time>2026-04-04T09:17:23Z</time></trkpt><trkpt lat="44.19761395254279" lon="11.119280406948283"><ele>550.8</ele><time>2026-04-04T09:17:24Z</time></trkpt><trkpt lat="44.197503352357025" lon="11.119248708210103"><ele>551.0</ele><time>2026-04-04T09:17:25Z</time></trkpt><trkpt lat="44.197392176138614" lon="11.11919981837058"><ele>551.8</ele><time>2026-04-04T09:17:26Z</time></trkpt><trkpt lat="44.19728025282887" lon="11.119158475790515"><ele>552.6</ele><time>2026-04-04T09:17:27Z</time></trkpt><trkpt lat="44.19717648475699" lon="11.11912874541182"><ele>553.4</ele><time>2026-04-04T09:17:28Z</time></trkpt><trkpt lat="44.19707278440644" lon="11.119108311142458"><ele>554.2</ele><time>2026-04-04T09:17:29Z</time></trkpt><trkpt lat="44.19697265285148" lon="11.119093937583381"><ele>555.0</ele><time>2026-04-04T09:17:30Z</time></trkpt><trkpt lat="44.196875635036264" lon="11.119096803663988"><ele>555.0</ele><time>2026-04-04T09:17:31Z</time></trkpt><trkpt lat="44.19678252955482" lon="11.119112483699496"><ele>555.0</ele><time>2026-04-04T09:17:32Z</time></trkpt><trkpt lat="44.19669919912952" lon="11.11913265024729"><ele>555.0</ele><time>2026-04-04T09:17:33Z</time></trkpt><trkpt lat="44.19661911456501" lon="11.119156225690963"><ele>555.0</ele><time>2026-04-04T09:17:34Z</time></trkpt><trkpt lat="44.19654179979709" lon="11.119182572366467"><ele>555.0</ele><time>2026-04-04T09:17:35Z</time></trkpt><trkpt lat="44.196455721775365" lon="11.119209256249318"><ele>555.0</ele><time>2026-04-04T09:17:36Z</time></trkpt><trkpt lat="44.19636898465854" lon="11.119244138111384"><ele>557.4</ele><time>2026-04-04T09:17:37Z</time></trkpt><trkpt lat="44.19627494376938" lon="11.119287790795871"><ele>559.8</ele><time>2026-04-04T09:17:38Z</time></trkpt><trkpt lat="44.19617934110006" lon="11.119344995500006"><ele>562.2</ele><time>2026-04-04T09:17:39Z</time></trkpt><trkpt lat="44.19608028390248" lon="11.11938523542289"><ele>564.6</ele><time>2026-04-04T09:17:40Z</time></trkpt><trkpt lat="44.19598401586253" lon="11.11945513876058"><ele>567.0</ele><time>2026-04-04T09:17:41Z</time></trkpt><trkpt lat="44.195880669498955" lon="11.11950424273477"><ele>567.0</ele><time>2026-04-04T09:17:42Z</time></trkpt><trkpt lat="44.195773992679854" lon="11.119552229562153"><ele>567.0</ele><time>2026-04-04T09:17:43Z</time></trkpt><trkpt lat="44.195669162799796" lon="11.119584933762079"><ele>567.0</ele><time>2026-04-04T09:17:44Z</time></trkpt><trkpt lat="44.1955723396712" lon="11.119581408768468"><ele>567.0</ele><time>2026-04-04T09:17:45Z</time></trkpt><trkpt lat="44.195469529455444" lon="11.119563509186358"><ele>567.0</ele><time>2026-04-04T09:17:46Z</time></trkpt><trkpt lat="44.19537759929284" lon="11.11954738462766"><ele>569.0</ele><time>2026-04-04T09:17:47Z</time></trkpt><trkpt lat="44.19527539620342" lon="11.119535897163182"><ele>571.0</ele><time>2026-04-04T09:17:48Z</time></trkpt><trkpt lat="44.19517315409675" lon="11.119525287981384"><ele>573.0</ele><time>2026-04-04T09:17:49Z</time></trkpt><trkpt lat="44.19507254421403" lon="11.119523367326842"><ele>575.0</ele><time>2026-04-04T09:17:50Z</time></trkpt><trkpt lat="44.19496979008915" lon="11.119528852264231"><ele>577.0</ele><time>2026-04-04T09:17:51Z</time></trkpt><trkpt lat="44.19488768211236" lon="11.119535235096315"><ele>577.0</ele><time>2026-04-04T09:17:52Z</time></trkpt><trkpt lat="44.1947834033929" lon="11.119534357495073"><ele>577.0</ele><time>2026-04-04T09:17:54Z</time></trkpt><trkpt lat="44.194755849839055" lon="11.119415071788525"><ele>577.0</ele><time>2026-04-04T09:17:56Z</time></trkpt><trkpt lat="44.19482318556552" lon="11.11926154627613"><ele>577.0</ele><time>2026-04-04T09:17:58Z</time></trkpt><trkpt lat="44.194871661064965" lon="11.11916305051435"><ele>577.0</ele><time>2026-04-04T09:17:59Z</time></trkpt><trkpt lat="44.19491184712837" lon="11.119062045104295"><ele>580.6666666666667</ele><time>2026-04-04T09:18:00Z</time></trkpt><trkpt lat="44.19495008827286" lon="11.118948029214756"><ele>584.3333333333334</ele><time>2026-04-04T09:18:01Z</time></trkpt><trkpt lat="44.19497661176667" lon="11.11884467538666"><ele>588.0</ele><time>2026-04-04T09:18:02Z</time></trkpt><trkpt lat="44.19496400063596" lon="11.118758028925177"><ele>591.6666666666666</ele><time>2026-04-04T09:18:05Z</time></trkpt><trkpt lat="44.194859726361756" lon="11.118853530001568"><ele>595.3333333333333</ele><time>2026-04-04T09:18:07Z</time></trkpt><trkpt lat="44.19479943341448" lon="11.11890391415969"><ele>599.0</ele><time>2026-04-04T09:18:08Z</time></trkpt><trkpt lat="44.19475003512568" lon="11.118962780419022"><ele>597.7142857142858</ele><time>2026-04-04T09:18:09Z</time></trkpt><trkpt lat="44.194696757919914" lon="11.119032374511464"><ele>596.4285714285714</ele><time>2026-04-04T09:18:10Z</time></trkpt><trkpt lat="44.19462948034352" lon="11.119050597342163"><ele>595.1428571428571</ele><time>2026-04-04T09:18:11Z</time></trkpt><trkpt lat="44.194561742870405" lon="11.119068165925748"><ele>593.8571428571429</ele><time>2026-04-04T09:18:12Z</time></trkpt><trkpt lat="44.1944936332096" lon="11.119077256061784"><ele>592.5714285714286</ele><time>2026-04-04T09:18:13Z</time></trkpt><trkpt lat="44.194419917029144" lon="11.11908721248816"><ele>591.2857142857143</ele><time>2026-04-04T09:18:14Z</time></trkpt><trkpt lat="44.1943387776893" lon="11.119099110630344"><ele>590.0</ele><time>2026-04-04T09:18:15Z</time></trkpt><trkpt lat="44.1942446290842" lon="11.119099742382506"><ele>590.0</ele><time>2026-04-04T09:18:16Z</time></trkpt><trkpt lat="44.19415017845925" lon="11.119093263749841"><ele>590.0</ele><time>2026-04-04T09:18:17Z</time></trkpt><trkpt lat="44.19405570590108" lon="11.119066539174645"><ele>590.0</ele><time>2026-04-04T09:18:18Z</time></trkpt><trkpt lat="44.19399191560527" lon="11.119058416924354"><ele>590.0</ele><time>2026-04-04T09:18:19Z</time></trkpt><trkpt lat="44.19386789195328" lon="11.11905725984445"><ele>590.0</ele><time>2026-04-04T09:18:21Z</time></trkpt><trkpt lat="44.19378913291272" lon="11.119031189497377"><ele>594.2</ele><time>2026-04-04T09:18:22Z</time></trkpt><trkpt lat="44.19369533078081" lon="11.119001824069656"><ele>598.4</ele><time>2026-04-04T09:18:23Z</time></trkpt><trkpt lat="44.19360743800531" lon="11.118963905474041"><ele>602.6</ele><time>2026-04-04T09:18:24Z</time></trkpt><trkpt lat="44.193506398925656" lon="11.118929405772837"><ele>606.8</ele><time>2026-04-04T09:18:25Z</time></trkpt><trkpt lat="44.19342207984961" lon="11.118864933193013"><ele>611.0</ele><time>2026-04-04T09:18:26Z</time></trkpt><trkpt lat="44.1933486735536" lon="11.118804490625337"><ele>611.0</ele><time>2026-04-04T09:18:27Z</time></trkpt><trkpt lat="44.19327408437497" lon="11.118760300408214"><ele>611.0</ele><time>2026-04-04T09:18:28Z</time></trkpt><trkpt lat="44.193210031131485" lon="11.118682980814215"><ele>611.0</ele><time>2026-04-04T09:18:29Z</time></trkpt><trkpt lat="44.1931446727868" lon="11.118598525231102"><ele>611.0</ele><time>2026-04-04T09:18:30Z</time></trkpt><trkpt lat="44.193076637851235" lon="11.118501870772448"><ele>611.0</ele><time>2026-04-04T09:18:31Z</time></trkpt><trkpt lat="44.193007723297896" lon="11.118410439413736"><ele>611.0</ele><time>2026-04-04T09:18:32Z</time></trkpt><trkpt lat="44.19293953869884" lon="11.118323511476644"><ele>609.6</ele><time>2026-04-04T09:18:33Z</time></trkpt><trkpt lat="44.192869945425024" lon="11.118262367981812"><ele>608.2</ele><time>2026-04-04T09:18:34Z</time></trkpt><trkpt lat="44.19278128284928" lon="11.118199131146714"><ele>606.8</ele><time>2026-04-04T09:18:35Z</time></trkpt><trkpt lat="44.19269482952757" lon="11.118127041590732"><ele>605.4</ele><time>2026-04-04T09:18:36Z</time></trkpt><trkpt lat="44.192598728775145" lon="11.118080291919645"><ele>604.0</ele><time>2026-04-04T09:18:37Z</time></trkpt><trkpt lat="44.19248825899158" lon="11.118049702773725"><ele>607.4</ele><time>2026-04-04T09:18:38Z</time></trkpt><trkpt lat="44.192382752531124" lon="11.117997424327877"><ele>610.8</ele><time>2026-04-04T09:18:39Z</time></trkpt><trkpt lat="44.19227212332523" lon="11.117948842386983"><ele>614.2</ele><time>2026-04-04T09:18:40Z</time></trkpt><trkpt lat="44.192177353843206" lon="11.117905325599942"><ele>617.6</ele><time>2026-04-04T09:18:41Z</time></trkpt><trkpt lat="44.19211737591182" lon="11.117868016105623"><ele>621.0</ele><time>2026-04-04T09:18:42Z</time></trkpt><trkpt lat="44.19205688048863" lon="11.11776589958641"><ele>621.8</ele><time>2026-04-04T09:18:44Z</time></trkpt><trkpt lat="44.19210001746741" lon="11.117670764537891"><ele>622.6</ele><time>2026-04-04T09:18:46Z</time></trkpt><trkpt lat="44.19213136945722" lon="11.117517845191172"><ele>623.4</ele><time>2026-04-04T09:18:48Z</time></trkpt><trkpt lat="44.19206176693301" lon="11.117441323794782"><ele>624.2</ele><time>2026-04-04T09:18:50Z</time></trkpt><trkpt lat="44.19199445232957" lon="11.117412559962775"><ele>625.0</ele><time>2026-04-04T09:18:51Z</time></trkpt><trkpt lat="44.191899156088006" lon="11.117444243246165"><ele>625.0</ele><time>2026-04-04T09:18:52Z</time></trkpt><trkpt lat="44.191809448675" lon="11.117466125353884"><ele>625.0</ele><time>2026-04-04T09:18:53Z</time></trkpt><trkpt lat="44.19171687896496" lon="11.11745125928801"><ele>625.0</ele><time>2026-04-04T09:18:54Z</time></trkpt><trkpt lat="44.19163816098235" lon="11.117442467520993"><ele>625.0</ele><time>2026-04-04T09:18:55Z</time></trkpt><trkpt lat="44.19156905746672" lon="11.117383295102156"><ele>625.0</ele><time>2026-04-04T09:18:56Z</time></trkpt><trkpt lat="44.19149631724091" lon="11.117337093765057"><ele>625.0</ele><time>2026-04-04T09:18:57Z</time></trkpt><trkpt lat="44.191441868649626" lon="11.117268122772831"><ele>629.4</ele><time>2026-04-04T09:18:58Z</time></trkpt><trkpt lat="44.1913513207721" lon="11.117183892488317"><ele>633.8</ele><time>2026-04-04T09:19:00Z</time></trkpt><trkpt lat="44.19124058140894" lon="11.117135138499115"><ele>638.2</ele><time>2026-04-04T09:19:02Z</time></trkpt><trkpt lat="44.19116938376984" lon="11.117140361510833"><ele>642.6</ele><time>2026-04-04T09:19:03Z</time></trkpt><trkpt lat="44.19109613010234" lon="11.117176659950097"><ele>647.0</ele><time>2026-04-04T09:19:04Z</time></trkpt><trkpt lat="44.19101804781227" lon="11.117210781904213"><ele>647.0</ele><time>2026-04-04T09:19:05Z</time></trkpt><trkpt lat="44.1909337139665" lon="11.117246860938385"><ele>647.0</ele><time>2026-04-04T09:19:06Z</time></trkpt><trkpt lat="44.19084218799961" lon="11.117277474295365"><ele>647.0</ele><time>2026-04-04T09:19:07Z</time></trkpt><trkpt lat="44.19075426731696" lon="11.117321708618986"><ele>647.0</ele><time>2026-04-04T09:19:08Z</time></trkpt><trkpt lat="44.1906823490219" lon="11.1174225565848"><ele>647.0</ele><time>2026-04-04T09:19:09Z</time></trkpt><trkpt lat="44.190684536744655" lon="11.117599365640489"><ele>643.8000000000001</ele><time>2026-04-04T09:19:10Z</time></trkpt><trkpt lat="44.19062580676346" lon="11.117714146310629"><ele>640.6</ele><time>2026-04-04T09:19:11Z</time></trkpt><trkpt lat="44.1905826621707" lon="11.117801189818685"><ele>637.4000000000001</ele><time>2026-04-04T09:19:12Z</time></trkpt><trkpt lat="44.19047758541697" lon="11.117917424146343"><ele>634.2</ele><time>2026-04-04T09:19:14Z</time></trkpt><trkpt lat="44.190413480567564" lon="11.117957200968638"><ele>631.0</ele><time>2026-04-04T09:19:15Z</time></trkpt><trkpt lat="44.19034171453127" lon="11.117979395303019"><ele>631.0</ele><time>2026-04-04T09:19:16Z</time></trkpt><trkpt lat="44.190248272602076" lon="11.117995792893165"><ele>631.0</ele><time>2026-04-04T09:19:17Z</time></trkpt><trkpt lat="44.190142034478086" lon="11.118010459580043"><ele>631.0</ele><time>2026-04-04T09:19:18Z</time></trkpt><trkpt lat="44.19003022927649" lon="11.118022705324892"><ele>631.0</ele><time>2026-04-04T09:19:19Z</time></trkpt><trkpt lat="44.18992060294215" lon="11.118020646024313"><ele>631.0</ele><time>2026-04-04T09:19:20Z</time></trkpt><trkpt lat="44.18982239814395" lon="11.11799862524805"><ele>629.5</ele><time>2026-04-04T09:19:21Z</time></trkpt><trkpt lat="44.189708216631" lon="11.117971750062614"><ele>628.0</ele><time>2026-04-04T09:19:22Z</time></trkpt><trkpt lat="44.18959477119185" lon="11.11796441219813"><ele>626.5</ele><time>2026-04-04T09:19:23Z</time></trkpt><trkpt lat="44.18948228776951" lon="11.117972287351703"><ele>625.0</ele><time>2026-04-04T09:19:24Z</time></trkpt><trkpt lat="44.18937893295494" lon="11.118035689507556"><ele>625.0</ele><time>2026-04-04T09:19:25Z</time></trkpt><trkpt lat="44.18927118959474" lon="11.118116423403812"><ele>625.0</ele><time>2026-04-04T09:19:26Z</time></trkpt><trkpt lat="44.189146079562896" lon="11.118191312541677"><ele>625.0</ele><time>2026-04-04T09:19:27Z</time></trkpt><trkpt lat="44.189028190250674" lon="11.11825218446108"><ele>625.0</ele><time>2026-04-04T09:19:28Z</time></trkpt><trkpt lat="44.188922484403506" lon="11.118290466385147"><ele>625.1666666666667</ele><time>2026-04-04T09:19:29Z</time></trkpt><trkpt lat="44.188829646631824" lon="11.118378755800697"><ele>625.3333333333334</ele><time>2026-04-04T09:19:30Z</time></trkpt><trkpt lat="44.18877165533179" lon="11.118468016881817"><ele>625.5</ele><time>2026-04-04T09:19:31Z</time></trkpt><trkpt lat="44.18872513949745" lon="11.11859247856958"><ele>625.6666666666666</ele><time>2026-04-04T09:19:32Z</time></trkpt><trkpt lat="44.188689841946015" lon="11.118692367812406"><ele>625.8333333333333</ele><time>2026-04-04T09:19:33Z</time></trkpt><trkpt lat="44.18863483739316" lon="11.118742286230631"><ele>626.0</ele><time>2026-04-04T09:19:34Z</time></trkpt><trkpt lat="44.18855008137774" lon="11.118798919833493"><ele>626.0</ele><time>2026-04-04T09:19:36Z</time></trkpt><trkpt lat="44.188483092317014" lon="11.118735861361941"><ele>626.0</ele><time>2026-04-04T09:19:38Z</time></trkpt><trkpt lat="44.1884354500449" lon="11.118668952613874"><ele>626.0</ele><time>2026-04-04T09:19:39Z</time></trkpt><trkpt lat="44.188370582890926" lon="11.11860040675332"><ele>626.0</ele><time>2026-04-04T09:19:40Z</time></trkpt><trkpt lat="44.18828731618403" lon="11.118530199231746"><ele>626.0</ele><time>2026-04-04T09:19:41Z</time></trkpt><trkpt lat="44.188196955134515" lon="11.118467754354645"><ele>626.0</ele><time>2026-04-04T09:19:42Z</time></trkpt><trkpt lat="44.188104883645345" lon="11.11841686448445"><ele>628.4</ele><time>2026-04-04T09:19:43Z</time></trkpt><trkpt lat="44.18801145069366" lon="11.118380342435216"><ele>630.8</ele><time>2026-04-04T09:19:44Z</time></trkpt><trkpt lat="44.18791528423333" lon="11.118350225040448"><ele>633.1999999999999</ele><time>2026-04-04T09:19:45Z</time></trkpt><trkpt lat="44.187828063797504" lon="11.118315010469809"><ele>635.6</ele><time>2026-04-04T09:19:46Z</time></trkpt><trkpt lat="44.18777644299835" lon="11.118261425966612"><ele>638.0</ele><time>2026-04-04T09:19:47Z</time></trkpt><trkpt lat="44.18771695358055" lon="11.118129428335987"><ele>639.3333333333333</ele><time>2026-04-04T09:19:49Z</time></trkpt><trkpt lat="44.18768103617301" lon="11.118053002396916"><ele>640.6666666666666</ele><time>2026-04-04T09:19:50Z</time></trkpt><trkpt lat="44.187639942654755" lon="11.117966578049666"><ele>642.0</ele><time>2026-04-04T09:19:51Z</time></trkpt><trkpt lat="44.18757998300008" lon="11.11788509475576"><ele>643.3333333333334</ele><time>2026-04-04T09:19:52Z</time></trkpt><trkpt lat="44.187502968726555" lon="11.11782823291773"><ele>644.6666666666667</ele><time>2026-04-04T09:19:53Z</time></trkpt><trkpt lat="44.18741592691945" lon="11.117785380321155"><ele>646.0</ele><time>2026-04-04T09:19:54Z</time></trkpt><trkpt lat="44.187331059960776" lon="11.117744892078573"><ele>647.6666666666667</ele><time>2026-04-04T09:19:55Z</time></trkpt><trkpt lat="44.18724550333972" lon="11.117712632879057"><ele>649.3333333333334</ele><time>2026-04-04T09:19:56Z</time></trkpt><trkpt lat="44.187162116678905" lon="11.117662229264267"><ele>651.0</ele><time>2026-04-04T09:19:57Z</time></trkpt><trkpt lat="44.18707338141052" lon="11.117661382612656"><ele>652.6666666666666</ele><time>2026-04-04T09:19:58Z</time></trkpt><trkpt lat="44.18698812122113" lon="11.117655587688267"><ele>654.3333333333333</ele><time>2026-04-04T09:19:59Z</time></trkpt><trkpt lat="44.18690221684739" lon="11.117674803676714"><ele>656.0</ele><time>2026-04-04T09:20:00Z</time></trkpt><trkpt lat="44.18681819406242" lon="11.11767742284633"><ele>656.0</ele><time>2026-04-04T09:20:01Z</time></trkpt><trkpt lat="44.186738876270496" lon="11.117701546395182"><ele>656.0</ele><time>2026-04-04T09:20:01.999Z</time></trkpt><trkpt lat="44.18666457864141" lon="11.117741416978161"><ele>656.0</ele><time>2026-04-04T09:20:03Z</time></trkpt><trkpt lat="44.186587709232974" lon="11.11773235291619"><ele>656.0</ele><time>2026-04-04T09:20:03.999Z</time></trkpt><trkpt lat="44.18652461195673" lon="11.117669554297171"><ele>656.0</ele><time>2026-04-04T09:20:04.999Z</time></trkpt><trkpt lat="44.18648668781338" lon="11.117557594078788"><ele>656.0</ele><time>2026-04-04T09:20:05.999Z</time></trkpt><trkpt lat="44.186425805829614" lon="11.117478972980182"><ele>658.4285714285713</ele><time>2026-04-04T09:20:06.999Z</time></trkpt><trkpt lat="44.18637216355758" lon="11.117393871357923"><ele>660.8571428571429</ele><time>2026-04-04T09:20:07.999Z</time></trkpt><trkpt lat="44.18631182876465" lon="11.117318631396826"><ele>663.2857142857142</ele><time>2026-04-04T09:20:08.999Z</time></trkpt><trkpt lat="44.186255992877165" lon="11.11726244695897"><ele>665.7142857142857</ele><time>2026-04-04T09:20:09.999Z</time></trkpt><trkpt lat="44.186199316060666" lon="11.117216404792938"><ele>668.1428571428571</ele><time>2026-04-04T09:20:10.999Z</time></trkpt><trkpt lat="44.186134075179346" lon="11.117182336588344"><ele>670.5714285714286</ele><time>2026-04-04T09:20:11.999Z</time></trkpt><trkpt lat="44.186059949381395" lon="11.117158305220888"><ele>673.0</ele><time>2026-04-04T09:20:12.999Z</time></trkpt><trkpt lat="44.185978117727316" lon="11.117141819887463"><ele>673.0</ele><time>2026-04-04T09:20:14Z</time></trkpt><trkpt lat="44.18588799165373" lon="11.117128278134427"><ele>673.0</ele><time>2026-04-04T09:20:15Z</time></trkpt><trkpt lat="44.185795455599795" lon="11.117123222219721"><ele>673.0</ele><time>2026-04-04T09:20:16Z</time></trkpt><trkpt lat="44.18570549676993" lon="11.117115082969933"><ele>673.0</ele><time>2026-04-04T09:20:17Z</time></trkpt><trkpt lat="44.1856183452531" lon="11.117148474273861"><ele>673.0</ele><time>2026-04-04T09:20:18Z</time></trkpt><trkpt lat="44.18553077616246" lon="11.117140796229986"><ele>674.6666666666667</ele><time>2026-04-04T09:20:19Z</time></trkpt><trkpt lat="44.18544490556108" lon="11.117144621739426"><ele>676.3333333333334</ele><time>2026-04-04T09:20:20Z</time></trkpt><trkpt lat="44.18535537117037" lon="11.11714346150125"><ele>678.0</ele><time>2026-04-04T09:20:21Z</time></trkpt><trkpt lat="44.18526856138505" lon="11.117133372484078"><ele>679.6666666666666</ele><time>2026-04-04T09:20:22Z</time></trkpt><trkpt lat="44.18518945873091" lon="11.117100853494033"><ele>681.3333333333333</ele><time>2026-04-04T09:20:23Z</time></trkpt><trkpt lat="44.185132023727185" lon="11.117004531135768"><ele>683.0</ele><time>2026-04-04T09:20:24Z</time></trkpt><trkpt lat="44.18507233755101" lon="11.116928318574612"><ele>683.0</ele><time>2026-04-04T09:20:25Z</time></trkpt><trkpt lat="44.185020848117496" lon="11.116828407476348"><ele>683.0</ele><time>2026-04-04T09:20:26Z</time></trkpt><trkpt lat="44.18496038844696" lon="11.11672351782274"><ele>683.0</ele><time>2026-04-04T09:20:27Z</time></trkpt><trkpt lat="44.18489393439786" lon="11.116618265103595"><ele>683.0</ele><time>2026-04-04T09:20:28Z</time></trkpt><trkpt lat="44.18482916663084" lon="11.116520316960848"><ele>683.0</ele><time>2026-04-04T09:20:29Z</time></trkpt><trkpt lat="44.184759628680325" lon="11.116431724674928"><ele>687.0</ele><time>2026-04-04T09:20:30Z</time></trkpt><trkpt lat="44.184686053494175" lon="11.116348485024872"><ele>691.0</ele><time>2026-04-04T09:20:31Z</time></trkpt><trkpt lat="44.18460966537724" lon="11.116250816903303"><ele>695.0</ele><time>2026-04-04T09:20:32Z</time></trkpt><trkpt lat="44.18453359383694" lon="11.116146328431778"><ele>699.0</ele><time>2026-04-04T09:20:33Z</time></trkpt><trkpt lat="44.18445647005861" lon="11.11602978129241"><ele>703.0</ele><time>2026-04-04T09:20:34Z</time></trkpt><trkpt lat="44.184378991476905" lon="11.115892281404378"><ele>703.0</ele><time>2026-04-04T09:20:35Z</time></trkpt><trkpt lat="44.18430601090567" lon="11.115745507204371"><ele>703.0</ele><time>2026-04-04T09:20:36Z</time></trkpt><trkpt lat="44.18423345312486" lon="11.115590001297303"><ele>703.0</ele><time>2026-04-04T09:20:37Z</time></trkpt><trkpt lat="44.184164694646626" lon="11.115447987324812"><ele>703.0</ele><time>2026-04-04T09:20:38Z</time></trkpt><trkpt lat="44.184095076329555" lon="11.115295697097345"><ele>709.75</ele><time>2026-04-04T09:20:39Z</time></trkpt><trkpt lat="44.18401323753067" lon="11.115142926896112"><ele>716.5</ele><time>2026-04-04T09:20:40Z</time></trkpt><trkpt lat="44.18393279436359" lon="11.114986119681975"><ele>723.25</ele><time>2026-04-04T09:20:41Z</time></trkpt><trkpt lat="44.18385936771751" lon="11.114835674842471"><ele>730.0</ele><time>2026-04-04T09:20:42Z</time></trkpt><trkpt lat="44.183796627887325" lon="11.114701587964545"><ele>731.2</ele><time>2026-04-04T09:20:43Z</time></trkpt><trkpt lat="44.183736323843995" lon="11.114591342961116"><ele>732.4</ele><time>2026-04-04T09:20:44Z</time></trkpt><trkpt lat="44.183679506161404" lon="11.114510624707082"><ele>733.5999999999999</ele><time>2026-04-04T09:20:45Z</time></trkpt><trkpt lat="44.183582036280036" lon="11.114451271956478"><ele>734.8</ele><time>2026-04-04T09:20:47Z</time></trkpt><trkpt lat="44.18348352197332" lon="11.114551217033458"><ele>736.0</ele><time>2026-04-04T09:20:49Z</time></trkpt><trkpt lat="44.18342976693906" lon="11.114644818635938"><ele>736.0</ele><time>2026-04-04T09:20:50Z</time></trkpt><trkpt lat="44.183403782019525" lon="11.114777842850511"><ele>736.0</ele><time>2026-04-04T09:20:51Z</time></trkpt><trkpt lat="44.18336231618307" lon="11.114898791469102"><ele>736.0</ele><time>2026-04-04T09:20:52Z</time></trkpt><trkpt lat="44.18331552530812" lon="11.114966265644417"><ele>736.0</ele><time>2026-04-04T09:20:53Z</time></trkpt><trkpt lat="44.18322944714774" lon="11.114969202308453"><ele>736.0</ele><time>2026-04-04T09:20:55Z</time></trkpt><trkpt lat="44.18314493201481" lon="11.114832597678404"><ele>738.8</ele><time>2026-04-04T09:20:57Z</time></trkpt><trkpt lat="44.18309125641843" lon="11.114723668508535"><ele>741.5999999999999</ele><time>2026-04-04T09:20:58Z</time></trkpt><trkpt lat="44.18303507666202" lon="11.114623405299396"><ele>744.4</ele><time>2026-04-04T09:20:59Z</time></trkpt><trkpt lat="44.182959582225564" lon="11.114512420854881"><ele>747.2</ele><time>2026-04-04T09:21:00Z</time></trkpt><trkpt lat="44.182867024484494" lon="11.114409498149747"><ele>750.0</ele><time>2026-04-04T09:21:01Z</time></trkpt><trkpt lat="44.18277333340062" lon="11.11430343709864"><ele>750.0</ele><time>2026-04-04T09:21:02Z</time></trkpt><trkpt lat="44.18270690877197" lon="11.114204377516465"><ele>750.0</ele><time>2026-04-04T09:21:03Z</time></trkpt><trkpt lat="44.182649281182044" lon="11.114085345371452"><ele>750.0</ele><time>2026-04-04T09:21:04Z</time></trkpt><trkpt lat="44.182598856234414" lon="11.113990000245863"><ele>750.0</ele><time>2026-04-04T09:21:05Z</time></trkpt><trkpt lat="44.18250036762281" lon="11.113918404645075"><ele>750.0</ele><time>2026-04-04T09:21:07Z</time></trkpt><trkpt lat="44.182431760232056" lon="11.113907681011332"><ele>752.0</ele><time>2026-04-04T09:21:08Z</time></trkpt><trkpt lat="44.18234393080845" lon="11.113951524636652"><ele>754.0</ele><time>2026-04-04T09:21:09Z</time></trkpt><trkpt lat="44.1822322621109" lon="11.114028823226954"><ele>756.0</ele><time>2026-04-04T09:21:10Z</time></trkpt><trkpt lat="44.182127183307855" lon="11.114100355223405"><ele>758.0</ele><time>2026-04-04T09:21:11Z</time></trkpt><trkpt lat="44.182044087781584" lon="11.114068891976618"><ele>760.0</ele><time>2026-04-04T09:21:12Z</time></trkpt><trkpt lat="44.18197943890838" lon="11.114056541710827"><ele>761.6666666666667</ele><time>2026-04-04T09:21:13Z</time></trkpt><trkpt lat="44.181945806807626" lon="11.113964434201941"><ele>763.3333333333334</ele><time>2026-04-04T09:21:14Z</time></trkpt><trkpt lat="44.18188820677765" lon="11.113883312802313"><ele>765.0</ele><time>2026-04-04T09:21:15Z</time></trkpt><trkpt lat="44.18184974661067" lon="11.1137640969293"><ele>766.6666666666667</ele><time>2026-04-04T09:21:16Z</time></trkpt><trkpt lat="44.18183374107078" lon="11.1136307495961"><ele>768.3333333333334</ele><time>2026-04-04T09:21:17Z</time></trkpt><trkpt lat="44.18184581593079" lon="11.11349103037415"><ele>770.0</ele><time>2026-04-04T09:21:18Z</time></trkpt><trkpt lat="44.18188990497287" lon="11.113346718948206"><ele>770.0000000000001</ele><time>2026-04-04T09:21:19Z</time></trkpt><trkpt lat="44.1819390507483" lon="11.113239347912593"><ele>770.0</ele><time>2026-04-04T09:21:20Z</time></trkpt><trkpt lat="44.1819715126187" lon="11.113127627949899"><ele>770.0</ele><time>2026-04-04T09:21:21Z</time></trkpt><trkpt lat="44.18196133813271" lon="11.113015911970832"><ele>770.0</ele><time>2026-04-04T09:21:22Z</time></trkpt><trkpt lat="44.18191519038929" lon="11.112912189851468"><ele>770.0000000000001</ele><time>2026-04-04T09:21:23Z</time></trkpt><trkpt lat="44.18184022029387" lon="11.112827157468432"><ele>770.0</ele><time>2026-04-04T09:21:24Z</time></trkpt><trkpt lat="44.18174000393087" lon="11.11274830686281"><ele>772.0</ele><time>2026-04-04T09:21:25Z</time></trkpt><trkpt lat="44.181623548926666" lon="11.112690146941256"><ele>774.0</ele><time>2026-04-04T09:21:26Z</time></trkpt><trkpt lat="44.1815411429041" lon="11.112605172058043"><ele>776.0</ele><time>2026-04-04T09:21:27Z</time></trkpt><trkpt lat="44.18146528892792" lon="11.112525717406815"><ele>778.0</ele><time>2026-04-04T09:21:28Z</time></trkpt><trkpt lat="44.1814332789324" lon="11.112371073431525"><ele>780.0</ele><time>2026-04-04T09:21:29Z</time></trkpt><trkpt lat="44.181359314857445" lon="11.112224807254595"><ele>783.2</ele><time>2026-04-04T09:21:30Z</time></trkpt><trkpt lat="44.18128836105043" lon="11.112066046378548"><ele>786.4</ele><time>2026-04-04T09:21:31Z</time></trkpt><trkpt lat="44.18120808596927" lon="11.111933575842334"><ele>789.5999999999999</ele><time>2026-04-04T09:21:32Z</time></trkpt><trkpt lat="44.18114882857832" lon="11.11183027790657"><ele>792.8</ele><time>2026-04-04T09:21:33Z</time></trkpt><trkpt lat="44.18113696727398" lon="11.111739230066968"><ele>796.0</ele><time>2026-04-04T09:21:34Z</time></trkpt><trkpt lat="44.1811623390244" lon="11.111646182390198"><ele>797.3333333333333</ele><time>2026-04-04T09:21:35Z</time></trkpt><trkpt lat="44.181214443001394" lon="11.111560531106472"><ele>798.6666666666666</ele><time>2026-04-04T09:21:36Z</time></trkpt><trkpt lat="44.181301424122715" lon="11.111529830525217"><ele>800.0</ele><time>2026-04-04T09:21:37Z</time></trkpt><trkpt lat="44.181379799616636" lon="11.111454293459122"><ele>801.3333333333333</ele><time>2026-04-04T09:21:38Z</time></trkpt><trkpt lat="44.18144541210679" lon="11.11139803322301"><ele>802.6666666666666</ele><time>2026-04-04T09:21:39Z</time></trkpt><trkpt lat="44.18147861349288" lon="11.111314431308877"><ele>804.0</ele><time>2026-04-04T09:21:40Z</time></trkpt><trkpt lat="44.18148133695261" lon="11.111223867440515"><ele>804.0</ele><time>2026-04-04T09:21:41Z</time></trkpt><trkpt lat="44.18146702568958" lon="11.111129285510023"><ele>804.0</ele><time>2026-04-04T09:21:42Z</time></trkpt><trkpt lat="44.1814284816187" lon="11.111037980739585"><ele>804.0</ele><time>2026-04-04T09:21:43Z</time></trkpt><trkpt lat="44.181366039412325" lon="11.110926142132115"><ele>804.0</ele><time>2026-04-04T09:21:44Z</time></trkpt><trkpt lat="44.18129307889004" lon="11.110777590291374"><ele>804.0</ele><time>2026-04-04T09:21:45Z</time></trkpt><trkpt lat="44.1812598388411" lon="11.110620670121735"><ele>806.5</ele><time>2026-04-04T09:21:46Z</time></trkpt><trkpt lat="44.18120677436644" lon="11.11045772643694"><ele>809.0</ele><time>2026-04-04T09:21:47Z</time></trkpt><trkpt lat="44.1811325123543" lon="11.110320810251245"><ele>811.5</ele><time>2026-04-04T09:21:48Z</time></trkpt><trkpt lat="44.18105805825389" lon="11.110208992032252"><ele>814.0</ele><time>2026-04-04T09:21:49Z</time></trkpt><trkpt lat="44.18097437150469" lon="11.110111704063536"><ele>814.0</ele><time>2026-04-04T09:21:50Z</time></trkpt><trkpt lat="44.180931337164175" lon="11.110002062919012"><ele>814.0</ele><time>2026-04-04T09:21:51Z</time></trkpt><trkpt lat="44.18089051296673" lon="11.109896863282362"><ele>814.0</ele><time>2026-04-04T09:21:52Z</time></trkpt><trkpt lat="44.180857857175" lon="11.109780821967819"><ele>814.0</ele><time>2026-04-04T09:21:53Z</time></trkpt><trkpt lat="44.18082428715361" lon="11.109660388920084"><ele>814.0</ele><time>2026-04-04T09:21:54Z</time></trkpt><trkpt lat="44.18081613842869" lon="11.109515234845102"><ele>816.0</ele><time>2026-04-04T09:21:55Z</time></trkpt><trkpt lat="44.180811320000615" lon="11.109360847846737"><ele>818.0</ele><time>2026-04-04T09:21:56Z</time></trkpt><trkpt lat="44.18080532991591" lon="11.109204454017096"><ele>820.0</ele><time>2026-04-04T09:21:57Z</time></trkpt><trkpt lat="44.18079798020592" lon="11.109042274981658"><ele>822.0</ele><time>2026-04-04T09:21:58Z</time></trkpt><trkpt lat="44.18079366586926" lon="11.108874490066196"><ele>824.0</ele><time>2026-04-04T09:21:59Z</time></trkpt><trkpt lat="44.18077690141166" lon="11.108715499737247"><ele>826.0</ele><time>2026-04-04T09:22:00Z</time></trkpt><trkpt lat="44.180736146765966" lon="11.108575883902638"><ele>828.0</ele><time>2026-04-04T09:22:01Z</time></trkpt><trkpt lat="44.18070025155831" lon="11.108434211897512"><ele>830.0</ele><time>2026-04-04T09:22:02Z</time></trkpt><trkpt lat="44.18062882049798" lon="11.10830150235443"><ele>834.0</ele><time>2026-04-04T09:22:03Z</time></trkpt><trkpt lat="44.18056880853451" lon="11.108156958475695"><ele>838.0</ele><time>2026-04-04T09:22:04Z</time></trkpt><trkpt lat="44.18050433409122" lon="11.108012469083121"><ele>842.0</ele><time>2026-04-04T09:22:05Z</time></trkpt><trkpt lat="44.18043804346478" lon="11.10787510526756"><ele>846.0</ele><time>2026-04-04T09:22:06Z</time></trkpt><trkpt lat="44.180392646289" lon="11.107713534056671"><ele>846.0</ele><time>2026-04-04T09:22:06.999Z</time></trkpt><trkpt lat="44.18034162899167" lon="11.107561562804335"><ele>846.0</ele><time>2026-04-04T09:22:07.999Z</time></trkpt><trkpt lat="44.18030177836081" lon="11.10739858640779"><ele>846.0</ele><time>2026-04-04T09:22:08.999Z</time></trkpt><trkpt lat="44.180251110194476" lon="11.107236766380863"><ele>846.0</ele><time>2026-04-04T09:22:09.999Z</time></trkpt><trkpt lat="44.180239170847074" lon="11.107068425400334"><ele>846.8</ele><time>2026-04-04T09:22:10.999Z</time></trkpt><trkpt lat="44.180236413959165" lon="11.106917119644677"><ele>847.5999999999999</ele><time>2026-04-04T09:22:11.999Z</time></trkpt><trkpt lat="44.180243118896264" lon="11.106785475258134"><ele>848.4</ele><time>2026-04-04T09:22:12.999Z</time></trkpt><trkpt lat="44.18028954246657" lon="11.106677338374237"><ele>849.2</ele><time>2026-04-04T09:22:13.999Z</time></trkpt><trkpt lat="44.18033011382539" lon="11.106560846565962"><ele>850.0</ele><time>2026-04-04T09:22:14.999Z</time></trkpt><trkpt lat="44.180407919524576" lon="11.1064572007245"><ele>850.1666666666666</ele><time>2026-04-04T09:22:15.999Z</time></trkpt><trkpt lat="44.1804847994957" lon="11.106345467686925"><ele>850.3333333333333</ele><time>2026-04-04T09:22:16.999Z</time></trkpt><trkpt lat="44.18054821591803" lon="11.106246015320428"><ele>850.5</ele><time>2026-04-04T09:22:17.999Z</time></trkpt><trkpt lat="44.180594686299905" lon="11.106180461687742"><ele>850.6666666666667</ele><time>2026-04-04T09:22:18.999Z</time></trkpt><trkpt lat="44.18058428207295" lon="11.106084095254477"><ele>850.8333333333334</ele><time>2026-04-04T09:22:23Z</time></trkpt><trkpt lat="44.18048229877358" lon="11.106098108765217"><ele>851.0</ele><time>2026-04-04T09:22:26Z</time></trkpt><trkpt lat="44.180391042045215" lon="11.106119273985128"><ele>851.0</ele><time>2026-04-04T09:22:27Z</time></trkpt><trkpt lat="44.18030694932107" lon="11.106153589041597"><ele>851.0</ele><time>2026-04-04T09:22:28Z</time></trkpt><trkpt lat="44.18022400664051" lon="11.106188292289659"><ele>851.0</ele><time>2026-04-04T09:22:29Z</time></trkpt><trkpt lat="44.18014026812252" lon="11.106225530000792"><ele>851.0</ele><time>2026-04-04T09:22:30Z</time></trkpt><trkpt lat="44.18004492071819" lon="11.106269130967247"><ele>851.0</ele><time>2026-04-04T09:22:31Z</time></trkpt><trkpt lat="44.17993252620314" lon="11.106321137980325"><ele>855.3333333333334</ele><time>2026-04-04T09:22:32Z</time></trkpt><trkpt lat="44.179789871146475" lon="11.1064113168105"><ele>859.6666666666667</ele><time>2026-04-04T09:22:33Z</time></trkpt><trkpt lat="44.17962542434237" lon="11.106480863648056"><ele>864.0</ele><time>2026-04-04T09:22:34Z</time></trkpt><trkpt lat="44.17946430727126" lon="11.106557470855694"><ele>863.6666666666667</ele><time>2026-04-04T09:22:35Z</time></trkpt><trkpt lat="44.17930056055794" lon="11.10658683411331"><ele>863.3333333333334</ele><time>2026-04-04T09:22:36Z</time></trkpt><trkpt lat="44.179145021149445" lon="11.106654874390035"><ele>863.0</ele><time>2026-04-04T09:22:37Z</time></trkpt><trkpt lat="44.17898928353467" lon="11.106699465308173"><ele>864.5</ele><time>2026-04-04T09:22:38Z</time></trkpt><trkpt lat="44.178837857394285" lon="11.10674058326181"><ele>866.0</ele><time>2026-04-04T09:22:39Z</time></trkpt><trkpt lat="44.17870775153967" lon="11.106764804584602"><ele>867.5</ele><time>2026-04-04T09:22:40Z</time></trkpt><trkpt lat="44.178597249373986" lon="11.106786233737356"><ele>869.0</ele><time>2026-04-04T09:22:41Z</time></trkpt><trkpt lat="44.17850072454172" lon="11.1068074666933"><ele>869.0</ele><time>2026-04-04T09:22:42Z</time></trkpt><trkpt lat="44.178405723810236" lon="11.106816385772934"><ele>869.0</ele><time>2026-04-04T09:22:43Z</time></trkpt><trkpt lat="44.17829808945012" lon="11.106779559437417"><ele>869.0</ele><time>2026-04-04T09:22:44Z</time></trkpt><trkpt lat="44.17816305711238" lon="11.106763608978671"><ele>869.0</ele><time>2026-04-04T09:22:45Z</time></trkpt><trkpt lat="44.17800878095848" lon="11.106672176732825"><ele>869.5</ele><time>2026-04-04T09:22:46Z</time></trkpt><trkpt lat="44.177855480754225" lon="11.106620719814243"><ele>870.0</ele><time>2026-04-04T09:22:47Z</time></trkpt><trkpt lat="44.1777327783368" lon="11.106564975281875"><ele>870.5</ele><time>2026-04-04T09:22:48Z</time></trkpt><trkpt lat="44.17761649159762" lon="11.106510114176917"><ele>871.0</ele><time>2026-04-04T09:22:49Z</time></trkpt><trkpt lat="44.17751321095091" lon="11.106445718359568"><ele>871.0</ele><time>2026-04-04T09:22:50Z</time></trkpt><trkpt lat="44.17742054139938" lon="11.10634754185655"><ele>871.0</ele><time>2026-04-04T09:22:51Z</time></trkpt><trkpt lat="44.17732916441535" lon="11.106261609386788"><ele>871.0</ele><time>2026-04-04T09:22:52Z</time></trkpt><trkpt lat="44.17722003334793" lon="11.10619710041939"><ele>871.0</ele><time>2026-04-04T09:22:53Z</time></trkpt><trkpt lat="44.177109448209315" lon="11.106167813242683"><ele>865.5</ele><time>2026-04-04T09:22:54Z</time></trkpt><trkpt lat="44.1770211047253" lon="11.106189917803876"><ele>860.0</ele><time>2026-04-04T09:22:55Z</time></trkpt><trkpt lat="44.17693867693406" lon="11.106262328259975"><ele>854.5</ele><time>2026-04-04T09:22:56Z</time></trkpt><trkpt lat="44.17683087164664" lon="11.106335263274968"><ele>849.0</ele><time>2026-04-04T09:22:57Z</time></trkpt><trkpt lat="44.176703123547576" lon="11.10644791408941"><ele>849.0</ele><time>2026-04-04T09:22:58Z</time></trkpt><trkpt lat="44.176568703234004" lon="11.106568042491853"><ele>849.0</ele><time>2026-04-04T09:22:59Z</time></trkpt><trkpt lat="44.17644490112511" lon="11.10670171405027"><ele>849.0</ele><time>2026-04-04T09:23:00Z</time></trkpt><trkpt lat="44.1763072772973" lon="11.106806190928085"><ele>844.5</ele><time>2026-04-04T09:23:01Z</time></trkpt><trkpt lat="44.17620126779152" lon="11.10689480840456"><ele>840.0</ele><time>2026-04-04T09:23:02Z</time></trkpt><trkpt lat="44.17611349425437" lon="11.106964939450725"><ele>835.5</ele><time>2026-04-04T09:23:03Z</time></trkpt><trkpt lat="44.17597957580659" lon="11.107069398153346"><ele>831.0</ele><time>2026-04-04T09:23:04Z</time></trkpt><trkpt lat="44.17586588008722" lon="11.107192435655175"><ele>831.0</ele><time>2026-04-04T09:23:05Z</time></trkpt><trkpt lat="44.175773373201" lon="11.107344838854447"><ele>831.0</ele><time>2026-04-04T09:23:06Z</time></trkpt><trkpt lat="44.175679288359085" lon="11.10746608250633"><ele>831.0</ele><time>2026-04-04T09:23:07Z</time></trkpt><trkpt lat="44.17559087847233" lon="11.107574151668373"><ele>831.0</ele><time>2026-04-04T09:23:08Z</time></trkpt><trkpt lat="44.17550130088023" lon="11.107673623846363"><ele>831.1666666666666</ele><time>2026-04-04T09:23:09Z</time></trkpt><trkpt lat="44.1754310707605" lon="11.107793542290688"><ele>831.3333333333333</ele><time>2026-04-04T09:23:10Z</time></trkpt><trkpt lat="44.175356184699105" lon="11.107868162735285"><ele>831.5</ele><time>2026-04-04T09:23:11Z</time></trkpt><trkpt lat="44.175313083687364" lon="11.107944235133912"><ele>831.6666666666666</ele><time>2026-04-04T09:23:12Z</time></trkpt><trkpt lat="44.17525009624242" lon="11.107915536791438"><ele>831.8333333333333</ele><time>2026-04-04T09:23:16Z</time></trkpt><trkpt lat="44.17523555311925" lon="11.10777597318719"><ele>832.0</ele><time>2026-04-04T09:23:18Z</time></trkpt><trkpt lat="44.17520555079606" lon="11.107609496231781"><ele>831.9999999999999</ele><time>2026-04-04T09:23:20Z</time></trkpt><trkpt lat="44.1751370017867" lon="11.10746868244264"><ele>832.0</ele><time>2026-04-04T09:23:22Z</time></trkpt><trkpt lat="44.17512103765228" lon="11.107363197654818"><ele>832.0</ele><time>2026-04-04T09:23:23Z</time></trkpt><trkpt lat="44.17512773031767" lon="11.107254817396871"><ele>832.0</ele><time>2026-04-04T09:23:24Z</time></trkpt><trkpt lat="44.17515433058199" lon="11.107141802240678"><ele>831.9999999999999</ele><time>2026-04-04T09:23:25Z</time></trkpt><trkpt lat="44.17518344611151" lon="11.107031378872836"><ele>832.0</ele><time>2026-04-04T09:23:26Z</time></trkpt><trkpt lat="44.175224320356484" lon="11.106949461808897"><ele>830.3333333333333</ele><time>2026-04-04T09:23:27Z</time></trkpt><trkpt lat="44.17524258547231" lon="11.106857517002801"><ele>828.6666666666666</ele><time>2026-04-04T09:23:28Z</time></trkpt><trkpt lat="44.175233740195566" lon="11.106763351168984"><ele>827.0</ele><time>2026-04-04T09:23:29Z</time></trkpt><trkpt lat="44.17519723309089" lon="11.10666373424266"><ele>825.3333333333333</ele><time>2026-04-04T09:23:30Z</time></trkpt><trkpt lat="44.175160026079524" lon="11.106549291173067"><ele>823.6666666666666</ele><time>2026-04-04T09:23:31Z</time></trkpt><trkpt lat="44.175118525701095" lon="11.106422991142704"><ele>822.0</ele><time>2026-04-04T09:23:32Z</time></trkpt><trkpt lat="44.175072426291294" lon="11.10630198781477"><ele>820.8</ele><time>2026-04-04T09:23:33Z</time></trkpt><trkpt lat="44.17501640767804" lon="11.10618055906734"><ele>819.6</ele><time>2026-04-04T09:23:34Z</time></trkpt><trkpt lat="44.17494810376375" lon="11.106072910037136"><ele>818.4</ele><time>2026-04-04T09:23:35Z</time></trkpt><trkpt lat="44.1748743389017" lon="11.105970465039901"><ele>817.1999999999999</ele><time>2026-04-04T09:23:36Z</time></trkpt><trkpt lat="44.17478967242409" lon="11.10586355098198"><ele>816.0</ele><time>2026-04-04T09:23:37Z</time></trkpt><trkpt lat="44.174698741077506" lon="11.105757120237037"><ele>811.5</ele><time>2026-04-04T09:23:38Z</time></trkpt><trkpt lat="44.174607117334524" lon="11.10564422652691"><ele>807.0</ele><time>2026-04-04T09:23:39Z</time></trkpt><trkpt lat="44.1745173410335" lon="11.105535065449155"><ele>802.5</ele><time>2026-04-04T09:23:40Z</time></trkpt><trkpt lat="44.1744457587289" lon="11.105421160510746"><ele>798.0</ele><time>2026-04-04T09:23:41Z</time></trkpt><trkpt lat="44.17440800152973" lon="11.105280148826834"><ele>798.0</ele><time>2026-04-04T09:23:42Z</time></trkpt><trkpt lat="44.174385020395526" lon="11.105123153312036"><ele>798.0</ele><time>2026-04-04T09:23:43Z</time></trkpt><trkpt lat="44.17438990346237" lon="11.104978634553694"><ele>798.0</ele><time>2026-04-04T09:23:44Z</time></trkpt><trkpt lat="44.17440378967656" lon="11.10482072028123"><ele>798.0</ele><time>2026-04-04T09:23:45Z</time></trkpt><trkpt lat="44.17441633371555" lon="11.104655021822575"><ele>797.5999999999999</ele><time>2026-04-04T09:23:46Z</time></trkpt><trkpt lat="44.17442492667683" lon="11.10449328352534"><ele>797.1999999999999</ele><time>2026-04-04T09:23:47Z</time></trkpt><trkpt lat="44.174416481568024" lon="11.104351401070033"><ele>796.8</ele><time>2026-04-04T09:23:48Z</time></trkpt><trkpt lat="44.174381402275024" lon="11.10423560328942"><ele>796.4</ele><time>2026-04-04T09:23:49Z</time></trkpt><trkpt lat="44.174338957605954" lon="11.104140948409231"><ele>796.0</ele><time>2026-04-04T09:23:50Z</time></trkpt><trkpt lat="44.17429771210144" lon="11.104070805274006"><ele>796.0</ele><time>2026-04-04T09:23:51Z</time></trkpt><trkpt lat="44.17420523110777" lon="11.104077209577033"><ele>796.0</ele><time>2026-04-04T09:23:52Z</time></trkpt><trkpt lat="44.17412267653299" lon="11.104080944935117"><ele>796.0</ele><time>2026-04-04T09:23:53Z</time></trkpt><trkpt lat="44.17403716741303" lon="11.104032814235874"><ele>796.0</ele><time>2026-04-04T09:23:54Z</time></trkpt><trkpt lat="44.17393815242321" lon="11.103986251490452"><ele>796.0</ele><time>2026-04-04T09:23:55Z</time></trkpt><trkpt lat="44.1738587898536" lon="11.103930830410565"><ele>793.4</ele><time>2026-04-04T09:23:56Z</time></trkpt><trkpt lat="44.17378552511338" lon="11.10386404129161"><ele>790.8</ele><time>2026-04-04T09:23:57Z</time></trkpt><trkpt lat="44.17376116812675" lon="11.103714491132452"><ele>788.1999999999999</ele><time>2026-04-04T09:23:58Z</time></trkpt><trkpt lat="44.17371133871856" lon="11.103602403365118"><ele>785.5999999999999</ele><time>2026-04-04T09:23:59Z</time></trkpt><trkpt lat="44.173657978035344" lon="11.103456045610542"><ele>783.0</ele><time>2026-04-04T09:24:00Z</time></trkpt><trkpt lat="44.17357192351798" lon="11.10331944406699"><ele>782.75</ele><time>2026-04-04T09:24:01Z</time></trkpt><trkpt lat="44.17346411299462" lon="11.103191710923378"><ele>782.5</ele><time>2026-04-04T09:24:02Z</time></trkpt><trkpt lat="44.17335261466808" lon="11.103077444839474"><ele>782.25</ele><time>2026-04-04T09:24:03Z</time></trkpt><trkpt lat="44.17325240012918" lon="11.10294687390049"><ele>782.0</ele><time>2026-04-04T09:24:04Z</time></trkpt><trkpt lat="44.17316790612668" lon="11.102799933309534"><ele>779.2</ele><time>2026-04-04T09:24:05Z</time></trkpt><trkpt lat="44.1731104734329" lon="11.102677993864948"><ele>776.4000000000001</ele><time>2026-04-04T09:24:06Z</time></trkpt><trkpt lat="44.17305832215729" lon="11.102555207113626"><ele>773.5999999999999</ele><time>2026-04-04T09:24:07Z</time></trkpt><trkpt lat="44.173018749978034" lon="11.102421986487773"><ele>770.8</ele><time>2026-04-04T09:24:07.999Z</time></trkpt><trkpt lat="44.17299476748104" lon="11.102270639751616"><ele>768.0</ele><time>2026-04-04T09:24:08.999Z</time></trkpt><trkpt lat="44.172958112963684" lon="11.102109809183071"><ele>766.25</ele><time>2026-04-04T09:24:09.999Z</time></trkpt><trkpt lat="44.17290714745234" lon="11.101949089825393"><ele>764.5</ele><time>2026-04-04T09:24:10.999Z</time></trkpt><trkpt lat="44.17284671353722" lon="11.101774815961258"><ele>762.75</ele><time>2026-04-04T09:24:11.999Z</time></trkpt><trkpt lat="44.17281385401804" lon="11.101592677066948"><ele>761.0</ele><time>2026-04-04T09:24:12.999Z</time></trkpt><trkpt lat="44.17277767646118" lon="11.1014118919546"><ele>759.75</ele><time>2026-04-04T09:24:13.999Z</time></trkpt><trkpt lat="44.172737508001504" lon="11.101257927571881"><ele>758.5</ele><time>2026-04-04T09:24:14.999Z</time></trkpt><trkpt lat="44.17269850578127" lon="11.101113753743606"><ele>757.25</ele><time>2026-04-04T09:24:15.999Z</time></trkpt><trkpt lat="44.172657575295425" lon="11.100962082399963"><ele>756.0</ele><time>2026-04-04T09:24:16.999Z</time></trkpt><trkpt lat="44.172609968337945" lon="11.100830011195374"><ele>754.25</ele><time>2026-04-04T09:24:17.999Z</time></trkpt><trkpt lat="44.172555742411014" lon="11.10069456882712"><ele>752.5</ele><time>2026-04-04T09:24:18.999Z</time></trkpt><trkpt lat="44.17249634144857" lon="11.100547639324033"><ele>750.75</ele><time>2026-04-04T09:24:19.999Z</time></trkpt><trkpt lat="44.1724426562013" lon="11.100396008678224"><ele>749.0</ele><time>2026-04-04T09:24:20.999Z</time></trkpt><trkpt lat="44.17239307176618" lon="11.100241170089305"><ele>746.3333333333333</ele><time>2026-04-04T09:24:21.999Z</time></trkpt><trkpt lat="44.172350258377485" lon="11.100105116809488"><ele>743.6666666666666</ele><time>2026-04-04T09:24:22.999Z</time></trkpt><trkpt lat="44.17231230817148" lon="11.099984006675424"><ele>741.0</ele><time>2026-04-04T09:24:23.999Z</time></trkpt><trkpt lat="44.17227022055672" lon="11.099879789786682"><ele>738.3333333333334</ele><time>2026-04-04T09:24:24.999Z</time></trkpt><trkpt lat="44.172217218392404" lon="11.099814781230329"><ele>735.6666666666667</ele><time>2026-04-04T09:24:26Z</time></trkpt><trkpt lat="44.17215255881306" lon="11.09979711771571"><ele>733.0</ele><time>2026-04-04T09:24:27Z</time></trkpt><trkpt lat="44.17207982918887" lon="11.099822526629868"><ele>732.3333333333334</ele><time>2026-04-04T09:24:28Z</time></trkpt><trkpt lat="44.17200852779662" lon="11.099825244202268"><ele>731.6666666666667</ele><time>2026-04-04T09:24:29Z</time></trkpt><trkpt lat="44.1718891954198" lon="11.099830531064518"><ele>731.0</ele><time>2026-04-04T09:24:31Z</time></trkpt><trkpt lat="44.17182831679242" lon="11.09976512921876"><ele>730.3333333333334</ele><time>2026-04-04T09:24:32Z</time></trkpt><trkpt lat="44.17176798870394" lon="11.099698560762068"><ele>729.6666666666666</ele><time>2026-04-04T09:24:33Z</time></trkpt><trkpt lat="44.17169822324983" lon="11.099643003287213"><ele>729.0</ele><time>2026-04-04T09:24:35Z</time></trkpt><trkpt lat="44.17162725852585" lon="11.099621172989693"><ele>729.0</ele><time>2026-04-04T09:24:42Z</time></trkpt><trkpt lat="44.17160723656706" lon="11.099807115087195"><ele>729.0</ele><time>2026-04-04T09:24:45Z</time></trkpt><trkpt lat="44.171632980821094" lon="11.099980921932572"><ele>729.0</ele><time>2026-04-04T09:24:46Z</time></trkpt><trkpt lat="44.1716709866199" lon="11.100120819358256"><ele>729.0</ele><time>2026-04-04T09:24:47Z</time></trkpt><trkpt lat="44.17170998436873" lon="11.10027337789663"><ele>730.0</ele><time>2026-04-04T09:24:48Z</time></trkpt><trkpt lat="44.17174286269189" lon="11.100452963254217"><ele>731.0</ele><time>2026-04-04T09:24:49Z</time></trkpt><trkpt lat="44.17176448869356" lon="11.100641467407161"><ele>732.0</ele><time>2026-04-04T09:24:50Z</time></trkpt><trkpt lat="44.17177325261267" lon="11.100829150645886"><ele>733.0</ele><time>2026-04-04T09:24:51Z</time></trkpt><trkpt lat="44.171765675981014" lon="11.100995604083888"><ele>733.4</ele><time>2026-04-04T09:24:52Z</time></trkpt><trkpt lat="44.171729612422055" lon="11.101128643364484"><ele>733.8</ele><time>2026-04-04T09:24:53Z</time></trkpt><trkpt lat="44.17166616087291" lon="11.101224140823954"><ele>734.2</ele><time>2026-04-04T09:24:54Z</time></trkpt><trkpt lat="44.1715963122053" lon="11.101343402647958"><ele>734.6</ele><time>2026-04-04T09:24:55Z</time></trkpt><trkpt lat="44.171522403112405" lon="11.10146186361459"><ele>735.0</ele><time>2026-04-04T09:24:56Z</time></trkpt><trkpt lat="44.17144716961946" lon="11.101584676443318"><ele>734.0</ele><time>2026-04-04T09:24:57Z</time></trkpt><trkpt lat="44.17137136533669" lon="11.101711080742996"><ele>733.0</ele><time>2026-04-04T09:24:58Z</time></trkpt><trkpt lat="44.17129967802958" lon="11.10183386340274"><ele>732.0</ele><time>2026-04-04T09:24:59Z</time></trkpt><trkpt lat="44.17122589448886" lon="11.101961116833953"><ele>731.0</ele><time>2026-04-04T09:25:00Z</time></trkpt><trkpt lat="44.171177022512026" lon="11.102106016584917"><ele>731.0</ele><time>2026-04-04T09:25:01Z</time></trkpt><trkpt lat="44.1711370583389" lon="11.102241792085117"><ele>731.0</ele><time>2026-04-04T09:25:02Z</time></trkpt><trkpt lat="44.17112995883845" lon="11.102404483163758"><ele>731.0</ele><time>2026-04-04T09:25:03Z</time></trkpt><trkpt lat="44.17111982783205" lon="11.102567940431474"><ele>731.0</ele><time>2026-04-04T09:25:04Z</time></trkpt><trkpt lat="44.17110156995138" lon="11.102722705210818"><ele>733.8</ele><time>2026-04-04T09:25:05Z</time></trkpt><trkpt lat="44.1710584721559" lon="11.10285603394287"><ele>736.5999999999999</ele><time>2026-04-04T09:25:06Z</time></trkpt><trkpt lat="44.17097808506104" lon="11.102943932636718"><ele>739.4</ele><time>2026-04-04T09:25:07Z</time></trkpt><trkpt lat="44.17088797719064" lon="11.103025305678823"><ele>742.2</ele><time>2026-04-04T09:25:08Z</time></trkpt><trkpt lat="44.17079924401989" lon="11.103106477889051"><ele>745.0</ele><time>2026-04-04T09:25:09Z</time></trkpt><trkpt lat="44.17072313244405" lon="11.103194434989852"><ele>746.0</ele><time>2026-04-04T09:25:10Z</time></trkpt><trkpt lat="44.17069567338861" lon="11.103359139083597"><ele>747.0</ele><time>2026-04-04T09:25:11Z</time></trkpt><trkpt lat="44.170673859440356" lon="11.103523204736991"><ele>748.0</ele><time>2026-04-04T09:25:12Z</time></trkpt><trkpt lat="44.170670745235874" lon="11.103670205309482"><ele>749.0</ele><time>2026-04-04T09:25:13Z</time></trkpt><trkpt lat="44.17064619380608" lon="11.103785301260324"><ele>750.0</ele><time>2026-04-04T09:25:14Z</time></trkpt><trkpt lat="44.1706369094189" lon="11.103899624384006"><ele>748.6</ele><time>2026-04-04T09:25:15Z</time></trkpt><trkpt lat="44.17062651729518" lon="11.104016850809836"><ele>747.2</ele><time>2026-04-04T09:25:16Z</time></trkpt><trkpt lat="44.17061568014059" lon="11.104139097352505"><ele>745.8</ele><time>2026-04-04T09:25:17Z</time></trkpt><trkpt lat="44.170604583515036" lon="11.104264270796396"><ele>744.4</ele><time>2026-04-04T09:25:18Z</time></trkpt><trkpt lat="44.17059353180487" lon="11.104388937567114"><ele>743.0</ele><time>2026-04-04T09:25:19Z</time></trkpt><trkpt lat="44.17058175224863" lon="11.104521814688262"><ele>743.0</ele><time>2026-04-04T09:25:20Z</time></trkpt><trkpt lat="44.17056973509839" lon="11.104663711628993"><ele>743.0</ele><time>2026-04-04T09:25:21Z</time></trkpt><trkpt lat="44.17055773466055" lon="11.10481797129001"><ele>743.0</ele><time>2026-04-04T09:25:22Z</time></trkpt><trkpt lat="44.17054559243055" lon="11.104974053632988"><ele>743.0</ele><time>2026-04-04T09:25:23Z</time></trkpt><trkpt lat="44.17054936848966" lon="11.105137484922718"><ele>743.0</ele><time>2026-04-04T09:25:24Z</time></trkpt><trkpt lat="44.1705307036151" lon="11.105298715400423"><ele>744.0</ele><time>2026-04-04T09:25:25Z</time></trkpt><trkpt lat="44.1705159234463" lon="11.105464976576933"><ele>745.0</ele><time>2026-04-04T09:25:26Z</time></trkpt><trkpt lat="44.170501523125125" lon="11.105632518456988"><ele>746.0</ele><time>2026-04-04T09:25:27Z</time></trkpt><trkpt lat="44.17046208752065" lon="11.105801431649784"><ele>747.0</ele><time>2026-04-04T09:25:28Z</time></trkpt><trkpt lat="44.17042456097261" lon="11.105962851457639"><ele>748.8</ele><time>2026-04-04T09:25:29Z</time></trkpt><trkpt lat="44.17038094245053" lon="11.106107508983442"><ele>750.6</ele><time>2026-04-04T09:25:30Z</time></trkpt><trkpt lat="44.17032723792358" lon="11.106230316141758"><ele>752.4</ele><time>2026-04-04T09:25:31Z</time></trkpt><trkpt lat="44.17027421448027" lon="11.106339087876387"><ele>754.1999999999999</ele><time>2026-04-04T09:25:32Z</time></trkpt><trkpt lat="44.1701747050281" lon="11.106360702806665"><ele>756.0</ele><time>2026-04-04T09:25:33Z</time></trkpt><trkpt lat="44.17007799537642" lon="11.106343707305408"><ele>756.0</ele><time>2026-04-04T09:25:34Z</time></trkpt><trkpt lat="44.16997143345464" lon="11.10630599745526"><ele>756.0</ele><time>2026-04-04T09:25:35Z</time></trkpt><trkpt lat="44.169853051234426" lon="11.106280276666245"><ele>756.0</ele><time>2026-04-04T09:25:36Z</time></trkpt><trkpt lat="44.16973139383917" lon="11.10625881483306"><ele>756.0</ele><time>2026-04-04T09:25:37Z</time></trkpt><trkpt lat="44.169621177041186" lon="11.106267058889271"><ele>755.4</ele><time>2026-04-04T09:25:38Z</time></trkpt><trkpt lat="44.16951675373655" lon="11.106355674755457"><ele>754.8</ele><time>2026-04-04T09:25:39Z</time></trkpt><trkpt lat="44.16942848715683" lon="11.1064714436163"><ele>754.1999999999999</ele><time>2026-04-04T09:25:40Z</time></trkpt><trkpt lat="44.16935650336658" lon="11.106564283036212"><ele>753.5999999999999</ele><time>2026-04-04T09:25:41Z</time></trkpt><trkpt lat="44.16930042925618" lon="11.106649713406448"><ele>753.0</ele><time>2026-04-04T09:25:42Z</time></trkpt><trkpt lat="44.1692095986929" lon="11.106672164573778"><ele>752.75</ele><time>2026-04-04T09:25:43Z</time></trkpt><trkpt lat="44.16911121942482" lon="11.106680741411367"><ele>752.5</ele><time>2026-04-04T09:25:44Z</time></trkpt><trkpt lat="44.16900802610475" lon="11.106657093306486"><ele>752.25</ele><time>2026-04-04T09:25:45Z</time></trkpt><trkpt lat="44.16889197277787" lon="11.106584726039044"><ele>752.0</ele><time>2026-04-04T09:25:46Z</time></trkpt><trkpt lat="44.16877794182952" lon="11.106519542395715"><ele>752.0</ele><time>2026-04-04T09:25:47Z</time></trkpt><trkpt lat="44.16866163312584" lon="11.106464343076492"><ele>752.0</ele><time>2026-04-04T09:25:48Z</time></trkpt><trkpt lat="44.16855138572122" lon="11.1064486733631"><ele>752.0</ele><time>2026-04-04T09:25:49Z</time></trkpt><trkpt lat="44.168442508023446" lon="11.106487799972973"><ele>752.0</ele><time>2026-04-04T09:25:50Z</time></trkpt><trkpt lat="44.16833871977701" lon="11.106573821948418"><ele>755.0</ele><time>2026-04-04T09:25:51Z</time></trkpt><trkpt lat="44.16823616332233" lon="11.106670400206617"><ele>758.0</ele><time>2026-04-04T09:25:52Z</time></trkpt><trkpt lat="44.16812356643148" lon="11.106709515604903"><ele>761.0</ele><time>2026-04-04T09:25:53Z</time></trkpt><trkpt lat="44.16800849933471" lon="11.106711971389858"><ele>764.0</ele><time>2026-04-04T09:25:54Z</time></trkpt><trkpt lat="44.16789171600781" lon="11.106666143913628"><ele>764.25</ele><time>2026-04-04T09:25:55Z</time></trkpt><trkpt lat="44.16777051620969" lon="11.106656962409083"><ele>764.5</ele><time>2026-04-04T09:25:56Z</time></trkpt><trkpt lat="44.16764722954003" lon="11.106676052992162"><ele>764.75</ele><time>2026-04-04T09:25:57Z</time></trkpt><trkpt lat="44.16753240922997" lon="11.106747709053428"><ele>765.0</ele><time>2026-04-04T09:25:58Z</time></trkpt><trkpt lat="44.16740976315341" lon="11.106773301240489"><ele>766.0</ele><time>2026-04-04T09:25:59Z</time></trkpt><trkpt lat="44.167287721983136" lon="11.106769374360962"><ele>767.0</ele><time>2026-04-04T09:26:00Z</time></trkpt><trkpt lat="44.16717263753187" lon="11.10671892863924"><ele>768.0</ele><time>2026-04-04T09:26:01Z</time></trkpt><trkpt lat="44.16705566981392" lon="11.106649609973077"><ele>769.0</ele><time>2026-04-04T09:26:02Z</time></trkpt><trkpt lat="44.1669497983791" lon="11.106552869439794"><ele>766.5</ele><time>2026-04-04T09:26:03Z</time></trkpt><trkpt lat="44.166838333346426" lon="11.106473776721582"><ele>764.0</ele><time>2026-04-04T09:26:04Z</time></trkpt><trkpt lat="44.16671531592008" lon="11.106430867188447"><ele>761.5</ele><time>2026-04-04T09:26:05Z</time></trkpt><trkpt lat="44.16658887459288" lon="11.106426752300326"><ele>759.0</ele><time>2026-04-04T09:26:06Z</time></trkpt><trkpt lat="44.166464926245375" lon="11.106415938298786"><ele>759.0</ele><time>2026-04-04T09:26:07Z</time></trkpt><trkpt lat="44.16634482845077" lon="11.106429161691008"><ele>759.0</ele><time>2026-04-04T09:26:08Z</time></trkpt><trkpt lat="44.166227033146356" lon="11.106446970643889"><ele>759.0</ele><time>2026-04-04T09:26:09Z</time></trkpt><trkpt lat="44.16610588137759" lon="11.10645185670383"><ele>759.0</ele><time>2026-04-04T09:26:10Z</time></trkpt><trkpt lat="44.165985649759776" lon="11.106445928392342"><ele>759.0</ele><time>2026-04-04T09:26:11Z</time></trkpt><trkpt lat="44.16586543745312" lon="11.10645010251524"><ele>759.0</ele><time>2026-04-04T09:26:12Z</time></trkpt><trkpt lat="44.16574560330049" lon="11.106462941306226"><ele>759.0</ele><time>2026-04-04T09:26:13Z</time></trkpt><trkpt lat="44.16562761142166" lon="11.106458576129674"><ele>759.0</ele><time>2026-04-04T09:26:13.999Z</time></trkpt><trkpt lat="44.16551167139245" lon="11.10648056764847"><ele>758.5</ele><time>2026-04-04T09:26:14.999Z</time></trkpt><trkpt lat="44.16539742424548" lon="11.106545044717805"><ele>758.0</ele><time>2026-04-04T09:26:15.999Z</time></trkpt><trkpt lat="44.165291202859244" lon="11.106628431707229"><ele>757.5</ele><time>2026-04-04T09:26:16.999Z</time></trkpt><trkpt lat="44.16518912434084" lon="11.10672413490573"><ele>757.0</ele><time>2026-04-04T09:26:17.999Z</time></trkpt><trkpt lat="44.16507963763924" lon="11.106787116237012"><ele>759.5</ele><time>2026-04-04T09:26:18.999Z</time></trkpt><trkpt lat="44.164976145184994" lon="11.106854999657589"><ele>762.0</ele><time>2026-04-04T09:26:19.999Z</time></trkpt><trkpt lat="44.16487960053111" lon="11.106860302138253"><ele>764.5</ele><time>2026-04-04T09:26:20.999Z</time></trkpt><trkpt lat="44.16477297432286" lon="11.106822984484399"><ele>767.0</ele><time>2026-04-04T09:26:21.999Z</time></trkpt><trkpt lat="44.164654793115254" lon="11.10673256879661"><ele>767.5</ele><time>2026-04-04T09:26:22.999Z</time></trkpt><trkpt lat="44.164530837731434" lon="11.106652125943643"><ele>768.0</ele><time>2026-04-04T09:26:23.999Z</time></trkpt><trkpt lat="44.16439919718997" lon="11.106568704327325"><ele>768.5</ele><time>2026-04-04T09:26:24.999Z</time></trkpt><trkpt lat="44.164262847154966" lon="11.106486435679233"><ele>769.0</ele><time>2026-04-04T09:26:25.999Z</time></trkpt><trkpt lat="44.16413122393554" lon="11.106407798357477"><ele>767.0</ele><time>2026-04-04T09:26:26.999Z</time></trkpt><trkpt lat="44.164009373754425" lon="11.106338320055716"><ele>765.0</ele><time>2026-04-04T09:26:27.999Z</time></trkpt><trkpt lat="44.16390330535146" lon="11.106270060697852"><ele>763.0</ele><time>2026-04-04T09:26:28.999Z</time></trkpt><trkpt lat="44.16380145397137" lon="11.106212317836146"><ele>761.0</ele><time>2026-04-04T09:26:29.999Z</time></trkpt><trkpt lat="44.16370022576006" lon="11.10620115150544"><ele>761.0</ele><time>2026-04-04T09:26:30.999Z</time></trkpt><trkpt lat="44.1635941607942" lon="11.106235063524588"><ele>761.0</ele><time>2026-04-04T09:26:32Z</time></trkpt><trkpt lat="44.16350093671352" lon="11.106323229057498"><ele>761.0</ele><time>2026-04-04T09:26:33Z</time></trkpt><trkpt lat="44.163420078037525" lon="11.106454931760057"><ele>761.0</ele><time>2026-04-04T09:26:34Z</time></trkpt><trkpt lat="44.16333838108867" lon="11.10660275951555"><ele>763.5</ele><time>2026-04-04T09:26:35Z</time></trkpt><trkpt lat="44.163222314179926" lon="11.106688264798251"><ele>766.0</ele><time>2026-04-04T09:26:36Z</time></trkpt><trkpt lat="44.16309130924026" lon="11.106733980163332"><ele>768.5</ele><time>2026-04-04T09:26:37Z</time></trkpt><trkpt lat="44.16295268544379" lon="11.1067374875809"><ele>771.0</ele><time>2026-04-04T09:26:38Z</time></trkpt><trkpt lat="44.16279927302349" lon="11.106721218557555"><ele>771.0</ele><time>2026-04-04T09:26:39Z</time></trkpt><trkpt lat="44.16263561781229" lon="11.106711962211333"><ele>771.0</ele><time>2026-04-04T09:26:40Z</time></trkpt><trkpt lat="44.16246831113764" lon="11.106678406193323"><ele>771.0</ele><time>2026-04-04T09:26:41Z</time></trkpt><trkpt lat="44.1623013230968" lon="11.106648798466102"><ele>772.3333333333333</ele><time>2026-04-04T09:26:42Z</time></trkpt><trkpt lat="44.16213581415208" lon="11.106622459433757"><ele>773.6666666666666</ele><time>2026-04-04T09:26:43Z</time></trkpt><trkpt lat="44.16195927947066" lon="11.106599672243386"><ele>775.0</ele><time>2026-04-04T09:26:44Z</time></trkpt><trkpt lat="44.16177974595026" lon="11.106570446596423"><ele>774.3333333333333</ele><time>2026-04-04T09:26:45Z</time></trkpt><trkpt lat="44.1616030595043" lon="11.10650341670015"><ele>773.6666666666667</ele><time>2026-04-04T09:26:46Z</time></trkpt><trkpt lat="44.16142254222999" lon="11.106456445697368"><ele>773.0</ele><time>2026-04-04T09:26:47Z</time></trkpt><trkpt lat="44.16123617672652" lon="11.106440449599384"><ele>773.0</ele><time>2026-04-04T09:26:48Z</time></trkpt><trkpt lat="44.161046199238356" lon="11.10640699857291"><ele>773.0</ele><time>2026-04-04T09:26:49Z</time></trkpt><trkpt lat="44.16087737073058" lon="11.106383811732263"><ele>773.0</ele><time>2026-04-04T09:26:50Z</time></trkpt><trkpt lat="44.16072438620229" lon="11.106350969803707"><ele>772.25</ele><time>2026-04-04T09:26:51Z</time></trkpt><trkpt lat="44.16059132723467" lon="11.106319557931968"><ele>771.5</ele><time>2026-04-04T09:26:52Z</time></trkpt><trkpt lat="44.16046894313561" lon="11.106305674783224"><ele>770.75</ele><time>2026-04-04T09:26:53Z</time></trkpt><trkpt lat="44.1603464290656" lon="11.106340118455469"><ele>770.0</ele><time>2026-04-04T09:26:54Z</time></trkpt><trkpt lat="44.16020618937557" lon="11.106421942605914"><ele>770.0</ele><time>2026-04-04T09:26:55Z</time></trkpt><trkpt lat="44.160034033110946" lon="11.106494717110447"><ele>770.0</ele><time>2026-04-04T09:26:56Z</time></trkpt><trkpt lat="44.15985133975065" lon="11.106592722744267"><ele>770.0</ele><time>2026-04-04T09:26:57Z</time></trkpt><trkpt lat="44.15967119447735" lon="11.106685496723445"><ele>774.0</ele><time>2026-04-04T09:26:58Z</time></trkpt><trkpt lat="44.159502749845984" lon="11.10677765697489"><ele>778.0</ele><time>2026-04-04T09:26:59Z</time></trkpt><trkpt lat="44.15936255844165" lon="11.106861680560893"><ele>782.0</ele><time>2026-04-04T09:27:00Z</time></trkpt><trkpt lat="44.15923905399533" lon="11.106985857847192"><ele>782.0</ele><time>2026-04-04T09:27:01Z</time></trkpt><trkpt lat="44.15910934438149" lon="11.107113973671376"><ele>782.0</ele><time>2026-04-04T09:27:02Z</time></trkpt><trkpt lat="44.15894760829328" lon="11.10722575581232"><ele>782.0</ele><time>2026-04-04T09:27:03Z</time></trkpt><trkpt lat="44.1587929145861" lon="11.107338570267913"><ele>785.25</ele><time>2026-04-04T09:27:04Z</time></trkpt><trkpt lat="44.15865421550974" lon="11.107418788946093"><ele>788.5</ele><time>2026-04-04T09:27:05Z</time></trkpt><trkpt lat="44.15852434561079" lon="11.10748373764473"><ele>791.75</ele><time>2026-04-04T09:27:06Z</time></trkpt><trkpt lat="44.15840249268196" lon="11.107522988270707"><ele>795.0</ele><time>2026-04-04T09:27:07Z</time></trkpt><trkpt lat="44.1582753546106" lon="11.107530448497688"><ele>794.5</ele><time>2026-04-04T09:27:08Z</time></trkpt><trkpt lat="44.158170533466254" lon="11.107480651200643"><ele>794.0</ele><time>2026-04-04T09:27:09Z</time></trkpt><trkpt lat="44.158096105024555" lon="11.10738556382358"><ele>793.5</ele><time>2026-04-04T09:27:10Z</time></trkpt><trkpt lat="44.15803815894794" lon="11.10723869770919"><ele>793.0</ele><time>2026-04-04T09:27:11Z</time></trkpt><trkpt lat="44.15795161291735" lon="11.10708151157871"><ele>793.0</ele><time>2026-04-04T09:27:12Z</time></trkpt><trkpt lat="44.15786271203039" lon="11.106950003627984"><ele>793.0</ele><time>2026-04-04T09:27:13Z</time></trkpt><trkpt lat="44.15774495540374" lon="11.106889112169604"><ele>793.0</ele><time>2026-04-04T09:27:14Z</time></trkpt><trkpt lat="44.15760089001616" lon="11.106873286863761"><ele>793.0</ele><time>2026-04-04T09:27:15Z</time></trkpt><trkpt lat="44.15743575566463" lon="11.106826594096974"><ele>794.6666666666666</ele><time>2026-04-04T09:27:16Z</time></trkpt><trkpt lat="44.157283641093294" lon="11.106749446301327"><ele>796.3333333333333</ele><time>2026-04-04T09:27:17Z</time></trkpt><trkpt lat="44.15713803919288" lon="11.106650272571239"><ele>798.0</ele><time>2026-04-04T09:27:18Z</time></trkpt><trkpt lat="44.157010417334554" lon="11.106594678061247"><ele>798.0</ele><time>2026-04-04T09:27:19Z</time></trkpt><trkpt lat="44.15689719786689" lon="11.106570533114953"><ele>798.0</ele><time>2026-04-04T09:27:20Z</time></trkpt><trkpt lat="44.15678820862252" lon="11.106609639203876"><ele>798.0</ele><time>2026-04-04T09:27:21Z</time></trkpt><trkpt lat="44.15666977864138" lon="11.106696788590256"><ele>798.0</ele><time>2026-04-04T09:27:22Z</time></trkpt><trkpt lat="44.15654577366822" lon="11.10680222184635"><ele>798.5</ele><time>2026-04-04T09:27:23Z</time></trkpt><trkpt lat="44.156428767403014" lon="11.106881231209359"><ele>799.0</ele><time>2026-04-04T09:27:24Z</time></trkpt><trkpt lat="44.15629924773164" lon="11.106883256239904"><ele>799.5</ele><time>2026-04-04T09:27:25Z</time></trkpt><trkpt lat="44.15616759304909" lon="11.106878000222588"><ele>800.0</ele><time>2026-04-04T09:27:26Z</time></trkpt><trkpt lat="44.15602296105443" lon="11.10687712759923"><ele>800.0</ele><time>2026-04-04T09:27:27Z</time></trkpt><trkpt lat="44.15588333765195" lon="11.106929029630946"><ele>800.0</ele><time>2026-04-04T09:27:28Z</time></trkpt><trkpt lat="44.15574335587159" lon="11.106971580395626"><ele>800.0</ele><time>2026-04-04T09:27:29Z</time></trkpt><trkpt lat="44.15560667339685" lon="11.107029965695565"><ele>800.0</ele><time>2026-04-04T09:27:30Z</time></trkpt><trkpt lat="44.15546889358455" lon="11.107048708560225"><ele>799.75</ele><time>2026-04-04T09:27:31Z</time></trkpt><trkpt lat="44.15534303904539" lon="11.107109326006334"><ele>799.5</ele><time>2026-04-04T09:27:32Z</time></trkpt><trkpt lat="44.15521195258646" lon="11.107138352304252"><ele>799.25</ele><time>2026-04-04T09:27:33Z</time></trkpt><trkpt lat="44.15509135632773" lon="11.107172591402323"><ele>799.0</ele><time>2026-04-04T09:27:34Z</time></trkpt><trkpt lat="44.15497010092648" lon="11.107208278933108"><ele>802.75</ele><time>2026-04-04T09:27:35Z</time></trkpt><trkpt lat="44.15484556433235" lon="11.107243098103856"><ele>806.5</ele><time>2026-04-04T09:27:36Z</time></trkpt><trkpt lat="44.15471672581057" lon="11.107244154615273"><ele>810.25</ele><time>2026-04-04T09:27:37Z</time></trkpt><trkpt lat="44.15458739703377" lon="11.10727757492929"><ele>814.0</ele><time>2026-04-04T09:27:38Z</time></trkpt><trkpt lat="44.154456260412736" lon="11.107277110887802"><ele>814.0</ele><time>2026-04-04T09:27:39Z</time></trkpt><trkpt lat="44.15434968839682" lon="11.107216560005536"><ele>814.0</ele><time>2026-04-04T09:27:40Z</time></trkpt><trkpt lat="44.15425549011466" lon="11.107147511121306"><ele>814.0</ele><time>2026-04-04T09:27:41Z</time></trkpt><trkpt lat="44.15418709889494" lon="11.107007584960435"><ele>814.0</ele><time>2026-04-04T09:27:42Z</time></trkpt><trkpt lat="44.15417003437037" lon="11.10683024624643"><ele>814.0</ele><time>2026-04-04T09:27:43Z</time></trkpt><trkpt lat="44.15411890912157" lon="11.106683931535876"><ele>814.0</ele><time>2026-04-04T09:27:44Z</time></trkpt><trkpt lat="44.15405805309443" lon="11.106555418779303"><ele>814.0</ele><time>2026-04-04T09:27:45Z</time></trkpt><trkpt lat="44.15395134267921" lon="11.10645893479428"><ele>814.0</ele><time>2026-04-04T09:27:46Z</time></trkpt><trkpt lat="44.15382915022258" lon="11.106398684161112"><ele>812.0</ele><time>2026-04-04T09:27:47Z</time></trkpt><trkpt lat="44.15371526055445" lon="11.106366842860986"><ele>810.0</ele><time>2026-04-04T09:27:48Z</time></trkpt><trkpt lat="44.153597423684346" lon="11.106380830386794"><ele>808.0</ele><time>2026-04-04T09:27:49Z</time></trkpt><trkpt lat="44.15348477513983" lon="11.106449141881209"><ele>806.0</ele><time>2026-04-04T09:27:50Z</time></trkpt><trkpt lat="44.15337726282521" lon="11.106574051745191"><ele>810.3333333333334</ele><time>2026-04-04T09:27:51Z</time></trkpt><trkpt lat="44.15326247601797" lon="11.106727975604768"><ele>814.6666666666667</ele><time>2026-04-04T09:27:52Z</time></trkpt><trkpt lat="44.15312086410052" lon="11.106817667380856"><ele>819.0</ele><time>2026-04-04T09:27:53Z</time></trkpt><trkpt lat="44.152990924990384" lon="11.106889709017414"><ele>819.75</ele><time>2026-04-04T09:27:54Z</time></trkpt><trkpt lat="44.152864829113504" lon="11.106941412806384"><ele>820.5</ele><time>2026-04-04T09:27:55Z</time></trkpt><trkpt lat="44.152720539478004" lon="11.106907827235817"><ele>821.25</ele><time>2026-04-04T09:27:56Z</time></trkpt><trkpt lat="44.15257374754365" lon="11.106838595764152"><ele>822.0</ele><time>2026-04-04T09:27:57Z</time></trkpt><trkpt lat="44.1524256298392" lon="11.106731668088676"><ele>823.3333333333333</ele><time>2026-04-04T09:27:58Z</time></trkpt><trkpt lat="44.15224981706634" lon="11.106675280609263"><ele>824.6666666666666</ele><time>2026-04-04T09:27:59Z</time></trkpt><trkpt lat="44.152072469903274" lon="11.106619390662422"><ele>826.0</ele><time>2026-04-04T09:28:00Z</time></trkpt><trkpt lat="44.15191302302594" lon="11.106567668339556"><ele>826.0</ele><time>2026-04-04T09:28:01Z</time></trkpt><trkpt lat="44.15177779257728" lon="11.10648651030583"><ele>826.0</ele><time>2026-04-04T09:28:02Z</time></trkpt><trkpt lat="44.15165079323627" lon="11.106367481969924"><ele>826.0</ele><time>2026-04-04T09:28:03Z</time></trkpt><trkpt lat="44.15153293548012" lon="11.106208544782731"><ele>828.3333333333333</ele><time>2026-04-04T09:28:04Z</time></trkpt><trkpt lat="44.15140906785095" lon="11.106021734487692"><ele>830.6666666666667</ele><time>2026-04-04T09:28:05Z</time></trkpt><trkpt lat="44.15128890913964" lon="11.105816643633325"><ele>833.0</ele><time>2026-04-04T09:28:06Z</time></trkpt><trkpt lat="44.15120279499621" lon="11.105634329928458"><ele>833.0</ele><time>2026-04-04T09:28:07Z</time></trkpt><trkpt lat="44.151139484091004" lon="11.105478250078828"><ele>833.0</ele><time>2026-04-04T09:28:08Z</time></trkpt><trkpt lat="44.15104486683622" lon="11.105347439172583"><ele>833.0</ele><time>2026-04-04T09:28:09Z</time></trkpt><trkpt lat="44.15091808479355" lon="11.105232649431093"><ele>833.0</ele><time>2026-04-04T09:28:10Z</time></trkpt><trkpt lat="44.15080342943469" lon="11.105132117940803"><ele>833.0</ele><time>2026-04-04T09:28:11Z</time></trkpt><trkpt lat="44.15072388964055" lon="11.10502691549961"><ele>833.0</ele><time>2026-04-04T09:28:12Z</time></trkpt><trkpt lat="44.15067274266993" lon="11.104900719584208"><ele>833.0</ele><time>2026-04-04T09:28:13Z</time></trkpt><trkpt lat="44.150645408332196" lon="11.104741350676537"><ele>833.0</ele><time>2026-04-04T09:28:14Z</time></trkpt><trkpt lat="44.15062125635734" lon="11.104555629145713"><ele>836.0</ele><time>2026-04-04T09:28:15Z</time></trkpt><trkpt lat="44.150591627457786" lon="11.104360417735665"><ele>839.0</ele><time>2026-04-04T09:28:16Z</time></trkpt><trkpt lat="44.1505420166609" lon="11.104143644327484"><ele>842.0</ele><time>2026-04-04T09:28:17Z</time></trkpt><trkpt lat="44.15046284159998" lon="11.103942051048556"><ele>842.0</ele><time>2026-04-04T09:28:18Z</time></trkpt><trkpt lat="44.150364806369446" lon="11.103764293564758"><ele>842.0</ele><time>2026-04-04T09:28:19Z</time></trkpt><trkpt lat="44.15030967950282" lon="11.103547996267443"><ele>842.0</ele><time>2026-04-04T09:28:20Z</time></trkpt><trkpt lat="44.150258821472214" lon="11.103376086599361"><ele>842.4000000000001</ele><time>2026-04-04T09:28:21Z</time></trkpt><trkpt lat="44.15023352879173" lon="11.103240382453974"><ele>842.8000000000001</ele><time>2026-04-04T09:28:22Z</time></trkpt><trkpt lat="44.15017139349618" lon="11.103135769740721"><ele>843.2</ele><time>2026-04-04T09:28:23Z</time></trkpt><trkpt lat="44.15007452912418" lon="11.10305505829218"><ele>843.6</ele><time>2026-04-04T09:28:23.999Z</time></trkpt><trkpt lat="44.14996384705445" lon="11.10297216791397"><ele>844.0</ele><time>2026-04-04T09:28:24.999Z</time></trkpt><trkpt lat="44.14981949885618" lon="11.10293467067397"><ele>844.0</ele><time>2026-04-04T09:28:25.999Z</time></trkpt><trkpt lat="44.14966346912452" lon="11.10292822993431"><ele>844.0</ele><time>2026-04-04T09:28:26.999Z</time></trkpt><trkpt lat="44.14952040158818" lon="11.102847987136645"><ele>844.0</ele><time>2026-04-04T09:28:27.999Z</time></trkpt><trkpt lat="44.149390529361334" lon="11.102798523624736"><ele>844.0</ele><time>2026-04-04T09:28:28.999Z</time></trkpt><trkpt lat="44.149286595755456" lon="11.102711913937707"><ele>844.0</ele><time>2026-04-04T09:28:29.999Z</time></trkpt><trkpt lat="44.149216896145944" lon="11.10259301221411"><ele>844.0</ele><time>2026-04-04T09:28:30.999Z</time></trkpt><trkpt lat="44.149151622711074" lon="11.102475143321582"><ele>844.0</ele><time>2026-04-04T09:28:31.999Z</time></trkpt><trkpt lat="44.14907635150991" lon="11.102344598900112"><ele>844.0</ele><time>2026-04-04T09:28:32.999Z</time></trkpt><trkpt lat="44.14901455773893" lon="11.102199317954916"><ele>843.2</ele><time>2026-04-04T09:28:33.999Z</time></trkpt><trkpt lat="44.14894881755201" lon="11.10209815757281"><ele>842.4000000000001</ele><time>2026-04-04T09:28:34.999Z</time></trkpt><trkpt lat="44.1488721147777" lon="11.102044597328634"><ele>841.6</ele><time>2026-04-04T09:28:35.999Z</time></trkpt><trkpt lat="44.14878475518823" lon="11.102006893847564"><ele>840.8</ele><time>2026-04-04T09:28:36.999Z</time></trkpt><trkpt lat="44.148670999452015" lon="11.102041292938322"><ele>840.0</ele><time>2026-04-04T09:28:38Z</time></trkpt><trkpt lat="44.148575878936356" lon="11.102152651489419"><ele>840.0</ele><time>2026-04-04T09:28:39Z</time></trkpt><trkpt lat="44.148473234643426" lon="11.10227909746549"><ele>840.0</ele><time>2026-04-04T09:28:40Z</time></trkpt><trkpt lat="44.14834821815185" lon="11.10238081431114"><ele>840.0</ele><time>2026-04-04T09:28:41Z</time></trkpt><trkpt lat="44.148223352622914" lon="11.102457045832598"><ele>840.0</ele><time>2026-04-04T09:28:42Z</time></trkpt><trkpt lat="44.14808230511705" lon="11.10250042845007"><ele>845.3333333333333</ele><time>2026-04-04T09:28:43Z</time></trkpt><trkpt lat="44.147918778136706" lon="11.102522169389829"><ele>850.6666666666666</ele><time>2026-04-04T09:28:44Z</time></trkpt><trkpt lat="44.14774237657012" lon="11.102546200091414"><ele>856.0</ele><time>2026-04-04T09:28:45Z</time></trkpt><trkpt lat="44.14756586491135" lon="11.102579271403622"><ele>856.0</ele><time>2026-04-04T09:28:46Z</time></trkpt><trkpt lat="44.147390923811464" lon="11.1026266748307"><ele>856.0</ele><time>2026-04-04T09:28:47Z</time></trkpt><trkpt lat="44.1472271855999" lon="11.102660115295581"><ele>856.0</ele><time>2026-04-04T09:28:48Z</time></trkpt><trkpt lat="44.14709053852407" lon="11.102664578607609"><ele>857.4</ele><time>2026-04-04T09:28:49Z</time></trkpt><trkpt lat="44.14697195343872" lon="11.102662751098581"><ele>858.8</ele><time>2026-04-04T09:28:50Z</time></trkpt><trkpt lat="44.146864257841166" lon="11.102676272105072"><ele>860.1999999999999</ele><time>2026-04-04T09:28:51Z</time></trkpt><trkpt lat="44.14677239263518" lon="11.102655447952827"><ele>861.5999999999999</ele><time>2026-04-04T09:28:52Z</time></trkpt><trkpt lat="44.14669627924775" lon="11.102595812070867"><ele>863.0</ele><time>2026-04-04T09:28:53Z</time></trkpt><trkpt lat="44.14661930747526" lon="11.102543992161536"><ele>863.2</ele><time>2026-04-04T09:28:54Z</time></trkpt><trkpt lat="44.14653141036521" lon="11.102505426878288"><ele>863.4</ele><time>2026-04-04T09:28:55Z</time></trkpt><trkpt lat="44.146448349612314" lon="11.102445063599733"><ele>863.6000000000001</ele><time>2026-04-04T09:28:56Z</time></trkpt><trkpt lat="44.14636047936226" lon="11.102389953564685"><ele>863.8000000000001</ele><time>2026-04-04T09:28:57Z</time></trkpt><trkpt lat="44.146261054977025" lon="11.102346512721196"><ele>864.0</ele><time>2026-04-04T09:28:58Z</time></trkpt><trkpt lat="44.14615778187351" lon="11.102314131854518"><ele>864.6</ele><time>2026-04-04T09:28:59Z</time></trkpt><trkpt lat="44.146052716112756" lon="11.102288746622294"><ele>865.2</ele><time>2026-04-04T09:29:00Z</time></trkpt><trkpt lat="44.14594225328383" lon="11.102271607828975"><ele>865.8000000000001</ele><time>2026-04-04T09:29:01Z</time></trkpt><trkpt lat="44.14583393517534" lon="11.10227664869661"><ele>866.4000000000001</ele><time>2026-04-04T09:29:02Z</time></trkpt><trkpt lat="44.145732118088056" lon="11.102308357246153"><ele>867.0</ele><time>2026-04-04T09:29:03Z</time></trkpt><trkpt lat="44.145637938624496" lon="11.102319838334136"><ele>867.0</ele><time>2026-04-04T09:29:04Z</time></trkpt><trkpt lat="44.14555219886172" lon="11.102343926649308"><ele>867.0</ele><time>2026-04-04T09:29:05Z</time></trkpt><trkpt lat="44.14546319198495" lon="11.1023418886808"><ele>867.0</ele><time>2026-04-04T09:29:06Z</time></trkpt><trkpt lat="44.14538050577009" lon="11.102300059339674"><ele>867.0</ele><time>2026-04-04T09:29:07Z</time></trkpt><trkpt lat="44.14528712556598" lon="11.102244991315356"><ele>867.0</ele><time>2026-04-04T09:29:08Z</time></trkpt><trkpt lat="44.14521250232929" lon="11.10214210780895"><ele>867.0</ele><time>2026-04-04T09:29:09Z</time></trkpt><trkpt lat="44.14514491211246" lon="11.102043481335679"><ele>867.0</ele><time>2026-04-04T09:29:10Z</time></trkpt><trkpt lat="44.14506964227488" lon="11.101943396990263"><ele>867.0</ele><time>2026-04-04T09:29:11Z</time></trkpt><trkpt lat="44.144996561196294" lon="11.101837279930264"><ele>867.0</ele><time>2026-04-04T09:29:11.999Z</time></trkpt><trkpt lat="44.14491899126848" lon="11.101750355197963"><ele>867.0</ele><time>2026-04-04T09:29:12.999Z</time></trkpt><trkpt lat="44.14483602056085" lon="11.101683251564886"><ele>866.2</ele><time>2026-04-04T09:29:13.999Z</time></trkpt><trkpt lat="44.14474380662177" lon="11.101638389367293"><ele>865.4000000000001</ele><time>2026-04-04T09:29:14.999Z</time></trkpt><trkpt lat="44.14464499830805" lon="11.10162320340527"><ele>864.5999999999999</ele><time>2026-04-04T09:29:15.999Z</time></trkpt><trkpt lat="44.14454319264746" lon="11.10163233691097"><ele>863.8</ele><time>2026-04-04T09:29:16.999Z</time></trkpt><trkpt lat="44.14443974350808" lon="11.101622367636098"><ele>863.0</ele><time>2026-04-04T09:29:17.999Z</time></trkpt><trkpt lat="44.14434142745521" lon="11.10165506843182"><ele>863.0000000000001</ele><time>2026-04-04T09:29:18.999Z</time></trkpt><trkpt lat="44.144255499485844" lon="11.101666278855104"><ele>863.0</ele><time>2026-04-04T09:29:19.999Z</time></trkpt><trkpt lat="44.14416841863877" lon="11.101676626273902"><ele>863.0</ele><time>2026-04-04T09:29:20.999Z</time></trkpt><trkpt lat="44.14409087836133" lon="11.101689864094185"><ele>863.0</ele><time>2026-04-04T09:29:21.999Z</time></trkpt><trkpt lat="44.144017696192726" lon="11.101698497601191"><ele>863.0000000000001</ele><time>2026-04-04T09:29:22.999Z</time></trkpt><trkpt lat="44.143948700433235" lon="11.10169716239899"><ele>863.0</ele><time>2026-04-04T09:29:23.999Z</time></trkpt><trkpt lat="44.143870820076195" lon="11.101657933306603"><ele>864.2</ele><time>2026-04-04T09:29:25.999Z</time></trkpt><trkpt lat="44.14385545836888" lon="11.10147121229988"><ele>865.4</ele><time>2026-04-04T09:29:26.999Z</time></trkpt><trkpt lat="44.143854629325666" lon="11.101348002160472"><ele>866.6000000000001</ele><time>2026-04-04T09:29:27.999Z</time></trkpt><trkpt lat="44.14384348361983" lon="11.101217740285612"><ele>867.8000000000001</ele><time>2026-04-04T09:29:28.999Z</time></trkpt><trkpt lat="44.14381553718118" lon="11.101091656751098"><ele>869.0</ele><time>2026-04-04T09:29:29.999Z</time></trkpt><trkpt lat="44.143770887851325" lon="11.100971155750388"><ele>869.0</ele><time>2026-04-04T09:29:30.999Z</time></trkpt><trkpt lat="44.143707197573484" lon="11.100856140267757"><ele>869.0</ele><time>2026-04-04T09:29:31.999Z</time></trkpt><trkpt lat="44.143625843518635" lon="11.100742017119304"><ele>869.0</ele><time>2026-04-04T09:29:32.999Z</time></trkpt><trkpt lat="44.14353655319674" lon="11.100634641225051"><ele>869.0</ele><time>2026-04-04T09:29:33.999Z</time></trkpt><trkpt lat="44.1434425051501" lon="11.100531006600587"><ele>867.6</ele><time>2026-04-04T09:29:34.999Z</time></trkpt><trkpt lat="44.14334930888114" lon="11.10043649188603"><ele>866.2</ele><time>2026-04-04T09:29:35.999Z</time></trkpt><trkpt lat="44.14326745665411" lon="11.100352140502638"><ele>864.8000000000001</ele><time>2026-04-04T09:29:36.999Z</time></trkpt><trkpt lat="44.14321535136689" lon="11.100244521543443"><ele>863.4000000000001</ele><time>2026-04-04T09:29:37.999Z</time></trkpt><trkpt lat="44.14322092392342" lon="11.100119332894629"><ele>862.0</ele><time>2026-04-04T09:29:38.999Z</time></trkpt><trkpt lat="44.14327619459747" lon="11.100011590894322"><ele>860.3333333333333</ele><time>2026-04-04T09:29:39.999Z</time></trkpt><trkpt lat="44.14332961282521" lon="11.099900082054493"><ele>858.6666666666666</ele><time>2026-04-04T09:29:40.999Z</time></trkpt><trkpt lat="44.14335537719981" lon="11.099787393174473"><ele>857.0</ele><time>2026-04-04T09:29:41.999Z</time></trkpt><trkpt lat="44.143350444545526" lon="11.099679943315484"><ele>855.3333333333333</ele><time>2026-04-04T09:29:42.999Z</time></trkpt><trkpt lat="44.14331761339884" lon="11.099571160805336"><ele>853.6666666666666</ele><time>2026-04-04T09:29:43.999Z</time></trkpt><trkpt lat="44.143243963462325" lon="11.099473379457372"><ele>852.0</ele><time>2026-04-04T09:29:44.999Z</time></trkpt><trkpt lat="44.14314785414143" lon="11.099371036568902"><ele>856.0</ele><time>2026-04-04T09:29:45.999Z</time></trkpt><trkpt lat="44.14304187688149" lon="11.099278647572717"><ele>860.0</ele><time>2026-04-04T09:29:46.999Z</time></trkpt><trkpt lat="44.14295637838137" lon="11.099165902375393"><ele>864.0</ele><time>2026-04-04T09:29:47.999Z</time></trkpt><trkpt lat="44.14285975113382" lon="11.099096482015522"><ele>868.0</ele><time>2026-04-04T09:29:48.999Z</time></trkpt><trkpt lat="44.14278976767272" lon="11.099010661874111"><ele>872.0</ele><time>2026-04-04T09:29:49.999Z</time></trkpt><trkpt lat="44.14273645272723" lon="11.098928676978455"><ele>872.0</ele><time>2026-04-04T09:29:50.999Z</time></trkpt><trkpt lat="44.14270107208449" lon="11.09882857158512"><ele>872.0</ele><time>2026-04-04T09:29:51.999Z</time></trkpt><trkpt lat="44.14269322567857" lon="11.098710714750935"><ele>872.0</ele><time>2026-04-04T09:29:52.999Z</time></trkpt><trkpt lat="44.14271095146567" lon="11.098580729864981"><ele>872.0</ele><time>2026-04-04T09:29:53.999Z</time></trkpt><trkpt lat="44.14272944353362" lon="11.098440472170443"><ele>872.0</ele><time>2026-04-04T09:29:54.999Z</time></trkpt><trkpt lat="44.14273611770615" lon="11.098289279491608"><ele>870.0</ele><time>2026-04-04T09:29:55.999Z</time></trkpt><trkpt lat="44.14273212680535" lon="11.098127852271245"><ele>868.0</ele><time>2026-04-04T09:29:56.999Z</time></trkpt><trkpt lat="44.14273082615179" lon="11.097968795852136"><ele>866.0</ele><time>2026-04-04T09:29:57.999Z</time></trkpt><trkpt lat="44.142725224635115" lon="11.097833639505119"><ele>864.0</ele><time>2026-04-04T09:29:58.999Z</time></trkpt><trkpt lat="44.1427107736349" lon="11.097721362342181"><ele>862.0</ele><time>2026-04-04T09:29:59.999Z</time></trkpt><trkpt lat="44.14268217638813" lon="11.097631022383197"><ele>862.0</ele><time>2026-04-04T09:30:00.999Z</time></trkpt><trkpt lat="44.142614521713405" lon="11.097559145312333"><ele>862.0</ele><time>2026-04-04T09:30:01.999Z</time></trkpt><trkpt lat="44.142521169889285" lon="11.09749005040372"><ele>862.0</ele><time>2026-04-04T09:30:02.999Z</time></trkpt><trkpt lat="44.142422295833434" lon="11.097447992255834"><ele>862.0</ele><time>2026-04-04T09:30:03.999Z</time></trkpt><trkpt lat="44.14231067241235" lon="11.097431781189153"><ele>862.0</ele><time>2026-04-04T09:30:04.999Z</time></trkpt><trkpt lat="44.14218319509203" lon="11.097506891578867"><ele>861.25</ele><time>2026-04-04T09:30:05.999Z</time></trkpt><trkpt lat="44.14203371365755" lon="11.097547179028883"><ele>860.5</ele><time>2026-04-04T09:30:06.999Z</time></trkpt><trkpt lat="44.14190071576151" lon="11.097600517991099"><ele>859.75</ele><time>2026-04-04T09:30:07.999Z</time></trkpt><trkpt lat="44.14177826309858" lon="11.09764617537735"><ele>859.0</ele><time>2026-04-04T09:30:08.999Z</time></trkpt><trkpt lat="44.1416694549671" lon="11.097701730573307"><ele>859.0</ele><time>2026-04-04T09:30:09.999Z</time></trkpt><trkpt lat="44.14156697522709" lon="11.097696297561708"><ele>859.0000000000001</ele><time>2026-04-04T09:30:10.999Z</time></trkpt><trkpt lat="44.14147533120116" lon="11.097679017746794"><ele>859.0000000000001</ele><time>2026-04-04T09:30:11.999Z</time></trkpt><trkpt lat="44.14139928331296" lon="11.097592448182212"><ele>859.0</ele><time>2026-04-04T09:30:12.999Z</time></trkpt><trkpt lat="44.14132026719639" lon="11.097501595265443"><ele>859.0</ele><time>2026-04-04T09:30:13.999Z</time></trkpt><trkpt lat="44.14122516392146" lon="11.097426114405835"><ele>854.5</ele><time>2026-04-04T09:30:14.999Z</time></trkpt><trkpt lat="44.14110605300354" lon="11.097371007724272"><ele>850.0</ele><time>2026-04-04T09:30:15.999Z</time></trkpt><trkpt lat="44.14098993375148" lon="11.097316895329167"><ele>845.5</ele><time>2026-04-04T09:30:16.999Z</time></trkpt><trkpt lat="44.14087931139255" lon="11.097237728437031"><ele>841.0</ele><time>2026-04-04T09:30:17.999Z</time></trkpt><trkpt lat="44.14076659368365" lon="11.097132747490674"><ele>842.0</ele><time>2026-04-04T09:30:18.999Z</time></trkpt><trkpt lat="44.14065491762083" lon="11.09701031879448"><ele>843.0</ele><time>2026-04-04T09:30:19.999Z</time></trkpt><trkpt lat="44.14055066595792" lon="11.096891553764594"><ele>844.0</ele><time>2026-04-04T09:30:20.999Z</time></trkpt><trkpt lat="44.140447175883615" lon="11.096797625002864"><ele>845.0</ele><time>2026-04-04T09:30:21.999Z</time></trkpt><trkpt lat="44.14034022930031" lon="11.096729000805095"><ele>845.0</ele><time>2026-04-04T09:30:22.999Z</time></trkpt><trkpt lat="44.140235404636485" lon="11.096664767109507"><ele>845.0</ele><time>2026-04-04T09:30:23.999Z</time></trkpt><trkpt lat="44.1401452550912" lon="11.096560907081475"><ele>845.0</ele><time>2026-04-04T09:30:24.999Z</time></trkpt><trkpt lat="44.1400664363114" lon="11.096446426500746"><ele>845.0</ele><time>2026-04-04T09:30:25.999Z</time></trkpt><trkpt lat="44.139971097478806" lon="11.096360717463348"><ele>844.0000000000001</ele><time>2026-04-04T09:30:26.999Z</time></trkpt><trkpt lat="44.139852659760095" lon="11.096320584556587"><ele>843.0</ele><time>2026-04-04T09:30:27.999Z</time></trkpt><trkpt lat="44.139748808196195" lon="11.096303361743374"><ele>842.0</ele><time>2026-04-04T09:30:28.999Z</time></trkpt><trkpt lat="44.13966860593805" lon="11.096297208803337"><ele>841.0</ele><time>2026-04-04T09:30:29.999Z</time></trkpt><trkpt lat="44.139598817239396" lon="11.096288927168994"><ele>840.0000000000001</ele><time>2026-04-04T09:30:30.999Z</time></trkpt><trkpt lat="44.13953441710141" lon="11.096269760066592"><ele>839.0</ele><time>2026-04-04T09:30:31.999Z</time></trkpt><trkpt lat="44.13948171290866" lon="11.096215063717882"><ele>839.0000000000001</ele><time>2026-04-04T09:30:32.999Z</time></trkpt><trkpt lat="44.139463671595436" lon="11.096119757807678"><ele>839.0</ele><time>2026-04-04T09:30:33.999Z</time></trkpt><trkpt lat="44.139498460175545" lon="11.096027206439954"><ele>839.0</ele><time>2026-04-04T09:30:34.999Z</time></trkpt><trkpt lat="44.13957356685267" lon="11.095991976382416"><ele>839.0</ele><time>2026-04-04T09:30:35.999Z</time></trkpt><trkpt lat="44.1396607609741" lon="11.096012156759734"><ele>839.0000000000001</ele><time>2026-04-04T09:30:36.999Z</time></trkpt><trkpt lat="44.1397510122308" lon="11.09604426958092"><ele>839.0</ele><time>2026-04-04T09:30:37.999Z</time></trkpt><trkpt lat="44.13984541421351" lon="11.09604928443621"><ele>837.6</ele><time>2026-04-04T09:30:38.999Z</time></trkpt><trkpt lat="44.13994633559723" lon="11.096015504112298"><ele>836.2</ele><time>2026-04-04T09:30:39.999Z</time></trkpt><trkpt lat="44.14003986338012" lon="11.095947527278868"><ele>834.8000000000001</ele><time>2026-04-04T09:30:40.999Z</time></trkpt><trkpt lat="44.14012417642238" lon="11.095855339333882"><ele>833.4000000000001</ele><time>2026-04-04T09:30:41.999Z</time></trkpt><trkpt lat="44.140203481219814" lon="11.095763048147417"><ele>832.0</ele><time>2026-04-04T09:30:42.999Z</time></trkpt><trkpt lat="44.14028769079325" lon="11.095696670661834"><ele>828.5</ele><time>2026-04-04T09:30:44Z</time></trkpt><trkpt lat="44.14039644100035" lon="11.095666365882888"><ele>825.0</ele><time>2026-04-04T09:30:45Z</time></trkpt><trkpt lat="44.14051684988798" lon="11.095672589779223"><ele>821.5</ele><time>2026-04-04T09:30:46Z</time></trkpt><trkpt lat="44.140639415797075" lon="11.095696349290897"><ele>818.0</ele><time>2026-04-04T09:30:47Z</time></trkpt><trkpt lat="44.14076255087255" lon="11.095716048103831"><ele>817.25</ele><time>2026-04-04T09:30:48Z</time></trkpt><trkpt lat="44.140889500256854" lon="11.095716062395695"><ele>816.5</ele><time>2026-04-04T09:30:49Z</time></trkpt><trkpt lat="44.14101077693081" lon="11.095707132975376"><ele>815.75</ele><time>2026-04-04T09:30:50Z</time></trkpt><trkpt lat="44.14112790448894" lon="11.095701739388927"><ele>815.0</ele><time>2026-04-04T09:30:51Z</time></trkpt><trkpt lat="44.14123802168144" lon="11.095707746118618"><ele>815.0</ele><time>2026-04-04T09:30:52Z</time></trkpt><trkpt lat="44.14133687099351" lon="11.095701679006917"><ele>815.0</ele><time>2026-04-04T09:30:53Z</time></trkpt><trkpt lat="44.14142433367301" lon="11.095643056481716"><ele>815.0</ele><time>2026-04-04T09:30:54Z</time></trkpt><trkpt lat="44.14149366934769" lon="11.09554156189395"><ele>815.0</ele><time>2026-04-04T09:30:55Z</time></trkpt><trkpt lat="44.14155106926744" lon="11.095417732481714"><ele>815.0</ele><time>2026-04-04T09:30:56Z</time></trkpt><trkpt lat="44.14159967815552" lon="11.095282781924338"><ele>815.6</ele><time>2026-04-04T09:30:57Z</time></trkpt><trkpt lat="44.14165486663947" lon="11.095148903925038"><ele>816.2</ele><time>2026-04-04T09:30:58Z</time></trkpt><trkpt lat="44.141725817292176" lon="11.095043890515164"><ele>816.8</ele><time>2026-04-04T09:30:59Z</time></trkpt><trkpt lat="44.14180233280095" lon="11.094954316516214"><ele>817.4</ele><time>2026-04-04T09:31:00Z</time></trkpt><trkpt lat="44.141867487695166" lon="11.094866158213089"><ele>818.0</ele><time>2026-04-04T09:31:01Z</time></trkpt><trkpt lat="44.14190459772816" lon="11.094760930186725"><ele>816.5999999999999</ele><time>2026-04-04T09:31:02Z</time></trkpt><trkpt lat="44.141901498129585" lon="11.094636342482621"><ele>815.1999999999999</ele><time>2026-04-04T09:31:03Z</time></trkpt><trkpt lat="44.14185823481427" lon="11.094524981938955"><ele>813.8</ele><time>2026-04-04T09:31:04Z</time></trkpt><trkpt lat="44.14179543506827" lon="11.09442813764413"><ele>812.4</ele><time>2026-04-04T09:31:05Z</time></trkpt><trkpt lat="44.1417401184306" lon="11.094326893472457"><ele>811.0</ele><time>2026-04-04T09:31:06Z</time></trkpt><trkpt lat="44.14171417128136" lon="11.094204189946463"><ele>808.75</ele><time>2026-04-04T09:31:07Z</time></trkpt><trkpt lat="44.14172604915916" lon="11.094063950203694"><ele>806.5</ele><time>2026-04-04T09:31:08Z</time></trkpt><trkpt lat="44.141789136870294" lon="11.09394665671242"><ele>804.25</ele><time>2026-04-04T09:31:09Z</time></trkpt><trkpt lat="44.141876665395074" lon="11.093826911926465"><ele>802.0</ele><time>2026-04-04T09:31:10Z</time></trkpt><trkpt lat="44.14196676877022" lon="11.093714406718577"><ele>802.0</ele><time>2026-04-04T09:31:11Z</time></trkpt><trkpt lat="44.14204612589215" lon="11.093647505069402"><ele>802.0</ele><time>2026-04-04T09:31:12Z</time></trkpt><trkpt lat="44.14210837421981" lon="11.093617534257005"><ele>802.0</ele><time>2026-04-04T09:31:13Z</time></trkpt><trkpt lat="44.14221504456462" lon="11.093544974214515"><ele>802.0</ele><time>2026-04-04T09:31:15Z</time></trkpt><trkpt lat="44.14227867838592" lon="11.093400472629805"><ele>802.0</ele><time>2026-04-04T09:31:17Z</time></trkpt><trkpt lat="44.14225948964539" lon="11.093304458674774"><ele>802.0</ele><time>2026-04-04T09:31:18Z</time></trkpt><trkpt lat="44.142204733744535" lon="11.093228001863741"><ele>802.0</ele><time>2026-04-04T09:31:19Z</time></trkpt><trkpt lat="44.14213455227395" lon="11.093169382379761"><ele>802.0</ele><time>2026-04-04T09:31:20Z</time></trkpt><trkpt lat="44.142026791468794" lon="11.093198771283566"><ele>802.0</ele><time>2026-04-04T09:31:21Z</time></trkpt><trkpt lat="44.1419340458552" lon="11.093254988702062"><ele>802.0</ele><time>2026-04-04T09:31:22Z</time></trkpt><trkpt lat="44.14183691981716" lon="11.093280302223063"><ele>800.2</ele><time>2026-04-04T09:31:23Z</time></trkpt><trkpt lat="44.14174952250619" lon="11.09324288930073"><ele>798.4000000000001</ele><time>2026-04-04T09:31:24Z</time></trkpt><trkpt lat="44.141677646978245" lon="11.093161744548443"><ele>796.5999999999999</ele><time>2026-04-04T09:31:25Z</time></trkpt><trkpt lat="44.14160222089876" lon="11.09309519473404"><ele>794.8</ele><time>2026-04-04T09:31:26Z</time></trkpt><trkpt lat="44.14150388699956" lon="11.093069188886467"><ele>793.0</ele><time>2026-04-04T09:31:27Z</time></trkpt><trkpt lat="44.141380032933036" lon="11.093109237842695"><ele>793.25</ele><time>2026-04-04T09:31:28Z</time></trkpt><trkpt lat="44.141261284131964" lon="11.093177697588155"><ele>793.5</ele><time>2026-04-04T09:31:29Z</time></trkpt><trkpt lat="44.14113756469828" lon="11.093223274468667"><ele>793.75</ele><time>2026-04-04T09:31:30Z</time></trkpt><trkpt lat="44.14100919629392" lon="11.093259785018063"><ele>794.0</ele><time>2026-04-04T09:31:31Z</time></trkpt><trkpt lat="44.140883509171736" lon="11.093288701447522"><ele>794.0</ele><time>2026-04-04T09:31:32Z</time></trkpt><trkpt lat="44.14076114515771" lon="11.093304985944172"><ele>794.0</ele><time>2026-04-04T09:31:33Z</time></trkpt><trkpt lat="44.14064202298776" lon="11.093296157846716"><ele>794.0</ele><time>2026-04-04T09:31:34Z</time></trkpt><trkpt lat="44.14053045655619" lon="11.093249258304349"><ele>794.0</ele><time>2026-04-04T09:31:35Z</time></trkpt><trkpt lat="44.140429124965365" lon="11.093167022725531"><ele>792.25</ele><time>2026-04-04T09:31:36Z</time></trkpt><trkpt lat="44.14033705558123" lon="11.09306903882898"><ele>790.5</ele><time>2026-04-04T09:31:37Z</time></trkpt><trkpt lat="44.14023389450406" lon="11.092961876068735"><ele>788.75</ele><time>2026-04-04T09:31:38Z</time></trkpt><trkpt lat="44.140144500056394" lon="11.0928259895589"><ele>787.0</ele><time>2026-04-04T09:31:39Z</time></trkpt><trkpt lat="44.14004804059405" lon="11.09269136249348"><ele>787.0</ele><time>2026-04-04T09:31:40Z</time></trkpt><trkpt lat="44.13995146458929" lon="11.092558424705313"><ele>787.0</ele><time>2026-04-04T09:31:41Z</time></trkpt><trkpt lat="44.139860752478306" lon="11.092427621306536"><ele>787.0</ele><time>2026-04-04T09:31:42Z</time></trkpt><trkpt lat="44.139779247190624" lon="11.092310840365535"><ele>787.0</ele><time>2026-04-04T09:31:43Z</time></trkpt><trkpt lat="44.139701480500825" lon="11.09219843010907"><ele>785.25</ele><time>2026-04-04T09:31:44Z</time></trkpt><trkpt lat="44.13960251883568" lon="11.092122998641669"><ele>783.5</ele><time>2026-04-04T09:31:45Z</time></trkpt><trkpt lat="44.13948481734976" lon="11.09208130417039"><ele>781.75</ele><time>2026-04-04T09:31:46Z</time></trkpt><trkpt lat="44.1393459457554" lon="11.092034838638753"><ele>780.0</ele><time>2026-04-04T09:31:47Z</time></trkpt><trkpt lat="44.139215789145595" lon="11.092015267906735"><ele>780.0</ele><time>2026-04-04T09:31:48Z</time></trkpt><trkpt lat="44.13910566526329" lon="11.092002000341095"><ele>780.0</ele><time>2026-04-04T09:31:49Z</time></trkpt><trkpt lat="44.13901886586547" lon="11.091989594633198"><ele>780.0</ele><time>2026-04-04T09:31:50Z</time></trkpt><trkpt lat="44.13895330553539" lon="11.091970279204896"><ele>780.0</ele><time>2026-04-04T09:31:51Z</time></trkpt><trkpt lat="44.13890498668773" lon="11.091829057397304"><ele>780.0</ele><time>2026-04-04T09:31:53Z</time></trkpt><trkpt lat="44.13892881117621" lon="11.091706496396545"><ele>779.8</ele><time>2026-04-04T09:31:54Z</time></trkpt><trkpt lat="44.13894930678688" lon="11.091565310902228"><ele>779.6</ele><time>2026-04-04T09:31:55Z</time></trkpt><trkpt lat="44.138957115436426" lon="11.091415951300537"><ele>779.4000000000001</ele><time>2026-04-04T09:31:56Z</time></trkpt><trkpt lat="44.13895295502351" lon="11.091281520666348"><ele>779.2</ele><time>2026-04-04T09:31:57Z</time></trkpt><trkpt lat="44.13892365223919" lon="11.091164889391814"><ele>779.0</ele><time>2026-04-04T09:31:58Z</time></trkpt><trkpt lat="44.13886122385684" lon="11.09107575435358"><ele>779.0</ele><time>2026-04-04T09:31:59Z</time></trkpt><trkpt lat="44.138767244018055" lon="11.091010768931595"><ele>779.0</ele><time>2026-04-04T09:32:00Z</time></trkpt><trkpt lat="44.13865549488386" lon="11.090955124628215"><ele>779.0</ele><time>2026-04-04T09:32:01Z</time></trkpt><trkpt lat="44.13853253119957" lon="11.090900981441102"><ele>779.0</ele><time>2026-04-04T09:32:02Z</time></trkpt><trkpt lat="44.13842727082655" lon="11.090814575965926"><ele>778.4000000000001</ele><time>2026-04-04T09:32:03Z</time></trkpt><trkpt lat="44.13832769960964" lon="11.09074191833855"><ele>777.8</ele><time>2026-04-04T09:32:04Z</time></trkpt><trkpt lat="44.138248865552086" lon="11.090643300287114"><ele>777.2</ele><time>2026-04-04T09:32:05Z</time></trkpt><trkpt lat="44.138201618585875" lon="11.090511952503363"><ele>776.5999999999999</ele><time>2026-04-04T09:32:06Z</time></trkpt><trkpt lat="44.13816305245975" lon="11.090385353382779"><ele>776.0</ele><time>2026-04-04T09:32:07Z</time></trkpt><trkpt lat="44.13814960961509" lon="11.090261639770336"><ele>776.0000000000001</ele><time>2026-04-04T09:32:08Z</time></trkpt><trkpt lat="44.138121527181944" lon="11.090151247844732"><ele>776.0</ele><time>2026-04-04T09:32:09Z</time></trkpt><trkpt lat="44.138060226943544" lon="11.090078622443714"><ele>776.0</ele><time>2026-04-04T09:32:10Z</time></trkpt><trkpt lat="44.1379824612293" lon="11.090038890549957"><ele>776.0</ele><time>2026-04-04T09:32:11Z</time></trkpt><trkpt lat="44.13792322168456" lon="11.089984086556607"><ele>776.0000000000001</ele><time>2026-04-04T09:32:12Z</time></trkpt><trkpt lat="44.13781443713103" lon="11.089917402024211"><ele>776.0</ele><time>2026-04-04T09:32:14Z</time></trkpt><trkpt lat="44.137750287655045" lon="11.089789133683784"><ele>773.5999999999999</ele><time>2026-04-04T09:32:15.999Z</time></trkpt><trkpt lat="44.137752598388644" lon="11.089665151047255"><ele>771.2</ele><time>2026-04-04T09:32:16.999Z</time></trkpt><trkpt lat="44.13777793007578" lon="11.0895183028896"><ele>768.8</ele><time>2026-04-04T09:32:17.999Z</time></trkpt><trkpt lat="44.137798693796" lon="11.089355800113443"><ele>766.4000000000001</ele><time>2026-04-04T09:32:18.999Z</time></trkpt><trkpt lat="44.13780851429122" lon="11.089198065579923"><ele>764.0</ele><time>2026-04-04T09:32:19.999Z</time></trkpt><trkpt lat="44.13782236075267" lon="11.089050649472625"><ele>762.8000000000001</ele><time>2026-04-04T09:32:20.999Z</time></trkpt><trkpt lat="44.137846551683914" lon="11.088905494299356"><ele>761.6</ele><time>2026-04-04T09:32:21.999Z</time></trkpt><trkpt lat="44.13786982876165" lon="11.08876458610569"><ele>760.4</ele><time>2026-04-04T09:32:22.999Z</time></trkpt><trkpt lat="44.13786857191662" lon="11.088631178169818"><ele>759.2</ele><time>2026-04-04T09:32:23.999Z</time></trkpt><trkpt lat="44.13783484193166" lon="11.088506151206527"><ele>758.0</ele><time>2026-04-04T09:32:24.999Z</time></trkpt><trkpt lat="44.13778094393732" lon="11.088405626256952"><ele>758.0</ele><time>2026-04-04T09:32:25.999Z</time></trkpt><trkpt lat="44.13770934992723" lon="11.088314303782006"><ele>758.0</ele><time>2026-04-04T09:32:26.999Z</time></trkpt><trkpt lat="44.137644871781795" lon="11.088204172505987"><ele>758.0</ele><time>2026-04-04T09:32:27.999Z</time></trkpt><trkpt lat="44.13756660457962" lon="11.08809234262544"><ele>758.0</ele><time>2026-04-04T09:32:28.999Z</time></trkpt><trkpt lat="44.137478808837834" lon="11.087976270666028"><ele>758.0</ele><time>2026-04-04T09:32:29.999Z</time></trkpt><trkpt lat="44.137400023998886" lon="11.087842982480593"><ele>756.5</ele><time>2026-04-04T09:32:30.999Z</time></trkpt><trkpt lat="44.13732194908128" lon="11.087707289117114"><ele>755.0</ele><time>2026-04-04T09:32:31.999Z</time></trkpt><trkpt lat="44.13721462110641" lon="11.087600944392067"><ele>753.5</ele><time>2026-04-04T09:32:32.999Z</time></trkpt><trkpt lat="44.13710445770501" lon="11.087505388769245"><ele>752.0</ele><time>2026-04-04T09:32:33.999Z</time></trkpt><trkpt lat="44.137000554175444" lon="11.087396512373015"><ele>750.75</ele><time>2026-04-04T09:32:34.999Z</time></trkpt><trkpt lat="44.13688485004249" lon="11.087303570251418"><ele>749.5</ele><time>2026-04-04T09:32:35.999Z</time></trkpt><trkpt lat="44.13676796807701" lon="11.08721377150279"><ele>748.25</ele><time>2026-04-04T09:32:36.999Z</time></trkpt><trkpt lat="44.13664707589772" lon="11.087146714652082"><ele>747.0</ele><time>2026-04-04T09:32:37.999Z</time></trkpt><trkpt lat="44.136533965806805" lon="11.087062401818276"><ele>745.5</ele><time>2026-04-04T09:32:38.999Z</time></trkpt><trkpt lat="44.13641696681953" lon="11.086989003573242"><ele>744.0</ele><time>2026-04-04T09:32:39.999Z</time></trkpt><trkpt lat="44.136295495008426" lon="11.086947279192572"><ele>742.5</ele><time>2026-04-04T09:32:40.999Z</time></trkpt><trkpt lat="44.136166138190504" lon="11.086948931921247"><ele>741.0</ele><time>2026-04-04T09:32:41.999Z</time></trkpt><trkpt lat="44.13604470082749" lon="11.086936222708909"><ele>741.0</ele><time>2026-04-04T09:32:42.999Z</time></trkpt><trkpt lat="44.13593956037798" lon="11.08694131925325"><ele>741.0</ele><time>2026-04-04T09:32:43.999Z</time></trkpt><trkpt lat="44.13584497129401" lon="11.086961671840346"><ele>741.0</ele><time>2026-04-04T09:32:44.999Z</time></trkpt><trkpt lat="44.135762607240444" lon="11.08698711339354"><ele>741.0</ele><time>2026-04-04T09:32:45.999Z</time></trkpt><trkpt lat="44.13567371373395" lon="11.08704315271681"><ele>741.0</ele><time>2026-04-04T09:32:46.999Z</time></trkpt><trkpt lat="44.13559674574713" lon="11.087159058438468"><ele>741.75</ele><time>2026-04-04T09:32:47.999Z</time></trkpt><trkpt lat="44.135515807603745" lon="11.087284032924787"><ele>742.5</ele><time>2026-04-04T09:32:48.999Z</time></trkpt><trkpt lat="44.1354267396878" lon="11.08741322029094"><ele>743.25</ele><time>2026-04-04T09:32:50Z</time></trkpt><trkpt lat="44.1353468578113" lon="11.087500869555535"><ele>744.0</ele><time>2026-04-04T09:32:51Z</time></trkpt><trkpt lat="44.13525970839874" lon="11.087580248301688"><ele>744.0</ele><time>2026-04-04T09:32:52Z</time></trkpt><trkpt lat="44.13517274051245" lon="11.087648005072234"><ele>744.0</ele><time>2026-04-04T09:32:53Z</time></trkpt><trkpt lat="44.13508847934468" lon="11.08769226919294"><ele>744.0</ele><time>2026-04-04T09:32:54Z</time></trkpt><trkpt lat="44.13499999702631" lon="11.087721693665625"><ele>744.0</ele><time>2026-04-04T09:32:55Z</time></trkpt><trkpt lat="44.134929988198124" lon="11.087693110929761"><ele>744.0</ele><time>2026-04-04T09:32:56Z</time></trkpt><trkpt lat="44.13486416271188" lon="11.087640882479327"><ele>744.0</ele><time>2026-04-04T09:32:57Z</time></trkpt><trkpt lat="44.134839361286666" lon="11.087517138847707"><ele>743.0</ele><time>2026-04-04T09:32:58Z</time></trkpt><trkpt lat="44.134844266128574" lon="11.087383096613154"><ele>742.0</ele><time>2026-04-04T09:32:59Z</time></trkpt><trkpt lat="44.13486823171554" lon="11.08724220327902"><ele>741.0</ele><time>2026-04-04T09:33:00Z</time></trkpt><trkpt lat="44.134893837858534" lon="11.087115728025825"><ele>740.0</ele><time>2026-04-04T09:33:01Z</time></trkpt><trkpt lat="44.13489630931579" lon="11.086996750252737"><ele>739.0</ele><time>2026-04-04T09:33:02Z</time></trkpt><trkpt lat="44.13488477135589" lon="11.086891510156454"><ele>739.0</ele><time>2026-04-04T09:33:03Z</time></trkpt><trkpt lat="44.13485459995133" lon="11.086806358412703"><ele>739.0</ele><time>2026-04-04T09:33:04Z</time></trkpt><trkpt lat="44.13480042347133" lon="11.086693980508414"><ele>739.0</ele><time>2026-04-04T09:33:05Z</time></trkpt><trkpt lat="44.134727228873174" lon="11.086576887000822"><ele>739.0</ele><time>2026-04-04T09:33:06Z</time></trkpt><trkpt lat="44.134655215859006" lon="11.08646697334507"><ele>739.0</ele><time>2026-04-04T09:33:07Z</time></trkpt><trkpt lat="44.13457624549946" lon="11.086379241072123"><ele>736.8000000000001</ele><time>2026-04-04T09:33:08Z</time></trkpt><trkpt lat="44.134495117943835" lon="11.08632998912249"><ele>734.6</ele><time>2026-04-04T09:33:09Z</time></trkpt><trkpt lat="44.13442636302265" lon="11.08626186344312"><ele>732.4</ele><time>2026-04-04T09:33:10Z</time></trkpt><trkpt lat="44.134317355249365" lon="11.086261349451028"><ele>730.2</ele><time>2026-04-04T09:33:11Z</time></trkpt><trkpt lat="44.1341862630338" lon="11.086290867899345"><ele>728.0</ele><time>2026-04-04T09:33:12Z</time></trkpt><trkpt lat="44.134047108801035" lon="11.0862977819428"><ele>727.3333333333333</ele><time>2026-04-04T09:33:13Z</time></trkpt><trkpt lat="44.13389357166751" lon="11.086217053651485"><ele>726.6666666666666</ele><time>2026-04-04T09:33:14Z</time></trkpt><trkpt lat="44.133724221984956" lon="11.086122605730257"><ele>726.0</ele><time>2026-04-04T09:33:15Z</time></trkpt><trkpt lat="44.13354846352558" lon="11.086037183589237"><ele>726.0</ele><time>2026-04-04T09:33:16Z</time></trkpt><trkpt lat="44.13336594663977" lon="11.0859329389421"><ele>726.0</ele><time>2026-04-04T09:33:17Z</time></trkpt><trkpt lat="44.13318198400338" lon="11.085843400823855"><ele>726.0</ele><time>2026-04-04T09:33:18Z</time></trkpt><trkpt lat="44.1330196165652" lon="11.0857720284701"><ele>725.25</ele><time>2026-04-04T09:33:19Z</time></trkpt><trkpt lat="44.132877001116405" lon="11.085721201788525"><ele>724.5</ele><time>2026-04-04T09:33:20Z</time></trkpt><trkpt lat="44.13275148845382" lon="11.085683945747277"><ele>723.75</ele><time>2026-04-04T09:33:21Z</time></trkpt><trkpt lat="44.13264430667498" lon="11.085660614500455"><ele>723.0</ele><time>2026-04-04T09:33:22Z</time></trkpt><trkpt lat="44.13257087824216" lon="11.085614602507652"><ele>723.0</ele><time>2026-04-04T09:33:23Z</time></trkpt><trkpt lat="44.13248521365566" lon="11.085483456320697"><ele>723.0</ele><time>2026-04-04T09:33:25Z</time></trkpt><trkpt lat="44.132470635696855" lon="11.085347187022913"><ele>723.0</ele><time>2026-04-04T09:33:26Z</time></trkpt><trkpt lat="44.13242339513479" lon="11.085201053761272"><ele>723.0</ele><time>2026-04-04T09:33:27Z</time></trkpt><trkpt lat="44.13234569318463" lon="11.085048583322706"><ele>721.0</ele><time>2026-04-04T09:33:28Z</time></trkpt><trkpt lat="44.13224472007762" lon="11.08491414123152"><ele>719.0</ele><time>2026-04-04T09:33:29Z</time></trkpt><trkpt lat="44.13213905573408" lon="11.084792599253923"><ele>717.0</ele><time>2026-04-04T09:33:30Z</time></trkpt><trkpt lat="44.13205170347004" lon="11.08471402064624"><ele>715.0</ele><time>2026-04-04T09:33:31Z</time></trkpt><trkpt lat="44.13198598441571" lon="11.084667375816833"><ele>715.0</ele><time>2026-04-04T09:33:32Z</time></trkpt><trkpt lat="44.13189938258321" lon="11.084611583227982"><ele>715.0</ele><time>2026-04-04T09:33:34Z</time></trkpt><trkpt lat="44.13180963649734" lon="11.084605364300739"><ele>715.0</ele><time>2026-04-04T09:33:36Z</time></trkpt><trkpt lat="44.13171760497926" lon="11.084650714529335"><ele>715.0</ele><time>2026-04-04T09:33:38Z</time></trkpt><trkpt lat="44.131627978295604" lon="11.084695563830907"><ele>715.0</ele><time>2026-04-04T09:33:40Z</time></trkpt><trkpt lat="44.131534291980216" lon="11.084745183116555"><ele>715.4</ele><time>2026-04-04T09:33:42Z</time></trkpt><trkpt lat="44.131416739810135" lon="11.08480883192853"><ele>715.8</ele><time>2026-04-04T09:33:44Z</time></trkpt><trkpt lat="44.13134726534781" lon="11.084840786254778"><ele>716.2</ele><time>2026-04-04T09:33:45Z</time></trkpt><trkpt lat="44.13126432430607" lon="11.084867805806102"><ele>716.6</ele><time>2026-04-04T09:33:46Z</time></trkpt><trkpt lat="44.13118073253263" lon="11.084873617743261"><ele>717.0</ele><time>2026-04-04T09:33:47Z</time></trkpt><trkpt lat="44.131098011055165" lon="11.084865479826037"><ele>717.0</ele><time>2026-04-04T09:33:48Z</time></trkpt><trkpt lat="44.131019495328204" lon="11.084846708844998"><ele>717.0</ele><time>2026-04-04T09:33:49Z</time></trkpt><trkpt lat="44.130940423430104" lon="11.084816706745668"><ele>717.0</ele><time>2026-04-04T09:33:50Z</time></trkpt><trkpt lat="44.130866989899076" lon="11.084790624992406"><ele>717.0</ele><time>2026-04-04T09:33:51Z</time></trkpt><trkpt lat="44.13079048281646" lon="11.084787319398064"><ele>717.0</ele><time>2026-04-04T09:33:52Z</time></trkpt><trkpt lat="44.1307255882193" lon="11.084768002626479"><ele>717.0</ele><time>2026-04-04T09:33:53Z</time></trkpt><trkpt lat="44.13063875544691" lon="11.084731808742806"><ele>717.0</ele><time>2026-04-04T09:33:55Z</time></trkpt><trkpt lat="44.13067921879905" lon="11.084835420763293"><ele>717.0</ele><time>2026-04-04T09:34:01Z</time></trkpt><trkpt lat="44.1308027584392" lon="11.084816416604406"><ele>717.0</ele><time>2026-04-04T09:34:03Z</time></trkpt><trkpt lat="44.13087288173674" lon="11.084830235337526"><ele>717.0</ele><time>2026-04-04T09:34:04Z</time></trkpt><trkpt lat="44.13094199170626" lon="11.084859799348525"><ele>717.0</ele><time>2026-04-04T09:34:05Z</time></trkpt><trkpt lat="44.13102347112767" lon="11.084886278655642"><ele>717.0</ele><time>2026-04-04T09:34:06Z</time></trkpt><trkpt lat="44.1311019990803" lon="11.084913348575716"><ele>717.0</ele><time>2026-04-04T09:34:06.999Z</time></trkpt><trkpt lat="44.13119705079405" lon="11.084924338942436"><ele>717.0</ele><time>2026-04-04T09:34:07.999Z</time></trkpt><trkpt lat="44.13130196515477" lon="11.08491718654825"><ele>717.0</ele><time>2026-04-04T09:34:08.999Z</time></trkpt><trkpt lat="44.13140813485588" lon="11.084881061868046"><ele>717.0</ele><time>2026-04-04T09:34:09.999Z</time></trkpt><trkpt lat="44.13152062070657" lon="11.08481169561281"><ele>717.0</ele><time>2026-04-04T09:34:10.999Z</time></trkpt><trkpt lat="44.13164225087955" lon="11.084739181110928"><ele>716.6</ele><time>2026-04-04T09:34:11.999Z</time></trkpt><trkpt lat="44.13175267916258" lon="11.084679675093891"><ele>716.2</ele><time>2026-04-04T09:34:12.999Z</time></trkpt><trkpt lat="44.13184615383425" lon="11.08464640297192"><ele>715.8</ele><time>2026-04-04T09:34:13.999Z</time></trkpt><trkpt lat="44.13192886662276" lon="11.084651257456262"><ele>715.4</ele><time>2026-04-04T09:34:14.999Z</time></trkpt><trkpt lat="44.13201161740081" lon="11.084710884074257"><ele>715.0</ele><time>2026-04-04T09:34:15.999Z</time></trkpt><trkpt lat="44.13211371909436" lon="11.084820353032628"><ele>717.6666666666667</ele><time>2026-04-04T09:34:16.999Z</time></trkpt><trkpt lat="44.13223480569641" lon="11.084964768127923"><ele>720.3333333333334</ele><time>2026-04-04T09:34:17.999Z</time></trkpt><trkpt lat="44.13235484807966" lon="11.08512733871654"><ele>723.0</ele><time>2026-04-04T09:34:18.999Z</time></trkpt><trkpt lat="44.13242401242477" lon="11.085308719816178"><ele>723.0</ele><time>2026-04-04T09:34:19.999Z</time></trkpt><trkpt lat="44.13246350429172" lon="11.085472552296888"><ele>723.0</ele><time>2026-04-04T09:34:20.999Z</time></trkpt><trkpt lat="44.13250497964315" lon="11.085586052634602"><ele>723.0</ele><time>2026-04-04T09:34:21.999Z</time></trkpt><trkpt lat="44.13253765438782" lon="11.08566562137991"><ele>723.0</ele><time>2026-04-04T09:34:22.999Z</time></trkpt><trkpt lat="44.13260943326803" lon="11.085695603741597"><ele>723.0</ele><time>2026-04-04T09:34:23.999Z</time></trkpt><trkpt lat="44.13271674115556" lon="11.085706990274975"><ele>723.0</ele><time>2026-04-04T09:34:24.999Z</time></trkpt><trkpt lat="44.13286898629408" lon="11.085739602454801"><ele>723.0</ele><time>2026-04-04T09:34:25.999Z</time></trkpt><trkpt lat="44.133008373561324" lon="11.085787842636455"><ele>723.0</ele><time>2026-04-04T09:34:26.999Z</time></trkpt><trkpt lat="44.13316762170355" lon="11.085864537044118"><ele>723.75</ele><time>2026-04-04T09:34:27.999Z</time></trkpt><trkpt lat="44.13331883831016" lon="11.085947495370876"><ele>724.5</ele><time>2026-04-04T09:34:28.999Z</time></trkpt><trkpt lat="44.13345714174903" lon="11.086022655017251"><ele>725.25</ele><time>2026-04-04T09:34:29.999Z</time></trkpt><trkpt lat="44.13358068763966" lon="11.086089003226872"><ele>726.0</ele><time>2026-04-04T09:34:30.999Z</time></trkpt><trkpt lat="44.13369174682511" lon="11.086155406985192"><ele>726.0</ele><time>2026-04-04T09:34:31.999Z</time></trkpt><trkpt lat="44.13380199033584" lon="11.086214171487397"><ele>726.0</ele><time>2026-04-04T09:34:32.999Z</time></trkpt><trkpt lat="44.133907483702416" lon="11.086281398512904"><ele>726.0</ele><time>2026-04-04T09:34:33.999Z</time></trkpt><trkpt lat="44.13401102085568" lon="11.086337735447886"><ele>726.0</ele><time>2026-04-04T09:34:34.999Z</time></trkpt><trkpt lat="44.134118150094366" lon="11.086373822299477"><ele>726.3333333333334</ele><time>2026-04-04T09:34:35.999Z</time></trkpt><trkpt lat="44.134230032237504" lon="11.0863637126349"><ele>726.6666666666666</ele><time>2026-04-04T09:34:36.999Z</time></trkpt><trkpt lat="44.13432824134912" lon="11.086328574646778"><ele>727.0</ele><time>2026-04-04T09:34:37.999Z</time></trkpt><trkpt lat="44.13440338228402" lon="11.086312194160197"><ele>727.3333333333333</ele><time>2026-04-04T09:34:38.999Z</time></trkpt><trkpt lat="44.13446765830898" lon="11.08633268998973"><ele>727.6666666666666</ele><time>2026-04-04T09:34:39.999Z</time></trkpt><trkpt lat="44.134524776361864" lon="11.086387375198541"><ele>728.0</ele><time>2026-04-04T09:34:40.999Z</time></trkpt><trkpt lat="44.13458040691648" lon="11.086468695269428"><ele>728.0</ele><time>2026-04-04T09:34:41.999Z</time></trkpt><trkpt lat="44.13464703614543" lon="11.086546863402202"><ele>728.0</ele><time>2026-04-04T09:34:42.999Z</time></trkpt><trkpt lat="44.13470887130023" lon="11.086622363847937"><ele>728.0</ele><time>2026-04-04T09:34:43.999Z</time></trkpt><trkpt lat="44.134755773599586" lon="11.086696089814454"><ele>728.0</ele><time>2026-04-04T09:34:44.999Z</time></trkpt><trkpt lat="44.134818177092754" lon="11.086792684967346"><ele>728.0</ele><time>2026-04-04T09:34:46.999Z</time></trkpt><trkpt lat="44.13488186982279" lon="11.086781336120868"><ele>728.0</ele><time>2026-04-04T09:34:48.999Z</time></trkpt><trkpt lat="44.134950067780714" lon="11.086644242313112"><ele>728.0</ele><time>2026-04-04T09:34:50.999Z</time></trkpt><trkpt lat="44.13498438523892" lon="11.0865530060115"><ele>728.0</ele><time>2026-04-04T09:34:51.999Z</time></trkpt><trkpt lat="44.13501346662731" lon="11.086454185363069"><ele>728.0</ele><time>2026-04-04T09:34:52.999Z</time></trkpt><trkpt lat="44.135039546291424" lon="11.08634405435169"><ele>728.0</ele><time>2026-04-04T09:34:53.999Z</time></trkpt><trkpt lat="44.13505977563491" lon="11.086227069756212"><ele>728.0</ele><time>2026-04-04T09:34:54.999Z</time></trkpt><trkpt lat="44.13507864348077" lon="11.086107069604614"><ele>728.0</ele><time>2026-04-04T09:34:56Z</time></trkpt><trkpt lat="44.135098631514836" lon="11.085980870832582"><ele>728.0</ele><time>2026-04-04T09:34:57Z</time></trkpt><trkpt lat="44.135116431363194" lon="11.085856833353333"><ele>728.0</ele><time>2026-04-04T09:34:58Z</time></trkpt><trkpt lat="44.135128936866295" lon="11.085726473158779"><ele>728.0</ele><time>2026-04-04T09:34:59Z</time></trkpt><trkpt lat="44.1351379228476" lon="11.085593810590213"><ele>728.0</ele><time>2026-04-04T09:35:00Z</time></trkpt><trkpt lat="44.13514416037815" lon="11.085471906479963"><ele>728.0</ele><time>2026-04-04T09:35:01Z</time></trkpt><trkpt lat="44.135152750704634" lon="11.08538163677802"><ele>728.0</ele><time>2026-04-04T09:35:02Z</time></trkpt><trkpt lat="44.135219704877606" lon="11.085274580059329"><ele>726.0</ele><time>2026-04-04T09:35:04Z</time></trkpt><trkpt lat="44.135288679020526" lon="11.085273861096491"><ele>724.0</ele><time>2026-04-04T09:35:05Z</time></trkpt><trkpt lat="44.13535971005089" lon="11.085305513711416"><ele>722.0</ele><time>2026-04-04T09:35:06Z</time></trkpt><trkpt lat="44.13541387444166" lon="11.085357058081433"><ele>720.0</ele><time>2026-04-04T09:35:07Z</time></trkpt><trkpt lat="44.13546887045825" lon="11.085418134942985"><ele>718.0</ele><time>2026-04-04T09:35:08Z</time></trkpt><trkpt lat="44.13554606396154" lon="11.085479471483943"><ele>716.0</ele><time>2026-04-04T09:35:09Z</time></trkpt><trkpt lat="44.13563099569265" lon="11.08553408521891"><ele>716.0</ele><time>2026-04-04T09:35:10Z</time></trkpt><trkpt lat="44.13571162059886" lon="11.085580404673436"><ele>716.0</ele><time>2026-04-04T09:35:11Z</time></trkpt><trkpt lat="44.135781593357045" lon="11.085618452941919"><ele>716.0</ele><time>2026-04-04T09:35:12Z</time></trkpt><trkpt lat="44.13584852127136" lon="11.085617752376782"><ele>716.0</ele><time>2026-04-04T09:35:13Z</time></trkpt><trkpt lat="44.13591664171338" lon="11.085572211947206"><ele>716.0</ele><time>2026-04-04T09:35:14Z</time></trkpt><trkpt lat="44.13596837534742" lon="11.085488221679714"><ele>716.0</ele><time>2026-04-04T09:35:15Z</time></trkpt><trkpt lat="44.13600092688666" lon="11.08537596654216"><ele>715.8</ele><time>2026-04-04T09:35:16Z</time></trkpt><trkpt lat="44.13602032124325" lon="11.085237471997424"><ele>715.5999999999999</ele><time>2026-04-04T09:35:17Z</time></trkpt><trkpt lat="44.136029092789656" lon="11.085087693794382"><ele>715.4</ele><time>2026-04-04T09:35:18Z</time></trkpt><trkpt lat="44.13603285481079" lon="11.084933121149897"><ele>715.2</ele><time>2026-04-04T09:35:19Z</time></trkpt><trkpt lat="44.13603792391842" lon="11.084788007379549"><ele>715.0</ele><time>2026-04-04T09:35:20Z</time></trkpt><trkpt lat="44.136046661532845" lon="11.084643551379816"><ele>714.0</ele><time>2026-04-04T09:35:21Z</time></trkpt><trkpt lat="44.13604908215809" lon="11.084497694507295"><ele>713.0</ele><time>2026-04-04T09:35:22Z</time></trkpt><trkpt lat="44.136047223760116" lon="11.084346210356127"><ele>712.0</ele><time>2026-04-04T09:35:23Z</time></trkpt><trkpt lat="44.13603823529622" lon="11.084188579623413"><ele>711.0</ele><time>2026-04-04T09:35:24Z</time></trkpt><trkpt lat="44.13602454028989" lon="11.084036677633556"><ele>710.0</ele><time>2026-04-04T09:35:25Z</time></trkpt><trkpt lat="44.136013784083545" lon="11.083898397470934"><ele>708.0</ele><time>2026-04-04T09:35:26Z</time></trkpt><trkpt lat="44.13601690706872" lon="11.083760659850094"><ele>706.0</ele><time>2026-04-04T09:35:27Z</time></trkpt><trkpt lat="44.13605965528161" lon="11.083644896264992"><ele>704.0</ele><time>2026-04-04T09:35:28Z</time></trkpt><trkpt lat="44.13609700976675" lon="11.083542468993995"><ele>702.0</ele><time>2026-04-04T09:35:29Z</time></trkpt><trkpt lat="44.13616132524498" lon="11.083437147080096"><ele>700.0</ele><time>2026-04-04T09:35:30Z</time></trkpt><trkpt lat="44.136207456127806" lon="11.083323752511118"><ele>697.4</ele><time>2026-04-04T09:35:31Z</time></trkpt><trkpt lat="44.1362528508409" lon="11.0832121673398"><ele>694.8</ele><time>2026-04-04T09:35:32Z</time></trkpt><trkpt lat="44.136287474084014" lon="11.08308750836242"><ele>692.2</ele><time>2026-04-04T09:35:33Z</time></trkpt><trkpt lat="44.13628506498651" lon="11.082958402826456"><ele>689.6</ele><time>2026-04-04T09:35:34Z</time></trkpt><trkpt lat="44.136291420036976" lon="11.082840556899468"><ele>687.0</ele><time>2026-04-04T09:35:35Z</time></trkpt><trkpt lat="44.13624773396202" lon="11.082732125242794"><ele>687.0</ele><time>2026-04-04T09:35:36Z</time></trkpt><trkpt lat="44.1361709809805" lon="11.082669364385454"><ele>687.0</ele><time>2026-04-04T09:35:37Z</time></trkpt><trkpt lat="44.13610929309406" lon="11.082570906546064"><ele>687.0</ele><time>2026-04-04T09:35:38Z</time></trkpt><trkpt lat="44.13604834250942" lon="11.082470852908433"><ele>687.0</ele><time>2026-04-04T09:35:39Z</time></trkpt><trkpt lat="44.13598300412245" lon="11.082335076312763"><ele>687.0</ele><time>2026-04-04T09:35:40Z</time></trkpt><trkpt lat="44.135930912699365" lon="11.082179851864629"><ele>685.1666666666666</ele><time>2026-04-04T09:35:41Z</time></trkpt><trkpt lat="44.13588269993971" lon="11.0820137562361"><ele>683.3333333333334</ele><time>2026-04-04T09:35:43Z</time></trkpt><trkpt lat="44.13586363989567" lon="11.081894474942253"><ele>681.5</ele><time>2026-04-04T09:35:44Z</time></trkpt><trkpt lat="44.13587914473677" lon="11.081796562966103"><ele>679.6666666666667</ele><time>2026-04-04T09:35:45Z</time></trkpt><trkpt lat="44.13590163088109" lon="11.081700684149396"><ele>677.8333333333334</ele><time>2026-04-04T09:35:46Z</time></trkpt><trkpt lat="44.13594401694856" lon="11.081609684480792"><ele>676.0</ele><time>2026-04-04T09:35:47Z</time></trkpt><trkpt lat="44.1359503618448" lon="11.081516087452627"><ele>674.5999999999999</ele><time>2026-04-04T09:35:48Z</time></trkpt><trkpt lat="44.13590600726407" lon="11.081440062347871"><ele>673.2</ele><time>2026-04-04T09:35:49Z</time></trkpt><trkpt lat="44.13585216583843" lon="11.081392634253802"><ele>671.8</ele><time>2026-04-04T09:35:50Z</time></trkpt><trkpt lat="44.13580675597974" lon="11.081291797164152"><ele>670.4000000000001</ele><time>2026-04-04T09:35:52Z</time></trkpt><trkpt lat="44.135737189267566" lon="11.08119372807426"><ele>669.0</ele><time>2026-04-04T09:35:54Z</time></trkpt><trkpt lat="44.13566400914688" lon="11.081038707092308"><ele>668.0</ele><time>2026-04-04T09:35:56Z</time></trkpt><trkpt lat="44.13567640330487" lon="11.080926331093176"><ele>667.0</ele><time>2026-04-04T09:35:57Z</time></trkpt><trkpt lat="44.13570961037798" lon="11.080822682690945"><ele>666.0</ele><time>2026-04-04T09:35:58Z</time></trkpt><trkpt lat="44.13575676565646" lon="11.080707036527672"><ele>665.0</ele><time>2026-04-04T09:35:59Z</time></trkpt><trkpt lat="44.13581205015189" lon="11.080594445842737"><ele>664.0</ele><time>2026-04-04T09:36:00Z</time></trkpt><trkpt lat="44.13586530768527" lon="11.08048259195854"><ele>663.5</ele><time>2026-04-04T09:36:01Z</time></trkpt><trkpt lat="44.13592147734493" lon="11.08037387256111"><ele>663.0</ele><time>2026-04-04T09:36:02Z</time></trkpt><trkpt lat="44.13598450440449" lon="11.080278944121252"><ele>662.5</ele><time>2026-04-04T09:36:03Z</time></trkpt><trkpt lat="44.13604025363894" lon="11.08018245891162"><ele>662.0</ele><time>2026-04-04T09:36:04Z</time></trkpt><trkpt lat="44.13605698536301" lon="11.080094949880207"><ele>661.5</ele><time>2026-04-04T09:36:04.999Z</time></trkpt><trkpt lat="44.13605521502332" lon="11.079979965532376"><ele>661.0</ele><time>2026-04-04T09:36:05.999Z</time></trkpt><trkpt lat="44.13603073362763" lon="11.079888568977646"><ele>659.6666666666667</ele><time>2026-04-04T09:36:06.999Z</time></trkpt><trkpt lat="44.136001965783926" lon="11.079785661544697"><ele>658.3333333333334</ele><time>2026-04-04T09:36:07.999Z</time></trkpt><trkpt lat="44.13594545392778" lon="11.079700986733183"><ele>657.0</ele><time>2026-04-04T09:36:08.999Z</time></trkpt><trkpt lat="44.135889613966576" lon="11.079625320979321"><ele>655.6666666666666</ele><time>2026-04-04T09:36:09.999Z</time></trkpt><trkpt lat="44.13583641577117" lon="11.079558217810003"><ele>654.3333333333333</ele><time>2026-04-04T09:36:10.999Z</time></trkpt><trkpt lat="44.1357740171557" lon="11.079497335824945"><ele>653.0</ele><time>2026-04-04T09:36:11.999Z</time></trkpt><trkpt lat="44.13570534737298" lon="11.079436235320761"><ele>652.5</ele><time>2026-04-04T09:36:12.999Z</time></trkpt><trkpt lat="44.135642589983185" lon="11.079382304986751"><ele>652.0</ele><time>2026-04-04T09:36:13.999Z</time></trkpt><trkpt lat="44.13555904985148" lon="11.079337918657107"><ele>651.5</ele><time>2026-04-04T09:36:14.999Z</time></trkpt><trkpt lat="44.135492088687776" lon="11.079276311101278"><ele>651.0</ele><time>2026-04-04T09:36:15.999Z</time></trkpt><trkpt lat="44.13543461106374" lon="11.079221231955195"><ele>650.5</ele><time>2026-04-04T09:36:16.999Z</time></trkpt><trkpt lat="44.135388488083294" lon="11.079159642527804"><ele>650.0</ele><time>2026-04-04T09:36:18.999Z</time></trkpt><trkpt lat="44.1354259223832" lon="11.079013315361674"><ele>648.5</ele><time>2026-04-04T09:36:22.999Z</time></trkpt><trkpt lat="44.13547404102131" lon="11.078952921261179"><ele>647.0</ele><time>2026-04-04T09:36:23.999Z</time></trkpt><trkpt lat="44.13552350088407" lon="11.078883000814626"><ele>645.5</ele><time>2026-04-04T09:36:24.999Z</time></trkpt><trkpt lat="44.135577396183216" lon="11.078814644948833"><ele>644.0</ele><time>2026-04-04T09:36:25.999Z</time></trkpt><trkpt lat="44.13565560627194" lon="11.078780075843367"><ele>642.5</ele><time>2026-04-04T09:36:26.999Z</time></trkpt><trkpt lat="44.13574276585288" lon="11.078772995279746"><ele>641.0</ele><time>2026-04-04T09:36:27.999Z</time></trkpt><trkpt lat="44.135839419158245" lon="11.078751957480403"><ele>641.0</ele><time>2026-04-04T09:36:28.999Z</time></trkpt><trkpt lat="44.13593964148435" lon="11.078724006554017"><ele>641.0</ele><time>2026-04-04T09:36:29.999Z</time></trkpt><trkpt lat="44.136052382006824" lon="11.07868079923982"><ele>641.0</ele><time>2026-04-04T09:36:30.999Z</time></trkpt><trkpt lat="44.13616785412016" lon="11.078613143049079"><ele>641.0</ele><time>2026-04-04T09:36:31.999Z</time></trkpt><trkpt lat="44.136283655108535" lon="11.07852639648818"><ele>641.0</ele><time>2026-04-04T09:36:32.999Z</time></trkpt><trkpt lat="44.136396589269204" lon="11.078426081566004"><ele>641.0</ele><time>2026-04-04T09:36:33.999Z</time></trkpt><trkpt lat="44.136506857458116" lon="11.078333645515679"><ele>641.0</ele><time>2026-04-04T09:36:34.999Z</time></trkpt><trkpt lat="44.136602866777395" lon="11.078247067550716"><ele>641.0</ele><time>2026-04-04T09:36:35.999Z</time></trkpt><trkpt lat="44.13668144169266" lon="11.07816401641448"><ele>638.0</ele><time>2026-04-04T09:36:36.999Z</time></trkpt><trkpt lat="44.136747096482885" lon="11.078085248736468"><ele>635.0</ele><time>2026-04-04T09:36:37.999Z</time></trkpt><trkpt lat="44.1368059754328" lon="11.077978149288755"><ele>632.0</ele><time>2026-04-04T09:36:38.999Z</time></trkpt><trkpt lat="44.13684361063068" lon="11.077861317128866"><ele>629.0</ele><time>2026-04-04T09:36:39.999Z</time></trkpt><trkpt lat="44.13686711531981" lon="11.077721884530815"><ele>626.0</ele><time>2026-04-04T09:36:40.999Z</time></trkpt><trkpt lat="44.136892490526485" lon="11.077581047366236"><ele>626.0</ele><time>2026-04-04T09:36:41.999Z</time></trkpt><trkpt lat="44.136917321994886" lon="11.077476734809391"><ele>626.0</ele><time>2026-04-04T09:36:42.999Z</time></trkpt><trkpt lat="44.136953959265874" lon="11.077374351534086"><ele>626.0</ele><time>2026-04-04T09:36:43.999Z</time></trkpt><trkpt lat="44.137010350064315" lon="11.077293497796857"><ele>626.0</ele><time>2026-04-04T09:36:44.999Z</time></trkpt><trkpt lat="44.137083036201375" lon="11.077244882084335"><ele>626.0</ele><time>2026-04-04T09:36:45.999Z</time></trkpt><trkpt lat="44.13717195856352" lon="11.077227323219805"><ele>626.0</ele><time>2026-04-04T09:36:46.999Z</time></trkpt><trkpt lat="44.13726286556148" lon="11.077223732422667"><ele>623.8</ele><time>2026-04-04T09:36:47.999Z</time></trkpt><trkpt lat="44.137357892237326" lon="11.077203951937857"><ele>621.6</ele><time>2026-04-04T09:36:48.999Z</time></trkpt><trkpt lat="44.13744445338183" lon="11.077142940331946"><ele>619.4</ele><time>2026-04-04T09:36:49.999Z</time></trkpt><trkpt lat="44.137514808233824" lon="11.077037112341708"><ele>617.2</ele><time>2026-04-04T09:36:50.999Z</time></trkpt><trkpt lat="44.13757188710341" lon="11.076913597360853"><ele>615.0</ele><time>2026-04-04T09:36:51.999Z</time></trkpt><trkpt lat="44.137636064295805" lon="11.076782053421736"><ele>615.0</ele><time>2026-04-04T09:36:52.999Z</time></trkpt><trkpt lat="44.137714102139874" lon="11.076642080460587"><ele>615.0</ele><time>2026-04-04T09:36:53.999Z</time></trkpt><trkpt lat="44.137791146380025" lon="11.07651079175065"><ele>615.0</ele><time>2026-04-04T09:36:54.999Z</time></trkpt><trkpt lat="44.13787054239684" lon="11.07638232429867"><ele>615.0</ele><time>2026-04-04T09:36:55.999Z</time></trkpt><trkpt lat="44.1379377019218" lon="11.076295172991498"><ele>614.0</ele><time>2026-04-04T09:36:56.999Z</time></trkpt><trkpt lat="44.13801955634242" lon="11.07621523526081"><ele>613.0</ele><time>2026-04-04T09:36:57.999Z</time></trkpt><trkpt lat="44.13811264833962" lon="11.076157573648391"><ele>612.0</ele><time>2026-04-04T09:36:58.999Z</time></trkpt><trkpt lat="44.13820243442268" lon="11.076103080051302"><ele>611.0</ele><time>2026-04-04T09:36:59.999Z</time></trkpt><trkpt lat="44.138269210010726" lon="11.076056155190042"><ele>610.0</ele><time>2026-04-04T09:37:00.999Z</time></trkpt><trkpt lat="44.13835422261071" lon="11.075999041075072"><ele>610.0</ele><time>2026-04-04T09:37:03Z</time></trkpt><trkpt lat="44.13840449967984" lon="11.075910031466849"><ele>610.0</ele><time>2026-04-04T09:37:05Z</time></trkpt><trkpt lat="44.138392948861885" lon="11.075823556412937"><ele>610.0</ele><time>2026-04-04T09:37:06Z</time></trkpt><trkpt lat="44.138362792791675" lon="11.075730145335335"><ele>610.0</ele><time>2026-04-04T09:37:07Z</time></trkpt><trkpt lat="44.13833757948044" lon="11.075625015402503"><ele>610.0</ele><time>2026-04-04T09:37:08Z</time></trkpt><trkpt lat="44.138318761109296" lon="11.075511534839396"><ele>610.0</ele><time>2026-04-04T09:37:09Z</time></trkpt><trkpt lat="44.13831633351373" lon="11.075397455304117"><ele>608.6</ele><time>2026-04-04T09:37:10Z</time></trkpt><trkpt lat="44.13833275223182" lon="11.075285629810423"><ele>607.2</ele><time>2026-04-04T09:37:11Z</time></trkpt><trkpt lat="44.13837636722754" lon="11.075139842597466"><ele>605.8</ele><time>2026-04-04T09:37:12Z</time></trkpt><trkpt lat="44.13841783267601" lon="11.07499147948139"><ele>604.4</ele><time>2026-04-04T09:37:13Z</time></trkpt><trkpt lat="44.138439936695995" lon="11.074847555552761"><ele>603.0</ele><time>2026-04-04T09:37:14Z</time></trkpt><trkpt lat="44.13845070868023" lon="11.074704602477441"><ele>600.6</ele><time>2026-04-04T09:37:15Z</time></trkpt><trkpt lat="44.13846632173306" lon="11.074565761598134"><ele>598.1999999999999</ele><time>2026-04-04T09:37:16Z</time></trkpt><trkpt lat="44.138493699605114" lon="11.074416034351213"><ele>595.8</ele><time>2026-04-04T09:37:17Z</time></trkpt><trkpt lat="44.13852389906628" lon="11.074261411757645"><ele>593.4</ele><time>2026-04-04T09:37:18Z</time></trkpt><trkpt lat="44.1385530602371" lon="11.074112634257938"><ele>591.0</ele><time>2026-04-04T09:37:19Z</time></trkpt><trkpt lat="44.1385945086721" lon="11.073957721294633"><ele>588.25</ele><time>2026-04-04T09:37:20Z</time></trkpt><trkpt lat="44.13865439255071" lon="11.073797655920446"><ele>585.5</ele><time>2026-04-04T09:37:21Z</time></trkpt><trkpt lat="44.13871610455111" lon="11.073646402380312"><ele>582.75</ele><time>2026-04-04T09:37:22Z</time></trkpt><trkpt lat="44.138765440378336" lon="11.073488614919187"><ele>580.0</ele><time>2026-04-04T09:37:23Z</time></trkpt><trkpt lat="44.1387996675035" lon="11.07332767889473"><ele>578.6</ele><time>2026-04-04T09:37:24Z</time></trkpt><trkpt lat="44.13883460742601" lon="11.073163254726458"><ele>577.2</ele><time>2026-04-04T09:37:25Z</time></trkpt><trkpt lat="44.138881436109706" lon="11.07301992643646"><ele>575.8</ele><time>2026-04-04T09:37:26Z</time></trkpt><trkpt lat="44.1389447527013" lon="11.072901995175993"><ele>574.4</ele><time>2026-04-04T09:37:27Z</time></trkpt><trkpt lat="44.13901717118256" lon="11.072800074196296"><ele>573.0</ele><time>2026-04-04T09:37:28Z</time></trkpt><trkpt lat="44.139099296167394" lon="11.07270924873311"><ele>573.0</ele><time>2026-04-04T09:37:29Z</time></trkpt><trkpt lat="44.13917568164047" lon="11.072646441374243"><ele>573.0</ele><time>2026-04-04T09:37:30Z</time></trkpt><trkpt lat="44.13925783506304" lon="11.072560296478535"><ele>573.0</ele><time>2026-04-04T09:37:31Z</time></trkpt><trkpt lat="44.13933947898387" lon="11.072460135692046"><ele>573.0</ele><time>2026-04-04T09:37:32Z</time></trkpt><trkpt lat="44.1394003263824" lon="11.072350705731195"><ele>573.0</ele><time>2026-04-04T09:37:33Z</time></trkpt><trkpt lat="44.13944063906375" lon="11.0722354351819"><ele>571.5</ele><time>2026-04-04T09:37:34Z</time></trkpt><trkpt lat="44.139464949798295" lon="11.0721048404321"><ele>570.0</ele><time>2026-04-04T09:37:35Z</time></trkpt><trkpt lat="44.139477176309576" lon="11.071946375455846"><ele>568.5</ele><time>2026-04-04T09:37:36Z</time></trkpt><trkpt lat="44.13948825992868" lon="11.071772396684024"><ele>567.0</ele><time>2026-04-04T09:37:37Z</time></trkpt><trkpt lat="44.139504601204" lon="11.071582105554715"><ele>565.0</ele><time>2026-04-04T09:37:38Z</time></trkpt><trkpt lat="44.13952267858578" lon="11.071428949376093"><ele>563.0</ele><time>2026-04-04T09:37:39Z</time></trkpt><trkpt lat="44.13953811544737" lon="11.071273021831196"><ele>561.0</ele><time>2026-04-04T09:37:40Z</time></trkpt><trkpt lat="44.13955198431758" lon="11.071108550846821"><ele>559.0</ele><time>2026-04-04T09:37:41Z</time></trkpt><trkpt lat="44.139550174476724" lon="11.070955298874331"><ele>559.0</ele><time>2026-04-04T09:37:42Z</time></trkpt><trkpt lat="44.139535121406816" lon="11.070811632878254"><ele>559.0</ele><time>2026-04-04T09:37:43Z</time></trkpt><trkpt lat="44.13951611423951" lon="11.070667388420846"><ele>559.0</ele><time>2026-04-04T09:37:44Z</time></trkpt><trkpt lat="44.139499645274995" lon="11.070515885676478"><ele>559.0</ele><time>2026-04-04T09:37:45Z</time></trkpt><trkpt lat="44.13948932631518" lon="11.070354663119382"><ele>559.0</ele><time>2026-04-04T09:37:46Z</time></trkpt><trkpt lat="44.13948435004181" lon="11.07019504970906"><ele>556.25</ele><time>2026-04-04T09:37:47Z</time></trkpt><trkpt lat="44.13949385683653" lon="11.070039342363652"><ele>553.5</ele><time>2026-04-04T09:37:48Z</time></trkpt><trkpt lat="44.13952505086828" lon="11.069882945456003"><ele>550.75</ele><time>2026-04-04T09:37:49Z</time></trkpt><trkpt lat="44.1395737349399" lon="11.069729530348225"><ele>548.0</ele><time>2026-04-04T09:37:50Z</time></trkpt><trkpt lat="44.13962153790437" lon="11.06955275662748"><ele>545.25</ele><time>2026-04-04T09:37:51Z</time></trkpt><trkpt lat="44.13965220318471" lon="11.06936943606147"><ele>542.5</ele><time>2026-04-04T09:37:52Z</time></trkpt><trkpt lat="44.139680101118444" lon="11.0691779603973"><ele>539.75</ele><time>2026-04-04T09:37:53Z</time></trkpt><trkpt lat="44.13970640034021" lon="11.068980375286648"><ele>537.0</ele><time>2026-04-04T09:37:54Z</time></trkpt><trkpt lat="44.13972780244441" lon="11.068782284738566"><ele>535.0</ele><time>2026-04-04T09:37:55Z</time></trkpt><trkpt lat="44.139747850531" lon="11.068588751433076"><ele>533.0</ele><time>2026-04-04T09:37:56Z</time></trkpt><trkpt lat="44.139766601036754" lon="11.068406682834278"><ele>531.0</ele><time>2026-04-04T09:37:57Z</time></trkpt><trkpt lat="44.13978385604127" lon="11.068239723432338"><ele>529.0</ele><time>2026-04-04T09:37:58Z</time></trkpt><trkpt lat="44.139795258148155" lon="11.06807959112352"><ele>526.75</ele><time>2026-04-04T09:37:59Z</time></trkpt><trkpt lat="44.139793812989105" lon="11.067926959745293"><ele>524.5</ele><time>2026-04-04T09:38:00Z</time></trkpt><trkpt lat="44.13977529590938" lon="11.06777306225003"><ele>522.25</ele><time>2026-04-04T09:38:01Z</time></trkpt><trkpt lat="44.1397397000882" lon="11.067619539824546"><ele>520.0</ele><time>2026-04-04T09:38:02Z</time></trkpt><trkpt lat="44.13969385302532" lon="11.067469093472305"><ele>518.0</ele><time>2026-04-04T09:38:03Z</time></trkpt><trkpt lat="44.13965326386339" lon="11.067316550414786"><ele>516.0</ele><time>2026-04-04T09:38:03.999Z</time></trkpt><trkpt lat="44.13963242990196" lon="11.067170251914224"><ele>514.0</ele><time>2026-04-04T09:38:04.999Z</time></trkpt><trkpt lat="44.13962637088817" lon="11.06699991469281"><ele>512.0</ele><time>2026-04-04T09:38:05.999Z</time></trkpt><trkpt lat="44.139633093512714" lon="11.066813251309627"><ele>512.0</ele><time>2026-04-04T09:38:06.999Z</time></trkpt><trkpt lat="44.139640964878126" lon="11.066614508478821"><ele>512.0</ele><time>2026-04-04T09:38:07.999Z</time></trkpt><trkpt lat="44.139644414384755" lon="11.066404551529422"><ele>512.0</ele><time>2026-04-04T09:38:08.999Z</time></trkpt><trkpt lat="44.13963492626585" lon="11.06618892808948"><ele>512.0</ele><time>2026-04-04T09:38:09.999Z</time></trkpt><trkpt lat="44.13961694790798" lon="11.065986166001796"><ele>511.25</ele><time>2026-04-04T09:38:10.999Z</time></trkpt><trkpt lat="44.13959530905248" lon="11.065797703713303"><ele>510.5</ele><time>2026-04-04T09:38:11.999Z</time></trkpt><trkpt lat="44.1395800295042" lon="11.065608834005966"><ele>509.75</ele><time>2026-04-04T09:38:12.999Z</time></trkpt><trkpt lat="44.139571342534246" lon="11.065435527533207"><ele>509.0</ele><time>2026-04-04T09:38:13.999Z</time></trkpt><trkpt lat="44.139564018590185" lon="11.065256042400042"><ele>508.75</ele><time>2026-04-04T09:38:14.999Z</time></trkpt><trkpt lat="44.13954907237448" lon="11.06507391698083"><ele>508.5</ele><time>2026-04-04T09:38:15.999Z</time></trkpt><trkpt lat="44.139524845193314" lon="11.064906503223968"><ele>508.25</ele><time>2026-04-04T09:38:16.999Z</time></trkpt><trkpt lat="44.139492432339395" lon="11.064732833575514"><ele>508.0</ele><time>2026-04-04T09:38:17.999Z</time></trkpt><trkpt lat="44.139457779757684" lon="11.06455870251827"><ele>507.25</ele><time>2026-04-04T09:38:18.999Z</time></trkpt><trkpt lat="44.13943723535687" lon="11.064382970834645"><ele>506.5</ele><time>2026-04-04T09:38:19.999Z</time></trkpt><trkpt lat="44.13939837414493" lon="11.064222170686898"><ele>505.75</ele><time>2026-04-04T09:38:20.999Z</time></trkpt><trkpt lat="44.13936186472266" lon="11.064076536446944"><ele>505.0</ele><time>2026-04-04T09:38:21.999Z</time></trkpt><trkpt lat="44.13933292449886" lon="11.063955811004151"><ele>504.8</ele><time>2026-04-04T09:38:22.999Z</time></trkpt><trkpt lat="44.139305563523024" lon="11.063843035423416"><ele>504.6</ele><time>2026-04-04T09:38:23.999Z</time></trkpt><trkpt lat="44.13927509874549" lon="11.06372965891983"><ele>504.4</ele><time>2026-04-04T09:38:24.999Z</time></trkpt><trkpt lat="44.1392464041114" lon="11.063607842343133"><ele>504.2</ele><time>2026-04-04T09:38:25.999Z</time></trkpt><trkpt lat="44.13921520154764" lon="11.063466897924291"><ele>504.0</ele><time>2026-04-04T09:38:26.999Z</time></trkpt><trkpt lat="44.13918428411875" lon="11.06330640566463"><ele>503.75</ele><time>2026-04-04T09:38:27.999Z</time></trkpt><trkpt lat="44.13914837310057" lon="11.063133798746314"><ele>503.5</ele><time>2026-04-04T09:38:28.999Z</time></trkpt><trkpt lat="44.13910986741744" lon="11.062981979237403"><ele>503.25</ele><time>2026-04-04T09:38:29.999Z</time></trkpt><trkpt lat="44.13907555291793" lon="11.062829812842926"><ele>503.0</ele><time>2026-04-04T09:38:30.999Z</time></trkpt><trkpt lat="44.13905315856632" lon="11.06269687890895"><ele>502.2</ele><time>2026-04-04T09:38:31.999Z</time></trkpt><trkpt lat="44.13904230468034" lon="11.06256538850721"><ele>501.4</ele><time>2026-04-04T09:38:32.999Z</time></trkpt><trkpt lat="44.1390498587528" lon="11.062434895518523"><ele>500.59999999999997</ele><time>2026-04-04T09:38:33.999Z</time></trkpt><trkpt lat="44.1390797218037" lon="11.06230532443001"><ele>499.79999999999995</ele><time>2026-04-04T09:38:34.999Z</time></trkpt><trkpt lat="44.139113083555856" lon="11.062169287630427"><ele>499.0</ele><time>2026-04-04T09:38:35.999Z</time></trkpt><trkpt lat="44.139149752485885" lon="11.062032921010458"><ele>499.0</ele><time>2026-04-04T09:38:36.999Z</time></trkpt><trkpt lat="44.13919290467208" lon="11.061901661335844"><ele>499.0</ele><time>2026-04-04T09:38:37.999Z</time></trkpt><trkpt lat="44.139232115102914" lon="11.061777275979683"><ele>499.0</ele><time>2026-04-04T09:38:38.999Z</time></trkpt><trkpt lat="44.139273780163684" lon="11.061621715510777"><ele>499.0</ele><time>2026-04-04T09:38:39.999Z</time></trkpt><trkpt lat="44.13930678796413" lon="11.061464160614802"><ele>499.0</ele><time>2026-04-04T09:38:40.999Z</time></trkpt><trkpt lat="44.1393327308" lon="11.061297769283284"><ele>497.0</ele><time>2026-04-04T09:38:41.999Z</time></trkpt><trkpt lat="44.13936034095221" lon="11.061118075122694"><ele>495.0</ele><time>2026-04-04T09:38:42.999Z</time></trkpt><trkpt lat="44.139383435272606" lon="11.06094992572764"><ele>493.0</ele><time>2026-04-04T09:38:43.999Z</time></trkpt><trkpt lat="44.13940461192246" lon="11.060781750767617"><ele>491.0</ele><time>2026-04-04T09:38:44.999Z</time></trkpt><trkpt lat="44.139424147637364" lon="11.060611039321778"><ele>489.25</ele><time>2026-04-04T09:38:45.999Z</time></trkpt><trkpt lat="44.13944756591884" lon="11.060445362202842"><ele>487.5</ele><time>2026-04-04T09:38:46.999Z</time></trkpt><trkpt lat="44.139472976411405" lon="11.06028267724391"><ele>485.75</ele><time>2026-04-04T09:38:47.999Z</time></trkpt><trkpt lat="44.13950307503282" lon="11.060095873974339"><ele>484.0</ele><time>2026-04-04T09:38:48.999Z</time></trkpt><trkpt lat="44.13952589596297" lon="11.059955837370536"><ele>482.0</ele><time>2026-04-04T09:38:49.999Z</time></trkpt><trkpt lat="44.139539956792376" lon="11.059795849960885"><ele>480.0</ele><time>2026-04-04T09:38:50.999Z</time></trkpt><trkpt lat="44.139544141283054" lon="11.059642582186486"><ele>478.0</ele><time>2026-04-04T09:38:51.999Z</time></trkpt><trkpt lat="44.139534355513014" lon="11.059483759297509"><ele>476.0</ele><time>2026-04-04T09:38:52.999Z</time></trkpt><trkpt lat="44.139511365783136" lon="11.05932375060928"><ele>475.99999999999994</ele><time>2026-04-04T09:38:53.999Z</time></trkpt><trkpt lat="44.13948483250497" lon="11.05917825206082"><ele>476.0</ele><time>2026-04-04T09:38:54.999Z</time></trkpt><trkpt lat="44.13946158861955" lon="11.059057975620123"><ele>476.0</ele><time>2026-04-04T09:38:55.999Z</time></trkpt><trkpt lat="44.13944763187852" lon="11.058967613411657"><ele>476.0</ele><time>2026-04-04T09:38:56.999Z</time></trkpt><trkpt lat="44.13941730710584" lon="11.058873618764162"><ele>475.99999999999994</ele><time>2026-04-04T09:38:58.999Z</time></trkpt><trkpt lat="44.13939599062697" lon="11.05873260623952"><ele>476.0</ele><time>2026-04-04T09:39:00.999Z</time></trkpt><trkpt lat="44.1393919091126" lon="11.058631944877106"><ele>474.8333333333333</ele><time>2026-04-04T09:39:01.999Z</time></trkpt><trkpt lat="44.13938782975297" lon="11.058514869826318"><ele>473.66666666666663</ele><time>2026-04-04T09:39:02.999Z</time></trkpt><trkpt lat="44.13938857617715" lon="11.058391686143194"><ele>472.5</ele><time>2026-04-04T09:39:03.999Z</time></trkpt><trkpt lat="44.13939115747572" lon="11.058270355000696"><ele>471.33333333333337</ele><time>2026-04-04T09:39:04.999Z</time></trkpt><trkpt lat="44.13939760991442" lon="11.058165763975813"><ele>470.1666666666667</ele><time>2026-04-04T09:39:05.999Z</time></trkpt><trkpt lat="44.13940838304455" lon="11.0580198691891"><ele>469.0</ele><time>2026-04-04T09:39:08Z</time></trkpt><trkpt lat="44.1394186939398" lon="11.057888191922972"><ele>467.33333333333337</ele><time>2026-04-04T09:39:10Z</time></trkpt><trkpt lat="44.13943238457516" lon="11.05779562239511"><ele>465.6666666666667</ele><time>2026-04-04T09:39:12Z</time></trkpt><trkpt lat="44.139446521274074" lon="11.05769848201817"><ele>464.0</ele><time>2026-04-04T09:39:14Z</time></trkpt><trkpt lat="44.139463652642796" lon="11.057599400015278"><ele>462.33333333333337</ele><time>2026-04-04T09:39:16Z</time></trkpt><trkpt lat="44.13948641018014" lon="11.057473159471819"><ele>460.6666666666667</ele><time>2026-04-04T09:39:18Z</time></trkpt><trkpt lat="44.139500453194266" lon="11.057347780664847"><ele>459.0</ele><time>2026-04-04T09:39:20Z</time></trkpt><trkpt lat="44.139514054311995" lon="11.057249940117929"><ele>457.4</ele><time>2026-04-04T09:39:21Z</time></trkpt><trkpt lat="44.13953382816593" lon="11.057133930601855"><ele>455.79999999999995</ele><time>2026-04-04T09:39:22Z</time></trkpt><trkpt lat="44.13955828996266" lon="11.057011527156439"><ele>454.20000000000005</ele><time>2026-04-04T09:39:23Z</time></trkpt><trkpt lat="44.13959569490849" lon="11.056881689478557"><ele>452.6</ele><time>2026-04-04T09:39:24Z</time></trkpt><trkpt lat="44.13964272750311" lon="11.056749849215135"><ele>451.0</ele><time>2026-04-04T09:39:25Z</time></trkpt><trkpt lat="44.139704196971" lon="11.056613248750837"><ele>450.0</ele><time>2026-04-04T09:39:26Z</time></trkpt><trkpt lat="44.139762765037474" lon="11.05648281876236"><ele>449.0</ele><time>2026-04-04T09:39:27Z</time></trkpt><trkpt lat="44.13982205174748" lon="11.056347756061024"><ele>448.0</ele><time>2026-04-04T09:39:28Z</time></trkpt><trkpt lat="44.13987537394078" lon="11.056207886340879"><ele>447.0</ele><time>2026-04-04T09:39:29Z</time></trkpt><trkpt lat="44.139918890999716" lon="11.05606003818088"><ele>447.0</ele><time>2026-04-04T09:39:30Z</time></trkpt><trkpt lat="44.139954593366376" lon="11.055910018825326"><ele>447.00000000000006</ele><time>2026-04-04T09:39:31Z</time></trkpt><trkpt lat="44.13996797029771" lon="11.055767901184204"><ele>447.00000000000006</ele><time>2026-04-04T09:39:32Z</time></trkpt><trkpt lat="44.13996398530398" lon="11.055616140459858"><ele>447.0</ele><time>2026-04-04T09:39:33Z</time></trkpt><trkpt lat="44.139952817527586" lon="11.055465633612316"><ele>447.0</ele><time>2026-04-04T09:39:34Z</time></trkpt><trkpt lat="44.13994393127623" lon="11.055313810480284"><ele>445.40000000000003</ele><time>2026-04-04T09:39:35Z</time></trkpt><trkpt lat="44.13991202741776" lon="11.055164619891901"><ele>443.80000000000007</ele><time>2026-04-04T09:39:36Z</time></trkpt><trkpt lat="44.13989785895675" lon="11.055011378184746"><ele>442.2</ele><time>2026-04-04T09:39:37Z</time></trkpt><trkpt lat="44.13990388686325" lon="11.05486268023301"><ele>440.6</ele><time>2026-04-04T09:39:38Z</time></trkpt><trkpt lat="44.13991684770674" lon="11.054708973598794"><ele>439.0</ele><time>2026-04-04T09:39:39Z</time></trkpt><trkpt lat="44.139934996055295" lon="11.054551217393534"><ele>437.0</ele><time>2026-04-04T09:39:40Z</time></trkpt><trkpt lat="44.13995717047639" lon="11.054392398022596"><ele>435.0</ele><time>2026-04-04T09:39:41Z</time></trkpt><trkpt lat="44.13997615312679" lon="11.054234175200213"><ele>433.0</ele><time>2026-04-04T09:39:42Z</time></trkpt><trkpt lat="44.13999320334195" lon="11.054082893992987"><ele>431.0</ele><time>2026-04-04T09:39:43Z</time></trkpt><trkpt lat="44.14001264920313" lon="11.053923951894902"><ele>429.20000000000005</ele><time>2026-04-04T09:39:44Z</time></trkpt><trkpt lat="44.14003721741682" lon="11.053773049427324"><ele>427.40000000000003</ele><time>2026-04-04T09:39:45Z</time></trkpt><trkpt lat="44.14007047702991" lon="11.053622481842227"><ele>425.6</ele><time>2026-04-04T09:39:46Z</time></trkpt><trkpt lat="44.140123455223964" lon="11.05348457837628"><ele>423.8</ele><time>2026-04-04T09:39:47Z</time></trkpt><trkpt lat="44.14018211091955" lon="11.053367698490945"><ele>422.0</ele><time>2026-04-04T09:39:48Z</time></trkpt><trkpt lat="44.14023435876341" lon="11.053288176364621"><ele>420.8</ele><time>2026-04-04T09:39:49Z</time></trkpt><trkpt lat="44.140289734794756" lon="11.053155267272176"><ele>419.6</ele><time>2026-04-04T09:39:51Z</time></trkpt><trkpt lat="44.140259556760306" lon="11.052984291118197"><ele>418.40000000000003</ele><time>2026-04-04T09:39:53Z</time></trkpt><trkpt lat="44.140213732896484" lon="11.052900000445854"><ele>417.20000000000005</ele><time>2026-04-04T09:39:54Z</time></trkpt><trkpt lat="44.14015124414183" lon="11.052813398055397"><ele>416.0</ele><time>2026-04-04T09:39:55Z</time></trkpt><trkpt lat="44.14011161492768" lon="11.052713160813937"><ele>416.0</ele><time>2026-04-04T09:39:56Z</time></trkpt><trkpt lat="44.14006504322679" lon="11.052629938426607"><ele>416.0</ele><time>2026-04-04T09:39:57Z</time></trkpt><trkpt lat="44.140073919576935" lon="11.052529430441757"><ele>416.0</ele><time>2026-04-04T09:39:58Z</time></trkpt><trkpt lat="44.14010881986989" lon="11.052439889325425"><ele>416.0</ele><time>2026-04-04T09:39:59Z</time></trkpt><trkpt lat="44.14016666525347" lon="11.052375310671367"><ele>416.0</ele><time>2026-04-04T09:40:00Z</time></trkpt><trkpt lat="44.14023836684081" lon="11.052336972952205"><ele>416.0</ele><time>2026-04-04T09:40:01Z</time></trkpt><trkpt lat="44.140311400215914" lon="11.052324285000056"><ele>416.0</ele><time>2026-04-04T09:40:02Z</time></trkpt><trkpt lat="44.14037899398403" lon="11.052323035967005"><ele>415.2857142857143</ele><time>2026-04-04T09:40:03Z</time></trkpt><trkpt lat="44.140444959215415" lon="11.052314367034528"><ele>414.5714285714286</ele><time>2026-04-04T09:40:04Z</time></trkpt><trkpt lat="44.140510840429734" lon="11.052304002365943"><ele>413.8571428571429</ele><time>2026-04-04T09:40:05Z</time></trkpt><trkpt lat="44.140576160338924" lon="11.052304680889764"><ele>413.1428571428571</ele><time>2026-04-04T09:40:06Z</time></trkpt><trkpt lat="44.14064578424922" lon="11.052302846148878"><ele>412.42857142857144</ele><time>2026-04-04T09:40:07Z</time></trkpt><trkpt lat="44.140715328618946" lon="11.052312704085946"><ele>411.7142857142857</ele><time>2026-04-04T09:40:08Z</time></trkpt><trkpt lat="44.14078119231645" lon="11.05230963439235"><ele>411.0</ele><time>2026-04-04T09:40:09Z</time></trkpt><trkpt lat="44.140881960901304" lon="11.052315772743212"><ele>411.0</ele><time>2026-04-04T09:40:11Z</time></trkpt><trkpt lat="44.140946582063165" lon="11.05230371799848"><ele>411.0</ele><time>2026-04-04T09:40:13.999Z</time></trkpt><trkpt lat="44.14096735323881" lon="11.05215236773457"><ele>411.0</ele><time>2026-04-04T09:40:17.999Z</time></trkpt><trkpt lat="44.140934599433635" lon="11.05198939584922"><ele>411.0</ele><time>2026-04-04T09:40:19.999Z</time></trkpt><trkpt lat="44.14091834540414" lon="11.051896890929193"><ele>411.0</ele><time>2026-04-04T09:40:20.999Z</time></trkpt><trkpt lat="44.14089446420808" lon="11.05179628690715"><ele>411.0</ele><time>2026-04-04T09:40:21.999Z</time></trkpt><trkpt lat="44.14086414701772" lon="11.051688663279734"><ele>410.3333333333333</ele><time>2026-04-04T09:40:22.999Z</time></trkpt><trkpt lat="44.140838713364836" lon="11.051584675215228"><ele>409.66666666666663</ele><time>2026-04-04T09:40:23.999Z</time></trkpt><trkpt lat="44.140825612198725" lon="11.05148091388904"><ele>409.0</ele><time>2026-04-04T09:40:24.999Z</time></trkpt><trkpt lat="44.14084601767932" lon="11.051387290974276"><ele>408.3333333333333</ele><time>2026-04-04T09:40:25.999Z</time></trkpt><trkpt lat="44.14087982918177" lon="11.051272537106128"><ele>407.66666666666663</ele><time>2026-04-04T09:40:26.999Z</time></trkpt><trkpt lat="44.140932703172844" lon="11.05113907027841"><ele>407.0</ele><time>2026-04-04T09:40:27.999Z</time></trkpt><trkpt lat="44.140984181924054" lon="11.05100756220356"><ele>407.0</ele><time>2026-04-04T09:40:28.999Z</time></trkpt><trkpt lat="44.14102452234235" lon="11.050880708763207"><ele>407.0</ele><time>2026-04-04T09:40:29.999Z</time></trkpt><trkpt lat="44.14104510074246" lon="11.050765731986461"><ele>407.0</ele><time>2026-04-04T09:40:30.999Z</time></trkpt><trkpt lat="44.14102830061695" lon="11.050661321548551"><ele>407.0</ele><time>2026-04-04T09:40:31.999Z</time></trkpt><trkpt lat="44.14096907392981" lon="11.05055925643516"><ele>407.0</ele><time>2026-04-04T09:40:32.999Z</time></trkpt><trkpt lat="44.140894800241874" lon="11.050466425964538"><ele>406.5</ele><time>2026-04-04T09:40:33.999Z</time></trkpt><trkpt lat="44.14081083949493" lon="11.050361227611692"><ele>406.0</ele><time>2026-04-04T09:40:34.999Z</time></trkpt><trkpt lat="44.14072998503746" lon="11.050246172034868"><ele>405.5</ele><time>2026-04-04T09:40:35.999Z</time></trkpt><trkpt lat="44.14064654961413" lon="11.050117156108403"><ele>405.0</ele><time>2026-04-04T09:40:36.999Z</time></trkpt><trkpt lat="44.140568972429804" lon="11.04998886245531"><ele>409.4</ele><time>2026-04-04T09:40:37.999Z</time></trkpt><trkpt lat="44.14050647319054" lon="11.049860874564311"><ele>413.8</ele><time>2026-04-04T09:40:38.999Z</time></trkpt><trkpt lat="44.14047275454066" lon="11.049719466716596"><ele>418.20000000000005</ele><time>2026-04-04T09:40:39.999Z</time></trkpt><trkpt lat="44.14048126231232" lon="11.049579904105105"><ele>422.6</ele><time>2026-04-04T09:40:40.999Z</time></trkpt><trkpt lat="44.14050829512917" lon="11.049416037649308"><ele>427.0</ele><time>2026-04-04T09:40:41.999Z</time></trkpt><trkpt lat="44.14055112072491" lon="11.049236700261766"><ele>428.6666666666667</ele><time>2026-04-04T09:40:42.999Z</time></trkpt><trkpt lat="44.14060440512137" lon="11.049045364539031"><ele>430.33333333333337</ele><time>2026-04-04T09:40:43.999Z</time></trkpt><trkpt lat="44.14067305217795" lon="11.048858630601824"><ele>432.0</ele><time>2026-04-04T09:40:44.999Z</time></trkpt><trkpt lat="44.140760737832125" lon="11.048684182825035"><ele>430.33333333333337</ele><time>2026-04-04T09:40:45.999Z</time></trkpt><trkpt lat="44.140867953121614" lon="11.04851016218295"><ele>428.6666666666667</ele><time>2026-04-04T09:40:46.999Z</time></trkpt><trkpt lat="44.14098222217208" lon="11.048335566287088"><ele>427.0</ele><time>2026-04-04T09:40:47.999Z</time></trkpt><trkpt lat="44.14109750913344" lon="11.048171962221268"><ele>427.0</ele><time>2026-04-04T09:40:48.999Z</time></trkpt><trkpt lat="44.14121247345623" lon="11.04803593069322"><ele>427.0</ele><time>2026-04-04T09:40:49.999Z</time></trkpt><trkpt lat="44.1413448584881" lon="11.04791357222279"><ele>427.0</ele><time>2026-04-04T09:40:50.999Z</time></trkpt><trkpt lat="44.14148088415059" lon="11.047828797046805"><ele>427.0</ele><time>2026-04-04T09:40:51.999Z</time></trkpt><trkpt lat="44.14159933010539" lon="11.047780423130204"><ele>427.00000000000006</ele><time>2026-04-04T09:40:52.999Z</time></trkpt><trkpt lat="44.14169953409653" lon="11.047722326210724"><ele>427.00000000000006</ele><time>2026-04-04T09:40:53.999Z</time></trkpt><trkpt lat="44.141788034520445" lon="11.047633262951367"><ele>427.0</ele><time>2026-04-04T09:40:54.999Z</time></trkpt><trkpt lat="44.14185682023865" lon="11.047523895051471"><ele>427.0</ele><time>2026-04-04T09:40:55.999Z</time></trkpt><trkpt lat="44.14191851057974" lon="11.047397810177578"><ele>427.0</ele><time>2026-04-04T09:40:56.999Z</time></trkpt><trkpt lat="44.14198229032877" lon="11.047242021713249"><ele>427.0</ele><time>2026-04-04T09:40:57.999Z</time></trkpt><trkpt lat="44.14203524389156" lon="11.047073066539712"><ele>427.0</ele><time>2026-04-04T09:40:58.999Z</time></trkpt><trkpt lat="44.142075138437754" lon="11.046889956869661"><ele>427.0</ele><time>2026-04-04T09:40:59.999Z</time></trkpt><trkpt lat="44.14210893207284" lon="11.046693522073829"><ele>428.5</ele><time>2026-04-04T09:41:00.999Z</time></trkpt><trkpt lat="44.142136911562666" lon="11.046512804535327"><ele>430.0</ele><time>2026-04-04T09:41:01.999Z</time></trkpt><trkpt lat="44.14219437356045" lon="11.046364762872654"><ele>431.5</ele><time>2026-04-04T09:41:02.999Z</time></trkpt><trkpt lat="44.14228887262573" lon="11.046242531819955"><ele>433.0</ele><time>2026-04-04T09:41:03.999Z</time></trkpt><trkpt lat="44.14240285351991" lon="11.04614925536571"><ele>429.79999999999995</ele><time>2026-04-04T09:41:04.999Z</time></trkpt><trkpt lat="44.14250581663285" lon="11.046065354208809"><ele>426.59999999999997</ele><time>2026-04-04T09:41:05.999Z</time></trkpt><trkpt lat="44.14257500857193" lon="11.045958691200038"><ele>423.4</ele><time>2026-04-04T09:41:06.999Z</time></trkpt><trkpt lat="44.142612442462266" lon="11.045820791226214"><ele>420.20000000000005</ele><time>2026-04-04T09:41:07.999Z</time></trkpt><trkpt lat="44.142616502334405" lon="11.04566247715629"><ele>417.0</ele><time>2026-04-04T09:41:08.999Z</time></trkpt><trkpt lat="44.14260128340604" lon="11.045491040761226"><ele>417.0</ele><time>2026-04-04T09:41:09.999Z</time></trkpt><trkpt lat="44.142590266949334" lon="11.045333706115152"><ele>417.0</ele><time>2026-04-04T09:41:10.999Z</time></trkpt><trkpt lat="44.14258431690319" lon="11.045207118034789"><ele>417.0</ele><time>2026-04-04T09:41:11.999Z</time></trkpt><trkpt lat="44.142577921320736" lon="11.045097036768288"><ele>417.0</ele><time>2026-04-04T09:41:12.999Z</time></trkpt><trkpt lat="44.14254002526703" lon="11.044929853945476"><ele>417.0</ele><time>2026-04-04T09:41:14.999Z</time></trkpt><trkpt lat="44.142455082208386" lon="11.044847778781993"><ele>415.0</ele><time>2026-04-04T09:41:15.999Z</time></trkpt><trkpt lat="44.14236773710505" lon="11.044748158305895"><ele>413.0</ele><time>2026-04-04T09:41:16.999Z</time></trkpt><trkpt lat="44.14226046894326" lon="11.044633914536304"><ele>411.0</ele><time>2026-04-04T09:41:17.999Z</time></trkpt><trkpt lat="44.14214679538421" lon="11.044518773218096"><ele>409.0</ele><time>2026-04-04T09:41:18.999Z</time></trkpt><trkpt lat="44.142038366655015" lon="11.044406242639786"><ele>409.0</ele><time>2026-04-04T09:41:19.999Z</time></trkpt><trkpt lat="44.14192492951932" lon="11.044324282993392"><ele>409.0</ele><time>2026-04-04T09:41:20.999Z</time></trkpt><trkpt lat="44.14181338642187" lon="11.044252648571666"><ele>409.0</ele><time>2026-04-04T09:41:21.999Z</time></trkpt><trkpt lat="44.141672537385084" lon="11.04418223569393"><ele>409.0</ele><time>2026-04-04T09:41:22.999Z</time></trkpt><trkpt lat="44.141507664606145" lon="11.04414855169143"><ele>406.5</ele><time>2026-04-04T09:41:23.999Z</time></trkpt><trkpt lat="44.141359786410966" lon="11.044112620358689"><ele>404.0</ele><time>2026-04-04T09:41:24.999Z</time></trkpt><trkpt lat="44.14123124588057" lon="11.044080692413122"><ele>401.5</ele><time>2026-04-04T09:41:25.999Z</time></trkpt><trkpt lat="44.141110058542104" lon="11.044062505346766"><ele>399.0</ele><time>2026-04-04T09:41:26.999Z</time></trkpt><trkpt lat="44.14097812697991" lon="11.044064943384848"><ele>399.0</ele><time>2026-04-04T09:41:27.999Z</time></trkpt><trkpt lat="44.140841628210865" lon="11.044101968712074"><ele>399.0</ele><time>2026-04-04T09:41:28.999Z</time></trkpt><trkpt lat="44.14070772368834" lon="11.04412061687178"><ele>399.0</ele><time>2026-04-04T09:41:29.999Z</time></trkpt><trkpt lat="44.140595149154315" lon="11.044097448903406"><ele>399.0</ele><time>2026-04-04T09:41:30.999Z</time></trkpt><trkpt lat="44.14048608858723" lon="11.04407655804489"><ele>401.75</ele><time>2026-04-04T09:41:31.999Z</time></trkpt><trkpt lat="44.14038430069116" lon="11.044086796036153"><ele>404.5</ele><time>2026-04-04T09:41:32.999Z</time></trkpt><trkpt lat="44.140273425052555" lon="11.044124656115027"><ele>407.25</ele><time>2026-04-04T09:41:33.999Z</time></trkpt><trkpt lat="44.14015754760534" lon="11.044180455281513"><ele>410.0</ele><time>2026-04-04T09:41:34.999Z</time></trkpt><trkpt lat="44.14004807586487" lon="11.044265910833463"><ele>411.16666666666663</ele><time>2026-04-04T09:41:35.999Z</time></trkpt><trkpt lat="44.139957083222" lon="11.044350712267722"><ele>412.3333333333333</ele><time>2026-04-04T09:41:36.999Z</time></trkpt><trkpt lat="44.13987203650846" lon="11.044420154272357"><ele>413.5</ele><time>2026-04-04T09:41:38Z</time></trkpt><trkpt lat="44.13979146147856" lon="11.044471740680748"><ele>414.66666666666663</ele><time>2026-04-04T09:41:39Z</time></trkpt><trkpt lat="44.13971382817823" lon="11.044485996617963"><ele>415.8333333333333</ele><time>2026-04-04T09:41:40Z</time></trkpt><trkpt lat="44.139646642387476" lon="11.04446190996502"><ele>417.0</ele><time>2026-04-04T09:41:41Z</time></trkpt><trkpt lat="44.13960225768797" lon="11.044335837664846"><ele>417.0</ele><time>2026-04-04T09:41:42Z</time></trkpt><trkpt lat="44.13956158379269" lon="11.044182898224236"><ele>417.0</ele><time>2026-04-04T09:41:43Z</time></trkpt><trkpt lat="44.13953025156141" lon="11.04402055444601"><ele>417.0</ele><time>2026-04-04T09:41:44Z</time></trkpt><trkpt lat="44.13948774289973" lon="11.043845019432643"><ele>417.0</ele><time>2026-04-04T09:41:45Z</time></trkpt><trkpt lat="44.13944847572074" lon="11.043672476430206"><ele>417.0</ele><time>2026-04-04T09:41:46Z</time></trkpt><trkpt lat="44.13941411262991" lon="11.043496593357018"><ele>417.0</ele><time>2026-04-04T09:41:47Z</time></trkpt><trkpt lat="44.13936958821853" lon="11.04332915726059"><ele>417.0</ele><time>2026-04-04T09:41:48Z</time></trkpt><trkpt lat="44.13933735295347" lon="11.043175586996826"><ele>417.0</ele><time>2026-04-04T09:41:49Z</time></trkpt><trkpt lat="44.13930461058173" lon="11.04303739007236"><ele>418.0</ele><time>2026-04-04T09:41:50Z</time></trkpt><trkpt lat="44.13925156198097" lon="11.042899048244996"><ele>419.0</ele><time>2026-04-04T09:41:51Z</time></trkpt><trkpt lat="44.13917121373692" lon="11.042753881287942"><ele>420.0</ele><time>2026-04-04T09:41:52Z</time></trkpt><trkpt lat="44.13906275828795" lon="11.042619289523087"><ele>421.0</ele><time>2026-04-04T09:41:53Z</time></trkpt><trkpt lat="44.138961874590954" lon="11.042501167568865"><ele>417.6</ele><time>2026-04-04T09:41:54Z</time></trkpt><trkpt lat="44.138879794319195" lon="11.042405969754263"><ele>414.20000000000005</ele><time>2026-04-04T09:41:54.999Z</time></trkpt><trkpt lat="44.13881113608793" lon="11.042305741693026"><ele>410.79999999999995</ele><time>2026-04-04T09:41:55.999Z</time></trkpt><trkpt lat="44.13875865323263" lon="11.042190134448012"><ele>407.4</ele><time>2026-04-04T09:41:56.999Z</time></trkpt><trkpt lat="44.138705463958225" lon="11.042071768255594"><ele>404.0</ele><time>2026-04-04T09:41:57.999Z</time></trkpt><trkpt lat="44.138645369475455" lon="11.04196934006125"><ele>404.0</ele><time>2026-04-04T09:41:58.999Z</time></trkpt><trkpt lat="44.1385692949201" lon="11.041895439060147"><ele>404.0</ele><time>2026-04-04T09:41:59.999Z</time></trkpt><trkpt lat="44.138466248071786" lon="11.041855106252136"><ele>404.0</ele><time>2026-04-04T09:42:00.999Z</time></trkpt><trkpt lat="44.13836548699831" lon="11.041820514339376"><ele>404.0</ele><time>2026-04-04T09:42:01.999Z</time></trkpt><trkpt lat="44.13826900541709" lon="11.04176652734287"><ele>404.0</ele><time>2026-04-04T09:42:02.999Z</time></trkpt><trkpt lat="44.13816055464538" lon="11.041741977751453"><ele>404.6</ele><time>2026-04-04T09:42:03.999Z</time></trkpt><trkpt lat="44.138044081012495" lon="11.04174098135813"><ele>405.2</ele><time>2026-04-04T09:42:04.999Z</time></trkpt><trkpt lat="44.13793344072237" lon="11.04173715768259"><ele>405.8</ele><time>2026-04-04T09:42:05.999Z</time></trkpt><trkpt lat="44.137833693550306" lon="11.041707933111699"><ele>406.40000000000003</ele><time>2026-04-04T09:42:06.999Z</time></trkpt><trkpt lat="44.13776611422466" lon="11.041627499120096"><ele>407.0</ele><time>2026-04-04T09:42:07.999Z</time></trkpt><trkpt lat="44.13770772467482" lon="11.041542993868923"><ele>405.0</ele><time>2026-04-04T09:42:08.999Z</time></trkpt><trkpt lat="44.13770562263212" lon="11.041415735607888"><ele>403.0</ele><time>2026-04-04T09:42:09.999Z</time></trkpt><trkpt lat="44.13771843226086" lon="11.041278564836325"><ele>401.0</ele><time>2026-04-04T09:42:10.999Z</time></trkpt><trkpt lat="44.13774491572422" lon="11.041145001337386"><ele>399.0</ele><time>2026-04-04T09:42:11.999Z</time></trkpt><trkpt lat="44.13776908329989" lon="11.04100048176597"><ele>397.0</ele><time>2026-04-04T09:42:12.999Z</time></trkpt><trkpt lat="44.13779492292406" lon="11.040866026521423"><ele>396.6</ele><time>2026-04-04T09:42:13.999Z</time></trkpt><trkpt lat="44.137826792878656" lon="11.04073239097921"><ele>396.20000000000005</ele><time>2026-04-04T09:42:14.999Z</time></trkpt><trkpt lat="44.13786878180653" lon="11.040607202672893"><ele>395.8</ele><time>2026-04-04T09:42:15.999Z</time></trkpt><trkpt lat="44.13791645903546" lon="11.040490738986968"><ele>395.4</ele><time>2026-04-04T09:42:16.999Z</time></trkpt><trkpt lat="44.137977621051874" lon="11.04037818623494"><ele>395.0</ele><time>2026-04-04T09:42:17.999Z</time></trkpt><trkpt lat="44.138032555119466" lon="11.040252502722069"><ele>395.0</ele><time>2026-04-04T09:42:18.999Z</time></trkpt><trkpt lat="44.138094126762766" lon="11.040132784132886"><ele>395.0</ele><time>2026-04-04T09:42:19.999Z</time></trkpt><trkpt lat="44.138156613527336" lon="11.040005684519423"><ele>395.0</ele><time>2026-04-04T09:42:20.999Z</time></trkpt><trkpt lat="44.13821954214089" lon="11.039876659272515"><ele>395.0</ele><time>2026-04-04T09:42:21.999Z</time></trkpt><trkpt lat="44.138280637494674" lon="11.0397409138404"><ele>395.0</ele><time>2026-04-04T09:42:22.999Z</time></trkpt><trkpt lat="44.1383360485246" lon="11.039606569323572"><ele>397.0</ele><time>2026-04-04T09:42:23.999Z</time></trkpt><trkpt lat="44.13840575229508" lon="11.039476022963479"><ele>399.0</ele><time>2026-04-04T09:42:24.999Z</time></trkpt><trkpt lat="44.13846476583777" lon="11.039369235647948"><ele>401.0</ele><time>2026-04-04T09:42:25.999Z</time></trkpt><trkpt lat="44.138543072114786" lon="11.039301049208156"><ele>403.0</ele><time>2026-04-04T09:42:26.999Z</time></trkpt><trkpt lat="44.13864730717878" lon="11.039287186853304"><ele>405.0</ele><time>2026-04-04T09:42:27.999Z</time></trkpt><trkpt lat="44.13876524196488" lon="11.039303440815749"><ele>405.0</ele><time>2026-04-04T09:42:28.999Z</time></trkpt><trkpt lat="44.138899042690845" lon="11.039322977823453"><ele>405.0</ele><time>2026-04-04T09:42:29.999Z</time></trkpt><trkpt lat="44.139039297968054" lon="11.039361806562244"><ele>405.0</ele><time>2026-04-04T09:42:30.999Z</time></trkpt><trkpt lat="44.139184026328884" lon="11.039426425787296"><ele>405.0</ele><time>2026-04-04T09:42:31.999Z</time></trkpt><trkpt lat="44.13932061641431" lon="11.03952067483718"><ele>404.0</ele><time>2026-04-04T09:42:32.999Z</time></trkpt><trkpt lat="44.139459456491714" lon="11.03961674746387"><ele>403.0</ele><time>2026-04-04T09:42:33.999Z</time></trkpt><trkpt lat="44.13959980969842" lon="11.039686853854118"><ele>402.0</ele><time>2026-04-04T09:42:34.999Z</time></trkpt><trkpt lat="44.1397474849514" lon="11.03972691050905"><ele>403.0</ele><time>2026-04-04T09:42:35.999Z</time></trkpt><trkpt lat="44.13988887430854" lon="11.039757072619654"><ele>404.0</ele><time>2026-04-04T09:42:36.999Z</time></trkpt><trkpt lat="44.14001335884433" lon="11.03982427935781"><ele>405.0</ele><time>2026-04-04T09:42:37.999Z</time></trkpt><trkpt lat="44.14012012598639" lon="11.039894013360861"><ele>406.0</ele><time>2026-04-04T09:42:38.999Z</time></trkpt><trkpt lat="44.14024458179095" lon="11.03993364609025"><ele>405.6</ele><time>2026-04-04T09:42:39.999Z</time></trkpt><trkpt lat="44.14037486475593" lon="11.039967361700855"><ele>405.20000000000005</ele><time>2026-04-04T09:42:40.999Z</time></trkpt><trkpt lat="44.14047810763042" lon="11.040017987266562"><ele>404.79999999999995</ele><time>2026-04-04T09:42:41.999Z</time></trkpt><trkpt lat="44.14057385597802" lon="11.04005782868966"><ele>404.4</ele><time>2026-04-04T09:42:42.999Z</time></trkpt><trkpt lat="44.14066641064059" lon="11.040038914916337"><ele>404.0</ele><time>2026-04-04T09:42:43.999Z</time></trkpt><trkpt lat="44.140763612828735" lon="11.039950019042825"><ele>404.0</ele><time>2026-04-04T09:42:44.999Z</time></trkpt><trkpt lat="44.14087121122364" lon="11.039820636726335"><ele>404.0</ele><time>2026-04-04T09:42:45.999Z</time></trkpt><trkpt lat="44.140985393932326" lon="11.039691197351434"><ele>404.0</ele><time>2026-04-04T09:42:46.999Z</time></trkpt><trkpt lat="44.141101989898864" lon="11.039571580690874"><ele>404.0</ele><time>2026-04-04T09:42:47.999Z</time></trkpt><trkpt lat="44.141215765104356" lon="11.03946163717711"><ele>404.0</ele><time>2026-04-04T09:42:48.999Z</time></trkpt><trkpt lat="44.14132668585563" lon="11.039382628606441"><ele>404.0</ele><time>2026-04-04T09:42:49.999Z</time></trkpt><trkpt lat="44.14144436611299" lon="11.039341912994702"><ele>404.0</ele><time>2026-04-04T09:42:50.999Z</time></trkpt><trkpt lat="44.141544113177844" lon="11.03932995735833"><ele>404.0</ele><time>2026-04-04T09:42:51.999Z</time></trkpt><trkpt lat="44.14163551888815" lon="11.039303103169225"><ele>404.0</ele><time>2026-04-04T09:42:52.999Z</time></trkpt><trkpt lat="44.141703056430096" lon="11.039243775322673"><ele>402.49999999999994</ele><time>2026-04-04T09:42:53.999Z</time></trkpt><trkpt lat="44.14173882577672" lon="11.039146143390619"><ele>401.0</ele><time>2026-04-04T09:42:54.999Z</time></trkpt><trkpt lat="44.14173230826808" lon="11.039045414142242"><ele>399.5</ele><time>2026-04-04T09:42:55.999Z</time></trkpt><trkpt lat="44.14167505601624" lon="11.039008243116866"><ele>398.0</ele><time>2026-04-04T09:43:00.999Z</time></trkpt><trkpt lat="44.14174962847137" lon="11.03894438430756"><ele>396.49999999999994</ele><time>2026-04-04T09:43:02.999Z</time></trkpt><trkpt lat="44.141629917003556" lon="11.039055320090425"><ele>395.0</ele><time>2026-04-04T09:43:04.999Z</time></trkpt><trkpt lat="44.14157153360188" lon="11.039134747076156"><ele>396.8</ele><time>2026-04-04T09:43:05.999Z</time></trkpt><trkpt lat="44.14148244120546" lon="11.03912948449929"><ele>398.6</ele><time>2026-04-04T09:43:06.999Z</time></trkpt><trkpt lat="44.141377986843644" lon="11.039120489586285"><ele>400.4</ele><time>2026-04-04T09:43:07.999Z</time></trkpt><trkpt lat="44.141254416014576" lon="11.039130868590549"><ele>402.2</ele><time>2026-04-04T09:43:08.999Z</time></trkpt><trkpt lat="44.14114079557395" lon="11.03913661468507"><ele>404.0</ele><time>2026-04-04T09:43:09.999Z</time></trkpt><trkpt lat="44.14103063445022" lon="11.039165306261687"><ele>404.0</ele><time>2026-04-04T09:43:10.999Z</time></trkpt><trkpt lat="44.14094000190123" lon="11.039289980498987"><ele>404.0</ele><time>2026-04-04T09:43:11.999Z</time></trkpt><trkpt lat="44.14084699834456" lon="11.039384129339892"><ele>404.0</ele><time>2026-04-04T09:43:12.999Z</time></trkpt><trkpt lat="44.14076596858887" lon="11.039444698591197"><ele>404.0</ele><time>2026-04-04T09:43:13.999Z</time></trkpt><trkpt lat="44.140687397461846" lon="11.039458921022815"><ele>404.0</ele><time>2026-04-04T09:43:14.999Z</time></trkpt><trkpt lat="44.140616085290354" lon="11.039413849665682"><ele>404.4</ele><time>2026-04-04T09:43:15.999Z</time></trkpt><trkpt lat="44.14054623572414" lon="11.039357517885794"><ele>404.79999999999995</ele><time>2026-04-04T09:43:16.999Z</time></trkpt><trkpt lat="44.140511906719176" lon="11.039248112281504"><ele>405.20000000000005</ele><time>2026-04-04T09:43:17.999Z</time></trkpt><trkpt lat="44.140496184592834" lon="11.03913021360315"><ele>405.6</ele><time>2026-04-04T09:43:18.999Z</time></trkpt><trkpt lat="44.14047386137575" lon="11.038992160774107"><ele>406.0</ele><time>2026-04-04T09:43:19.999Z</time></trkpt><trkpt lat="44.14047180927923" lon="11.038845606716214"><ele>407.75</ele><time>2026-04-04T09:43:20.999Z</time></trkpt><trkpt lat="44.140474012552474" lon="11.038695095113827"><ele>409.5</ele><time>2026-04-04T09:43:21.999Z</time></trkpt><trkpt lat="44.14047908224791" lon="11.038530869523242"><ele>411.25</ele><time>2026-04-04T09:43:22.999Z</time></trkpt><trkpt lat="44.14050509098814" lon="11.03837360551966"><ele>413.0</ele><time>2026-04-04T09:43:23.999Z</time></trkpt><trkpt lat="44.14054739920913" lon="11.038212581462906"><ele>415.59999999999997</ele><time>2026-04-04T09:43:24.999Z</time></trkpt><trkpt lat="44.1405957483697" lon="11.038074595041452"><ele>418.2</ele><time>2026-04-04T09:43:25.999Z</time></trkpt><trkpt lat="44.140641226634344" lon="11.037951031951868"><ele>420.8</ele><time>2026-04-04T09:43:26.999Z</time></trkpt><trkpt lat="44.140686026284484" lon="11.037817759829863"><ele>423.4</ele><time>2026-04-04T09:43:27.999Z</time></trkpt><trkpt lat="44.140710249379744" lon="11.037685786921163"><ele>426.0</ele><time>2026-04-04T09:43:28.999Z</time></trkpt><trkpt lat="44.14070207207614" lon="11.037573185841435"><ele>426.0</ele><time>2026-04-04T09:43:29.999Z</time></trkpt><trkpt lat="44.14065712044992" lon="11.037493890918023"><ele>426.0</ele><time>2026-04-04T09:43:30.999Z</time></trkpt><trkpt lat="44.14059579435474" lon="11.03744664233997"><ele>426.0</ele><time>2026-04-04T09:43:31.999Z</time></trkpt><trkpt lat="44.14049870882777" lon="11.037462281413896"><ele>426.0</ele><time>2026-04-04T09:43:32.999Z</time></trkpt><trkpt lat="44.14040946302173" lon="11.03755486431981"><ele>426.0</ele><time>2026-04-04T09:43:33.999Z</time></trkpt><trkpt lat="44.140308565292685" lon="11.037613279806944"><ele>426.0</ele><time>2026-04-04T09:43:34.999Z</time></trkpt><trkpt lat="44.14020581117134" lon="11.037679094486023"><ele>426.0</ele><time>2026-04-04T09:43:35.999Z</time></trkpt><trkpt lat="44.14011294987595" lon="11.03773447791434"><ele>426.0</ele><time>2026-04-04T09:43:36.999Z</time></trkpt><trkpt lat="44.14001148010841" lon="11.037791990915954"><ele>426.0</ele><time>2026-04-04T09:43:37.999Z</time></trkpt><trkpt lat="44.13992170480612" lon="11.03784728493288"><ele>426.0</ele><time>2026-04-04T09:43:38.999Z</time></trkpt><trkpt lat="44.1398285614038" lon="11.037843200212999"><ele>426.6</ele><time>2026-04-04T09:43:39.999Z</time></trkpt><trkpt lat="44.13973683892563" lon="11.037830395367735"><ele>427.20000000000005</ele><time>2026-04-04T09:43:41Z</time></trkpt><trkpt lat="44.13964502022555" lon="11.037792275288048"><ele>427.79999999999995</ele><time>2026-04-04T09:43:42Z</time></trkpt><trkpt lat="44.13954866776742" lon="11.037754693880558"><ele>428.4</ele><time>2026-04-04T09:43:43Z</time></trkpt><trkpt lat="44.13944569567456" lon="11.037727147756364"><ele>429.0</ele><time>2026-04-04T09:43:44Z</time></trkpt><trkpt lat="44.13934428410653" lon="11.037657814786689"><ele>429.0</ele><time>2026-04-04T09:43:45Z</time></trkpt><trkpt lat="44.13924714517059" lon="11.037573367581833"><ele>429.0</ele><time>2026-04-04T09:43:46Z</time></trkpt><trkpt lat="44.139158859764485" lon="11.037462443329646"><ele>429.0</ele><time>2026-04-04T09:43:47Z</time></trkpt><trkpt lat="44.139073305646164" lon="11.03736194664464"><ele>429.0</ele><time>2026-04-04T09:43:48Z</time></trkpt><trkpt lat="44.138986853888376" lon="11.037305873136418"><ele>429.0</ele><time>2026-04-04T09:43:49Z</time></trkpt><trkpt lat="44.138894227167604" lon="11.037310689990955"><ele>431.5</ele><time>2026-04-04T09:43:50Z</time></trkpt><trkpt lat="44.13879984676476" lon="11.037372897499072"><ele>434.0</ele><time>2026-04-04T09:43:51Z</time></trkpt><trkpt lat="44.138708969500556" lon="11.037489834993004"><ele>436.5</ele><time>2026-04-04T09:43:52Z</time></trkpt><trkpt lat="44.138611827952175" lon="11.037639568954141"><ele>439.0</ele><time>2026-04-04T09:43:53Z</time></trkpt><trkpt lat="44.13850926805486" lon="11.037791675680799"><ele>439.0</ele><time>2026-04-04T09:43:54Z</time></trkpt><trkpt lat="44.13841268969929" lon="11.037924563481868"><ele>439.0</ele><time>2026-04-04T09:43:55Z</time></trkpt><trkpt lat="44.13831816341624" lon="11.038017385257794"><ele>439.0</ele><time>2026-04-04T09:43:56Z</time></trkpt><trkpt lat="44.13824968195232" lon="11.038106451310124"><ele>439.0</ele><time>2026-04-04T09:43:57Z</time></trkpt><trkpt lat="44.13818240756829" lon="11.038164684682839"><ele>439.0</ele><time>2026-04-04T09:43:58Z</time></trkpt><trkpt lat="44.138107692042816" lon="11.038186258173193"><ele>440.0</ele><time>2026-04-04T09:43:59Z</time></trkpt><trkpt lat="44.1380299430081" lon="11.038137859821225"><ele>441.0</ele><time>2026-04-04T09:44:00Z</time></trkpt><trkpt lat="44.13797525491461" lon="11.03803915541601"><ele>442.0</ele><time>2026-04-04T09:44:01Z</time></trkpt><trkpt lat="44.13794563920952" lon="11.037914956887311"><ele>443.0</ele><time>2026-04-04T09:44:02Z</time></trkpt><trkpt lat="44.137920684499825" lon="11.037770579355463"><ele>444.0</ele><time>2026-04-04T09:44:03Z</time></trkpt><trkpt lat="44.13788148223058" lon="11.037620887990887"><ele>444.0</ele><time>2026-04-04T09:44:04Z</time></trkpt><trkpt lat="44.13781557113782" lon="11.03750050507537"><ele>444.0</ele><time>2026-04-04T09:44:05Z</time></trkpt><trkpt lat="44.13771605353998" lon="11.03741816964214"><ele>444.0</ele><time>2026-04-04T09:44:06Z</time></trkpt><trkpt lat="44.137585526815016" lon="11.03736796918978"><ele>444.0</ele><time>2026-04-04T09:44:07Z</time></trkpt><trkpt lat="44.13745084562881" lon="11.037332484202677"><ele>448.25</ele><time>2026-04-04T09:44:08Z</time></trkpt><trkpt lat="44.13732844660019" lon="11.037233342683713"><ele>452.5</ele><time>2026-04-04T09:44:09Z</time></trkpt><trkpt lat="44.13719567510022" lon="11.037145317533692"><ele>456.75</ele><time>2026-04-04T09:44:10Z</time></trkpt><trkpt lat="44.1370738368036" lon="11.037035938994492"><ele>461.0</ele><time>2026-04-04T09:44:11Z</time></trkpt><trkpt lat="44.136942023949345" lon="11.036936564950645"><ele>461.0</ele><time>2026-04-04T09:44:12Z</time></trkpt><trkpt lat="44.136801470703475" lon="11.036857779802565"><ele>461.0</ele><time>2026-04-04T09:44:13Z</time></trkpt><trkpt lat="44.13666595642442" lon="11.036797722176216"><ele>461.0</ele><time>2026-04-04T09:44:14Z</time></trkpt><trkpt lat="44.13655218990369" lon="11.036732616005327"><ele>461.0</ele><time>2026-04-04T09:44:15Z</time></trkpt><trkpt lat="44.13645576253431" lon="11.03670076416384"><ele>462.16666666666663</ele><time>2026-04-04T09:44:16Z</time></trkpt><trkpt lat="44.136317571630855" lon="11.03664296482565"><ele>463.3333333333333</ele><time>2026-04-04T09:44:18Z</time></trkpt><trkpt lat="44.13626001429271" lon="11.036585656202133"><ele>464.5</ele><time>2026-04-04T09:44:20Z</time></trkpt><trkpt lat="44.136282304659616" lon="11.036500327322353"><ele>465.66666666666663</ele><time>2026-04-04T09:44:21Z</time></trkpt><trkpt lat="44.13632816695887" lon="11.036416823823958"><ele>466.8333333333333</ele><time>2026-04-04T09:44:22Z</time></trkpt><trkpt lat="44.13640374754539" lon="11.036356746442696"><ele>468.0</ele><time>2026-04-04T09:44:23Z</time></trkpt><trkpt lat="44.13650450236748" lon="11.03633310005557"><ele>470.75</ele><time>2026-04-04T09:44:24Z</time></trkpt><trkpt lat="44.13662705695131" lon="11.036332131621025"><ele>473.5</ele><time>2026-04-04T09:44:25Z</time></trkpt><trkpt lat="44.136744933964415" lon="11.036372288012995"><ele>476.25</ele><time>2026-04-04T09:44:26Z</time></trkpt><trkpt lat="44.13686891935207" lon="11.03643117773456"><ele>479.0</ele><time>2026-04-04T09:44:27Z</time></trkpt><trkpt lat="44.13699093219581" lon="11.036505725531141"><ele>479.0</ele><time>2026-04-04T09:44:28Z</time></trkpt><trkpt lat="44.13711865757825" lon="11.036580993684824"><ele>479.0</ele><time>2026-04-04T09:44:29Z</time></trkpt><trkpt lat="44.137237436420946" lon="11.036643376382601"><ele>479.0</ele><time>2026-04-04T09:44:30Z</time></trkpt><trkpt lat="44.137326740431064" lon="11.036691867705875"><ele>479.0</ele><time>2026-04-04T09:44:31Z</time></trkpt><trkpt lat="44.1374107106372" lon="11.036730078122117"><ele>479.79999999999995</ele><time>2026-04-04T09:44:32Z</time></trkpt><trkpt lat="44.137472782626375" lon="11.036748398627418"><ele>480.59999999999997</ele><time>2026-04-04T09:44:32.999Z</time></trkpt><trkpt lat="44.137581954763746" lon="11.036657119052071"><ele>481.4</ele><time>2026-04-04T09:44:34.999Z</time></trkpt><trkpt lat="44.13762622714063" lon="11.036532080478668"><ele>482.2</ele><time>2026-04-04T09:44:35.999Z</time></trkpt><trkpt lat="44.13767845633943" lon="11.036403801776107"><ele>483.0</ele><time>2026-04-04T09:44:36.999Z</time></trkpt><trkpt lat="44.137723338211494" lon="11.036299460577771"><ele>483.0</ele><time>2026-04-04T09:44:37.999Z</time></trkpt><trkpt lat="44.13779117548212" lon="11.036187222013135"><ele>482.99999999999994</ele><time>2026-04-04T09:44:38.999Z</time></trkpt><trkpt lat="44.13786736337975" lon="11.036098940200404"><ele>482.99999999999994</ele><time>2026-04-04T09:44:39.999Z</time></trkpt><trkpt lat="44.13794257513606" lon="11.036019369193442"><ele>483.0</ele><time>2026-04-04T09:44:40.999Z</time></trkpt><trkpt lat="44.13799270058749" lon="11.035912695810694"><ele>483.0</ele><time>2026-04-04T09:44:41.999Z</time></trkpt><trkpt lat="44.13799103099479" lon="11.035811096861242"><ele>483.0</ele><time>2026-04-04T09:44:42.999Z</time></trkpt><trkpt lat="44.137951134525" lon="11.035724303483908"><ele>482.99999999999994</ele><time>2026-04-04T09:44:43.999Z</time></trkpt><trkpt lat="44.13789294096736" lon="11.035670549021837"><ele>482.99999999999994</ele><time>2026-04-04T09:44:44.999Z</time></trkpt><trkpt lat="44.13779783796476" lon="11.035674532541547"><ele>483.0</ele><time>2026-04-04T09:44:45.999Z</time></trkpt><trkpt lat="44.137707338473874" lon="11.035735129540262"><ele>483.0</ele><time>2026-04-04T09:44:46.999Z</time></trkpt><trkpt lat="44.137657621870154" lon="11.035892201705026"><ele>483.0</ele><time>2026-04-04T09:44:47.999Z</time></trkpt><trkpt lat="44.13758904101572" lon="11.036006877548715"><ele>482.99999999999994</ele><time>2026-04-04T09:44:48.999Z</time></trkpt><trkpt lat="44.13751695638066" lon="11.03609312139458"><ele>482.99999999999994</ele><time>2026-04-04T09:44:49.999Z</time></trkpt><trkpt lat="44.13743087252866" lon="11.036141393886734"><ele>483.0</ele><time>2026-04-04T09:44:50.999Z</time></trkpt><trkpt lat="44.13734288037508" lon="11.036149777096163"><ele>483.0</ele><time>2026-04-04T09:44:51.999Z</time></trkpt><trkpt lat="44.13723596270478" lon="11.036133618804968"><ele>482.2</ele><time>2026-04-04T09:44:52.999Z</time></trkpt><trkpt lat="44.13712064292974" lon="11.036126950099792"><ele>481.4</ele><time>2026-04-04T09:44:53.999Z</time></trkpt><trkpt lat="44.13702460729984" lon="11.036059454534133"><ele>480.59999999999997</ele><time>2026-04-04T09:44:54.999Z</time></trkpt><trkpt lat="44.13695716207418" lon="11.036000463958363"><ele>479.79999999999995</ele><time>2026-04-04T09:44:55.999Z</time></trkpt><trkpt lat="44.136920366850696" lon="11.035909041455962"><ele>479.0</ele><time>2026-04-04T09:44:56.999Z</time></trkpt><trkpt lat="44.13690255937246" lon="11.035781848786009"><ele>482.75</ele><time>2026-04-04T09:44:57.999Z</time></trkpt><trkpt lat="44.136874646393835" lon="11.035627259038721"><ele>486.5</ele><time>2026-04-04T09:44:58.999Z</time></trkpt><trkpt lat="44.13680244087825" lon="11.035487357524568"><ele>490.25</ele><time>2026-04-04T09:44:59.999Z</time></trkpt><trkpt lat="44.13671090807814" lon="11.03537772739774"><ele>494.0</ele><time>2026-04-04T09:45:00.999Z</time></trkpt><trkpt lat="44.1365847666318" lon="11.035271896468739"><ele>492.75</ele><time>2026-04-04T09:45:01.999Z</time></trkpt><trkpt lat="44.13646835194547" lon="11.035135566014425"><ele>491.5</ele><time>2026-04-04T09:45:02.999Z</time></trkpt><trkpt lat="44.13636251897198" lon="11.035031908467921"><ele>490.25</ele><time>2026-04-04T09:45:03.999Z</time></trkpt><trkpt lat="44.13626286736107" lon="11.034964518039516"><ele>489.0</ele><time>2026-04-04T09:45:04.999Z</time></trkpt><trkpt lat="44.13615208216721" lon="11.034984577101127"><ele>489.0</ele><time>2026-04-04T09:45:05.999Z</time></trkpt><trkpt lat="44.1360434026571" lon="11.035035743494998"><ele>489.0</ele><time>2026-04-04T09:45:06.999Z</time></trkpt><trkpt lat="44.13593822128218" lon="11.035069468477332"><ele>489.0</ele><time>2026-04-04T09:45:07.999Z</time></trkpt><trkpt lat="44.13584906103391" lon="11.035075817174269"><ele>489.0</ele><time>2026-04-04T09:45:08.999Z</time></trkpt><trkpt lat="44.1357601337825" lon="11.035003875671077"><ele>489.0</ele><time>2026-04-04T09:45:10.999Z</time></trkpt><trkpt lat="44.135794090958754" lon="11.034862044556391"><ele>492.79999999999995</ele><time>2026-04-04T09:45:12.999Z</time></trkpt><trkpt lat="44.13588597554897" lon="11.034766045577596"><ele>496.59999999999997</ele><time>2026-04-04T09:45:14.999Z</time></trkpt><trkpt lat="44.135969091401904" lon="11.034754157583006"><ele>500.4</ele><time>2026-04-04T09:45:15.999Z</time></trkpt><trkpt lat="44.13606767588397" lon="11.034768571199296"><ele>504.2</ele><time>2026-04-04T09:45:16.999Z</time></trkpt><trkpt lat="44.13617225189132" lon="11.034795035619451"><ele>508.0</ele><time>2026-04-04T09:45:17.999Z</time></trkpt><trkpt lat="44.13629341463436" lon="11.034819760424162"><ele>508.0</ele><time>2026-04-04T09:45:18.999Z</time></trkpt><trkpt lat="44.13641540063799" lon="11.034837823540068"><ele>507.99999999999994</ele><time>2026-04-04T09:45:19.999Z</time></trkpt><trkpt lat="44.136518206626874" lon="11.034839034617479"><ele>507.99999999999994</ele><time>2026-04-04T09:45:20.999Z</time></trkpt><trkpt lat="44.136618947937855" lon="11.03481476930932"><ele>508.0</ele><time>2026-04-04T09:45:21.999Z</time></trkpt><trkpt lat="44.13671376430424" lon="11.034759303176875"><ele>508.0</ele><time>2026-04-04T09:45:22.999Z</time></trkpt><trkpt lat="44.13678671699981" lon="11.034668523300043"><ele>507.75</ele><time>2026-04-04T09:45:23.999Z</time></trkpt><trkpt lat="44.136831874591905" lon="11.034529449771945"><ele>507.5</ele><time>2026-04-04T09:45:24.999Z</time></trkpt><trkpt lat="44.13686542561033" lon="11.034352310295816"><ele>507.25</ele><time>2026-04-04T09:45:25.999Z</time></trkpt><trkpt lat="44.13689971067418" lon="11.034165022428006"><ele>507.0</ele><time>2026-04-04T09:45:26.999Z</time></trkpt><trkpt lat="44.13693989534616" lon="11.033990161411282"><ele>508.0</ele><time>2026-04-04T09:45:27.999Z</time></trkpt><trkpt lat="44.13697308499442" lon="11.033843410559982"><ele>509.00000000000006</ele><time>2026-04-04T09:45:28.999Z</time></trkpt><trkpt lat="44.136989760983944" lon="11.033723905043708"><ele>510.00000000000006</ele><time>2026-04-04T09:45:29.999Z</time></trkpt><trkpt lat="44.136989203722145" lon="11.033602099853638"><ele>511.0</ele><time>2026-04-04T09:45:30.999Z</time></trkpt><trkpt lat="44.136978405948305" lon="11.033483845498036"><ele>512.0</ele><time>2026-04-04T09:45:31.999Z</time></trkpt><trkpt lat="44.13692344217312" lon="11.033368149163014"><ele>511.0</ele><time>2026-04-04T09:45:32.999Z</time></trkpt><trkpt lat="44.136827628644554" lon="11.033283435127656"><ele>510.0</ele><time>2026-04-04T09:45:34Z</time></trkpt><trkpt lat="44.13671569536119" lon="11.03319277680106"><ele>509.0</ele><time>2026-04-04T09:45:35Z</time></trkpt><trkpt lat="44.13658344576016" lon="11.033117753226609"><ele>508.0</ele><time>2026-04-04T09:45:36Z</time></trkpt><trkpt lat="44.136451244202256" lon="11.03302497689075"><ele>511.2</ele><time>2026-04-04T09:45:37Z</time></trkpt><trkpt lat="44.13632443799538" lon="11.032935986880325"><ele>514.4</ele><time>2026-04-04T09:45:38Z</time></trkpt><trkpt lat="44.13621429998041" lon="11.032886875761333"><ele>517.5999999999999</ele><time>2026-04-04T09:45:39Z</time></trkpt><trkpt lat="44.13613399670429" lon="11.032829941682227"><ele>520.8</ele><time>2026-04-04T09:45:40Z</time></trkpt><trkpt lat="44.13608637530555" lon="11.03276321628365"><ele>524.0</ele><time>2026-04-04T09:45:41Z</time></trkpt><trkpt lat="44.13602621988308" lon="11.032656262022694"><ele>524.0</ele><time>2026-04-04T09:45:43Z</time></trkpt><trkpt lat="44.13598216887692" lon="11.032564268318117"><ele>524.0</ele><time>2026-04-04T09:45:45Z</time></trkpt><trkpt lat="44.135972059824" lon="11.032471660539379"><ele>524.0</ele><time>2026-04-04T09:45:47Z</time></trkpt><trkpt lat="44.13597814553013" lon="11.032336842925071"><ele>524.0</ele><time>2026-04-04T09:45:49Z</time></trkpt><trkpt lat="44.13601910145983" lon="11.032186979835915"><ele>524.0</ele><time>2026-04-04T09:45:51Z</time></trkpt><trkpt lat="44.13604338462209" lon="11.032105596964591"><ele>524.0</ele><time>2026-04-04T09:45:52Z</time></trkpt><trkpt lat="44.136069081734014" lon="11.032020450910858"><ele>524.3333333333333</ele><time>2026-04-04T09:45:53Z</time></trkpt><trkpt lat="44.13609245203775" lon="11.031930317162347"><ele>524.6666666666666</ele><time>2026-04-04T09:45:54Z</time></trkpt><trkpt lat="44.13611692655556" lon="11.031833141546288"><ele>525.0</ele><time>2026-04-04T09:45:55Z</time></trkpt><trkpt lat="44.13614152748321" lon="11.031734210721476"><ele>525.3333333333334</ele><time>2026-04-04T09:45:56Z</time></trkpt><trkpt lat="44.136171310568265" lon="11.031634765713273"><ele>525.6666666666667</ele><time>2026-04-04T09:45:57Z</time></trkpt><trkpt lat="44.13620116131997" lon="11.03153111509598"><ele>526.0</ele><time>2026-04-04T09:45:58Z</time></trkpt><trkpt lat="44.13622699527897" lon="11.031422702569222"><ele>528.2</ele><time>2026-04-04T09:45:59Z</time></trkpt><trkpt lat="44.136255580355865" lon="11.031305924778865"><ele>530.4000000000001</ele><time>2026-04-04T09:46:00Z</time></trkpt><trkpt lat="44.13629330094093" lon="11.031173560740344"><ele>532.6</ele><time>2026-04-04T09:46:01Z</time></trkpt><trkpt lat="44.136340434621054" lon="11.031021880520377"><ele>534.8000000000001</ele><time>2026-04-04T09:46:02Z</time></trkpt><trkpt lat="44.13639897863043" lon="11.030882545889583"><ele>537.0</ele><time>2026-04-04T09:46:03Z</time></trkpt><trkpt lat="44.13647247080378" lon="11.030747766992492"><ele>536.75</ele><time>2026-04-04T09:46:04Z</time></trkpt><trkpt lat="44.136553334680286" lon="11.03061562412107"><ele>536.5</ele><time>2026-04-04T09:46:05Z</time></trkpt><trkpt lat="44.13663713125658" lon="11.030481686838593"><ele>536.25</ele><time>2026-04-04T09:46:06Z</time></trkpt><trkpt lat="44.136731714521176" lon="11.03035271098374"><ele>536.0</ele><time>2026-04-04T09:46:07Z</time></trkpt><trkpt lat="44.136822336547894" lon="11.030262731068921"><ele>536.0</ele><time>2026-04-04T09:46:08Z</time></trkpt><trkpt lat="44.13690921252202" lon="11.030204582320888"><ele>536.0</ele><time>2026-04-04T09:46:09Z</time></trkpt><trkpt lat="44.13699346840832" lon="11.030150936156973"><ele>536.0</ele><time>2026-04-04T09:46:10Z</time></trkpt><trkpt lat="44.137057553919455" lon="11.030091477508753"><ele>536.0</ele><time>2026-04-04T09:46:11Z</time></trkpt><trkpt lat="44.13708730449487" lon="11.030003622041892"><ele>536.0</ele><time>2026-04-04T09:46:12Z</time></trkpt><trkpt lat="44.13708227169628" lon="11.029895842599329"><ele>536.0</ele><time>2026-04-04T09:46:13Z</time></trkpt><trkpt lat="44.137060922600035" lon="11.029789327631699"><ele>539.6</ele><time>2026-04-04T09:46:14Z</time></trkpt><trkpt lat="44.13699290049825" lon="11.029711697932612"><ele>543.2</ele><time>2026-04-04T09:46:15Z</time></trkpt><trkpt lat="44.13690120708331" lon="11.029684627422064"><ele>546.8</ele><time>2026-04-04T09:46:16Z</time></trkpt><trkpt lat="44.13680295343326" lon="11.029779642181477"><ele>550.4</ele><time>2026-04-04T09:46:17Z</time></trkpt><trkpt lat="44.13672260594922" lon="11.029856443796007"><ele>554.0</ele><time>2026-04-04T09:46:18Z</time></trkpt><trkpt lat="44.13663865486393" lon="11.029944586412485"><ele>554.0</ele><time>2026-04-04T09:46:19Z</time></trkpt><trkpt lat="44.136537040123656" lon="11.030022095135863"><ele>554.0</ele><time>2026-04-04T09:46:20Z</time></trkpt><trkpt lat="44.13644864869568" lon="11.030139225094683"><ele>554.0</ele><time>2026-04-04T09:46:21Z</time></trkpt><trkpt lat="44.13635913301791" lon="11.030265376520747"><ele>554.0</ele><time>2026-04-04T09:46:22Z</time></trkpt><trkpt lat="44.1362711521193" lon="11.030385431571215"><ele>554.0</ele><time>2026-04-04T09:46:23Z</time></trkpt><trkpt lat="44.13619589649806" lon="11.030488511092221"><ele>554.0</ele><time>2026-04-04T09:46:24Z</time></trkpt><trkpt lat="44.13610564569185" lon="11.030525129425568"><ele>554.0</ele><time>2026-04-04T09:46:25Z</time></trkpt><trkpt lat="44.13600103764005" lon="11.030560127720578"><ele>554.0</ele><time>2026-04-04T09:46:26Z</time></trkpt><trkpt lat="44.135888909932476" lon="11.030610227795869"><ele>554.0</ele><time>2026-04-04T09:46:27Z</time></trkpt><trkpt lat="44.13578422650656" lon="11.030689769221434"><ele>558.2</ele><time>2026-04-04T09:46:28Z</time></trkpt><trkpt lat="44.13570307370968" lon="11.030753635952115"><ele>562.4</ele><time>2026-04-04T09:46:29Z</time></trkpt><trkpt lat="44.13563967101789" lon="11.030793415898517"><ele>566.6</ele><time>2026-04-04T09:46:30Z</time></trkpt><trkpt lat="44.135535548989125" lon="11.030773094228868"><ele>570.8</ele><time>2026-04-04T09:46:32Z</time></trkpt><trkpt lat="44.13549870953182" lon="11.030624722242335"><ele>575.0</ele><time>2026-04-04T09:46:34Z</time></trkpt><trkpt lat="44.13553734780829" lon="11.030532554673716"><ele>575.0</ele><time>2026-04-04T09:46:35Z</time></trkpt><trkpt lat="44.135604917758485" lon="11.030456848822034"><ele>575.0</ele><time>2026-04-04T09:46:36Z</time></trkpt><trkpt lat="44.13567800572169" lon="11.030370141234117"><ele>575.0</ele><time>2026-04-04T09:46:37Z</time></trkpt><trkpt lat="44.135757814322545" lon="11.030289232776209"><ele>575.0</ele><time>2026-04-04T09:46:38Z</time></trkpt><trkpt lat="44.13583657727428" lon="11.030213355038477"><ele>575.0</ele><time>2026-04-04T09:46:39Z</time></trkpt><trkpt lat="44.1359114625754" lon="11.030135805546646"><ele>574.8</ele><time>2026-04-04T09:46:40Z</time></trkpt><trkpt lat="44.13599157406534" lon="11.030051537677938"><ele>574.6</ele><time>2026-04-04T09:46:41Z</time></trkpt><trkpt lat="44.13608846663369" lon="11.029976524916353"><ele>574.4</ele><time>2026-04-04T09:46:42Z</time></trkpt><trkpt lat="44.13619201637824" lon="11.02992404666165"><ele>574.2</ele><time>2026-04-04T09:46:43Z</time></trkpt><trkpt lat="44.13629705286867" lon="11.029861532973378"><ele>574.0</ele><time>2026-04-04T09:46:44Z</time></trkpt><trkpt lat="44.13637217556604" lon="11.029792619129704"><ele>574.0</ele><time>2026-04-04T09:46:45Z</time></trkpt><trkpt lat="44.136396784136096" lon="11.029644670529617"><ele>574.0</ele><time>2026-04-04T09:46:47Z</time></trkpt><trkpt lat="44.13636044239011" lon="11.029550324998908"><ele>574.0</ele><time>2026-04-04T09:46:48Z</time></trkpt><trkpt lat="44.136297445589626" lon="11.029463787909718"><ele>574.0</ele><time>2026-04-04T09:46:49Z</time></trkpt><trkpt lat="44.13619029830362" lon="11.02947306789311"><ele>574.0</ele><time>2026-04-04T09:46:50Z</time></trkpt><trkpt lat="44.13608958151717" lon="11.029493833100272"><ele>574.0</ele><time>2026-04-04T09:46:51Z</time></trkpt><trkpt lat="44.13598758256662" lon="11.029601043100147"><ele>574.0</ele><time>2026-04-04T09:46:52Z</time></trkpt><trkpt lat="44.1358762219824" lon="11.029735161033035"><ele>574.0</ele><time>2026-04-04T09:46:53Z</time></trkpt><trkpt lat="44.135764904234456" lon="11.029871042971308"><ele>574.0</ele><time>2026-04-04T09:46:54Z</time></trkpt><trkpt lat="44.135640265187206" lon="11.029998338295613"><ele>574.25</ele><time>2026-04-04T09:46:55Z</time></trkpt><trkpt lat="44.135512486079314" lon="11.03010002753421"><ele>574.5</ele><time>2026-04-04T09:46:56Z</time></trkpt><trkpt lat="44.135400820200665" lon="11.030198466350988"><ele>574.75</ele><time>2026-04-04T09:46:57Z</time></trkpt><trkpt lat="44.13531047403061" lon="11.030356343751434"><ele>575.0</ele><time>2026-04-04T09:46:58Z</time></trkpt><trkpt lat="44.135222161176316" lon="11.030542594562743"><ele>575.0</ele><time>2026-04-04T09:46:59Z</time></trkpt><trkpt lat="44.135121822094035" lon="11.03077057776236"><ele>575.0</ele><time>2026-04-04T09:47:00Z</time></trkpt><trkpt lat="44.13502106317631" lon="11.03099387552648"><ele>575.0</ele><time>2026-04-04T09:47:01Z</time></trkpt><trkpt lat="44.13490516331972" lon="11.031243051203644"><ele>578.6666666666666</ele><time>2026-04-04T09:47:02Z</time></trkpt><trkpt lat="44.13476871164682" lon="11.031475039347127"><ele>582.3333333333334</ele><time>2026-04-04T09:47:03Z</time></trkpt><trkpt lat="44.1346582974154" lon="11.031705201917921"><ele>586.0</ele><time>2026-04-04T09:47:04Z</time></trkpt><trkpt lat="44.13456230430808" lon="11.031902937015856"><ele>586.0</ele><time>2026-04-04T09:47:05Z</time></trkpt><trkpt lat="44.1344889710647" lon="11.03209485397678"><ele>586.0</ele><time>2026-04-04T09:47:06Z</time></trkpt><trkpt lat="44.13441538964364" lon="11.032264732213926"><ele>586.0</ele><time>2026-04-04T09:47:07Z</time></trkpt><trkpt lat="44.13432985061642" lon="11.032426439508422"><ele>586.0</ele><time>2026-04-04T09:47:08Z</time></trkpt><trkpt lat="44.134261825938076" lon="11.03259390515383"><ele>582.5</ele><time>2026-04-04T09:47:09Z</time></trkpt><trkpt lat="44.134217952957066" lon="11.032759253871905"><ele>579.0</ele><time>2026-04-04T09:47:10Z</time></trkpt><trkpt lat="44.13417415730664" lon="11.03290844025487"><ele>575.5</ele><time>2026-04-04T09:47:11Z</time></trkpt><trkpt lat="44.1341412760731" lon="11.03306648639812"><ele>572.0</ele><time>2026-04-04T09:47:12Z</time></trkpt><trkpt lat="44.13410336414609" lon="11.033185175379577"><ele>572.0</ele><time>2026-04-04T09:47:13Z</time></trkpt><trkpt lat="44.13407127452714" lon="11.033301491348855"><ele>572.0</ele><time>2026-04-04T09:47:14Z</time></trkpt><trkpt lat="44.13403430099321" lon="11.033399838888814"><ele>572.0</ele><time>2026-04-04T09:47:15Z</time></trkpt><trkpt lat="44.13399968207703" lon="11.033478048171201"><ele>572.0</ele><time>2026-04-04T09:47:16Z</time></trkpt><trkpt lat="44.13391748966176" lon="11.033529734524329"><ele>572.0</ele><time>2026-04-04T09:47:18Z</time></trkpt><trkpt lat="44.13388188998182" lon="11.033441426604483"><ele>572.0</ele><time>2026-04-04T09:47:20Z</time></trkpt><trkpt lat="44.133795967774226" lon="11.033542671933978"><ele>545.0</ele><time>2026-04-04T09:47:26Z</time></trkpt></trkseg><trkseg><trkpt lat="44.13384220457872" lon="11.033610773291212"><ele>545.0</ele><time>2026-04-04T10:08:25Z</time></trkpt><trkpt lat="44.133921574755746" lon="11.033514518844173"><ele>545.0</ele><time>2026-04-04T10:08:27Z</time></trkpt><trkpt lat="44.13386479282841" lon="11.033464063086502"><ele>545.0</ele><time>2026-04-04T10:08:28Z</time></trkpt><trkpt lat="44.13387616054984" lon="11.033288634573758"><ele>545.0</ele><time>2026-04-04T10:08:30Z</time></trkpt><trkpt lat="44.13392165425346" lon="11.033175700347904"><ele>545.0</ele><time>2026-04-04T10:08:31Z</time></trkpt><trkpt lat="44.133967257154865" lon="11.033057465656025"><ele>548.25</ele><time>2026-04-04T10:08:32Z</time></trkpt><trkpt lat="44.13399817976434" lon="11.032917132276625"><ele>551.5</ele><time>2026-04-04T10:08:33Z</time></trkpt><trkpt lat="44.13403145205348" lon="11.032750618755458"><ele>554.75</ele><time>2026-04-04T10:08:34Z</time></trkpt><trkpt lat="44.13406863583508" lon="11.032586520243196"><ele>558.0</ele><time>2026-04-04T10:08:35Z</time></trkpt><trkpt lat="44.13412004013921" lon="11.03242101246279"><ele>565.0</ele><time>2026-04-04T10:08:36Z</time></trkpt><trkpt lat="44.1341855461133" lon="11.032253370451956"><ele>572.0</ele><time>2026-04-04T10:08:37Z</time></trkpt><trkpt lat="44.13425388442462" lon="11.03207869704796"><ele>579.0</ele><time>2026-04-04T10:08:38Z</time></trkpt><trkpt lat="44.13430130261726" lon="11.031895261544387"><ele>586.0</ele><time>2026-04-04T10:08:39Z</time></trkpt><trkpt lat="44.13433806309893" lon="11.031708003450616"><ele>588.25</ele><time>2026-04-04T10:08:40Z</time></trkpt><trkpt lat="44.1344177044216" lon="11.03155873144081"><ele>590.5</ele><time>2026-04-04T10:08:41Z</time></trkpt><trkpt lat="44.134464232195114" lon="11.031390917766778"><ele>592.75</ele><time>2026-04-04T10:08:42Z</time></trkpt><trkpt lat="44.134534567256665" lon="11.031228052647709"><ele>595.0</ele><time>2026-04-04T10:08:43Z</time></trkpt><trkpt lat="44.13458810299415" lon="11.031055183699094"><ele>595.0</ele><time>2026-04-04T10:08:44Z</time></trkpt><trkpt lat="44.134643042020855" lon="11.030896498183377"><ele>595.0</ele><time>2026-04-04T10:08:45Z</time></trkpt><trkpt lat="44.13468908681124" lon="11.030757581150445"><ele>595.0</ele><time>2026-04-04T10:08:46Z</time></trkpt><trkpt lat="44.134731353987966" lon="11.030630074293809"><ele>595.0</ele><time>2026-04-04T10:08:47Z</time></trkpt><trkpt lat="44.13476536723285" lon="11.030502808636204"><ele>595.0</ele><time>2026-04-04T10:08:48Z</time></trkpt><trkpt lat="44.13476238207823" lon="11.03037742803431"><ele>593.25</ele><time>2026-04-04T10:08:49Z</time></trkpt><trkpt lat="44.134714180377976" lon="11.030272092250469"><ele>591.5</ele><time>2026-04-04T10:08:50Z</time></trkpt><trkpt lat="44.134646609236455" lon="11.030129249103117"><ele>589.75</ele><time>2026-04-04T10:08:51Z</time></trkpt><trkpt lat="44.134578934690886" lon="11.029985431973024"><ele>588.0</ele><time>2026-04-04T10:08:52Z</time></trkpt><trkpt lat="44.13452502318731" lon="11.0298326885156"><ele>586.0</ele><time>2026-04-04T10:08:53Z</time></trkpt><trkpt lat="44.1344895164136" lon="11.029667388460439"><ele>584.0</ele><time>2026-04-04T10:08:54Z</time></trkpt><trkpt lat="44.1344562174709" lon="11.029498599713973"><ele>582.0</ele><time>2026-04-04T10:08:55Z</time></trkpt><trkpt lat="44.1344280746755" lon="11.029338840201383"><ele>580.0</ele><time>2026-04-04T10:08:56Z</time></trkpt><trkpt lat="44.13439994873572" lon="11.029204092098798"><ele>580.6</ele><time>2026-04-04T10:08:57Z</time></trkpt><trkpt lat="44.13441027630309" lon="11.029072716167839"><ele>581.2</ele><time>2026-04-04T10:08:58Z</time></trkpt><trkpt lat="44.13445042498618" lon="11.028955357445904"><ele>581.8</ele><time>2026-04-04T10:08:59Z</time></trkpt><trkpt lat="44.13451210407288" lon="11.0288348978279"><ele>582.4</ele><time>2026-04-04T10:09:00Z</time></trkpt><trkpt lat="44.134563384318085" lon="11.028705803793434"><ele>583.0</ele><time>2026-04-04T10:09:01Z</time></trkpt><trkpt lat="44.13460988249331" lon="11.028568228414889"><ele>583.0</ele><time>2026-04-04T10:09:02Z</time></trkpt><trkpt lat="44.13465790228708" lon="11.028438784473872"><ele>583.0</ele><time>2026-04-04T10:09:03Z</time></trkpt><trkpt lat="44.13471184537222" lon="11.028316396685742"><ele>583.0</ele><time>2026-04-04T10:09:04Z</time></trkpt><trkpt lat="44.1347669793098" lon="11.028187117670857"><ele>583.0</ele><time>2026-04-04T10:09:05Z</time></trkpt><trkpt lat="44.13481547471947" lon="11.028047498421188"><ele>583.0</ele><time>2026-04-04T10:09:06Z</time></trkpt><trkpt lat="44.13485468600278" lon="11.02792420918193"><ele>584.0</ele><time>2026-04-04T10:09:07Z</time></trkpt><trkpt lat="44.13487180171502" lon="11.02781242982492"><ele>585.0</ele><time>2026-04-04T10:09:08Z</time></trkpt><trkpt lat="44.13488854189254" lon="11.027702428223543"><ele>586.0</ele><time>2026-04-04T10:09:09Z</time></trkpt><trkpt lat="44.134865830033796" lon="11.02757426359545"><ele>587.0</ele><time>2026-04-04T10:09:10Z</time></trkpt><trkpt lat="44.134816452146765" lon="11.027443387466514"><ele>588.0</ele><time>2026-04-04T10:09:11Z</time></trkpt><trkpt lat="44.134755777241494" lon="11.027329961137715"><ele>589.8</ele><time>2026-04-04T10:09:12Z</time></trkpt><trkpt lat="44.134666595725854" lon="11.027233977580366"><ele>591.5999999999999</ele><time>2026-04-04T10:09:13Z</time></trkpt><trkpt lat="44.134572379622924" lon="11.02716252724528"><ele>593.4000000000001</ele><time>2026-04-04T10:09:14Z</time></trkpt><trkpt lat="44.134484624813595" lon="11.027091701478104"><ele>595.2</ele><time>2026-04-04T10:09:15Z</time></trkpt><trkpt lat="44.13442110216913" lon="11.027006215819764"><ele>597.0</ele><time>2026-04-04T10:09:16Z</time></trkpt><trkpt lat="44.13438846638864" lon="11.026895645289594"><ele>597.0</ele><time>2026-04-04T10:09:17Z</time></trkpt><trkpt lat="44.13433705704227" lon="11.026743376664887"><ele>597.0</ele><time>2026-04-04T10:09:18Z</time></trkpt><trkpt lat="44.13427337580789" lon="11.026604135547"><ele>597.0</ele><time>2026-04-04T10:09:19Z</time></trkpt><trkpt lat="44.13418565643197" lon="11.026474644969342"><ele>597.0</ele><time>2026-04-04T10:09:20Z</time></trkpt><trkpt lat="44.13412658800554" lon="11.026345887576682"><ele>599.4</ele><time>2026-04-04T10:09:21Z</time></trkpt><trkpt lat="44.13408415584992" lon="11.026211553012692"><ele>601.8000000000001</ele><time>2026-04-04T10:09:22Z</time></trkpt><trkpt lat="44.13402613542993" lon="11.026099778161893"><ele>604.2</ele><time>2026-04-04T10:09:23Z</time></trkpt><trkpt lat="44.13391746495158" lon="11.026031163537"><ele>606.6</ele><time>2026-04-04T10:09:24Z</time></trkpt><trkpt lat="44.1337996874997" lon="11.025996166617462"><ele>609.0</ele><time>2026-04-04T10:09:25Z</time></trkpt><trkpt lat="44.13367435139429" lon="11.02597274459508"><ele>609.0</ele><time>2026-04-04T10:09:26Z</time></trkpt><trkpt lat="44.1335440900738" lon="11.025963209641981"><ele>609.0</ele><time>2026-04-04T10:09:27Z</time></trkpt><trkpt lat="44.13343026372786" lon="11.02594208545127"><ele>609.0</ele><time>2026-04-04T10:09:28Z</time></trkpt><trkpt lat="44.133344703358475" lon="11.025900199144019"><ele>609.0</ele><time>2026-04-04T10:09:29Z</time></trkpt><trkpt lat="44.133275049428526" lon="11.02582619509647"><ele>609.0</ele><time>2026-04-04T10:09:30Z</time></trkpt><trkpt lat="44.1332046023662" lon="11.02572447867741"><ele>611.2</ele><time>2026-04-04T10:09:31Z</time></trkpt><trkpt lat="44.133100901249186" lon="11.025640236089403"><ele>613.4</ele><time>2026-04-04T10:09:32Z</time></trkpt><trkpt lat="44.13297593667784" lon="11.025661384825645"><ele>615.6</ele><time>2026-04-04T10:09:33Z</time></trkpt><trkpt lat="44.13286893638415" lon="11.025643124587436"><ele>617.8</ele><time>2026-04-04T10:09:34Z</time></trkpt><trkpt lat="44.13279176700664" lon="11.025627360607045"><ele>620.0</ele><time>2026-04-04T10:09:35Z</time></trkpt><trkpt lat="44.13274940822199" lon="11.025527704994857"><ele>620.0</ele><time>2026-04-04T10:09:36Z</time></trkpt><trkpt lat="44.132655855096836" lon="11.02544889704357"><ele>620.0</ele><time>2026-04-04T10:09:37Z</time></trkpt><trkpt lat="44.13256034170734" lon="11.025366923147724"><ele>620.0</ele><time>2026-04-04T10:09:38Z</time></trkpt><trkpt lat="44.1324640570658" lon="11.025274979229042"><ele>620.0</ele><time>2026-04-04T10:09:39Z</time></trkpt><trkpt lat="44.13235545537858" lon="11.025184842112974"><ele>619.25</ele><time>2026-04-04T10:09:40Z</time></trkpt><trkpt lat="44.132214230231604" lon="11.02513733367722"><ele>618.5</ele><time>2026-04-04T10:09:41Z</time></trkpt><trkpt lat="44.13207805987896" lon="11.025104143951182"><ele>617.75</ele><time>2026-04-04T10:09:42Z</time></trkpt><trkpt lat="44.13194050775554" lon="11.025071557015611"><ele>617.0</ele><time>2026-04-04T10:09:43Z</time></trkpt><trkpt lat="44.131798555521584" lon="11.025038561299223"><ele>617.0</ele><time>2026-04-04T10:09:44Z</time></trkpt><trkpt lat="44.13166844980466" lon="11.025004286586995"><ele>617.0</ele><time>2026-04-04T10:09:45Z</time></trkpt><trkpt lat="44.13155231328243" lon="11.024968704088801"><ele>617.0</ele><time>2026-04-04T10:09:46Z</time></trkpt><trkpt lat="44.1314565531808" lon="11.024906338322701"><ele>617.0</ele><time>2026-04-04T10:09:47Z</time></trkpt><trkpt lat="44.13135911346606" lon="11.02481041827936"><ele>617.2</ele><time>2026-04-04T10:09:48Z</time></trkpt><trkpt lat="44.13125654074541" lon="11.024709026810989"><ele>617.4000000000001</ele><time>2026-04-04T10:09:49Z</time></trkpt><trkpt lat="44.13116773643454" lon="11.024613839866257"><ele>617.5999999999999</ele><time>2026-04-04T10:09:50Z</time></trkpt><trkpt lat="44.131096172546705" lon="11.024514432717583"><ele>617.8</ele><time>2026-04-04T10:09:51Z</time></trkpt><trkpt lat="44.13105681828369" lon="11.024390760392828"><ele>618.0</ele><time>2026-04-04T10:09:52Z</time></trkpt><trkpt lat="44.13103236824343" lon="11.024251252256292"><ele>619.5</ele><time>2026-04-04T10:09:53Z</time></trkpt><trkpt lat="44.1310063604672" lon="11.024091018156403"><ele>621.0</ele><time>2026-04-04T10:09:54Z</time></trkpt><trkpt lat="44.1309946867113" lon="11.023906925210529"><ele>622.5</ele><time>2026-04-04T10:09:55Z</time></trkpt><trkpt lat="44.130987089392804" lon="11.023713814245497"><ele>624.0</ele><time>2026-04-04T10:09:56Z</time></trkpt><trkpt lat="44.130963091575985" lon="11.023510864568443"><ele>624.0</ele><time>2026-04-04T10:09:57Z</time></trkpt><trkpt lat="44.13095206696835" lon="11.023318227571835"><ele>624.0</ele><time>2026-04-04T10:09:58Z</time></trkpt><trkpt lat="44.130940337148445" lon="11.0231509465171"><ele>624.0</ele><time>2026-04-04T10:09:59Z</time></trkpt><trkpt lat="44.13092860068519" lon="11.022997272754381"><ele>624.0</ele><time>2026-04-04T10:10:00Z</time></trkpt><trkpt lat="44.13090548937012" lon="11.022860252760138"><ele>625.0</ele><time>2026-04-04T10:10:01Z</time></trkpt><trkpt lat="44.130863816500764" lon="11.022747955405379"><ele>626.0</ele><time>2026-04-04T10:10:02Z</time></trkpt><trkpt lat="44.13081184627874" lon="11.022655355212331"><ele>627.0</ele><time>2026-04-04T10:10:03Z</time></trkpt><trkpt lat="44.130713954250965" lon="11.02261103237428"><ele>628.0</ele><time>2026-04-04T10:10:04Z</time></trkpt><trkpt lat="44.13058811346624" lon="11.022649573103694"><ele>629.0</ele><time>2026-04-04T10:10:05Z</time></trkpt><trkpt lat="44.13047012537136" lon="11.022672262540409"><ele>629.0</ele><time>2026-04-04T10:10:06Z</time></trkpt><trkpt lat="44.13034990425779" lon="11.02270185677724"><ele>629.0</ele><time>2026-04-04T10:10:07Z</time></trkpt><trkpt lat="44.13025984672842" lon="11.02272050291628"><ele>629.0</ele><time>2026-04-04T10:10:08Z</time></trkpt><trkpt lat="44.1301905609291" lon="11.022722396162283"><ele>629.0</ele><time>2026-04-04T10:10:09Z</time></trkpt><trkpt lat="44.13009692509399" lon="11.02259512745996"><ele>629.0</ele><time>2026-04-04T10:10:11Z</time></trkpt><trkpt lat="44.13003415494248" lon="11.022481076269882"><ele>627.75</ele><time>2026-04-04T10:10:12Z</time></trkpt><trkpt lat="44.12998766692423" lon="11.022322269349145"><ele>626.5</ele><time>2026-04-04T10:10:13Z</time></trkpt><trkpt lat="44.12994947659821" lon="11.022166620547214"><ele>625.25</ele><time>2026-04-04T10:10:14Z</time></trkpt><trkpt lat="44.129910175957285" lon="11.022017009515707"><ele>624.0</ele><time>2026-04-04T10:10:15Z</time></trkpt><trkpt lat="44.129814094134304" lon="11.021887950160606"><ele>624.0</ele><time>2026-04-04T10:10:16Z</time></trkpt><trkpt lat="44.12971617045122" lon="11.021742471697994"><ele>624.0</ele><time>2026-04-04T10:10:17Z</time></trkpt><trkpt lat="44.12960461894235" lon="11.021616101354844"><ele>624.0</ele><time>2026-04-04T10:10:18Z</time></trkpt><trkpt lat="44.129517265006015" lon="11.021472122037324"><ele>624.0</ele><time>2026-04-04T10:10:19Z</time></trkpt><trkpt lat="44.12943734075393" lon="11.021314245880289"><ele>626.0</ele><time>2026-04-04T10:10:20Z</time></trkpt><trkpt lat="44.12932814123577" lon="11.021202694375388"><ele>628.0</ele><time>2026-04-04T10:10:21Z</time></trkpt><trkpt lat="44.129213073379894" lon="11.021098835799059"><ele>630.0</ele><time>2026-04-04T10:10:22Z</time></trkpt><trkpt lat="44.12911491669219" lon="11.020968879541202"><ele>632.0</ele><time>2026-04-04T10:10:23Z</time></trkpt><trkpt lat="44.1290176632182" lon="11.020861159387074"><ele>633.2</ele><time>2026-04-04T10:10:24Z</time></trkpt><trkpt lat="44.1289294049287" lon="11.020760910589951"><ele>634.4000000000001</ele><time>2026-04-04T10:10:25Z</time></trkpt><trkpt lat="44.128842409705776" lon="11.020680039296833"><ele>635.5999999999999</ele><time>2026-04-04T10:10:26Z</time></trkpt><trkpt lat="44.12879041585337" lon="11.020583002959961"><ele>636.8</ele><time>2026-04-04T10:10:27Z</time></trkpt><trkpt lat="44.128757300889504" lon="11.020492126668278"><ele>638.0</ele><time>2026-04-04T10:10:28Z</time></trkpt><trkpt lat="44.128739730690455" lon="11.020355618988946"><ele>638.0</ele><time>2026-04-04T10:10:30Z</time></trkpt><trkpt lat="44.128722890259446" lon="11.02026703702627"><ele>638.0</ele><time>2026-04-04T10:10:33Z</time></trkpt><trkpt lat="44.128622158158656" lon="11.020139890681582"><ele>638.0</ele><time>2026-04-04T10:10:36Z</time></trkpt><trkpt lat="44.128543721806714" lon="11.020100147877146"><ele>638.0</ele><time>2026-04-04T10:10:37Z</time></trkpt><trkpt lat="44.128454845563915" lon="11.020056986036519"><ele>638.0</ele><time>2026-04-04T10:10:38Z</time></trkpt><trkpt lat="44.128357380098585" lon="11.020013566621872"><ele>635.5</ele><time>2026-04-04T10:10:39Z</time></trkpt><trkpt lat="44.12824366597885" lon="11.019970746609296"><ele>633.0</ele><time>2026-04-04T10:10:40Z</time></trkpt><trkpt lat="44.12812345153831" lon="11.019932687212785"><ele>630.5</ele><time>2026-04-04T10:10:41Z</time></trkpt><trkpt lat="44.127992826579494" lon="11.019896043812054"><ele>628.0</ele><time>2026-04-04T10:10:42Z</time></trkpt><trkpt lat="44.12785535322458" lon="11.019868613082936"><ele>628.0</ele><time>2026-04-04T10:10:43Z</time></trkpt><trkpt lat="44.12771806482398" lon="11.019848928080142"><ele>628.0</ele><time>2026-04-04T10:10:44Z</time></trkpt><trkpt lat="44.127590901115724" lon="11.019823194295464"><ele>628.0</ele><time>2026-04-04T10:10:45Z</time></trkpt><trkpt lat="44.12746056513197" lon="11.019781148239167"><ele>628.0</ele><time>2026-04-04T10:10:46Z</time></trkpt><trkpt lat="44.127329279290265" lon="11.019726064347754"><ele>629.25</ele><time>2026-04-04T10:10:47Z</time></trkpt><trkpt lat="44.1271992095743" lon="11.019658184019677"><ele>630.5</ele><time>2026-04-04T10:10:48Z</time></trkpt><trkpt lat="44.1270651150094" lon="11.019580057276649"><ele>631.75</ele><time>2026-04-04T10:10:49Z</time></trkpt><trkpt lat="44.126927330998775" lon="11.01949148842872"><ele>633.0</ele><time>2026-04-04T10:10:50Z</time></trkpt><trkpt lat="44.1267975048707" lon="11.019404546731849"><ele>633.0</ele><time>2026-04-04T10:10:51Z</time></trkpt><trkpt lat="44.12667160900067" lon="11.019336318647902"><ele>633.0</ele><time>2026-04-04T10:10:52Z</time></trkpt><trkpt lat="44.12654366739441" lon="11.019284998754138"><ele>633.0</ele><time>2026-04-04T10:10:53Z</time></trkpt><trkpt lat="44.126421024318034" lon="11.019254625034085"><ele>633.0</ele><time>2026-04-04T10:10:54Z</time></trkpt><trkpt lat="44.12630360895426" lon="11.019251387279594"><ele>632.5</ele><time>2026-04-04T10:10:55Z</time></trkpt><trkpt lat="44.126188541121216" lon="11.019270603694352"><ele>632.0</ele><time>2026-04-04T10:10:56Z</time></trkpt><trkpt lat="44.12608094682632" lon="11.019322591542064"><ele>631.5</ele><time>2026-04-04T10:10:57Z</time></trkpt><trkpt lat="44.125980618128075" lon="11.019387440334674"><ele>631.0</ele><time>2026-04-04T10:10:58Z</time></trkpt><trkpt lat="44.12587647761104" lon="11.019448914934799"><ele>631.0</ele><time>2026-04-04T10:10:59Z</time></trkpt><trkpt lat="44.125769924091976" lon="11.01950964052781"><ele>631.0</ele><time>2026-04-04T10:11:00Z</time></trkpt><trkpt lat="44.1256613884145" lon="11.019561674767344"><ele>631.0</ele><time>2026-04-04T10:11:01Z</time></trkpt><trkpt lat="44.12555319034825" lon="11.019602463100771"><ele>631.0</ele><time>2026-04-04T10:11:02Z</time></trkpt><trkpt lat="44.12544847728968" lon="11.019633965131183"><ele>631.0</ele><time>2026-04-04T10:11:03Z</time></trkpt><trkpt lat="44.12534896609214" lon="11.019649123941758"><ele>629.4</ele><time>2026-04-04T10:11:04Z</time></trkpt><trkpt lat="44.125244029138514" lon="11.019655188562304"><ele>627.8</ele><time>2026-04-04T10:11:05Z</time></trkpt><trkpt lat="44.12515164860094" lon="11.019673287499424"><ele>626.1999999999999</ele><time>2026-04-04T10:11:06Z</time></trkpt><trkpt lat="44.12506081514717" lon="11.019711202858929"><ele>624.6</ele><time>2026-04-04T10:11:07Z</time></trkpt><trkpt lat="44.12497391196355" lon="11.019782381375466"><ele>623.0</ele><time>2026-04-04T10:11:08Z</time></trkpt><trkpt lat="44.124894193196326" lon="11.019855516658401"><ele>622.1999999999999</ele><time>2026-04-04T10:11:09Z</time></trkpt><trkpt lat="44.12482768263114" lon="11.019921095949638"><ele>621.4</ele><time>2026-04-04T10:11:10Z</time></trkpt><trkpt lat="44.1247623715821" lon="11.019985492503883"><ele>620.5999999999999</ele><time>2026-04-04T10:11:12Z</time></trkpt><trkpt lat="44.12468982356224" lon="11.020082858022093"><ele>619.8</ele><time>2026-04-04T10:11:15Z</time></trkpt><trkpt lat="44.12458294821736" lon="11.020151141617074"><ele>619.0</ele><time>2026-04-04T10:11:17Z</time></trkpt><trkpt lat="44.1244488228283" lon="11.02010238944512"><ele>619.0</ele><time>2026-04-04T10:11:19Z</time></trkpt><trkpt lat="44.124376671056595" lon="11.020077553578373"><ele>619.0</ele><time>2026-04-04T10:11:20Z</time></trkpt><trkpt lat="44.12429374775539" lon="11.02004900951191"><ele>619.0</ele><time>2026-04-04T10:11:21Z</time></trkpt><trkpt lat="44.12420809532489" lon="11.020006562322548"><ele>619.0</ele><time>2026-04-04T10:11:22Z</time></trkpt><trkpt lat="44.12411310589628" lon="11.019952025922523"><ele>619.0</ele><time>2026-04-04T10:11:23Z</time></trkpt><trkpt lat="44.12401697878035" lon="11.019902267548549"><ele>622.2</ele><time>2026-04-04T10:11:24Z</time></trkpt><trkpt lat="44.123916167495075" lon="11.01985069640745"><ele>625.4</ele><time>2026-04-04T10:11:25Z</time></trkpt><trkpt lat="44.12381348110795" lon="11.019797225562398"><ele>628.6</ele><time>2026-04-04T10:11:26Z</time></trkpt><trkpt lat="44.12370284287715" lon="11.019738987502032"><ele>631.8</ele><time>2026-04-04T10:11:27Z</time></trkpt><trkpt lat="44.12359326606456" lon="11.019699650701067"><ele>635.0</ele><time>2026-04-04T10:11:28Z</time></trkpt><trkpt lat="44.12349781693409" lon="11.01968478518278"><ele>635.0</ele><time>2026-04-04T10:11:29Z</time></trkpt><trkpt lat="44.12341166128352" lon="11.019639761131318"><ele>635.0</ele><time>2026-04-04T10:11:30Z</time></trkpt><trkpt lat="44.12332765682054" lon="11.019583795903447"><ele>635.0</ele><time>2026-04-04T10:11:31Z</time></trkpt><trkpt lat="44.12325263622129" lon="11.019498750399208"><ele>635.0</ele><time>2026-04-04T10:11:32Z</time></trkpt><trkpt lat="44.123173357879985" lon="11.019417924768012"><ele>635.0</ele><time>2026-04-04T10:11:33Z</time></trkpt><trkpt lat="44.12311679711085" lon="11.019301599787939"><ele>633.8</ele><time>2026-04-04T10:11:34Z</time></trkpt><trkpt lat="44.123104509679514" lon="11.019163119819627"><ele>632.6</ele><time>2026-04-04T10:11:35Z</time></trkpt><trkpt lat="44.123076086584" lon="11.019031719597923"><ele>631.4</ele><time>2026-04-04T10:11:36Z</time></trkpt><trkpt lat="44.1230856642805" lon="11.018895946911243"><ele>630.2</ele><time>2026-04-04T10:11:37Z</time></trkpt><trkpt lat="44.12307020122778" lon="11.018772540019897"><ele>629.0</ele><time>2026-04-04T10:11:38Z</time></trkpt><trkpt lat="44.12301731657408" lon="11.018671505481564"><ele>629.0</ele><time>2026-04-04T10:11:39Z</time></trkpt><trkpt lat="44.12293440709093" lon="11.018574130440674"><ele>629.0</ele><time>2026-04-04T10:11:40Z</time></trkpt><trkpt lat="44.12284121068445" lon="11.018471741524685"><ele>629.0</ele><time>2026-04-04T10:11:41Z</time></trkpt><trkpt lat="44.12274709039869" lon="11.018362639905602"><ele>629.0</ele><time>2026-04-04T10:11:42Z</time></trkpt><trkpt lat="44.12266045516253" lon="11.018271946496439"><ele>628.6</ele><time>2026-04-04T10:11:43Z</time></trkpt><trkpt lat="44.12256743170584" lon="11.018218273411282"><ele>628.2</ele><time>2026-04-04T10:11:44Z</time></trkpt><trkpt lat="44.12246581259994" lon="11.018208782559086"><ele>627.8000000000001</ele><time>2026-04-04T10:11:45Z</time></trkpt><trkpt lat="44.122355413679884" lon="11.018224070837427"><ele>627.4</ele><time>2026-04-04T10:11:46Z</time></trkpt><trkpt lat="44.1222337617876" lon="11.01829039490703"><ele>627.0</ele><time>2026-04-04T10:11:47Z</time></trkpt><trkpt lat="44.122115847844555" lon="11.018378243363214"><ele>627.0</ele><time>2026-04-04T10:11:48Z</time></trkpt><trkpt lat="44.121999995621735" lon="11.018423698284016"><ele>627.0</ele><time>2026-04-04T10:11:49Z</time></trkpt><trkpt lat="44.12188121051432" lon="11.018436376400818"><ele>627.0</ele><time>2026-04-04T10:11:50Z</time></trkpt><trkpt lat="44.12174674363186" lon="11.01844635446399"><ele>627.0</ele><time>2026-04-04T10:11:51Z</time></trkpt><trkpt lat="44.12160936499553" lon="11.018464842415684"><ele>628.5</ele><time>2026-04-04T10:11:52Z</time></trkpt><trkpt lat="44.121471083132285" lon="11.018476432911433"><ele>630.0</ele><time>2026-04-04T10:11:53Z</time></trkpt><trkpt lat="44.121333413008614" lon="11.018451263813864"><ele>631.5</ele><time>2026-04-04T10:11:54Z</time></trkpt><trkpt lat="44.12119091006573" lon="11.018426433439396"><ele>633.0</ele><time>2026-04-04T10:11:55Z</time></trkpt><trkpt lat="44.121043779954704" lon="11.018415301822579"><ele>633.0</ele><time>2026-04-04T10:11:56Z</time></trkpt><trkpt lat="44.120905826407785" lon="11.018383011651776"><ele>633.0</ele><time>2026-04-04T10:11:57Z</time></trkpt><trkpt lat="44.120768612534626" lon="11.0183521937298"><ele>633.0</ele><time>2026-04-04T10:11:58Z</time></trkpt><trkpt lat="44.12064373244009" lon="11.018300915212485"><ele>633.0</ele><time>2026-04-04T10:11:59Z</time></trkpt><trkpt lat="44.120524420277064" lon="11.018277027499902"><ele>632.25</ele><time>2026-04-04T10:12:00Z</time></trkpt><trkpt lat="44.12042188237957" lon="11.018204669632933"><ele>631.5</ele><time>2026-04-04T10:12:01Z</time></trkpt><trkpt lat="44.120334288294785" lon="11.018092900090318"><ele>630.75</ele><time>2026-04-04T10:12:02Z</time></trkpt><trkpt lat="44.120263453425814" lon="11.017949777966"><ele>630.0</ele><time>2026-04-04T10:12:03Z</time></trkpt><trkpt lat="44.1202278395597" lon="11.017773567241719"><ele>630.0</ele><time>2026-04-04T10:12:04Z</time></trkpt><trkpt lat="44.12017289046926" lon="11.017597203859284"><ele>630.0</ele><time>2026-04-04T10:12:05Z</time></trkpt><trkpt lat="44.12013103566581" lon="11.017431986870069"><ele>630.0</ele><time>2026-04-04T10:12:06Z</time></trkpt><trkpt lat="44.120071598415656" lon="11.017305369607767"><ele>630.0</ele><time>2026-04-04T10:12:07Z</time></trkpt><trkpt lat="44.11997822337324" lon="11.017223959675453"><ele>629.25</ele><time>2026-04-04T10:12:08Z</time></trkpt><trkpt lat="44.1198625664465" lon="11.017178012795094"><ele>628.5</ele><time>2026-04-04T10:12:09Z</time></trkpt><trkpt lat="44.11974689174607" lon="11.017094385663544"><ele>627.75</ele><time>2026-04-04T10:12:10Z</time></trkpt><trkpt lat="44.119622828156594" lon="11.017006307435276"><ele>627.0</ele><time>2026-04-04T10:12:11Z</time></trkpt><trkpt lat="44.11949204876267" lon="11.016919931916666"><ele>627.0</ele><time>2026-04-04T10:12:12Z</time></trkpt><trkpt lat="44.11937957913597" lon="11.016805439765362"><ele>627.0</ele><time>2026-04-04T10:12:13Z</time></trkpt><trkpt lat="44.11927825021875" lon="11.016683275634715"><ele>627.0</ele><time>2026-04-04T10:12:14Z</time></trkpt><trkpt lat="44.11919146245341" lon="11.016573705027104"><ele>627.0</ele><time>2026-04-04T10:12:15Z</time></trkpt><trkpt lat="44.11910349136359" lon="11.016491736521361"><ele>631.5</ele><time>2026-04-04T10:12:16Z</time></trkpt><trkpt lat="44.11898894913167" lon="11.016460222489647"><ele>636.0</ele><time>2026-04-04T10:12:17Z</time></trkpt><trkpt lat="44.11885501484788" lon="11.016468892235428"><ele>640.5</ele><time>2026-04-04T10:12:18Z</time></trkpt><trkpt lat="44.11873485281163" lon="11.01643193717411"><ele>645.0</ele><time>2026-04-04T10:12:19Z</time></trkpt><trkpt lat="44.118653133083534" lon="11.01637681987857"><ele>645.0</ele><time>2026-04-04T10:12:20Z</time></trkpt><trkpt lat="44.1185836329283" lon="11.016282050448938"><ele>645.0</ele><time>2026-04-04T10:12:21Z</time></trkpt><trkpt lat="44.118561095318455" lon="11.016122027604286"><ele>645.0</ele><time>2026-04-04T10:12:22Z</time></trkpt><trkpt lat="44.11853205142474" lon="11.015947116713999"><ele>645.0</ele><time>2026-04-04T10:12:23Z</time></trkpt><trkpt lat="44.118487624008814" lon="11.015759894423113"><ele>643.25</ele><time>2026-04-04T10:12:24Z</time></trkpt><trkpt lat="44.1184726477962" lon="11.015558195917327"><ele>641.5</ele><time>2026-04-04T10:12:25Z</time></trkpt><trkpt lat="44.11848992187493" lon="11.015370274981247"><ele>639.75</ele><time>2026-04-04T10:12:26Z</time></trkpt><trkpt lat="44.11848151141476" lon="11.0152068128915"><ele>638.0</ele><time>2026-04-04T10:12:27Z</time></trkpt><trkpt lat="44.11849102803769" lon="11.015064107362397"><ele>635.0</ele><time>2026-04-04T10:12:28Z</time></trkpt><trkpt lat="44.1184874369464" lon="11.014945017360315"><ele>632.0</ele><time>2026-04-04T10:12:29Z</time></trkpt><trkpt lat="44.11845736894235" lon="11.01484538606274"><ele>629.0</ele><time>2026-04-04T10:12:30Z</time></trkpt><trkpt lat="44.11839301805695" lon="11.014763245237056"><ele>626.0</ele><time>2026-04-04T10:12:31Z</time></trkpt><trkpt lat="44.11829820572651" lon="11.014687929977425"><ele>623.0</ele><time>2026-04-04T10:12:32Z</time></trkpt><trkpt lat="44.11820383160577" lon="11.014600481122269"><ele>627.0</ele><time>2026-04-04T10:12:33Z</time></trkpt><trkpt lat="44.11813237634896" lon="11.0144693451781"><ele>631.0</ele><time>2026-04-04T10:12:34Z</time></trkpt><trkpt lat="44.11807826003671" lon="11.014337836280138"><ele>635.0</ele><time>2026-04-04T10:12:35Z</time></trkpt><trkpt lat="44.11805251222878" lon="11.014179658028908"><ele>639.0</ele><time>2026-04-04T10:12:36Z</time></trkpt><trkpt lat="44.11800732765157" lon="11.01400739354985"><ele>639.0</ele><time>2026-04-04T10:12:37Z</time></trkpt><trkpt lat="44.11798702838267" lon="11.013829341589002"><ele>639.0</ele><time>2026-04-04T10:12:38Z</time></trkpt><trkpt lat="44.11796665908919" lon="11.013675511970542"><ele>639.0</ele><time>2026-04-04T10:12:39Z</time></trkpt><trkpt lat="44.11795093960904" lon="11.01353978343848"><ele>639.0</ele><time>2026-04-04T10:12:40Z</time></trkpt><trkpt lat="44.11793156511834" lon="11.013418797956323"><ele>639.0</ele><time>2026-04-04T10:12:41Z</time></trkpt><trkpt lat="44.117893947719296" lon="11.013326119300823"><ele>633.8</ele><time>2026-04-04T10:12:42Z</time></trkpt><trkpt lat="44.117819063842255" lon="11.013257807661342"><ele>628.5999999999999</ele><time>2026-04-04T10:12:43Z</time></trkpt><trkpt lat="44.11772169478064" lon="11.013194997394656"><ele>623.4</ele><time>2026-04-04T10:12:44Z</time></trkpt><trkpt lat="44.11761234920653" lon="11.0131244127275"><ele>618.1999999999999</ele><time>2026-04-04T10:12:45Z</time></trkpt><trkpt lat="44.117505504714735" lon="11.013045036604607"><ele>613.0</ele><time>2026-04-04T10:12:45.999Z</time></trkpt><trkpt lat="44.117399571795566" lon="11.012968810732001"><ele>613.0</ele><time>2026-04-04T10:12:46.999Z</time></trkpt><trkpt lat="44.117287502916476" lon="11.012910477099288"><ele>613.0</ele><time>2026-04-04T10:12:47.999Z</time></trkpt><trkpt lat="44.117167025431506" lon="11.012867526550158"><ele>613.0</ele><time>2026-04-04T10:12:48.999Z</time></trkpt><trkpt lat="44.117052272217705" lon="11.01284564341467"><ele>613.0</ele><time>2026-04-04T10:12:49.999Z</time></trkpt><trkpt lat="44.11693669329617" lon="11.012846153297643"><ele>613.0</ele><time>2026-04-04T10:12:50.999Z</time></trkpt><trkpt lat="44.116810580974395" lon="11.012896423003012"><ele>613.0</ele><time>2026-04-04T10:12:51.999Z</time></trkpt><trkpt lat="44.11666983013119" lon="11.012977544820755"><ele>613.0</ele><time>2026-04-04T10:12:52.999Z</time></trkpt><trkpt lat="44.1165129337401" lon="11.013046484466088"><ele>613.0</ele><time>2026-04-04T10:12:53.999Z</time></trkpt><trkpt lat="44.116349266081905" lon="11.013126182482075"><ele>611.75</ele><time>2026-04-04T10:12:54.999Z</time></trkpt><trkpt lat="44.11619462787992" lon="11.013195770821268"><ele>610.5</ele><time>2026-04-04T10:12:55.999Z</time></trkpt><trkpt lat="44.11605557027024" lon="11.013260126529083"><ele>609.25</ele><time>2026-04-04T10:12:56.999Z</time></trkpt><trkpt lat="44.11593316876709" lon="11.013324086548097"><ele>608.0</ele><time>2026-04-04T10:12:57.999Z</time></trkpt><trkpt lat="44.11583100593016" lon="11.013372214714606"><ele>609.1666666666666</ele><time>2026-04-04T10:12:58.999Z</time></trkpt><trkpt lat="44.11574172333842" lon="11.013407457413187"><ele>610.3333333333333</ele><time>2026-04-04T10:13:00Z</time></trkpt><trkpt lat="44.11566267526509" lon="11.013401404535278"><ele>611.5</ele><time>2026-04-04T10:13:01Z</time></trkpt><trkpt lat="44.11559133192825" lon="11.013328624218458"><ele>612.6666666666666</ele><time>2026-04-04T10:13:02Z</time></trkpt><trkpt lat="44.11554572691421" lon="11.013220479786625"><ele>613.8333333333334</ele><time>2026-04-04T10:13:03Z</time></trkpt><trkpt lat="44.115496988409575" lon="11.01311005181419"><ele>615.0</ele><time>2026-04-04T10:13:04Z</time></trkpt><trkpt lat="44.11543755057244" lon="11.013012645237044"><ele>615.0</ele><time>2026-04-04T10:13:05Z</time></trkpt><trkpt lat="44.115363946930565" lon="11.012948577873637"><ele>615.0</ele><time>2026-04-04T10:13:06Z</time></trkpt><trkpt lat="44.115250569035766" lon="11.012918857799587"><ele>615.0</ele><time>2026-04-04T10:13:07Z</time></trkpt><trkpt lat="44.11511632730363" lon="11.01290664558262"><ele>615.0</ele><time>2026-04-04T10:13:08Z</time></trkpt><trkpt lat="44.11498346217033" lon="11.01285652293903"><ele>616.0</ele><time>2026-04-04T10:13:09Z</time></trkpt><trkpt lat="44.114853428009766" lon="11.012772817071285"><ele>617.0</ele><time>2026-04-04T10:13:10Z</time></trkpt><trkpt lat="44.11474990212291" lon="11.012704008391447"><ele>618.0</ele><time>2026-04-04T10:13:11Z</time></trkpt><trkpt lat="44.114654929163834" lon="11.012653626011952"><ele>619.0</ele><time>2026-04-04T10:13:12Z</time></trkpt><trkpt lat="44.11456730806064" lon="11.012614225970372"><ele>619.0</ele><time>2026-04-04T10:13:13Z</time></trkpt><trkpt lat="44.114465115985396" lon="11.012608072261369"><ele>619.0</ele><time>2026-04-04T10:13:14Z</time></trkpt><trkpt lat="44.11433318605232" lon="11.012651378336997"><ele>619.0</ele><time>2026-04-04T10:13:15Z</time></trkpt><trkpt lat="44.11417685115163" lon="11.012701731249793"><ele>619.0</ele><time>2026-04-04T10:13:16Z</time></trkpt><trkpt lat="44.11404281924855" lon="11.012753445536783"><ele>619.4</ele><time>2026-04-04T10:13:17Z</time></trkpt><trkpt lat="44.11393029928374" lon="11.012767043832403"><ele>619.8</ele><time>2026-04-04T10:13:18Z</time></trkpt><trkpt lat="44.11383224841098" lon="11.01274146973753"><ele>620.2</ele><time>2026-04-04T10:13:19Z</time></trkpt><trkpt lat="44.11375146441377" lon="11.012678489238857"><ele>620.6</ele><time>2026-04-04T10:13:20Z</time></trkpt><trkpt lat="44.11365830709359" lon="11.012580890094515"><ele>621.0</ele><time>2026-04-04T10:13:21Z</time></trkpt><trkpt lat="44.11355936961035" lon="11.012444473979674"><ele>621.0</ele><time>2026-04-04T10:13:22Z</time></trkpt><trkpt lat="44.11345055400908" lon="11.012299924353357"><ele>621.0</ele><time>2026-04-04T10:13:23Z</time></trkpt><trkpt lat="44.113329356073685" lon="11.012161994019994"><ele>621.0</ele><time>2026-04-04T10:13:24Z</time></trkpt><trkpt lat="44.113206288975924" lon="11.012050635262007"><ele>626.25</ele><time>2026-04-04T10:13:25Z</time></trkpt><trkpt lat="44.11309890005263" lon="11.011940486246393"><ele>631.5</ele><time>2026-04-04T10:13:26Z</time></trkpt><trkpt lat="44.11300592167843" lon="11.011818274851212"><ele>636.75</ele><time>2026-04-04T10:13:27Z</time></trkpt><trkpt lat="44.11293535243047" lon="11.011662156313237"><ele>642.0</ele><time>2026-04-04T10:13:28Z</time></trkpt><trkpt lat="44.112875462158236" lon="11.011476756538343"><ele>642.0</ele><time>2026-04-04T10:13:29Z</time></trkpt><trkpt lat="44.11282127733092" lon="11.011279993199382"><ele>642.0</ele><time>2026-04-04T10:13:30Z</time></trkpt><trkpt lat="44.112799890664945" lon="11.011064877650819"><ele>642.0</ele><time>2026-04-04T10:13:31Z</time></trkpt><trkpt lat="44.11278705925253" lon="11.010834656067226"><ele>640.75</ele><time>2026-04-04T10:13:32Z</time></trkpt><trkpt lat="44.112782440101185" lon="11.010628601430964"><ele>639.5</ele><time>2026-04-04T10:13:33Z</time></trkpt><trkpt lat="44.11278538582948" lon="11.010441105894083"><ele>638.25</ele><time>2026-04-04T10:13:34Z</time></trkpt><trkpt lat="44.112788956860456" lon="11.010255451052926"><ele>637.0</ele><time>2026-04-04T10:13:35Z</time></trkpt><trkpt lat="44.112834370511976" lon="11.010085125512296"><ele>636.25</ele><time>2026-04-04T10:13:36Z</time></trkpt><trkpt lat="44.11287959953409" lon="11.009910971399036"><ele>635.5</ele><time>2026-04-04T10:13:37Z</time></trkpt><trkpt lat="44.11296441235261" lon="11.00975780284014"><ele>634.75</ele><time>2026-04-04T10:13:38Z</time></trkpt><trkpt lat="44.11305254923868" lon="11.009619851663944"><ele>634.0</ele><time>2026-04-04T10:13:39Z</time></trkpt><trkpt lat="44.11313766332516" lon="11.009503059093761"><ele>634.0</ele><time>2026-04-04T10:13:40Z</time></trkpt><trkpt lat="44.1132089694832" lon="11.009415446114684"><ele>634.0</ele><time>2026-04-04T10:13:41Z</time></trkpt><trkpt lat="44.11325307973657" lon="11.009317059977855"><ele>634.0</ele><time>2026-04-04T10:13:42Z</time></trkpt><trkpt lat="44.113265223310215" lon="11.009207539862443"><ele>634.0</ele><time>2026-04-04T10:13:43Z</time></trkpt><trkpt lat="44.113254457386574" lon="11.00908105613659"><ele>634.0</ele><time>2026-04-04T10:13:44Z</time></trkpt><trkpt lat="44.11322787622407" lon="11.008952825812045"><ele>634.0</ele><time>2026-04-04T10:13:45Z</time></trkpt><trkpt lat="44.11317888460131" lon="11.008820898783222"><ele>632.0</ele><time>2026-04-04T10:13:46Z</time></trkpt><trkpt lat="44.11310935737832" lon="11.008691722578174"><ele>630.0</ele><time>2026-04-04T10:13:47Z</time></trkpt><trkpt lat="44.1130323040136" lon="11.008559563167395"><ele>628.0</ele><time>2026-04-04T10:13:48Z</time></trkpt><trkpt lat="44.11296550949771" lon="11.008404874890084"><ele>626.0</ele><time>2026-04-04T10:13:49Z</time></trkpt><trkpt lat="44.112876052657356" lon="11.00826230035983"><ele>626.0</ele><time>2026-04-04T10:13:50Z</time></trkpt><trkpt lat="44.11276550913387" lon="11.008150325647582"><ele>626.0</ele><time>2026-04-04T10:13:51Z</time></trkpt><trkpt lat="44.11266615983577" lon="11.00802551198183"><ele>626.0</ele><time>2026-04-04T10:13:52Z</time></trkpt><trkpt lat="44.11257776144318" lon="11.007915893334383"><ele>626.0</ele><time>2026-04-04T10:13:53Z</time></trkpt><trkpt lat="44.11249293827054" lon="11.007817816873633"><ele>626.0</ele><time>2026-04-04T10:13:54Z</time></trkpt><trkpt lat="44.11243866164289" lon="11.007737554038515"><ele>626.0</ele><time>2026-04-04T10:13:55Z</time></trkpt><trkpt lat="44.11233842941118" lon="11.007679754740801"><ele>626.0</ele><time>2026-04-04T10:13:57Z</time></trkpt><trkpt lat="44.11223017011622" lon="11.007757854567826"><ele>626.0</ele><time>2026-04-04T10:13:59Z</time></trkpt><trkpt lat="44.11218123121812" lon="11.007822959852076"><ele>626.0</ele><time>2026-04-04T10:14:00Z</time></trkpt><trkpt lat="44.112136872688055" lon="11.007891262221262"><ele>626.0</ele><time>2026-04-04T10:14:01Z</time></trkpt><trkpt lat="44.112090992087026" lon="11.007962685297045"><ele>624.5</ele><time>2026-04-04T10:14:02Z</time></trkpt><trkpt lat="44.11203287051406" lon="11.00802872681103"><ele>623.0</ele><time>2026-04-04T10:14:03Z</time></trkpt><trkpt lat="44.111979929030795" lon="11.008108380292569"><ele>621.5</ele><time>2026-04-04T10:14:04Z</time></trkpt><trkpt lat="44.1119243693492" lon="11.008185234294942"><ele>620.0</ele><time>2026-04-04T10:14:05Z</time></trkpt><trkpt lat="44.11187282636789" lon="11.008263616449126"><ele>618.5</ele><time>2026-04-04T10:14:06Z</time></trkpt><trkpt lat="44.11182237677462" lon="11.008347773381223"><ele>617.0</ele><time>2026-04-04T10:14:07Z</time></trkpt><trkpt lat="44.111775669794724" lon="11.008439751485248"><ele>617.0</ele><time>2026-04-04T10:14:08Z</time></trkpt><trkpt lat="44.11173777678336" lon="11.00854081348439"><ele>617.0</ele><time>2026-04-04T10:14:09Z</time></trkpt><trkpt lat="44.11170738483532" lon="11.008633485726472"><ele>617.0</ele><time>2026-04-04T10:14:10Z</time></trkpt><trkpt lat="44.11160615875991" lon="11.00872390782376"><ele>617.0</ele><time>2026-04-04T10:14:12Z</time></trkpt><trkpt lat="44.11154324014927" lon="11.008712771007817"><ele>617.0</ele><time>2026-04-04T10:14:13Z</time></trkpt><trkpt lat="44.1114717689356" lon="11.008672443073447"><ele>617.0</ele><time>2026-04-04T10:14:14Z</time></trkpt><trkpt lat="44.11139668056634" lon="11.008617922103777"><ele>616.5</ele><time>2026-04-04T10:14:15Z</time></trkpt><trkpt lat="44.11131914371898" lon="11.00856303050001"><ele>616.0</ele><time>2026-04-04T10:14:16Z</time></trkpt><trkpt lat="44.11123603992339" lon="11.008512168710993"><ele>615.5</ele><time>2026-04-04T10:14:17Z</time></trkpt><trkpt lat="44.11115262120355" lon="11.008469326933099"><ele>615.0</ele><time>2026-04-04T10:14:18Z</time></trkpt><trkpt lat="44.11108170903908" lon="11.00842807900866"><ele>614.5</ele><time>2026-04-04T10:14:19Z</time></trkpt><trkpt lat="44.11102896777573" lon="11.008363827093131"><ele>614.0</ele><time>2026-04-04T10:14:20Z</time></trkpt><trkpt lat="44.110998006544285" lon="11.008272448364764"><ele>611.8</ele><time>2026-04-04T10:14:21Z</time></trkpt><trkpt lat="44.11100746926726" lon="11.008160406607178"><ele>609.5999999999999</ele><time>2026-04-04T10:14:22Z</time></trkpt><trkpt lat="44.11104030844947" lon="11.008045595963017"><ele>607.4</ele><time>2026-04-04T10:14:23Z</time></trkpt><trkpt lat="44.11109061996735" lon="11.00792615030495"><ele>605.1999999999999</ele><time>2026-04-04T10:14:24Z</time></trkpt><trkpt lat="44.111157384282" lon="11.007823388393298"><ele>603.0</ele><time>2026-04-04T10:14:25Z</time></trkpt><trkpt lat="44.111232941291576" lon="11.007710894446529"><ele>603.0</ele><time>2026-04-04T10:14:26Z</time></trkpt><trkpt lat="44.111294473467304" lon="11.007583613458205"><ele>603.0</ele><time>2026-04-04T10:14:27Z</time></trkpt><trkpt lat="44.11133386888893" lon="11.007448987376323"><ele>603.0</ele><time>2026-04-04T10:14:28Z</time></trkpt><trkpt lat="44.11135951903052" lon="11.007309085245264"><ele>603.0</ele><time>2026-04-04T10:14:29Z</time></trkpt><trkpt lat="44.11136729187263" lon="11.007168984702757"><ele>603.0</ele><time>2026-04-04T10:14:30Z</time></trkpt><trkpt lat="44.11136340439053" lon="11.007028867195569"><ele>600.0</ele><time>2026-04-04T10:14:31Z</time></trkpt><trkpt lat="44.11135383389185" lon="11.00688464532417"><ele>597.0</ele><time>2026-04-04T10:14:32Z</time></trkpt><trkpt lat="44.11134748142971" lon="11.006745358156179"><ele>594.0</ele><time>2026-04-04T10:14:33Z</time></trkpt><trkpt lat="44.11134452580525" lon="11.006612664825095"><ele>591.0</ele><time>2026-04-04T10:14:34Z</time></trkpt><trkpt lat="44.11134864689627" lon="11.006493148109834"><ele>588.0</ele><time>2026-04-04T10:14:35Z</time></trkpt><trkpt lat="44.11137347589623" lon="11.006384579286484"><ele>587.4</ele><time>2026-04-04T10:14:36Z</time></trkpt><trkpt lat="44.11143571097504" lon="11.006285728212337"><ele>586.8</ele><time>2026-04-04T10:14:37Z</time></trkpt><trkpt lat="44.11151165113074" lon="11.006187532608012"><ele>586.2</ele><time>2026-04-04T10:14:38Z</time></trkpt><trkpt lat="44.111578512136205" lon="11.006073576212074"><ele>585.6</ele><time>2026-04-04T10:14:39Z</time></trkpt><trkpt lat="44.11161734907806" lon="11.005928502241414"><ele>585.0</ele><time>2026-04-04T10:14:40Z</time></trkpt><trkpt lat="44.111623657349504" lon="11.005769637702112"><ele>585.0</ele><time>2026-04-04T10:14:41Z</time></trkpt><trkpt lat="44.11161333917754" lon="11.005605298348959"><ele>585.0</ele><time>2026-04-04T10:14:42Z</time></trkpt><trkpt lat="44.1115915864874" lon="11.005435992653588"><ele>585.0</ele><time>2026-04-04T10:14:43Z</time></trkpt><trkpt lat="44.11157029547832" lon="11.005260537841655"><ele>585.0</ele><time>2026-04-04T10:14:44Z</time></trkpt><trkpt lat="44.11155876328806" lon="11.005086803382182"><ele>581.0</ele><time>2026-04-04T10:14:45Z</time></trkpt><trkpt lat="44.11155586552799" lon="11.004933383959333"><ele>577.0</ele><time>2026-04-04T10:14:46Z</time></trkpt><trkpt lat="44.111565937489424" lon="11.004801092430867"><ele>573.0</ele><time>2026-04-04T10:14:47Z</time></trkpt><trkpt lat="44.11159536728885" lon="11.004696617816679"><ele>569.0</ele><time>2026-04-04T10:14:48Z</time></trkpt><trkpt lat="44.11163748889232" lon="11.004608450039612"><ele>565.0</ele><time>2026-04-04T10:14:49Z</time></trkpt><trkpt lat="44.11168739398176" lon="11.004474880761235"><ele>565.0</ele><time>2026-04-04T10:14:51Z</time></trkpt><trkpt lat="44.11158032579849" lon="11.004382859047617"><ele>565.0</ele><time>2026-04-04T10:14:53Z</time></trkpt><trkpt lat="44.111464587580464" lon="11.004498232695019"><ele>565.0</ele><time>2026-04-04T10:14:55Z</time></trkpt><trkpt lat="44.1114467693754" lon="11.004643294724751"><ele>565.0</ele><time>2026-04-04T10:14:56Z</time></trkpt><trkpt lat="44.111422406435686" lon="11.004801032293813"><ele>563.75</ele><time>2026-04-04T10:14:57Z</time></trkpt><trkpt lat="44.11136777530586" lon="11.004966010757625"><ele>562.5</ele><time>2026-04-04T10:14:58Z</time></trkpt><trkpt lat="44.11131004455626" lon="11.005138672263877"><ele>561.25</ele><time>2026-04-04T10:14:59Z</time></trkpt><trkpt lat="44.111253689260714" lon="11.005331210270908"><ele>560.0</ele><time>2026-04-04T10:15:00Z</time></trkpt><trkpt lat="44.111137787269094" lon="11.00547874599298"><ele>560.0</ele><time>2026-04-04T10:15:01Z</time></trkpt><trkpt lat="44.11102714576208" lon="11.005614991581124"><ele>560.0</ele><time>2026-04-04T10:15:02Z</time></trkpt><trkpt lat="44.1109308001002" lon="11.005727550917708"><ele>560.0</ele><time>2026-04-04T10:15:03Z</time></trkpt><trkpt lat="44.110851243594595" lon="11.005825665749974"><ele>560.0</ele><time>2026-04-04T10:15:04Z</time></trkpt><trkpt lat="44.110760088978665" lon="11.005897969383357"><ele>563.8</ele><time>2026-04-04T10:15:05Z</time></trkpt><trkpt lat="44.11065482912163" lon="11.005900769868745"><ele>567.6</ele><time>2026-04-04T10:15:06Z</time></trkpt><trkpt lat="44.110547330937834" lon="11.005885898088746"><ele>571.4</ele><time>2026-04-04T10:15:07Z</time></trkpt><trkpt lat="44.110431762846204" lon="11.005904060386305"><ele>575.2</ele><time>2026-04-04T10:15:08Z</time></trkpt><trkpt lat="44.11032344628712" lon="11.005894837950756"><ele>579.0</ele><time>2026-04-04T10:15:09Z</time></trkpt><trkpt lat="44.110222587387675" lon="11.00587952447084"><ele>575.0</ele><time>2026-04-04T10:15:10Z</time></trkpt><trkpt lat="44.110137128732745" lon="11.00582457533275"><ele>571.0</ele><time>2026-04-04T10:15:11Z</time></trkpt><trkpt lat="44.11009149580853" lon="11.005749863535506"><ele>567.0</ele><time>2026-04-04T10:15:12Z</time></trkpt><trkpt lat="44.11004903524534" lon="11.005663357999904"><ele>563.0</ele><time>2026-04-04T10:15:13Z</time></trkpt><trkpt lat="44.110012627399904" lon="11.005555100297542"><ele>559.0</ele><time>2026-04-04T10:15:14Z</time></trkpt><trkpt lat="44.109966580525445" lon="11.005442815607049"><ele>555.0</ele><time>2026-04-04T10:15:15Z</time></trkpt><trkpt lat="44.10993841315333" lon="11.00530690916265"><ele>560.2</ele><time>2026-04-04T10:15:16Z</time></trkpt><trkpt lat="44.10988785487043" lon="11.005165503189165"><ele>565.4</ele><time>2026-04-04T10:15:17Z</time></trkpt><trkpt lat="44.109829732681085" lon="11.00502338306117"><ele>570.6</ele><time>2026-04-04T10:15:18Z</time></trkpt><trkpt lat="44.10977491205305" lon="11.004884598810078"><ele>575.8</ele><time>2026-04-04T10:15:19Z</time></trkpt><trkpt lat="44.10972366555917" lon="11.004764922478318"><ele>581.0</ele><time>2026-04-04T10:15:20Z</time></trkpt><trkpt lat="44.10967517486795" lon="11.004665131920378"><ele>571.8333333333333</ele><time>2026-04-04T10:15:21Z</time></trkpt><trkpt lat="44.1096248028059" lon="11.004605100823778"><ele>562.6666666666666</ele><time>2026-04-04T10:15:22Z</time></trkpt><trkpt lat="44.10955194320887" lon="11.004586154571705"><ele>553.5</ele><time>2026-04-04T10:15:23Z</time></trkpt><trkpt lat="44.109469585306364" lon="11.004601706672469"><ele>544.3333333333334</ele><time>2026-04-04T10:15:24Z</time></trkpt><trkpt lat="44.109376067903305" lon="11.004599033486711"><ele>535.1666666666667</ele><time>2026-04-04T10:15:25Z</time></trkpt><trkpt lat="44.109275881223745" lon="11.004585976896998"><ele>526.0</ele><time>2026-04-04T10:15:26Z</time></trkpt><trkpt lat="44.109164902775824" lon="11.004611850549944"><ele>526.0</ele><time>2026-04-04T10:15:27Z</time></trkpt><trkpt lat="44.1090557776069" lon="11.004674004597579"><ele>526.0</ele><time>2026-04-04T10:15:28Z</time></trkpt><trkpt lat="44.10893871215376" lon="11.004716892141156"><ele>526.0</ele><time>2026-04-04T10:15:29Z</time></trkpt><trkpt lat="44.1088228303696" lon="11.004682412426313"><ele>526.0</ele><time>2026-04-04T10:15:30Z</time></trkpt><trkpt lat="44.108692416778794" lon="11.004671773784525"><ele>526.0</ele><time>2026-04-04T10:15:31Z</time></trkpt><trkpt lat="44.10855982892091" lon="11.004656463318208"><ele>526.0</ele><time>2026-04-04T10:15:32Z</time></trkpt><trkpt lat="44.108424410797426" lon="11.004659228751155"><ele>526.0</ele><time>2026-04-04T10:15:33Z</time></trkpt><trkpt lat="44.10830308191008" lon="11.004680409600535"><ele>526.0</ele><time>2026-04-04T10:15:34Z</time></trkpt><trkpt lat="44.10819669653324" lon="11.004655888237437"><ele>525.8</ele><time>2026-04-04T10:15:35Z</time></trkpt><trkpt lat="44.108112133626285" lon="11.004594723817913"><ele>525.6</ele><time>2026-04-04T10:15:36Z</time></trkpt><trkpt lat="44.10805654555848" lon="11.004531796173513"><ele>525.4</ele><time>2026-04-04T10:15:37Z</time></trkpt><trkpt lat="44.10794020392886" lon="11.004550329949693"><ele>525.2</ele><time>2026-04-04T10:15:39Z</time></trkpt><trkpt lat="44.10788117347625" lon="11.004636719971725"><ele>525.0</ele><time>2026-04-04T10:15:40Z</time></trkpt><trkpt lat="44.10779334419327" lon="11.004697959225718"><ele>525.0</ele><time>2026-04-04T10:15:41Z</time></trkpt><trkpt lat="44.10768479398302" lon="11.004753600549854"><ele>525.0</ele><time>2026-04-04T10:15:42Z</time></trkpt><trkpt lat="44.1075884086867" lon="11.004824917445076"><ele>525.0</ele><time>2026-04-04T10:15:43Z</time></trkpt><trkpt lat="44.10750492089576" lon="11.004872072345563"><ele>525.0</ele><time>2026-04-04T10:15:44Z</time></trkpt><trkpt lat="44.10741548615946" lon="11.004842862079185"><ele>525.0</ele><time>2026-04-04T10:15:45Z</time></trkpt><trkpt lat="44.107341116166054" lon="11.00479807240696"><ele>530.6666666666666</ele><time>2026-04-04T10:15:46Z</time></trkpt><trkpt lat="44.107269288619165" lon="11.004716777505735"><ele>536.3333333333334</ele><time>2026-04-04T10:15:47Z</time></trkpt><trkpt lat="44.107188322965236" lon="11.004679353559405"><ele>542.0</ele><time>2026-04-04T10:15:48Z</time></trkpt><trkpt lat="44.1071145385118" lon="11.004701393079584"><ele>547.6666666666667</ele><time>2026-04-04T10:15:49Z</time></trkpt><trkpt lat="44.10705058145985" lon="11.004702008079317"><ele>553.3333333333334</ele><time>2026-04-04T10:15:50Z</time></trkpt><trkpt lat="44.10700093300544" lon="11.004637844537877"><ele>559.0</ele><time>2026-04-04T10:15:51Z</time></trkpt><trkpt lat="44.10698129704414" lon="11.00455120561682"><ele>559.0</ele><time>2026-04-04T10:15:52Z</time></trkpt><trkpt lat="44.10697275551742" lon="11.004428694343979"><ele>559.0</ele><time>2026-04-04T10:15:53Z</time></trkpt><trkpt lat="44.1069763348124" lon="11.00429667598484"><ele>559.0</ele><time>2026-04-04T10:15:54Z</time></trkpt><trkpt lat="44.10703206812634" lon="11.004199393681914"><ele>559.0</ele><time>2026-04-04T10:15:55Z</time></trkpt><trkpt lat="44.10704962961693" lon="11.004110898533051"><ele>559.0</ele><time>2026-04-04T10:15:56Z</time></trkpt><trkpt lat="44.10706956987612" lon="11.004027458312747"><ele>559.0</ele><time>2026-04-04T10:15:57Z</time></trkpt><trkpt lat="44.1070272195669" lon="11.00393282243122"><ele>564.2</ele><time>2026-04-04T10:15:58Z</time></trkpt><trkpt lat="44.106934941330785" lon="11.003850808396434"><ele>569.4</ele><time>2026-04-04T10:15:59Z</time></trkpt><trkpt lat="44.106831200132405" lon="11.003768777166565"><ele>574.6</ele><time>2026-04-04T10:16:00Z</time></trkpt><trkpt lat="44.106733254595994" lon="11.003689375954801"><ele>579.8</ele><time>2026-04-04T10:16:01Z</time></trkpt><trkpt lat="44.10664520740594" lon="11.003617220802257"><ele>585.0</ele><time>2026-04-04T10:16:02Z</time></trkpt><trkpt lat="44.10655694457326" lon="11.003554205052337"><ele>585.0</ele><time>2026-04-04T10:16:03Z</time></trkpt><trkpt lat="44.106483754321935" lon="11.003463038567807"><ele>585.0</ele><time>2026-04-04T10:16:04Z</time></trkpt><trkpt lat="44.10646401417475" lon="11.003342531481495"><ele>585.0</ele><time>2026-04-04T10:16:05Z</time></trkpt><trkpt lat="44.10647637560924" lon="11.00320968792973"><ele>585.0</ele><time>2026-04-04T10:16:06Z</time></trkpt><trkpt lat="44.10646362352091" lon="11.003077214243904"><ele>585.0</ele><time>2026-04-04T10:16:07Z</time></trkpt><trkpt lat="44.106416202369026" lon="11.00294547784131"><ele>579.0</ele><time>2026-04-04T10:16:08Z</time></trkpt><trkpt lat="44.10634900254257" lon="11.002802655256414"><ele>573.0</ele><time>2026-04-04T10:16:09Z</time></trkpt><trkpt lat="44.10629594874457" lon="11.002646428815483"><ele>567.0</ele><time>2026-04-04T10:16:10Z</time></trkpt><trkpt lat="44.10625415875925" lon="11.002487858207543"><ele>561.0</ele><time>2026-04-04T10:16:11Z</time></trkpt><trkpt lat="44.10623245574839" lon="11.002325926686234"><ele>553.75</ele><time>2026-04-04T10:16:12Z</time></trkpt><trkpt lat="44.10620121362869" lon="11.00217788147108"><ele>546.5</ele><time>2026-04-04T10:16:13Z</time></trkpt><trkpt lat="44.10615118633391" lon="11.002041232796119"><ele>539.25</ele><time>2026-04-04T10:16:14Z</time></trkpt><trkpt lat="44.10601813781803" lon="11.001786572312863"><ele>532.0</ele><time>2026-04-04T10:16:16Z</time></trkpt><trkpt lat="44.10594184862866" lon="11.001662510051332"><ele>529.0</ele><time>2026-04-04T10:16:17Z</time></trkpt><trkpt lat="44.10589397096928" lon="11.00152121000587"><ele>526.0</ele><time>2026-04-04T10:16:18Z</time></trkpt><trkpt lat="44.10583532762942" lon="11.001392842667862"><ele>523.0</ele><time>2026-04-04T10:16:19Z</time></trkpt><trkpt lat="44.10581709619758" lon="11.001252995478625"><ele>520.0</ele><time>2026-04-04T10:16:20Z</time></trkpt><trkpt lat="44.10578700023207" lon="11.001129089056207"><ele>517.0</ele><time>2026-04-04T10:16:21Z</time></trkpt><trkpt lat="44.10573780994352" lon="11.001040780466857"><ele>517.0</ele><time>2026-04-04T10:16:22Z</time></trkpt><trkpt lat="44.105673080369" lon="11.000994637182327"><ele>517.0</ele><time>2026-04-04T10:16:23Z</time></trkpt><trkpt lat="44.105595044013086" lon="11.00100521400214"><ele>517.0</ele><time>2026-04-04T10:16:24Z</time></trkpt><trkpt lat="44.10551292511264" lon="11.001044307489686"><ele>517.0</ele><time>2026-04-04T10:16:25Z</time></trkpt><trkpt lat="44.10543367303455" lon="11.001093972809974"><ele>517.0</ele><time>2026-04-04T10:16:26Z</time></trkpt><trkpt lat="44.10534609886492" lon="11.001164075858439"><ele>517.0</ele><time>2026-04-04T10:16:27Z</time></trkpt><trkpt lat="44.10526734357384" lon="11.001242072002805"><ele>517.0</ele><time>2026-04-04T10:16:28Z</time></trkpt><trkpt lat="44.105188701442096" lon="11.001309448178123"><ele>517.0</ele><time>2026-04-04T10:16:29Z</time></trkpt><trkpt lat="44.1051256839949" lon="11.00135245925175"><ele>517.0</ele><time>2026-04-04T10:16:30Z</time></trkpt><trkpt lat="44.10502748794288" lon="11.001275304477149"><ele>517.0</ele><time>2026-04-04T10:16:32Z</time></trkpt><trkpt lat="44.10501034369246" lon="11.001166865282741"><ele>517.0</ele><time>2026-04-04T10:16:33Z</time></trkpt><trkpt lat="44.105006729222886" lon="11.00106012872838"><ele>517.0</ele><time>2026-04-04T10:16:34Z</time></trkpt><trkpt lat="44.105029851322435" lon="11.000954184996917"><ele>517.0</ele><time>2026-04-04T10:16:35Z</time></trkpt><trkpt lat="44.10509949878913" lon="11.000874829783129"><ele>517.0</ele><time>2026-04-04T10:16:36Z</time></trkpt><trkpt lat="44.10513790014719" lon="11.000774669953918"><ele>517.0</ele><time>2026-04-04T10:16:37Z</time></trkpt><trkpt lat="44.10517046215499" lon="11.000669239157173"><ele>517.0</ele><time>2026-04-04T10:16:38Z</time></trkpt><trkpt lat="44.105185266489435" lon="11.000556351431724"><ele>517.0</ele><time>2026-04-04T10:16:39Z</time></trkpt><trkpt lat="44.10519006253855" lon="11.000465607674403"><ele>517.0</ele><time>2026-04-04T10:16:40Z</time></trkpt><trkpt lat="44.105162666118524" lon="11.00038076625936"><ele>516.1428571428571</ele><time>2026-04-04T10:16:41Z</time></trkpt><trkpt lat="44.10512094948068" lon="11.00030295697455"><ele>515.2857142857143</ele><time>2026-04-04T10:16:42Z</time></trkpt><trkpt lat="44.10503634407834" lon="11.000287352272666"><ele>514.4285714285714</ele><time>2026-04-04T10:16:43Z</time></trkpt><trkpt lat="44.10496819664015" lon="11.000312489347612"><ele>513.5714285714286</ele><time>2026-04-04T10:16:44Z</time></trkpt><trkpt lat="44.104899590541514" lon="11.000351947066862"><ele>512.7142857142858</ele><time>2026-04-04T10:16:45Z</time></trkpt><trkpt lat="44.104837558153456" lon="11.000367184873053"><ele>511.8571428571429</ele><time>2026-04-04T10:16:46Z</time></trkpt><trkpt lat="44.10477142145083" lon="11.000336386459626"><ele>511.0</ele><time>2026-04-04T10:16:47Z</time></trkpt><trkpt lat="44.10470063175601" lon="11.00028225345287"><ele>511.00000000000006</ele><time>2026-04-04T10:16:48Z</time></trkpt><trkpt lat="44.10462945612591" lon="11.000224418093172"><ele>511.0</ele><time>2026-04-04T10:16:49Z</time></trkpt><trkpt lat="44.10457354341594" lon="11.00013685831556"><ele>511.0</ele><time>2026-04-04T10:16:50Z</time></trkpt><trkpt lat="44.10452871984913" lon="11.000065597584024"><ele>511.0</ele><time>2026-04-04T10:16:51Z</time></trkpt><trkpt lat="44.10447655266997" lon="10.999947722486791"><ele>511.00000000000006</ele><time>2026-04-04T10:16:53Z</time></trkpt><trkpt lat="44.10442952512615" lon="10.999878576083614"><ele>511.0</ele><time>2026-04-04T10:16:59.001Z</time></trkpt><trkpt lat="44.10438788094725" lon="10.999806078583564"><ele>511.0</ele><time>2026-04-04T10:17:11.001Z</time></trkpt><trkpt lat="44.10429650462798" lon="10.999792086623534"><ele>511.0</ele><time>2026-04-04T10:17:15Z</time></trkpt><trkpt lat="44.104199503091024" lon="10.999854959617894"><ele>511.0</ele><time>2026-04-04T10:17:17Z</time></trkpt><trkpt lat="44.10410701737537" lon="10.999915916651666"><ele>511.0</ele><time>2026-04-04T10:17:19Z</time></trkpt><trkpt lat="44.10401792815717" lon="10.99997479892193"><ele>511.0</ele><time>2026-04-04T10:17:21Z</time></trkpt><trkpt lat="44.103938189526474" lon="11.000019279472887"><ele>527.0</ele><time>2026-04-04T10:17:23Z</time></trkpt><trkpt lat="44.10387570824346" lon="11.000060723681283"><ele>527.0</ele><time>2026-04-04T10:17:26Z</time></trkpt></trkseg><trkseg><trkpt lat="44.10377266028634" lon="11.000102563019658"><ele>527.0</ele><time>2026-04-04T10:33:42.998Z</time></trkpt><trkpt lat="44.10370055402647" lon="11.000090938154198"><ele>527.0</ele><time>2026-04-04T10:33:43.998Z</time></trkpt><trkpt lat="44.10360828522754" lon="11.000064737749183"><ele>527.0</ele><time>2026-04-04T10:33:44.998Z</time></trkpt><trkpt lat="44.103525708101245" lon="11.000026082226439"><ele>527.0</ele><time>2026-04-04T10:33:45.998Z</time></trkpt><trkpt lat="44.103446275739564" lon="10.999967264934702"><ele>527.0</ele><time>2026-04-04T10:33:46.998Z</time></trkpt><trkpt lat="44.1033822756948" lon="10.999877015276573"><ele>527.0</ele><time>2026-04-04T10:33:47.999Z</time></trkpt><trkpt lat="44.103351924152186" lon="10.999751467283712"><ele>527.0</ele><time>2026-04-04T10:33:48.999Z</time></trkpt><trkpt lat="44.10329636434887" lon="10.999629627123628"><ele>527.0</ele><time>2026-04-04T10:33:49.999Z</time></trkpt><trkpt lat="44.10326423371841" lon="10.999490688688592"><ele>527.0</ele><time>2026-04-04T10:33:50.999Z</time></trkpt><trkpt lat="44.103228175552275" lon="10.999325381623903"><ele>527.0</ele><time>2026-04-04T10:33:51.999Z</time></trkpt><trkpt lat="44.10319526233994" lon="10.999181495007097"><ele>527.0</ele><time>2026-04-04T10:33:52.999Z</time></trkpt><trkpt lat="44.10314777402576" lon="10.999064407970037"><ele>525.8333333333333</ele><time>2026-04-04T10:33:53.999Z</time></trkpt><trkpt lat="44.103087880733035" lon="10.998989438684191"><ele>524.6666666666666</ele><time>2026-04-04T10:33:54.999Z</time></trkpt><trkpt lat="44.10301762407806" lon="10.998946797179693"><ele>523.5</ele><time>2026-04-04T10:33:55.999Z</time></trkpt><trkpt lat="44.102942038599146" lon="10.99897067092299"><ele>522.3333333333334</ele><time>2026-04-04T10:33:56.999Z</time></trkpt><trkpt lat="44.10285477893549" lon="10.999022731048855"><ele>521.1666666666667</ele><time>2026-04-04T10:33:57.999Z</time></trkpt><trkpt lat="44.10275593082427" lon="10.99907485540093"><ele>520.0</ele><time>2026-04-04T10:33:58.999Z</time></trkpt><trkpt lat="44.10264748037796" lon="10.999111867118264"><ele>520.0</ele><time>2026-04-04T10:33:59.999Z</time></trkpt><trkpt lat="44.102533988918346" lon="10.99914968822767"><ele>520.0</ele><time>2026-04-04T10:34:00.999Z</time></trkpt><trkpt lat="44.10241333881426" lon="10.999187896137697"><ele>520.0</ele><time>2026-04-04T10:34:01.999Z</time></trkpt><trkpt lat="44.10229491291913" lon="10.999209032599332"><ele>520.0</ele><time>2026-04-04T10:34:02.999Z</time></trkpt><trkpt lat="44.1021817944687" lon="10.999211728133702"><ele>522.6</ele><time>2026-04-04T10:34:03.999Z</time></trkpt><trkpt lat="44.102078910249844" lon="10.999194610346574"><ele>525.2</ele><time>2026-04-04T10:34:04.999Z</time></trkpt><trkpt lat="44.1019906141522" lon="10.99915020642656"><ele>527.8</ele><time>2026-04-04T10:34:05.999Z</time></trkpt><trkpt lat="44.10190532837848" lon="10.999075502207479"><ele>530.4</ele><time>2026-04-04T10:34:06.999Z</time></trkpt><trkpt lat="44.101804850719546" lon="10.99896345645439"><ele>533.0</ele><time>2026-04-04T10:34:07.999Z</time></trkpt><trkpt lat="44.10170115331187" lon="10.998817121496144"><ele>533.0</ele><time>2026-04-04T10:34:08.999Z</time></trkpt><trkpt lat="44.10158528690465" lon="10.998670539830746"><ele>533.0</ele><time>2026-04-04T10:34:09.999Z</time></trkpt><trkpt lat="44.10146643131982" lon="10.99852446898561"><ele>533.0</ele><time>2026-04-04T10:34:10.999Z</time></trkpt><trkpt lat="44.10134429427318" lon="10.998383657351845"><ele>530.3333333333333</ele><time>2026-04-04T10:34:11.999Z</time></trkpt><trkpt lat="44.101205284652366" lon="10.998246384782847"><ele>527.6666666666666</ele><time>2026-04-04T10:34:12.999Z</time></trkpt><trkpt lat="44.10106089388361" lon="10.998122973365158"><ele>525.0</ele><time>2026-04-04T10:34:13.999Z</time></trkpt><trkpt lat="44.100896818738114" lon="10.99801711565613"><ele>532.6666666666666</ele><time>2026-04-04T10:34:14.999Z</time></trkpt><trkpt lat="44.10073442984123" lon="10.99792228921377"><ele>540.3333333333333</ele><time>2026-04-04T10:34:15.999Z</time></trkpt><trkpt lat="44.10055166704237" lon="10.997850424123621"><ele>548.0</ele><time>2026-04-04T10:34:16.999Z</time></trkpt><trkpt lat="44.10038190435368" lon="10.997771021196838"><ele>548.0</ele><time>2026-04-04T10:34:17.999Z</time></trkpt><trkpt lat="44.10020337622259" lon="10.997671709789632"><ele>548.0</ele><time>2026-04-04T10:34:18.999Z</time></trkpt><trkpt lat="44.10003310197546" lon="10.997584391766857"><ele>548.0</ele><time>2026-04-04T10:34:19.999Z</time></trkpt><trkpt lat="44.099870188641304" lon="10.99750426813185"><ele>547.5</ele><time>2026-04-04T10:34:20.999Z</time></trkpt><trkpt lat="44.09972788621733" lon="10.997427456554558"><ele>547.0</ele><time>2026-04-04T10:34:21.999Z</time></trkpt><trkpt lat="44.09959564963777" lon="10.997359829550549"><ele>546.5</ele><time>2026-04-04T10:34:22.999Z</time></trkpt><trkpt lat="44.09948311435478" lon="10.997304390064752"><ele>546.0</ele><time>2026-04-04T10:34:23.999Z</time></trkpt><trkpt lat="44.0993918824418" lon="10.99723582080448"><ele>546.0</ele><time>2026-04-04T10:34:24.999Z</time></trkpt><trkpt lat="44.099326350085946" lon="10.997149407869932"><ele>546.0</ele><time>2026-04-04T10:34:25.999Z</time></trkpt><trkpt lat="44.099294285866776" lon="10.99704274091773"><ele>546.0</ele><time>2026-04-04T10:34:26.999Z</time></trkpt><trkpt lat="44.09930344704883" lon="10.996942335197895"><ele>546.0</ele><time>2026-04-04T10:34:27.999Z</time></trkpt><trkpt lat="44.09933344929049" lon="10.996833653649604"><ele>546.0</ele><time>2026-04-04T10:34:28.999Z</time></trkpt><trkpt lat="44.09933999337907" lon="10.996723880024364"><ele>546.0</ele><time>2026-04-04T10:34:29.999Z</time></trkpt><trkpt lat="44.09931213174107" lon="10.996605314467512"><ele>545.5</ele><time>2026-04-04T10:34:30.999Z</time></trkpt><trkpt lat="44.09924864982239" lon="10.996477957569375"><ele>545.0</ele><time>2026-04-04T10:34:31.999Z</time></trkpt><trkpt lat="44.09916248134486" lon="10.996353564082106"><ele>544.5</ele><time>2026-04-04T10:34:32.999Z</time></trkpt><trkpt lat="44.09907042192508" lon="10.996207374917862"><ele>544.0</ele><time>2026-04-04T10:34:33.999Z</time></trkpt><trkpt lat="44.098975288690795" lon="10.996038792086164"><ele>544.0</ele><time>2026-04-04T10:34:34.999Z</time></trkpt><trkpt lat="44.09888295011847" lon="10.995864527348367"><ele>544.0</ele><time>2026-04-04T10:34:35.999Z</time></trkpt><trkpt lat="44.09878515392145" lon="10.995691004991253"><ele>544.0</ele><time>2026-04-04T10:34:36.999Z</time></trkpt><trkpt lat="44.09868456350903" lon="10.995520102492193"><ele>541.0</ele><time>2026-04-04T10:34:37.999Z</time></trkpt><trkpt lat="44.0985814589148" lon="10.995370566493254"><ele>538.0</ele><time>2026-04-04T10:34:38.999Z</time></trkpt><trkpt lat="44.09846438221313" lon="10.995249587608253"><ele>535.0</ele><time>2026-04-04T10:34:39.999Z</time></trkpt><trkpt lat="44.09833473192494" lon="10.995141017118632"><ele>532.0</ele><time>2026-04-04T10:34:40.999Z</time></trkpt><trkpt lat="44.09821181139857" lon="10.99503408472478"><ele>531.75</ele><time>2026-04-04T10:34:41.999Z</time></trkpt><trkpt lat="44.09809225360629" lon="10.994930643897305"><ele>531.5</ele><time>2026-04-04T10:34:42.999Z</time></trkpt><trkpt lat="44.09797801736254" lon="10.99483261377575"><ele>531.25</ele><time>2026-04-04T10:34:43.999Z</time></trkpt><trkpt lat="44.097859134482135" lon="10.994736914361516"><ele>531.0</ele><time>2026-04-04T10:34:44.999Z</time></trkpt><trkpt lat="44.097742536435824" lon="10.99463795553883"><ele>531.0</ele><time>2026-04-04T10:34:45.999Z</time></trkpt><trkpt lat="44.09762624548453" lon="10.994538247619822"><ele>531.0</ele><time>2026-04-04T10:34:46.999Z</time></trkpt><trkpt lat="44.097509679752434" lon="10.994444103163616"><ele>531.0</ele><time>2026-04-04T10:34:47.999Z</time></trkpt><trkpt lat="44.09739218938598" lon="10.994351354098612"><ele>531.0</ele><time>2026-04-04T10:34:48.999Z</time></trkpt><trkpt lat="44.09727677459682" lon="10.994260062246818"><ele>531.0</ele><time>2026-04-04T10:34:49.999Z</time></trkpt><trkpt lat="44.09716314021019" lon="10.99416691798938"><ele>531.0</ele><time>2026-04-04T10:34:50.999Z</time></trkpt><trkpt lat="44.09704932308282" lon="10.994071495407537"><ele>531.0</ele><time>2026-04-04T10:34:51.999Z</time></trkpt><trkpt lat="44.096933732612015" lon="10.99398779204387"><ele>531.0</ele><time>2026-04-04T10:34:52.999Z</time></trkpt><trkpt lat="44.09681311274534" lon="10.993894931808569"><ele>531.0</ele><time>2026-04-04T10:34:53.999Z</time></trkpt><trkpt lat="44.0966922338276" lon="10.993803785275215"><ele>531.0</ele><time>2026-04-04T10:34:54.999Z</time></trkpt><trkpt lat="44.09656088451729" lon="10.993709781771875"><ele>531.0</ele><time>2026-04-04T10:34:55.999Z</time></trkpt><trkpt lat="44.0964255755345" lon="10.993606945894465"><ele>531.0</ele><time>2026-04-04T10:34:56.999Z</time></trkpt><trkpt lat="44.09627387365223" lon="10.993499239917256"><ele>531.3333333333334</ele><time>2026-04-04T10:34:57.999Z</time></trkpt><trkpt lat="44.09610604657173" lon="10.993384890491246"><ele>531.6666666666667</ele><time>2026-04-04T10:34:58.999Z</time></trkpt><trkpt lat="44.09593029511426" lon="10.993268125892358"><ele>532.0</ele><time>2026-04-04T10:34:59.999Z</time></trkpt><trkpt lat="44.095755207857394" lon="10.993148879876234"><ele>532.6666666666667</ele><time>2026-04-04T10:35:00.999Z</time></trkpt><trkpt lat="44.09558649688108" lon="10.993034299221426"><ele>533.3333333333334</ele><time>2026-04-04T10:35:01.999Z</time></trkpt><trkpt lat="44.09541449950214" lon="10.992911316358283"><ele>534.0</ele><time>2026-04-04T10:35:02.999Z</time></trkpt><trkpt lat="44.09526207724065" lon="10.992798898008571"><ele>534.0</ele><time>2026-04-04T10:35:03.999Z</time></trkpt><trkpt lat="44.095129300506315" lon="10.99270036043489"><ele>534.0</ele><time>2026-04-04T10:35:04.999Z</time></trkpt><trkpt lat="44.09501375425281" lon="10.99259673482933"><ele>534.0</ele><time>2026-04-04T10:35:05.999Z</time></trkpt><trkpt lat="44.09491303600765" lon="10.992455397872506"><ele>534.0</ele><time>2026-04-04T10:35:06.999Z</time></trkpt><trkpt lat="44.09480803504939" lon="10.992286159197944"><ele>533.75</ele><time>2026-04-04T10:35:07.999Z</time></trkpt><trkpt lat="44.09471902547885" lon="10.992105708267836"><ele>533.5</ele><time>2026-04-04T10:35:08.999Z</time></trkpt><trkpt lat="44.09464012967097" lon="10.991945497759865"><ele>533.25</ele><time>2026-04-04T10:35:09.999Z</time></trkpt><trkpt lat="44.09456974911133" lon="10.991805349871349"><ele>533.0</ele><time>2026-04-04T10:35:10.999Z</time></trkpt><trkpt lat="44.094509783113814" lon="10.991685890504309"><ele>534.6</ele><time>2026-04-04T10:35:11.999Z</time></trkpt><trkpt lat="44.0944532284128" lon="10.991574609256894"><ele>536.1999999999999</ele><time>2026-04-04T10:35:12.999Z</time></trkpt><trkpt lat="44.094385154797656" lon="10.991489141392863"><ele>537.8</ele><time>2026-04-04T10:35:13.999Z</time></trkpt><trkpt lat="44.09430510061766" lon="10.991429524817484"><ele>539.4</ele><time>2026-04-04T10:35:14.999Z</time></trkpt><trkpt lat="44.094213136945285" lon="10.991387060703888"><ele>541.0</ele><time>2026-04-04T10:35:15.999Z</time></trkpt><trkpt lat="44.094117197334334" lon="10.991361836124685"><ele>541.0</ele><time>2026-04-04T10:35:16.999Z</time></trkpt><trkpt lat="44.09400510008579" lon="10.991338244266293"><ele>541.0</ele><time>2026-04-04T10:35:17.999Z</time></trkpt><trkpt lat="44.09388312153644" lon="10.991335281164893"><ele>541.0</ele><time>2026-04-04T10:35:18.999Z</time></trkpt><trkpt lat="44.093751465517" lon="10.991346363657124"><ele>541.0</ele><time>2026-04-04T10:35:19.999Z</time></trkpt><trkpt lat="44.09362168642523" lon="10.991352716739009"><ele>541.0</ele><time>2026-04-04T10:35:20.999Z</time></trkpt><trkpt lat="44.093490187232234" lon="10.991339413252595"><ele>541.0</ele><time>2026-04-04T10:35:21.999Z</time></trkpt><trkpt lat="44.0933651501966" lon="10.99128837886148"><ele>541.0</ele><time>2026-04-04T10:35:22.999Z</time></trkpt><trkpt lat="44.09323687116398" lon="10.991199171403535"><ele>541.0</ele><time>2026-04-04T10:35:23.999Z</time></trkpt><trkpt lat="44.093109125555145" lon="10.99109105295793"><ele>541.25</ele><time>2026-04-04T10:35:24.999Z</time></trkpt><trkpt lat="44.092993242045154" lon="10.990971913354986"><ele>541.5</ele><time>2026-04-04T10:35:25.999Z</time></trkpt><trkpt lat="44.09287541865738" lon="10.990854939294337"><ele>541.75</ele><time>2026-04-04T10:35:26.999Z</time></trkpt><trkpt lat="44.09276914242144" lon="10.990743095225595"><ele>542.0</ele><time>2026-04-04T10:35:27.999Z</time></trkpt><trkpt lat="44.09268055693806" lon="10.990638040631941"><ele>542.0</ele><time>2026-04-04T10:35:28.999Z</time></trkpt><trkpt lat="44.09259660760885" lon="10.990523823247127"><ele>542.0</ele><time>2026-04-04T10:35:29.999Z</time></trkpt><trkpt lat="44.092529407435116" lon="10.99037973993026"><ele>542.0</ele><time>2026-04-04T10:35:30.999Z</time></trkpt><trkpt lat="44.09246582689254" lon="10.990216902427623"><ele>542.0</ele><time>2026-04-04T10:35:31.999Z</time></trkpt><trkpt lat="44.09238982685495" lon="10.990056165877442"><ele>542.6666666666666</ele><time>2026-04-04T10:35:32.999Z</time></trkpt><trkpt lat="44.09228518477217" lon="10.989909967593297"><ele>543.3333333333334</ele><time>2026-04-04T10:35:33.999Z</time></trkpt><trkpt lat="44.092163009045194" lon="10.989777840627056"><ele>544.0</ele><time>2026-04-04T10:35:34.999Z</time></trkpt><trkpt lat="44.09203169609462" lon="10.989655943550959"><ele>544.0</ele><time>2026-04-04T10:35:35.999Z</time></trkpt><trkpt lat="44.091896356890736" lon="10.98954860121269"><ele>544.0</ele><time>2026-04-04T10:35:36.999Z</time></trkpt><trkpt lat="44.09174942562204" lon="10.989456447190731"><ele>544.0</ele><time>2026-04-04T10:35:37.999Z</time></trkpt><trkpt lat="44.091599552135044" lon="10.989393847822697"><ele>544.0</ele><time>2026-04-04T10:35:38.999Z</time></trkpt><trkpt lat="44.0914412048761" lon="10.989326139464783"><ele>544.0</ele><time>2026-04-04T10:35:39.999Z</time></trkpt><trkpt lat="44.091292704034274" lon="10.989283448933866"><ele>544.0</ele><time>2026-04-04T10:35:40.999Z</time></trkpt><trkpt lat="44.0911406275523" lon="10.989245271071976"><ele>544.0</ele><time>2026-04-04T10:35:41.999Z</time></trkpt><trkpt lat="44.09098368616655" lon="10.98921668644955"><ele>544.0</ele><time>2026-04-04T10:35:42.999Z</time></trkpt><trkpt lat="44.09082069822789" lon="10.989229508497006"><ele>544.0</ele><time>2026-04-04T10:35:43.999Z</time></trkpt><trkpt lat="44.09065626557282" lon="10.989258376869543"><ele>547.0</ele><time>2026-04-04T10:35:44.998Z</time></trkpt><trkpt lat="44.09049065388717" lon="10.989281603716076"><ele>550.0</ele><time>2026-04-04T10:35:45.998Z</time></trkpt><trkpt lat="44.09032412249305" lon="10.989320977454945"><ele>553.0</ele><time>2026-04-04T10:35:46.998Z</time></trkpt><trkpt lat="44.09016182274033" lon="10.98936954838413"><ele>553.0</ele><time>2026-04-04T10:35:47.998Z</time></trkpt><trkpt lat="44.090004039028656" lon="10.989421167502744"><ele>553.0</ele><time>2026-04-04T10:35:48.998Z</time></trkpt><trkpt lat="44.0898668558336" lon="10.989453353255831"><ele>553.0</ele><time>2026-04-04T10:35:49.998Z</time></trkpt><trkpt lat="44.08973720680708" lon="10.989507833110137"><ele>553.0</ele><time>2026-04-04T10:35:50.998Z</time></trkpt><trkpt lat="44.089609236212524" lon="10.989529801078984"><ele>554.6</ele><time>2026-04-04T10:35:51.998Z</time></trkpt><trkpt lat="44.089501891151606" lon="10.989532327394434"><ele>556.1999999999999</ele><time>2026-04-04T10:35:52.998Z</time></trkpt><trkpt lat="44.089407174516204" lon="10.989484185277194"><ele>557.8</ele><time>2026-04-04T10:35:53.998Z</time></trkpt><trkpt lat="44.08933939129889" lon="10.989400520255206"><ele>559.4</ele><time>2026-04-04T10:35:54.998Z</time></trkpt><trkpt lat="44.089276229080355" lon="10.989273345037182"><ele>561.0</ele><time>2026-04-04T10:35:55.998Z</time></trkpt><trkpt lat="44.08920641481262" lon="10.989119442484371"><ele>561.0</ele><time>2026-04-04T10:35:56.999Z</time></trkpt><trkpt lat="44.08912107716334" lon="10.988966170173043"><ele>561.0</ele><time>2026-04-04T10:35:57.999Z</time></trkpt><trkpt lat="44.089037808436984" lon="10.988838975395476"><ele>561.0</ele><time>2026-04-04T10:35:58.999Z</time></trkpt><trkpt lat="44.08894348215196" lon="10.988734148010947"><ele>561.0</ele><time>2026-04-04T10:35:59.999Z</time></trkpt><trkpt lat="44.088820916292846" lon="10.988658815053283"><ele>562.6666666666666</ele><time>2026-04-04T10:36:00.999Z</time></trkpt><trkpt lat="44.088676835515784" lon="10.988616874457998"><ele>564.3333333333333</ele><time>2026-04-04T10:36:01.999Z</time></trkpt><trkpt lat="44.088491290064134" lon="10.988599360146308"><ele>566.0</ele><time>2026-04-04T10:36:02.999Z</time></trkpt><trkpt lat="44.08830796094421" lon="10.98860334448214"><ele>567.0</ele><time>2026-04-04T10:36:03.999Z</time></trkpt><trkpt lat="44.08810728656487" lon="10.988590373291787"><ele>568.0</ele><time>2026-04-04T10:36:04.999Z</time></trkpt><trkpt lat="44.08790854110717" lon="10.988572638104701"><ele>569.0</ele><time>2026-04-04T10:36:05.999Z</time></trkpt><trkpt lat="44.08773831614335" lon="10.988548494878156"><ele>569.0</ele><time>2026-04-04T10:36:06.999Z</time></trkpt><trkpt lat="44.08758349468939" lon="10.988511153593457"><ele>569.0</ele><time>2026-04-04T10:36:07.999Z</time></trkpt><trkpt lat="44.08744324594585" lon="10.988456451309654"><ele>569.0</ele><time>2026-04-04T10:36:08.999Z</time></trkpt><trkpt lat="44.08732094578581" lon="10.98838718737449"><ele>569.0</ele><time>2026-04-04T10:36:09.999Z</time></trkpt><trkpt lat="44.08722464587554" lon="10.9883024307851"><ele>569.25</ele><time>2026-04-04T10:36:10.999Z</time></trkpt><trkpt lat="44.0871444370486" lon="10.988183710261962"><ele>569.5</ele><time>2026-04-04T10:36:11.999Z</time></trkpt><trkpt lat="44.087081463819366" lon="10.988029929935376"><ele>569.75</ele><time>2026-04-04T10:36:12.999Z</time></trkpt><trkpt lat="44.087031511752244" lon="10.987813931242108"><ele>570.0</ele><time>2026-04-04T10:36:13.999Z</time></trkpt><trkpt lat="44.08698497568388" lon="10.987595664225802"><ele>567.6666666666666</ele><time>2026-04-04T10:36:14.999Z</time></trkpt><trkpt lat="44.08692849284661" lon="10.987383901927574"><ele>565.3333333333333</ele><time>2026-04-04T10:36:15.999Z</time></trkpt><trkpt lat="44.08684696429165" lon="10.987200135070921"><ele>563.0</ele><time>2026-04-04T10:36:16.999Z</time></trkpt><trkpt lat="44.08673527433876" lon="10.987051289605725"><ele>564.0</ele><time>2026-04-04T10:36:17.999Z</time></trkpt><trkpt lat="44.08658490210436" lon="10.98692623269244"><ele>565.0</ele><time>2026-04-04T10:36:18.999Z</time></trkpt><trkpt lat="44.086412458854156" lon="10.98678474650127"><ele>566.0</ele><time>2026-04-04T10:36:19.999Z</time></trkpt><trkpt lat="44.08624951557849" lon="10.986627951574624"><ele>566.0</ele><time>2026-04-04T10:36:20.999Z</time></trkpt><trkpt lat="44.08610489466285" lon="10.98645120437859"><ele>566.0</ele><time>2026-04-04T10:36:21.999Z</time></trkpt><trkpt lat="44.08598029131271" lon="10.986307614994615"><ele>566.0</ele><time>2026-04-04T10:36:22.999Z</time></trkpt><trkpt lat="44.085866689737514" lon="10.986191698592533"><ele>566.0</ele><time>2026-04-04T10:36:23.999Z</time></trkpt><trkpt lat="44.08576216027214" lon="10.986093434920251"><ele>566.0</ele><time>2026-04-04T10:36:24.999Z</time></trkpt><trkpt lat="44.085658803312064" lon="10.98605805993491"><ele>566.0</ele><time>2026-04-04T10:36:25.999Z</time></trkpt><trkpt lat="44.08555518629155" lon="10.98606317897824"><ele>566.0</ele><time>2026-04-04T10:36:26.999Z</time></trkpt><trkpt lat="44.08545739582579" lon="10.986140105834583"><ele>566.0</ele><time>2026-04-04T10:36:27.999Z</time></trkpt><trkpt lat="44.08535364198956" lon="10.98625434591984"><ele>569.25</ele><time>2026-04-04T10:36:28.999Z</time></trkpt><trkpt lat="44.085260184925225" lon="10.986423864415151"><ele>572.5</ele><time>2026-04-04T10:36:29.999Z</time></trkpt><trkpt lat="44.08517812010104" lon="10.986610471169714"><ele>575.75</ele><time>2026-04-04T10:36:30.999Z</time></trkpt><trkpt lat="44.08509593891753" lon="10.98676601011873"><ele>579.0</ele><time>2026-04-04T10:36:31.999Z</time></trkpt><trkpt lat="44.085027545915985" lon="10.986870105422225"><ele>580.4</ele><time>2026-04-04T10:36:32.999Z</time></trkpt><trkpt lat="44.084947162586246" lon="10.98692782372291"><ele>581.8</ele><time>2026-04-04T10:36:33.999Z</time></trkpt><trkpt lat="44.08483777736681" lon="10.986926667298652"><ele>583.2</ele><time>2026-04-04T10:36:34.999Z</time></trkpt><trkpt lat="44.08473187921174" lon="10.986880056684127"><ele>584.6</ele><time>2026-04-04T10:36:35.999Z</time></trkpt><trkpt lat="44.08460697349994" lon="10.986805360828743"><ele>586.0</ele><time>2026-04-04T10:36:36.999Z</time></trkpt><trkpt lat="44.084451205109666" lon="10.986698183138115"><ele>582.6666666666667</ele><time>2026-04-04T10:36:37.999Z</time></trkpt><trkpt lat="44.084285851383285" lon="10.986586986858287"><ele>579.3333333333334</ele><time>2026-04-04T10:36:38.999Z</time></trkpt><trkpt lat="44.08413787815838" lon="10.986468118370384"><ele>576.0</ele><time>2026-04-04T10:36:39.999Z</time></trkpt><trkpt lat="44.084021137347165" lon="10.98636855190458"><ele>579.0</ele><time>2026-04-04T10:36:40.999Z</time></trkpt><trkpt lat="44.08391664060127" lon="10.986260764671298"><ele>582.0</ele><time>2026-04-04T10:36:41.999Z</time></trkpt><trkpt lat="44.0838291448682" lon="10.986100578941178"><ele>585.0</ele><time>2026-04-04T10:36:42.999Z</time></trkpt><trkpt lat="44.083759607458376" lon="10.985914054036874"><ele>588.0</ele><time>2026-04-04T10:36:43.999Z</time></trkpt><trkpt lat="44.08370274882193" lon="10.985763553269726"><ele>588.0</ele><time>2026-04-04T10:36:44.999Z</time></trkpt><trkpt lat="44.08363913907633" lon="10.985685859846605"><ele>588.0</ele><time>2026-04-04T10:36:45.999Z</time></trkpt><trkpt lat="44.083546327982" lon="10.985651950448613"><ele>588.0</ele><time>2026-04-04T10:36:46.999Z</time></trkpt><trkpt lat="44.083426655017945" lon="10.985684650643273"><ele>588.0</ele><time>2026-04-04T10:36:47.999Z</time></trkpt><trkpt lat="44.08327502926863" lon="10.985772406185632"><ele>591.6666666666666</ele><time>2026-04-04T10:36:48.999Z</time></trkpt><trkpt lat="44.083108666226494" lon="10.985849422247467"><ele>595.3333333333333</ele><time>2026-04-04T10:36:49.999Z</time></trkpt><trkpt lat="44.082923459882565" lon="10.985907747093389"><ele>599.0</ele><time>2026-04-04T10:36:50.999Z</time></trkpt><trkpt lat="44.08271911435597" lon="10.98595918321425"><ele>599.0</ele><time>2026-04-04T10:36:51.999Z</time></trkpt><trkpt lat="44.082504531451015" lon="10.985951801747877"><ele>599.0</ele><time>2026-04-04T10:36:52.999Z</time></trkpt><trkpt lat="44.082317059628444" lon="10.985964550296991"><ele>599.0</ele><time>2026-04-04T10:36:53.999Z</time></trkpt><trkpt lat="44.082150269901796" lon="10.985943552462182"><ele>598.5</ele><time>2026-04-04T10:36:54.999Z</time></trkpt><trkpt lat="44.08199579300089" lon="10.98593650461237"><ele>598.0</ele><time>2026-04-04T10:36:55.999Z</time></trkpt><trkpt lat="44.0818620508634" lon="10.985928466038205"><ele>597.5</ele><time>2026-04-04T10:36:56.999Z</time></trkpt><trkpt lat="44.08173944257081" lon="10.985923733797723"><ele>597.0</ele><time>2026-04-04T10:36:57.999Z</time></trkpt><trkpt lat="44.0816300076748" lon="10.985916821103663"><ele>595.8000000000001</ele><time>2026-04-04T10:36:58.999Z</time></trkpt><trkpt lat="44.08153286113223" lon="10.985900968364941"><ele>594.6</ele><time>2026-04-04T10:36:59.999Z</time></trkpt><trkpt lat="44.08144599264642" lon="10.98585859808893"><ele>593.4000000000001</ele><time>2026-04-04T10:37:00.999Z</time></trkpt><trkpt lat="44.08137591466851" lon="10.985774800487595"><ele>592.2</ele><time>2026-04-04T10:37:01.999Z</time></trkpt><trkpt lat="44.081311787351915" lon="10.985664180591751"><ele>591.0</ele><time>2026-04-04T10:37:02.999Z</time></trkpt><trkpt lat="44.08124273494284" lon="10.98554962926715"><ele>591.0</ele><time>2026-04-04T10:37:03.999Z</time></trkpt><trkpt lat="44.08116223670715" lon="10.985434678849005"><ele>591.0</ele><time>2026-04-04T10:37:04.999Z</time></trkpt><trkpt lat="44.08107941774188" lon="10.985315489386865"><ele>591.0</ele><time>2026-04-04T10:37:05.999Z</time></trkpt><trkpt lat="44.080997101301506" lon="10.985194447988404"><ele>591.0</ele><time>2026-04-04T10:37:06.999Z</time></trkpt><trkpt lat="44.08091177016344" lon="10.985094343106578"><ele>591.0</ele><time>2026-04-04T10:37:07.999Z</time></trkpt><trkpt lat="44.08081357252618" lon="10.98501519977636"><ele>591.0</ele><time>2026-04-04T10:37:08.999Z</time></trkpt><trkpt lat="44.08069808678296" lon="10.984973247996509"><ele>591.0</ele><time>2026-04-04T10:37:09.999Z</time></trkpt><trkpt lat="44.08057437146995" lon="10.98495510691369"><ele>591.0</ele><time>2026-04-04T10:37:10.999Z</time></trkpt><trkpt lat="44.08044980420011" lon="10.984963093873683"><ele>592.75</ele><time>2026-04-04T10:37:11.999Z</time></trkpt><trkpt lat="44.08032230435898" lon="10.984984957798726"><ele>594.5</ele><time>2026-04-04T10:37:12.999Z</time></trkpt><trkpt lat="44.0802049840639" lon="10.98501452542805"><ele>596.25</ele><time>2026-04-04T10:37:13.999Z</time></trkpt><trkpt lat="44.08008379783543" lon="10.985042593096507"><ele>598.0</ele><time>2026-04-04T10:37:14.999Z</time></trkpt><trkpt lat="44.0799655163909" lon="10.985073902119263"><ele>601.75</ele><time>2026-04-04T10:37:15.999Z</time></trkpt><trkpt lat="44.07984251370138" lon="10.98509232358468"><ele>605.5</ele><time>2026-04-04T10:37:16.999Z</time></trkpt><trkpt lat="44.07972292725767" lon="10.985108909908035"><ele>609.25</ele><time>2026-04-04T10:37:17.999Z</time></trkpt><trkpt lat="44.07959789965349" lon="10.985124292671465"><ele>613.0</ele><time>2026-04-04T10:37:18.999Z</time></trkpt><trkpt lat="44.07947621157347" lon="10.985123058961866"><ele>613.0</ele><time>2026-04-04T10:37:19.999Z</time></trkpt><trkpt lat="44.07936026355334" lon="10.985101799007518"><ele>613.0</ele><time>2026-04-04T10:37:20.999Z</time></trkpt><trkpt lat="44.07923954091025" lon="10.98505312566342"><ele>613.0</ele><time>2026-04-04T10:37:21.999Z</time></trkpt><trkpt lat="44.07912167007865" lon="10.984990964733841"><ele>613.0</ele><time>2026-04-04T10:37:22.999Z</time></trkpt><trkpt lat="44.078999152025744" lon="10.984932280566317"><ele>612.25</ele><time>2026-04-04T10:37:23.999Z</time></trkpt><trkpt lat="44.07887769600687" lon="10.984877372937207"><ele>611.5</ele><time>2026-04-04T10:37:24.999Z</time></trkpt><trkpt lat="44.07875153266108" lon="10.984853278621873"><ele>610.75</ele><time>2026-04-04T10:37:25.999Z</time></trkpt><trkpt lat="44.07862392325549" lon="10.984868351971116"><ele>610.0</ele><time>2026-04-04T10:37:26.999Z</time></trkpt><trkpt lat="44.07850910536354" lon="10.984902988969184"><ele>610.0</ele><time>2026-04-04T10:37:27.999Z</time></trkpt><trkpt lat="44.07840705907293" lon="10.9849427319423"><ele>610.0</ele><time>2026-04-04T10:37:28.999Z</time></trkpt><trkpt lat="44.07831242265267" lon="10.984983405563531"><ele>610.0</ele><time>2026-04-04T10:37:29.999Z</time></trkpt><trkpt lat="44.0782146909644" lon="10.985034856101343"><ele>610.0</ele><time>2026-04-04T10:37:30.999Z</time></trkpt><trkpt lat="44.07812162070523" lon="10.985096414273439"><ele>610.0</ele><time>2026-04-04T10:37:31.999Z</time></trkpt><trkpt lat="44.07803098491313" lon="10.985154289990465"><ele>609.2</ele><time>2026-04-04T10:37:32.999Z</time></trkpt><trkpt lat="44.07793855851941" lon="10.985202221533417"><ele>608.4</ele><time>2026-04-04T10:37:33.999Z</time></trkpt><trkpt lat="44.07784301813969" lon="10.985250708944205"><ele>607.6</ele><time>2026-04-04T10:37:34.999Z</time></trkpt><trkpt lat="44.077744093664705" lon="10.985315119130757"><ele>606.8</ele><time>2026-04-04T10:37:35.999Z</time></trkpt><trkpt lat="44.07763548670276" lon="10.985382894060347"><ele>606.0</ele><time>2026-04-04T10:37:36.999Z</time></trkpt><trkpt lat="44.07751681821193" lon="10.985413817405739"><ele>607.6</ele><time>2026-04-04T10:37:37.999Z</time></trkpt><trkpt lat="44.07739935407029" lon="10.985444491062855"><ele>609.2</ele><time>2026-04-04T10:37:38.999Z</time></trkpt><trkpt lat="44.07728368231571" lon="10.985453389237346"><ele>610.8</ele><time>2026-04-04T10:37:39.999Z</time></trkpt><trkpt lat="44.07717336437032" lon="10.985471165741446"><ele>612.4</ele><time>2026-04-04T10:37:40.999Z</time></trkpt><trkpt lat="44.07707418060944" lon="10.98546957016475"><ele>614.0</ele><time>2026-04-04T10:37:41.999Z</time></trkpt><trkpt lat="44.076981936721246" lon="10.985442298226435"><ele>614.0</ele><time>2026-04-04T10:37:42.999Z</time></trkpt><trkpt lat="44.07689662141059" lon="10.985440272458318"><ele>614.0</ele><time>2026-04-04T10:37:43.999Z</time></trkpt><trkpt lat="44.07681864369511" lon="10.985366584890896"><ele>614.0</ele><time>2026-04-04T10:37:44.999Z</time></trkpt><trkpt lat="44.07674984457669" lon="10.985271409700097"><ele>614.0</ele><time>2026-04-04T10:37:45.999Z</time></trkpt><trkpt lat="44.07671278266999" lon="10.985118193146564"><ele>614.0</ele><time>2026-04-04T10:37:46.999Z</time></trkpt><trkpt lat="44.07664319539054" lon="10.984962573599335"><ele>623.0</ele><time>2026-04-04T10:37:47.999Z</time></trkpt><trkpt lat="44.0765874469106" lon="10.984792316956872"><ele>632.0</ele><time>2026-04-04T10:37:48.999Z</time></trkpt><trkpt lat="44.076527480494875" lon="10.984605465922936"><ele>641.0</ele><time>2026-04-04T10:37:49.999Z</time></trkpt><trkpt lat="44.0764508740938" lon="10.984360432356768"><ele>633.0</ele><time>2026-04-04T10:37:50.999Z</time></trkpt><trkpt lat="44.07635001278711" lon="10.98408321621471"><ele>625.0</ele><time>2026-04-04T10:37:51.999Z</time></trkpt><trkpt lat="44.076281309654185" lon="10.98383604421593"><ele>617.0</ele><time>2026-04-04T10:37:52.999Z</time></trkpt><trkpt lat="44.0762089424449" lon="10.983614907476314"><ele>617.0</ele><time>2026-04-04T10:37:53.999Z</time></trkpt><trkpt lat="44.076137593325505" lon="10.983422892691214"><ele>617.0</ele><time>2026-04-04T10:37:54.999Z</time></trkpt><trkpt lat="44.07606732297722" lon="10.983258312764878"><ele>617.0</ele><time>2026-04-04T10:37:55.999Z</time></trkpt><trkpt lat="44.07593900629571" lon="10.983115179474547"><ele>615.3333333333333</ele><time>2026-04-04T10:37:56.999Z</time></trkpt><trkpt lat="44.07578817102642" lon="10.982993032199357"><ele>613.6666666666666</ele><time>2026-04-04T10:37:57.999Z</time></trkpt><trkpt lat="44.07561514752341" lon="10.982907899057908"><ele>612.0</ele><time>2026-04-04T10:37:58.999Z</time></trkpt><trkpt lat="44.07541605400757" lon="10.982855438744336"><ele>617.0</ele><time>2026-04-04T10:37:59.999Z</time></trkpt><trkpt lat="44.07523428672587" lon="10.982813797472588"><ele>622.0</ele><time>2026-04-04T10:38:00.999Z</time></trkpt><trkpt lat="44.07508108829127" lon="10.982759484772833"><ele>627.0</ele><time>2026-04-04T10:38:01.999Z</time></trkpt><trkpt lat="44.07493590055841" lon="10.98268478916164"><ele>627.0</ele><time>2026-04-04T10:38:02.999Z</time></trkpt><trkpt lat="44.07480361020292" lon="10.98259250311083"><ele>627.0</ele><time>2026-04-04T10:38:03.999Z</time></trkpt><trkpt lat="44.07469440388633" lon="10.982482635908305"><ele>627.0</ele><time>2026-04-04T10:38:04.999Z</time></trkpt><trkpt lat="44.074598526957516" lon="10.982324040966665"><ele>627.0</ele><time>2026-04-04T10:38:05.999Z</time></trkpt><trkpt lat="44.0745066825905" lon="10.982148225332365"><ele>627.0</ele><time>2026-04-04T10:38:06.999Z</time></trkpt><trkpt lat="44.07441462105808" lon="10.981917264269587"><ele>627.0</ele><time>2026-04-04T10:38:07.999Z</time></trkpt><trkpt lat="44.074313632101585" lon="10.981680194980278"><ele>627.0</ele><time>2026-04-04T10:38:08.999Z</time></trkpt><trkpt lat="44.074225013891706" lon="10.981475546794918"><ele>626.8000000000001</ele><time>2026-04-04T10:38:09.999Z</time></trkpt><trkpt lat="44.0741451369278" lon="10.981297066982776"><ele>626.6</ele><time>2026-04-04T10:38:10.999Z</time></trkpt><trkpt lat="44.074083960871135" lon="10.981156696081598"><ele>626.4000000000001</ele><time>2026-04-04T10:38:11.999Z</time></trkpt><trkpt lat="44.07404791306309" lon="10.981048736389576"><ele>626.2</ele><time>2026-04-04T10:38:12.999Z</time></trkpt><trkpt lat="44.074026188208734" lon="10.980942945426582"><ele>626.0</ele><time>2026-04-04T10:38:13.999Z</time></trkpt><trkpt lat="44.074041103887616" lon="10.98081003346486"><ele>626.0</ele><time>2026-04-04T10:38:14.999Z</time></trkpt><trkpt lat="44.07406135827267" lon="10.980647991300721"><ele>626.0</ele><time>2026-04-04T10:38:15.999Z</time></trkpt><trkpt lat="44.07407450010388" lon="10.980450858841794"><ele>626.0</ele><time>2026-04-04T10:38:16.999Z</time></trkpt><trkpt lat="44.07406516065433" lon="10.980269148420572"><ele>626.0</ele><time>2026-04-04T10:38:17.999Z</time></trkpt><trkpt lat="44.07400815735573" lon="10.980097359541626"><ele>625.0</ele><time>2026-04-04T10:38:18.999Z</time></trkpt><trkpt lat="44.07393150695635" lon="10.979942374505436"><ele>624.0</ele><time>2026-04-04T10:38:19.999Z</time></trkpt><trkpt lat="44.07385038310184" lon="10.97982178742515"><ele>623.0</ele><time>2026-04-04T10:38:20.999Z</time></trkpt><trkpt lat="44.07374084600137" lon="10.979739778561282"><ele>622.0</ele><time>2026-04-04T10:38:21.999Z</time></trkpt><trkpt lat="44.07360259760445" lon="10.979702704921232"><ele>622.0</ele><time>2026-04-04T10:38:22.999Z</time></trkpt><trkpt lat="44.073441120826516" lon="10.979690336298793"><ele>622.0</ele><time>2026-04-04T10:38:24Z</time></trkpt><trkpt lat="44.07325191938242" lon="10.979670939982192"><ele>622.0</ele><time>2026-04-04T10:38:25Z</time></trkpt><trkpt lat="44.073068192915606" lon="10.97963283338802"><ele>623.75</ele><time>2026-04-04T10:38:26Z</time></trkpt><trkpt lat="44.07291902845432" lon="10.979588771027512"><ele>625.5</ele><time>2026-04-04T10:38:27Z</time></trkpt><trkpt lat="44.072793531658064" lon="10.979538966891242"><ele>627.25</ele><time>2026-04-04T10:38:28Z</time></trkpt><trkpt lat="44.072683117840675" lon="10.97946566834077"><ele>629.0</ele><time>2026-04-04T10:38:29Z</time></trkpt><trkpt lat="44.07258533507408" lon="10.979342573214181"><ele>629.0</ele><time>2026-04-04T10:38:30Z</time></trkpt><trkpt lat="44.07248977462684" lon="10.979163904902308"><ele>629.0</ele><time>2026-04-04T10:38:31Z</time></trkpt><trkpt lat="44.07239422851627" lon="10.978945156356511"><ele>629.0</ele><time>2026-04-04T10:38:32Z</time></trkpt><trkpt lat="44.07229802870497" lon="10.978723586489519"><ele>628.3333333333333</ele><time>2026-04-04T10:38:33Z</time></trkpt><trkpt lat="44.07219138604399" lon="10.978523555612876"><ele>627.6666666666666</ele><time>2026-04-04T10:38:34Z</time></trkpt><trkpt lat="44.072088173910934" lon="10.978327039029475"><ele>627.0</ele><time>2026-04-04T10:38:35Z</time></trkpt><trkpt lat="44.07199149132146" lon="10.978127265941014"><ele>627.0</ele><time>2026-04-04T10:38:36Z</time></trkpt><trkpt lat="44.07190102755988" lon="10.97794934668066"><ele>627.0</ele><time>2026-04-04T10:38:37Z</time></trkpt><trkpt lat="44.07181964413295" lon="10.97778174286072"><ele>627.0</ele><time>2026-04-04T10:38:38Z</time></trkpt><trkpt lat="44.0717420575447" lon="10.977629567848942"><ele>627.0</ele><time>2026-04-04T10:38:39Z</time></trkpt><trkpt lat="44.07165079031439" lon="10.977496790609047"><ele>628.75</ele><time>2026-04-04T10:38:40Z</time></trkpt><trkpt lat="44.07154393817293" lon="10.977372294332888"><ele>630.5</ele><time>2026-04-04T10:38:41Z</time></trkpt><trkpt lat="44.071433050468954" lon="10.97725258230632"><ele>632.25</ele><time>2026-04-04T10:38:42Z</time></trkpt><trkpt lat="44.07133984544923" lon="10.977140725521767"><ele>634.0</ele><time>2026-04-04T10:38:43Z</time></trkpt><trkpt lat="44.07126497294606" lon="10.977028120916186"><ele>634.0</ele><time>2026-04-04T10:38:44Z</time></trkpt><trkpt lat="44.071199175204356" lon="10.976917528188844"><ele>634.0</ele><time>2026-04-04T10:38:45Z</time></trkpt><trkpt lat="44.07115589047083" lon="10.976797608391509"><ele>634.0</ele><time>2026-04-04T10:38:46Z</time></trkpt><trkpt lat="44.071132999304425" lon="10.976648300718763"><ele>634.0</ele><time>2026-04-04T10:38:47Z</time></trkpt><trkpt lat="44.07111960141049" lon="10.97644579841958"><ele>633.25</ele><time>2026-04-04T10:38:48Z</time></trkpt><trkpt lat="44.07109079970195" lon="10.976249391315728"><ele>632.5</ele><time>2026-04-04T10:38:49Z</time></trkpt><trkpt lat="44.07102864367084" lon="10.976090231933403"><ele>631.75</ele><time>2026-04-04T10:38:50Z</time></trkpt><trkpt lat="44.070917359563175" lon="10.975950628885881"><ele>631.0</ele><time>2026-04-04T10:38:51Z</time></trkpt><trkpt lat="44.07077627171379" lon="10.975796908201097"><ele>632.3333333333334</ele><time>2026-04-04T10:38:52Z</time></trkpt><trkpt lat="44.070607513373" lon="10.975617530573816"><ele>633.6666666666666</ele><time>2026-04-04T10:38:53Z</time></trkpt><trkpt lat="44.0704224711956" lon="10.975424067163305"><ele>635.0</ele><time>2026-04-04T10:38:54Z</time></trkpt><trkpt lat="44.07022418579809" lon="10.975214156234868"><ele>634.3333333333333</ele><time>2026-04-04T10:38:55Z</time></trkpt><trkpt lat="44.070037707608385" lon="10.97501396593543"><ele>633.6666666666666</ele><time>2026-04-04T10:38:56Z</time></trkpt><trkpt lat="44.06987810344872" lon="10.974841485847323"><ele>633.0</ele><time>2026-04-04T10:38:57Z</time></trkpt><trkpt lat="44.06974276209881" lon="10.974689433673383"><ele>634.25</ele><time>2026-04-04T10:38:58Z</time></trkpt><trkpt lat="44.06962265235826" lon="10.974550318169715"><ele>635.5</ele><time>2026-04-04T10:38:59Z</time></trkpt><trkpt lat="44.06951554456578" lon="10.974420315765084"><ele>636.75</ele><time>2026-04-04T10:39:00Z</time></trkpt><trkpt lat="44.06942676041874" lon="10.974271752439796"><ele>638.0</ele><time>2026-04-04T10:39:01Z</time></trkpt><trkpt lat="44.069336879224906" lon="10.97410199972011"><ele>638.0</ele><time>2026-04-04T10:39:02Z</time></trkpt><trkpt lat="44.06922842886309" lon="10.973921736244014"><ele>638.0</ele><time>2026-04-04T10:39:03Z</time></trkpt><trkpt lat="44.06912276840395" lon="10.973729354920426"><ele>638.0</ele><time>2026-04-04T10:39:04Z</time></trkpt><trkpt lat="44.069025877928816" lon="10.973561111979283"><ele>639.0</ele><time>2026-04-04T10:39:05Z</time></trkpt><trkpt lat="44.06892514958662" lon="10.973421462194207"><ele>640.0</ele><time>2026-04-04T10:39:06Z</time></trkpt><trkpt lat="44.06879737295231" lon="10.973299237668353"><ele>641.0</ele><time>2026-04-04T10:39:07Z</time></trkpt><trkpt lat="44.06865833546902" lon="10.973226279642729"><ele>642.0</ele><time>2026-04-04T10:39:08Z</time></trkpt><trkpt lat="44.0685134638457" lon="10.973174619867274"><ele>642.0</ele><time>2026-04-04T10:39:09Z</time></trkpt><trkpt lat="44.06837761544771" lon="10.9731101524108"><ele>642.0</ele><time>2026-04-04T10:39:10Z</time></trkpt><trkpt lat="44.068272823320385" lon="10.973003525191821"><ele>642.0</ele><time>2026-04-04T10:39:11Z</time></trkpt><trkpt lat="44.06816615281775" lon="10.97291547195668"><ele>642.0</ele><time>2026-04-04T10:39:12Z</time></trkpt><trkpt lat="44.06805016046384" lon="10.972857658572117"><ele>642.5</ele><time>2026-04-04T10:39:13Z</time></trkpt><trkpt lat="44.06790504636349" lon="10.972891707795261"><ele>643.0</ele><time>2026-04-04T10:39:14Z</time></trkpt><trkpt lat="44.0677657689358" lon="10.972924840456665"><ele>643.5</ele><time>2026-04-04T10:39:15Z</time></trkpt><trkpt lat="44.06761138582584" lon="10.972984548180756"><ele>644.0</ele><time>2026-04-04T10:39:16Z</time></trkpt><trkpt lat="44.067462272537355" lon="10.973037717734062"><ele>647.75</ele><time>2026-04-04T10:39:17Z</time></trkpt><trkpt lat="44.067322110542705" lon="10.973073625060207"><ele>651.5</ele><time>2026-04-04T10:39:18Z</time></trkpt><trkpt lat="44.06719989547424" lon="10.973079747581783"><ele>655.25</ele><time>2026-04-04T10:39:19Z</time></trkpt><trkpt lat="44.06708081110801" lon="10.97305311387018"><ele>659.0</ele><time>2026-04-04T10:39:20Z</time></trkpt><trkpt lat="44.066953762248005" lon="10.972990065730864"><ele>659.0</ele><time>2026-04-04T10:39:21Z</time></trkpt><trkpt lat="44.066801983993265" lon="10.97289088104819"><ele>659.0</ele><time>2026-04-04T10:39:22Z</time></trkpt><trkpt lat="44.06665077131635" lon="10.972792472916526"><ele>659.0</ele><time>2026-04-04T10:39:23Z</time></trkpt><trkpt lat="44.06652531194047" lon="10.97270603084106"><ele>659.0</ele><time>2026-04-04T10:39:24Z</time></trkpt><trkpt lat="44.066399387576574" lon="10.972605705852555"><ele>659.0</ele><time>2026-04-04T10:39:24.999Z</time></trkpt><trkpt lat="44.066295306278754" lon="10.972503764108824"><ele>659.0</ele><time>2026-04-04T10:39:25.999Z</time></trkpt><trkpt lat="44.06620978943015" lon="10.972373455687867"><ele>659.0</ele><time>2026-04-04T10:39:26.999Z</time></trkpt><trkpt lat="44.066143449394666" lon="10.97221329462592"><ele>659.0</ele><time>2026-04-04T10:39:27.999Z</time></trkpt><trkpt lat="44.06607761201619" lon="10.97202017749657"><ele>659.0</ele><time>2026-04-04T10:39:28.999Z</time></trkpt><trkpt lat="44.066021910213195" lon="10.971767627394238"><ele>659.0</ele><time>2026-04-04T10:39:29.999Z</time></trkpt><trkpt lat="44.0659492823392" lon="10.971503873693736"><ele>660.0</ele><time>2026-04-04T10:39:30.999Z</time></trkpt><trkpt lat="44.06585661560999" lon="10.971244206254168"><ele>661.0</ele><time>2026-04-04T10:39:31.999Z</time></trkpt><trkpt lat="44.0657375271227" lon="10.970990204906526"><ele>662.0</ele><time>2026-04-04T10:39:32.999Z</time></trkpt><trkpt lat="44.065615502155005" lon="10.970759943269366"><ele>662.0</ele><time>2026-04-04T10:39:33.999Z</time></trkpt><trkpt lat="44.065490204180335" lon="10.970574109120788"><ele>662.0</ele><time>2026-04-04T10:39:34.999Z</time></trkpt><trkpt lat="44.06535421783629" lon="10.970421954692286"><ele>662.0</ele><time>2026-04-04T10:39:35.999Z</time></trkpt><trkpt lat="44.065192767730416" lon="10.970281322824201"><ele>662.0</ele><time>2026-04-04T10:39:36.999Z</time></trkpt><trkpt lat="44.06501101831492" lon="10.970164668706753"><ele>662.0</ele><time>2026-04-04T10:39:37.999Z</time></trkpt><trkpt lat="44.06481922720468" lon="10.970067000308859"><ele>662.0</ele><time>2026-04-04T10:39:38.999Z</time></trkpt><trkpt lat="44.06461888689166" lon="10.969985495189189"><ele>661.0</ele><time>2026-04-04T10:39:39.999Z</time></trkpt><trkpt lat="44.06442890601172" lon="10.96990221669419"><ele>660.0</ele><time>2026-04-04T10:39:40.999Z</time></trkpt><trkpt lat="44.06425537009892" lon="10.969870316320685"><ele>659.0</ele><time>2026-04-04T10:39:41.999Z</time></trkpt><trkpt lat="44.06409648730482" lon="10.969846105627397"><ele>661.0</ele><time>2026-04-04T10:39:42.999Z</time></trkpt><trkpt lat="44.06395567798549" lon="10.969821518893829"><ele>663.0</ele><time>2026-04-04T10:39:43.999Z</time></trkpt><trkpt lat="44.063825273339226" lon="10.96980765650347"><ele>665.0</ele><time>2026-04-04T10:39:44.999Z</time></trkpt><trkpt lat="44.06371447732095" lon="10.969760273970309"><ele>667.0</ele><time>2026-04-04T10:39:45.999Z</time></trkpt><trkpt lat="44.063607033492424" lon="10.969694521615194"><ele>667.0</ele><time>2026-04-04T10:39:46.999Z</time></trkpt><trkpt lat="44.0635047887659" lon="10.969633648637632"><ele>667.0</ele><time>2026-04-04T10:39:47.999Z</time></trkpt><trkpt lat="44.06341448892862" lon="10.969493629100993"><ele>667.0</ele><time>2026-04-04T10:39:48.999Z</time></trkpt><trkpt lat="44.063351381450644" lon="10.969312311335575"><ele>667.0</ele><time>2026-04-04T10:39:49.999Z</time></trkpt><trkpt lat="44.06327184841268" lon="10.969174549195955"><ele>669.5</ele><time>2026-04-04T10:39:50.999Z</time></trkpt><trkpt lat="44.063183627837965" lon="10.969035722678019"><ele>672.0</ele><time>2026-04-04T10:39:51.999Z</time></trkpt><trkpt lat="44.063092152823444" lon="10.968884800486176"><ele>674.5</ele><time>2026-04-04T10:39:52.999Z</time></trkpt><trkpt lat="44.0629983580355" lon="10.968737323493414"><ele>677.0</ele><time>2026-04-04T10:39:53.999Z</time></trkpt><trkpt lat="44.062903381327004" lon="10.968587509978812"><ele>677.0</ele><time>2026-04-04T10:39:54.999Z</time></trkpt><trkpt lat="44.06281325560255" lon="10.96844150155797"><ele>677.0</ele><time>2026-04-04T10:39:55.999Z</time></trkpt><trkpt lat="44.06272357188835" lon="10.968296754430755"><ele>677.0</ele><time>2026-04-04T10:39:56.999Z</time></trkpt><trkpt lat="44.0626364770594" lon="10.968135673809885"><ele>677.0</ele><time>2026-04-04T10:39:57.999Z</time></trkpt><trkpt lat="44.06255097821477" lon="10.967958710295745"><ele>673.3333333333333</ele><time>2026-04-04T10:39:58.999Z</time></trkpt><trkpt lat="44.06246961438448" lon="10.967783261775661"><ele>669.6666666666666</ele><time>2026-04-04T10:39:59.999Z</time></trkpt><trkpt lat="44.062378399493205" lon="10.967595367285071"><ele>666.0</ele><time>2026-04-04T10:40:00.999Z</time></trkpt><trkpt lat="44.06228669739849" lon="10.967395507421578"><ele>674.6666666666666</ele><time>2026-04-04T10:40:01.999Z</time></trkpt><trkpt lat="44.06219555323562" lon="10.967189475577491"><ele>683.3333333333333</ele><time>2026-04-04T10:40:02.999Z</time></trkpt><trkpt lat="44.06210040318791" lon="10.966980877592153"><ele>692.0</ele><time>2026-04-04T10:40:03.999Z</time></trkpt><trkpt lat="44.06200125237754" lon="10.96677425817006"><ele>685.6666666666666</ele><time>2026-04-04T10:40:04.999Z</time></trkpt><trkpt lat="44.06190053451011" lon="10.966561201107707"><ele>679.3333333333334</ele><time>2026-04-04T10:40:06Z</time></trkpt><trkpt lat="44.06179176625683" lon="10.966352947098953"><ele>673.0</ele><time>2026-04-04T10:40:07Z</time></trkpt><trkpt lat="44.061692016353454" lon="10.966157621931421"><ele>680.0</ele><time>2026-04-04T10:40:08Z</time></trkpt><trkpt lat="44.06159286032493" lon="10.965994792310388"><ele>687.0</ele><time>2026-04-04T10:40:09Z</time></trkpt><trkpt lat="44.061510501445554" lon="10.965854628975947"><ele>694.0</ele><time>2026-04-04T10:40:10Z</time></trkpt><trkpt lat="44.061433628677655" lon="10.965720234376798"><ele>701.0</ele><time>2026-04-04T10:40:11Z</time></trkpt><trkpt lat="44.06135137904573" lon="10.965614513444285"><ele>701.0</ele><time>2026-04-04T10:40:12Z</time></trkpt><trkpt lat="44.06124483725709" lon="10.965507584451178"><ele>701.0</ele><time>2026-04-04T10:40:13Z</time></trkpt><trkpt lat="44.061112664021245" lon="10.965409722857885"><ele>701.0</ele><time>2026-04-04T10:40:14Z</time></trkpt><trkpt lat="44.060996554604195" lon="10.965266943700533"><ele>701.0</ele><time>2026-04-04T10:40:15Z</time></trkpt><trkpt lat="44.06091172332902" lon="10.965063623502948"><ele>694.6666666666666</ele><time>2026-04-04T10:40:16Z</time></trkpt><trkpt lat="44.0608203907379" lon="10.964857249360387"><ele>688.3333333333334</ele><time>2026-04-04T10:40:17Z</time></trkpt><trkpt lat="44.060706609996316" lon="10.964653143680898"><ele>682.0</ele><time>2026-04-04T10:40:18Z</time></trkpt><trkpt lat="44.06059098395506" lon="10.964444160409615"><ele>690.6666666666667</ele><time>2026-04-04T10:40:19Z</time></trkpt><trkpt lat="44.06048763715412" lon="10.964229400994993"><ele>699.3333333333334</ele><time>2026-04-04T10:40:20Z</time></trkpt><trkpt lat="44.060400643710594" lon="10.964019440855882"><ele>708.0</ele><time>2026-04-04T10:40:21Z</time></trkpt><trkpt lat="44.06032769101542" lon="10.963810046061047"><ele>708.0</ele><time>2026-04-04T10:40:22Z</time></trkpt><trkpt lat="44.060275554149385" lon="10.963642275810614"><ele>708.0</ele><time>2026-04-04T10:40:23Z</time></trkpt><trkpt lat="44.06023696698656" lon="10.96349806924041"><ele>708.0</ele><time>2026-04-04T10:40:24Z</time></trkpt><trkpt lat="44.060195277137794" lon="10.963370075087795"><ele>708.0</ele><time>2026-04-04T10:40:25Z</time></trkpt><trkpt lat="44.06015726652865" lon="10.963251802253648"><ele>708.0</ele><time>2026-04-04T10:40:26Z</time></trkpt><trkpt lat="44.06012937040371" lon="10.963151647660322"><ele>705.3333333333334</ele><time>2026-04-04T10:40:27Z</time></trkpt><trkpt lat="44.060105394502784" lon="10.963061222106264"><ele>702.6666666666666</ele><time>2026-04-04T10:40:28Z</time></trkpt><trkpt lat="44.0600741680355" lon="10.962939052643184"><ele>700.0</ele><time>2026-04-04T10:40:30Z</time></trkpt><trkpt lat="44.06004000308919" lon="10.962830757289248"><ele>697.3333333333333</ele><time>2026-04-04T10:40:35Z</time></trkpt><trkpt lat="44.060009714492885" lon="10.962711033736742"><ele>694.6666666666666</ele><time>2026-04-04T10:40:37Z</time></trkpt><trkpt lat="44.05998805321044" lon="10.962627061538248"><ele>692.0</ele><time>2026-04-04T10:40:41Z</time></trkpt><trkpt lat="44.05993301684763" lon="10.962495956933084"><ele>691.0</ele><time>2026-04-04T10:41:02Z</time></trkpt><trkpt lat="44.05987240315964" lon="10.962412128856812"><ele>690.0</ele><time>2026-04-04T10:41:03Z</time></trkpt><trkpt lat="44.059810415644215" lon="10.962323001286753"><ele>689.0</ele><time>2026-04-04T10:41:04Z</time></trkpt><trkpt lat="44.05973996123255" lon="10.962227666611165"><ele>688.0</ele><time>2026-04-04T10:41:05Z</time></trkpt><trkpt lat="44.059660157775085" lon="10.96211980009132"><ele>687.0</ele><time>2026-04-04T10:41:06Z</time></trkpt><trkpt lat="44.05957682105668" lon="10.962033286813805"><ele>687.0</ele><time>2026-04-04T10:41:07Z</time></trkpt><trkpt lat="44.05948232627838" lon="10.96200793741665"><ele>687.0</ele><time>2026-04-04T10:41:08Z</time></trkpt><trkpt lat="44.059371774575354" lon="10.962039473930913"><ele>687.0</ele><time>2026-04-04T10:41:09Z</time></trkpt><trkpt lat="44.05926463116374" lon="10.962096640676915"><ele>687.0</ele><time>2026-04-04T10:41:10Z</time></trkpt><trkpt lat="44.05915658954376" lon="10.962115704482885"><ele>687.0</ele><time>2026-04-04T10:41:11Z</time></trkpt><trkpt lat="44.05904588251204" lon="10.962113584376125"><ele>688.75</ele><time>2026-04-04T10:41:12Z</time></trkpt><trkpt lat="44.05894959420398" lon="10.962059391208257"><ele>690.5</ele><time>2026-04-04T10:41:13Z</time></trkpt><trkpt lat="44.058887212472705" lon="10.96195077739041"><ele>692.25</ele><time>2026-04-04T10:41:14Z</time></trkpt><trkpt lat="44.05881364931663" lon="10.961787941506685"><ele>694.0</ele><time>2026-04-04T10:41:15Z</time></trkpt><trkpt lat="44.05873786479644" lon="10.961609139443832"><ele>694.0</ele><time>2026-04-04T10:41:16Z</time></trkpt><trkpt lat="44.05865256071616" lon="10.961408214007793"><ele>694.0</ele><time>2026-04-04T10:41:17Z</time></trkpt><trkpt lat="44.05857058435178" lon="10.961230820070758"><ele>694.0</ele><time>2026-04-04T10:41:18Z</time></trkpt><trkpt lat="44.05849386714118" lon="10.961066756284657"><ele>694.0</ele><time>2026-04-04T10:41:19Z</time></trkpt><trkpt lat="44.05841377287888" lon="10.960911096558084"><ele>694.0</ele><time>2026-04-04T10:41:20Z</time></trkpt><trkpt lat="44.058324487781874" lon="10.96077871255685"><ele>694.0</ele><time>2026-04-04T10:41:21Z</time></trkpt><trkpt lat="44.05823393818181" lon="10.960669166317395"><ele>694.0</ele><time>2026-04-04T10:41:22Z</time></trkpt><trkpt lat="44.05814980661473" lon="10.960584625309359"><ele>696.8333333333334</ele><time>2026-04-04T10:41:23Z</time></trkpt><trkpt lat="44.058072180244125" lon="10.960516325623798"><ele>699.6666666666667</ele><time>2026-04-04T10:41:24Z</time></trkpt><trkpt lat="44.05799690792012" lon="10.960468887296921"><ele>702.5</ele><time>2026-04-04T10:41:25Z</time></trkpt><trkpt lat="44.057918020533926" lon="10.960453848688557"><ele>705.3333333333334</ele><time>2026-04-04T10:41:26Z</time></trkpt><trkpt lat="44.05782141945364" lon="10.960455851177981"><ele>708.1666666666666</ele><time>2026-04-04T10:41:27Z</time></trkpt><trkpt lat="44.057728541899515" lon="10.960410156360922"><ele>711.0</ele><time>2026-04-04T10:41:28Z</time></trkpt><trkpt lat="44.057617040116114" lon="10.96035373558475"><ele>711.0</ele><time>2026-04-04T10:41:29Z</time></trkpt><trkpt lat="44.05750564557801" lon="10.960286513044297"><ele>711.0</ele><time>2026-04-04T10:41:30Z</time></trkpt><trkpt lat="44.05738126462423" lon="10.960179221157082"><ele>711.0</ele><time>2026-04-04T10:41:31Z</time></trkpt><trkpt lat="44.05724040660695" lon="10.960032054344628"><ele>711.0</ele><time>2026-04-04T10:41:32Z</time></trkpt><trkpt lat="44.05709347617635" lon="10.959893311951964"><ele>715.6666666666666</ele><time>2026-04-04T10:41:33Z</time></trkpt><trkpt lat="44.05694605755532" lon="10.95976160127519"><ele>720.3333333333333</ele><time>2026-04-04T10:41:34Z</time></trkpt><trkpt lat="44.05681388268969" lon="10.959643880299785"><ele>725.0</ele><time>2026-04-04T10:41:35Z</time></trkpt><trkpt lat="44.056699139562284" lon="10.959537925541426"><ele>728.0</ele><time>2026-04-04T10:41:36Z</time></trkpt><trkpt lat="44.05658883310529" lon="10.959422111023333"><ele>731.0</ele><time>2026-04-04T10:41:37Z</time></trkpt><trkpt lat="44.05648732674917" lon="10.9592825331067"><ele>734.0</ele><time>2026-04-04T10:41:38Z</time></trkpt><trkpt lat="44.05641630988779" lon="10.959097854213617"><ele>737.0</ele><time>2026-04-04T10:41:39Z</time></trkpt><trkpt lat="44.0563690832206" lon="10.958876573320616"><ele>737.0</ele><time>2026-04-04T10:41:40Z</time></trkpt><trkpt lat="44.05632317673775" lon="10.95864547212061"><ele>737.0</ele><time>2026-04-04T10:41:41Z</time></trkpt><trkpt lat="44.05627996424431" lon="10.95844475820142"><ele>737.0</ele><time>2026-04-04T10:41:42Z</time></trkpt><trkpt lat="44.05621897902991" lon="10.958266810335893"><ele>731.3333333333333</ele><time>2026-04-04T10:41:43Z</time></trkpt><trkpt lat="44.0561178511094" lon="10.958116877640357"><ele>725.6666666666666</ele><time>2026-04-04T10:41:44Z</time></trkpt><trkpt lat="44.0559800881291" lon="10.95798831087882"><ele>720.0</ele><time>2026-04-04T10:41:45Z</time></trkpt><trkpt lat="44.05584953988785" lon="10.957866699007743"><ele>720.75</ele><time>2026-04-04T10:41:46Z</time></trkpt><trkpt lat="44.05572792548371" lon="10.957787616611157"><ele>721.5</ele><time>2026-04-04T10:41:47Z</time></trkpt><trkpt lat="44.05559158321395" lon="10.957759782921805"><ele>722.25</ele><time>2026-04-04T10:41:48Z</time></trkpt><trkpt lat="44.05545201073946" lon="10.957758183695535"><ele>723.0</ele><time>2026-04-04T10:41:49Z</time></trkpt><trkpt lat="44.05529366921087" lon="10.957790460557549"><ele>723.0</ele><time>2026-04-04T10:41:50Z</time></trkpt><trkpt lat="44.055139316438996" lon="10.957823669738103"><ele>723.0</ele><time>2026-04-04T10:41:51Z</time></trkpt><trkpt lat="44.055000496113806" lon="10.95787203035753"><ele>723.0</ele><time>2026-04-04T10:41:52Z</time></trkpt><trkpt lat="44.05488602949516" lon="10.957922097771828"><ele>723.0</ele><time>2026-04-04T10:41:53Z</time></trkpt><trkpt lat="44.054798512976106" lon="10.958029483326596"><ele>723.0</ele><time>2026-04-04T10:41:54Z</time></trkpt><trkpt lat="44.05472831625101" lon="10.95818882674701"><ele>723.0</ele><time>2026-04-04T10:41:55Z</time></trkpt><trkpt lat="44.054652328023785" lon="10.958385768369318"><ele>723.0</ele><time>2026-04-04T10:41:56Z</time></trkpt><trkpt lat="44.05454664806591" lon="10.958571545535875"><ele>723.0</ele><time>2026-04-04T10:41:57Z</time></trkpt><trkpt lat="44.054417072780815" lon="10.958715979196636"><ele>723.0</ele><time>2026-04-04T10:41:58Z</time></trkpt><trkpt lat="44.05426968811248" lon="10.958821045015368"><ele>723.0</ele><time>2026-04-04T10:41:59Z</time></trkpt><trkpt lat="44.054124007889875" lon="10.958869644584622"><ele>725.0</ele><time>2026-04-04T10:42:00Z</time></trkpt><trkpt lat="44.05398737234164" lon="10.958885638668498"><ele>727.0</ele><time>2026-04-04T10:42:01Z</time></trkpt><trkpt lat="44.05385875605468" lon="10.958876820318341"><ele>729.0</ele><time>2026-04-04T10:42:02Z</time></trkpt><trkpt lat="44.05372266785517" lon="10.958830456058202"><ele>731.0</ele><time>2026-04-04T10:42:03Z</time></trkpt><trkpt lat="44.05357348336765" lon="10.958738123723016"><ele>731.0</ele><time>2026-04-04T10:42:04Z</time></trkpt><trkpt lat="44.0534133913771" lon="10.95863403888676"><ele>731.0</ele><time>2026-04-04T10:42:05Z</time></trkpt><trkpt lat="44.05324531106405" lon="10.958486809635566"><ele>731.0</ele><time>2026-04-04T10:42:06Z</time></trkpt><trkpt lat="44.053059091500195" lon="10.958329419113992"><ele>731.5</ele><time>2026-04-04T10:42:07Z</time></trkpt><trkpt lat="44.052854384431505" lon="10.958152517444221"><ele>732.0</ele><time>2026-04-04T10:42:08Z</time></trkpt><trkpt lat="44.052656945394986" lon="10.958007156904088"><ele>732.0</ele><time>2026-04-04T10:42:09Z</time></trkpt><trkpt lat="44.05248295314034" lon="10.957885829463644"><ele>732.0</ele><time>2026-04-04T10:42:10Z</time></trkpt><trkpt lat="44.05233283737433" lon="10.957780973351136"><ele>732.0</ele><time>2026-04-04T10:42:11Z</time></trkpt><trkpt lat="44.052212811364186" lon="10.95768053328363"><ele>733.6666666666666</ele><time>2026-04-04T10:42:12Z</time></trkpt><trkpt lat="44.05210480386024" lon="10.957548444028589"><ele>735.3333333333333</ele><time>2026-04-04T10:42:13Z</time></trkpt><trkpt lat="44.052018018900256" lon="10.95735909313947"><ele>737.0</ele><time>2026-04-04T10:42:14Z</time></trkpt><trkpt lat="44.05193886721764" lon="10.957139385639081"><ele>737.0</ele><time>2026-04-04T10:42:15Z</time></trkpt><trkpt lat="44.05186661029361" lon="10.956947835088398"><ele>737.0</ele><time>2026-04-04T10:42:16Z</time></trkpt><trkpt lat="44.05180816130558" lon="10.956816558077685"><ele>737.0</ele><time>2026-04-04T10:42:17Z</time></trkpt><trkpt lat="44.05174553094536" lon="10.956742579267583"><ele>737.0</ele><time>2026-04-04T10:42:18Z</time></trkpt><trkpt lat="44.05166407195311" lon="10.95672295064558"><ele>737.0</ele><time>2026-04-04T10:42:19Z</time></trkpt><trkpt lat="44.05156875841993" lon="10.956765136567915"><ele>737.25</ele><time>2026-04-04T10:42:20Z</time></trkpt><trkpt lat="44.0514609665965" lon="10.956825278046743"><ele>737.5</ele><time>2026-04-04T10:42:21Z</time></trkpt><trkpt lat="44.051359350269955" lon="10.956825718448785"><ele>737.75</ele><time>2026-04-04T10:42:22Z</time></trkpt><trkpt lat="44.05125654449361" lon="10.956743572229097"><ele>738.0</ele><time>2026-04-04T10:42:23Z</time></trkpt><trkpt lat="44.05115253090748" lon="10.956603808759565"><ele>738.0</ele><time>2026-04-04T10:42:24Z</time></trkpt><trkpt lat="44.05102424489641" lon="10.956486996254437"><ele>738.0</ele><time>2026-04-04T10:42:25Z</time></trkpt><trkpt lat="44.05087144594688" lon="10.956391764990617"><ele>738.0</ele><time>2026-04-04T10:42:26Z</time></trkpt><trkpt lat="44.05070690417724" lon="10.956338797727993"><ele>740.0</ele><time>2026-04-04T10:42:27Z</time></trkpt><trkpt lat="44.0505166286987" lon="10.956336311542339"><ele>742.0</ele><time>2026-04-04T10:42:28Z</time></trkpt><trkpt lat="44.05030618466198" lon="10.956369421853303"><ele>744.0</ele><time>2026-04-04T10:42:29Z</time></trkpt><trkpt lat="44.05009411759616" lon="10.956416698405262"><ele>744.6666666666666</ele><time>2026-04-04T10:42:30Z</time></trkpt><trkpt lat="44.04990747905942" lon="10.956442989139795"><ele>745.3333333333333</ele><time>2026-04-04T10:42:31Z</time></trkpt><trkpt lat="44.04973339759242" lon="10.9564281215225"><ele>746.0</ele><time>2026-04-04T10:42:32Z</time></trkpt><trkpt lat="44.04956908518638" lon="10.956413918686657"><ele>746.0</ele><time>2026-04-04T10:42:33Z</time></trkpt><trkpt lat="44.049402600351776" lon="10.956370423138264"><ele>746.0</ele><time>2026-04-04T10:42:34Z</time></trkpt><trkpt lat="44.049236297669395" lon="10.956303610868279"><ele>746.0</ele><time>2026-04-04T10:42:35Z</time></trkpt><trkpt lat="44.04906591862426" lon="10.956195628989086"><ele>746.3333333333333</ele><time>2026-04-04T10:42:36Z</time></trkpt><trkpt lat="44.0488781830088" lon="10.956067887676612"><ele>746.6666666666666</ele><time>2026-04-04T10:42:37Z</time></trkpt><trkpt lat="44.04869521029995" lon="10.955939742701203"><ele>747.0</ele><time>2026-04-04T10:42:38Z</time></trkpt><trkpt lat="44.04851366050414" lon="10.9558250815012"><ele>747.0</ele><time>2026-04-04T10:42:39Z</time></trkpt><trkpt lat="44.04833432826285" lon="10.955713999464576"><ele>747.0</ele><time>2026-04-04T10:42:40Z</time></trkpt><trkpt lat="44.04816139183937" lon="10.955600538512732"><ele>747.0</ele><time>2026-04-04T10:42:41Z</time></trkpt><trkpt lat="44.04798775834401" lon="10.955494796803675"><ele>753.0</ele><time>2026-04-04T10:42:42Z</time></trkpt><trkpt lat="44.047813075987406" lon="10.955409222371113"><ele>759.0</ele><time>2026-04-04T10:42:43Z</time></trkpt><trkpt lat="44.047618597086135" lon="10.955373125462165"><ele>765.0</ele><time>2026-04-04T10:42:44Z</time></trkpt><trkpt lat="44.047426040588476" lon="10.955365238402218"><ele>770.6666666666667</ele><time>2026-04-04T10:42:45Z</time></trkpt><trkpt lat="44.0472143636137" lon="10.955353357184078"><ele>776.3333333333334</ele><time>2026-04-04T10:42:46Z</time></trkpt><trkpt lat="44.04702433726171" lon="10.955330858510006"><ele>782.0</ele><time>2026-04-04T10:42:47Z</time></trkpt><trkpt lat="44.04686049265923" lon="10.955294662882762"><ele>782.0</ele><time>2026-04-04T10:42:48Z</time></trkpt><trkpt lat="44.04670920486828" lon="10.955204631953576"><ele>782.0</ele><time>2026-04-04T10:42:49Z</time></trkpt><trkpt lat="44.04655337244943" lon="10.955072918751158"><ele>782.0</ele><time>2026-04-04T10:42:50Z</time></trkpt><trkpt lat="44.04637692367121" lon="10.95492306852008"><ele>774.5</ele><time>2026-04-04T10:42:51Z</time></trkpt><trkpt lat="44.04620729145286" lon="10.954730288821684"><ele>767.0</ele><time>2026-04-04T10:42:52Z</time></trkpt><trkpt lat="44.04602497590264" lon="10.954510416575248"><ele>767.0</ele><time>2026-04-04T10:42:53Z</time></trkpt><trkpt lat="44.04581867358053" lon="10.954291195028803"><ele>767.0</ele><time>2026-04-04T10:42:54Z</time></trkpt><trkpt lat="44.045600237454" lon="10.954064395387496"><ele>768.0</ele><time>2026-04-04T10:42:55Z</time></trkpt><trkpt lat="44.04538836540137" lon="10.95384603881501"><ele>769.0</ele><time>2026-04-04T10:42:56Z</time></trkpt><trkpt lat="44.0452087878031" lon="10.95365487761037"><ele>769.0</ele><time>2026-04-04T10:42:57Z</time></trkpt><trkpt lat="44.04506013760632" lon="10.953486949094591"><ele>769.0</ele><time>2026-04-04T10:42:58Z</time></trkpt><trkpt lat="44.044936168681375" lon="10.95334022406512"><ele>769.0</ele><time>2026-04-04T10:42:59Z</time></trkpt><trkpt lat="44.04477871204044" lon="10.953231457671015"><ele>766.0</ele><time>2026-04-04T10:43:00Z</time></trkpt><trkpt lat="44.04459232696213" lon="10.953165265952558"><ele>763.0</ele><time>2026-04-04T10:43:01Z</time></trkpt><trkpt lat="44.04439441994999" lon="10.953114281787196"><ele>760.0</ele><time>2026-04-04T10:43:02Z</time></trkpt><trkpt lat="44.044233065539636" lon="10.953065276437636"><ele>760.75</ele><time>2026-04-04T10:43:03Z</time></trkpt><trkpt lat="44.04410037266267" lon="10.953008490055858"><ele>761.5</ele><time>2026-04-04T10:43:04Z</time></trkpt><trkpt lat="44.04398603795748" lon="10.952893531313254"><ele>762.25</ele><time>2026-04-04T10:43:05Z</time></trkpt><trkpt lat="44.04387535712667" lon="10.952739730067181"><ele>763.0</ele><time>2026-04-04T10:43:06Z</time></trkpt><trkpt lat="44.04373666491874" lon="10.95259882109049"><ele>763.3333333333334</ele><time>2026-04-04T10:43:07Z</time></trkpt><trkpt lat="44.04356820527112" lon="10.952500507136754"><ele>763.6666666666666</ele><time>2026-04-04T10:43:08Z</time></trkpt><trkpt lat="44.043378315655424" lon="10.952433986485593"><ele>764.0</ele><time>2026-04-04T10:43:09Z</time></trkpt><trkpt lat="44.04316249300237" lon="10.952375297454712"><ele>763.0</ele><time>2026-04-04T10:43:10Z</time></trkpt><trkpt lat="44.04292442710575" lon="10.95231311191968"><ele>762.0</ele><time>2026-04-04T10:43:11Z</time></trkpt><trkpt lat="44.042684525321995" lon="10.952245269766772"><ele>762.0</ele><time>2026-04-04T10:43:12Z</time></trkpt><trkpt lat="44.04248035325954" lon="10.952187716900937"><ele>762.0</ele><time>2026-04-04T10:43:13Z</time></trkpt><trkpt lat="44.04231161569754" lon="10.952131820634746"><ele>762.0</ele><time>2026-04-04T10:43:14Z</time></trkpt><trkpt lat="44.04216109469156" lon="10.952081802377236"><ele>762.75</ele><time>2026-04-04T10:43:15Z</time></trkpt><trkpt lat="44.042033798127974" lon="10.952013621057118"><ele>763.5</ele><time>2026-04-04T10:43:16Z</time></trkpt><trkpt lat="44.04192096159608" lon="10.951930467186726"><ele>764.25</ele><time>2026-04-04T10:43:17Z</time></trkpt><trkpt lat="44.041819310303964" lon="10.95184351931183"><ele>765.0</ele><time>2026-04-04T10:43:18Z</time></trkpt><trkpt lat="44.041730400880716" lon="10.951756575709673"><ele>765.0</ele><time>2026-04-04T10:43:19Z</time></trkpt><trkpt lat="44.04164057261202" lon="10.951654000142085"><ele>765.0</ele><time>2026-04-04T10:43:20Z</time></trkpt><trkpt lat="44.041551692240645" lon="10.951528034882669"><ele>765.0</ele><time>2026-04-04T10:43:21Z</time></trkpt><trkpt lat="44.04146001644692" lon="10.95139933172495"><ele>765.0</ele><time>2026-04-04T10:43:22Z</time></trkpt><trkpt lat="44.04135994590684" lon="10.951261690860619"><ele>765.0</ele><time>2026-04-04T10:43:23Z</time></trkpt><trkpt lat="44.04125426331245" lon="10.951099978046607"><ele>765.0</ele><time>2026-04-04T10:43:24Z</time></trkpt><trkpt lat="44.04114097471049" lon="10.950911685133335"><ele>765.0</ele><time>2026-04-04T10:43:25Z</time></trkpt><trkpt lat="44.04102611815091" lon="10.950722524623297"><ele>765.0</ele><time>2026-04-04T10:43:26Z</time></trkpt><trkpt lat="44.040906570529025" lon="10.950528815476186"><ele>765.0</ele><time>2026-04-04T10:43:27Z</time></trkpt><trkpt lat="44.04077240514863" lon="10.950314876279753"><ele>765.0</ele><time>2026-04-04T10:43:28Z</time></trkpt><trkpt lat="44.04064299899146" lon="10.950091676688492"><ele>764.6666666666666</ele><time>2026-04-04T10:43:29Z</time></trkpt><trkpt lat="44.04052048092716" lon="10.94987512862875"><ele>764.3333333333333</ele><time>2026-04-04T10:43:30Z</time></trkpt><trkpt lat="44.04039598543297" lon="10.949663144661248"><ele>764.0</ele><time>2026-04-04T10:43:31Z</time></trkpt><trkpt lat="44.04028923440134" lon="10.949473461166457"><ele>764.0</ele><time>2026-04-04T10:43:32Z</time></trkpt><trkpt lat="44.04019656398297" lon="10.949301712058986"><ele>764.0</ele><time>2026-04-04T10:43:33Z</time></trkpt><trkpt lat="44.04010448339072" lon="10.94912375609862"><ele>764.0</ele><time>2026-04-04T10:43:34Z</time></trkpt><trkpt lat="44.04003496193951" lon="10.948931780061402"><ele>763.3333333333333</ele><time>2026-04-04T10:43:35Z</time></trkpt><trkpt lat="44.03997584743103" lon="10.948726978414248"><ele>762.6666666666666</ele><time>2026-04-04T10:43:36Z</time></trkpt><trkpt lat="44.03991865718016" lon="10.948520762298442"><ele>762.0</ele><time>2026-04-04T10:43:37Z</time></trkpt><trkpt lat="44.03986460202571" lon="10.94833401247304"><ele>762.0</ele><time>2026-04-04T10:43:38Z</time></trkpt><trkpt lat="44.03981479368174" lon="10.948161764292292"><ele>762.0</ele><time>2026-04-04T10:43:39Z</time></trkpt><trkpt lat="44.0397751117264" lon="10.948019399256712"><ele>762.0</ele><time>2026-04-04T10:43:40Z</time></trkpt><trkpt lat="44.03972161798824" lon="10.94787872870858"><ele>762.0</ele><time>2026-04-04T10:43:41Z</time></trkpt><trkpt lat="44.03966864001074" lon="10.94775481844627"><ele>762.0</ele><time>2026-04-04T10:43:42Z</time></trkpt><trkpt lat="44.03963737120055" lon="10.947664096574377"><ele>762.0</ele><time>2026-04-04T10:43:43Z</time></trkpt><trkpt lat="44.03957316339336" lon="10.94762534585506"><ele>762.0</ele><time>2026-04-04T10:44:37Z</time></trkpt><trkpt lat="44.03950012834091" lon="10.947590106049546"><ele>762.0</ele><time>2026-04-04T10:44:39Z</time></trkpt><trkpt lat="44.03943746149202" lon="10.947549332725742"><ele>762.0</ele><time>2026-04-04T10:44:40Z</time></trkpt><trkpt lat="44.03936541159167" lon="10.947481298163176"><ele>762.0</ele><time>2026-04-04T10:44:41Z</time></trkpt><trkpt lat="44.03928177709603" lon="10.94738843807764"><ele>763.3333333333334</ele><time>2026-04-04T10:44:42Z</time></trkpt><trkpt lat="44.039171443733494" lon="10.947260996231"><ele>764.6666666666667</ele><time>2026-04-04T10:44:43Z</time></trkpt><trkpt lat="44.039037318625276" lon="10.947117758880788"><ele>766.0</ele><time>2026-04-04T10:44:44Z</time></trkpt><trkpt lat="44.03890380289613" lon="10.94696068758446"><ele>766.0</ele><time>2026-04-04T10:44:45Z</time></trkpt><trkpt lat="44.03875350784181" lon="10.94680642298352"><ele>766.0</ele><time>2026-04-04T10:44:46Z</time></trkpt><trkpt lat="44.03859074248138" lon="10.946640393812327"><ele>766.0</ele><time>2026-04-04T10:44:47Z</time></trkpt><trkpt lat="44.03842285182601" lon="10.946463769628417"><ele>766.0</ele><time>2026-04-04T10:44:48Z</time></trkpt><trkpt lat="44.03827255474062" lon="10.946297202230136"><ele>766.0</ele><time>2026-04-04T10:44:49Z</time></trkpt><trkpt lat="44.038147897523544" lon="10.946148466420999"><ele>766.0</ele><time>2026-04-04T10:44:50Z</time></trkpt><trkpt lat="44.03803857436469" lon="10.94602947798167"><ele>766.0</ele><time>2026-04-04T10:44:51Z</time></trkpt><trkpt lat="44.037954393496086" lon="10.94591464877312"><ele>766.0</ele><time>2026-04-04T10:44:52Z</time></trkpt><trkpt lat="44.03790142451169" lon="10.945783641070753"><ele>766.0</ele><time>2026-04-04T10:44:53Z</time></trkpt><trkpt lat="44.03787201935685" lon="10.945626020765314"><ele>766.0</ele><time>2026-04-04T10:44:54Z</time></trkpt><trkpt lat="44.03785734368219" lon="10.94542310772893"><ele>769.0</ele><time>2026-04-04T10:44:55Z</time></trkpt><trkpt lat="44.037852907444496" lon="10.94519682712628"><ele>772.0</ele><time>2026-04-04T10:44:56Z</time></trkpt><trkpt lat="44.03786028959506" lon="10.944960433579434"><ele>775.0</ele><time>2026-04-04T10:44:57Z</time></trkpt><trkpt lat="44.03787649590259" lon="10.944747801524318"><ele>777.0</ele><time>2026-04-04T10:44:58Z</time></trkpt><trkpt lat="44.03790658300359" lon="10.9445654461897"><ele>779.0</ele><time>2026-04-04T10:44:59Z</time></trkpt><trkpt lat="44.037970722973455" lon="10.94441747491419"><ele>781.0</ele><time>2026-04-04T10:45:00Z</time></trkpt><trkpt lat="44.03806202247465" lon="10.944269488082181"><ele>783.0</ele><time>2026-04-04T10:45:01Z</time></trkpt><trkpt lat="44.038183984382755" lon="10.944116965138308"><ele>791.0</ele><time>2026-04-04T10:45:02Z</time></trkpt><trkpt lat="44.038325361554755" lon="10.943955148005994"><ele>799.0</ele><time>2026-04-04T10:45:03Z</time></trkpt><trkpt lat="44.03845295531396" lon="10.943781436705933"><ele>807.0</ele><time>2026-04-04T10:45:04Z</time></trkpt><trkpt lat="44.03856502696914" lon="10.943580371210855"><ele>806.3333333333333</ele><time>2026-04-04T10:45:05Z</time></trkpt><trkpt lat="44.038648820978594" lon="10.943348100717467"><ele>805.6666666666666</ele><time>2026-04-04T10:45:06Z</time></trkpt><trkpt lat="44.03870892495646" lon="10.943134181323764"><ele>805.0</ele><time>2026-04-04T10:45:07Z</time></trkpt><trkpt lat="44.03875771138156" lon="10.94296308473365"><ele>805.0</ele><time>2026-04-04T10:45:08Z</time></trkpt><trkpt lat="44.03881069535499" lon="10.942833898395026"><ele>805.0</ele><time>2026-04-04T10:45:09Z</time></trkpt><trkpt lat="44.03889904983754" lon="10.94273673659835"><ele>805.0</ele><time>2026-04-04T10:45:10Z</time></trkpt><trkpt lat="44.039028441193786" lon="10.942669621931815"><ele>805.0</ele><time>2026-04-04T10:45:11Z</time></trkpt><trkpt lat="44.039178376300384" lon="10.94260081270487"><ele>806.25</ele><time>2026-04-04T10:45:12Z</time></trkpt><trkpt lat="44.039315490893586" lon="10.942513591752926"><ele>807.5</ele><time>2026-04-04T10:45:13Z</time></trkpt><trkpt lat="44.03941935033898" lon="10.94240473947974"><ele>808.75</ele><time>2026-04-04T10:45:14Z</time></trkpt><trkpt lat="44.03949712736439" lon="10.942283312518883"><ele>810.0</ele><time>2026-04-04T10:45:15Z</time></trkpt><trkpt lat="44.03954773469266" lon="10.942163670400527"><ele>810.0</ele><time>2026-04-04T10:45:16Z</time></trkpt><trkpt lat="44.03954994237748" lon="10.942025744395824"><ele>810.0</ele><time>2026-04-04T10:45:17Z</time></trkpt><trkpt lat="44.039513206160066" lon="10.941864453154782"><ele>810.0</ele><time>2026-04-04T10:45:18Z</time></trkpt><trkpt lat="44.03943589736712" lon="10.941734573420884"><ele>810.0</ele><time>2026-04-04T10:45:19Z</time></trkpt><trkpt lat="44.03933361866974" lon="10.941666967778936"><ele>810.5</ele><time>2026-04-04T10:45:20Z</time></trkpt><trkpt lat="44.03921238206886" lon="10.941646556868049"><ele>811.0</ele><time>2026-04-04T10:45:21Z</time></trkpt><trkpt lat="44.03909219995731" lon="10.941642197998894"><ele>811.5</ele><time>2026-04-04T10:45:22Z</time></trkpt><trkpt lat="44.039004733864" lon="10.94156753081764"><ele>812.0</ele><time>2026-04-04T10:45:23Z</time></trkpt><trkpt lat="44.03895836542127" lon="10.941419634091865"><ele>816.4000000000001</ele><time>2026-04-04T10:45:24Z</time></trkpt><trkpt lat="44.03891726157731" lon="10.941253831606195"><ele>820.8000000000001</ele><time>2026-04-04T10:45:25Z</time></trkpt><trkpt lat="44.03887010188832" lon="10.941134889283123"><ele>825.2</ele><time>2026-04-04T10:45:26Z</time></trkpt><trkpt lat="44.03879993890619" lon="10.941068187462825"><ele>829.6</ele><time>2026-04-04T10:45:27Z</time></trkpt><trkpt lat="44.038703667699835" lon="10.94106416184502"><ele>834.0</ele><time>2026-04-04T10:45:28Z</time></trkpt><trkpt lat="44.03861100577839" lon="10.941127545442946"><ele>834.0</ele><time>2026-04-04T10:45:29Z</time></trkpt><trkpt lat="44.03855543070116" lon="10.941242466340304"><ele>834.0</ele><time>2026-04-04T10:45:30Z</time></trkpt><trkpt lat="44.03855928366123" lon="10.941393931782459"><ele>834.0</ele><time>2026-04-04T10:45:31Z</time></trkpt><trkpt lat="44.03858068230997" lon="10.941593148251979"><ele>834.0</ele><time>2026-04-04T10:45:32Z</time></trkpt><trkpt lat="44.03858803917529" lon="10.941816236466144"><ele>829.75</ele><time>2026-04-04T10:45:33Z</time></trkpt><trkpt lat="44.038556961431226" lon="10.941977364847924"><ele>825.5</ele><time>2026-04-04T10:45:34Z</time></trkpt><trkpt lat="44.03849091479359" lon="10.942076525510771"><ele>821.25</ele><time>2026-04-04T10:45:35Z</time></trkpt><trkpt lat="44.03836363284688" lon="10.942187880001267"><ele>817.0</ele><time>2026-04-04T10:45:36Z</time></trkpt><trkpt lat="44.0382099110178" lon="10.94232359927959"><ele>818.6666666666666</ele><time>2026-04-04T10:45:37Z</time></trkpt><trkpt lat="44.03807115173675" lon="10.94248879327419"><ele>820.3333333333333</ele><time>2026-04-04T10:45:38Z</time></trkpt><trkpt lat="44.037951175342194" lon="10.942674341150541"><ele>822.0</ele><time>2026-04-04T10:45:39Z</time></trkpt><trkpt lat="44.037828754744744" lon="10.942850365698789"><ele>822.0</ele><time>2026-04-04T10:45:40Z</time></trkpt><trkpt lat="44.03768345101864" lon="10.942999092242665"><ele>822.0</ele><time>2026-04-04T10:45:41Z</time></trkpt><trkpt lat="44.0375228391495" lon="10.94314682528212"><ele>822.0</ele><time>2026-04-04T10:45:42Z</time></trkpt><trkpt lat="44.03738218775922" lon="10.943262521021206"><ele>822.5</ele><time>2026-04-04T10:45:43Z</time></trkpt><trkpt lat="44.03726493961607" lon="10.943360714523676"><ele>823.0</ele><time>2026-04-04T10:45:44Z</time></trkpt><trkpt lat="44.03716863754408" lon="10.943435941739983"><ele>823.5</ele><time>2026-04-04T10:45:45Z</time></trkpt><trkpt lat="44.03707273286754" lon="10.943483087489788"><ele>824.0</ele><time>2026-04-04T10:45:46Z</time></trkpt><trkpt lat="44.03695698926216" lon="10.943495521292263"><ele>824.0</ele><time>2026-04-04T10:45:47Z</time></trkpt><trkpt lat="44.03682803835821" lon="10.943442997757517"><ele>824.0</ele><time>2026-04-04T10:45:48Z</time></trkpt><trkpt lat="44.03669447951104" lon="10.94333520179837"><ele>824.0</ele><time>2026-04-04T10:45:49Z</time></trkpt><trkpt lat="44.036570337340905" lon="10.943198200743169"><ele>824.0</ele><time>2026-04-04T10:45:50Z</time></trkpt><trkpt lat="44.03646647895083" lon="10.943044759359594"><ele>821.25</ele><time>2026-04-04T10:45:51Z</time></trkpt><trkpt lat="44.03639085062102" lon="10.942895897487482"><ele>818.5</ele><time>2026-04-04T10:45:52Z</time></trkpt><trkpt lat="44.03634868383206" lon="10.94274899475999"><ele>815.75</ele><time>2026-04-04T10:45:53Z</time></trkpt><trkpt lat="44.036341442757376" lon="10.942605609859303"><ele>813.0</ele><time>2026-04-04T10:45:54Z</time></trkpt><trkpt lat="44.03635610949246" lon="10.94244671528404"><ele>813.0</ele><time>2026-04-04T10:45:55Z</time></trkpt><trkpt lat="44.03639828461972" lon="10.942280762289666"><ele>813.0</ele><time>2026-04-04T10:45:56Z</time></trkpt><trkpt lat="44.036438942399144" lon="10.942103669013658"><ele>813.0</ele><time>2026-04-04T10:45:57Z</time></trkpt><trkpt lat="44.03642461663545" lon="10.941935830057341"><ele>813.0</ele><time>2026-04-04T10:45:58Z</time></trkpt><trkpt lat="44.036354728951544" lon="10.941767040160135"><ele>818.25</ele><time>2026-04-04T10:45:59Z</time></trkpt><trkpt lat="44.03627968988762" lon="10.94163043287761"><ele>823.5</ele><time>2026-04-04T10:46:00Z</time></trkpt><trkpt lat="44.03617204911295" lon="10.941538696655147"><ele>828.75</ele><time>2026-04-04T10:46:01Z</time></trkpt><trkpt lat="44.036042107101196" lon="10.941504580142702"><ele>834.0</ele><time>2026-04-04T10:46:02Z</time></trkpt><trkpt lat="44.03590441721185" lon="10.94151227504851"><ele>827.0</ele><time>2026-04-04T10:46:03Z</time></trkpt><trkpt lat="44.03577162674533" lon="10.941504707937405"><ele>820.0</ele><time>2026-04-04T10:46:04Z</time></trkpt><trkpt lat="44.03567026198976" lon="10.941414871796715"><ele>813.0</ele><time>2026-04-04T10:46:05Z</time></trkpt><trkpt lat="44.03559930756302" lon="10.941269392714904"><ele>806.0</ele><time>2026-04-04T10:46:06Z</time></trkpt><trkpt lat="44.03555772424937" lon="10.941091313883446"><ele>813.3333333333334</ele><time>2026-04-04T10:46:07Z</time></trkpt><trkpt lat="44.03553388302065" lon="10.940875127253456"><ele>820.6666666666667</ele><time>2026-04-04T10:46:08Z</time></trkpt><trkpt lat="44.03552229736966" lon="10.940650678920544"><ele>828.0</ele><time>2026-04-04T10:46:09Z</time></trkpt><trkpt lat="44.03549852818041" lon="10.940420709461236"><ele>828.0</ele><time>2026-04-04T10:46:10Z</time></trkpt><trkpt lat="44.03543589885254" lon="10.940250027703181"><ele>828.0</ele><time>2026-04-04T10:46:11Z</time></trkpt><trkpt lat="44.03536285095463" lon="10.940107312587147"><ele>828.0</ele><time>2026-04-04T10:46:12Z</time></trkpt><trkpt lat="44.03533412755383" lon="10.939974113887471"><ele>828.0</ele><time>2026-04-04T10:46:13Z</time></trkpt><trkpt lat="44.03536430058378" lon="10.939815896506499"><ele>832.8</ele><time>2026-04-04T10:46:14Z</time></trkpt><trkpt lat="44.03539550616304" lon="10.939663267540643"><ele>837.5999999999999</ele><time>2026-04-04T10:46:15Z</time></trkpt><trkpt lat="44.03538418611894" lon="10.939536883488131"><ele>842.4000000000001</ele><time>2026-04-04T10:46:16Z</time></trkpt><trkpt lat="44.035316059524426" lon="10.93943682012157"><ele>847.2</ele><time>2026-04-04T10:46:17Z</time></trkpt><trkpt lat="44.03520986230326" lon="10.939399859272914"><ele>852.0</ele><time>2026-04-04T10:46:18Z</time></trkpt><trkpt lat="44.03508424859612" lon="10.939391449687884"><ele>845.0</ele><time>2026-04-04T10:46:19Z</time></trkpt><trkpt lat="44.034936260543525" lon="10.939434573221103"><ele>838.0</ele><time>2026-04-04T10:46:20Z</time></trkpt><trkpt lat="44.03477841709737" lon="10.939528321166247"><ele>831.0</ele><time>2026-04-04T10:46:21Z</time></trkpt><trkpt lat="44.03465678516909" lon="10.939606877828112"><ele>831.0</ele><time>2026-04-04T10:46:22Z</time></trkpt><trkpt lat="44.03456690017246" lon="10.939619800126385"><ele>831.0</ele><time>2026-04-04T10:46:22.999Z</time></trkpt><trkpt lat="44.034472070671804" lon="10.939564315068077"><ele>831.0</ele><time>2026-04-04T10:46:24Z</time></trkpt><trkpt lat="44.03436290380954" lon="10.939452681350257"><ele>831.0</ele><time>2026-04-04T10:46:25Z</time></trkpt><trkpt lat="44.03423344705344" lon="10.939303141195959"><ele>832.5999999999999</ele><time>2026-04-04T10:46:26Z</time></trkpt><trkpt lat="44.0341095449335" lon="10.939194686060898"><ele>834.2</ele><time>2026-04-04T10:46:27Z</time></trkpt><trkpt lat="44.03403074473393" lon="10.939121253055024"><ele>835.8</ele><time>2026-04-04T10:46:28Z</time></trkpt><trkpt lat="44.033992724103435" lon="10.939015539918426"><ele>837.4000000000001</ele><time>2026-04-04T10:46:29Z</time></trkpt><trkpt lat="44.0340123575129" lon="10.938860119591471"><ele>839.0</ele><time>2026-04-04T10:46:30Z</time></trkpt><trkpt lat="44.03403653931112" lon="10.93868364206539"><ele>839.0</ele><time>2026-04-04T10:46:31Z</time></trkpt><trkpt lat="44.034012191649786" lon="10.93852517184096"><ele>839.0</ele><time>2026-04-04T10:46:32Z</time></trkpt><trkpt lat="44.0339242784232" lon="10.93838968538583"><ele>839.0</ele><time>2026-04-04T10:46:33Z</time></trkpt><trkpt lat="44.03378384689598" lon="10.938298941204856"><ele>839.0</ele><time>2026-04-04T10:46:34Z</time></trkpt><trkpt lat="44.033622268560016" lon="10.938243965326764"><ele>842.75</ele><time>2026-04-04T10:46:35Z</time></trkpt><trkpt lat="44.03347162311992" lon="10.938215543138543"><ele>846.5</ele><time>2026-04-04T10:46:36Z</time></trkpt><trkpt lat="44.033360683535676" lon="10.938139973626654"><ele>850.25</ele><time>2026-04-04T10:46:37Z</time></trkpt><trkpt lat="44.03327240489344" lon="10.938018411469681"><ele>854.0</ele><time>2026-04-04T10:46:38Z</time></trkpt><trkpt lat="44.033189817846804" lon="10.937874027045599"><ele>854.0</ele><time>2026-04-04T10:46:39Z</time></trkpt><trkpt lat="44.03306301556872" lon="10.93778802565092"><ele>854.0</ele><time>2026-04-04T10:46:40Z</time></trkpt><trkpt lat="44.03289826271911" lon="10.9377649822629"><ele>854.0</ele><time>2026-04-04T10:46:41Z</time></trkpt><trkpt lat="44.032707368075506" lon="10.937744167761716"><ele>854.0</ele><time>2026-04-04T10:46:42Z</time></trkpt><trkpt lat="44.032519365365765" lon="10.937686081243907"><ele>854.0</ele><time>2026-04-04T10:46:43Z</time></trkpt><trkpt lat="44.03237531968049" lon="10.937615776525073"><ele>854.0</ele><time>2026-04-04T10:46:44Z</time></trkpt><trkpt lat="44.03227724863853" lon="10.937520229845719"><ele>852.75</ele><time>2026-04-04T10:46:45Z</time></trkpt><trkpt lat="44.03221099891927" lon="10.937371284817884"><ele>851.5</ele><time>2026-04-04T10:46:46Z</time></trkpt><trkpt lat="44.03218026679106" lon="10.937174894839226"><ele>850.25</ele><time>2026-04-04T10:46:47Z</time></trkpt><trkpt lat="44.03217001542166" lon="10.93694410244337"><ele>849.0</ele><time>2026-04-04T10:46:48Z</time></trkpt><trkpt lat="44.032168655405485" lon="10.93669740477994"><ele>852.5</ele><time>2026-04-04T10:46:49Z</time></trkpt><trkpt lat="44.03215803279192" lon="10.936436462209265"><ele>856.0</ele><time>2026-04-04T10:46:50Z</time></trkpt><trkpt lat="44.0321187269107" lon="10.936252228291954"><ele>859.5</ele><time>2026-04-04T10:46:51Z</time></trkpt><trkpt lat="44.03210618818128" lon="10.936106410300983"><ele>863.0</ele><time>2026-04-04T10:46:52Z</time></trkpt><trkpt lat="44.03214481865532" lon="10.935995639914417"><ele>863.0</ele><time>2026-04-04T10:46:53Z</time></trkpt><trkpt lat="44.03223401086232" lon="10.93592485509915"><ele>863.0</ele><time>2026-04-04T10:46:54Z</time></trkpt><trkpt lat="44.0323616047439" lon="10.9358516547065"><ele>863.0</ele><time>2026-04-04T10:46:55Z</time></trkpt><trkpt lat="44.03246193978065" lon="10.935761876170728"><ele>863.0</ele><time>2026-04-04T10:46:56Z</time></trkpt><trkpt lat="44.03252055198015" lon="10.9356272954422"><ele>865.0</ele><time>2026-04-04T10:46:57Z</time></trkpt><trkpt lat="44.03252446842392" lon="10.935476074417657"><ele>867.0</ele><time>2026-04-04T10:46:58Z</time></trkpt><trkpt lat="44.03247194863743" lon="10.935336856403756"><ele>869.0</ele><time>2026-04-04T10:46:59Z</time></trkpt><trkpt lat="44.032364107006536" lon="10.935239171967652"><ele>871.0</ele><time>2026-04-04T10:47:00Z</time></trkpt><trkpt lat="44.032229507251934" lon="10.935147131705536"><ele>873.75</ele><time>2026-04-04T10:47:01Z</time></trkpt><trkpt lat="44.032136030649895" lon="10.934993506902977"><ele>876.5</ele><time>2026-04-04T10:47:02Z</time></trkpt><trkpt lat="44.03208624484812" lon="10.934810102701647"><ele>879.25</ele><time>2026-04-04T10:47:03Z</time></trkpt><trkpt lat="44.03206377223282" lon="10.934596228387804"><ele>882.0</ele><time>2026-04-04T10:47:04Z</time></trkpt><trkpt lat="44.03205000448533" lon="10.934373457176525"><ele>889.0</ele><time>2026-04-04T10:47:05Z</time></trkpt><trkpt lat="44.032052111816306" lon="10.934180357328536"><ele>896.0</ele><time>2026-04-04T10:47:06Z</time></trkpt><trkpt lat="44.03207930401201" lon="10.933951094805439"><ele>903.0</ele><time>2026-04-04T10:47:07Z</time></trkpt><trkpt lat="44.03212991109839" lon="10.933682243484052"><ele>903.0</ele><time>2026-04-04T10:47:08Z</time></trkpt><trkpt lat="44.03216556285437" lon="10.933396871791798"><ele>903.0</ele><time>2026-04-04T10:47:09Z</time></trkpt><trkpt lat="44.03218529254034" lon="10.933151652646329"><ele>903.0</ele><time>2026-04-04T10:47:10Z</time></trkpt><trkpt lat="44.032215518248165" lon="10.932957096488245"><ele>907.2</ele><time>2026-04-04T10:47:11Z</time></trkpt><trkpt lat="44.03226078916141" lon="10.932811168241008"><ele>911.4</ele><time>2026-04-04T10:47:12Z</time></trkpt><trkpt lat="44.032316851244936" lon="10.93268907653755"><ele>915.6000000000001</ele><time>2026-04-04T10:47:13Z</time></trkpt><trkpt lat="44.0323399915015" lon="10.932573289109827"><ele>919.8000000000001</ele><time>2026-04-04T10:47:14Z</time></trkpt><trkpt lat="44.03230363530984" lon="10.932481896953554"><ele>924.0</ele><time>2026-04-04T10:47:15Z</time></trkpt><trkpt lat="44.03223269633462" lon="10.932434525437426"><ele>924.0</ele><time>2026-04-04T10:47:16Z</time></trkpt><trkpt lat="44.03213235812816" lon="10.93245915943004"><ele>924.0</ele><time>2026-04-04T10:47:17Z</time></trkpt><trkpt lat="44.03202543080279" lon="10.93255975176485"><ele>924.0</ele><time>2026-04-04T10:47:18Z</time></trkpt><trkpt lat="44.03192422071962" lon="10.93270783834151"><ele>924.0</ele><time>2026-04-04T10:47:19Z</time></trkpt><trkpt lat="44.03182025471072" lon="10.93291289023168"><ele>924.0</ele><time>2026-04-04T10:47:20Z</time></trkpt><trkpt lat="44.03171539142272" lon="10.933153260468092"><ele>924.0</ele><time>2026-04-04T10:47:21Z</time></trkpt><trkpt lat="44.031613224151926" lon="10.933372668102153"><ele>924.0</ele><time>2026-04-04T10:47:22Z</time></trkpt><trkpt lat="44.03149428649105" lon="10.93350917862788"><ele>918.25</ele><time>2026-04-04T10:47:23Z</time></trkpt><trkpt lat="44.031368540367694" lon="10.933588890873118"><ele>912.5</ele><time>2026-04-04T10:47:24Z</time></trkpt><trkpt lat="44.03125467288808" lon="10.933607595649418"><ele>906.75</ele><time>2026-04-04T10:47:25Z</time></trkpt><trkpt lat="44.03113455451383" lon="10.933554316445498"><ele>901.0</ele><time>2026-04-04T10:47:26Z</time></trkpt><trkpt lat="44.03100898047957" lon="10.933456969273086"><ele>909.6666666666666</ele><time>2026-04-04T10:47:27Z</time></trkpt><trkpt lat="44.030861920024144" lon="10.933332033512766"><ele>918.3333333333333</ele><time>2026-04-04T10:47:28Z</time></trkpt><trkpt lat="44.030705815755695" lon="10.933199119624456"><ele>927.0</ele><time>2026-04-04T10:47:29Z</time></trkpt><trkpt lat="44.03055271871672" lon="10.933120127762935"><ele>927.0</ele><time>2026-04-04T10:47:30Z</time></trkpt><trkpt lat="44.03041109835316" lon="10.93306923926171"><ele>927.0</ele><time>2026-04-04T10:47:31Z</time></trkpt><trkpt lat="44.03028079938785" lon="10.9329593889864"><ele>927.0</ele><time>2026-04-04T10:47:32Z</time></trkpt><trkpt lat="44.03016052914726" lon="10.9328116569523"><ele>927.0</ele><time>2026-04-04T10:47:33Z</time></trkpt><trkpt lat="44.03005742934774" lon="10.932648045304655"><ele>927.0</ele><time>2026-04-04T10:47:34Z</time></trkpt><trkpt lat="44.02995486094385" lon="10.932485199946331"><ele>927.0</ele><time>2026-04-04T10:47:35Z</time></trkpt><trkpt lat="44.029870145368335" lon="10.932312737394279"><ele>929.5</ele><time>2026-04-04T10:47:36Z</time></trkpt><trkpt lat="44.02978918685839" lon="10.93214281188122"><ele>932.0</ele><time>2026-04-04T10:47:37Z</time></trkpt><trkpt lat="44.029708449393404" lon="10.93197158043483"><ele>934.5</ele><time>2026-04-04T10:47:38Z</time></trkpt><trkpt lat="44.029632170288096" lon="10.931804814472994"><ele>937.0</ele><time>2026-04-04T10:47:39Z</time></trkpt><trkpt lat="44.02956689961764" lon="10.9316569098537"><ele>937.0</ele><time>2026-04-04T10:47:40Z</time></trkpt><trkpt lat="44.029496504875645" lon="10.931518933119117"><ele>937.0</ele><time>2026-04-04T10:47:41Z</time></trkpt><trkpt lat="44.02940748673562" lon="10.931404281482777"><ele>937.0</ele><time>2026-04-04T10:47:42Z</time></trkpt><trkpt lat="44.0293044376364" lon="10.931333800798628"><ele>937.0</ele><time>2026-04-04T10:47:43Z</time></trkpt><trkpt lat="44.029202703907124" lon="10.931291284762208"><ele>934.5</ele><time>2026-04-04T10:47:44Z</time></trkpt><trkpt lat="44.029101770957865" lon="10.93128725481887"><ele>932.0</ele><time>2026-04-04T10:47:45Z</time></trkpt><trkpt lat="44.028999082487964" lon="10.931322334541436"><ele>929.5</ele><time>2026-04-04T10:47:46Z</time></trkpt><trkpt lat="44.028892103988746" lon="10.931389718951404"><ele>927.0</ele><time>2026-04-04T10:47:47Z</time></trkpt><trkpt lat="44.02878293313406" lon="10.931484335860922"><ele>927.0</ele><time>2026-04-04T10:47:48Z</time></trkpt><trkpt lat="44.028673345025446" lon="10.931603337345335"><ele>927.0</ele><time>2026-04-04T10:47:49Z</time></trkpt><trkpt lat="44.028558883995444" lon="10.931738879218493"><ele>927.0</ele><time>2026-04-04T10:47:50Z</time></trkpt><trkpt lat="44.02845180366498" lon="10.931888127081425"><ele>927.0</ele><time>2026-04-04T10:47:51Z</time></trkpt><trkpt lat="44.028343567895206" lon="10.932007420694802"><ele>934.0</ele><time>2026-04-04T10:47:52Z</time></trkpt><trkpt lat="44.02820613956069" lon="10.93203175813432"><ele>941.0</ele><time>2026-04-04T10:47:53Z</time></trkpt><trkpt lat="44.028058423022124" lon="10.932051028952117"><ele>948.0</ele><time>2026-04-04T10:47:54Z</time></trkpt><trkpt lat="44.02790715945727" lon="10.931988483659573"><ele>955.0</ele><time>2026-04-04T10:47:55Z</time></trkpt><trkpt lat="44.02774575373946" lon="10.931963508103028"><ele>955.0</ele><time>2026-04-04T10:47:56Z</time></trkpt><trkpt lat="44.027605000829496" lon="10.931924957606263"><ele>955.0</ele><time>2026-04-04T10:47:57Z</time></trkpt><trkpt lat="44.027461989300335" lon="10.931922427967843"><ele>955.0</ele><time>2026-04-04T10:47:58Z</time></trkpt><trkpt lat="44.02732416899455" lon="10.93192163709826"><ele>955.0</ele><time>2026-04-04T10:47:59Z</time></trkpt><trkpt lat="44.02721580497116" lon="10.931891512090678"><ele>954.3333333333333</ele><time>2026-04-04T10:48:00Z</time></trkpt><trkpt lat="44.027089004681756" lon="10.931788338334414"><ele>953.6666666666667</ele><time>2026-04-04T10:48:01Z</time></trkpt><trkpt lat="44.02694181922687" lon="10.931692256544771"><ele>953.0</ele><time>2026-04-04T10:48:02Z</time></trkpt><trkpt lat="44.0267649743145" lon="10.931542539707193"><ele>945.0</ele><time>2026-04-04T10:48:03Z</time></trkpt><trkpt lat="44.026597355868304" lon="10.931428458624625"><ele>937.0</ele><time>2026-04-04T10:48:04Z</time></trkpt><trkpt lat="44.026432969645185" lon="10.931341919943831"><ele>929.0</ele><time>2026-04-04T10:48:05Z</time></trkpt><trkpt lat="44.026282331299456" lon="10.931269938161373"><ele>929.0</ele><time>2026-04-04T10:48:06Z</time></trkpt><trkpt lat="44.02614109589223" lon="10.931216541145606"><ele>929.0</ele><time>2026-04-04T10:48:07Z</time></trkpt><trkpt lat="44.02599026890934" lon="10.93119976240281"><ele>929.0</ele><time>2026-04-04T10:48:08Z</time></trkpt><trkpt lat="44.025820755752534" lon="10.931216556197452"><ele>924.6666666666667</ele><time>2026-04-04T10:48:09Z</time></trkpt><trkpt lat="44.02564251801411" lon="10.931264902692435"><ele>920.3333333333333</ele><time>2026-04-04T10:48:10Z</time></trkpt><trkpt lat="44.02546538106962" lon="10.93133191463842"><ele>916.0</ele><time>2026-04-04T10:48:11Z</time></trkpt><trkpt lat="44.02527317196878" lon="10.93142278517885"><ele>916.0</ele><time>2026-04-04T10:48:12Z</time></trkpt><trkpt lat="44.025056006558074" lon="10.931511125460556"><ele>916.0</ele><time>2026-04-04T10:48:13Z</time></trkpt><trkpt lat="44.024841739250434" lon="10.931591051848619"><ele>916.0</ele><time>2026-04-04T10:48:14Z</time></trkpt><trkpt lat="44.02464654916898" lon="10.931663315928043"><ele>913.6666666666666</ele><time>2026-04-04T10:48:15Z</time></trkpt><trkpt lat="44.024475415420575" lon="10.931716877277477"><ele>911.3333333333333</ele><time>2026-04-04T10:48:16Z</time></trkpt><trkpt lat="44.02431520247779" lon="10.931745134240526"><ele>909.0</ele><time>2026-04-04T10:48:17Z</time></trkpt><trkpt lat="44.0241744492761" lon="10.931761978343982"><ele>914.75</ele><time>2026-04-04T10:48:18Z</time></trkpt><trkpt lat="44.024058720646266" lon="10.931755082087435"><ele>920.5</ele><time>2026-04-04T10:48:19Z</time></trkpt><trkpt lat="44.02394301515702" lon="10.931699581157956"><ele>926.25</ele><time>2026-04-04T10:48:20Z</time></trkpt><trkpt lat="44.02387312144319" lon="10.93153741205227"><ele>932.0</ele><time>2026-04-04T10:48:21Z</time></trkpt><trkpt lat="44.02375504121126" lon="10.931398337867801"><ele>932.0</ele><time>2026-04-04T10:48:22Z</time></trkpt><trkpt lat="44.02364284589221" lon="10.931216806643194"><ele>932.0</ele><time>2026-04-04T10:48:22.999Z</time></trkpt><trkpt lat="44.02351336315711" lon="10.931028655396187"><ele>932.0</ele><time>2026-04-04T10:48:23.999Z</time></trkpt><trkpt lat="44.02337076564571" lon="10.930831158657343"><ele>938.6666666666667</ele><time>2026-04-04T10:48:24.999Z</time></trkpt><trkpt lat="44.02325556348842" lon="10.93068596020037"><ele>945.3333333333333</ele><time>2026-04-04T10:48:25.999Z</time></trkpt><trkpt lat="44.023182801652965" lon="10.930497324840665"><ele>952.0</ele><time>2026-04-04T10:48:26.999Z</time></trkpt><trkpt lat="44.023109726052944" lon="10.930297514595308"><ele>952.0</ele><time>2026-04-04T10:48:27.999Z</time></trkpt><trkpt lat="44.0230552188349" lon="10.930083866051934"><ele>952.0</ele><time>2026-04-04T10:48:28.999Z</time></trkpt><trkpt lat="44.022989932096515" lon="10.92985787557433"><ele>952.0</ele><time>2026-04-04T10:48:30Z</time></trkpt><trkpt lat="44.022938634522625" lon="10.929618363051256"><ele>946.5</ele><time>2026-04-04T10:48:31Z</time></trkpt><trkpt lat="44.02288971229762" lon="10.929398046684739"><ele>941.0</ele><time>2026-04-04T10:48:32Z</time></trkpt><trkpt lat="44.02284702693438" lon="10.929214252298213"><ele>935.5</ele><time>2026-04-04T10:48:33Z</time></trkpt><trkpt lat="44.022804008307205" lon="10.929055564457979"><ele>930.0</ele><time>2026-04-04T10:48:34Z</time></trkpt><trkpt lat="44.02273871242312" lon="10.928924455054206"><ele>925.0</ele><time>2026-04-04T10:48:35Z</time></trkpt><trkpt lat="44.02265129736445" lon="10.928824242879784"><ele>920.0</ele><time>2026-04-04T10:48:36Z</time></trkpt><trkpt lat="44.02254362547219" lon="10.928768704096134"><ele>915.0</ele><time>2026-04-04T10:48:37Z</time></trkpt><trkpt lat="44.0223909240618" lon="10.928738504421352"><ele>910.0</ele><time>2026-04-04T10:48:38Z</time></trkpt><trkpt lat="44.022219589190726" lon="10.928718417016588"><ele>910.0</ele><time>2026-04-04T10:48:39Z</time></trkpt><trkpt lat="44.02206077324662" lon="10.928668575714047"><ele>910.0</ele><time>2026-04-04T10:48:40Z</time></trkpt><trkpt lat="44.021928702378965" lon="10.928584076280293"><ele>910.0</ele><time>2026-04-04T10:48:41Z</time></trkpt><trkpt lat="44.02182080486385" lon="10.92845845110846"><ele>910.0</ele><time>2026-04-04T10:48:42Z</time></trkpt><trkpt lat="44.02171578721186" lon="10.928294942642424"><ele>901.75</ele><time>2026-04-04T10:48:43Z</time></trkpt><trkpt lat="44.02159627504714" lon="10.92811408448355"><ele>893.5</ele><time>2026-04-04T10:48:44Z</time></trkpt><trkpt lat="44.02150916758609" lon="10.927973025947484"><ele>885.25</ele><time>2026-04-04T10:48:45Z</time></trkpt><trkpt lat="44.02142927693767" lon="10.92788606981195"><ele>877.0</ele><time>2026-04-04T10:48:46Z</time></trkpt><trkpt lat="44.02133514425796" lon="10.927852952022599"><ele>877.0</ele><time>2026-04-04T10:48:47Z</time></trkpt><trkpt lat="44.021231052728986" lon="10.927884429390915"><ele>877.0</ele><time>2026-04-04T10:48:48Z</time></trkpt><trkpt lat="44.0211323607074" lon="10.927956325439048"><ele>877.0</ele><time>2026-04-04T10:48:49Z</time></trkpt><trkpt lat="44.02103881573083" lon="10.928073640991872"><ele>877.0</ele><time>2026-04-04T10:48:50Z</time></trkpt><trkpt lat="44.02094574671372" lon="10.928201644568407"><ele>877.0</ele><time>2026-04-04T10:48:51Z</time></trkpt><trkpt lat="44.020840778614634" lon="10.928339830920333"><ele>877.0</ele><time>2026-04-04T10:48:52Z</time></trkpt><trkpt lat="44.020725104151474" lon="10.928470925926204"><ele>877.0</ele><time>2026-04-04T10:48:53Z</time></trkpt><trkpt lat="44.020619908830305" lon="10.928593699238013"><ele>877.0</ele><time>2026-04-04T10:48:54Z</time></trkpt><trkpt lat="44.020533052900994" lon="10.928712703124338"><ele>875.5</ele><time>2026-04-04T10:48:55Z</time></trkpt><trkpt lat="44.020476480511455" lon="10.928835368129691"><ele>874.0</ele><time>2026-04-04T10:48:56Z</time></trkpt><trkpt lat="44.0204496141568" lon="10.928983837539173"><ele>872.5</ele><time>2026-04-04T10:48:57Z</time></trkpt><trkpt lat="44.02046315439063" lon="10.92919600851446"><ele>871.0</ele><time>2026-04-04T10:48:58Z</time></trkpt><trkpt lat="44.02049606437433" lon="10.929407723011353"><ele>871.0</ele><time>2026-04-04T10:48:59Z</time></trkpt><trkpt lat="44.02050834153758" lon="10.929596540925466"><ele>871.0</ele><time>2026-04-04T10:49:00Z</time></trkpt><trkpt lat="44.02047214840825" lon="10.929770010412055"><ele>871.0</ele><time>2026-04-04T10:49:01Z</time></trkpt><trkpt lat="44.02038291112076" lon="10.929934641043824"><ele>871.0</ele><time>2026-04-04T10:49:02Z</time></trkpt><trkpt lat="44.02026656977171" lon="10.930097226430549"><ele>871.6666666666666</ele><time>2026-04-04T10:49:03Z</time></trkpt><trkpt lat="44.02013782252031" lon="10.930253452965278"><ele>872.3333333333333</ele><time>2026-04-04T10:49:04Z</time></trkpt><trkpt lat="44.02000288951311" lon="10.930373739987497"><ele>873.0</ele><time>2026-04-04T10:49:05Z</time></trkpt><trkpt lat="44.019881261657105" lon="10.930447641384944"><ele>873.0</ele><time>2026-04-04T10:49:06Z</time></trkpt><trkpt lat="44.01977219212474" lon="10.930476366902207"><ele>873.0</ele><time>2026-04-04T10:49:07Z</time></trkpt><trkpt lat="44.01967686987275" lon="10.930442573792808"><ele>873.0</ele><time>2026-04-04T10:49:08Z</time></trkpt><trkpt lat="44.01960281086629" lon="10.930362864842778"><ele>873.0</ele><time>2026-04-04T10:49:09Z</time></trkpt><trkpt lat="44.01955876564817" lon="10.930236464199734"><ele>873.0</ele><time>2026-04-04T10:49:10Z</time></trkpt><trkpt lat="44.01954925531133" lon="10.930087491183881"><ele>869.75</ele><time>2026-04-04T10:49:11Z</time></trkpt><trkpt lat="44.01957179786611" lon="10.929947532974694"><ele>866.5</ele><time>2026-04-04T10:49:12Z</time></trkpt><trkpt lat="44.019614481100355" lon="10.92979564375476"><ele>863.25</ele><time>2026-04-04T10:49:13Z</time></trkpt><trkpt lat="44.01968880208132" lon="10.929620267238814"><ele>860.0</ele><time>2026-04-04T10:49:14Z</time></trkpt><trkpt lat="44.019793934834524" lon="10.929420798344982"><ele>860.6666666666667</ele><time>2026-04-04T10:49:15Z</time></trkpt><trkpt lat="44.019911258040224" lon="10.929194668813734"><ele>861.3333333333333</ele><time>2026-04-04T10:49:16Z</time></trkpt><trkpt lat="44.02003450301655" lon="10.928956481472635"><ele>862.0</ele><time>2026-04-04T10:49:17Z</time></trkpt><trkpt lat="44.02016923114099" lon="10.928698821465316"><ele>862.0</ele><time>2026-04-04T10:49:18Z</time></trkpt><trkpt lat="44.020289269810554" lon="10.9284702341512"><ele>862.0</ele><time>2026-04-04T10:49:19Z</time></trkpt><trkpt lat="44.020409364390375" lon="10.928243319951092"><ele>862.0</ele><time>2026-04-04T10:49:20Z</time></trkpt><trkpt lat="44.02050452615167" lon="10.928065021682775"><ele>860.8</ele><time>2026-04-04T10:49:21Z</time></trkpt><trkpt lat="44.02057639461538" lon="10.927931682431472"><ele>859.6</ele><time>2026-04-04T10:49:22Z</time></trkpt><trkpt lat="44.02061049051476" lon="10.927804987000554"><ele>858.3999999999999</ele><time>2026-04-04T10:49:23Z</time></trkpt><trkpt lat="44.020634770086254" lon="10.927700358894201"><ele>857.1999999999999</ele><time>2026-04-04T10:49:24Z</time></trkpt><trkpt lat="44.02061798771386" lon="10.927575465100459"><ele>856.0</ele><time>2026-04-04T10:49:25Z</time></trkpt><trkpt lat="44.020557023576444" lon="10.927472626212996"><ele>856.0</ele><time>2026-04-04T10:49:26Z</time></trkpt><trkpt lat="44.020457632531894" lon="10.92742870710706"><ele>855.9999999999999</ele><time>2026-04-04T10:49:27Z</time></trkpt><trkpt lat="44.020357255494" lon="10.92745335909555"><ele>855.9999999999999</ele><time>2026-04-04T10:49:28Z</time></trkpt><trkpt lat="44.020261369660744" lon="10.92750853825227"><ele>856.0</ele><time>2026-04-04T10:49:29Z</time></trkpt><trkpt lat="44.0201774501732" lon="10.92764955570624"><ele>856.0</ele><time>2026-04-04T10:49:30Z</time></trkpt><trkpt lat="44.0201075306054" lon="10.92782024158622"><ele>856.0</ele><time>2026-04-04T10:49:31Z</time></trkpt><trkpt lat="44.02003293071641" lon="10.927980823407148"><ele>856.0</ele><time>2026-04-04T10:49:32Z</time></trkpt><trkpt lat="44.01994057911381" lon="10.928154617600953"><ele>856.0</ele><time>2026-04-04T10:49:33Z</time></trkpt><trkpt lat="44.01984211941339" lon="10.92832068286141"><ele>856.0</ele><time>2026-04-04T10:49:34Z</time></trkpt><trkpt lat="44.019744708501676" lon="10.928493243157579"><ele>854.0</ele><time>2026-04-04T10:49:35Z</time></trkpt><trkpt lat="44.019656345305634" lon="10.92864467147337"><ele>852.0</ele><time>2026-04-04T10:49:36Z</time></trkpt><trkpt lat="44.01956176011638" lon="10.928789907072817"><ele>850.0</ele><time>2026-04-04T10:49:37Z</time></trkpt><trkpt lat="44.01944958090153" lon="10.928903134176245"><ele>848.0</ele><time>2026-04-04T10:49:38Z</time></trkpt><trkpt lat="44.019315872959965" lon="10.928953803420379"><ele>848.0</ele><time>2026-04-04T10:49:39Z</time></trkpt><trkpt lat="44.01918255836812" lon="10.928991031127822"><ele>848.0</ele><time>2026-04-04T10:49:40Z</time></trkpt><trkpt lat="44.01905924717345" lon="10.929057958017772"><ele>848.0</ele><time>2026-04-04T10:49:41Z</time></trkpt><trkpt lat="44.018945174763346" lon="10.929188757061619"><ele>848.0</ele><time>2026-04-04T10:49:42Z</time></trkpt><trkpt lat="44.01885123140932" lon="10.929344376967647"><ele>847.5</ele><time>2026-04-04T10:49:43Z</time></trkpt><trkpt lat="44.01876983250083" lon="10.929478584112251"><ele>847.0</ele><time>2026-04-04T10:49:44Z</time></trkpt><trkpt lat="44.018663285639825" lon="10.92956711899877"><ele>846.5</ele><time>2026-04-04T10:49:45Z</time></trkpt><trkpt lat="44.01852940333647" lon="10.92959873905646"><ele>846.0</ele><time>2026-04-04T10:49:46Z</time></trkpt><trkpt lat="44.01838872098955" lon="10.929627353342031"><ele>847.5</ele><time>2026-04-04T10:49:47Z</time></trkpt><trkpt lat="44.018268180811994" lon="10.929713013860715"><ele>849.0</ele><time>2026-04-04T10:49:48Z</time></trkpt><trkpt lat="44.018180927039985" lon="10.929868281105913"><ele>850.5</ele><time>2026-04-04T10:49:49Z</time></trkpt><trkpt lat="44.01809798869376" lon="10.930062226548758"><ele>852.0</ele><time>2026-04-04T10:49:50Z</time></trkpt><trkpt lat="44.01802477374308" lon="10.930234496165271"><ele>852.0</ele><time>2026-04-04T10:49:51Z</time></trkpt><trkpt lat="44.01793542072414" lon="10.930370363745254"><ele>852.0</ele><time>2026-04-04T10:49:52Z</time></trkpt><trkpt lat="44.017816388162274" lon="10.930446619671786"><ele>852.0</ele><time>2026-04-04T10:49:53Z</time></trkpt><trkpt lat="44.01768301939191" lon="10.930474852711269"><ele>852.0</ele><time>2026-04-04T10:49:54Z</time></trkpt><trkpt lat="44.01753582907186" lon="10.930500166653914"><ele>852.5</ele><time>2026-04-04T10:49:55Z</time></trkpt><trkpt lat="44.017391261189125" lon="10.93051263125199"><ele>853.0</ele><time>2026-04-04T10:49:56Z</time></trkpt><trkpt lat="44.017248092403385" lon="10.930512112545895"><ele>853.5</ele><time>2026-04-04T10:49:57Z</time></trkpt><trkpt lat="44.01710908251086" lon="10.930488330633764"><ele>854.0</ele><time>2026-04-04T10:49:58Z</time></trkpt><trkpt lat="44.01697261412905" lon="10.930451289976768"><ele>854.0</ele><time>2026-04-04T10:49:59Z</time></trkpt><trkpt lat="44.01684612111603" lon="10.930398918886727"><ele>854.0</ele><time>2026-04-04T10:50:00Z</time></trkpt><trkpt lat="44.016724396026305" lon="10.930326474802207"><ele>854.0</ele><time>2026-04-04T10:50:01Z</time></trkpt><trkpt lat="44.01661745479671" lon="10.93024944522673"><ele>854.0</ele><time>2026-04-04T10:50:02Z</time></trkpt><trkpt lat="44.01650882630993" lon="10.930174088064721"><ele>851.75</ele><time>2026-04-04T10:50:03Z</time></trkpt><trkpt lat="44.01639805646031" lon="10.930103935000872"><ele>849.5</ele><time>2026-04-04T10:50:04Z</time></trkpt><trkpt lat="44.016292292577816" lon="10.930034286728182"><ele>847.25</ele><time>2026-04-04T10:50:05Z</time></trkpt><trkpt lat="44.016187049030194" lon="10.92996574054938"><ele>845.0</ele><time>2026-04-04T10:50:06Z</time></trkpt><trkpt lat="44.01607728002491" lon="10.929917975807193"><ele>841.2</ele><time>2026-04-04T10:50:07Z</time></trkpt><trkpt lat="44.01595451320664" lon="10.929895171400524"><ele>837.4</ele><time>2026-04-04T10:50:08Z</time></trkpt><trkpt lat="44.01585009043161" lon="10.929914282862871"><ele>833.5999999999999</ele><time>2026-04-04T10:50:09Z</time></trkpt><trkpt lat="44.0157539428647" lon="10.929945919509294"><ele>829.8</ele><time>2026-04-04T10:50:10Z</time></trkpt><trkpt lat="44.015671350406365" lon="10.930012695141864"><ele>826.0</ele><time>2026-04-04T10:50:11Z</time></trkpt><trkpt lat="44.01560581032041" lon="10.930122789487031"><ele>822.75</ele><time>2026-04-04T10:50:12Z</time></trkpt><trkpt lat="44.01554609920094" lon="10.930270916583304"><ele>819.5</ele><time>2026-04-04T10:50:13Z</time></trkpt><trkpt lat="44.01549231916379" lon="10.930417904882912"><ele>816.25</ele><time>2026-04-04T10:50:14Z</time></trkpt><trkpt lat="44.015420139179916" lon="10.930558058718582"><ele>813.0</ele><time>2026-04-04T10:50:15Z</time></trkpt><trkpt lat="44.015343107471324" lon="10.930683469216305"><ele>813.0</ele><time>2026-04-04T10:50:16Z</time></trkpt><trkpt lat="44.01527127610083" lon="10.930809574959435"><ele>813.0</ele><time>2026-04-04T10:50:17Z</time></trkpt><trkpt lat="44.01522233861073" lon="10.930942598032123"><ele>813.0</ele><time>2026-04-04T10:50:18Z</time></trkpt><trkpt lat="44.01518595487824" lon="10.93108990079363"><ele>813.0</ele><time>2026-04-04T10:50:19Z</time></trkpt><trkpt lat="44.015153048923864" lon="10.931245419515148"><ele>816.0</ele><time>2026-04-04T10:50:20Z</time></trkpt><trkpt lat="44.015118565188104" lon="10.931400317715541"><ele>819.0</ele><time>2026-04-04T10:50:21Z</time></trkpt><trkpt lat="44.01507524684932" lon="10.931544488314447"><ele>822.0</ele><time>2026-04-04T10:50:22Z</time></trkpt><trkpt lat="44.015007348279376" lon="10.931687832615463"><ele>825.0</ele><time>2026-04-04T10:50:23Z</time></trkpt><trkpt lat="44.01491797547602" lon="10.931815884776443"><ele>825.0</ele><time>2026-04-04T10:50:24Z</time></trkpt><trkpt lat="44.01481841806266" lon="10.931931853382522"><ele>825.0</ele><time>2026-04-04T10:50:25Z</time></trkpt><trkpt lat="44.014708365587694" lon="10.932037357138034"><ele>825.0</ele><time>2026-04-04T10:50:26Z</time></trkpt><trkpt lat="44.014591857672286" lon="10.93213022176045"><ele>825.0</ele><time>2026-04-04T10:50:27Z</time></trkpt><trkpt lat="44.01446654790296" lon="10.932203404518408"><ele>825.0</ele><time>2026-04-04T10:50:28Z</time></trkpt><trkpt lat="44.01433711656767" lon="10.932262663363492"><ele>825.0</ele><time>2026-04-04T10:50:29Z</time></trkpt><trkpt lat="44.014198158690505" lon="10.932303889842697"><ele>825.0</ele><time>2026-04-04T10:50:30Z</time></trkpt><trkpt lat="44.01406104708254" lon="10.932326220713941"><ele>825.0</ele><time>2026-04-04T10:50:31Z</time></trkpt><trkpt lat="44.013937681681185" lon="10.932348958674906"><ele>825.4</ele><time>2026-04-04T10:50:32Z</time></trkpt><trkpt lat="44.013831326410184" lon="10.932386145940558"><ele>825.8</ele><time>2026-04-04T10:50:33Z</time></trkpt><trkpt lat="44.013743910504125" lon="10.932425277175515"><ele>826.2</ele><time>2026-04-04T10:50:34Z</time></trkpt><trkpt lat="44.013662000994785" lon="10.932491551097689"><ele>826.6</ele><time>2026-04-04T10:50:35Z</time></trkpt><trkpt lat="44.013592048705796" lon="10.9325990284739"><ele>827.0</ele><time>2026-04-04T10:50:36Z</time></trkpt><trkpt lat="44.013528733236114" lon="10.932730778111628"><ele>827.0</ele><time>2026-04-04T10:50:37Z</time></trkpt><trkpt lat="44.013463830126305" lon="10.932849726082674"><ele>827.0</ele><time>2026-04-04T10:50:38Z</time></trkpt><trkpt lat="44.01339021980255" lon="10.932923801922573"><ele>827.0</ele><time>2026-04-04T10:50:39Z</time></trkpt><trkpt lat="44.013284363221125" lon="10.932978708101647"><ele>827.0</ele><time>2026-04-04T10:50:40Z</time></trkpt><trkpt lat="44.01315403795199" lon="10.933001572768507"><ele>827.0</ele><time>2026-04-04T10:50:41Z</time></trkpt><trkpt lat="44.01303171573791" lon="10.933002937077905"><ele>824.75</ele><time>2026-04-04T10:50:42Z</time></trkpt><trkpt lat="44.012905648531614" lon="10.933017073920977"><ele>822.5</ele><time>2026-04-04T10:50:43Z</time></trkpt><trkpt lat="44.01277477012904" lon="10.933058996749432"><ele>820.25</ele><time>2026-04-04T10:50:44Z</time></trkpt><trkpt lat="44.01266770141456" lon="10.933144905807419"><ele>818.0</ele><time>2026-04-04T10:50:45Z</time></trkpt><trkpt lat="44.012558053973976" lon="10.933212129430094"><ele>818.8</ele><time>2026-04-04T10:50:46Z</time></trkpt><trkpt lat="44.01245420491772" lon="10.933291421736543"><ele>819.5999999999999</ele><time>2026-04-04T10:50:47Z</time></trkpt><trkpt lat="44.01234655201322" lon="10.93334328460965"><ele>820.4000000000001</ele><time>2026-04-04T10:50:48Z</time></trkpt><trkpt lat="44.01223980938631" lon="10.933406027579272"><ele>821.2</ele><time>2026-04-04T10:50:49Z</time></trkpt><trkpt lat="44.01214436018637" lon="10.933443857592259"><ele>822.0</ele><time>2026-04-04T10:50:50Z</time></trkpt><trkpt lat="44.012044913985434" lon="10.933432480843281"><ele>822.0</ele><time>2026-04-04T10:50:51Z</time></trkpt><trkpt lat="44.01194324486409" lon="10.933370250627709"><ele>822.0</ele><time>2026-04-04T10:50:52Z</time></trkpt><trkpt lat="44.0118565379133" lon="10.933262530188376"><ele>822.0</ele><time>2026-04-04T10:50:53Z</time></trkpt><trkpt lat="44.01182748310915" lon="10.933085725204434"><ele>822.0</ele><time>2026-04-04T10:50:54Z</time></trkpt><trkpt lat="44.01179146497065" lon="10.932904638238512"><ele>822.0</ele><time>2026-04-04T10:50:55Z</time></trkpt><trkpt lat="44.011741778586824" lon="10.932723430931853"><ele>822.0</ele><time>2026-04-04T10:50:56Z</time></trkpt><trkpt lat="44.01170292831445" lon="10.93251407465028"><ele>822.0</ele><time>2026-04-04T10:50:57Z</time></trkpt><trkpt lat="44.01164744074839" lon="10.932321440716903"><ele>822.0</ele><time>2026-04-04T10:50:58Z</time></trkpt><trkpt lat="44.011594153028966" lon="10.932139454423005"><ele>823.25</ele><time>2026-04-04T10:50:59Z</time></trkpt><trkpt lat="44.0115338161122" lon="10.931975580882336"><ele>824.5</ele><time>2026-04-04T10:51:00Z</time></trkpt><trkpt lat="44.011466404882384" lon="10.93182547944382"><ele>825.75</ele><time>2026-04-04T10:51:01Z</time></trkpt><trkpt lat="44.011379652709216" lon="10.931664712347121"><ele>827.0</ele><time>2026-04-04T10:51:02Z</time></trkpt><trkpt lat="44.01128394957491" lon="10.931468009977495"><ele>827.0</ele><time>2026-04-04T10:51:03Z</time></trkpt><trkpt lat="44.01113327115161" lon="10.931272851699275"><ele>827.0</ele><time>2026-04-04T10:51:04Z</time></trkpt><trkpt lat="44.01097339217796" lon="10.931059257023755"><ele>827.0</ele><time>2026-04-04T10:51:05Z</time></trkpt><trkpt lat="44.01081822432698" lon="10.930835445841218"><ele>821.0</ele><time>2026-04-04T10:51:06Z</time></trkpt><trkpt lat="44.01067799520617" lon="10.930655708416799"><ele>815.0</ele><time>2026-04-04T10:51:07Z</time></trkpt><trkpt lat="44.010552953501545" lon="10.930519854280393"><ele>809.0</ele><time>2026-04-04T10:51:08Z</time></trkpt><trkpt lat="44.01043677027855" lon="10.930411193651201"><ele>809.0</ele><time>2026-04-04T10:51:09Z</time></trkpt><trkpt lat="44.0103163939816" lon="10.930344770914623"><ele>809.0</ele><time>2026-04-04T10:51:10Z</time></trkpt><trkpt lat="44.01017814399231" lon="10.930338045527431"><ele>809.0</ele><time>2026-04-04T10:51:11Z</time></trkpt><trkpt lat="44.010017546826276" lon="10.930385981881972"><ele>809.0</ele><time>2026-04-04T10:51:12Z</time></trkpt><trkpt lat="44.00984847271067" lon="10.930458480461164"><ele>807.75</ele><time>2026-04-04T10:51:13Z</time></trkpt><trkpt lat="44.009684978253254" lon="10.930473516256184"><ele>806.5</ele><time>2026-04-04T10:51:14Z</time></trkpt><trkpt lat="44.00954961695367" lon="10.930434389514504"><ele>805.25</ele><time>2026-04-04T10:51:15Z</time></trkpt><trkpt lat="44.009432751236986" lon="10.930348329274343"><ele>804.0</ele><time>2026-04-04T10:51:16Z</time></trkpt><trkpt lat="44.00935443172763" lon="10.930204148831256"><ele>798.0</ele><time>2026-04-04T10:51:17Z</time></trkpt><trkpt lat="44.009278234653465" lon="10.92999783334725"><ele>792.0</ele><time>2026-04-04T10:51:18Z</time></trkpt><trkpt lat="44.00917473191634" lon="10.929809117146238"><ele>786.0</ele><time>2026-04-04T10:51:19Z</time></trkpt><trkpt lat="44.00909075832797" lon="10.929646094967493"><ele>785.0</ele><time>2026-04-04T10:51:20Z</time></trkpt><trkpt lat="44.008980821898284" lon="10.929527053629968"><ele>784.0</ele><time>2026-04-04T10:51:21Z</time></trkpt><trkpt lat="44.008854914952174" lon="10.929449131799228"><ele>783.0</ele><time>2026-04-04T10:51:22Z</time></trkpt><trkpt lat="44.008728516573406" lon="10.929396986676124"><ele>782.0</ele><time>2026-04-04T10:51:23Z</time></trkpt><trkpt lat="44.00858968089008" lon="10.929398667290585"><ele>782.0</ele><time>2026-04-04T10:51:24Z</time></trkpt><trkpt lat="44.008433104868" lon="10.929449609364594"><ele>782.0</ele><time>2026-04-04T10:51:25Z</time></trkpt><trkpt lat="44.00828536307885" lon="10.929548328928"><ele>782.0</ele><time>2026-04-04T10:51:26Z</time></trkpt><trkpt lat="44.00815007635445" lon="10.929685683212929"><ele>774.0</ele><time>2026-04-04T10:51:27Z</time></trkpt><trkpt lat="44.00803792604035" lon="10.92986365667937"><ele>766.0</ele><time>2026-04-04T10:51:28Z</time></trkpt><trkpt lat="44.007944683057815" lon="10.930073197560628"><ele>758.0</ele><time>2026-04-04T10:51:29Z</time></trkpt><trkpt lat="44.00787247632566" lon="10.930269980379"><ele>758.0</ele><time>2026-04-04T10:51:30Z</time></trkpt><trkpt lat="44.00780580320612" lon="10.930453429629399"><ele>758.0</ele><time>2026-04-04T10:51:31Z</time></trkpt><trkpt lat="44.00775871469934" lon="10.930653135583238"><ele>758.0</ele><time>2026-04-04T10:51:32Z</time></trkpt><trkpt lat="44.00774058486705" lon="10.93089522313083"><ele>758.6666666666666</ele><time>2026-04-04T10:51:33Z</time></trkpt><trkpt lat="44.007750382155145" lon="10.931165967112824"><ele>759.3333333333334</ele><time>2026-04-04T10:51:34Z</time></trkpt><trkpt lat="44.007751584065" lon="10.931436507553132"><ele>760.0</ele><time>2026-04-04T10:51:35Z</time></trkpt><trkpt lat="44.00773562808334" lon="10.931700122643385"><ele>762.6666666666667</ele><time>2026-04-04T10:51:36Z</time></trkpt><trkpt lat="44.00769005333481" lon="10.931942952399226"><ele>765.3333333333334</ele><time>2026-04-04T10:51:37Z</time></trkpt><trkpt lat="44.00763117133602" lon="10.932150498685477"><ele>768.0</ele><time>2026-04-04T10:51:38Z</time></trkpt><trkpt lat="44.00758600735529" lon="10.932310816561426"><ele>768.0</ele><time>2026-04-04T10:51:39Z</time></trkpt><trkpt lat="44.007554104161194" lon="10.932436068156932"><ele>768.0</ele><time>2026-04-04T10:51:40Z</time></trkpt><trkpt lat="44.00750885262591" lon="10.932540039535102"><ele>768.0</ele><time>2026-04-04T10:51:41Z</time></trkpt><trkpt lat="44.00744356030909" lon="10.93256424624936"><ele>768.0</ele><time>2026-04-04T10:51:42Z</time></trkpt><trkpt lat="44.007366214142586" lon="10.932512758743055"><ele>768.0</ele><time>2026-04-04T10:51:43Z</time></trkpt><trkpt lat="44.0073226485568" lon="10.93240472058352"><ele>768.0</ele><time>2026-04-04T10:51:44Z</time></trkpt><trkpt lat="44.00733189749633" lon="10.932286353971097"><ele>768.0</ele><time>2026-04-04T10:51:45Z</time></trkpt><trkpt lat="44.00739850709809" lon="10.932200147503861"><ele>768.0</ele><time>2026-04-04T10:51:46Z</time></trkpt><trkpt lat="44.00745745852452" lon="10.932049609858153"><ele>768.0</ele><time>2026-04-04T10:51:47Z</time></trkpt><trkpt lat="44.00753111059005" lon="10.931860099656976"><ele>768.0</ele><time>2026-04-04T10:51:48Z</time></trkpt><trkpt lat="44.00758303810634" lon="10.931677534803624"><ele>765.3333333333334</ele><time>2026-04-04T10:51:49Z</time></trkpt><trkpt lat="44.00760408129192" lon="10.931485068570254"><ele>762.6666666666667</ele><time>2026-04-04T10:51:50Z</time></trkpt><trkpt lat="44.00755287028884" lon="10.931263122396274"><ele>760.0</ele><time>2026-04-04T10:51:51Z</time></trkpt><trkpt lat="44.00748236646017" lon="10.931016847352668"><ele>747.6666666666667</ele><time>2026-04-04T10:51:52Z</time></trkpt><trkpt lat="44.007421908963835" lon="10.930753389630839"><ele>735.3333333333334</ele><time>2026-04-04T10:51:53Z</time></trkpt><trkpt lat="44.0073657761414" lon="10.930499702543917"><ele>723.0</ele><time>2026-04-04T10:51:54Z</time></trkpt><trkpt lat="44.007341527189155" lon="10.930260817985259"><ele>722.6666666666666</ele><time>2026-04-04T10:51:55Z</time></trkpt><trkpt lat="44.00733814584282" lon="10.93000186712432"><ele>722.3333333333333</ele><time>2026-04-04T10:51:56Z</time></trkpt><trkpt lat="44.00734946642584" lon="10.929702280145294"><ele>722.0</ele><time>2026-04-04T10:51:57Z</time></trkpt><trkpt lat="44.007366537487385" lon="10.92938197082926"><ele>720.0</ele><time>2026-04-04T10:51:58Z</time></trkpt><trkpt lat="44.00738155991881" lon="10.929100100649679"><ele>718.0</ele><time>2026-04-04T10:51:59Z</time></trkpt><trkpt lat="44.0073937637385" lon="10.928847279208584"><ele>716.0</ele><time>2026-04-04T10:52:00Z</time></trkpt><trkpt lat="44.00740701070036" lon="10.928603405495616"><ele>714.6666666666666</ele><time>2026-04-04T10:52:01Z</time></trkpt><trkpt lat="44.007434447036495" lon="10.92838967525145"><ele>713.3333333333334</ele><time>2026-04-04T10:52:02Z</time></trkpt><trkpt lat="44.00747561741747" lon="10.928181127578181"><ele>712.0</ele><time>2026-04-04T10:52:03Z</time></trkpt><trkpt lat="44.00755017656729" lon="10.927965783768988"><ele>716.3333333333334</ele><time>2026-04-04T10:52:04Z</time></trkpt><trkpt lat="44.00765085107926" lon="10.927737515705337"><ele>720.6666666666666</ele><time>2026-04-04T10:52:05Z</time></trkpt><trkpt lat="44.007758803909134" lon="10.927536048456044"><ele>725.0</ele><time>2026-04-04T10:52:06Z</time></trkpt><trkpt lat="44.00785391679526" lon="10.927390320653869"><ele>725.0</ele><time>2026-04-04T10:52:07Z</time></trkpt><trkpt lat="44.007933669434145" lon="10.927282037588991"><ele>725.0</ele><time>2026-04-04T10:52:08Z</time></trkpt><trkpt lat="44.00799200420959" lon="10.927172817390893"><ele>725.0</ele><time>2026-04-04T10:52:09Z</time></trkpt><trkpt lat="44.00803502552694" lon="10.927083945698838"><ele>725.0</ele><time>2026-04-04T10:52:10Z</time></trkpt><trkpt lat="44.00806059194122" lon="10.926973726803027"><ele>725.0</ele><time>2026-04-04T10:52:11Z</time></trkpt><trkpt lat="44.008033002866554" lon="10.926862840921212"><ele>725.0</ele><time>2026-04-04T10:52:12Z</time></trkpt><trkpt lat="44.00796604759787" lon="10.926779041550835"><ele>725.0</ele><time>2026-04-04T10:52:13Z</time></trkpt><trkpt lat="44.007889616059835" lon="10.92672382924489"><ele>725.0</ele><time>2026-04-04T10:52:14Z</time></trkpt><trkpt lat="44.00778711116921" lon="10.92676418105399"><ele>725.0</ele><time>2026-04-04T10:52:15Z</time></trkpt><trkpt lat="44.007710991954355" lon="10.926860658630854"><ele>725.0</ele><time>2026-04-04T10:52:16Z</time></trkpt><trkpt lat="44.007643723061854" lon="10.92701435631586"><ele>725.0</ele><time>2026-04-04T10:52:17Z</time></trkpt><trkpt lat="44.00757834598931" lon="10.927206110799112"><ele>725.0</ele><time>2026-04-04T10:52:18Z</time></trkpt><trkpt lat="44.007483921940775" lon="10.92742610059395"><ele>725.0</ele><time>2026-04-04T10:52:19Z</time></trkpt><trkpt lat="44.0073711735309" lon="10.927634995424196"><ele>720.6666666666666</ele><time>2026-04-04T10:52:20Z</time></trkpt><trkpt lat="44.007232677824476" lon="10.927803305958996"><ele>716.3333333333334</ele><time>2026-04-04T10:52:21Z</time></trkpt><trkpt lat="44.00712150761916" lon="10.927968217054417"><ele>712.0</ele><time>2026-04-04T10:52:22Z</time></trkpt><trkpt lat="44.00700908223152" lon="10.928100025216347"><ele>712.0</ele><time>2026-04-04T10:52:23Z</time></trkpt><trkpt lat="44.0069124791088" lon="10.928224791305748"><ele>712.0</ele><time>2026-04-04T10:52:24Z</time></trkpt><trkpt lat="44.0068283086676" lon="10.92838958775667"><ele>712.0</ele><time>2026-04-04T10:52:25Z</time></trkpt><trkpt lat="44.00675954107039" lon="10.928621680199466"><ele>713.3333333333334</ele><time>2026-04-04T10:52:26Z</time></trkpt><trkpt lat="44.006708737978364" lon="10.92887493424681"><ele>714.6666666666666</ele><time>2026-04-04T10:52:27Z</time></trkpt><trkpt lat="44.00664893078176" lon="10.92912899842005"><ele>716.0</ele><time>2026-04-04T10:52:28Z</time></trkpt><trkpt lat="44.00656947587032" lon="10.929358574406814"><ele>707.0</ele><time>2026-04-04T10:52:29Z</time></trkpt><trkpt lat="44.00648065653683" lon="10.929585608658737"><ele>698.0</ele><time>2026-04-04T10:52:30Z</time></trkpt><trkpt lat="44.00639798374564" lon="10.929793415602585"><ele>689.0</ele><time>2026-04-04T10:52:31Z</time></trkpt><trkpt lat="44.006329404737485" lon="10.929996971637804"><ele>687.6666666666666</ele><time>2026-04-04T10:52:32Z</time></trkpt><trkpt lat="44.006280052475844" lon="10.930242135578645"><ele>686.3333333333334</ele><time>2026-04-04T10:52:33Z</time></trkpt><trkpt lat="44.00625893859871" lon="10.93053389200154"><ele>685.0</ele><time>2026-04-04T10:52:34Z</time></trkpt><trkpt lat="44.00625062127262" lon="10.93082631435447"><ele>683.0</ele><time>2026-04-04T10:52:35Z</time></trkpt><trkpt lat="44.0062394258739" lon="10.931125835548984"><ele>681.0</ele><time>2026-04-04T10:52:36Z</time></trkpt><trkpt lat="44.00624313449621" lon="10.93142103975816"><ele>679.0</ele><time>2026-04-04T10:52:37Z</time></trkpt><trkpt lat="44.006259839352005" lon="10.931704226797939"><ele>678.75</ele><time>2026-04-04T10:52:38Z</time></trkpt><trkpt lat="44.00627616599167" lon="10.93195082467706"><ele>678.5</ele><time>2026-04-04T10:52:39Z</time></trkpt><trkpt lat="44.00629376499018" lon="10.932148628352579"><ele>678.25</ele><time>2026-04-04T10:52:40Z</time></trkpt><trkpt lat="44.0063202084583" lon="10.932320765261148"><ele>678.0</ele><time>2026-04-04T10:52:41Z</time></trkpt><trkpt lat="44.00633883709618" lon="10.93246007968303"><ele>678.0</ele><time>2026-04-04T10:52:42.001Z</time></trkpt><trkpt lat="44.0063293213937" lon="10.932580571296754"><ele>678.0</ele><time>2026-04-04T10:52:43.001Z</time></trkpt><trkpt lat="44.00627599511288" lon="10.93266000264763"><ele>678.0</ele><time>2026-04-04T10:52:44.001Z</time></trkpt><trkpt lat="44.006184743511255" lon="10.932658193617147"><ele>678.0</ele><time>2026-04-04T10:52:45.001Z</time></trkpt><trkpt lat="44.006112128432406" lon="10.93257587735484"><ele>678.0</ele><time>2026-04-04T10:52:46.001Z</time></trkpt><trkpt lat="44.00606744413235" lon="10.932470830113818"><ele>678.0</ele><time>2026-04-04T10:52:47Z</time></trkpt><trkpt lat="44.00609232515769" lon="10.932340481260024"><ele>678.0</ele><time>2026-04-04T10:52:48Z</time></trkpt><trkpt lat="44.00609891639218" lon="10.932209031466037"><ele>678.0</ele><time>2026-04-04T10:52:49Z</time></trkpt><trkpt lat="44.00609991328188" lon="10.932044816952278"><ele>678.0</ele><time>2026-04-04T10:52:50Z</time></trkpt><trkpt lat="44.00609730554069" lon="10.931867212865116"><ele>678.0</ele><time>2026-04-04T10:52:51Z</time></trkpt><trkpt lat="44.00609697674372" lon="10.931665892751761"><ele>678.3333333333334</ele><time>2026-04-04T10:52:52Z</time></trkpt><trkpt lat="44.00608859177217" lon="10.931449051550242"><ele>678.6666666666667</ele><time>2026-04-04T10:52:53Z</time></trkpt><trkpt lat="44.0060601058741" lon="10.931236011615733"><ele>679.0</ele><time>2026-04-04T10:52:54Z</time></trkpt><trkpt lat="44.005980774048375" lon="10.931016105356969"><ele>681.0</ele><time>2026-04-04T10:52:55Z</time></trkpt><trkpt lat="44.00587925423328" lon="10.930800183287573"><ele>683.0</ele><time>2026-04-04T10:52:56Z</time></trkpt><trkpt lat="44.00579351315248" lon="10.930595867461205"><ele>685.0</ele><time>2026-04-04T10:52:57Z</time></trkpt><trkpt lat="44.00574034602612" lon="10.930401077691624"><ele>673.6666666666667</ele><time>2026-04-04T10:52:58Z</time></trkpt><trkpt lat="44.00573269957428" lon="10.930189253967663"><ele>662.3333333333334</ele><time>2026-04-04T10:52:59Z</time></trkpt><trkpt lat="44.005744190116445" lon="10.929962421679495"><ele>651.0</ele><time>2026-04-04T10:53:00Z</time></trkpt><trkpt lat="44.005768678177546" lon="10.929713368670722"><ele>651.0</ele><time>2026-04-04T10:53:01Z</time></trkpt><trkpt lat="44.005768873599976" lon="10.929476292884038"><ele>651.0</ele><time>2026-04-04T10:53:02Z</time></trkpt><trkpt lat="44.00575130243025" lon="10.929271509158811"><ele>651.0</ele><time>2026-04-04T10:53:03Z</time></trkpt><trkpt lat="44.0056968374589" lon="10.929074788875779"><ele>652.6666666666666</ele><time>2026-04-04T10:53:04Z</time></trkpt><trkpt lat="44.00559437464729" lon="10.92887898149803"><ele>654.3333333333333</ele><time>2026-04-04T10:53:05Z</time></trkpt><trkpt lat="44.005458123415664" lon="10.928690650928136"><ele>656.0</ele><time>2026-04-04T10:53:06Z</time></trkpt><trkpt lat="44.005317494140186" lon="10.928506996729299"><ele>660.0</ele><time>2026-04-04T10:53:07Z</time></trkpt><trkpt lat="44.005222291029085" lon="10.9283162701137"><ele>664.0</ele><time>2026-04-04T10:53:08Z</time></trkpt><trkpt lat="44.00515376390669" lon="10.928138109235631"><ele>668.0</ele><time>2026-04-04T10:53:09Z</time></trkpt><trkpt lat="44.00511534906651" lon="10.927945285835936"><ele>668.0</ele><time>2026-04-04T10:53:10Z</time></trkpt><trkpt lat="44.00510579558937" lon="10.927745634616706"><ele>668.0</ele><time>2026-04-04T10:53:11Z</time></trkpt><trkpt lat="44.00512940981435" lon="10.927564175089447"><ele>668.0</ele><time>2026-04-04T10:53:12Z</time></trkpt><trkpt lat="44.005189859916456" lon="10.92739555492348"><ele>668.0</ele><time>2026-04-04T10:53:13Z</time></trkpt><trkpt lat="44.0052701555453" lon="10.927250758497872"><ele>666.6666666666666</ele><time>2026-04-04T10:53:14Z</time></trkpt><trkpt lat="44.005370360989964" lon="10.927097423105678"><ele>665.3333333333334</ele><time>2026-04-04T10:53:15Z</time></trkpt><trkpt lat="44.005508017926346" lon="10.926992361961585"><ele>664.0</ele><time>2026-04-04T10:53:16Z</time></trkpt><trkpt lat="44.00565603573503" lon="10.926883060993495"><ele>664.0</ele><time>2026-04-04T10:53:17Z</time></trkpt><trkpt lat="44.00577528388933" lon="10.926766559594975"><ele>664.0</ele><time>2026-04-04T10:53:18Z</time></trkpt><trkpt lat="44.00588269139165" lon="10.926644717237345"><ele>664.0</ele><time>2026-04-04T10:53:19Z</time></trkpt><trkpt lat="44.00597755451269" lon="10.926494546910911"><ele>664.0</ele><time>2026-04-04T10:53:20Z</time></trkpt><trkpt lat="44.00606115506935" lon="10.926315764739304"><ele>664.0</ele><time>2026-04-04T10:53:21Z</time></trkpt><trkpt lat="44.00612718194052" lon="10.926113634932397"><ele>664.0</ele><time>2026-04-04T10:53:22Z</time></trkpt><trkpt lat="44.006180480866185" lon="10.925906331476975"><ele>664.0</ele><time>2026-04-04T10:53:23Z</time></trkpt><trkpt lat="44.006206888276324" lon="10.925703080092992"><ele>660.0</ele><time>2026-04-04T10:53:24Z</time></trkpt><trkpt lat="44.00620271840093" lon="10.925504889046486"><ele>656.0</ele><time>2026-04-04T10:53:25Z</time></trkpt><trkpt lat="44.006164301957185" lon="10.925306607940454"><ele>652.0</ele><time>2026-04-04T10:53:26Z</time></trkpt><trkpt lat="44.00609176024678" lon="10.925102974797055"><ele>651.0</ele><time>2026-04-04T10:53:27Z</time></trkpt><trkpt lat="44.00599950934103" lon="10.924899689731197"><ele>650.0</ele><time>2026-04-04T10:53:28Z</time></trkpt><trkpt lat="44.00590608308054" lon="10.924710831287546"><ele>649.0</ele><time>2026-04-04T10:53:29Z</time></trkpt><trkpt lat="44.0058361342079" lon="10.924513978582384"><ele>642.75</ele><time>2026-04-04T10:53:30Z</time></trkpt><trkpt lat="44.00575930639457" lon="10.92433380436077"><ele>636.5</ele><time>2026-04-04T10:53:31Z</time></trkpt><trkpt lat="44.00569712894745" lon="10.924155264105568"><ele>630.25</ele><time>2026-04-04T10:53:32Z</time></trkpt><trkpt lat="44.005653043860114" lon="10.923977807091617"><ele>624.0</ele><time>2026-04-04T10:53:33Z</time></trkpt><trkpt lat="44.00561388160195" lon="10.923781858031461"><ele>623.3333333333334</ele><time>2026-04-04T10:53:34Z</time></trkpt><trkpt lat="44.00557842154883" lon="10.923566790618287"><ele>622.6666666666667</ele><time>2026-04-04T10:53:35Z</time></trkpt><trkpt lat="44.00554324685473" lon="10.923342599279497"><ele>622.0</ele><time>2026-04-04T10:53:36Z</time></trkpt><trkpt lat="44.00550175329658" lon="10.92313123052941"><ele>622.0</ele><time>2026-04-04T10:53:37Z</time></trkpt><trkpt lat="44.00549181451576" lon="10.922934629589427"><ele>622.0</ele><time>2026-04-04T10:53:38Z</time></trkpt><trkpt lat="44.005479305430015" lon="10.922757851195964"><ele>622.0</ele><time>2026-04-04T10:53:39Z</time></trkpt><trkpt lat="44.00546801755024" lon="10.922596804182804"><ele>622.0</ele><time>2026-04-04T10:53:40Z</time></trkpt><trkpt lat="44.00545577194684" lon="10.922445196004773"><ele>622.5</ele><time>2026-04-04T10:53:41Z</time></trkpt><trkpt lat="44.005440973607435" lon="10.922308729306232"><ele>623.0</ele><time>2026-04-04T10:53:42Z</time></trkpt><trkpt lat="44.00544962743614" lon="10.922186943752628"><ele>623.5</ele><time>2026-04-04T10:53:43Z</time></trkpt><trkpt lat="44.00542058832771" lon="10.922068684737782"><ele>624.0</ele><time>2026-04-04T10:53:44Z</time></trkpt><trkpt lat="44.00540866369544" lon="10.921960563645685"><ele>624.5</ele><time>2026-04-04T10:53:45Z</time></trkpt><trkpt lat="44.00540726247216" lon="10.92184270015309"><ele>625.0</ele><time>2026-04-04T10:53:47Z</time></trkpt><trkpt lat="44.0053707736529" lon="10.921651957329884"><ele>625.0</ele><time>2026-04-04T10:53:51Z</time></trkpt><trkpt lat="44.005299526130784" lon="10.921547170759041"><ele>625.0</ele><time>2026-04-04T10:53:52Z</time></trkpt><trkpt lat="44.00522333476046" lon="10.921414380967482"><ele>625.0</ele><time>2026-04-04T10:53:53Z</time></trkpt><trkpt lat="44.00513829900421" lon="10.921290458193104"><ele>625.0</ele><time>2026-04-04T10:53:54Z</time></trkpt><trkpt lat="44.00505962690959" lon="10.921179484078571"><ele>622.4</ele><time>2026-04-04T10:53:55Z</time></trkpt><trkpt lat="44.00499322993956" lon="10.921075941841055"><ele>619.8</ele><time>2026-04-04T10:53:56Z</time></trkpt><trkpt lat="44.004932476566026" lon="10.920980278605931"><ele>617.2</ele><time>2026-04-04T10:53:57Z</time></trkpt><trkpt lat="44.00487527892686" lon="10.920897631732062"><ele>614.6</ele><time>2026-04-04T10:53:58Z</time></trkpt><trkpt lat="44.004821813874045" lon="10.920827447650142"><ele>612.0</ele><time>2026-04-04T10:53:59Z</time></trkpt><trkpt lat="44.00473230901084" lon="10.920732932931065"><ele>612.0</ele><time>2026-04-04T10:54:01Z</time></trkpt><trkpt lat="44.004686360733054" lon="10.920656838881712"><ele>612.0</ele><time>2026-04-04T10:54:04Z</time></trkpt><trkpt lat="44.00462614353182" lon="10.920696170770542"><ele>612.0</ele><time>2026-04-04T10:54:11Z</time></trkpt><trkpt lat="44.00457243111713" lon="10.920744060373364"><ele>612.0</ele><time>2026-04-04T10:54:16Z</time></trkpt><trkpt lat="44.00463688852944" lon="10.920625648132258"><ele>612.0</ele><time>2026-04-04T10:54:17Z</time></trkpt><trkpt lat="44.00454434180885" lon="10.920782899022717"><ele>612.0</ele><time>2026-04-04T10:54:24Z</time></trkpt><trkpt lat="44.00464343655023" lon="10.920608698944427"><ele>612.0</ele><time>2026-04-04T10:54:28Z</time></trkpt><trkpt lat="44.00454419225033" lon="10.920775484181998"><ele>612.0</ele><time>2026-04-04T10:54:36Z</time></trkpt><trkpt lat="44.00463602711824" lon="10.92060038968546"><ele>612.0</ele><time>2026-04-04T10:54:44.999Z</time></trkpt><trkpt lat="44.0045418184326" lon="10.920765684252716"><ele>612.0</ele><time>2026-04-04T10:54:58Z</time></trkpt><trkpt lat="44.004637455665815" lon="10.920601991775452"><ele>612.0</ele><time>2026-04-04T10:55:03Z</time></trkpt><trkpt lat="44.0045418184326" lon="10.920765684252716"><ele>612.0</ele><time>2026-04-04T10:55:12Z</time></trkpt><trkpt lat="44.00463745568109" lon="10.920601991749308"><ele>612.0</ele><time>2026-04-04T10:55:21Z</time></trkpt><trkpt lat="44.00454391582609" lon="10.920764494881439"><ele>612.0</ele><time>2026-04-04T10:55:29Z</time></trkpt><trkpt lat="44.00463959498448" lon="10.920604390804277"><ele>612.0</ele><time>2026-04-04T10:55:31Z</time></trkpt><trkpt lat="44.00454028763928" lon="10.920843738649035"><ele>612.0</ele><time>2026-04-04T10:55:42Z</time></trkpt><trkpt lat="44.00464035907747" lon="10.92060524839206"><ele>612.0</ele><time>2026-04-04T10:55:57Z</time></trkpt><trkpt lat="44.00452569437601" lon="10.920789308884432"><ele>612.0</ele><time>2026-04-04T10:56:04Z</time></trkpt><trkpt lat="44.00454783915395" lon="10.920706551938338"><ele>612.0</ele><time>2026-04-04T10:56:11Z</time></trkpt><trkpt lat="44.00456176378858" lon="10.920600986522734"><ele>612.0</ele><time>2026-04-04T10:56:21Z</time></trkpt><trkpt lat="44.00461838506415" lon="10.920407654601041"><ele>612.0</ele><time>2026-04-04T10:57:10.001Z</time></trkpt><trkpt lat="44.00463150406873" lon="10.920582275659116"><ele>612.0</ele><time>2026-04-04T10:57:53Z</time></trkpt><trkpt lat="44.00465497324513" lon="10.920500139741508"><ele>612.0000000000001</ele><time>2026-04-04T10:58:00Z</time></trkpt><trkpt lat="44.00459397203233" lon="10.920449258983615"><ele>612.0</ele><time>2026-04-04T10:58:08Z</time></trkpt><trkpt lat="44.00450035166231" lon="10.920483494519258"><ele>612.0</ele><time>2026-04-04T10:58:43Z</time></trkpt><trkpt lat="44.004545188579655" lon="10.9204756398354"><ele>612.0</ele><time>2026-04-04T11:08:31.999Z</time></trkpt><trkpt lat="44.004545188579655" lon="10.9204756398354"><ele>612.0</ele><time>2026-04-04T11:08:31.999Z</time></trkpt><trkpt lat="44.004545188579655" lon="10.9204756398354"><ele>612.0</ele><time>2026-04-04T11:08:31.999Z</time></trkpt><trkpt lat="44.004545188579655" lon="10.9204756398354"><ele>612.0</ele><time>2026-04-04T11:08:31.999Z</time></trkpt><trkpt lat="44.004545188579655" lon="10.9204756398354"><ele>612.0</ele><time>2026-04-04T11:08:31.999Z</time></trkpt><trkpt lat="44.004545188579655" lon="10.9204756398354"><ele>612.0000000000001</ele><time>2026-04-04T11:08:31.999Z</time></trkpt><trkpt lat="44.004546876701895" lon="10.920733915783456"><ele>612.0</ele><time>2026-04-04T11:14:23Z</time></trkpt><trkpt lat="44.004561026798875" lon="10.920630835987051"><ele>612.0</ele><time>2026-04-04T11:14:41Z</time></trkpt><trkpt lat="44.004550331751865" lon="10.920492125642776"><ele>612.0</ele><time>2026-04-04T11:14:46Z</time></trkpt><trkpt lat="44.00450051342779" lon="10.920438423333648"><ele>612.0</ele><time>2026-04-04T11:14:47Z</time></trkpt><trkpt lat="44.00439966368262" lon="10.92034594214768"><ele>612.0</ele><time>2026-04-04T11:14:49Z</time></trkpt><trkpt lat="44.00434143131676" lon="10.920282652769027"><ele>612.0</ele><time>2026-04-04T11:14:50Z</time></trkpt><trkpt lat="44.00428633427543" lon="10.920215582600207"><ele>612.0</ele><time>2026-04-04T11:14:51Z</time></trkpt><trkpt lat="44.004214333419476" lon="10.920157159462775"><ele>609.4</ele><time>2026-04-04T11:14:52Z</time></trkpt><trkpt lat="44.0041223861415" lon="10.92008230697705"><ele>606.8000000000001</ele><time>2026-04-04T11:14:53Z</time></trkpt><trkpt lat="44.00403472905176" lon="10.919994224083188"><ele>604.2</ele><time>2026-04-04T11:14:54Z</time></trkpt><trkpt lat="44.00394937712946" lon="10.919916413510633"><ele>601.6</ele><time>2026-04-04T11:14:55Z</time></trkpt><trkpt lat="44.00385730455742" lon="10.91987305075785"><ele>599.0</ele><time>2026-04-04T11:14:56Z</time></trkpt><trkpt lat="44.00372713430047" lon="10.919865026388427"><ele>599.0</ele><time>2026-04-04T11:14:57Z</time></trkpt><trkpt lat="44.00360014213106" lon="10.919892233047797"><ele>599.0</ele><time>2026-04-04T11:14:58Z</time></trkpt><trkpt lat="44.00346838899639" lon="10.919983353609824"><ele>599.0</ele><time>2026-04-04T11:14:59Z</time></trkpt><trkpt lat="44.00334049917064" lon="10.920074919827455"><ele>599.0</ele><time>2026-04-04T11:15:00Z</time></trkpt><trkpt lat="44.003225254695074" lon="10.920144640808697"><ele>597.25</ele><time>2026-04-04T11:15:01Z</time></trkpt><trkpt lat="44.003103965161706" lon="10.92017269474877"><ele>595.5</ele><time>2026-04-04T11:15:02Z</time></trkpt><trkpt lat="44.002982309114024" lon="10.920171791613038"><ele>593.75</ele><time>2026-04-04T11:15:03Z</time></trkpt><trkpt lat="44.002850983946026" lon="10.92014684858672"><ele>592.0</ele><time>2026-04-04T11:15:04Z</time></trkpt><trkpt lat="44.002725078232956" lon="10.920096089282922"><ele>591.0</ele><time>2026-04-04T11:15:05Z</time></trkpt><trkpt lat="44.00261320099262" lon="10.920011245853928"><ele>590.0</ele><time>2026-04-04T11:15:06Z</time></trkpt><trkpt lat="44.00251463153763" lon="10.919903554492288"><ele>589.0</ele><time>2026-04-04T11:15:07Z</time></trkpt><trkpt lat="44.002407241451166" lon="10.919784380158298"><ele>588.0</ele><time>2026-04-04T11:15:08Z</time></trkpt><trkpt lat="44.00230567119962" lon="10.91966609492781"><ele>588.0</ele><time>2026-04-04T11:15:09.001Z</time></trkpt><trkpt lat="44.00220680252788" lon="10.919549536006034"><ele>588.0</ele><time>2026-04-04T11:15:10.001Z</time></trkpt><trkpt lat="44.00211947073047" lon="10.919439990294295"><ele>588.0</ele><time>2026-04-04T11:15:11.001Z</time></trkpt><trkpt lat="44.002035853146474" lon="10.919322602225149"><ele>588.0</ele><time>2026-04-04T11:15:12.001Z</time></trkpt><trkpt lat="44.00197286341452" lon="10.91919762361642"><ele>590.4</ele><time>2026-04-04T11:15:13.001Z</time></trkpt><trkpt lat="44.00193605746924" lon="10.919055642120174"><ele>592.8</ele><time>2026-04-04T11:15:14.001Z</time></trkpt><trkpt lat="44.00193142013269" lon="10.918894549078846"><ele>595.2</ele><time>2026-04-04T11:15:15.001Z</time></trkpt><trkpt lat="44.00194214826774" lon="10.918734563575233"><ele>597.6</ele><time>2026-04-04T11:15:16.001Z</time></trkpt><trkpt lat="44.001942549475004" lon="10.918585226141818"><ele>600.0</ele><time>2026-04-04T11:15:17.001Z</time></trkpt><trkpt lat="44.00190506572876" lon="10.918435338234518"><ele>602.0</ele><time>2026-04-04T11:15:18.001Z</time></trkpt><trkpt lat="44.00183376220386" lon="10.91831131929846"><ele>604.0</ele><time>2026-04-04T11:15:19.001Z</time></trkpt><trkpt lat="44.001741874630866" lon="10.918203213745908"><ele>606.0</ele><time>2026-04-04T11:15:20.001Z</time></trkpt><trkpt lat="44.00165417572871" lon="10.918094199835858"><ele>608.0</ele><time>2026-04-04T11:15:21.001Z</time></trkpt><trkpt lat="44.001578113867815" lon="10.91796906155442"><ele>603.5</ele><time>2026-04-04T11:15:22.001Z</time></trkpt><trkpt lat="44.00151921049867" lon="10.917826591395015"><ele>599.0</ele><time>2026-04-04T11:15:23.001Z</time></trkpt><trkpt lat="44.00149591692235" lon="10.917656449638779"><ele>594.5</ele><time>2026-04-04T11:15:24.001Z</time></trkpt><trkpt lat="44.001496033839366" lon="10.917481300272403"><ele>590.0</ele><time>2026-04-04T11:15:25.001Z</time></trkpt><trkpt lat="44.00152866118635" lon="10.917311224597201"><ele>590.0</ele><time>2026-04-04T11:15:26.001Z</time></trkpt><trkpt lat="44.00158266505741" lon="10.917154846145946"><ele>590.0</ele><time>2026-04-04T11:15:27.001Z</time></trkpt><trkpt lat="44.00165906121457" lon="10.917008968848636"><ele>590.0</ele><time>2026-04-04T11:15:28.001Z</time></trkpt><trkpt lat="44.00175084112087" lon="10.916878488561963"><ele>590.0</ele><time>2026-04-04T11:15:29.001Z</time></trkpt><trkpt lat="44.00186173963151" lon="10.91676429019213"><ele>591.5</ele><time>2026-04-04T11:15:30.001Z</time></trkpt><trkpt lat="44.0019791996988" lon="10.916676010785498"><ele>593.0</ele><time>2026-04-04T11:15:31.001Z</time></trkpt><trkpt lat="44.002110008546545" lon="10.916607873646463"><ele>594.5</ele><time>2026-04-04T11:15:32.001Z</time></trkpt><trkpt lat="44.00224442374363" lon="10.916568766541001"><ele>596.0</ele><time>2026-04-04T11:15:33.001Z</time></trkpt><trkpt lat="44.00238091802529" lon="10.916561533312887"><ele>597.6</ele><time>2026-04-04T11:15:34.001Z</time></trkpt><trkpt lat="44.00251257451188" lon="10.916547016290862"><ele>599.2</ele><time>2026-04-04T11:15:35.001Z</time></trkpt><trkpt lat="44.00262595946469" lon="10.916503605921335"><ele>600.8</ele><time>2026-04-04T11:15:36.001Z</time></trkpt><trkpt lat="44.002716200547866" lon="10.916450804773522"><ele>602.4</ele><time>2026-04-04T11:15:37.001Z</time></trkpt><trkpt lat="44.00277232131201" lon="10.916373655859926"><ele>604.0</ele><time>2026-04-04T11:15:38.001Z</time></trkpt><trkpt lat="44.00279913434332" lon="10.916263463471878"><ele>604.0</ele><time>2026-04-04T11:15:39.001Z</time></trkpt><trkpt lat="44.00277603123792" lon="10.916143439718246"><ele>604.0</ele><time>2026-04-04T11:15:40.001Z</time></trkpt><trkpt lat="44.00275030763428" lon="10.916030273665237"><ele>604.0</ele><time>2026-04-04T11:15:41.001Z</time></trkpt><trkpt lat="44.002638159530335" lon="10.915967692959134"><ele>604.0</ele><time>2026-04-04T11:15:42.001Z</time></trkpt><trkpt lat="44.00253081314695" lon="10.915940077982729"><ele>604.0</ele><time>2026-04-04T11:15:43.001Z</time></trkpt><trkpt lat="44.00240531883549" lon="10.915948978545746"><ele>602.0</ele><time>2026-04-04T11:15:44.001Z</time></trkpt><trkpt lat="44.00227370285431" lon="10.915973735739861"><ele>600.0</ele><time>2026-04-04T11:15:45.001Z</time></trkpt><trkpt lat="44.00213675599146" lon="10.916017751106313"><ele>598.0</ele><time>2026-04-04T11:15:46.001Z</time></trkpt><trkpt lat="44.00199677333817" lon="10.91607749213373"><ele>596.0</ele><time>2026-04-04T11:15:47.001Z</time></trkpt><trkpt lat="44.00185419294176" lon="10.916162576422206"><ele>596.0</ele><time>2026-04-04T11:15:48.001Z</time></trkpt><trkpt lat="44.001717823243" lon="10.916275441791916"><ele>596.0</ele><time>2026-04-04T11:15:49.001Z</time></trkpt><trkpt lat="44.00158161266273" lon="10.916406992774514"><ele>596.0</ele><time>2026-04-04T11:15:50.001Z</time></trkpt><trkpt lat="44.00143554183971" lon="10.916529037037687"><ele>594.0</ele><time>2026-04-04T11:15:51.001Z</time></trkpt><trkpt lat="44.00128448815934" lon="10.916649213611873"><ele>592.0</ele><time>2026-04-04T11:15:52.001Z</time></trkpt><trkpt lat="44.001127502680745" lon="10.916775287064743"><ele>590.0</ele><time>2026-04-04T11:15:53.001Z</time></trkpt><trkpt lat="44.00097001084055" lon="10.916903348300092"><ele>584.3333333333333</ele><time>2026-04-04T11:15:54.001Z</time></trkpt><trkpt lat="44.00080755771476" lon="10.917034806017751"><ele>578.6666666666666</ele><time>2026-04-04T11:15:55.001Z</time></trkpt><trkpt lat="44.0006532150978" lon="10.917164773277538"><ele>573.0</ele><time>2026-04-04T11:15:56.001Z</time></trkpt><trkpt lat="44.00051289693865" lon="10.91728366764201"><ele>573.0</ele><time>2026-04-04T11:15:57.001Z</time></trkpt><trkpt lat="44.00039449223771" lon="10.91739767707709"><ele>573.0</ele><time>2026-04-04T11:15:58.001Z</time></trkpt><trkpt lat="44.000292138893016" lon="10.917498325657618"><ele>573.0</ele><time>2026-04-04T11:15:59.001Z</time></trkpt><trkpt lat="44.00021034934867" lon="10.91759625572609"><ele>573.0</ele><time>2026-04-04T11:16:00.001Z</time></trkpt><trkpt lat="44.00013625618954" lon="10.917695412883448"><ele>573.1999999999999</ele><time>2026-04-04T11:16:01.001Z</time></trkpt><trkpt lat="44.00005857919385" lon="10.917806280145504"><ele>573.4</ele><time>2026-04-04T11:16:02.001Z</time></trkpt><trkpt lat="43.99998237699709" lon="10.917917308512223"><ele>573.5999999999999</ele><time>2026-04-04T11:16:03.001Z</time></trkpt><trkpt lat="43.99990873997936" lon="10.918022768145546"><ele>573.8</ele><time>2026-04-04T11:16:04.001Z</time></trkpt><trkpt lat="43.99983436880313" lon="10.918124852927747"><ele>574.0</ele><time>2026-04-04T11:16:05.001Z</time></trkpt><trkpt lat="43.99976130653482" lon="10.918223384337267"><ele>574.0</ele><time>2026-04-04T11:16:06.001Z</time></trkpt><trkpt lat="43.99968935010387" lon="10.918321190121638"><ele>574.0</ele><time>2026-04-04T11:16:07.001Z</time></trkpt><trkpt lat="43.99961703934104" lon="10.918405328562349"><ele>574.0</ele><time>2026-04-04T11:16:08.001Z</time></trkpt><trkpt lat="43.999545278137155" lon="10.918493111283565"><ele>574.0</ele><time>2026-04-04T11:16:09.002Z</time></trkpt><trkpt lat="43.99947551593462" lon="10.918573379187986"><ele>574.0</ele><time>2026-04-04T11:16:10.002Z</time></trkpt><trkpt lat="43.99940013410332" lon="10.918641966396507"><ele>570.2</ele><time>2026-04-04T11:16:11.002Z</time></trkpt><trkpt lat="43.999316960306935" lon="10.918687833147452"><ele>566.4</ele><time>2026-04-04T11:16:12.002Z</time></trkpt><trkpt lat="43.9992275548167" lon="10.91871923380399"><ele>562.6</ele><time>2026-04-04T11:16:13.002Z</time></trkpt><trkpt lat="43.99913010438782" lon="10.918736793534453"><ele>558.8</ele><time>2026-04-04T11:16:14.002Z</time></trkpt><trkpt lat="43.999026027000355" lon="10.918744994213831"><ele>555.0</ele><time>2026-04-04T11:16:15.002Z</time></trkpt><trkpt lat="43.998905028411535" lon="10.918755350287407"><ele>555.0</ele><time>2026-04-04T11:16:16.002Z</time></trkpt><trkpt lat="43.99878705282703" lon="10.918760248541068"><ele>555.0</ele><time>2026-04-04T11:16:17.002Z</time></trkpt><trkpt lat="43.99865228840594" lon="10.918776465408305"><ele>555.0</ele><time>2026-04-04T11:16:18.002Z</time></trkpt><trkpt lat="43.99851177442572" lon="10.918780931887959"><ele>555.0</ele><time>2026-04-04T11:16:19.002Z</time></trkpt><trkpt lat="43.99837778083609" lon="10.91879468894362"><ele>556.75</ele><time>2026-04-04T11:16:20.002Z</time></trkpt><trkpt lat="43.99825029233572" lon="10.918808686247857"><ele>558.5</ele><time>2026-04-04T11:16:21.002Z</time></trkpt><trkpt lat="43.99813206377277" lon="10.918837133910223"><ele>560.25</ele><time>2026-04-04T11:16:22.002Z</time></trkpt><trkpt lat="43.99802320627758" lon="10.918887785111012"><ele>562.0</ele><time>2026-04-04T11:16:23.002Z</time></trkpt><trkpt lat="43.997927649334734" lon="10.918980947173544"><ele>562.0</ele><time>2026-04-04T11:16:24.002Z</time></trkpt><trkpt lat="43.99785325141302" lon="10.919093026031353"><ele>562.0</ele><time>2026-04-04T11:16:25.001Z</time></trkpt><trkpt lat="43.99778584767904" lon="10.91921214673447"><ele>562.0</ele><time>2026-04-04T11:16:26.001Z</time></trkpt><trkpt lat="43.997710490892544" lon="10.919313443413687"><ele>562.0</ele><time>2026-04-04T11:16:27.001Z</time></trkpt><trkpt lat="43.99763090466465" lon="10.919393069775241"><ele>562.0</ele><time>2026-04-04T11:16:28.001Z</time></trkpt><trkpt lat="43.99754947657143" lon="10.919459698431043"><ele>560.8333333333334</ele><time>2026-04-04T11:16:29.001Z</time></trkpt><trkpt lat="43.99746878093977" lon="10.919497955767186"><ele>559.6666666666667</ele><time>2026-04-04T11:16:30.001Z</time></trkpt><trkpt lat="43.9973885723833" lon="10.919513419004746"><ele>558.5</ele><time>2026-04-04T11:16:31.001Z</time></trkpt><trkpt lat="43.99730311318563" lon="10.919511509539962"><ele>557.3333333333334</ele><time>2026-04-04T11:16:32.001Z</time></trkpt><trkpt lat="43.99722337465088" lon="10.919495334308182"><ele>556.1666666666666</ele><time>2026-04-04T11:16:33.001Z</time></trkpt><trkpt lat="43.997144370048666" lon="10.919483679619313"><ele>555.0</ele><time>2026-04-04T11:16:34.001Z</time></trkpt><trkpt lat="43.99706648296951" lon="10.919447560473127"><ele>555.0</ele><time>2026-04-04T11:16:35.001Z</time></trkpt><trkpt lat="43.996987768355226" lon="10.919397082199533"><ele>555.0</ele><time>2026-04-04T11:16:36.001Z</time></trkpt><trkpt lat="43.99691375899281" lon="10.919329076069008"><ele>555.0</ele><time>2026-04-04T11:16:37.001Z</time></trkpt><trkpt lat="43.99683955000374" lon="10.919244109407392"><ele>555.0</ele><time>2026-04-04T11:16:38.001Z</time></trkpt><trkpt lat="43.99676946969654" lon="10.919156174777033"><ele>555.0</ele><time>2026-04-04T11:16:39.001Z</time></trkpt><trkpt lat="43.99669730928761" lon="10.9190653442256"><ele>555.0</ele><time>2026-04-04T11:16:40.001Z</time></trkpt><trkpt lat="43.99662648703608" lon="10.918971286085029"><ele>555.0</ele><time>2026-04-04T11:16:41.001Z</time></trkpt><trkpt lat="43.99655190460783" lon="10.918877323838899"><ele>555.0</ele><time>2026-04-04T11:16:42.001Z</time></trkpt><trkpt lat="43.996480654930416" lon="10.918775186300268"><ele>555.0</ele><time>2026-04-04T11:16:43.001Z</time></trkpt><trkpt lat="43.9964099154056" lon="10.918669698830954"><ele>555.0</ele><time>2026-04-04T11:16:44.001Z</time></trkpt><trkpt lat="43.9963414098262" lon="10.918567029416321"><ele>555.0</ele><time>2026-04-04T11:16:45.001Z</time></trkpt><trkpt lat="43.996277849748324" lon="10.918450278851193"><ele>555.0</ele><time>2026-04-04T11:16:46.001Z</time></trkpt><trkpt lat="43.99621153085342" lon="10.918339215301907"><ele>555.0</ele><time>2026-04-04T11:16:47.001Z</time></trkpt><trkpt lat="43.99615067542576" lon="10.918213958148154"><ele>555.0</ele><time>2026-04-04T11:16:48.001Z</time></trkpt><trkpt lat="43.99608249517258" lon="10.91809202819383"><ele>555.0</ele><time>2026-04-04T11:16:49.001Z</time></trkpt><trkpt lat="43.99601346457353" lon="10.917976407638102"><ele>555.2</ele><time>2026-04-04T11:16:50.001Z</time></trkpt><trkpt lat="43.99594391606039" lon="10.917849970660765"><ele>555.4</ele><time>2026-04-04T11:16:51.001Z</time></trkpt><trkpt lat="43.99587609573198" lon="10.917726385380329"><ele>555.6</ele><time>2026-04-04T11:16:52.001Z</time></trkpt><trkpt lat="43.99580708107291" lon="10.917610408058254"><ele>555.8</ele><time>2026-04-04T11:16:53.001Z</time></trkpt><trkpt lat="43.99573815783842" lon="10.917495427006395"><ele>556.0</ele><time>2026-04-04T11:16:54.001Z</time></trkpt><trkpt lat="43.99566465264806" lon="10.917380339283163"><ele>556.0</ele><time>2026-04-04T11:16:55.001Z</time></trkpt><trkpt lat="43.9955860706426" lon="10.917268559479986"><ele>556.0</ele><time>2026-04-04T11:16:56.001Z</time></trkpt><trkpt lat="43.9955055870486" lon="10.917161467090146"><ele>556.0</ele><time>2026-04-04T11:16:57.001Z</time></trkpt><trkpt lat="43.99542637875993" lon="10.917053405666616"><ele>556.0</ele><time>2026-04-04T11:16:58.001Z</time></trkpt><trkpt lat="43.995342473336585" lon="10.916947221688282"><ele>556.0</ele><time>2026-04-04T11:16:59.001Z</time></trkpt><trkpt lat="43.99525963099088" lon="10.916842709498736"><ele>556.0</ele><time>2026-04-04T11:17:00.001Z</time></trkpt><trkpt lat="43.99517821871195" lon="10.916738635574958"><ele>556.0</ele><time>2026-04-04T11:17:01.001Z</time></trkpt><trkpt lat="43.99509555073048" lon="10.916632070080027"><ele>556.0</ele><time>2026-04-04T11:17:02.001Z</time></trkpt><trkpt lat="43.995012075229724" lon="10.916528519552473"><ele>556.0</ele><time>2026-04-04T11:17:03.001Z</time></trkpt><trkpt lat="43.99492620112925" lon="10.916424192940607"><ele>556.0</ele><time>2026-04-04T11:17:04.001Z</time></trkpt><trkpt lat="43.99484352620023" lon="10.916320243020037"><ele>551.75</ele><time>2026-04-04T11:17:05.001Z</time></trkpt><trkpt lat="43.99475475789329" lon="10.916216201679402"><ele>547.5</ele><time>2026-04-04T11:17:06.001Z</time></trkpt><trkpt lat="43.994668493158315" lon="10.916117643228281"><ele>543.25</ele><time>2026-04-04T11:17:07.001Z</time></trkpt><trkpt lat="43.99458190521293" lon="10.916015802685623"><ele>539.0</ele><time>2026-04-04T11:17:08.001Z</time></trkpt><trkpt lat="43.99449572975803" lon="10.915910464085735"><ele>542.25</ele><time>2026-04-04T11:17:09.001Z</time></trkpt><trkpt lat="43.99441322142383" lon="10.915805552540771"><ele>545.5</ele><time>2026-04-04T11:17:10.001Z</time></trkpt><trkpt lat="43.99432862166659" lon="10.915689523354633"><ele>548.75</ele><time>2026-04-04T11:17:11.001Z</time></trkpt><trkpt lat="43.994251741154514" lon="10.915563886764938"><ele>552.0</ele><time>2026-04-04T11:17:12.001Z</time></trkpt><trkpt lat="43.99417739982845" lon="10.91543069926067"><ele>549.0</ele><time>2026-04-04T11:17:13.001Z</time></trkpt><trkpt lat="43.99409920287385" lon="10.915297771741718"><ele>546.0</ele><time>2026-04-04T11:17:14.001Z</time></trkpt><trkpt lat="43.99402654367567" lon="10.915165751415712"><ele>543.0</ele><time>2026-04-04T11:17:15.001Z</time></trkpt><trkpt lat="43.99395125093785" lon="10.915026088696667"><ele>540.0</ele><time>2026-04-04T11:17:16.001Z</time></trkpt><trkpt lat="43.993864885270426" lon="10.91490221789512"><ele>540.0</ele><time>2026-04-04T11:17:17.001Z</time></trkpt><trkpt lat="43.99376544828066" lon="10.914792881622263"><ele>540.0</ele><time>2026-04-04T11:17:18.001Z</time></trkpt><trkpt lat="43.99366484064422" lon="10.91469833884931"><ele>540.0</ele><time>2026-04-04T11:17:19.001Z</time></trkpt><trkpt lat="43.99355616655778" lon="10.914612717522486"><ele>540.0</ele><time>2026-04-04T11:17:20.001Z</time></trkpt><trkpt lat="43.993445236369965" lon="10.914534609785163"><ele>539.5</ele><time>2026-04-04T11:17:21.001Z</time></trkpt><trkpt lat="43.99333360108337" lon="10.914462225080888"><ele>539.0</ele><time>2026-04-04T11:17:22.001Z</time></trkpt><trkpt lat="43.99322742769356" lon="10.91438144891063"><ele>538.5</ele><time>2026-04-04T11:17:23.001Z</time></trkpt><trkpt lat="43.993118240455054" lon="10.9142980849296"><ele>538.0</ele><time>2026-04-04T11:17:24.001Z</time></trkpt><trkpt lat="43.99300951407294" lon="10.91421628027608"><ele>538.0</ele><time>2026-04-04T11:17:25.001Z</time></trkpt><trkpt lat="43.99289338167182" lon="10.91414731026674"><ele>538.0</ele><time>2026-04-04T11:17:26.001Z</time></trkpt><trkpt lat="43.9927748001043" lon="10.914086792974944"><ele>538.0</ele><time>2026-04-04T11:17:27.001Z</time></trkpt><trkpt lat="43.99265882710164" lon="10.914034555796789"><ele>538.0</ele><time>2026-04-04T11:17:28.001Z</time></trkpt><trkpt lat="43.99254069163746" lon="10.91397132912799"><ele>533.0</ele><time>2026-04-04T11:17:29.001Z</time></trkpt><trkpt lat="43.992424529723756" lon="10.91390599075601"><ele>528.0</ele><time>2026-04-04T11:17:30.001Z</time></trkpt><trkpt lat="43.99230509935505" lon="10.913843394570359"><ele>523.0</ele><time>2026-04-04T11:17:31.001Z</time></trkpt><trkpt lat="43.9921850321734" lon="10.913776784330192"><ele>518.0</ele><time>2026-04-04T11:17:32.001Z</time></trkpt><trkpt lat="43.992069393166375" lon="10.913703111554717"><ele>518.0</ele><time>2026-04-04T11:17:33.001Z</time></trkpt><trkpt lat="43.9919680322681" lon="10.913601449468235"><ele>518.0</ele><time>2026-04-04T11:17:34.001Z</time></trkpt><trkpt lat="43.99186100850611" lon="10.913493948145637"><ele>518.0</ele><time>2026-04-04T11:17:35.001Z</time></trkpt><trkpt lat="43.99175026752553" lon="10.91339651901494"><ele>518.0</ele><time>2026-04-04T11:17:36.001Z</time></trkpt><trkpt lat="43.991647859491025" lon="10.913283722180596"><ele>518.0</ele><time>2026-04-04T11:17:37.001Z</time></trkpt><trkpt lat="43.9915451511652" lon="10.913170634223674"><ele>518.0</ele><time>2026-04-04T11:17:38.001Z</time></trkpt><trkpt lat="43.991435757330585" lon="10.913066774097182"><ele>518.0</ele><time>2026-04-04T11:17:39.001Z</time></trkpt><trkpt lat="43.99132607523983" lon="10.912970591235405"><ele>518.0</ele><time>2026-04-04T11:17:40.001Z</time></trkpt><trkpt lat="43.99120214873188" lon="10.912896244398588"><ele>518.0</ele><time>2026-04-04T11:17:41.001Z</time></trkpt><trkpt lat="43.99107254654648" lon="10.91283447442455"><ele>518.0</ele><time>2026-04-04T11:17:42.001Z</time></trkpt><trkpt lat="43.9909409232534" lon="10.91279571984587"><ele>518.0</ele><time>2026-04-04T11:17:43.001Z</time></trkpt><trkpt lat="43.99080786372304" lon="10.91274214786759"><ele>518.0</ele><time>2026-04-04T11:17:44.001Z</time></trkpt><trkpt lat="43.99067324738724" lon="10.91268698374618"><ele>516.25</ele><time>2026-04-04T11:17:45.001Z</time></trkpt><trkpt lat="43.9905399829861" lon="10.912627374942442"><ele>514.5</ele><time>2026-04-04T11:17:46.001Z</time></trkpt><trkpt lat="43.99040821217076" lon="10.91254976611209"><ele>512.75</ele><time>2026-04-04T11:17:47.001Z</time></trkpt><trkpt lat="43.99028179149623" lon="10.91245941645511"><ele>511.0</ele><time>2026-04-04T11:17:48.001Z</time></trkpt><trkpt lat="43.99015786301586" lon="10.91236118357548"><ele>511.0</ele><time>2026-04-04T11:17:49.002Z</time></trkpt><trkpt lat="43.990032325490226" lon="10.912259973535122"><ele>511.0</ele><time>2026-04-04T11:17:50.002Z</time></trkpt><trkpt lat="43.989908216692285" lon="10.912156978458372"><ele>511.0</ele><time>2026-04-04T11:17:51.002Z</time></trkpt><trkpt lat="43.98978719932749" lon="10.912051938891086"><ele>511.0</ele><time>2026-04-04T11:17:52.002Z</time></trkpt><trkpt lat="43.98966925535869" lon="10.911934967221798"><ele>509.0</ele><time>2026-04-04T11:17:53.002Z</time></trkpt><trkpt lat="43.989556466063" lon="10.911818010555821"><ele>507.0</ele><time>2026-04-04T11:17:54.002Z</time></trkpt><trkpt lat="43.98946093053317" lon="10.911695948550078"><ele>505.0</ele><time>2026-04-04T11:17:55.002Z</time></trkpt><trkpt lat="43.98938404620956" lon="10.911555262092337"><ele>503.0</ele><time>2026-04-04T11:17:56.002Z</time></trkpt><trkpt lat="43.98932212217559" lon="10.91140225340647"><ele>503.0</ele><time>2026-04-04T11:17:57.002Z</time></trkpt><trkpt lat="43.98927094878232" lon="10.911243151205584"><ele>503.0</ele><time>2026-04-04T11:17:58.002Z</time></trkpt><trkpt lat="43.98922965032474" lon="10.911080810372882"><ele>503.0</ele><time>2026-04-04T11:17:59.002Z</time></trkpt><trkpt lat="43.989193011930496" lon="10.910928725371866"><ele>503.0</ele><time>2026-04-04T11:18:00.002Z</time></trkpt><trkpt lat="43.98914954193117" lon="10.910785741854209"><ele>501.4</ele><time>2026-04-04T11:18:01.002Z</time></trkpt><trkpt lat="43.989109728513945" lon="10.910659998672621"><ele>499.79999999999995</ele><time>2026-04-04T11:18:02.002Z</time></trkpt><trkpt lat="43.98907266519965" lon="10.910553773843064"><ele>498.2</ele><time>2026-04-04T11:18:03.002Z</time></trkpt><trkpt lat="43.98901551970393" lon="10.910428035353108"><ele>496.6</ele><time>2026-04-04T11:18:05.002Z</time></trkpt><trkpt lat="43.98894022844284" lon="10.91034465032073"><ele>495.0</ele><time>2026-04-04T11:18:08.002Z</time></trkpt><trkpt lat="43.98883211565815" lon="10.910275046532531"><ele>495.0</ele><time>2026-04-04T11:18:10.002Z</time></trkpt><trkpt lat="43.98875714542873" lon="10.910230396597953"><ele>495.0</ele><time>2026-04-04T11:18:11.002Z</time></trkpt><trkpt lat="43.988668901234334" lon="10.910213792450145"><ele>495.0</ele><time>2026-04-04T11:18:12.002Z</time></trkpt><trkpt lat="43.98857982088669" lon="10.910231188337088"><ele>495.0</ele><time>2026-04-04T11:18:13.002Z</time></trkpt><trkpt lat="43.988490851983634" lon="10.91028371878547"><ele>495.0</ele><time>2026-04-04T11:18:14.002Z</time></trkpt><trkpt lat="43.988413082721934" lon="10.910371737971225"><ele>495.0</ele><time>2026-04-04T11:18:15.002Z</time></trkpt><trkpt lat="43.98835909768614" lon="10.910492174264586"><ele>495.0</ele><time>2026-04-04T11:18:16.002Z</time></trkpt><trkpt lat="43.98833994759509" lon="10.910640191870623"><ele>495.0</ele><time>2026-04-04T11:18:17.002Z</time></trkpt><trkpt lat="43.98835339574707" lon="10.910802471757055"><ele>495.0</ele><time>2026-04-04T11:18:18.002Z</time></trkpt><trkpt lat="43.98837819900278" lon="10.910964774087967"><ele>495.0</ele><time>2026-04-04T11:18:19.002Z</time></trkpt><trkpt lat="43.988416416695195" lon="10.911127206589596"><ele>494.25</ele><time>2026-04-04T11:18:20.002Z</time></trkpt><trkpt lat="43.988461199934804" lon="10.911277522003324"><ele>493.5</ele><time>2026-04-04T11:18:21.002Z</time></trkpt><trkpt lat="43.98851124544652" lon="10.911419260962141"><ele>492.75</ele><time>2026-04-04T11:18:22.002Z</time></trkpt><trkpt lat="43.988564973744644" lon="10.911554756199234"><ele>492.0</ele><time>2026-04-04T11:18:23.002Z</time></trkpt><trkpt lat="43.98862166691586" lon="10.911684838835695"><ele>487.75</ele><time>2026-04-04T11:18:24.002Z</time></trkpt><trkpt lat="43.98868349393811" lon="10.911812397461889"><ele>483.5</ele><time>2026-04-04T11:18:25.002Z</time></trkpt><trkpt lat="43.98875245643317" lon="10.911937088309347"><ele>479.25</ele><time>2026-04-04T11:18:26.002Z</time></trkpt><trkpt lat="43.98882505921447" lon="10.912061817717799"><ele>475.0</ele><time>2026-04-04T11:18:27.002Z</time></trkpt><trkpt lat="43.98889883089892" lon="10.91218338361482"><ele>475.0</ele><time>2026-04-04T11:18:28.002Z</time></trkpt><trkpt lat="43.988974906612235" lon="10.912305254285695"><ele>475.0</ele><time>2026-04-04T11:18:29.002Z</time></trkpt><trkpt lat="43.989039825984676" lon="10.912436512385383"><ele>475.0</ele><time>2026-04-04T11:18:30.002Z</time></trkpt><trkpt lat="43.98909897147758" lon="10.912580147034827"><ele>475.0</ele><time>2026-04-04T11:18:31.001Z</time></trkpt><trkpt lat="43.98915072469526" lon="10.912723580786306"><ele>475.6666666666667</ele><time>2026-04-04T11:18:32.001Z</time></trkpt><trkpt lat="43.98918990707515" lon="10.912859101594824"><ele>476.33333333333337</ele><time>2026-04-04T11:18:33.001Z</time></trkpt><trkpt lat="43.98921516704769" lon="10.912980556798148"><ele>477.0</ele><time>2026-04-04T11:18:34.001Z</time></trkpt><trkpt lat="43.98922437280974" lon="10.913075617021839"><ele>477.66666666666663</ele><time>2026-04-04T11:18:35.001Z</time></trkpt><trkpt lat="43.98919120786892" lon="10.91319692882679"><ele>478.3333333333333</ele><time>2026-04-04T11:18:37.001Z</time></trkpt><trkpt lat="43.989194474840396" lon="10.91327785744722"><ele>479.0</ele><time>2026-04-04T11:19:58.001Z</time></trkpt><trkpt lat="43.98925325470076" lon="10.91337611333305"><ele>475.4</ele><time>2026-04-04T11:20:00.002Z</time></trkpt><trkpt lat="43.98931080570999" lon="10.913496106738602"><ele>471.79999999999995</ele><time>2026-04-04T11:20:01.002Z</time></trkpt><trkpt lat="43.989325168330694" lon="10.9135906874935"><ele>468.20000000000005</ele><time>2026-04-04T11:20:02.002Z</time></trkpt><trkpt lat="43.989337437423934" lon="10.913701136662239"><ele>464.6</ele><time>2026-04-04T11:20:03.002Z</time></trkpt><trkpt lat="43.9893372400689" lon="10.913851994142917"><ele>461.0</ele><time>2026-04-04T11:20:04.002Z</time></trkpt><trkpt lat="43.98933714088112" lon="10.914014521824807"><ele>461.0</ele><time>2026-04-04T11:20:05.002Z</time></trkpt><trkpt lat="43.98933712059909" lon="10.914195445726268"><ele>461.0</ele><time>2026-04-04T11:20:06.002Z</time></trkpt><trkpt lat="43.9893259637474" lon="10.914380418003292"><ele>461.0</ele><time>2026-04-04T11:20:07.002Z</time></trkpt><trkpt lat="43.98931221076862" lon="10.914575450096738"><ele>461.0</ele><time>2026-04-04T11:20:08.002Z</time></trkpt><trkpt lat="43.98929348773756" lon="10.914778626103274"><ele>456.25</ele><time>2026-04-04T11:20:09.002Z</time></trkpt><trkpt lat="43.989274645323285" lon="10.914978363213711"><ele>451.5</ele><time>2026-04-04T11:20:10.002Z</time></trkpt><trkpt lat="43.98925425624137" lon="10.915164115761225"><ele>446.75</ele><time>2026-04-04T11:20:11.002Z</time></trkpt><trkpt lat="43.989224022836254" lon="10.915331134416316"><ele>442.0</ele><time>2026-04-04T11:20:12.002Z</time></trkpt><trkpt lat="43.9891765337468" lon="10.915486276767854"><ele>445.75</ele><time>2026-04-04T11:20:13.002Z</time></trkpt><trkpt lat="43.98909804225739" lon="10.915620954205808"><ele>449.5</ele><time>2026-04-04T11:20:14.002Z</time></trkpt><trkpt lat="43.98899568264151" lon="10.915721053228445"><ele>453.25</ele><time>2026-04-04T11:20:15.002Z</time></trkpt><trkpt lat="43.98887124177513" lon="10.915791373333315"><ele>457.0</ele><time>2026-04-04T11:20:16.002Z</time></trkpt><trkpt lat="43.98872780010951" lon="10.915834192006127"><ele>457.0</ele><time>2026-04-04T11:20:17.002Z</time></trkpt><trkpt lat="43.98857939425592" lon="10.915861433426336"><ele>457.0</ele><time>2026-04-04T11:20:18.002Z</time></trkpt><trkpt lat="43.988426423385036" lon="10.915865839470444"><ele>457.0</ele><time>2026-04-04T11:20:19.002Z</time></trkpt><trkpt lat="43.98827137069431" lon="10.915840961912116"><ele>457.0</ele><time>2026-04-04T11:20:20.002Z</time></trkpt><trkpt lat="43.9881234163453" lon="10.915789553434593"><ele>457.0</ele><time>2026-04-04T11:20:21.002Z</time></trkpt><trkpt lat="43.98798664413861" lon="10.915703294987884"><ele>457.0</ele><time>2026-04-04T11:20:22.002Z</time></trkpt><trkpt lat="43.9878624540718" lon="10.915590100046687"><ele>457.0</ele><time>2026-04-04T11:20:23.002Z</time></trkpt><trkpt lat="43.98774544661899" lon="10.915462096794373"><ele>457.0</ele><time>2026-04-04T11:20:24.002Z</time></trkpt><trkpt lat="43.98763762618088" lon="10.915324779699892"><ele>457.0</ele><time>2026-04-04T11:20:25.002Z</time></trkpt><trkpt lat="43.987540452638086" lon="10.915187021944236"><ele>457.0</ele><time>2026-04-04T11:20:26.002Z</time></trkpt><trkpt lat="43.98745686027984" lon="10.915043137733818"><ele>455.8</ele><time>2026-04-04T11:20:27.002Z</time></trkpt><trkpt lat="43.98739158958212" lon="10.914897901430756"><ele>454.6</ele><time>2026-04-04T11:20:28.002Z</time></trkpt><trkpt lat="43.98734309030349" lon="10.914756164502915"><ele>453.40000000000003</ele><time>2026-04-04T11:20:29.002Z</time></trkpt><trkpt lat="43.98733994988494" lon="10.914601783482466"><ele>452.20000000000005</ele><time>2026-04-04T11:20:30.002Z</time></trkpt><trkpt lat="43.98734239728066" lon="10.914463167073773"><ele>451.0</ele><time>2026-04-04T11:20:31.002Z</time></trkpt><trkpt lat="43.98740096041245" lon="10.914333870570415"><ele>452.4</ele><time>2026-04-04T11:20:32.002Z</time></trkpt><trkpt lat="43.98746421791024" lon="10.914226090564215"><ele>453.8</ele><time>2026-04-04T11:20:33.002Z</time></trkpt><trkpt lat="43.98752548994051" lon="10.914125536199487"><ele>455.19999999999993</ele><time>2026-04-04T11:20:34.002Z</time></trkpt><trkpt lat="43.9875909691" lon="10.914035517300162"><ele>456.59999999999997</ele><time>2026-04-04T11:20:35.002Z</time></trkpt><trkpt lat="43.98766494098023" lon="10.913957241329754"><ele>458.0</ele><time>2026-04-04T11:20:36.002Z</time></trkpt><trkpt lat="43.98775028911728" lon="10.91387787065298"><ele>458.0</ele><time>2026-04-04T11:20:37.001Z</time></trkpt><trkpt lat="43.98785119305691" lon="10.913789872768518"><ele>458.0</ele><time>2026-04-04T11:20:38.001Z</time></trkpt><trkpt lat="43.98795662563016" lon="10.913700016406525"><ele>458.0</ele><time>2026-04-04T11:20:39.001Z</time></trkpt><trkpt lat="43.98805889677009" lon="10.913616281566695"><ele>458.0</ele><time>2026-04-04T11:20:40.001Z</time></trkpt><trkpt lat="43.98815987751508" lon="10.913530041055887"><ele>458.0</ele><time>2026-04-04T11:20:41.001Z</time></trkpt><trkpt lat="43.98825570833617" lon="10.913443299321518"><ele>457.99999999999994</ele><time>2026-04-04T11:20:42.001Z</time></trkpt><trkpt lat="43.98834112105357" lon="10.913351816658798"><ele>457.99999999999994</ele><time>2026-04-04T11:20:43.001Z</time></trkpt><trkpt lat="43.98838993173311" lon="10.91323188522373"><ele>458.0</ele><time>2026-04-04T11:20:44.001Z</time></trkpt><trkpt lat="43.98840072245619" lon="10.913089967471299"><ele>458.0</ele><time>2026-04-04T11:20:45.001Z</time></trkpt><trkpt lat="43.98838112956534" lon="10.91294756727459"><ele>456.5</ele><time>2026-04-04T11:20:46.001Z</time></trkpt><trkpt lat="43.988329593069615" lon="10.912806224928374"><ele>455.0</ele><time>2026-04-04T11:20:47.001Z</time></trkpt><trkpt lat="43.98824893736625" lon="10.912674335949268"><ele>453.5</ele><time>2026-04-04T11:20:48.001Z</time></trkpt><trkpt lat="43.98815698446921" lon="10.912548906589798"><ele>452.0</ele><time>2026-04-04T11:20:49.001Z</time></trkpt><trkpt lat="43.98806580631613" lon="10.91241292230804"><ele>452.0</ele><time>2026-04-04T11:20:50.001Z</time></trkpt><trkpt lat="43.98796726010087" lon="10.912273394565252"><ele>452.0</ele><time>2026-04-04T11:20:51.001Z</time></trkpt><trkpt lat="43.98786163389138" lon="10.912147592261334"><ele>452.0</ele><time>2026-04-04T11:20:52.001Z</time></trkpt><trkpt lat="43.98776504455809" lon="10.912046810269944"><ele>452.0</ele><time>2026-04-04T11:20:53Z</time></trkpt><trkpt lat="43.98766885351111" lon="10.911947235886391"><ele>452.0</ele><time>2026-04-04T11:20:54Z</time></trkpt><trkpt lat="43.987571889118335" lon="10.911854127859534"><ele>452.00000000000006</ele><time>2026-04-04T11:20:55Z</time></trkpt><trkpt lat="43.98747987621705" lon="10.911768176245744"><ele>452.00000000000006</ele><time>2026-04-04T11:20:56Z</time></trkpt><trkpt lat="43.98738806712026" lon="10.911681530830142"><ele>452.0</ele><time>2026-04-04T11:20:57Z</time></trkpt><trkpt lat="43.987297856571466" lon="10.91160210602595"><ele>452.0</ele><time>2026-04-04T11:20:58Z</time></trkpt><trkpt lat="43.98720616115342" lon="10.911515106088196"><ele>450.0</ele><time>2026-04-04T11:20:59Z</time></trkpt><trkpt lat="43.9871191899207" lon="10.911428551901967"><ele>448.0</ele><time>2026-04-04T11:21:00Z</time></trkpt><trkpt lat="43.98702572086284" lon="10.911338190665717"><ele>446.0</ele><time>2026-04-04T11:21:01Z</time></trkpt><trkpt lat="43.986926770560174" lon="10.911243544104309"><ele>444.0</ele><time>2026-04-04T11:21:02.001Z</time></trkpt><trkpt lat="43.98682687112322" lon="10.911144862373858"><ele>444.0</ele><time>2026-04-04T11:21:03.001Z</time></trkpt><trkpt lat="43.98673779222755" lon="10.91102851461077"><ele>444.0</ele><time>2026-04-04T11:21:04.001Z</time></trkpt><trkpt lat="43.9866665207669" lon="10.910891679076958"><ele>444.0</ele><time>2026-04-04T11:21:05.001Z</time></trkpt><trkpt lat="43.98660782317764" lon="10.910743564518825"><ele>444.0</ele><time>2026-04-04T11:21:06.001Z</time></trkpt><trkpt lat="43.986561500881095" lon="10.910586872649535"><ele>441.0</ele><time>2026-04-04T11:21:07.001Z</time></trkpt><trkpt lat="43.98654385222918" lon="10.910435182217299"><ele>438.0</ele><time>2026-04-04T11:21:08.001Z</time></trkpt><trkpt lat="43.98657187065834" lon="10.91028386132397"><ele>435.0</ele><time>2026-04-04T11:21:09.001Z</time></trkpt><trkpt lat="43.9866258214344" lon="10.910161455082326"><ele>432.0</ele><time>2026-04-04T11:21:10.001Z</time></trkpt><trkpt lat="43.986673181315844" lon="10.910020503398982"><ele>429.0</ele><time>2026-04-04T11:21:11.001Z</time></trkpt><trkpt lat="43.98672769080673" lon="10.90990191506638"><ele>429.0</ele><time>2026-04-04T11:21:12.001Z</time></trkpt><trkpt lat="43.98676097196616" lon="10.90977190594505"><ele>429.0</ele><time>2026-04-04T11:21:13.001Z</time></trkpt><trkpt lat="43.986762982245274" lon="10.909641789111975"><ele>429.0</ele><time>2026-04-04T11:21:14.001Z</time></trkpt><trkpt lat="43.98672025187824" lon="10.909518357542838"><ele>429.0</ele><time>2026-04-04T11:21:15.001Z</time></trkpt><trkpt lat="43.98664105656784" lon="10.909429174807608"><ele>429.0</ele><time>2026-04-04T11:21:16.001Z</time></trkpt><trkpt lat="43.986543238379625" lon="10.909389894672755"><ele>429.0</ele><time>2026-04-04T11:21:17.001Z</time></trkpt><trkpt lat="43.98642901781636" lon="10.909397608601306"><ele>429.0</ele><time>2026-04-04T11:21:18.001Z</time></trkpt><trkpt lat="43.986303455367036" lon="10.909427971556553"><ele>429.0</ele><time>2026-04-04T11:21:19.001Z</time></trkpt><trkpt lat="43.9861767656896" lon="10.909448744438837"><ele>429.0</ele><time>2026-04-04T11:21:20.001Z</time></trkpt><trkpt lat="43.98604250378877" lon="10.909462897607895"><ele>429.0</ele><time>2026-04-04T11:21:21.001Z</time></trkpt><trkpt lat="43.98591277080128" lon="10.909466304982907"><ele>429.0</ele><time>2026-04-04T11:21:22.001Z</time></trkpt><trkpt lat="43.98578743478074" lon="10.909453798999797"><ele>429.0</ele><time>2026-04-04T11:21:23.001Z</time></trkpt><trkpt lat="43.98566461900083" lon="10.90942002163727"><ele>429.0</ele><time>2026-04-04T11:21:24.001Z</time></trkpt><trkpt lat="43.98553584816623" lon="10.909361334617289"><ele>428.25</ele><time>2026-04-04T11:21:25.001Z</time></trkpt><trkpt lat="43.98540908875179" lon="10.909304897623436"><ele>427.5</ele><time>2026-04-04T11:21:26.001Z</time></trkpt><trkpt lat="43.98528644433497" lon="10.909256795779472"><ele>426.75</ele><time>2026-04-04T11:21:27.001Z</time></trkpt><trkpt lat="43.98516438272513" lon="10.909215918150739"><ele>426.0</ele><time>2026-04-04T11:21:28.001Z</time></trkpt><trkpt lat="43.98505096829474" lon="10.909171207758813"><ele>422.6</ele><time>2026-04-04T11:21:29.001Z</time></trkpt><trkpt lat="43.98494694352287" lon="10.90913139101622"><ele>419.20000000000005</ele><time>2026-04-04T11:21:30.001Z</time></trkpt><trkpt lat="43.98484659070152" lon="10.909083654670575"><ele>415.79999999999995</ele><time>2026-04-04T11:21:31.001Z</time></trkpt><trkpt lat="43.98475700486297" lon="10.909028295833764"><ele>412.4</ele><time>2026-04-04T11:21:32.001Z</time></trkpt><trkpt lat="43.98468250289896" lon="10.908948035725103"><ele>409.0</ele><time>2026-04-04T11:21:33.001Z</time></trkpt><trkpt lat="43.9846207624953" lon="10.90883530595444"><ele>409.0</ele><time>2026-04-04T11:21:34.001Z</time></trkpt><trkpt lat="43.98458080280857" lon="10.908710360522564"><ele>409.0</ele><time>2026-04-04T11:21:35.001Z</time></trkpt><trkpt lat="43.984557994097706" lon="10.908577171935512"><ele>409.0</ele><time>2026-04-04T11:21:36.001Z</time></trkpt><trkpt lat="43.98454941367024" lon="10.908436592736182"><ele>409.0</ele><time>2026-04-04T11:21:37.001Z</time></trkpt><trkpt lat="43.98455141969808" lon="10.908297081084676"><ele>409.0</ele><time>2026-04-04T11:21:38.001Z</time></trkpt><trkpt lat="43.98456344032027" lon="10.90815695169463"><ele>411.0</ele><time>2026-04-04T11:21:39.001Z</time></trkpt><trkpt lat="43.9845737138503" lon="10.908013212813916"><ele>413.0</ele><time>2026-04-04T11:21:40.001Z</time></trkpt><trkpt lat="43.984574960489084" lon="10.907874158058775"><ele>415.0</ele><time>2026-04-04T11:21:41.001Z</time></trkpt><trkpt lat="43.98457482131274" lon="10.907727464797617"><ele>417.0</ele><time>2026-04-04T11:21:42.001Z</time></trkpt><trkpt lat="43.984573028440174" lon="10.90758283205918"><ele>419.0</ele><time>2026-04-04T11:21:43.001Z</time></trkpt><trkpt lat="43.98457224293199" lon="10.90743525943785"><ele>420.75</ele><time>2026-04-04T11:21:44.001Z</time></trkpt><trkpt lat="43.984566101732916" lon="10.907289922880475"><ele>422.5</ele><time>2026-04-04T11:21:45.001Z</time></trkpt><trkpt lat="43.98456827296014" lon="10.907130282629598"><ele>424.25</ele><time>2026-04-04T11:21:46.001Z</time></trkpt><trkpt lat="43.984563613130526" lon="10.906969996576795"><ele>426.0</ele><time>2026-04-04T11:21:47.001Z</time></trkpt><trkpt lat="43.98456000492958" lon="10.906809713474447"><ele>427.4</ele><time>2026-04-04T11:21:48.001Z</time></trkpt><trkpt lat="43.98455470124177" lon="10.906645539524247"><ele>428.8</ele><time>2026-04-04T11:21:49.001Z</time></trkpt><trkpt lat="43.98453997904928" lon="10.90650013501361"><ele>430.19999999999993</ele><time>2026-04-04T11:21:50.001Z</time></trkpt><trkpt lat="43.98448908283203" lon="10.906379103934583"><ele>431.59999999999997</ele><time>2026-04-04T11:21:51.001Z</time></trkpt><trkpt lat="43.98440390658217" lon="10.90629846421512"><ele>433.0</ele><time>2026-04-04T11:21:52.001Z</time></trkpt><trkpt lat="43.98430685224845" lon="10.906264662775522"><ele>433.0</ele><time>2026-04-04T11:21:53.001Z</time></trkpt><trkpt lat="43.9842078358725" lon="10.906274445320452"><ele>432.99999999999994</ele><time>2026-04-04T11:21:54.001Z</time></trkpt><trkpt lat="43.984112521785846" lon="10.906285172493059"><ele>432.99999999999994</ele><time>2026-04-04T11:21:55.001Z</time></trkpt><trkpt lat="43.98403970786084" lon="10.906269362582856"><ele>433.0</ele><time>2026-04-04T11:21:56.001Z</time></trkpt><trkpt lat="43.98393056090854" lon="10.906242318861615"><ele>433.0</ele><time>2026-04-04T11:21:57.001Z</time></trkpt><trkpt lat="43.98384149181903" lon="10.906202952416331"><ele>424.4</ele><time>2026-04-04T11:21:58.001Z</time></trkpt><trkpt lat="43.98375253806386" lon="10.906169890360827"><ele>415.79999999999995</ele><time>2026-04-04T11:21:59.001Z</time></trkpt><trkpt lat="43.98366017907157" lon="10.906137381117045"><ele>407.2</ele><time>2026-04-04T11:22:00.001Z</time></trkpt><trkpt lat="43.98356967411537" lon="10.906110723783748"><ele>398.6</ele><time>2026-04-04T11:22:01.001Z</time></trkpt><trkpt lat="43.983477552113165" lon="10.906079578465869"><ele>390.0</ele><time>2026-04-04T11:22:02.001Z</time></trkpt><trkpt lat="43.98338300372897" lon="10.906051803610143"><ele>391.6</ele><time>2026-04-04T11:22:03.001Z</time></trkpt><trkpt lat="43.98329330707275" lon="10.906021210632208"><ele>393.2</ele><time>2026-04-04T11:22:04.001Z</time></trkpt><trkpt lat="43.9832000444125" lon="10.905983615008077"><ele>394.79999999999995</ele><time>2026-04-04T11:22:05.001Z</time></trkpt><trkpt lat="43.983102075005355" lon="10.905959405722255"><ele>396.4</ele><time>2026-04-04T11:22:06.001Z</time></trkpt><trkpt lat="43.98300562683845" lon="10.905933871808447"><ele>398.0</ele><time>2026-04-04T11:22:07.001Z</time></trkpt><trkpt lat="43.98290927915278" lon="10.905898192485626"><ele>398.0</ele><time>2026-04-04T11:22:08.001Z</time></trkpt><trkpt lat="43.982814994656714" lon="10.90586135391516"><ele>398.0</ele><time>2026-04-04T11:22:09.001Z</time></trkpt><trkpt lat="43.98271488999972" lon="10.905814303114587"><ele>398.0</ele><time>2026-04-04T11:22:10.001Z</time></trkpt><trkpt lat="43.98261803588886" lon="10.905773600019952"><ele>398.0</ele><time>2026-04-04T11:22:11.001Z</time></trkpt><trkpt lat="43.98252343673247" lon="10.905716532973985"><ele>398.0</ele><time>2026-04-04T11:22:12.001Z</time></trkpt><trkpt lat="43.98243414413038" lon="10.905639977890779"><ele>395.0</ele><time>2026-04-04T11:22:13.001Z</time></trkpt><trkpt lat="43.98235542485565" lon="10.905534441661496"><ele>392.0</ele><time>2026-04-04T11:22:14.001Z</time></trkpt><trkpt lat="43.982289378659175" lon="10.905411400320647"><ele>389.0</ele><time>2026-04-04T11:22:15.001Z</time></trkpt><trkpt lat="43.98224713832686" lon="10.905274448548795"><ele>386.0</ele><time>2026-04-04T11:22:16.001Z</time></trkpt><trkpt lat="43.98221514872791" lon="10.905126186946921"><ele>383.0</ele><time>2026-04-04T11:22:17.001Z</time></trkpt><trkpt lat="43.982201810092796" lon="10.904961731346583"><ele>383.0</ele><time>2026-04-04T11:22:18.001Z</time></trkpt><trkpt lat="43.98219823398932" lon="10.904798363891294"><ele>383.0</ele><time>2026-04-04T11:22:19.001Z</time></trkpt><trkpt lat="43.98219297248273" lon="10.90461759319419"><ele>383.0</ele><time>2026-04-04T11:22:20.001Z</time></trkpt><trkpt lat="43.98219293784474" lon="10.90443608870568"><ele>383.0</ele><time>2026-04-04T11:22:21.001Z</time></trkpt><trkpt lat="43.98219772251476" lon="10.904245174458588"><ele>383.25</ele><time>2026-04-04T11:22:22.001Z</time></trkpt><trkpt lat="43.98220144867984" lon="10.904046250775524"><ele>383.5</ele><time>2026-04-04T11:22:23.001Z</time></trkpt><trkpt lat="43.982212141594125" lon="10.903850398190617"><ele>383.75</ele><time>2026-04-04T11:22:24.001Z</time></trkpt><trkpt lat="43.98222376198264" lon="10.903643508323528"><ele>384.0</ele><time>2026-04-04T11:22:25.001Z</time></trkpt><trkpt lat="43.98222953707769" lon="10.903423689596739"><ele>382.0</ele><time>2026-04-04T11:22:26.001Z</time></trkpt><trkpt lat="43.982245224231335" lon="10.90320200660803"><ele>380.0</ele><time>2026-04-04T11:22:27.001Z</time></trkpt><trkpt lat="43.98225701813146" lon="10.90297045936571"><ele>378.0</ele><time>2026-04-04T11:22:28.001Z</time></trkpt><trkpt lat="43.982270556787576" lon="10.902735471051704"><ele>372.6666666666667</ele><time>2026-04-04T11:22:29.001Z</time></trkpt><trkpt lat="43.98228419935903" lon="10.902493958595656"><ele>367.33333333333337</ele><time>2026-04-04T11:22:30.001Z</time></trkpt><trkpt lat="43.9822969529114" lon="10.902255835411856"><ele>362.0</ele><time>2026-04-04T11:22:31.001Z</time></trkpt><trkpt lat="43.98231082937606" lon="10.90202626962568"><ele>362.0</ele><time>2026-04-04T11:22:32.001Z</time></trkpt><trkpt lat="43.982323231595196" lon="10.90180428067139"><ele>362.0</ele><time>2026-04-04T11:22:33.001Z</time></trkpt><trkpt lat="43.98233736237199" lon="10.901592235876672"><ele>362.0</ele><time>2026-04-04T11:22:34.001Z</time></trkpt><trkpt lat="43.98234768120391" lon="10.901386883177164"><ele>360.5</ele><time>2026-04-04T11:22:35.001Z</time></trkpt><trkpt lat="43.98235782376814" lon="10.901188992262375"><ele>359.0</ele><time>2026-04-04T11:22:36.001Z</time></trkpt><trkpt lat="43.98236761928648" lon="10.90100162177547"><ele>357.5</ele><time>2026-04-04T11:22:37.001Z</time></trkpt><trkpt lat="43.98237293731167" lon="10.900820669019742"><ele>356.0</ele><time>2026-04-04T11:22:38.001Z</time></trkpt><trkpt lat="43.98236309274549" lon="10.900660659429318"><ele>354.20000000000005</ele><time>2026-04-04T11:22:39.001Z</time></trkpt><trkpt lat="43.98233395601912" lon="10.90053594827596"><ele>352.40000000000003</ele><time>2026-04-04T11:22:40.001Z</time></trkpt><trkpt lat="43.982258649222466" lon="10.900430679374912"><ele>350.6</ele><time>2026-04-04T11:22:41.001Z</time></trkpt><trkpt lat="43.982158269372434" lon="10.900367428381884"><ele>348.8</ele><time>2026-04-04T11:22:42.001Z</time></trkpt><trkpt lat="43.98204448851167" lon="10.90033668393283"><ele>347.0</ele><time>2026-04-04T11:22:43.001Z</time></trkpt><trkpt lat="43.981925934559094" lon="10.900349229147741"><ele>347.0</ele><time>2026-04-04T11:22:44.001Z</time></trkpt><trkpt lat="43.98181891235416" lon="10.900405089358058"><ele>347.0</ele><time>2026-04-04T11:22:45.001Z</time></trkpt><trkpt lat="43.98173072895072" lon="10.900505523381868"><ele>347.0</ele><time>2026-04-04T11:22:46.001Z</time></trkpt><trkpt lat="43.981662083821305" lon="10.900640124128168"><ele>347.0</ele><time>2026-04-04T11:22:47.001Z</time></trkpt><trkpt lat="43.981605730008795" lon="10.90078289555036"><ele>344.5</ele><time>2026-04-04T11:22:48.001Z</time></trkpt><trkpt lat="43.9815638686102" lon="10.900932180809967"><ele>342.0</ele><time>2026-04-04T11:22:49.001Z</time></trkpt><trkpt lat="43.98154880162374" lon="10.90109123700688"><ele>339.5</ele><time>2026-04-04T11:22:50.001Z</time></trkpt><trkpt lat="43.981559476182866" lon="10.901260610974429"><ele>337.0</ele><time>2026-04-04T11:22:51.001Z</time></trkpt><trkpt lat="43.981595577624844" lon="10.901427852426867"><ele>337.0</ele><time>2026-04-04T11:22:52.001Z</time></trkpt><trkpt lat="43.98162798405826" lon="10.901605164107053"><ele>337.0</ele><time>2026-04-04T11:22:53.001Z</time></trkpt><trkpt lat="43.98164984617966" lon="10.901786331616014"><ele>337.0</ele><time>2026-04-04T11:22:54.001Z</time></trkpt><trkpt lat="43.981669992106276" lon="10.901958162849821"><ele>337.0</ele><time>2026-04-04T11:22:55.001Z</time></trkpt><trkpt lat="43.98167784893431" lon="10.90212849252076"><ele>337.25</ele><time>2026-04-04T11:22:56.001Z</time></trkpt><trkpt lat="43.98166528986998" lon="10.90229472713552"><ele>337.5</ele><time>2026-04-04T11:22:57.001Z</time></trkpt><trkpt lat="43.98161756863081" lon="10.902449406067413"><ele>337.75</ele><time>2026-04-04T11:22:58.001Z</time></trkpt><trkpt lat="43.981544828589826" lon="10.902579620588185"><ele>338.0</ele><time>2026-04-04T11:22:59.001Z</time></trkpt><trkpt lat="43.9814504704013" lon="10.902695027028424"><ele>340.25</ele><time>2026-04-04T11:23:00.001Z</time></trkpt><trkpt lat="43.98134439048256" lon="10.902800748968929"><ele>342.5</ele><time>2026-04-04T11:23:01.001Z</time></trkpt><trkpt lat="43.98123497147132" lon="10.902908295021492"><ele>344.75</ele><time>2026-04-04T11:23:02.001Z</time></trkpt><trkpt lat="43.98112756319539" lon="10.903029833683329"><ele>347.0</ele><time>2026-04-04T11:23:03.001Z</time></trkpt><trkpt lat="43.981026745175754" lon="10.903159247419245"><ele>347.0</ele><time>2026-04-04T11:23:04.001Z</time></trkpt><trkpt lat="43.9809386608733" lon="10.90329677592826"><ele>347.0</ele><time>2026-04-04T11:23:05.001Z</time></trkpt><trkpt lat="43.98086746183019" lon="10.903446083821386"><ele>347.0</ele><time>2026-04-04T11:23:06.001Z</time></trkpt><trkpt lat="43.98081154938091" lon="10.903606194507002"><ele>347.0</ele><time>2026-04-04T11:23:07.001Z</time></trkpt><trkpt lat="43.98077468754515" lon="10.903777866032478"><ele>341.5</ele><time>2026-04-04T11:23:08.001Z</time></trkpt><trkpt lat="43.9807591623048" lon="10.903966524096663"><ele>336.0</ele><time>2026-04-04T11:23:09.001Z</time></trkpt><trkpt lat="43.98074775146037" lon="10.904157953348104"><ele>330.5</ele><time>2026-04-04T11:23:10.001Z</time></trkpt><trkpt lat="43.980729963161856" lon="10.904346399256681"><ele>325.0</ele><time>2026-04-04T11:23:11.001Z</time></trkpt><trkpt lat="43.98070846719357" lon="10.90453885724648"><ele>325.0</ele><time>2026-04-04T11:23:12.001Z</time></trkpt><trkpt lat="43.98068725947796" lon="10.904741722254508"><ele>325.0</ele><time>2026-04-04T11:23:13.001Z</time></trkpt><trkpt lat="43.980671465148404" lon="10.904947467334084"><ele>325.0</ele><time>2026-04-04T11:23:14.001Z</time></trkpt><trkpt lat="43.980657562652844" lon="10.90515791863522"><ele>325.0</ele><time>2026-04-04T11:23:15.001Z</time></trkpt><trkpt lat="43.980637160209454" lon="10.905362390112586"><ele>325.25</ele><time>2026-04-04T11:23:16.001Z</time></trkpt><trkpt lat="43.980619462458364" lon="10.90554990525354"><ele>325.5</ele><time>2026-04-04T11:23:17.001Z</time></trkpt><trkpt lat="43.98059844359893" lon="10.905722778290254"><ele>325.75</ele><time>2026-04-04T11:23:18.001Z</time></trkpt><trkpt lat="43.9805827123246" lon="10.905865175347891"><ele>326.0</ele><time>2026-04-04T11:23:19.001Z</time></trkpt><trkpt lat="43.98055137914707" lon="10.905982389757224"><ele>326.0</ele><time>2026-04-04T11:23:20.001Z</time></trkpt><trkpt lat="43.980495886869654" lon="10.906078917507116"><ele>326.0</ele><time>2026-04-04T11:23:21.001Z</time></trkpt><trkpt lat="43.980414672494014" lon="10.906110690449143"><ele>326.0</ele><time>2026-04-04T11:23:22.001Z</time></trkpt><trkpt lat="43.9803270112048" lon="10.906086381658618"><ele>326.0</ele><time>2026-04-04T11:23:23.001Z</time></trkpt><trkpt lat="43.980252079529365" lon="10.906012055631816"><ele>326.0</ele><time>2026-04-04T11:23:24.001Z</time></trkpt><trkpt lat="43.980198348201135" lon="10.905905219980104"><ele>326.0</ele><time>2026-04-04T11:23:25.001Z</time></trkpt><trkpt lat="43.9801747780868" lon="10.905765538310938"><ele>326.0</ele><time>2026-04-04T11:23:26.001Z</time></trkpt><trkpt lat="43.98016991043029" lon="10.905601952747459"><ele>326.0</ele><time>2026-04-04T11:23:27.001Z</time></trkpt><trkpt lat="43.98017497566759" lon="10.90542189790993"><ele>326.0</ele><time>2026-04-04T11:23:28.001Z</time></trkpt><trkpt lat="43.98019569228474" lon="10.905250370202305"><ele>326.0</ele><time>2026-04-04T11:23:29.001Z</time></trkpt><trkpt lat="43.98022015421009" lon="10.905080006328834"><ele>325.75</ele><time>2026-04-04T11:23:30.001Z</time></trkpt><trkpt lat="43.98024033792793" lon="10.904903433555376"><ele>325.5</ele><time>2026-04-04T11:23:31.001Z</time></trkpt><trkpt lat="43.98025668854546" lon="10.904726256055232"><ele>325.25</ele><time>2026-04-04T11:23:32.001Z</time></trkpt><trkpt lat="43.98027363479314" lon="10.904547091233756"><ele>325.0</ele><time>2026-04-04T11:23:33.001Z</time></trkpt><trkpt lat="43.98028951698657" lon="10.904367230942256"><ele>324.0</ele><time>2026-04-04T11:23:34.001Z</time></trkpt><trkpt lat="43.98029837221675" lon="10.904185407482464"><ele>323.0</ele><time>2026-04-04T11:23:35.001Z</time></trkpt><trkpt lat="43.98028784056046" lon="10.90400458185861"><ele>322.0</ele><time>2026-04-04T11:23:36.001Z</time></trkpt><trkpt lat="43.98025384428337" lon="10.903827998183946"><ele>321.0</ele><time>2026-04-04T11:23:37.001Z</time></trkpt><trkpt lat="43.980201618936746" lon="10.90365732095192"><ele>321.0</ele><time>2026-04-04T11:23:38.001Z</time></trkpt><trkpt lat="43.980153663696576" lon="10.90350426514985"><ele>321.0</ele><time>2026-04-04T11:23:39.001Z</time></trkpt><trkpt lat="43.980113544910466" lon="10.90334695333086"><ele>321.0</ele><time>2026-04-04T11:23:40.001Z</time></trkpt><trkpt lat="43.98008444311278" lon="10.903202591755019"><ele>321.0</ele><time>2026-04-04T11:23:41.001Z</time></trkpt><trkpt lat="43.98007253109042" lon="10.90305913514073"><ele>320.75</ele><time>2026-04-04T11:23:42.001Z</time></trkpt><trkpt lat="43.980080569130976" lon="10.902911254908474"><ele>320.5</ele><time>2026-04-04T11:23:43.001Z</time></trkpt><trkpt lat="43.98010922337405" lon="10.902759314272487"><ele>320.25</ele><time>2026-04-04T11:23:44.001Z</time></trkpt><trkpt lat="43.98015377586038" lon="10.902611029915036"><ele>320.0</ele><time>2026-04-04T11:23:45.001Z</time></trkpt><trkpt lat="43.98020375226078" lon="10.902456981764992"><ele>318.25</ele><time>2026-04-04T11:23:46.001Z</time></trkpt><trkpt lat="43.980247495186084" lon="10.902302426426987"><ele>316.5</ele><time>2026-04-04T11:23:47.001Z</time></trkpt><trkpt lat="43.980280906155706" lon="10.902142536783952"><ele>314.75</ele><time>2026-04-04T11:23:48.001Z</time></trkpt><trkpt lat="43.980303046809944" lon="10.901977732078503"><ele>313.0</ele><time>2026-04-04T11:23:49.001Z</time></trkpt><trkpt lat="43.98030549421618" lon="10.901805520154225"><ele>312.25</ele><time>2026-04-04T11:23:50.001Z</time></trkpt><trkpt lat="43.98029426121005" lon="10.90163396449549"><ele>311.5</ele><time>2026-04-04T11:23:51.001Z</time></trkpt><trkpt lat="43.98026706866143" lon="10.901463709086942"><ele>310.75</ele><time>2026-04-04T11:23:52.001Z</time></trkpt><trkpt lat="43.98023692603346" lon="10.901294248454018"><ele>310.0</ele><time>2026-04-04T11:23:53.001Z</time></trkpt><trkpt lat="43.98020371203123" lon="10.901126198003077"><ele>310.0</ele><time>2026-04-04T11:23:54.001Z</time></trkpt><trkpt lat="43.980172723693975" lon="10.900957526707817"><ele>310.0</ele><time>2026-04-04T11:23:55.001Z</time></trkpt><trkpt lat="43.980158983071135" lon="10.900780485141558"><ele>310.0</ele><time>2026-04-04T11:23:56.001Z</time></trkpt><trkpt lat="43.98016781365275" lon="10.900613056913588"><ele>310.0</ele><time>2026-04-04T11:23:57.001Z</time></trkpt><trkpt lat="43.980186330124255" lon="10.90043458044771"><ele>310.2</ele><time>2026-04-04T11:23:58.001Z</time></trkpt><trkpt lat="43.98021065782609" lon="10.900261574438163"><ele>310.4</ele><time>2026-04-04T11:23:59.001Z</time></trkpt><trkpt lat="43.98023093692255" lon="10.900099680090364"><ele>310.6</ele><time>2026-04-04T11:24:00.001Z</time></trkpt><trkpt lat="43.98024363130496" lon="10.899952334833477"><ele>310.8</ele><time>2026-04-04T11:24:01.001Z</time></trkpt><trkpt lat="43.98024322804199" lon="10.899823119136569"><ele>311.0</ele><time>2026-04-04T11:24:02.001Z</time></trkpt><trkpt lat="43.98021941619153" lon="10.899711384898369"><ele>310.2</ele><time>2026-04-04T11:24:03.001Z</time></trkpt><trkpt lat="43.9801597489555" lon="10.8996301873841"><ele>309.40000000000003</ele><time>2026-04-04T11:24:04.001Z</time></trkpt><trkpt lat="43.980072990295184" lon="10.899594255845393"><ele>308.6</ele><time>2026-04-04T11:24:05.001Z</time></trkpt><trkpt lat="43.97997676560068" lon="10.899624680029245"><ele>307.8</ele><time>2026-04-04T11:24:06.001Z</time></trkpt><trkpt lat="43.97989562470074" lon="10.899702562260856"><ele>307.0</ele><time>2026-04-04T11:24:07.001Z</time></trkpt><trkpt lat="43.97984707337703" lon="10.899836928621"><ele>301.75</ele><time>2026-04-04T11:24:08.001Z</time></trkpt><trkpt lat="43.9798123449216" lon="10.899994977454098"><ele>296.5</ele><time>2026-04-04T11:24:09.001Z</time></trkpt><trkpt lat="43.979768078329705" lon="10.900158956639318"><ele>291.25</ele><time>2026-04-04T11:24:10.001Z</time></trkpt><trkpt lat="43.97972250062958" lon="10.90032660148395"><ele>286.0</ele><time>2026-04-04T11:24:11.001Z</time></trkpt><trkpt lat="43.979686659900985" lon="10.900497191426595"><ele>286.0</ele><time>2026-04-04T11:24:12.001Z</time></trkpt><trkpt lat="43.97966476829614" lon="10.90068131957711"><ele>286.0</ele><time>2026-04-04T11:24:13.001Z</time></trkpt><trkpt lat="43.97966519541143" lon="10.900870768458654"><ele>286.0</ele><time>2026-04-04T11:24:14.001Z</time></trkpt><trkpt lat="43.97968433260452" lon="10.90106562255921"><ele>286.0</ele><time>2026-04-04T11:24:15.001Z</time></trkpt><trkpt lat="43.979700315645694" lon="10.901257935343958"><ele>286.25</ele><time>2026-04-04T11:24:16.001Z</time></trkpt><trkpt lat="43.979699169777604" lon="10.90144082158401"><ele>286.5</ele><time>2026-04-04T11:24:17.001Z</time></trkpt><trkpt lat="43.97966425022268" lon="10.901604439093614"><ele>286.75</ele><time>2026-04-04T11:24:18.001Z</time></trkpt><trkpt lat="43.9795746946888" lon="10.901716549467068"><ele>287.0</ele><time>2026-04-04T11:24:19.001Z</time></trkpt><trkpt lat="43.97948091574262" lon="10.90183241091136"><ele>288.25</ele><time>2026-04-04T11:24:20.001Z</time></trkpt><trkpt lat="43.97936330747689" lon="10.901900808095991"><ele>289.5</ele><time>2026-04-04T11:24:21.001Z</time></trkpt><trkpt lat="43.979230984115794" lon="10.901950674646352"><ele>290.75</ele><time>2026-04-04T11:24:22.001Z</time></trkpt><trkpt lat="43.97910224830694" lon="10.901976500073635"><ele>292.0</ele><time>2026-04-04T11:24:23.001Z</time></trkpt><trkpt lat="43.97895994248325" lon="10.902002063202184"><ele>288.25</ele><time>2026-04-04T11:24:24.001Z</time></trkpt><trkpt lat="43.97881471421118" lon="10.902036255161972"><ele>284.5</ele><time>2026-04-04T11:24:25.001Z</time></trkpt><trkpt lat="43.978665518429715" lon="10.90207637219865"><ele>280.75</ele><time>2026-04-04T11:24:26.001Z</time></trkpt><trkpt lat="43.97852394463874" lon="10.902116903756777"><ele>277.0</ele><time>2026-04-04T11:24:27.001Z</time></trkpt><trkpt lat="43.97837659296397" lon="10.902157118341178"><ele>273.75</ele><time>2026-04-04T11:24:28.001Z</time></trkpt><trkpt lat="43.978232703641204" lon="10.902204255550606"><ele>270.5</ele><time>2026-04-04T11:24:29.001Z</time></trkpt><trkpt lat="43.978086816946494" lon="10.902234147141376"><ele>267.25</ele><time>2026-04-04T11:24:30.001Z</time></trkpt><trkpt lat="43.97794223030964" lon="10.902257476813752"><ele>264.0</ele><time>2026-04-04T11:24:31.001Z</time></trkpt><trkpt lat="43.97779592869222" lon="10.902260412180327"><ele>264.0</ele><time>2026-04-04T11:24:32.001Z</time></trkpt><trkpt lat="43.97765024044574" lon="10.902246015141198"><ele>264.0</ele><time>2026-04-04T11:24:33.001Z</time></trkpt><trkpt lat="43.97750140824375" lon="10.902228040036015"><ele>264.0</ele><time>2026-04-04T11:24:34.001Z</time></trkpt><trkpt lat="43.977352539048596" lon="10.902215490866988"><ele>264.0</ele><time>2026-04-04T11:24:35.001Z</time></trkpt><trkpt lat="43.97719951371267" lon="10.902197890990559"><ele>262.25</ele><time>2026-04-04T11:24:36.001Z</time></trkpt><trkpt lat="43.97705798583253" lon="10.90219508740979"><ele>260.5</ele><time>2026-04-04T11:24:37.001Z</time></trkpt><trkpt lat="43.976912721668626" lon="10.902201768707355"><ele>258.75</ele><time>2026-04-04T11:24:38.001Z</time></trkpt><trkpt lat="43.97677370393536" lon="10.902216921449215"><ele>257.0</ele><time>2026-04-04T11:24:39.001Z</time></trkpt><trkpt lat="43.97663475869111" lon="10.902230717499382"><ele>256.25</ele><time>2026-04-04T11:24:40.001Z</time></trkpt><trkpt lat="43.97649918313306" lon="10.902237491005883"><ele>255.5</ele><time>2026-04-04T11:24:41.001Z</time></trkpt><trkpt lat="43.976370766691026" lon="10.902260693552279"><ele>254.75</ele><time>2026-04-04T11:24:42.001Z</time></trkpt><trkpt lat="43.97624878092361" lon="10.902312095058745"><ele>254.0</ele><time>2026-04-04T11:24:43.001Z</time></trkpt><trkpt lat="43.976136845170416" lon="10.902394927440714"><ele>254.0</ele><time>2026-04-04T11:24:44.001Z</time></trkpt><trkpt lat="43.97602232106225" lon="10.90248859680886"><ele>254.0</ele><time>2026-04-04T11:24:45.001Z</time></trkpt><trkpt lat="43.975906239561226" lon="10.902560962519171"><ele>254.0</ele><time>2026-04-04T11:24:46.001Z</time></trkpt><trkpt lat="43.97578131830571" lon="10.902555482368593"><ele>254.0</ele><time>2026-04-04T11:24:47.001Z</time></trkpt><trkpt lat="43.97565953543763" lon="10.902555223616265"><ele>254.0</ele><time>2026-04-04T11:24:48.001Z</time></trkpt><trkpt lat="43.97553998607507" lon="10.90247490128232"><ele>254.0</ele><time>2026-04-04T11:24:49.001Z</time></trkpt><trkpt lat="43.97542579806673" lon="10.902395277599497"><ele>254.0</ele><time>2026-04-04T11:24:50.001Z</time></trkpt><trkpt lat="43.97530399546736" lon="10.902322756323098"><ele>254.0</ele><time>2026-04-04T11:24:51.001Z</time></trkpt><trkpt lat="43.97517589063687" lon="10.902256861876406"><ele>254.0</ele><time>2026-04-04T11:24:52.001Z</time></trkpt><trkpt lat="43.97504810387349" lon="10.902192500717351"><ele>254.0</ele><time>2026-04-04T11:24:53.001Z</time></trkpt><trkpt lat="43.97493068069461" lon="10.902126011139707"><ele>254.0</ele><time>2026-04-04T11:24:54.001Z</time></trkpt><trkpt lat="43.97481265211638" lon="10.902085885298327"><ele>254.0</ele><time>2026-04-04T11:24:55.001Z</time></trkpt><trkpt lat="43.974695732060006" lon="10.902082822177913"><ele>250.5</ele><time>2026-04-04T11:24:56.001Z</time></trkpt><trkpt lat="43.974572794043304" lon="10.902130553919827"><ele>247.0</ele><time>2026-04-04T11:24:57.001Z</time></trkpt><trkpt lat="43.974453334690004" lon="10.902199062764403"><ele>243.5</ele><time>2026-04-04T11:24:58.001Z</time></trkpt><trkpt lat="43.974333280283844" lon="10.90226885397918"><ele>240.0</ele><time>2026-04-04T11:24:59.001Z</time></trkpt><trkpt lat="43.97421013333291" lon="10.902321073143293"><ele>239.25</ele><time>2026-04-04T11:25:00.001Z</time></trkpt><trkpt lat="43.974084612026616" lon="10.902351676083518"><ele>238.5</ele><time>2026-04-04T11:25:01.001Z</time></trkpt><trkpt lat="43.97395777386409" lon="10.902361712750336"><ele>237.75</ele><time>2026-04-04T11:25:02.001Z</time></trkpt><trkpt lat="43.973823495317745" lon="10.902342469848273"><ele>237.0</ele><time>2026-04-04T11:25:03.001Z</time></trkpt><trkpt lat="43.97369749138636" lon="10.902313693381725"><ele>237.0</ele><time>2026-04-04T11:25:04.001Z</time></trkpt><trkpt lat="43.97357646092643" lon="10.902323607619575"><ele>237.0</ele><time>2026-04-04T11:25:05.001Z</time></trkpt><trkpt lat="43.97345915782936" lon="10.90237867576573"><ele>237.0</ele><time>2026-04-04T11:25:06.001Z</time></trkpt><trkpt lat="43.97335761120406" lon="10.902474503921013"><ele>237.0</ele><time>2026-04-04T11:25:07.001Z</time></trkpt><trkpt lat="43.973279301904114" lon="10.902598180040515"><ele>234.0</ele><time>2026-04-04T11:25:08.001Z</time></trkpt><trkpt lat="43.9732283481264" lon="10.902763891991237"><ele>231.0</ele><time>2026-04-04T11:25:09.001Z</time></trkpt><trkpt lat="43.97319123415365" lon="10.902926534104964"><ele>228.0</ele><time>2026-04-04T11:25:10.001Z</time></trkpt><trkpt lat="43.973145594819904" lon="10.903091422310641"><ele>225.0</ele><time>2026-04-04T11:25:11.001Z</time></trkpt><trkpt lat="43.97309099318917" lon="10.903255890240468"><ele>223.5</ele><time>2026-04-04T11:25:12.001Z</time></trkpt><trkpt lat="43.97303668933518" lon="10.90342302682396"><ele>222.0</ele><time>2026-04-04T11:25:13.001Z</time></trkpt><trkpt lat="43.97298324349829" lon="10.903593454414985"><ele>220.5</ele><time>2026-04-04T11:25:14.001Z</time></trkpt><trkpt lat="43.97292244470639" lon="10.903751567777485"><ele>219.0</ele><time>2026-04-04T11:25:15.001Z</time></trkpt><trkpt lat="43.9728473118319" lon="10.903893428261757"><ele>219.0</ele><time>2026-04-04T11:25:16.001Z</time></trkpt><trkpt lat="43.97276114442972" lon="10.904008756730123"><ele>219.0</ele><time>2026-04-04T11:25:17.001Z</time></trkpt><trkpt lat="43.972660405289815" lon="10.904094166661528"><ele>219.0</ele><time>2026-04-04T11:25:18.001Z</time></trkpt><trkpt lat="43.97254742675225" lon="10.904134881128998"><ele>219.0</ele><time>2026-04-04T11:25:19.001Z</time></trkpt><trkpt lat="43.97242771841173" lon="10.904138953550063"><ele>219.25</ele><time>2026-04-04T11:25:20.001Z</time></trkpt><trkpt lat="43.972301758291565" lon="10.904125939928798"><ele>219.5</ele><time>2026-04-04T11:25:21.001Z</time></trkpt><trkpt lat="43.97216886647275" lon="10.904098998794515"><ele>219.75</ele><time>2026-04-04T11:25:22.001Z</time></trkpt><trkpt lat="43.97203813936357" lon="10.904058936471369"><ele>220.0</ele><time>2026-04-04T11:25:23.001Z</time></trkpt><trkpt lat="43.971903060135006" lon="10.904008174549789"><ele>220.0</ele><time>2026-04-04T11:25:24.001Z</time></trkpt><trkpt lat="43.97176290127173" lon="10.903953805960148"><ele>220.0</ele><time>2026-04-04T11:25:25.001Z</time></trkpt><trkpt lat="43.971618119257954" lon="10.903903420996208"><ele>220.0</ele><time>2026-04-04T11:25:26.001Z</time></trkpt><trkpt lat="43.97147005877581" lon="10.903857761001126"><ele>220.0</ele><time>2026-04-04T11:25:27.001Z</time></trkpt><trkpt lat="43.97131403666902" lon="10.90380824522216"><ele>217.33333333333331</ele><time>2026-04-04T11:25:28.001Z</time></trkpt><trkpt lat="43.971160438163544" lon="10.903755861000063"><ele>214.66666666666669</ele><time>2026-04-04T11:25:29.001Z</time></trkpt><trkpt lat="43.971001595213586" lon="10.903699430885691"><ele>212.0</ele><time>2026-04-04T11:25:30.001Z</time></trkpt><trkpt lat="43.97084393811653" lon="10.903644200487387"><ele>209.66666666666669</ele><time>2026-04-04T11:25:31.001Z</time></trkpt><trkpt lat="43.97068356004668" lon="10.90358843960928"><ele>207.33333333333331</ele><time>2026-04-04T11:25:32.001Z</time></trkpt><trkpt lat="43.970522696825654" lon="10.903540541175435"><ele>205.0</ele><time>2026-04-04T11:25:33.001Z</time></trkpt><trkpt lat="43.97035815785415" lon="10.903491112353226"><ele>205.0</ele><time>2026-04-04T11:25:34.001Z</time></trkpt><trkpt lat="43.97020404032953" lon="10.903439501854974"><ele>205.0</ele><time>2026-04-04T11:25:35.001Z</time></trkpt><trkpt lat="43.970057345124836" lon="10.903386569375506"><ele>205.0</ele><time>2026-04-04T11:25:36.001Z</time></trkpt><trkpt lat="43.969915637507874" lon="10.903338685066515"><ele>204.75</ele><time>2026-04-04T11:25:37.001Z</time></trkpt><trkpt lat="43.96978168695836" lon="10.903307998522175"><ele>204.5</ele><time>2026-04-04T11:25:38.001Z</time></trkpt><trkpt lat="43.96964458499975" lon="10.903314789834049"><ele>204.25</ele><time>2026-04-04T11:25:39.001Z</time></trkpt><trkpt lat="43.969505538697085" lon="10.903347809521733"><ele>204.0</ele><time>2026-04-04T11:25:40.001Z</time></trkpt><trkpt lat="43.96936537559608" lon="10.903381804809424"><ele>202.25</ele><time>2026-04-04T11:25:41.001Z</time></trkpt><trkpt lat="43.969230427103895" lon="10.903430127962041"><ele>200.5</ele><time>2026-04-04T11:25:42.001Z</time></trkpt><trkpt lat="43.96909951275818" lon="10.903496356732163"><ele>198.75</ele><time>2026-04-04T11:25:43.001Z</time></trkpt><trkpt lat="43.96897538009229" lon="10.903579316853637"><ele>197.0</ele><time>2026-04-04T11:25:44.001Z</time></trkpt><trkpt lat="43.96885232536354" lon="10.903674852911553"><ele>196.25</ele><time>2026-04-04T11:25:45.001Z</time></trkpt><trkpt lat="43.96872543400065" lon="10.903778975946329"><ele>195.5</ele><time>2026-04-04T11:25:46.001Z</time></trkpt><trkpt lat="43.96860083501515" lon="10.90389101145703"><ele>194.75</ele><time>2026-04-04T11:25:47.001Z</time></trkpt><trkpt lat="43.968484498321494" lon="10.90401047289585"><ele>194.0</ele><time>2026-04-04T11:25:48.001Z</time></trkpt><trkpt lat="43.96837824676146" lon="10.904138124510517"><ele>194.0</ele><time>2026-04-04T11:25:49.001Z</time></trkpt><trkpt lat="43.96827620964485" lon="10.904273215553697"><ele>194.0</ele><time>2026-04-04T11:25:50.001Z</time></trkpt><trkpt lat="43.96818989463851" lon="10.904417537007806"><ele>194.0</ele><time>2026-04-04T11:25:51.001Z</time></trkpt><trkpt lat="43.96811811501166" lon="10.904583629864408"><ele>194.0</ele><time>2026-04-04T11:25:52.001Z</time></trkpt><trkpt lat="43.968056753060154" lon="10.904763290590202"><ele>194.0</ele><time>2026-04-04T11:25:53.001Z</time></trkpt><trkpt lat="43.968005636254745" lon="10.904944871578587"><ele>194.0</ele><time>2026-04-04T11:25:54.001Z</time></trkpt><trkpt lat="43.967958063905265" lon="10.905126974376088"><ele>194.0</ele><time>2026-04-04T11:25:55.001Z</time></trkpt><trkpt lat="43.96791084922837" lon="10.905311499232294"><ele>194.0</ele><time>2026-04-04T11:25:56.001Z</time></trkpt><trkpt lat="43.96786568478192" lon="10.905491606452223"><ele>192.0</ele><time>2026-04-04T11:25:57.001Z</time></trkpt><trkpt lat="43.967816676468395" lon="10.905678679337582"><ele>190.0</ele><time>2026-04-04T11:25:58.001Z</time></trkpt><trkpt lat="43.96776739263315" lon="10.905861961336077"><ele>188.0</ele><time>2026-04-04T11:25:59.001Z</time></trkpt><trkpt lat="43.96771391137319" lon="10.906041142700442"><ele>186.0</ele><time>2026-04-04T11:26:00.001Z</time></trkpt><trkpt lat="43.967646022660574" lon="10.906197536190817"><ele>186.75</ele><time>2026-04-04T11:26:01.001Z</time></trkpt><trkpt lat="43.96756347980647" lon="10.906321804625527"><ele>187.5</ele><time>2026-04-04T11:26:02.001Z</time></trkpt><trkpt lat="43.96746507694487" lon="10.906407084295601"><ele>188.25</ele><time>2026-04-04T11:26:03.001Z</time></trkpt><trkpt lat="43.967358317172504" lon="10.90643723436186"><ele>189.0</ele><time>2026-04-04T11:26:04.001Z</time></trkpt><trkpt lat="43.967244055931296" lon="10.9064289038112"><ele>189.0</ele><time>2026-04-04T11:26:05.001Z</time></trkpt><trkpt lat="43.96713150705153" lon="10.906372845860247"><ele>189.0</ele><time>2026-04-04T11:26:06.001Z</time></trkpt><trkpt lat="43.967010406934165" lon="10.906295435726303"><ele>189.0</ele><time>2026-04-04T11:26:07.001Z</time></trkpt><trkpt lat="43.96688491242995" lon="10.906214801547243"><ele>189.0</ele><time>2026-04-04T11:26:08.001Z</time></trkpt><trkpt lat="43.96676142496749" lon="10.906114383164049"><ele>187.0</ele><time>2026-04-04T11:26:09.001Z</time></trkpt><trkpt lat="43.96664176548095" lon="10.906009102033588"><ele>185.0</ele><time>2026-04-04T11:26:10.001Z</time></trkpt><trkpt lat="43.966528942874035" lon="10.905936411586792"><ele>183.0</ele><time>2026-04-04T11:26:11.001Z</time></trkpt><trkpt lat="43.966414206979955" lon="10.905914939978047"><ele>181.0</ele><time>2026-04-04T11:26:12.001Z</time></trkpt><trkpt lat="43.966297348009" lon="10.9059332057837"><ele>181.0</ele><time>2026-04-04T11:26:13.001Z</time></trkpt><trkpt lat="43.966182781427406" lon="10.90598897787854"><ele>181.0</ele><time>2026-04-04T11:26:14.001Z</time></trkpt><trkpt lat="43.96608043845392" lon="10.906084256654573"><ele>181.0</ele><time>2026-04-04T11:26:15.001Z</time></trkpt><trkpt lat="43.96598921417851" lon="10.906218258033034"><ele>181.0</ele><time>2026-04-04T11:26:16.001Z</time></trkpt><trkpt lat="43.96591051234729" lon="10.906353053499249"><ele>180.25</ele><time>2026-04-04T11:26:17.001Z</time></trkpt><trkpt lat="43.965816699680666" lon="10.906442345738679"><ele>179.5</ele><time>2026-04-04T11:26:18.001Z</time></trkpt><trkpt lat="43.96570222635896" lon="10.906481341184366"><ele>178.75</ele><time>2026-04-04T11:26:19.001Z</time></trkpt><trkpt lat="43.965579257819044" lon="10.906491595119256"><ele>178.0</ele><time>2026-04-04T11:26:20.001Z</time></trkpt><trkpt lat="43.96544632941825" lon="10.906476338482443"><ele>178.0</ele><time>2026-04-04T11:26:21.001Z</time></trkpt><trkpt lat="43.96531380640422" lon="10.906448559664579"><ele>178.0</ele><time>2026-04-04T11:26:22.001Z</time></trkpt><trkpt lat="43.96518818616549" lon="10.906420516443895"><ele>178.0</ele><time>2026-04-04T11:26:23.001Z</time></trkpt><trkpt lat="43.9650551313769" lon="10.90640049068886"><ele>178.0</ele><time>2026-04-04T11:26:24.001Z</time></trkpt><trkpt lat="43.96491877092988" lon="10.906377886927192"><ele>177.5</ele><time>2026-04-04T11:26:25.001Z</time></trkpt><trkpt lat="43.964783165937824" lon="10.906349462333976"><ele>177.0</ele><time>2026-04-04T11:26:26.001Z</time></trkpt><trkpt lat="43.96465197232053" lon="10.906273927186634"><ele>176.5</ele><time>2026-04-04T11:26:27.001Z</time></trkpt><trkpt lat="43.96452476722385" lon="10.906165906205633"><ele>176.0</ele><time>2026-04-04T11:26:28.001Z</time></trkpt><trkpt lat="43.964398568940084" lon="10.906044923614473"><ele>176.0</ele><time>2026-04-04T11:26:29.001Z</time></trkpt><trkpt lat="43.964266965624205" lon="10.905917675180175"><ele>176.0</ele><time>2026-04-04T11:26:30.001Z</time></trkpt><trkpt lat="43.96412734325674" lon="10.905774700450648"><ele>176.0</ele><time>2026-04-04T11:26:31.001Z</time></trkpt><trkpt lat="43.96396727102078" lon="10.90561911851186"><ele>175.0</ele><time>2026-04-04T11:26:32.001Z</time></trkpt><trkpt lat="43.96379841328312" lon="10.90546481893869"><ele>174.0</ele><time>2026-04-04T11:26:33.001Z</time></trkpt><trkpt lat="43.96364617454432" lon="10.905327058182303"><ele>173.0</ele><time>2026-04-04T11:26:34.001Z</time></trkpt><trkpt lat="43.963513955635605" lon="10.905201897927457"><ele>173.0</ele><time>2026-04-04T11:26:35.001Z</time></trkpt><trkpt lat="43.963403910725795" lon="10.905089231595115"><ele>173.0</ele><time>2026-04-04T11:26:36.001Z</time></trkpt><trkpt lat="43.96331415982654" lon="10.90496895139966"><ele>173.0</ele><time>2026-04-04T11:26:37.001Z</time></trkpt><trkpt lat="43.96325107484599" lon="10.90482173815833"><ele>173.0</ele><time>2026-04-04T11:26:38.001Z</time></trkpt><trkpt lat="43.96322160301361" lon="10.904661093031779"><ele>174.0</ele><time>2026-04-04T11:26:39.001Z</time></trkpt><trkpt lat="43.963233510950445" lon="10.904501780924036"><ele>175.0</ele><time>2026-04-04T11:26:40.001Z</time></trkpt><trkpt lat="43.96328031029061" lon="10.904352192437349"><ele>176.0</ele><time>2026-04-04T11:26:41.001Z</time></trkpt><trkpt lat="43.96337409155522" lon="10.904221969961469"><ele>177.0</ele><time>2026-04-04T11:26:42.001Z</time></trkpt><trkpt lat="43.96345793751274" lon="10.904058277676674"><ele>177.0</ele><time>2026-04-04T11:26:43.001Z</time></trkpt><trkpt lat="43.96354177738003" lon="10.903889825262862"><ele>177.0</ele><time>2026-04-04T11:26:44.001Z</time></trkpt><trkpt lat="43.96361030812046" lon="10.903724512226482"><ele>177.0</ele><time>2026-04-04T11:26:45.001Z</time></trkpt><trkpt lat="43.963645432805514" lon="10.90355163023935"><ele>177.0</ele><time>2026-04-04T11:26:46.001Z</time></trkpt><trkpt lat="43.963639247774665" lon="10.903366916137653"><ele>175.0</ele><time>2026-04-04T11:26:47.001Z</time></trkpt><trkpt lat="43.963605476456905" lon="10.903166795739132"><ele>173.0</ele><time>2026-04-04T11:26:48.001Z</time></trkpt><trkpt lat="43.96355364141255" lon="10.90297233637281"><ele>171.0</ele><time>2026-04-04T11:26:49.001Z</time></trkpt><trkpt lat="43.96347059811859" lon="10.90279936179188"><ele>169.0</ele><time>2026-04-04T11:26:50.001Z</time></trkpt><trkpt lat="43.96335949047882" lon="10.902653915793628"><ele>166.0</ele><time>2026-04-04T11:26:51.001Z</time></trkpt><trkpt lat="43.963227325714655" lon="10.90251928148638"><ele>163.0</ele><time>2026-04-04T11:26:52.001Z</time></trkpt><trkpt lat="43.96308203289229" lon="10.90241935526774"><ele>160.0</ele><time>2026-04-04T11:26:53.001Z</time></trkpt><trkpt lat="43.96291704947902" lon="10.902344083337416"><ele>160.0</ele><time>2026-04-04T11:26:54.001Z</time></trkpt><trkpt lat="43.962739570245624" lon="10.902292857652041"><ele>160.0</ele><time>2026-04-04T11:26:55.001Z</time></trkpt><trkpt lat="43.96257049055718" lon="10.902269795715513"><ele>160.0</ele><time>2026-04-04T11:26:56.001Z</time></trkpt><trkpt lat="43.96240935599198" lon="10.902259565046243"><ele>156.5</ele><time>2026-04-04T11:26:57.001Z</time></trkpt><trkpt lat="43.96225762980564" lon="10.902244867891808"><ele>153.0</ele><time>2026-04-04T11:26:58.001Z</time></trkpt><trkpt lat="43.962108013290525" lon="10.90222434593802"><ele>149.5</ele><time>2026-04-04T11:26:59.001Z</time></trkpt><trkpt lat="43.96197151722656" lon="10.902207666736672"><ele>146.0</ele><time>2026-04-04T11:27:00.001Z</time></trkpt><trkpt lat="43.96183663247253" lon="10.902189947901954"><ele>146.0</ele><time>2026-04-04T11:27:01.001Z</time></trkpt><trkpt lat="43.961699178528534" lon="10.90217456409641"><ele>146.0</ele><time>2026-04-04T11:27:02.001Z</time></trkpt><trkpt lat="43.96156519673571" lon="10.902162251233587"><ele>146.0</ele><time>2026-04-04T11:27:03.001Z</time></trkpt><trkpt lat="43.96144203043009" lon="10.902153386584933"><ele>146.0</ele><time>2026-04-04T11:27:04.001Z</time></trkpt><trkpt lat="43.96131215124041" lon="10.90213755577591"><ele>144.25</ele><time>2026-04-04T11:27:05.001Z</time></trkpt><trkpt lat="43.96118706761331" lon="10.90212371363014"><ele>142.5</ele><time>2026-04-04T11:27:06.001Z</time></trkpt><trkpt lat="43.96106088934563" lon="10.902106317492455"><ele>140.75</ele><time>2026-04-04T11:27:07.001Z</time></trkpt><trkpt lat="43.960943061256" lon="10.902092840266844"><ele>139.0</ele><time>2026-04-04T11:27:08.001Z</time></trkpt><trkpt lat="43.960819545395374" lon="10.902079371869577"><ele>137.5</ele><time>2026-04-04T11:27:09.001Z</time></trkpt><trkpt lat="43.960700806525445" lon="10.90206484697987"><ele>136.0</ele><time>2026-04-04T11:27:10.001Z</time></trkpt><trkpt lat="43.960574168388554" lon="10.902048630001962"><ele>134.5</ele><time>2026-04-04T11:27:11.001Z</time></trkpt><trkpt lat="43.960453682692254" lon="10.9020399830901"><ele>133.0</ele><time>2026-04-04T11:27:12.001Z</time></trkpt><trkpt lat="43.96032562557462" lon="10.90202716319727"><ele>133.0</ele><time>2026-04-04T11:27:13.001Z</time></trkpt><trkpt lat="43.96021095830416" lon="10.902018377293613"><ele>133.0</ele><time>2026-04-04T11:27:14.001Z</time></trkpt><trkpt lat="43.96008783549588" lon="10.90200437663489"><ele>133.0</ele><time>2026-04-04T11:27:15.001Z</time></trkpt><trkpt lat="43.95996424410012" lon="10.90198528432067"><ele>133.0</ele><time>2026-04-04T11:27:16.001Z</time></trkpt><trkpt lat="43.959843096823064" lon="10.901973047171396"><ele>132.0</ele><time>2026-04-04T11:27:17.001Z</time></trkpt><trkpt lat="43.959723624404695" lon="10.901963838461237"><ele>131.0</ele><time>2026-04-04T11:27:18.001Z</time></trkpt><trkpt lat="43.959602844297315" lon="10.901953144417645"><ele>130.0</ele><time>2026-04-04T11:27:19.001Z</time></trkpt><trkpt lat="43.959490944284106" lon="10.901936810312252"><ele>129.0</ele><time>2026-04-04T11:27:20.001Z</time></trkpt><trkpt lat="43.95936923501827" lon="10.901921183773982"><ele>129.0</ele><time>2026-04-04T11:27:21.001Z</time></trkpt><trkpt lat="43.959250807649966" lon="10.901911381653298"><ele>129.0</ele><time>2026-04-04T11:27:22.001Z</time></trkpt><trkpt lat="43.95913759146954" lon="10.901895190665137"><ele>129.0</ele><time>2026-04-04T11:27:23.001Z</time></trkpt><trkpt lat="43.95902102727794" lon="10.901880268220728"><ele>129.0</ele><time>2026-04-04T11:27:24.001Z</time></trkpt><trkpt lat="43.958903208780335" lon="10.901870677508043"><ele>127.33333333333333</ele><time>2026-04-04T11:27:25.001Z</time></trkpt><trkpt lat="43.958794328853884" lon="10.90185568109387"><ele>125.66666666666666</ele><time>2026-04-04T11:27:26.001Z</time></trkpt><trkpt lat="43.958701858806" lon="10.901844434371442"><ele>124.0</ele><time>2026-04-04T11:27:27.001Z</time></trkpt><trkpt lat="43.95862024908346" lon="10.901832921688158"><ele>122.33333333333333</ele><time>2026-04-04T11:27:28.001Z</time></trkpt><trkpt lat="43.9585408407416" lon="10.901818858732225"><ele>120.66666666666666</ele><time>2026-04-04T11:27:29.001Z</time></trkpt><trkpt lat="43.95846949848278" lon="10.90180972118434"><ele>119.0</ele><time>2026-04-04T11:27:30.001Z</time></trkpt><trkpt lat="43.95840637171482" lon="10.901798875917457"><ele>119.0</ele><time>2026-04-04T11:27:31.001Z</time></trkpt><trkpt lat="43.95833384988533" lon="10.90178787937389"><ele>116.0</ele><time>2026-04-04T11:27:34.001Z</time></trkpt><trkpt lat="43.958269847684214" lon="10.901855553486872"><ele>116.0</ele><time>2026-04-04T11:29:40Z</time></trkpt><trkpt lat="43.95824087326605" lon="10.901937142426446"><ele>116.0</ele><time>2026-04-04T11:30:56Z</time></trkpt></trkseg></trk></gpx>